<?xml version="1.0" encoding="UTF-8" standalone="no" ?>
<gpx xmlns="http://www.topografix.com/GPX/1/1" xmlns:xsi="http://www.w3.org/2001/XMLSchema-instance" xsi:schemaLocation="http://www.topografix.com/GPX/1/1 http://www.topografix.com/GPX/1/1/gpx.xsd" version="1.1" creator="VisuGPX - https://www.visugpx.com">
  <metadata>
    <name>Epic enduro</name>
    <desc><![CDATA[SP1 : St martin / bardou
SP2 : Trotinette / La mienne
SP3 : Les crêtes
SP4 : Mini jurassic
SP5 : Le pin
SP6 : Colombières
SP7 : Montahut
SP8 : Jurassic
SP9 : Roc Traucat
SP10 : L'urbaine]]></desc>
  </metadata>
  <trk>
    <name><![CDATA[Radon epic enduro #extreme | Ride | Strava]]></name>
    <trkseg>
      <trkpt lat="43.5563" lon="2.91592">
        <ele>129.4</ele>
        <time>2017-04-16T02:29:00.000Z</time>
      </trkpt>
      <trkpt lat="43.55632" lon="2.91595">
        <ele>129.4</ele>
        <time>2017-04-16T02:30:16.000Z</time>
      </trkpt>
      <trkpt lat="43.55632" lon="2.91595">
        <ele>129.4</ele>
        <time>2017-04-16T02:30:17.000Z</time>
      </trkpt>
      <trkpt lat="43.55642" lon="2.91601">
        <ele>129.4</ele>
        <time>2017-04-16T02:30:24.000Z</time>
      </trkpt>
      <trkpt lat="43.55642" lon="2.91604">
        <ele>129.4</ele>
        <time>2017-04-16T02:30:25.000Z</time>
      </trkpt>
      <trkpt lat="43.55646" lon="2.91616">
        <ele>129.4</ele>
        <time>2017-04-16T02:30:29.000Z</time>
      </trkpt>
      <trkpt lat="43.55648" lon="2.91623">
        <ele>129.4</ele>
        <time>2017-04-16T02:30:31.000Z</time>
      </trkpt>
      <trkpt lat="43.55656" lon="2.91646">
        <ele>129.4</ele>
        <time>2017-04-16T02:30:39.000Z</time>
      </trkpt>
      <trkpt lat="43.55658" lon="2.9165">
        <ele>129.4</ele>
        <time>2017-04-16T02:30:41.000Z</time>
      </trkpt>
      <trkpt lat="43.55673" lon="2.91642">
        <ele>129.4</ele>
        <time>2017-04-16T02:30:46.000Z</time>
      </trkpt>
      <trkpt lat="43.55675" lon="2.9164">
        <ele>129.4</ele>
        <time>2017-04-16T02:30:47.000Z</time>
      </trkpt>
      <trkpt lat="43.55677" lon="2.91637">
        <ele>129.4</ele>
        <time>2017-04-16T02:30:50.000Z</time>
      </trkpt>
      <trkpt lat="43.55678" lon="2.91636">
        <ele>129.4</ele>
        <time>2017-04-16T02:30:52.000Z</time>
      </trkpt>
      <trkpt lat="43.55681" lon="2.91636">
        <ele>129.4</ele>
        <time>2017-04-16T02:30:54.000Z</time>
      </trkpt>
      <trkpt lat="43.55687" lon="2.91636">
        <ele>129.4</ele>
        <time>2017-04-16T02:30:57.000Z</time>
      </trkpt>
      <trkpt lat="43.55699" lon="2.9163">
        <ele>129.4</ele>
        <time>2017-04-16T02:31:02.000Z</time>
      </trkpt>
      <trkpt lat="43.557" lon="2.91629">
        <ele>129.4</ele>
        <time>2017-04-16T02:31:03.000Z</time>
      </trkpt>
      <trkpt lat="43.5571" lon="2.91627">
        <ele>129.4</ele>
        <time>2017-04-16T02:31:06.000Z</time>
      </trkpt>
      <trkpt lat="43.55716" lon="2.91625">
        <ele>129.4</ele>
        <time>2017-04-16T02:31:08.000Z</time>
      </trkpt>
      <trkpt lat="43.55736" lon="2.91605">
        <ele>129</ele>
        <time>2017-04-16T02:31:11.000Z</time>
      </trkpt>
      <trkpt lat="43.55744" lon="2.91592">
        <ele>128.6</ele>
        <time>2017-04-16T02:31:13.000Z</time>
      </trkpt>
      <trkpt lat="43.55752" lon="2.91579">
        <ele>128.4</ele>
        <time>2017-04-16T02:31:15.000Z</time>
      </trkpt>
      <trkpt lat="43.55755" lon="2.91572">
        <ele>128</ele>
        <time>2017-04-16T02:31:16.000Z</time>
      </trkpt>
      <trkpt lat="43.5576" lon="2.91561">
        <ele>127.6</ele>
        <time>2017-04-16T02:31:18.000Z</time>
      </trkpt>
      <trkpt lat="43.55768" lon="2.9154">
        <ele>127</ele>
        <time>2017-04-16T02:31:20.000Z</time>
      </trkpt>
      <trkpt lat="43.55772" lon="2.91523">
        <ele>126.6</ele>
        <time>2017-04-16T02:31:22.000Z</time>
      </trkpt>
      <trkpt lat="43.55774" lon="2.91516">
        <ele>126.4</ele>
        <time>2017-04-16T02:31:23.000Z</time>
      </trkpt>
      <trkpt lat="43.55779" lon="2.91511">
        <ele>126</ele>
        <time>2017-04-16T02:31:24.000Z</time>
      </trkpt>
      <trkpt lat="43.55785" lon="2.91508">
        <ele>125.8</ele>
        <time>2017-04-16T02:31:25.000Z</time>
      </trkpt>
      <trkpt lat="43.55798" lon="2.9151">
        <ele>125.2</ele>
        <time>2017-04-16T02:31:27.000Z</time>
      </trkpt>
      <trkpt lat="43.55805" lon="2.91512">
        <ele>125</ele>
        <time>2017-04-16T02:31:28.000Z</time>
      </trkpt>
      <trkpt lat="43.55811" lon="2.91513">
        <ele>124.8</ele>
        <time>2017-04-16T02:31:29.000Z</time>
      </trkpt>
      <trkpt lat="43.55816" lon="2.91514">
        <ele>124.4</ele>
        <time>2017-04-16T02:31:30.000Z</time>
      </trkpt>
      <trkpt lat="43.55828" lon="2.91514">
        <ele>123.6</ele>
        <time>2017-04-16T02:31:32.000Z</time>
      </trkpt>
      <trkpt lat="43.55839" lon="2.91514">
        <ele>123.2</ele>
        <time>2017-04-16T02:31:34.000Z</time>
      </trkpt>
      <trkpt lat="43.55845" lon="2.91515">
        <ele>122.8</ele>
        <time>2017-04-16T02:31:35.000Z</time>
      </trkpt>
      <trkpt lat="43.55849" lon="2.91519">
        <ele>122.6</ele>
        <time>2017-04-16T02:31:36.000Z</time>
      </trkpt>
      <trkpt lat="43.55852" lon="2.91533">
        <ele>122.4</ele>
        <time>2017-04-16T02:31:38.000Z</time>
      </trkpt>
      <trkpt lat="43.55853" lon="2.91548">
        <ele>122</ele>
        <time>2017-04-16T02:31:40.000Z</time>
      </trkpt>
      <trkpt lat="43.55852" lon="2.91559">
        <ele>121.8</ele>
        <time>2017-04-16T02:31:42.000Z</time>
      </trkpt>
      <trkpt lat="43.55856" lon="2.91551">
        <ele>121.4</ele>
        <time>2017-04-16T02:31:45.000Z</time>
      </trkpt>
      <trkpt lat="43.55856" lon="2.91533">
        <ele>121.2</ele>
        <time>2017-04-16T02:31:49.000Z</time>
      </trkpt>
      <trkpt lat="43.55856" lon="2.9153">
        <ele>121.2</ele>
        <time>2017-04-16T02:31:50.000Z</time>
      </trkpt>
      <trkpt lat="43.55859" lon="2.91513">
        <ele>121</ele>
        <time>2017-04-16T02:31:55.000Z</time>
      </trkpt>
      <trkpt lat="43.55863" lon="2.91498">
        <ele>121.2</ele>
        <time>2017-04-16T02:31:59.000Z</time>
      </trkpt>
      <trkpt lat="43.55866" lon="2.91492">
        <ele>121.4</ele>
        <time>2017-04-16T02:32:01.000Z</time>
      </trkpt>
      <trkpt lat="43.55868" lon="2.91486">
        <ele>121.6</ele>
        <time>2017-04-16T02:32:03.000Z</time>
      </trkpt>
      <trkpt lat="43.5587" lon="2.9148">
        <ele>121.8</ele>
        <time>2017-04-16T02:32:05.000Z</time>
      </trkpt>
      <trkpt lat="43.55872" lon="2.91474">
        <ele>122</ele>
        <time>2017-04-16T02:32:07.000Z</time>
      </trkpt>
      <trkpt lat="43.55875" lon="2.91462">
        <ele>122.4</ele>
        <time>2017-04-16T02:32:11.000Z</time>
      </trkpt>
      <trkpt lat="43.55879" lon="2.91457">
        <ele>123</ele>
        <time>2017-04-16T02:32:13.000Z</time>
      </trkpt>
      <trkpt lat="43.55882" lon="2.91451">
        <ele>123.2</ele>
        <time>2017-04-16T02:32:15.000Z</time>
      </trkpt>
      <trkpt lat="43.55885" lon="2.91447">
        <ele>123.6</ele>
        <time>2017-04-16T02:32:17.000Z</time>
      </trkpt>
      <trkpt lat="43.55887" lon="2.91444">
        <ele>123.8</ele>
        <time>2017-04-16T02:32:19.000Z</time>
      </trkpt>
      <trkpt lat="43.55893" lon="2.91437">
        <ele>124.4</ele>
        <time>2017-04-16T02:32:24.000Z</time>
      </trkpt>
      <trkpt lat="43.55897" lon="2.91436">
        <ele>124.8</ele>
        <time>2017-04-16T02:32:26.000Z</time>
      </trkpt>
      <trkpt lat="43.55903" lon="2.91436">
        <ele>125.2</ele>
        <time>2017-04-16T02:32:28.000Z</time>
      </trkpt>
      <trkpt lat="43.55908" lon="2.91437">
        <ele>125.6</ele>
        <time>2017-04-16T02:32:30.000Z</time>
      </trkpt>
      <trkpt lat="43.55913" lon="2.91438">
        <ele>125.8</ele>
        <time>2017-04-16T02:32:32.000Z</time>
      </trkpt>
      <trkpt lat="43.55923" lon="2.91435">
        <ele>126.4</ele>
        <time>2017-04-16T02:32:36.000Z</time>
      </trkpt>
      <trkpt lat="43.55926" lon="2.91434">
        <ele>127</ele>
        <time>2017-04-16T02:32:38.000Z</time>
      </trkpt>
      <trkpt lat="43.5593" lon="2.91434">
        <ele>127.4</ele>
        <time>2017-04-16T02:32:40.000Z</time>
      </trkpt>
      <trkpt lat="43.55933" lon="2.91432">
        <ele>127.6</ele>
        <time>2017-04-16T02:32:42.000Z</time>
      </trkpt>
      <trkpt lat="43.55937" lon="2.9143">
        <ele>128</ele>
        <time>2017-04-16T02:32:44.000Z</time>
      </trkpt>
      <trkpt lat="43.55942" lon="2.91424">
        <ele>128.4</ele>
        <time>2017-04-16T02:32:47.000Z</time>
      </trkpt>
      <trkpt lat="43.55946" lon="2.91421">
        <ele>129</ele>
        <time>2017-04-16T02:32:49.000Z</time>
      </trkpt>
      <trkpt lat="43.55949" lon="2.91418">
        <ele>129.4</ele>
        <time>2017-04-16T02:32:51.000Z</time>
      </trkpt>
      <trkpt lat="43.55952" lon="2.91416">
        <ele>129.6</ele>
        <time>2017-04-16T02:32:53.000Z</time>
      </trkpt>
      <trkpt lat="43.55956" lon="2.91412">
        <ele>130</ele>
        <time>2017-04-16T02:32:55.000Z</time>
      </trkpt>
      <trkpt lat="43.55958" lon="2.91411">
        <ele>130</ele>
        <time>2017-04-16T02:32:56.000Z</time>
      </trkpt>
      <trkpt lat="43.55965" lon="2.91405">
        <ele>130.6</ele>
        <time>2017-04-16T02:32:59.000Z</time>
      </trkpt>
      <trkpt lat="43.55968" lon="2.91404">
        <ele>130.8</ele>
        <time>2017-04-16T02:33:00.000Z</time>
      </trkpt>
      <trkpt lat="43.5597" lon="2.91403">
        <ele>131</ele>
        <time>2017-04-16T02:33:01.000Z</time>
      </trkpt>
      <trkpt lat="43.55976" lon="2.91402">
        <ele>131.4</ele>
        <time>2017-04-16T02:33:03.000Z</time>
      </trkpt>
      <trkpt lat="43.55982" lon="2.914">
        <ele>131.8</ele>
        <time>2017-04-16T02:33:05.000Z</time>
      </trkpt>
      <trkpt lat="43.55989" lon="2.91398">
        <ele>132</ele>
        <time>2017-04-16T02:33:07.000Z</time>
      </trkpt>
      <trkpt lat="43.55996" lon="2.91399">
        <ele>132.4</ele>
        <time>2017-04-16T02:33:09.000Z</time>
      </trkpt>
      <trkpt lat="43.56" lon="2.91403">
        <ele>133</ele>
        <time>2017-04-16T02:33:11.000Z</time>
      </trkpt>
      <trkpt lat="43.56006" lon="2.91407">
        <ele>133.4</ele>
        <time>2017-04-16T02:33:13.000Z</time>
      </trkpt>
      <trkpt lat="43.56008" lon="2.9141">
        <ele>133.6</ele>
        <time>2017-04-16T02:33:14.000Z</time>
      </trkpt>
      <trkpt lat="43.56011" lon="2.91412">
        <ele>133.8</ele>
        <time>2017-04-16T02:33:15.000Z</time>
      </trkpt>
      <trkpt lat="43.56015" lon="2.91416">
        <ele>134</ele>
        <time>2017-04-16T02:33:17.000Z</time>
      </trkpt>
      <trkpt lat="43.56016" lon="2.91418">
        <ele>134.2</ele>
        <time>2017-04-16T02:33:18.000Z</time>
      </trkpt>
      <trkpt lat="43.56021" lon="2.91422">
        <ele>135</ele>
        <time>2017-04-16T02:33:21.000Z</time>
      </trkpt>
      <trkpt lat="43.56025" lon="2.91424">
        <ele>135.4</ele>
        <time>2017-04-16T02:33:23.000Z</time>
      </trkpt>
      <trkpt lat="43.56029" lon="2.91425">
        <ele>135.8</ele>
        <time>2017-04-16T02:33:25.000Z</time>
      </trkpt>
      <trkpt lat="43.56033" lon="2.91424">
        <ele>136.2</ele>
        <time>2017-04-16T02:33:27.000Z</time>
      </trkpt>
      <trkpt lat="43.56038" lon="2.91424">
        <ele>136.6</ele>
        <time>2017-04-16T02:33:30.000Z</time>
      </trkpt>
      <trkpt lat="43.56041" lon="2.91426">
        <ele>137.2</ele>
        <time>2017-04-16T02:33:32.000Z</time>
      </trkpt>
      <trkpt lat="43.56046" lon="2.91429">
        <ele>137.6</ele>
        <time>2017-04-16T02:33:34.000Z</time>
      </trkpt>
      <trkpt lat="43.56051" lon="2.91431">
        <ele>138</ele>
        <time>2017-04-16T02:33:36.000Z</time>
      </trkpt>
      <trkpt lat="43.56056" lon="2.91434">
        <ele>138.4</ele>
        <time>2017-04-16T02:33:38.000Z</time>
      </trkpt>
      <trkpt lat="43.56064" lon="2.91445">
        <ele>139</ele>
        <time>2017-04-16T02:33:42.000Z</time>
      </trkpt>
      <trkpt lat="43.56066" lon="2.91448">
        <ele>139.2</ele>
        <time>2017-04-16T02:33:43.000Z</time>
      </trkpt>
      <trkpt lat="43.56068" lon="2.91456">
        <ele>140</ele>
        <time>2017-04-16T02:33:46.000Z</time>
      </trkpt>
      <trkpt lat="43.56068" lon="2.91459">
        <ele>140.2</ele>
        <time>2017-04-16T02:33:47.000Z</time>
      </trkpt>
      <trkpt lat="43.56072" lon="2.91465">
        <ele>140.6</ele>
        <time>2017-04-16T02:33:50.000Z</time>
      </trkpt>
      <trkpt lat="43.56076" lon="2.9147">
        <ele>141</ele>
        <time>2017-04-16T02:33:53.000Z</time>
      </trkpt>
      <trkpt lat="43.56083" lon="2.91485">
        <ele>141.4</ele>
        <time>2017-04-16T02:33:59.000Z</time>
      </trkpt>
      <trkpt lat="43.56088" lon="2.91489">
        <ele>141.6</ele>
        <time>2017-04-16T02:34:01.000Z</time>
      </trkpt>
      <trkpt lat="43.5609" lon="2.91491">
        <ele>141.8</ele>
        <time>2017-04-16T02:34:02.000Z</time>
      </trkpt>
      <trkpt lat="43.56093" lon="2.91498">
        <ele>142.4</ele>
        <time>2017-04-16T02:34:05.000Z</time>
      </trkpt>
      <trkpt lat="43.56096" lon="2.91502">
        <ele>142.6</ele>
        <time>2017-04-16T02:34:07.000Z</time>
      </trkpt>
      <trkpt lat="43.56101" lon="2.91505">
        <ele>142.8</ele>
        <time>2017-04-16T02:34:09.000Z</time>
      </trkpt>
      <trkpt lat="43.56102" lon="2.91507">
        <ele>143</ele>
        <time>2017-04-16T02:34:10.000Z</time>
      </trkpt>
      <trkpt lat="43.56105" lon="2.91509">
        <ele>143.2</ele>
        <time>2017-04-16T02:34:11.000Z</time>
      </trkpt>
      <trkpt lat="43.56108" lon="2.91513">
        <ele>143.8</ele>
        <time>2017-04-16T02:34:13.000Z</time>
      </trkpt>
      <trkpt lat="43.56113" lon="2.91514">
        <ele>144.2</ele>
        <time>2017-04-16T02:34:15.000Z</time>
      </trkpt>
      <trkpt lat="43.56117" lon="2.91516">
        <ele>144.6</ele>
        <time>2017-04-16T02:34:17.000Z</time>
      </trkpt>
      <trkpt lat="43.56119" lon="2.91517">
        <ele>144.8</ele>
        <time>2017-04-16T02:34:18.000Z</time>
      </trkpt>
      <trkpt lat="43.56121" lon="2.91519">
        <ele>144.8</ele>
        <time>2017-04-16T02:34:19.000Z</time>
      </trkpt>
      <trkpt lat="43.56129" lon="2.9153">
        <ele>145.6</ele>
        <time>2017-04-16T02:34:24.000Z</time>
      </trkpt>
      <trkpt lat="43.56131" lon="2.91533">
        <ele>145.8</ele>
        <time>2017-04-16T02:34:25.000Z</time>
      </trkpt>
      <trkpt lat="43.56133" lon="2.91543">
        <ele>146.4</ele>
        <time>2017-04-16T02:34:28.000Z</time>
      </trkpt>
      <trkpt lat="43.56135" lon="2.91546">
        <ele>146.6</ele>
        <time>2017-04-16T02:34:29.000Z</time>
      </trkpt>
      <trkpt lat="43.56135" lon="2.9155">
        <ele>146.8</ele>
        <time>2017-04-16T02:34:30.000Z</time>
      </trkpt>
      <trkpt lat="43.56137" lon="2.91556">
        <ele>147</ele>
        <time>2017-04-16T02:34:32.000Z</time>
      </trkpt>
      <trkpt lat="43.56137" lon="2.91558">
        <ele>147.2</ele>
        <time>2017-04-16T02:34:33.000Z</time>
      </trkpt>
      <trkpt lat="43.56139" lon="2.91571">
        <ele>147.6</ele>
        <time>2017-04-16T02:34:38.000Z</time>
      </trkpt>
      <trkpt lat="43.56138" lon="2.91576">
        <ele>148</ele>
        <time>2017-04-16T02:34:40.000Z</time>
      </trkpt>
      <trkpt lat="43.56137" lon="2.91581">
        <ele>148.4</ele>
        <time>2017-04-16T02:34:42.000Z</time>
      </trkpt>
      <trkpt lat="43.56137" lon="2.91587">
        <ele>148.8</ele>
        <time>2017-04-16T02:34:44.000Z</time>
      </trkpt>
      <trkpt lat="43.56137" lon="2.91592">
        <ele>149</ele>
        <time>2017-04-16T02:34:46.000Z</time>
      </trkpt>
      <trkpt lat="43.56139" lon="2.91596">
        <ele>149.6</ele>
        <time>2017-04-16T02:34:48.000Z</time>
      </trkpt>
      <trkpt lat="43.56141" lon="2.91598">
        <ele>149.8</ele>
        <time>2017-04-16T02:34:49.000Z</time>
      </trkpt>
      <trkpt lat="43.56147" lon="2.916">
        <ele>150.6</ele>
        <time>2017-04-16T02:34:52.000Z</time>
      </trkpt>
      <trkpt lat="43.56151" lon="2.91605">
        <ele>151</ele>
        <time>2017-04-16T02:34:54.000Z</time>
      </trkpt>
      <trkpt lat="43.56153" lon="2.91612">
        <ele>151.2</ele>
        <time>2017-04-16T02:34:56.000Z</time>
      </trkpt>
      <trkpt lat="43.56159" lon="2.91619">
        <ele>151.8</ele>
        <time>2017-04-16T02:34:59.000Z</time>
      </trkpt>
      <trkpt lat="43.56161" lon="2.9162">
        <ele>152.2</ele>
        <time>2017-04-16T02:35:00.000Z</time>
      </trkpt>
      <trkpt lat="43.56165" lon="2.91622">
        <ele>152.4</ele>
        <time>2017-04-16T02:35:01.000Z</time>
      </trkpt>
      <trkpt lat="43.56168" lon="2.91625">
        <ele>152.8</ele>
        <time>2017-04-16T02:35:03.000Z</time>
      </trkpt>
      <trkpt lat="43.56171" lon="2.91627">
        <ele>153.2</ele>
        <time>2017-04-16T02:35:05.000Z</time>
      </trkpt>
      <trkpt lat="43.56175" lon="2.91629">
        <ele>153.4</ele>
        <time>2017-04-16T02:35:07.000Z</time>
      </trkpt>
      <trkpt lat="43.5618" lon="2.91631">
        <ele>153.8</ele>
        <time>2017-04-16T02:35:09.000Z</time>
      </trkpt>
      <trkpt lat="43.56181" lon="2.91631">
        <ele>154.2</ele>
        <time>2017-04-16T02:35:10.000Z</time>
      </trkpt>
      <trkpt lat="43.56184" lon="2.91633">
        <ele>154.8</ele>
        <time>2017-04-16T02:35:13.000Z</time>
      </trkpt>
      <trkpt lat="43.56186" lon="2.91633">
        <ele>155</ele>
        <time>2017-04-16T02:35:14.000Z</time>
      </trkpt>
      <trkpt lat="43.56192" lon="2.91631">
        <ele>155.4</ele>
        <time>2017-04-16T02:35:17.000Z</time>
      </trkpt>
      <trkpt lat="43.56194" lon="2.9163">
        <ele>155.6</ele>
        <time>2017-04-16T02:35:18.000Z</time>
      </trkpt>
      <trkpt lat="43.56206" lon="2.91634">
        <ele>156.2</ele>
        <time>2017-04-16T02:35:23.000Z</time>
      </trkpt>
      <trkpt lat="43.5621" lon="2.91637">
        <ele>156.8</ele>
        <time>2017-04-16T02:35:25.000Z</time>
      </trkpt>
      <trkpt lat="43.56214" lon="2.9164">
        <ele>157.2</ele>
        <time>2017-04-16T02:35:27.000Z</time>
      </trkpt>
      <trkpt lat="43.56218" lon="2.91645">
        <ele>157.4</ele>
        <time>2017-04-16T02:35:29.000Z</time>
      </trkpt>
      <trkpt lat="43.56222" lon="2.91646">
        <ele>157.6</ele>
        <time>2017-04-16T02:35:31.000Z</time>
      </trkpt>
      <trkpt lat="43.56231" lon="2.91644">
        <ele>158</ele>
        <time>2017-04-16T02:35:35.000Z</time>
      </trkpt>
      <trkpt lat="43.56238" lon="2.91641">
        <ele>158.8</ele>
        <time>2017-04-16T02:35:38.000Z</time>
      </trkpt>
      <trkpt lat="43.56242" lon="2.9164">
        <ele>159.2</ele>
        <time>2017-04-16T02:35:40.000Z</time>
      </trkpt>
      <trkpt lat="43.56243" lon="2.91639">
        <ele>159.4</ele>
        <time>2017-04-16T02:35:41.000Z</time>
      </trkpt>
      <trkpt lat="43.56245" lon="2.91638">
        <ele>159.6</ele>
        <time>2017-04-16T02:35:42.000Z</time>
      </trkpt>
      <trkpt lat="43.56249" lon="2.91639">
        <ele>159.8</ele>
        <time>2017-04-16T02:35:44.000Z</time>
      </trkpt>
      <trkpt lat="43.56254" lon="2.9164">
        <ele>160.2</ele>
        <time>2017-04-16T02:35:46.000Z</time>
      </trkpt>
      <trkpt lat="43.56258" lon="2.91641">
        <ele>160.8</ele>
        <time>2017-04-16T02:35:48.000Z</time>
      </trkpt>
      <trkpt lat="43.56261" lon="2.91641">
        <ele>161.2</ele>
        <time>2017-04-16T02:35:50.000Z</time>
      </trkpt>
      <trkpt lat="43.56265" lon="2.91644">
        <ele>161.6</ele>
        <time>2017-04-16T02:35:52.000Z</time>
      </trkpt>
      <trkpt lat="43.56269" lon="2.91648">
        <ele>161.8</ele>
        <time>2017-04-16T02:35:54.000Z</time>
      </trkpt>
      <trkpt lat="43.56274" lon="2.91652">
        <ele>162.4</ele>
        <time>2017-04-16T02:35:56.000Z</time>
      </trkpt>
      <trkpt lat="43.56278" lon="2.91656">
        <ele>163</ele>
        <time>2017-04-16T02:35:58.000Z</time>
      </trkpt>
      <trkpt lat="43.5628" lon="2.91658">
        <ele>163.2</ele>
        <time>2017-04-16T02:35:59.000Z</time>
      </trkpt>
      <trkpt lat="43.56288" lon="2.91659">
        <ele>163.8</ele>
        <time>2017-04-16T02:36:02.000Z</time>
      </trkpt>
      <trkpt lat="43.56293" lon="2.9166">
        <ele>164</ele>
        <time>2017-04-16T02:36:04.000Z</time>
      </trkpt>
      <trkpt lat="43.56296" lon="2.91661">
        <ele>164.2</ele>
        <time>2017-04-16T02:36:05.000Z</time>
      </trkpt>
      <trkpt lat="43.56302" lon="2.91663">
        <ele>164.6</ele>
        <time>2017-04-16T02:36:08.000Z</time>
      </trkpt>
      <trkpt lat="43.56306" lon="2.91664">
        <ele>165.2</ele>
        <time>2017-04-16T02:36:10.000Z</time>
      </trkpt>
      <trkpt lat="43.56309" lon="2.91664">
        <ele>165.4</ele>
        <time>2017-04-16T02:36:11.000Z</time>
      </trkpt>
      <trkpt lat="43.56316" lon="2.91667">
        <ele>166</ele>
        <time>2017-04-16T02:36:14.000Z</time>
      </trkpt>
      <trkpt lat="43.56318" lon="2.91667">
        <ele>166.4</ele>
        <time>2017-04-16T02:36:15.000Z</time>
      </trkpt>
      <trkpt lat="43.56323" lon="2.91669">
        <ele>167</ele>
        <time>2017-04-16T02:36:17.000Z</time>
      </trkpt>
      <trkpt lat="43.56327" lon="2.91671">
        <ele>167.4</ele>
        <time>2017-04-16T02:36:19.000Z</time>
      </trkpt>
      <trkpt lat="43.56331" lon="2.91672">
        <ele>167.8</ele>
        <time>2017-04-16T02:36:21.000Z</time>
      </trkpt>
      <trkpt lat="43.56334" lon="2.91673">
        <ele>168</ele>
        <time>2017-04-16T02:36:22.000Z</time>
      </trkpt>
      <trkpt lat="43.5634" lon="2.91682">
        <ele>168.6</ele>
        <time>2017-04-16T02:36:26.000Z</time>
      </trkpt>
      <trkpt lat="43.56342" lon="2.91689">
        <ele>168.8</ele>
        <time>2017-04-16T02:36:28.000Z</time>
      </trkpt>
      <trkpt lat="43.56344" lon="2.91694">
        <ele>169.2</ele>
        <time>2017-04-16T02:36:30.000Z</time>
      </trkpt>
      <trkpt lat="43.56347" lon="2.91699">
        <ele>169.6</ele>
        <time>2017-04-16T02:36:32.000Z</time>
      </trkpt>
      <trkpt lat="43.56349" lon="2.917">
        <ele>169.8</ele>
        <time>2017-04-16T02:36:33.000Z</time>
      </trkpt>
      <trkpt lat="43.56354" lon="2.91701">
        <ele>170.2</ele>
        <time>2017-04-16T02:36:36.000Z</time>
      </trkpt>
      <trkpt lat="43.56358" lon="2.91702">
        <ele>170.6</ele>
        <time>2017-04-16T02:36:38.000Z</time>
      </trkpt>
      <trkpt lat="43.56363" lon="2.91702">
        <ele>171</ele>
        <time>2017-04-16T02:36:40.000Z</time>
      </trkpt>
      <trkpt lat="43.56368" lon="2.91701">
        <ele>171.4</ele>
        <time>2017-04-16T02:36:42.000Z</time>
      </trkpt>
      <trkpt lat="43.56373" lon="2.91703">
        <ele>172</ele>
        <time>2017-04-16T02:36:44.000Z</time>
      </trkpt>
      <trkpt lat="43.56378" lon="2.91704">
        <ele>172.2</ele>
        <time>2017-04-16T02:36:46.000Z</time>
      </trkpt>
      <trkpt lat="43.5638" lon="2.91706">
        <ele>172.6</ele>
        <time>2017-04-16T02:36:47.000Z</time>
      </trkpt>
      <trkpt lat="43.56384" lon="2.9171">
        <ele>173.2</ele>
        <time>2017-04-16T02:36:49.000Z</time>
      </trkpt>
      <trkpt lat="43.56389" lon="2.91715">
        <ele>173.6</ele>
        <time>2017-04-16T02:36:51.000Z</time>
      </trkpt>
      <trkpt lat="43.56394" lon="2.91719">
        <ele>174</ele>
        <time>2017-04-16T02:36:53.000Z</time>
      </trkpt>
      <trkpt lat="43.56397" lon="2.91723">
        <ele>174.4</ele>
        <time>2017-04-16T02:36:55.000Z</time>
      </trkpt>
      <trkpt lat="43.56407" lon="2.91744">
        <ele>175.2</ele>
        <time>2017-04-16T02:37:03.000Z</time>
      </trkpt>
      <trkpt lat="43.56412" lon="2.9176">
        <ele>175.4</ele>
        <time>2017-04-16T02:37:09.000Z</time>
      </trkpt>
      <trkpt lat="43.56413" lon="2.91765">
        <ele>175.6</ele>
        <time>2017-04-16T02:37:11.000Z</time>
      </trkpt>
      <trkpt lat="43.56417" lon="2.91771">
        <ele>175.8</ele>
        <time>2017-04-16T02:37:15.000Z</time>
      </trkpt>
      <trkpt lat="43.56418" lon="2.91771">
        <ele>176</ele>
        <time>2017-04-16T02:37:16.000Z</time>
      </trkpt>
      <trkpt lat="43.56419" lon="2.91777">
        <ele>176.6</ele>
        <time>2017-04-16T02:37:19.000Z</time>
      </trkpt>
      <trkpt lat="43.5642" lon="2.91781">
        <ele>176.8</ele>
        <time>2017-04-16T02:37:20.000Z</time>
      </trkpt>
      <trkpt lat="43.56421" lon="2.91788">
        <ele>177</ele>
        <time>2017-04-16T02:37:22.000Z</time>
      </trkpt>
      <trkpt lat="43.56424" lon="2.91796">
        <ele>177.4</ele>
        <time>2017-04-16T02:37:26.000Z</time>
      </trkpt>
      <trkpt lat="43.56431" lon="2.91802">
        <ele>177.8</ele>
        <time>2017-04-16T02:37:33.000Z</time>
      </trkpt>
      <trkpt lat="43.56432" lon="2.91803">
        <ele>177.8</ele>
        <time>2017-04-16T02:37:34.000Z</time>
      </trkpt>
      <trkpt lat="43.56433" lon="2.91804">
        <ele>177.8</ele>
        <time>2017-04-16T02:37:36.000Z</time>
      </trkpt>
      <trkpt lat="43.56433" lon="2.91805">
        <ele>177.8</ele>
        <time>2017-04-16T02:37:37.000Z</time>
      </trkpt>
      <trkpt lat="43.56436" lon="2.91807">
        <ele>178.2</ele>
        <time>2017-04-16T02:37:40.000Z</time>
      </trkpt>
      <trkpt lat="43.5644" lon="2.91809">
        <ele>178.6</ele>
        <time>2017-04-16T02:37:42.000Z</time>
      </trkpt>
      <trkpt lat="43.56445" lon="2.9181">
        <ele>179</ele>
        <time>2017-04-16T02:37:44.000Z</time>
      </trkpt>
      <trkpt lat="43.56448" lon="2.91811">
        <ele>179</ele>
        <time>2017-04-16T02:37:45.000Z</time>
      </trkpt>
      <trkpt lat="43.5645" lon="2.91813">
        <ele>179.2</ele>
        <time>2017-04-16T02:37:46.000Z</time>
      </trkpt>
      <trkpt lat="43.56456" lon="2.91816">
        <ele>179.6</ele>
        <time>2017-04-16T02:37:48.000Z</time>
      </trkpt>
      <trkpt lat="43.56464" lon="2.91817">
        <ele>180.2</ele>
        <time>2017-04-16T02:37:50.000Z</time>
      </trkpt>
      <trkpt lat="43.56469" lon="2.91817">
        <ele>180.4</ele>
        <time>2017-04-16T02:37:51.000Z</time>
      </trkpt>
      <trkpt lat="43.56472" lon="2.91817">
        <ele>180.6</ele>
        <time>2017-04-16T02:37:52.000Z</time>
      </trkpt>
      <trkpt lat="43.56477" lon="2.91818">
        <ele>181</ele>
        <time>2017-04-16T02:37:54.000Z</time>
      </trkpt>
      <trkpt lat="43.56479" lon="2.91819">
        <ele>181.2</ele>
        <time>2017-04-16T02:37:55.000Z</time>
      </trkpt>
      <trkpt lat="43.5648" lon="2.91822">
        <ele>181.6</ele>
        <time>2017-04-16T02:37:57.000Z</time>
      </trkpt>
      <trkpt lat="43.56482" lon="2.91824">
        <ele>182.2</ele>
        <time>2017-04-16T02:37:59.000Z</time>
      </trkpt>
      <trkpt lat="43.56484" lon="2.91829">
        <ele>182.6</ele>
        <time>2017-04-16T02:38:01.000Z</time>
      </trkpt>
      <trkpt lat="43.56485" lon="2.9183">
        <ele>182.8</ele>
        <time>2017-04-16T02:38:02.000Z</time>
      </trkpt>
      <trkpt lat="43.56487" lon="2.91833">
        <ele>183</ele>
        <time>2017-04-16T02:38:03.000Z</time>
      </trkpt>
      <trkpt lat="43.5649" lon="2.91836">
        <ele>183.4</ele>
        <time>2017-04-16T02:38:05.000Z</time>
      </trkpt>
      <trkpt lat="43.56493" lon="2.91837">
        <ele>183.4</ele>
        <time>2017-04-16T02:38:06.000Z</time>
      </trkpt>
      <trkpt lat="43.56495" lon="2.91839">
        <ele>183.8</ele>
        <time>2017-04-16T02:38:07.000Z</time>
      </trkpt>
      <trkpt lat="43.56501" lon="2.91842">
        <ele>184.4</ele>
        <time>2017-04-16T02:38:09.000Z</time>
      </trkpt>
      <trkpt lat="43.56508" lon="2.91846">
        <ele>185</ele>
        <time>2017-04-16T02:38:11.000Z</time>
      </trkpt>
      <trkpt lat="43.56516" lon="2.91849">
        <ele>185.4</ele>
        <time>2017-04-16T02:38:13.000Z</time>
      </trkpt>
      <trkpt lat="43.56522" lon="2.91852">
        <ele>185.6</ele>
        <time>2017-04-16T02:38:15.000Z</time>
      </trkpt>
      <trkpt lat="43.56524" lon="2.91854">
        <ele>186</ele>
        <time>2017-04-16T02:38:16.000Z</time>
      </trkpt>
      <trkpt lat="43.56527" lon="2.91858">
        <ele>186.6</ele>
        <time>2017-04-16T02:38:18.000Z</time>
      </trkpt>
      <trkpt lat="43.56529" lon="2.91862">
        <ele>187</ele>
        <time>2017-04-16T02:38:20.000Z</time>
      </trkpt>
      <trkpt lat="43.5653" lon="2.91866">
        <ele>187.4</ele>
        <time>2017-04-16T02:38:22.000Z</time>
      </trkpt>
      <trkpt lat="43.5653" lon="2.91869">
        <ele>187.8</ele>
        <time>2017-04-16T02:38:23.000Z</time>
      </trkpt>
      <trkpt lat="43.56531" lon="2.91874">
        <ele>188.4</ele>
        <time>2017-04-16T02:38:25.000Z</time>
      </trkpt>
      <trkpt lat="43.56531" lon="2.91879">
        <ele>189</ele>
        <time>2017-04-16T02:38:27.000Z</time>
      </trkpt>
      <trkpt lat="43.56532" lon="2.91885">
        <ele>189.4</ele>
        <time>2017-04-16T02:38:29.000Z</time>
      </trkpt>
      <trkpt lat="43.56532" lon="2.91891">
        <ele>189.8</ele>
        <time>2017-04-16T02:38:31.000Z</time>
      </trkpt>
      <trkpt lat="43.56533" lon="2.91896">
        <ele>190.2</ele>
        <time>2017-04-16T02:38:33.000Z</time>
      </trkpt>
      <trkpt lat="43.56535" lon="2.91901">
        <ele>190.8</ele>
        <time>2017-04-16T02:38:35.000Z</time>
      </trkpt>
      <trkpt lat="43.56537" lon="2.91906">
        <ele>191.4</ele>
        <time>2017-04-16T02:38:37.000Z</time>
      </trkpt>
      <trkpt lat="43.56539" lon="2.91912">
        <ele>191.6</ele>
        <time>2017-04-16T02:38:39.000Z</time>
      </trkpt>
      <trkpt lat="43.56539" lon="2.91917">
        <ele>192</ele>
        <time>2017-04-16T02:38:41.000Z</time>
      </trkpt>
      <trkpt lat="43.5654" lon="2.91935">
        <ele>192.8</ele>
        <time>2017-04-16T02:38:47.000Z</time>
      </trkpt>
      <trkpt lat="43.56541" lon="2.91941">
        <ele>193.4</ele>
        <time>2017-04-16T02:38:49.000Z</time>
      </trkpt>
      <trkpt lat="43.56542" lon="2.91947">
        <ele>193.8</ele>
        <time>2017-04-16T02:38:51.000Z</time>
      </trkpt>
      <trkpt lat="43.56544" lon="2.91954">
        <ele>194</ele>
        <time>2017-04-16T02:38:53.000Z</time>
      </trkpt>
      <trkpt lat="43.56547" lon="2.9196">
        <ele>194.4</ele>
        <time>2017-04-16T02:38:55.000Z</time>
      </trkpt>
      <trkpt lat="43.56558" lon="2.91971">
        <ele>195</ele>
        <time>2017-04-16T02:39:00.000Z</time>
      </trkpt>
      <trkpt lat="43.56562" lon="2.91973">
        <ele>195.6</ele>
        <time>2017-04-16T02:39:02.000Z</time>
      </trkpt>
      <trkpt lat="43.56568" lon="2.91973">
        <ele>196</ele>
        <time>2017-04-16T02:39:04.000Z</time>
      </trkpt>
      <trkpt lat="43.56572" lon="2.91973">
        <ele>196.4</ele>
        <time>2017-04-16T02:39:06.000Z</time>
      </trkpt>
      <trkpt lat="43.56577" lon="2.91972">
        <ele>196.6</ele>
        <time>2017-04-16T02:39:08.000Z</time>
      </trkpt>
      <trkpt lat="43.56584" lon="2.91969">
        <ele>197</ele>
        <time>2017-04-16T02:39:11.000Z</time>
      </trkpt>
      <trkpt lat="43.56589" lon="2.91961">
        <ele>197.4</ele>
        <time>2017-04-16T02:39:15.000Z</time>
      </trkpt>
      <trkpt lat="43.5659" lon="2.91958">
        <ele>197.8</ele>
        <time>2017-04-16T02:39:16.000Z</time>
      </trkpt>
      <trkpt lat="43.5659" lon="2.91955">
        <ele>198</ele>
        <time>2017-04-16T02:39:17.000Z</time>
      </trkpt>
      <trkpt lat="43.56591" lon="2.9195">
        <ele>198.4</ele>
        <time>2017-04-16T02:39:19.000Z</time>
      </trkpt>
      <trkpt lat="43.5659" lon="2.91947">
        <ele>198.4</ele>
        <time>2017-04-16T02:39:20.000Z</time>
      </trkpt>
      <trkpt lat="43.56591" lon="2.91945">
        <ele>198.6</ele>
        <time>2017-04-16T02:39:21.000Z</time>
      </trkpt>
      <trkpt lat="43.56591" lon="2.91939">
        <ele>198.8</ele>
        <time>2017-04-16T02:39:23.000Z</time>
      </trkpt>
      <trkpt lat="43.56591" lon="2.91936">
        <ele>199.2</ele>
        <time>2017-04-16T02:39:24.000Z</time>
      </trkpt>
      <trkpt lat="43.56591" lon="2.9193">
        <ele>199.8</ele>
        <time>2017-04-16T02:39:26.000Z</time>
      </trkpt>
      <trkpt lat="43.56591" lon="2.91924">
        <ele>200.2</ele>
        <time>2017-04-16T02:39:28.000Z</time>
      </trkpt>
      <trkpt lat="43.5659" lon="2.91918">
        <ele>200.6</ele>
        <time>2017-04-16T02:39:30.000Z</time>
      </trkpt>
      <trkpt lat="43.5659" lon="2.91912">
        <ele>201</ele>
        <time>2017-04-16T02:39:32.000Z</time>
      </trkpt>
      <trkpt lat="43.56588" lon="2.91894">
        <ele>201.6</ele>
        <time>2017-04-16T02:39:38.000Z</time>
      </trkpt>
      <trkpt lat="43.56587" lon="2.9188">
        <ele>202</ele>
        <time>2017-04-16T02:39:43.000Z</time>
      </trkpt>
      <trkpt lat="43.56586" lon="2.91875">
        <ele>202.4</ele>
        <time>2017-04-16T02:39:45.000Z</time>
      </trkpt>
      <trkpt lat="43.56585" lon="2.9187">
        <ele>202.8</ele>
        <time>2017-04-16T02:39:47.000Z</time>
      </trkpt>
      <trkpt lat="43.56584" lon="2.91863">
        <ele>203.2</ele>
        <time>2017-04-16T02:39:49.000Z</time>
      </trkpt>
      <trkpt lat="43.56584" lon="2.91857">
        <ele>203.4</ele>
        <time>2017-04-16T02:39:51.000Z</time>
      </trkpt>
      <trkpt lat="43.56585" lon="2.9185">
        <ele>203.8</ele>
        <time>2017-04-16T02:39:53.000Z</time>
      </trkpt>
      <trkpt lat="43.56585" lon="2.91844">
        <ele>204.4</ele>
        <time>2017-04-16T02:39:55.000Z</time>
      </trkpt>
      <trkpt lat="43.56587" lon="2.91839">
        <ele>204.8</ele>
        <time>2017-04-16T02:39:57.000Z</time>
      </trkpt>
      <trkpt lat="43.56588" lon="2.91834">
        <ele>205.2</ele>
        <time>2017-04-16T02:39:59.000Z</time>
      </trkpt>
      <trkpt lat="43.5659" lon="2.91828">
        <ele>205.4</ele>
        <time>2017-04-16T02:40:01.000Z</time>
      </trkpt>
      <trkpt lat="43.5659" lon="2.91823">
        <ele>205.8</ele>
        <time>2017-04-16T02:40:03.000Z</time>
      </trkpt>
      <trkpt lat="43.56591" lon="2.91817">
        <ele>206.4</ele>
        <time>2017-04-16T02:40:05.000Z</time>
      </trkpt>
      <trkpt lat="43.56591" lon="2.91812">
        <ele>206.8</ele>
        <time>2017-04-16T02:40:07.000Z</time>
      </trkpt>
      <trkpt lat="43.56592" lon="2.91807">
        <ele>207.2</ele>
        <time>2017-04-16T02:40:09.000Z</time>
      </trkpt>
      <trkpt lat="43.56593" lon="2.91801">
        <ele>207.4</ele>
        <time>2017-04-16T02:40:11.000Z</time>
      </trkpt>
      <trkpt lat="43.56599" lon="2.91791">
        <ele>208.2</ele>
        <time>2017-04-16T02:40:16.000Z</time>
      </trkpt>
      <trkpt lat="43.566" lon="2.91789">
        <ele>208.4</ele>
        <time>2017-04-16T02:40:17.000Z</time>
      </trkpt>
      <trkpt lat="43.56607" lon="2.91789">
        <ele>209.2</ele>
        <time>2017-04-16T02:40:20.000Z</time>
      </trkpt>
      <trkpt lat="43.56611" lon="2.91793">
        <ele>209.4</ele>
        <time>2017-04-16T02:40:22.000Z</time>
      </trkpt>
      <trkpt lat="43.56613" lon="2.91799">
        <ele>209.8</ele>
        <time>2017-04-16T02:40:24.000Z</time>
      </trkpt>
      <trkpt lat="43.56613" lon="2.91802">
        <ele>209.8</ele>
        <time>2017-04-16T02:40:25.000Z</time>
      </trkpt>
      <trkpt lat="43.5661" lon="2.91813">
        <ele>210.6</ele>
        <time>2017-04-16T02:40:28.000Z</time>
      </trkpt>
      <trkpt lat="43.56608" lon="2.9182">
        <ele>211</ele>
        <time>2017-04-16T02:40:30.000Z</time>
      </trkpt>
      <trkpt lat="43.56607" lon="2.91823">
        <ele>211.2</ele>
        <time>2017-04-16T02:40:31.000Z</time>
      </trkpt>
      <trkpt lat="43.56608" lon="2.91832">
        <ele>211.8</ele>
        <time>2017-04-16T02:40:34.000Z</time>
      </trkpt>
      <trkpt lat="43.56611" lon="2.91841">
        <ele>212.2</ele>
        <time>2017-04-16T02:40:37.000Z</time>
      </trkpt>
      <trkpt lat="43.56613" lon="2.91847">
        <ele>212.8</ele>
        <time>2017-04-16T02:40:39.000Z</time>
      </trkpt>
      <trkpt lat="43.56615" lon="2.91853">
        <ele>213.2</ele>
        <time>2017-04-16T02:40:41.000Z</time>
      </trkpt>
      <trkpt lat="43.56617" lon="2.9186">
        <ele>213.6</ele>
        <time>2017-04-16T02:40:43.000Z</time>
      </trkpt>
      <trkpt lat="43.56619" lon="2.91866">
        <ele>213.8</ele>
        <time>2017-04-16T02:40:45.000Z</time>
      </trkpt>
      <trkpt lat="43.56623" lon="2.91883">
        <ele>214.6</ele>
        <time>2017-04-16T02:40:51.000Z</time>
      </trkpt>
      <trkpt lat="43.56625" lon="2.91889">
        <ele>215</ele>
        <time>2017-04-16T02:40:53.000Z</time>
      </trkpt>
      <trkpt lat="43.56628" lon="2.91895">
        <ele>215.4</ele>
        <time>2017-04-16T02:40:55.000Z</time>
      </trkpt>
      <trkpt lat="43.56631" lon="2.919">
        <ele>215.8</ele>
        <time>2017-04-16T02:40:57.000Z</time>
      </trkpt>
      <trkpt lat="43.56634" lon="2.91904">
        <ele>216</ele>
        <time>2017-04-16T02:40:59.000Z</time>
      </trkpt>
      <trkpt lat="43.5664" lon="2.91918">
        <ele>216.6</ele>
        <time>2017-04-16T02:41:04.000Z</time>
      </trkpt>
      <trkpt lat="43.56643" lon="2.91923">
        <ele>217.2</ele>
        <time>2017-04-16T02:41:06.000Z</time>
      </trkpt>
      <trkpt lat="43.56646" lon="2.91928">
        <ele>217.6</ele>
        <time>2017-04-16T02:41:08.000Z</time>
      </trkpt>
      <trkpt lat="43.56648" lon="2.91934">
        <ele>217.8</ele>
        <time>2017-04-16T02:41:10.000Z</time>
      </trkpt>
      <trkpt lat="43.5665" lon="2.91936">
        <ele>218.2</ele>
        <time>2017-04-16T02:41:11.000Z</time>
      </trkpt>
      <trkpt lat="43.56652" lon="2.91941">
        <ele>218.8</ele>
        <time>2017-04-16T02:41:13.000Z</time>
      </trkpt>
      <trkpt lat="43.56654" lon="2.91948">
        <ele>219.2</ele>
        <time>2017-04-16T02:41:15.000Z</time>
      </trkpt>
      <trkpt lat="43.56655" lon="2.91954">
        <ele>219.6</ele>
        <time>2017-04-16T02:41:17.000Z</time>
      </trkpt>
      <trkpt lat="43.56656" lon="2.91961">
        <ele>219.8</ele>
        <time>2017-04-16T02:41:19.000Z</time>
      </trkpt>
      <trkpt lat="43.56658" lon="2.91962">
        <ele>220</ele>
        <time>2017-04-16T02:41:20.000Z</time>
      </trkpt>
      <trkpt lat="43.56661" lon="2.91971">
        <ele>220.4</ele>
        <time>2017-04-16T02:41:23.000Z</time>
      </trkpt>
      <trkpt lat="43.56664" lon="2.9198">
        <ele>220.8</ele>
        <time>2017-04-16T02:41:26.000Z</time>
      </trkpt>
      <trkpt lat="43.56666" lon="2.91985">
        <ele>221.2</ele>
        <time>2017-04-16T02:41:28.000Z</time>
      </trkpt>
      <trkpt lat="43.56668" lon="2.9199">
        <ele>221.6</ele>
        <time>2017-04-16T02:41:30.000Z</time>
      </trkpt>
      <trkpt lat="43.56672" lon="2.91995">
        <ele>222</ele>
        <time>2017-04-16T02:41:32.000Z</time>
      </trkpt>
      <trkpt lat="43.56674" lon="2.91999">
        <ele>222.2</ele>
        <time>2017-04-16T02:41:34.000Z</time>
      </trkpt>
      <trkpt lat="43.5668" lon="2.9201">
        <ele>223</ele>
        <time>2017-04-16T02:41:39.000Z</time>
      </trkpt>
      <trkpt lat="43.56683" lon="2.92016">
        <ele>223.4</ele>
        <time>2017-04-16T02:41:41.000Z</time>
      </trkpt>
      <trkpt lat="43.56686" lon="2.9202">
        <ele>223.8</ele>
        <time>2017-04-16T02:41:43.000Z</time>
      </trkpt>
      <trkpt lat="43.5669" lon="2.92024">
        <ele>224</ele>
        <time>2017-04-16T02:41:45.000Z</time>
      </trkpt>
      <trkpt lat="43.56693" lon="2.92026">
        <ele>224.4</ele>
        <time>2017-04-16T02:41:47.000Z</time>
      </trkpt>
      <trkpt lat="43.56699" lon="2.92028">
        <ele>224.8</ele>
        <time>2017-04-16T02:41:51.000Z</time>
      </trkpt>
      <trkpt lat="43.56708" lon="2.92024">
        <ele>225.2</ele>
        <time>2017-04-16T02:41:55.000Z</time>
      </trkpt>
      <trkpt lat="43.56712" lon="2.92021">
        <ele>225.6</ele>
        <time>2017-04-16T02:41:57.000Z</time>
      </trkpt>
      <trkpt lat="43.56717" lon="2.92017">
        <ele>226</ele>
        <time>2017-04-16T02:41:59.000Z</time>
      </trkpt>
      <trkpt lat="43.56721" lon="2.92014">
        <ele>226.2</ele>
        <time>2017-04-16T02:42:01.000Z</time>
      </trkpt>
      <trkpt lat="43.56725" lon="2.9201">
        <ele>226.6</ele>
        <time>2017-04-16T02:42:03.000Z</time>
      </trkpt>
      <trkpt lat="43.56738" lon="2.92004">
        <ele>227</ele>
        <time>2017-04-16T02:42:09.000Z</time>
      </trkpt>
      <trkpt lat="43.56747" lon="2.92001">
        <ele>227.4</ele>
        <time>2017-04-16T02:42:13.000Z</time>
      </trkpt>
      <trkpt lat="43.56751" lon="2.91999">
        <ele>227.8</ele>
        <time>2017-04-16T02:42:15.000Z</time>
      </trkpt>
      <trkpt lat="43.56754" lon="2.91997">
        <ele>228.2</ele>
        <time>2017-04-16T02:42:17.000Z</time>
      </trkpt>
      <trkpt lat="43.56758" lon="2.91993">
        <ele>228.6</ele>
        <time>2017-04-16T02:42:19.000Z</time>
      </trkpt>
      <trkpt lat="43.56759" lon="2.91992">
        <ele>229</ele>
        <time>2017-04-16T02:42:20.000Z</time>
      </trkpt>
      <trkpt lat="43.56764" lon="2.91989">
        <ele>229.6</ele>
        <time>2017-04-16T02:42:22.000Z</time>
      </trkpt>
      <trkpt lat="43.56766" lon="2.91984">
        <ele>230</ele>
        <time>2017-04-16T02:42:24.000Z</time>
      </trkpt>
      <trkpt lat="43.56767" lon="2.91983">
        <ele>230.4</ele>
        <time>2017-04-16T02:42:25.000Z</time>
      </trkpt>
      <trkpt lat="43.56769" lon="2.9198">
        <ele>231.2</ele>
        <time>2017-04-16T02:42:27.000Z</time>
      </trkpt>
      <trkpt lat="43.56772" lon="2.91979">
        <ele>231.8</ele>
        <time>2017-04-16T02:42:29.000Z</time>
      </trkpt>
      <trkpt lat="43.56776" lon="2.91977">
        <ele>232.2</ele>
        <time>2017-04-16T02:42:31.000Z</time>
      </trkpt>
      <trkpt lat="43.56779" lon="2.91975">
        <ele>232.6</ele>
        <time>2017-04-16T02:42:33.000Z</time>
      </trkpt>
      <trkpt lat="43.56783" lon="2.91972">
        <ele>233</ele>
        <time>2017-04-16T02:42:35.000Z</time>
      </trkpt>
      <trkpt lat="43.56787" lon="2.91969">
        <ele>233.8</ele>
        <time>2017-04-16T02:42:37.000Z</time>
      </trkpt>
      <trkpt lat="43.56788" lon="2.91968">
        <ele>234.2</ele>
        <time>2017-04-16T02:42:38.000Z</time>
      </trkpt>
      <trkpt lat="43.56793" lon="2.91965">
        <ele>235</ele>
        <time>2017-04-16T02:42:40.000Z</time>
      </trkpt>
      <trkpt lat="43.56797" lon="2.91963">
        <ele>235.6</ele>
        <time>2017-04-16T02:42:42.000Z</time>
      </trkpt>
      <trkpt lat="43.568" lon="2.91961">
        <ele>236.2</ele>
        <time>2017-04-16T02:42:44.000Z</time>
      </trkpt>
      <trkpt lat="43.56803" lon="2.91958">
        <ele>236.6</ele>
        <time>2017-04-16T02:42:46.000Z</time>
      </trkpt>
      <trkpt lat="43.56809" lon="2.91942">
        <ele>237.4</ele>
        <time>2017-04-16T02:42:51.000Z</time>
      </trkpt>
      <trkpt lat="43.5682" lon="2.91924">
        <ele>238</ele>
        <time>2017-04-16T02:42:57.000Z</time>
      </trkpt>
      <trkpt lat="43.56828" lon="2.91907">
        <ele>238.2</ele>
        <time>2017-04-16T02:43:02.000Z</time>
      </trkpt>
      <trkpt lat="43.56845" lon="2.91882">
        <ele>238.4</ele>
        <time>2017-04-16T02:43:09.000Z</time>
      </trkpt>
      <trkpt lat="43.56856" lon="2.91864">
        <ele>238.6</ele>
        <time>2017-04-16T02:43:15.000Z</time>
      </trkpt>
      <trkpt lat="43.56858" lon="2.91857">
        <ele>239</ele>
        <time>2017-04-16T02:43:17.000Z</time>
      </trkpt>
      <trkpt lat="43.5686" lon="2.9185">
        <ele>239.4</ele>
        <time>2017-04-16T02:43:19.000Z</time>
      </trkpt>
      <trkpt lat="43.56861" lon="2.91844">
        <ele>239.6</ele>
        <time>2017-04-16T02:43:21.000Z</time>
      </trkpt>
      <trkpt lat="43.56861" lon="2.91837">
        <ele>239.8</ele>
        <time>2017-04-16T02:43:23.000Z</time>
      </trkpt>
      <trkpt lat="43.56861" lon="2.91823">
        <ele>240</ele>
        <time>2017-04-16T02:43:27.000Z</time>
      </trkpt>
      <trkpt lat="43.56862" lon="2.91817">
        <ele>240.4</ele>
        <time>2017-04-16T02:43:29.000Z</time>
      </trkpt>
      <trkpt lat="43.56862" lon="2.91811">
        <ele>240.8</ele>
        <time>2017-04-16T02:43:31.000Z</time>
      </trkpt>
      <trkpt lat="43.56863" lon="2.91804">
        <ele>241.2</ele>
        <time>2017-04-16T02:43:33.000Z</time>
      </trkpt>
      <trkpt lat="43.56865" lon="2.91798">
        <ele>241.6</ele>
        <time>2017-04-16T02:43:35.000Z</time>
      </trkpt>
      <trkpt lat="43.56868" lon="2.91793">
        <ele>242.2</ele>
        <time>2017-04-16T02:43:37.000Z</time>
      </trkpt>
      <trkpt lat="43.5687" lon="2.91787">
        <ele>242.8</ele>
        <time>2017-04-16T02:43:39.000Z</time>
      </trkpt>
      <trkpt lat="43.56872" lon="2.91782">
        <ele>243.2</ele>
        <time>2017-04-16T02:43:41.000Z</time>
      </trkpt>
      <trkpt lat="43.56873" lon="2.91776">
        <ele>243.4</ele>
        <time>2017-04-16T02:43:43.000Z</time>
      </trkpt>
      <trkpt lat="43.56875" lon="2.91763">
        <ele>244.2</ele>
        <time>2017-04-16T02:43:47.000Z</time>
      </trkpt>
      <trkpt lat="43.56876" lon="2.91758">
        <ele>244.6</ele>
        <time>2017-04-16T02:43:49.000Z</time>
      </trkpt>
      <trkpt lat="43.56877" lon="2.91753">
        <ele>245.2</ele>
        <time>2017-04-16T02:43:51.000Z</time>
      </trkpt>
      <trkpt lat="43.56878" lon="2.91748">
        <ele>245.4</ele>
        <time>2017-04-16T02:43:53.000Z</time>
      </trkpt>
      <trkpt lat="43.5688" lon="2.91743">
        <ele>246</ele>
        <time>2017-04-16T02:43:55.000Z</time>
      </trkpt>
      <trkpt lat="43.56883" lon="2.91739">
        <ele>246.6</ele>
        <time>2017-04-16T02:43:57.000Z</time>
      </trkpt>
      <trkpt lat="43.56884" lon="2.91735">
        <ele>247</ele>
        <time>2017-04-16T02:43:59.000Z</time>
      </trkpt>
      <trkpt lat="43.56887" lon="2.91729">
        <ele>247.4</ele>
        <time>2017-04-16T02:44:01.000Z</time>
      </trkpt>
      <trkpt lat="43.5689" lon="2.91724">
        <ele>247.8</ele>
        <time>2017-04-16T02:44:03.000Z</time>
      </trkpt>
      <trkpt lat="43.56892" lon="2.91719">
        <ele>248.2</ele>
        <time>2017-04-16T02:44:05.000Z</time>
      </trkpt>
      <trkpt lat="43.56895" lon="2.91715">
        <ele>248.8</ele>
        <time>2017-04-16T02:44:07.000Z</time>
      </trkpt>
      <trkpt lat="43.56897" lon="2.9171">
        <ele>249.2</ele>
        <time>2017-04-16T02:44:09.000Z</time>
      </trkpt>
      <trkpt lat="43.569" lon="2.91705">
        <ele>249.6</ele>
        <time>2017-04-16T02:44:11.000Z</time>
      </trkpt>
      <trkpt lat="43.569" lon="2.91702">
        <ele>249.8</ele>
        <time>2017-04-16T02:44:12.000Z</time>
      </trkpt>
      <trkpt lat="43.56901" lon="2.917">
        <ele>250</ele>
        <time>2017-04-16T02:44:13.000Z</time>
      </trkpt>
      <trkpt lat="43.56904" lon="2.91696">
        <ele>250.2</ele>
        <time>2017-04-16T02:44:15.000Z</time>
      </trkpt>
      <trkpt lat="43.56915" lon="2.91683">
        <ele>250.8</ele>
        <time>2017-04-16T02:44:21.000Z</time>
      </trkpt>
      <trkpt lat="43.56919" lon="2.91679">
        <ele>251.4</ele>
        <time>2017-04-16T02:44:23.000Z</time>
      </trkpt>
      <trkpt lat="43.56921" lon="2.91675">
        <ele>251.8</ele>
        <time>2017-04-16T02:44:25.000Z</time>
      </trkpt>
      <trkpt lat="43.56924" lon="2.91671">
        <ele>252</ele>
        <time>2017-04-16T02:44:27.000Z</time>
      </trkpt>
      <trkpt lat="43.56927" lon="2.91666">
        <ele>252.2</ele>
        <time>2017-04-16T02:44:29.000Z</time>
      </trkpt>
      <trkpt lat="43.56928" lon="2.91663">
        <ele>252.6</ele>
        <time>2017-04-16T02:44:30.000Z</time>
      </trkpt>
      <trkpt lat="43.56931" lon="2.91659">
        <ele>253.2</ele>
        <time>2017-04-16T02:44:32.000Z</time>
      </trkpt>
      <trkpt lat="43.56933" lon="2.91655">
        <ele>253.6</ele>
        <time>2017-04-16T02:44:34.000Z</time>
      </trkpt>
      <trkpt lat="43.56934" lon="2.91653">
        <ele>253.8</ele>
        <time>2017-04-16T02:44:35.000Z</time>
      </trkpt>
      <trkpt lat="43.56937" lon="2.91647">
        <ele>254.2</ele>
        <time>2017-04-16T02:44:38.000Z</time>
      </trkpt>
      <trkpt lat="43.56943" lon="2.91631">
        <ele>255</ele>
        <time>2017-04-16T02:44:44.000Z</time>
      </trkpt>
      <trkpt lat="43.56946" lon="2.91626">
        <ele>255.4</ele>
        <time>2017-04-16T02:44:46.000Z</time>
      </trkpt>
      <trkpt lat="43.5695" lon="2.91622">
        <ele>255.8</ele>
        <time>2017-04-16T02:44:48.000Z</time>
      </trkpt>
      <trkpt lat="43.56952" lon="2.91618">
        <ele>256.2</ele>
        <time>2017-04-16T02:44:50.000Z</time>
      </trkpt>
      <trkpt lat="43.56954" lon="2.91613">
        <ele>256.4</ele>
        <time>2017-04-16T02:44:52.000Z</time>
      </trkpt>
      <trkpt lat="43.56956" lon="2.9161">
        <ele>256.6</ele>
        <time>2017-04-16T02:44:53.000Z</time>
      </trkpt>
      <trkpt lat="43.56959" lon="2.91606">
        <ele>257.2</ele>
        <time>2017-04-16T02:44:55.000Z</time>
      </trkpt>
      <trkpt lat="43.56962" lon="2.91602">
        <ele>257.6</ele>
        <time>2017-04-16T02:44:57.000Z</time>
      </trkpt>
      <trkpt lat="43.56966" lon="2.91598">
        <ele>258</ele>
        <time>2017-04-16T02:44:59.000Z</time>
      </trkpt>
      <trkpt lat="43.56968" lon="2.91593">
        <ele>258.4</ele>
        <time>2017-04-16T02:45:01.000Z</time>
      </trkpt>
      <trkpt lat="43.5697" lon="2.91586">
        <ele>259</ele>
        <time>2017-04-16T02:45:04.000Z</time>
      </trkpt>
      <trkpt lat="43.56971" lon="2.91583">
        <ele>259.2</ele>
        <time>2017-04-16T02:45:05.000Z</time>
      </trkpt>
      <trkpt lat="43.56973" lon="2.91573">
        <ele>259.8</ele>
        <time>2017-04-16T02:45:08.000Z</time>
      </trkpt>
      <trkpt lat="43.56974" lon="2.91567">
        <ele>260.2</ele>
        <time>2017-04-16T02:45:10.000Z</time>
      </trkpt>
      <trkpt lat="43.56977" lon="2.91561">
        <ele>260.6</ele>
        <time>2017-04-16T02:45:12.000Z</time>
      </trkpt>
      <trkpt lat="43.5698" lon="2.9156">
        <ele>260.6</ele>
        <time>2017-04-16T02:45:13.000Z</time>
      </trkpt>
      <trkpt lat="43.56984" lon="2.91562">
        <ele>261.2</ele>
        <time>2017-04-16T02:45:16.000Z</time>
      </trkpt>
      <trkpt lat="43.56986" lon="2.91564">
        <ele>261.4</ele>
        <time>2017-04-16T02:45:17.000Z</time>
      </trkpt>
      <trkpt lat="43.56987" lon="2.91567">
        <ele>261.8</ele>
        <time>2017-04-16T02:45:18.000Z</time>
      </trkpt>
      <trkpt lat="43.56987" lon="2.9157">
        <ele>262</ele>
        <time>2017-04-16T02:45:19.000Z</time>
      </trkpt>
      <trkpt lat="43.56984" lon="2.91579">
        <ele>262.6</ele>
        <time>2017-04-16T02:45:22.000Z</time>
      </trkpt>
      <trkpt lat="43.56982" lon="2.91585">
        <ele>262.8</ele>
        <time>2017-04-16T02:45:24.000Z</time>
      </trkpt>
      <trkpt lat="43.56978" lon="2.91594">
        <ele>263.4</ele>
        <time>2017-04-16T02:45:27.000Z</time>
      </trkpt>
      <trkpt lat="43.56976" lon="2.91601">
        <ele>263.8</ele>
        <time>2017-04-16T02:45:29.000Z</time>
      </trkpt>
      <trkpt lat="43.56975" lon="2.91607">
        <ele>264.4</ele>
        <time>2017-04-16T02:45:31.000Z</time>
      </trkpt>
      <trkpt lat="43.56974" lon="2.91613">
        <ele>264.6</ele>
        <time>2017-04-16T02:45:33.000Z</time>
      </trkpt>
      <trkpt lat="43.56972" lon="2.91619">
        <ele>265</ele>
        <time>2017-04-16T02:45:35.000Z</time>
      </trkpt>
      <trkpt lat="43.56968" lon="2.91626">
        <ele>265.6</ele>
        <time>2017-04-16T02:45:38.000Z</time>
      </trkpt>
      <trkpt lat="43.56966" lon="2.9163">
        <ele>266</ele>
        <time>2017-04-16T02:45:40.000Z</time>
      </trkpt>
      <trkpt lat="43.56964" lon="2.91636">
        <ele>266.4</ele>
        <time>2017-04-16T02:45:42.000Z</time>
      </trkpt>
      <trkpt lat="43.56962" lon="2.91642">
        <ele>266.8</ele>
        <time>2017-04-16T02:45:44.000Z</time>
      </trkpt>
      <trkpt lat="43.5696" lon="2.91648">
        <ele>267.2</ele>
        <time>2017-04-16T02:45:46.000Z</time>
      </trkpt>
      <trkpt lat="43.56954" lon="2.91662">
        <ele>267.8</ele>
        <time>2017-04-16T02:45:51.000Z</time>
      </trkpt>
      <trkpt lat="43.56953" lon="2.91667">
        <ele>268.4</ele>
        <time>2017-04-16T02:45:53.000Z</time>
      </trkpt>
      <trkpt lat="43.56952" lon="2.91673">
        <ele>268.6</ele>
        <time>2017-04-16T02:45:55.000Z</time>
      </trkpt>
      <trkpt lat="43.56951" lon="2.91678">
        <ele>269</ele>
        <time>2017-04-16T02:45:57.000Z</time>
      </trkpt>
      <trkpt lat="43.56951" lon="2.91685">
        <ele>269.2</ele>
        <time>2017-04-16T02:45:59.000Z</time>
      </trkpt>
      <trkpt lat="43.56949" lon="2.91702">
        <ele>269.8</ele>
        <time>2017-04-16T02:46:04.000Z</time>
      </trkpt>
      <trkpt lat="43.56948" lon="2.91708">
        <ele>270</ele>
        <time>2017-04-16T02:46:06.000Z</time>
      </trkpt>
      <trkpt lat="43.56946" lon="2.91714">
        <ele>270.4</ele>
        <time>2017-04-16T02:46:08.000Z</time>
      </trkpt>
      <trkpt lat="43.56944" lon="2.9172">
        <ele>270.8</ele>
        <time>2017-04-16T02:46:10.000Z</time>
      </trkpt>
      <trkpt lat="43.56942" lon="2.91725">
        <ele>271.2</ele>
        <time>2017-04-16T02:46:12.000Z</time>
      </trkpt>
      <trkpt lat="43.5694" lon="2.91731">
        <ele>271.4</ele>
        <time>2017-04-16T02:46:14.000Z</time>
      </trkpt>
      <trkpt lat="43.56938" lon="2.91738">
        <ele>271.8</ele>
        <time>2017-04-16T02:46:16.000Z</time>
      </trkpt>
      <trkpt lat="43.56936" lon="2.91744">
        <ele>272.4</ele>
        <time>2017-04-16T02:46:18.000Z</time>
      </trkpt>
      <trkpt lat="43.56934" lon="2.91751">
        <ele>272.8</ele>
        <time>2017-04-16T02:46:20.000Z</time>
      </trkpt>
      <trkpt lat="43.56933" lon="2.91757">
        <ele>273</ele>
        <time>2017-04-16T02:46:22.000Z</time>
      </trkpt>
      <trkpt lat="43.56932" lon="2.91763">
        <ele>273.4</ele>
        <time>2017-04-16T02:46:24.000Z</time>
      </trkpt>
      <trkpt lat="43.56934" lon="2.91777">
        <ele>274</ele>
        <time>2017-04-16T02:46:28.000Z</time>
      </trkpt>
      <trkpt lat="43.56935" lon="2.91783">
        <ele>274.4</ele>
        <time>2017-04-16T02:46:30.000Z</time>
      </trkpt>
      <trkpt lat="43.56937" lon="2.9179">
        <ele>274.8</ele>
        <time>2017-04-16T02:46:32.000Z</time>
      </trkpt>
      <trkpt lat="43.5694" lon="2.91795">
        <ele>275.2</ele>
        <time>2017-04-16T02:46:34.000Z</time>
      </trkpt>
      <trkpt lat="43.56944" lon="2.918">
        <ele>275.4</ele>
        <time>2017-04-16T02:46:36.000Z</time>
      </trkpt>
      <trkpt lat="43.56947" lon="2.91801">
        <ele>275.6</ele>
        <time>2017-04-16T02:46:37.000Z</time>
      </trkpt>
      <trkpt lat="43.56953" lon="2.91796">
        <ele>276.4</ele>
        <time>2017-04-16T02:46:40.000Z</time>
      </trkpt>
      <trkpt lat="43.56955" lon="2.91793">
        <ele>276.6</ele>
        <time>2017-04-16T02:46:41.000Z</time>
      </trkpt>
      <trkpt lat="43.56957" lon="2.91784">
        <ele>277</ele>
        <time>2017-04-16T02:46:43.000Z</time>
      </trkpt>
      <trkpt lat="43.56958" lon="2.9177">
        <ele>277.4</ele>
        <time>2017-04-16T02:46:46.000Z</time>
      </trkpt>
      <trkpt lat="43.56957" lon="2.91748">
        <ele>278.2</ele>
        <time>2017-04-16T02:46:52.000Z</time>
      </trkpt>
      <trkpt lat="43.56956" lon="2.91742">
        <ele>278.8</ele>
        <time>2017-04-16T02:46:54.000Z</time>
      </trkpt>
      <trkpt lat="43.56956" lon="2.91736">
        <ele>279.2</ele>
        <time>2017-04-16T02:46:56.000Z</time>
      </trkpt>
      <trkpt lat="43.56958" lon="2.91731">
        <ele>279.4</ele>
        <time>2017-04-16T02:46:58.000Z</time>
      </trkpt>
      <trkpt lat="43.56959" lon="2.91726">
        <ele>279.8</ele>
        <time>2017-04-16T02:47:00.000Z</time>
      </trkpt>
      <trkpt lat="43.56964" lon="2.91719">
        <ele>280</ele>
        <time>2017-04-16T02:47:03.000Z</time>
      </trkpt>
      <trkpt lat="43.56967" lon="2.91712">
        <ele>280.8</ele>
        <time>2017-04-16T02:47:06.000Z</time>
      </trkpt>
      <trkpt lat="43.5697" lon="2.91706">
        <ele>281.2</ele>
        <time>2017-04-16T02:47:08.000Z</time>
      </trkpt>
      <trkpt lat="43.56971" lon="2.91704">
        <ele>281.4</ele>
        <time>2017-04-16T02:47:09.000Z</time>
      </trkpt>
      <trkpt lat="43.56972" lon="2.91701">
        <ele>281.6</ele>
        <time>2017-04-16T02:47:10.000Z</time>
      </trkpt>
      <trkpt lat="43.56975" lon="2.91696">
        <ele>281.8</ele>
        <time>2017-04-16T02:47:12.000Z</time>
      </trkpt>
      <trkpt lat="43.5698" lon="2.91687">
        <ele>282.4</ele>
        <time>2017-04-16T02:47:16.000Z</time>
      </trkpt>
      <trkpt lat="43.56983" lon="2.91683">
        <ele>282.8</ele>
        <time>2017-04-16T02:47:18.000Z</time>
      </trkpt>
      <trkpt lat="43.56986" lon="2.9168">
        <ele>283.2</ele>
        <time>2017-04-16T02:47:20.000Z</time>
      </trkpt>
      <trkpt lat="43.56988" lon="2.91677">
        <ele>283.6</ele>
        <time>2017-04-16T02:47:21.000Z</time>
      </trkpt>
      <trkpt lat="43.56991" lon="2.91673">
        <ele>284.4</ele>
        <time>2017-04-16T02:47:23.000Z</time>
      </trkpt>
      <trkpt lat="43.56992" lon="2.91669">
        <ele>284.8</ele>
        <time>2017-04-16T02:47:24.000Z</time>
      </trkpt>
      <trkpt lat="43.56993" lon="2.91667">
        <ele>285</ele>
        <time>2017-04-16T02:47:25.000Z</time>
      </trkpt>
      <trkpt lat="43.56997" lon="2.91664">
        <ele>285.4</ele>
        <time>2017-04-16T02:47:27.000Z</time>
      </trkpt>
      <trkpt lat="43.56998" lon="2.91662">
        <ele>285.6</ele>
        <time>2017-04-16T02:47:28.000Z</time>
      </trkpt>
      <trkpt lat="43.57008" lon="2.9165">
        <ele>286.4</ele>
        <time>2017-04-16T02:47:34.000Z</time>
      </trkpt>
      <trkpt lat="43.57014" lon="2.91642">
        <ele>287</ele>
        <time>2017-04-16T02:47:38.000Z</time>
      </trkpt>
      <trkpt lat="43.57018" lon="2.91638">
        <ele>287.6</ele>
        <time>2017-04-16T02:47:40.000Z</time>
      </trkpt>
      <trkpt lat="43.5702" lon="2.91634">
        <ele>288</ele>
        <time>2017-04-16T02:47:42.000Z</time>
      </trkpt>
      <trkpt lat="43.5702" lon="2.91632">
        <ele>288.2</ele>
        <time>2017-04-16T02:47:43.000Z</time>
      </trkpt>
      <trkpt lat="43.57023" lon="2.91628">
        <ele>288.6</ele>
        <time>2017-04-16T02:47:45.000Z</time>
      </trkpt>
      <trkpt lat="43.57023" lon="2.91622">
        <ele>289.2</ele>
        <time>2017-04-16T02:47:47.000Z</time>
      </trkpt>
      <trkpt lat="43.57024" lon="2.91618">
        <ele>289.4</ele>
        <time>2017-04-16T02:47:48.000Z</time>
      </trkpt>
      <trkpt lat="43.57025" lon="2.91607">
        <ele>290.4</ele>
        <time>2017-04-16T02:47:51.000Z</time>
      </trkpt>
      <trkpt lat="43.57026" lon="2.916">
        <ele>291</ele>
        <time>2017-04-16T02:47:53.000Z</time>
      </trkpt>
      <trkpt lat="43.57028" lon="2.91595">
        <ele>291.6</ele>
        <time>2017-04-16T02:47:55.000Z</time>
      </trkpt>
      <trkpt lat="43.57029" lon="2.91594">
        <ele>291.8</ele>
        <time>2017-04-16T02:47:56.000Z</time>
      </trkpt>
      <trkpt lat="43.57031" lon="2.91592">
        <ele>292</ele>
        <time>2017-04-16T02:47:57.000Z</time>
      </trkpt>
      <trkpt lat="43.57033" lon="2.91591">
        <ele>292.2</ele>
        <time>2017-04-16T02:47:58.000Z</time>
      </trkpt>
      <trkpt lat="43.57035" lon="2.91592">
        <ele>292.4</ele>
        <time>2017-04-16T02:47:59.000Z</time>
      </trkpt>
      <trkpt lat="43.5704" lon="2.91599">
        <ele>292.8</ele>
        <time>2017-04-16T02:48:02.000Z</time>
      </trkpt>
      <trkpt lat="43.5704" lon="2.91606">
        <ele>293.2</ele>
        <time>2017-04-16T02:48:04.000Z</time>
      </trkpt>
      <trkpt lat="43.5704" lon="2.9161">
        <ele>293.4</ele>
        <time>2017-04-16T02:48:05.000Z</time>
      </trkpt>
      <trkpt lat="43.5704" lon="2.91613">
        <ele>293.8</ele>
        <time>2017-04-16T02:48:06.000Z</time>
      </trkpt>
      <trkpt lat="43.57038" lon="2.91621">
        <ele>294.2</ele>
        <time>2017-04-16T02:48:08.000Z</time>
      </trkpt>
      <trkpt lat="43.57036" lon="2.91627">
        <ele>294.4</ele>
        <time>2017-04-16T02:48:10.000Z</time>
      </trkpt>
      <trkpt lat="43.57035" lon="2.9163">
        <ele>294.6</ele>
        <time>2017-04-16T02:48:11.000Z</time>
      </trkpt>
      <trkpt lat="43.57029" lon="2.91649">
        <ele>295.2</ele>
        <time>2017-04-16T02:48:17.000Z</time>
      </trkpt>
      <trkpt lat="43.57028" lon="2.9166">
        <ele>295.6</ele>
        <time>2017-04-16T02:48:20.000Z</time>
      </trkpt>
      <trkpt lat="43.57027" lon="2.91666">
        <ele>296.2</ele>
        <time>2017-04-16T02:48:22.000Z</time>
      </trkpt>
      <trkpt lat="43.57026" lon="2.91672">
        <ele>296.6</ele>
        <time>2017-04-16T02:48:24.000Z</time>
      </trkpt>
      <trkpt lat="43.57024" lon="2.91678">
        <ele>296.8</ele>
        <time>2017-04-16T02:48:26.000Z</time>
      </trkpt>
      <trkpt lat="43.57024" lon="2.91685">
        <ele>297</ele>
        <time>2017-04-16T02:48:28.000Z</time>
      </trkpt>
      <trkpt lat="43.57024" lon="2.91697">
        <ele>297.6</ele>
        <time>2017-04-16T02:48:32.000Z</time>
      </trkpt>
      <trkpt lat="43.57027" lon="2.91703">
        <ele>298.2</ele>
        <time>2017-04-16T02:48:34.000Z</time>
      </trkpt>
      <trkpt lat="43.57028" lon="2.91706">
        <ele>298.4</ele>
        <time>2017-04-16T02:48:35.000Z</time>
      </trkpt>
      <trkpt lat="43.57033" lon="2.91713">
        <ele>298.8</ele>
        <time>2017-04-16T02:48:38.000Z</time>
      </trkpt>
      <trkpt lat="43.57038" lon="2.91716">
        <ele>299.2</ele>
        <time>2017-04-16T02:48:40.000Z</time>
      </trkpt>
      <trkpt lat="43.5705" lon="2.91722">
        <ele>299.6</ele>
        <time>2017-04-16T02:48:45.000Z</time>
      </trkpt>
      <trkpt lat="43.57055" lon="2.91724">
        <ele>299.8</ele>
        <time>2017-04-16T02:48:47.000Z</time>
      </trkpt>
      <trkpt lat="43.57062" lon="2.91724">
        <ele>300.2</ele>
        <time>2017-04-16T02:48:52.000Z</time>
      </trkpt>
      <trkpt lat="43.57063" lon="2.91724">
        <ele>300.4</ele>
        <time>2017-04-16T02:48:53.000Z</time>
      </trkpt>
      <trkpt lat="43.57064" lon="2.91723">
        <ele>300.6</ele>
        <time>2017-04-16T02:48:54.000Z</time>
      </trkpt>
      <trkpt lat="43.57068" lon="2.91725">
        <ele>300.8</ele>
        <time>2017-04-16T02:48:56.000Z</time>
      </trkpt>
      <trkpt lat="43.57071" lon="2.91726">
        <ele>301.2</ele>
        <time>2017-04-16T02:48:58.000Z</time>
      </trkpt>
      <trkpt lat="43.57076" lon="2.91728">
        <ele>301.4</ele>
        <time>2017-04-16T02:49:00.000Z</time>
      </trkpt>
      <trkpt lat="43.57078" lon="2.91729">
        <ele>301.6</ele>
        <time>2017-04-16T02:49:01.000Z</time>
      </trkpt>
      <trkpt lat="43.57084" lon="2.91731">
        <ele>302.2</ele>
        <time>2017-04-16T02:49:03.000Z</time>
      </trkpt>
      <trkpt lat="43.57087" lon="2.91736">
        <ele>302.6</ele>
        <time>2017-04-16T02:49:05.000Z</time>
      </trkpt>
      <trkpt lat="43.5709" lon="2.91741">
        <ele>303.2</ele>
        <time>2017-04-16T02:49:07.000Z</time>
      </trkpt>
      <trkpt lat="43.57092" lon="2.91746">
        <ele>303.8</ele>
        <time>2017-04-16T02:49:09.000Z</time>
      </trkpt>
      <trkpt lat="43.57091" lon="2.91752">
        <ele>304.2</ele>
        <time>2017-04-16T02:49:11.000Z</time>
      </trkpt>
      <trkpt lat="43.5709" lon="2.91755">
        <ele>304.6</ele>
        <time>2017-04-16T02:49:12.000Z</time>
      </trkpt>
      <trkpt lat="43.5709" lon="2.91757">
        <ele>304.8</ele>
        <time>2017-04-16T02:49:13.000Z</time>
      </trkpt>
      <trkpt lat="43.57089" lon="2.9176">
        <ele>304.8</ele>
        <time>2017-04-16T02:49:14.000Z</time>
      </trkpt>
      <trkpt lat="43.57089" lon="2.91772">
        <ele>305.6</ele>
        <time>2017-04-16T02:49:18.000Z</time>
      </trkpt>
      <trkpt lat="43.5709" lon="2.91779">
        <ele>306.2</ele>
        <time>2017-04-16T02:49:20.000Z</time>
      </trkpt>
      <trkpt lat="43.5709" lon="2.91785">
        <ele>306.6</ele>
        <time>2017-04-16T02:49:22.000Z</time>
      </trkpt>
      <trkpt lat="43.5709" lon="2.91789">
        <ele>306.8</ele>
        <time>2017-04-16T02:49:23.000Z</time>
      </trkpt>
      <trkpt lat="43.57093" lon="2.91798">
        <ele>307.4</ele>
        <time>2017-04-16T02:49:26.000Z</time>
      </trkpt>
      <trkpt lat="43.57095" lon="2.91804">
        <ele>307.6</ele>
        <time>2017-04-16T02:49:28.000Z</time>
      </trkpt>
      <trkpt lat="43.57099" lon="2.91815">
        <ele>308.2</ele>
        <time>2017-04-16T02:49:32.000Z</time>
      </trkpt>
      <trkpt lat="43.57101" lon="2.91821">
        <ele>308.6</ele>
        <time>2017-04-16T02:49:34.000Z</time>
      </trkpt>
      <trkpt lat="43.57102" lon="2.91826">
        <ele>309</ele>
        <time>2017-04-16T02:49:36.000Z</time>
      </trkpt>
      <trkpt lat="43.57103" lon="2.91832">
        <ele>309.4</ele>
        <time>2017-04-16T02:49:38.000Z</time>
      </trkpt>
      <trkpt lat="43.57105" lon="2.91837">
        <ele>309.6</ele>
        <time>2017-04-16T02:49:40.000Z</time>
      </trkpt>
      <trkpt lat="43.57107" lon="2.91851">
        <ele>310.2</ele>
        <time>2017-04-16T02:49:45.000Z</time>
      </trkpt>
      <trkpt lat="43.5711" lon="2.91857">
        <ele>310.8</ele>
        <time>2017-04-16T02:49:47.000Z</time>
      </trkpt>
      <trkpt lat="43.57113" lon="2.91863">
        <ele>311.2</ele>
        <time>2017-04-16T02:49:49.000Z</time>
      </trkpt>
      <trkpt lat="43.57114" lon="2.91869">
        <ele>311.4</ele>
        <time>2017-04-16T02:49:51.000Z</time>
      </trkpt>
      <trkpt lat="43.57116" lon="2.91874">
        <ele>311.8</ele>
        <time>2017-04-16T02:49:53.000Z</time>
      </trkpt>
      <trkpt lat="43.57118" lon="2.91891">
        <ele>312.2</ele>
        <time>2017-04-16T02:49:59.000Z</time>
      </trkpt>
      <trkpt lat="43.57121" lon="2.91899">
        <ele>312.6</ele>
        <time>2017-04-16T02:50:02.000Z</time>
      </trkpt>
      <trkpt lat="43.57123" lon="2.91903">
        <ele>313.2</ele>
        <time>2017-04-16T02:50:04.000Z</time>
      </trkpt>
      <trkpt lat="43.57123" lon="2.91908">
        <ele>313.6</ele>
        <time>2017-04-16T02:50:06.000Z</time>
      </trkpt>
      <trkpt lat="43.57124" lon="2.91911">
        <ele>313.8</ele>
        <time>2017-04-16T02:50:07.000Z</time>
      </trkpt>
      <trkpt lat="43.57123" lon="2.91921">
        <ele>314.2</ele>
        <time>2017-04-16T02:50:10.000Z</time>
      </trkpt>
      <trkpt lat="43.57123" lon="2.91925">
        <ele>314.2</ele>
        <time>2017-04-16T02:50:11.000Z</time>
      </trkpt>
      <trkpt lat="43.57127" lon="2.91934">
        <ele>314.8</ele>
        <time>2017-04-16T02:50:17.000Z</time>
      </trkpt>
      <trkpt lat="43.57131" lon="2.91942">
        <ele>315.2</ele>
        <time>2017-04-16T02:50:18.000Z</time>
      </trkpt>
      <trkpt lat="43.57132" lon="2.91945">
        <ele>315.4</ele>
        <time>2017-04-16T02:50:19.000Z</time>
      </trkpt>
      <trkpt lat="43.57134" lon="2.9195">
        <ele>315.8</ele>
        <time>2017-04-16T02:50:21.000Z</time>
      </trkpt>
      <trkpt lat="43.57138" lon="2.91955">
        <ele>316.2</ele>
        <time>2017-04-16T02:50:23.000Z</time>
      </trkpt>
      <trkpt lat="43.57141" lon="2.9196">
        <ele>316.4</ele>
        <time>2017-04-16T02:50:25.000Z</time>
      </trkpt>
      <trkpt lat="43.57143" lon="2.91963">
        <ele>316.6</ele>
        <time>2017-04-16T02:50:26.000Z</time>
      </trkpt>
      <trkpt lat="43.57148" lon="2.91973">
        <ele>317</ele>
        <time>2017-04-16T02:50:30.000Z</time>
      </trkpt>
      <trkpt lat="43.57152" lon="2.91975">
        <ele>317.6</ele>
        <time>2017-04-16T02:50:32.000Z</time>
      </trkpt>
      <trkpt lat="43.57156" lon="2.91975">
        <ele>318</ele>
        <time>2017-04-16T02:50:34.000Z</time>
      </trkpt>
      <trkpt lat="43.57161" lon="2.91973">
        <ele>318.2</ele>
        <time>2017-04-16T02:50:36.000Z</time>
      </trkpt>
      <trkpt lat="43.57163" lon="2.91973">
        <ele>318.6</ele>
        <time>2017-04-16T02:50:38.000Z</time>
      </trkpt>
      <trkpt lat="43.5717" lon="2.91974">
        <ele>319.2</ele>
        <time>2017-04-16T02:50:42.000Z</time>
      </trkpt>
      <trkpt lat="43.57172" lon="2.91974">
        <ele>319.4</ele>
        <time>2017-04-16T02:50:43.000Z</time>
      </trkpt>
      <trkpt lat="43.57174" lon="2.91973">
        <ele>320</ele>
        <time>2017-04-16T02:50:46.000Z</time>
      </trkpt>
      <trkpt lat="43.57175" lon="2.91973">
        <ele>320.4</ele>
        <time>2017-04-16T02:50:47.000Z</time>
      </trkpt>
      <trkpt lat="43.57176" lon="2.91973">
        <ele>321.2</ele>
        <time>2017-04-16T02:50:49.000Z</time>
      </trkpt>
      <trkpt lat="43.57178" lon="2.91973">
        <ele>321.6</ele>
        <time>2017-04-16T02:50:51.000Z</time>
      </trkpt>
      <trkpt lat="43.57181" lon="2.91975">
        <ele>322</ele>
        <time>2017-04-16T02:50:53.000Z</time>
      </trkpt>
      <trkpt lat="43.57186" lon="2.91976">
        <ele>322.6</ele>
        <time>2017-04-16T02:50:55.000Z</time>
      </trkpt>
      <trkpt lat="43.57192" lon="2.91979">
        <ele>323.2</ele>
        <time>2017-04-16T02:50:57.000Z</time>
      </trkpt>
      <trkpt lat="43.57197" lon="2.91982">
        <ele>323.8</ele>
        <time>2017-04-16T02:50:59.000Z</time>
      </trkpt>
      <trkpt lat="43.57201" lon="2.91985">
        <ele>324.2</ele>
        <time>2017-04-16T02:51:01.000Z</time>
      </trkpt>
      <trkpt lat="43.57205" lon="2.91989">
        <ele>324.6</ele>
        <time>2017-04-16T02:51:03.000Z</time>
      </trkpt>
      <trkpt lat="43.57214" lon="2.91992">
        <ele>325</ele>
        <time>2017-04-16T02:51:07.000Z</time>
      </trkpt>
      <trkpt lat="43.57217" lon="2.91992">
        <ele>325.4</ele>
        <time>2017-04-16T02:51:08.000Z</time>
      </trkpt>
      <trkpt lat="43.57221" lon="2.91993">
        <ele>326</ele>
        <time>2017-04-16T02:51:10.000Z</time>
      </trkpt>
      <trkpt lat="43.57226" lon="2.91995">
        <ele>326.4</ele>
        <time>2017-04-16T02:51:12.000Z</time>
      </trkpt>
      <trkpt lat="43.5723" lon="2.91997">
        <ele>326.6</ele>
        <time>2017-04-16T02:51:14.000Z</time>
      </trkpt>
      <trkpt lat="43.57234" lon="2.92">
        <ele>327</ele>
        <time>2017-04-16T02:51:16.000Z</time>
      </trkpt>
      <trkpt lat="43.57238" lon="2.92005">
        <ele>327.4</ele>
        <time>2017-04-16T02:51:19.000Z</time>
      </trkpt>
      <trkpt lat="43.5724" lon="2.92011">
        <ele>328</ele>
        <time>2017-04-16T02:51:21.000Z</time>
      </trkpt>
      <trkpt lat="43.57243" lon="2.92017">
        <ele>328.4</ele>
        <time>2017-04-16T02:51:23.000Z</time>
      </trkpt>
      <trkpt lat="43.57245" lon="2.92023">
        <ele>328.8</ele>
        <time>2017-04-16T02:51:25.000Z</time>
      </trkpt>
      <trkpt lat="43.57247" lon="2.92028">
        <ele>329</ele>
        <time>2017-04-16T02:51:27.000Z</time>
      </trkpt>
      <trkpt lat="43.57251" lon="2.92041">
        <ele>329.8</ele>
        <time>2017-04-16T02:51:32.000Z</time>
      </trkpt>
      <trkpt lat="43.57252" lon="2.92047">
        <ele>330.2</ele>
        <time>2017-04-16T02:51:34.000Z</time>
      </trkpt>
      <trkpt lat="43.57252" lon="2.92052">
        <ele>330.6</ele>
        <time>2017-04-16T02:51:36.000Z</time>
      </trkpt>
      <trkpt lat="43.57252" lon="2.92057">
        <ele>331</ele>
        <time>2017-04-16T02:51:38.000Z</time>
      </trkpt>
      <trkpt lat="43.57251" lon="2.92062">
        <ele>331.4</ele>
        <time>2017-04-16T02:51:40.000Z</time>
      </trkpt>
      <trkpt lat="43.57248" lon="2.92074">
        <ele>332</ele>
        <time>2017-04-16T02:51:45.000Z</time>
      </trkpt>
      <trkpt lat="43.57245" lon="2.92079">
        <ele>332.4</ele>
        <time>2017-04-16T02:51:47.000Z</time>
      </trkpt>
      <trkpt lat="43.57242" lon="2.92084">
        <ele>332.8</ele>
        <time>2017-04-16T02:51:49.000Z</time>
      </trkpt>
      <trkpt lat="43.57238" lon="2.92088">
        <ele>333.2</ele>
        <time>2017-04-16T02:51:51.000Z</time>
      </trkpt>
      <trkpt lat="43.57235" lon="2.92093">
        <ele>333.6</ele>
        <time>2017-04-16T02:51:53.000Z</time>
      </trkpt>
      <trkpt lat="43.57232" lon="2.92098">
        <ele>334.2</ele>
        <time>2017-04-16T02:51:55.000Z</time>
      </trkpt>
      <trkpt lat="43.57229" lon="2.92101">
        <ele>334.6</ele>
        <time>2017-04-16T02:51:57.000Z</time>
      </trkpt>
      <trkpt lat="43.57226" lon="2.92105">
        <ele>335</ele>
        <time>2017-04-16T02:51:59.000Z</time>
      </trkpt>
      <trkpt lat="43.57224" lon="2.92108">
        <ele>335.2</ele>
        <time>2017-04-16T02:52:01.000Z</time>
      </trkpt>
      <trkpt lat="43.57221" lon="2.92112">
        <ele>335.8</ele>
        <time>2017-04-16T02:52:03.000Z</time>
      </trkpt>
      <trkpt lat="43.57219" lon="2.92116">
        <ele>336.2</ele>
        <time>2017-04-16T02:52:05.000Z</time>
      </trkpt>
      <trkpt lat="43.57218" lon="2.92118">
        <ele>336.6</ele>
        <time>2017-04-16T02:52:06.000Z</time>
      </trkpt>
      <trkpt lat="43.57217" lon="2.9212">
        <ele>336.8</ele>
        <time>2017-04-16T02:52:07.000Z</time>
      </trkpt>
      <trkpt lat="43.57216" lon="2.92125">
        <ele>337.2</ele>
        <time>2017-04-16T02:52:09.000Z</time>
      </trkpt>
      <trkpt lat="43.57215" lon="2.92129">
        <ele>337.4</ele>
        <time>2017-04-16T02:52:11.000Z</time>
      </trkpt>
      <trkpt lat="43.57214" lon="2.92132">
        <ele>337.8</ele>
        <time>2017-04-16T02:52:12.000Z</time>
      </trkpt>
      <trkpt lat="43.57212" lon="2.92137">
        <ele>338.4</ele>
        <time>2017-04-16T02:52:14.000Z</time>
      </trkpt>
      <trkpt lat="43.5721" lon="2.92142">
        <ele>338.8</ele>
        <time>2017-04-16T02:52:16.000Z</time>
      </trkpt>
      <trkpt lat="43.57208" lon="2.92147">
        <ele>339.2</ele>
        <time>2017-04-16T02:52:18.000Z</time>
      </trkpt>
      <trkpt lat="43.57206" lon="2.92152">
        <ele>339.4</ele>
        <time>2017-04-16T02:52:20.000Z</time>
      </trkpt>
      <trkpt lat="43.57204" lon="2.92157">
        <ele>339.8</ele>
        <time>2017-04-16T02:52:22.000Z</time>
      </trkpt>
      <trkpt lat="43.57203" lon="2.92163">
        <ele>340.4</ele>
        <time>2017-04-16T02:52:24.000Z</time>
      </trkpt>
      <trkpt lat="43.57201" lon="2.92168">
        <ele>340.8</ele>
        <time>2017-04-16T02:52:26.000Z</time>
      </trkpt>
      <trkpt lat="43.572" lon="2.92175">
        <ele>341.2</ele>
        <time>2017-04-16T02:52:28.000Z</time>
      </trkpt>
      <trkpt lat="43.57198" lon="2.9218">
        <ele>341.6</ele>
        <time>2017-04-16T02:52:30.000Z</time>
      </trkpt>
      <trkpt lat="43.57198" lon="2.92198">
        <ele>342</ele>
        <time>2017-04-16T02:52:36.000Z</time>
      </trkpt>
      <trkpt lat="43.57199" lon="2.92201">
        <ele>342.4</ele>
        <time>2017-04-16T02:52:37.000Z</time>
      </trkpt>
      <trkpt lat="43.57201" lon="2.92207">
        <ele>342.8</ele>
        <time>2017-04-16T02:52:39.000Z</time>
      </trkpt>
      <trkpt lat="43.57204" lon="2.92211">
        <ele>343.2</ele>
        <time>2017-04-16T02:52:41.000Z</time>
      </trkpt>
      <trkpt lat="43.57207" lon="2.92215">
        <ele>343.6</ele>
        <time>2017-04-16T02:52:43.000Z</time>
      </trkpt>
      <trkpt lat="43.57211" lon="2.92219">
        <ele>343.8</ele>
        <time>2017-04-16T02:52:45.000Z</time>
      </trkpt>
      <trkpt lat="43.57221" lon="2.92225">
        <ele>344.6</ele>
        <time>2017-04-16T02:52:51.000Z</time>
      </trkpt>
      <trkpt lat="43.57225" lon="2.92227">
        <ele>345</ele>
        <time>2017-04-16T02:52:53.000Z</time>
      </trkpt>
      <trkpt lat="43.57229" lon="2.92229">
        <ele>345.4</ele>
        <time>2017-04-16T02:52:55.000Z</time>
      </trkpt>
      <trkpt lat="43.57233" lon="2.9223">
        <ele>345.6</ele>
        <time>2017-04-16T02:52:57.000Z</time>
      </trkpt>
      <trkpt lat="43.57238" lon="2.92231">
        <ele>346</ele>
        <time>2017-04-16T02:52:59.000Z</time>
      </trkpt>
      <trkpt lat="43.57246" lon="2.92234">
        <ele>346.6</ele>
        <time>2017-04-16T02:53:04.000Z</time>
      </trkpt>
      <trkpt lat="43.57249" lon="2.92235">
        <ele>347</ele>
        <time>2017-04-16T02:53:06.000Z</time>
      </trkpt>
      <trkpt lat="43.57253" lon="2.92238">
        <ele>347.4</ele>
        <time>2017-04-16T02:53:08.000Z</time>
      </trkpt>
      <trkpt lat="43.57257" lon="2.92241">
        <ele>347.8</ele>
        <time>2017-04-16T02:53:10.000Z</time>
      </trkpt>
      <trkpt lat="43.57261" lon="2.92243">
        <ele>348</ele>
        <time>2017-04-16T02:53:12.000Z</time>
      </trkpt>
      <trkpt lat="43.57266" lon="2.92247">
        <ele>348.4</ele>
        <time>2017-04-16T02:53:15.000Z</time>
      </trkpt>
      <trkpt lat="43.57275" lon="2.92252">
        <ele>348.8</ele>
        <time>2017-04-16T02:53:20.000Z</time>
      </trkpt>
      <trkpt lat="43.57279" lon="2.92255">
        <ele>349.4</ele>
        <time>2017-04-16T02:53:22.000Z</time>
      </trkpt>
      <trkpt lat="43.57281" lon="2.92257">
        <ele>349.6</ele>
        <time>2017-04-16T02:53:24.000Z</time>
      </trkpt>
      <trkpt lat="43.57284" lon="2.9226">
        <ele>350</ele>
        <time>2017-04-16T02:53:26.000Z</time>
      </trkpt>
      <trkpt lat="43.57288" lon="2.92262">
        <ele>350.2</ele>
        <time>2017-04-16T02:53:28.000Z</time>
      </trkpt>
      <trkpt lat="43.57292" lon="2.92265">
        <ele>350.6</ele>
        <time>2017-04-16T02:53:30.000Z</time>
      </trkpt>
      <trkpt lat="43.57296" lon="2.92269">
        <ele>351.2</ele>
        <time>2017-04-16T02:53:32.000Z</time>
      </trkpt>
      <trkpt lat="43.573" lon="2.92272">
        <ele>351.6</ele>
        <time>2017-04-16T02:53:34.000Z</time>
      </trkpt>
      <trkpt lat="43.57304" lon="2.92274">
        <ele>351.8</ele>
        <time>2017-04-16T02:53:36.000Z</time>
      </trkpt>
      <trkpt lat="43.57309" lon="2.92275">
        <ele>352.2</ele>
        <time>2017-04-16T02:53:38.000Z</time>
      </trkpt>
      <trkpt lat="43.57313" lon="2.92276">
        <ele>352.6</ele>
        <time>2017-04-16T02:53:40.000Z</time>
      </trkpt>
      <trkpt lat="43.57317" lon="2.92278">
        <ele>353</ele>
        <time>2017-04-16T02:53:42.000Z</time>
      </trkpt>
      <trkpt lat="43.57322" lon="2.92279">
        <ele>353.4</ele>
        <time>2017-04-16T02:53:44.000Z</time>
      </trkpt>
      <trkpt lat="43.57326" lon="2.9228">
        <ele>353.8</ele>
        <time>2017-04-16T02:53:46.000Z</time>
      </trkpt>
      <trkpt lat="43.5733" lon="2.9228">
        <ele>354.2</ele>
        <time>2017-04-16T02:53:48.000Z</time>
      </trkpt>
      <trkpt lat="43.57343" lon="2.92276">
        <ele>354.6</ele>
        <time>2017-04-16T02:53:54.000Z</time>
      </trkpt>
      <trkpt lat="43.57344" lon="2.92276">
        <ele>355</ele>
        <time>2017-04-16T02:53:55.000Z</time>
      </trkpt>
      <trkpt lat="43.57348" lon="2.92276">
        <ele>355.4</ele>
        <time>2017-04-16T02:53:57.000Z</time>
      </trkpt>
      <trkpt lat="43.57351" lon="2.92277">
        <ele>355.8</ele>
        <time>2017-04-16T02:53:59.000Z</time>
      </trkpt>
      <trkpt lat="43.57355" lon="2.92278">
        <ele>356</ele>
        <time>2017-04-16T02:54:01.000Z</time>
      </trkpt>
      <trkpt lat="43.57358" lon="2.92278">
        <ele>356.2</ele>
        <time>2017-04-16T02:54:03.000Z</time>
      </trkpt>
      <trkpt lat="43.57359" lon="2.92279">
        <ele>356.4</ele>
        <time>2017-04-16T02:54:04.000Z</time>
      </trkpt>
      <trkpt lat="43.57366" lon="2.92284">
        <ele>357</ele>
        <time>2017-04-16T02:54:09.000Z</time>
      </trkpt>
      <trkpt lat="43.57369" lon="2.92286">
        <ele>357.4</ele>
        <time>2017-04-16T02:54:11.000Z</time>
      </trkpt>
      <trkpt lat="43.57373" lon="2.92286">
        <ele>357.6</ele>
        <time>2017-04-16T02:54:12.000Z</time>
      </trkpt>
      <trkpt lat="43.57375" lon="2.92286">
        <ele>357.8</ele>
        <time>2017-04-16T02:54:13.000Z</time>
      </trkpt>
      <trkpt lat="43.57377" lon="2.92288">
        <ele>358</ele>
        <time>2017-04-16T02:54:14.000Z</time>
      </trkpt>
      <trkpt lat="43.57379" lon="2.9229">
        <ele>358.2</ele>
        <time>2017-04-16T02:54:15.000Z</time>
      </trkpt>
      <trkpt lat="43.57385" lon="2.92293">
        <ele>358.4</ele>
        <time>2017-04-16T02:54:17.000Z</time>
      </trkpt>
      <trkpt lat="43.57387" lon="2.92294">
        <ele>358.4</ele>
        <time>2017-04-16T02:54:18.000Z</time>
      </trkpt>
      <trkpt lat="43.57389" lon="2.92296">
        <ele>358.8</ele>
        <time>2017-04-16T02:54:19.000Z</time>
      </trkpt>
      <trkpt lat="43.57394" lon="2.92299">
        <ele>359.4</ele>
        <time>2017-04-16T02:54:21.000Z</time>
      </trkpt>
      <trkpt lat="43.57398" lon="2.92301">
        <ele>359.8</ele>
        <time>2017-04-16T02:54:23.000Z</time>
      </trkpt>
      <trkpt lat="43.57402" lon="2.92305">
        <ele>360.2</ele>
        <time>2017-04-16T02:54:25.000Z</time>
      </trkpt>
      <trkpt lat="43.57406" lon="2.92308">
        <ele>360.4</ele>
        <time>2017-04-16T02:54:27.000Z</time>
      </trkpt>
      <trkpt lat="43.57407" lon="2.92309">
        <ele>360.8</ele>
        <time>2017-04-16T02:54:28.000Z</time>
      </trkpt>
      <trkpt lat="43.5741" lon="2.92312">
        <ele>361.2</ele>
        <time>2017-04-16T02:54:30.000Z</time>
      </trkpt>
      <trkpt lat="43.57412" lon="2.92315">
        <ele>361.8</ele>
        <time>2017-04-16T02:54:32.000Z</time>
      </trkpt>
      <trkpt lat="43.57414" lon="2.92317">
        <ele>362</ele>
        <time>2017-04-16T02:54:34.000Z</time>
      </trkpt>
      <trkpt lat="43.57417" lon="2.9232">
        <ele>362.4</ele>
        <time>2017-04-16T02:54:36.000Z</time>
      </trkpt>
      <trkpt lat="43.57429" lon="2.92326">
        <ele>363.2</ele>
        <time>2017-04-16T02:54:41.000Z</time>
      </trkpt>
      <trkpt lat="43.57432" lon="2.92329">
        <ele>363.6</ele>
        <time>2017-04-16T02:54:43.000Z</time>
      </trkpt>
      <trkpt lat="43.57435" lon="2.92333">
        <ele>364</ele>
        <time>2017-04-16T02:54:45.000Z</time>
      </trkpt>
      <trkpt lat="43.57439" lon="2.92336">
        <ele>364.4</ele>
        <time>2017-04-16T02:54:47.000Z</time>
      </trkpt>
      <trkpt lat="43.57441" lon="2.9234">
        <ele>364.6</ele>
        <time>2017-04-16T02:54:49.000Z</time>
      </trkpt>
      <trkpt lat="43.57445" lon="2.92353">
        <ele>365.4</ele>
        <time>2017-04-16T02:54:54.000Z</time>
      </trkpt>
      <trkpt lat="43.57447" lon="2.92358">
        <ele>365.8</ele>
        <time>2017-04-16T02:54:56.000Z</time>
      </trkpt>
      <trkpt lat="43.57451" lon="2.92362">
        <ele>366.2</ele>
        <time>2017-04-16T02:54:58.000Z</time>
      </trkpt>
      <trkpt lat="43.57453" lon="2.92366">
        <ele>366.6</ele>
        <time>2017-04-16T02:55:00.000Z</time>
      </trkpt>
      <trkpt lat="43.57457" lon="2.9237">
        <ele>366.8</ele>
        <time>2017-04-16T02:55:02.000Z</time>
      </trkpt>
      <trkpt lat="43.57459" lon="2.92372">
        <ele>367</ele>
        <time>2017-04-16T02:55:03.000Z</time>
      </trkpt>
      <trkpt lat="43.57463" lon="2.92374">
        <ele>367.4</ele>
        <time>2017-04-16T02:55:05.000Z</time>
      </trkpt>
      <trkpt lat="43.57466" lon="2.92377">
        <ele>367.8</ele>
        <time>2017-04-16T02:55:07.000Z</time>
      </trkpt>
      <trkpt lat="43.57469" lon="2.92378">
        <ele>368.2</ele>
        <time>2017-04-16T02:55:09.000Z</time>
      </trkpt>
      <trkpt lat="43.5747" lon="2.92379">
        <ele>368.4</ele>
        <time>2017-04-16T02:55:10.000Z</time>
      </trkpt>
      <trkpt lat="43.57471" lon="2.92378">
        <ele>368.6</ele>
        <time>2017-04-16T02:55:11.000Z</time>
      </trkpt>
      <trkpt lat="43.57474" lon="2.92378">
        <ele>368.8</ele>
        <time>2017-04-16T02:55:13.000Z</time>
      </trkpt>
      <trkpt lat="43.57482" lon="2.92376">
        <ele>369.4</ele>
        <time>2017-04-16T02:55:16.000Z</time>
      </trkpt>
      <trkpt lat="43.57486" lon="2.92373">
        <ele>370</ele>
        <time>2017-04-16T02:55:18.000Z</time>
      </trkpt>
      <trkpt lat="43.57488" lon="2.92372">
        <ele>370.2</ele>
        <time>2017-04-16T02:55:19.000Z</time>
      </trkpt>
      <trkpt lat="43.57492" lon="2.92368">
        <ele>370.8</ele>
        <time>2017-04-16T02:55:22.000Z</time>
      </trkpt>
      <trkpt lat="43.57495" lon="2.92366">
        <ele>371</ele>
        <time>2017-04-16T02:55:24.000Z</time>
      </trkpt>
      <trkpt lat="43.57502" lon="2.92358">
        <ele>371.8</ele>
        <time>2017-04-16T02:55:28.000Z</time>
      </trkpt>
      <trkpt lat="43.57507" lon="2.92356">
        <ele>372.2</ele>
        <time>2017-04-16T02:55:30.000Z</time>
      </trkpt>
      <trkpt lat="43.57512" lon="2.92353">
        <ele>372.6</ele>
        <time>2017-04-16T02:55:32.000Z</time>
      </trkpt>
      <trkpt lat="43.57516" lon="2.92351">
        <ele>373</ele>
        <time>2017-04-16T02:55:34.000Z</time>
      </trkpt>
      <trkpt lat="43.57519" lon="2.92349">
        <ele>373.4</ele>
        <time>2017-04-16T02:55:36.000Z</time>
      </trkpt>
      <trkpt lat="43.57526" lon="2.92346">
        <ele>373.8</ele>
        <time>2017-04-16T02:55:39.000Z</time>
      </trkpt>
      <trkpt lat="43.57528" lon="2.92343">
        <ele>374.4</ele>
        <time>2017-04-16T02:55:41.000Z</time>
      </trkpt>
      <trkpt lat="43.5753" lon="2.92339">
        <ele>374.8</ele>
        <time>2017-04-16T02:55:43.000Z</time>
      </trkpt>
      <trkpt lat="43.57532" lon="2.92339">
        <ele>375</ele>
        <time>2017-04-16T02:55:44.000Z</time>
      </trkpt>
      <trkpt lat="43.57533" lon="2.92338">
        <ele>375.2</ele>
        <time>2017-04-16T02:55:45.000Z</time>
      </trkpt>
      <trkpt lat="43.57536" lon="2.92335">
        <ele>375.4</ele>
        <time>2017-04-16T02:55:47.000Z</time>
      </trkpt>
      <trkpt lat="43.57538" lon="2.92334">
        <ele>375.8</ele>
        <time>2017-04-16T02:55:48.000Z</time>
      </trkpt>
      <trkpt lat="43.57539" lon="2.92332">
        <ele>376</ele>
        <time>2017-04-16T02:55:49.000Z</time>
      </trkpt>
      <trkpt lat="43.57541" lon="2.92331">
        <ele>376.2</ele>
        <time>2017-04-16T02:55:50.000Z</time>
      </trkpt>
      <trkpt lat="43.57543" lon="2.9233">
        <ele>376.6</ele>
        <time>2017-04-16T02:55:51.000Z</time>
      </trkpt>
      <trkpt lat="43.5755" lon="2.92327">
        <ele>377</ele>
        <time>2017-04-16T02:55:54.000Z</time>
      </trkpt>
      <trkpt lat="43.57555" lon="2.92326">
        <ele>377.4</ele>
        <time>2017-04-16T02:55:56.000Z</time>
      </trkpt>
      <trkpt lat="43.57569" lon="2.92326">
        <ele>378.2</ele>
        <time>2017-04-16T02:56:02.000Z</time>
      </trkpt>
      <trkpt lat="43.57573" lon="2.92326">
        <ele>378.8</ele>
        <time>2017-04-16T02:56:04.000Z</time>
      </trkpt>
      <trkpt lat="43.57578" lon="2.92327">
        <ele>379.2</ele>
        <time>2017-04-16T02:56:06.000Z</time>
      </trkpt>
      <trkpt lat="43.5758" lon="2.92329">
        <ele>379.4</ele>
        <time>2017-04-16T02:56:07.000Z</time>
      </trkpt>
      <trkpt lat="43.5759" lon="2.9233">
        <ele>379.8</ele>
        <time>2017-04-16T02:56:10.000Z</time>
      </trkpt>
      <trkpt lat="43.57601" lon="2.92325">
        <ele>380.4</ele>
        <time>2017-04-16T02:56:14.000Z</time>
      </trkpt>
      <trkpt lat="43.57604" lon="2.9232">
        <ele>380.8</ele>
        <time>2017-04-16T02:56:16.000Z</time>
      </trkpt>
      <trkpt lat="43.57607" lon="2.92316">
        <ele>381.4</ele>
        <time>2017-04-16T02:56:18.000Z</time>
      </trkpt>
      <trkpt lat="43.57609" lon="2.92311">
        <ele>381.6</ele>
        <time>2017-04-16T02:56:20.000Z</time>
      </trkpt>
      <trkpt lat="43.57611" lon="2.92307">
        <ele>382</ele>
        <time>2017-04-16T02:56:22.000Z</time>
      </trkpt>
      <trkpt lat="43.5762" lon="2.92302">
        <ele>382.6</ele>
        <time>2017-04-16T02:56:26.000Z</time>
      </trkpt>
      <trkpt lat="43.57626" lon="2.92299">
        <ele>383</ele>
        <time>2017-04-16T02:56:28.000Z</time>
      </trkpt>
      <trkpt lat="43.57628" lon="2.92298">
        <ele>383.2</ele>
        <time>2017-04-16T02:56:29.000Z</time>
      </trkpt>
      <trkpt lat="43.57633" lon="2.92292">
        <ele>383.8</ele>
        <time>2017-04-16T02:56:32.000Z</time>
      </trkpt>
      <trkpt lat="43.57634" lon="2.9229">
        <ele>383.8</ele>
        <time>2017-04-16T02:56:33.000Z</time>
      </trkpt>
      <trkpt lat="43.57639" lon="2.92284">
        <ele>384.4</ele>
        <time>2017-04-16T02:56:36.000Z</time>
      </trkpt>
      <trkpt lat="43.57642" lon="2.92281">
        <ele>385</ele>
        <time>2017-04-16T02:56:38.000Z</time>
      </trkpt>
      <trkpt lat="43.57646" lon="2.92278">
        <ele>385.4</ele>
        <time>2017-04-16T02:56:40.000Z</time>
      </trkpt>
      <trkpt lat="43.57649" lon="2.92275">
        <ele>385.8</ele>
        <time>2017-04-16T02:56:42.000Z</time>
      </trkpt>
      <trkpt lat="43.57653" lon="2.92273">
        <ele>386</ele>
        <time>2017-04-16T02:56:44.000Z</time>
      </trkpt>
      <trkpt lat="43.57655" lon="2.92272">
        <ele>386.4</ele>
        <time>2017-04-16T02:56:45.000Z</time>
      </trkpt>
      <trkpt lat="43.57659" lon="2.92269">
        <ele>386.8</ele>
        <time>2017-04-16T02:56:47.000Z</time>
      </trkpt>
      <trkpt lat="43.57662" lon="2.92265">
        <ele>387.4</ele>
        <time>2017-04-16T02:56:49.000Z</time>
      </trkpt>
      <trkpt lat="43.57666" lon="2.92262">
        <ele>387.8</ele>
        <time>2017-04-16T02:56:51.000Z</time>
      </trkpt>
      <trkpt lat="43.5767" lon="2.92258">
        <ele>388</ele>
        <time>2017-04-16T02:56:53.000Z</time>
      </trkpt>
      <trkpt lat="43.57672" lon="2.92257">
        <ele>388.4</ele>
        <time>2017-04-16T02:56:54.000Z</time>
      </trkpt>
      <trkpt lat="43.57676" lon="2.92254">
        <ele>389</ele>
        <time>2017-04-16T02:56:56.000Z</time>
      </trkpt>
      <trkpt lat="43.57679" lon="2.92252">
        <ele>389.4</ele>
        <time>2017-04-16T02:56:58.000Z</time>
      </trkpt>
      <trkpt lat="43.57681" lon="2.9225">
        <ele>389.6</ele>
        <time>2017-04-16T02:56:59.000Z</time>
      </trkpt>
      <trkpt lat="43.57683" lon="2.92245">
        <ele>390.2</ele>
        <time>2017-04-16T02:57:01.000Z</time>
      </trkpt>
      <trkpt lat="43.57682" lon="2.9224">
        <ele>390.8</ele>
        <time>2017-04-16T02:57:03.000Z</time>
      </trkpt>
      <trkpt lat="43.57678" lon="2.92237">
        <ele>391.4</ele>
        <time>2017-04-16T02:57:05.000Z</time>
      </trkpt>
      <trkpt lat="43.57675" lon="2.92237">
        <ele>391.8</ele>
        <time>2017-04-16T02:57:07.000Z</time>
      </trkpt>
      <trkpt lat="43.57672" lon="2.92238">
        <ele>392</ele>
        <time>2017-04-16T02:57:08.000Z</time>
      </trkpt>
      <trkpt lat="43.5767" lon="2.92239">
        <ele>392</ele>
        <time>2017-04-16T02:57:09.000Z</time>
      </trkpt>
      <trkpt lat="43.57665" lon="2.92245">
        <ele>392.6</ele>
        <time>2017-04-16T02:57:12.000Z</time>
      </trkpt>
      <trkpt lat="43.57662" lon="2.92249">
        <ele>393.2</ele>
        <time>2017-04-16T02:57:14.000Z</time>
      </trkpt>
      <trkpt lat="43.5766" lon="2.92253">
        <ele>393.6</ele>
        <time>2017-04-16T02:57:16.000Z</time>
      </trkpt>
      <trkpt lat="43.57658" lon="2.92255">
        <ele>394</ele>
        <time>2017-04-16T02:57:18.000Z</time>
      </trkpt>
      <trkpt lat="43.57656" lon="2.92257">
        <ele>394.6</ele>
        <time>2017-04-16T02:57:20.000Z</time>
      </trkpt>
      <trkpt lat="43.57654" lon="2.92258">
        <ele>395.2</ele>
        <time>2017-04-16T02:57:22.000Z</time>
      </trkpt>
      <trkpt lat="43.57651" lon="2.92259">
        <ele>395.6</ele>
        <time>2017-04-16T02:57:24.000Z</time>
      </trkpt>
      <trkpt lat="43.57647" lon="2.92259">
        <ele>396</ele>
        <time>2017-04-16T02:57:26.000Z</time>
      </trkpt>
      <trkpt lat="43.57646" lon="2.92259">
        <ele>396.2</ele>
        <time>2017-04-16T02:57:27.000Z</time>
      </trkpt>
      <trkpt lat="43.5764" lon="2.92259">
        <ele>396.8</ele>
        <time>2017-04-16T02:57:30.000Z</time>
      </trkpt>
      <trkpt lat="43.57637" lon="2.92258">
        <ele>397.4</ele>
        <time>2017-04-16T02:57:32.000Z</time>
      </trkpt>
      <trkpt lat="43.57635" lon="2.92258">
        <ele>397.8</ele>
        <time>2017-04-16T02:57:34.000Z</time>
      </trkpt>
      <trkpt lat="43.57633" lon="2.92258">
        <ele>398</ele>
        <time>2017-04-16T02:57:35.000Z</time>
      </trkpt>
      <trkpt lat="43.57628" lon="2.92257">
        <ele>398.6</ele>
        <time>2017-04-16T02:57:38.000Z</time>
      </trkpt>
      <trkpt lat="43.57623" lon="2.92254">
        <ele>399.2</ele>
        <time>2017-04-16T02:57:41.000Z</time>
      </trkpt>
      <trkpt lat="43.57619" lon="2.92253">
        <ele>399.6</ele>
        <time>2017-04-16T02:57:43.000Z</time>
      </trkpt>
      <trkpt lat="43.57615" lon="2.92253">
        <ele>400.2</ele>
        <time>2017-04-16T02:57:45.000Z</time>
      </trkpt>
      <trkpt lat="43.57611" lon="2.92252">
        <ele>400.6</ele>
        <time>2017-04-16T02:57:47.000Z</time>
      </trkpt>
      <trkpt lat="43.57608" lon="2.92254">
        <ele>401</ele>
        <time>2017-04-16T02:57:49.000Z</time>
      </trkpt>
      <trkpt lat="43.57607" lon="2.92255">
        <ele>401.6</ele>
        <time>2017-04-16T02:57:51.000Z</time>
      </trkpt>
      <trkpt lat="43.57605" lon="2.92257">
        <ele>402.2</ele>
        <time>2017-04-16T02:57:53.000Z</time>
      </trkpt>
      <trkpt lat="43.57603" lon="2.92259">
        <ele>402.6</ele>
        <time>2017-04-16T02:57:55.000Z</time>
      </trkpt>
      <trkpt lat="43.57602" lon="2.9226">
        <ele>403</ele>
        <time>2017-04-16T02:57:56.000Z</time>
      </trkpt>
      <trkpt lat="43.57598" lon="2.92261">
        <ele>403.6</ele>
        <time>2017-04-16T02:57:58.000Z</time>
      </trkpt>
      <trkpt lat="43.57596" lon="2.92261">
        <ele>403.8</ele>
        <time>2017-04-16T02:57:59.000Z</time>
      </trkpt>
      <trkpt lat="43.57592" lon="2.92259">
        <ele>404.6</ele>
        <time>2017-04-16T02:58:02.000Z</time>
      </trkpt>
      <trkpt lat="43.57588" lon="2.92258">
        <ele>404.8</ele>
        <time>2017-04-16T02:58:04.000Z</time>
      </trkpt>
      <trkpt lat="43.57586" lon="2.92257">
        <ele>405</ele>
        <time>2017-04-16T02:58:05.000Z</time>
      </trkpt>
      <trkpt lat="43.57584" lon="2.92256">
        <ele>405.4</ele>
        <time>2017-04-16T02:58:06.000Z</time>
      </trkpt>
      <trkpt lat="43.57582" lon="2.92256">
        <ele>405.6</ele>
        <time>2017-04-16T02:58:07.000Z</time>
      </trkpt>
      <trkpt lat="43.57578" lon="2.92253">
        <ele>406.4</ele>
        <time>2017-04-16T02:58:10.000Z</time>
      </trkpt>
      <trkpt lat="43.57576" lon="2.92251">
        <ele>406.8</ele>
        <time>2017-04-16T02:58:12.000Z</time>
      </trkpt>
      <trkpt lat="43.57573" lon="2.92249">
        <ele>407.2</ele>
        <time>2017-04-16T02:58:14.000Z</time>
      </trkpt>
      <trkpt lat="43.5757" lon="2.92249">
        <ele>407.6</ele>
        <time>2017-04-16T02:58:16.000Z</time>
      </trkpt>
      <trkpt lat="43.57567" lon="2.92248">
        <ele>408.2</ele>
        <time>2017-04-16T02:58:18.000Z</time>
      </trkpt>
      <trkpt lat="43.57565" lon="2.92249">
        <ele>408.4</ele>
        <time>2017-04-16T02:58:19.000Z</time>
      </trkpt>
      <trkpt lat="43.57564" lon="2.92248">
        <ele>408.6</ele>
        <time>2017-04-16T02:58:20.000Z</time>
      </trkpt>
      <trkpt lat="43.57561" lon="2.92248">
        <ele>409</ele>
        <time>2017-04-16T02:58:22.000Z</time>
      </trkpt>
      <trkpt lat="43.5756" lon="2.92247">
        <ele>409.2</ele>
        <time>2017-04-16T02:58:23.000Z</time>
      </trkpt>
      <trkpt lat="43.5756" lon="2.92246">
        <ele>409.2</ele>
        <time>2017-04-16T02:58:24.000Z</time>
      </trkpt>
      <trkpt lat="43.57557" lon="2.92242">
        <ele>409.8</ele>
        <time>2017-04-16T02:58:27.000Z</time>
      </trkpt>
      <trkpt lat="43.57556" lon="2.92239">
        <ele>410.4</ele>
        <time>2017-04-16T02:58:29.000Z</time>
      </trkpt>
      <trkpt lat="43.57556" lon="2.92237">
        <ele>410.8</ele>
        <time>2017-04-16T02:58:31.000Z</time>
      </trkpt>
      <trkpt lat="43.57556" lon="2.92237">
        <ele>411</ele>
        <time>2017-04-16T02:58:32.000Z</time>
      </trkpt>
      <trkpt lat="43.57557" lon="2.92236">
        <ele>411.2</ele>
        <time>2017-04-16T02:58:34.000Z</time>
      </trkpt>
      <trkpt lat="43.57558" lon="2.92235">
        <ele>411.4</ele>
        <time>2017-04-16T02:58:35.000Z</time>
      </trkpt>
      <trkpt lat="43.57559" lon="2.92233">
        <ele>411.8</ele>
        <time>2017-04-16T02:58:36.000Z</time>
      </trkpt>
      <trkpt lat="43.57562" lon="2.92231">
        <ele>412.4</ele>
        <time>2017-04-16T02:58:38.000Z</time>
      </trkpt>
      <trkpt lat="43.57564" lon="2.9223">
        <ele>412.8</ele>
        <time>2017-04-16T02:58:40.000Z</time>
      </trkpt>
      <trkpt lat="43.57566" lon="2.9223">
        <ele>413.4</ele>
        <time>2017-04-16T02:58:42.000Z</time>
      </trkpt>
      <trkpt lat="43.5757" lon="2.9223">
        <ele>414</ele>
        <time>2017-04-16T02:58:44.000Z</time>
      </trkpt>
      <trkpt lat="43.57573" lon="2.9223">
        <ele>414.6</ele>
        <time>2017-04-16T02:58:46.000Z</time>
      </trkpt>
      <trkpt lat="43.57574" lon="2.92231">
        <ele>414.8</ele>
        <time>2017-04-16T02:58:47.000Z</time>
      </trkpt>
      <trkpt lat="43.57578" lon="2.92229">
        <ele>415.2</ele>
        <time>2017-04-16T02:58:50.000Z</time>
      </trkpt>
      <trkpt lat="43.57581" lon="2.92227">
        <ele>415.8</ele>
        <time>2017-04-16T02:58:52.000Z</time>
      </trkpt>
      <trkpt lat="43.57585" lon="2.92224">
        <ele>416.4</ele>
        <time>2017-04-16T02:58:54.000Z</time>
      </trkpt>
      <trkpt lat="43.57591" lon="2.92221">
        <ele>416.8</ele>
        <time>2017-04-16T02:58:56.000Z</time>
      </trkpt>
      <trkpt lat="43.57596" lon="2.92219">
        <ele>417.2</ele>
        <time>2017-04-16T02:58:58.000Z</time>
      </trkpt>
      <trkpt lat="43.576" lon="2.92219">
        <ele>417.4</ele>
        <time>2017-04-16T02:59:00.000Z</time>
      </trkpt>
      <trkpt lat="43.57604" lon="2.92219">
        <ele>418</ele>
        <time>2017-04-16T02:59:03.000Z</time>
      </trkpt>
      <trkpt lat="43.57606" lon="2.92218">
        <ele>418.6</ele>
        <time>2017-04-16T02:59:05.000Z</time>
      </trkpt>
      <trkpt lat="43.57609" lon="2.92216">
        <ele>419</ele>
        <time>2017-04-16T02:59:07.000Z</time>
      </trkpt>
      <trkpt lat="43.57611" lon="2.92213">
        <ele>419.4</ele>
        <time>2017-04-16T02:59:09.000Z</time>
      </trkpt>
      <trkpt lat="43.57614" lon="2.9221">
        <ele>419.6</ele>
        <time>2017-04-16T02:59:11.000Z</time>
      </trkpt>
      <trkpt lat="43.5762" lon="2.92205">
        <ele>420.2</ele>
        <time>2017-04-16T02:59:15.000Z</time>
      </trkpt>
      <trkpt lat="43.57619" lon="2.92206">
        <ele>420.4</ele>
        <time>2017-04-16T02:59:16.000Z</time>
      </trkpt>
      <trkpt lat="43.57619" lon="2.92204">
        <ele>420.8</ele>
        <time>2017-04-16T02:59:17.000Z</time>
      </trkpt>
      <trkpt lat="43.57616" lon="2.92204">
        <ele>421.2</ele>
        <time>2017-04-16T02:59:19.000Z</time>
      </trkpt>
      <trkpt lat="43.57614" lon="2.92204">
        <ele>421.2</ele>
        <time>2017-04-16T02:59:20.000Z</time>
      </trkpt>
      <trkpt lat="43.57609" lon="2.92203">
        <ele>421.8</ele>
        <time>2017-04-16T02:59:23.000Z</time>
      </trkpt>
      <trkpt lat="43.57607" lon="2.92203">
        <ele>421.8</ele>
        <time>2017-04-16T02:59:24.000Z</time>
      </trkpt>
      <trkpt lat="43.57602" lon="2.92201">
        <ele>422.6</ele>
        <time>2017-04-16T02:59:27.000Z</time>
      </trkpt>
      <trkpt lat="43.57598" lon="2.92201">
        <ele>423</ele>
        <time>2017-04-16T02:59:29.000Z</time>
      </trkpt>
      <trkpt lat="43.57595" lon="2.922">
        <ele>423.4</ele>
        <time>2017-04-16T02:59:31.000Z</time>
      </trkpt>
      <trkpt lat="43.57592" lon="2.92199">
        <ele>423.8</ele>
        <time>2017-04-16T02:59:33.000Z</time>
      </trkpt>
      <trkpt lat="43.5759" lon="2.92199">
        <ele>424</ele>
        <time>2017-04-16T02:59:34.000Z</time>
      </trkpt>
      <trkpt lat="43.57585" lon="2.92198">
        <ele>424.6</ele>
        <time>2017-04-16T02:59:36.000Z</time>
      </trkpt>
      <trkpt lat="43.57581" lon="2.92198">
        <ele>425</ele>
        <time>2017-04-16T02:59:38.000Z</time>
      </trkpt>
      <trkpt lat="43.57578" lon="2.92198">
        <ele>425.2</ele>
        <time>2017-04-16T02:59:39.000Z</time>
      </trkpt>
      <trkpt lat="43.57572" lon="2.92195">
        <ele>425.8</ele>
        <time>2017-04-16T02:59:42.000Z</time>
      </trkpt>
      <trkpt lat="43.57565" lon="2.92191">
        <ele>426.4</ele>
        <time>2017-04-16T02:59:47.000Z</time>
      </trkpt>
      <trkpt lat="43.57563" lon="2.92189">
        <ele>427</ele>
        <time>2017-04-16T02:59:49.000Z</time>
      </trkpt>
      <trkpt lat="43.5756" lon="2.92189">
        <ele>427.4</ele>
        <time>2017-04-16T02:59:51.000Z</time>
      </trkpt>
      <trkpt lat="43.57557" lon="2.92189">
        <ele>427.6</ele>
        <time>2017-04-16T02:59:53.000Z</time>
      </trkpt>
      <trkpt lat="43.57553" lon="2.92188">
        <ele>428</ele>
        <time>2017-04-16T02:59:55.000Z</time>
      </trkpt>
      <trkpt lat="43.5755" lon="2.92187">
        <ele>428.4</ele>
        <time>2017-04-16T02:59:57.000Z</time>
      </trkpt>
      <trkpt lat="43.57548" lon="2.92186">
        <ele>428.8</ele>
        <time>2017-04-16T02:59:59.000Z</time>
      </trkpt>
      <trkpt lat="43.57545" lon="2.92185">
        <ele>429.4</ele>
        <time>2017-04-16T03:00:01.000Z</time>
      </trkpt>
      <trkpt lat="43.57543" lon="2.92183">
        <ele>429.6</ele>
        <time>2017-04-16T03:00:03.000Z</time>
      </trkpt>
      <trkpt lat="43.57539" lon="2.9218">
        <ele>430.2</ele>
        <time>2017-04-16T03:00:05.000Z</time>
      </trkpt>
      <trkpt lat="43.57536" lon="2.92179">
        <ele>430.8</ele>
        <time>2017-04-16T03:00:07.000Z</time>
      </trkpt>
      <trkpt lat="43.57534" lon="2.92176">
        <ele>431.2</ele>
        <time>2017-04-16T03:00:09.000Z</time>
      </trkpt>
      <trkpt lat="43.57534" lon="2.92175">
        <ele>431.6</ele>
        <time>2017-04-16T03:00:11.000Z</time>
      </trkpt>
      <trkpt lat="43.57533" lon="2.92172">
        <ele>432.2</ele>
        <time>2017-04-16T03:00:13.000Z</time>
      </trkpt>
      <trkpt lat="43.57532" lon="2.92169">
        <ele>432.8</ele>
        <time>2017-04-16T03:00:15.000Z</time>
      </trkpt>
      <trkpt lat="43.57531" lon="2.92165">
        <ele>433.2</ele>
        <time>2017-04-16T03:00:17.000Z</time>
      </trkpt>
      <trkpt lat="43.57529" lon="2.9216">
        <ele>433.6</ele>
        <time>2017-04-16T03:00:19.000Z</time>
      </trkpt>
      <trkpt lat="43.57529" lon="2.92155">
        <ele>434</ele>
        <time>2017-04-16T03:00:21.000Z</time>
      </trkpt>
      <trkpt lat="43.57528" lon="2.9215">
        <ele>434.4</ele>
        <time>2017-04-16T03:00:23.000Z</time>
      </trkpt>
      <trkpt lat="43.57528" lon="2.92147">
        <ele>434.8</ele>
        <time>2017-04-16T03:00:24.000Z</time>
      </trkpt>
      <trkpt lat="43.57529" lon="2.92146">
        <ele>435</ele>
        <time>2017-04-16T03:00:25.000Z</time>
      </trkpt>
      <trkpt lat="43.57529" lon="2.92142">
        <ele>435.4</ele>
        <time>2017-04-16T03:00:27.000Z</time>
      </trkpt>
      <trkpt lat="43.57529" lon="2.9214">
        <ele>435.8</ele>
        <time>2017-04-16T03:00:28.000Z</time>
      </trkpt>
      <trkpt lat="43.5753" lon="2.92136">
        <ele>436.6</ele>
        <time>2017-04-16T03:00:30.000Z</time>
      </trkpt>
      <trkpt lat="43.5753" lon="2.92134">
        <ele>437.2</ele>
        <time>2017-04-16T03:00:32.000Z</time>
      </trkpt>
      <trkpt lat="43.57531" lon="2.92131">
        <ele>437.6</ele>
        <time>2017-04-16T03:00:34.000Z</time>
      </trkpt>
      <trkpt lat="43.57533" lon="2.92128">
        <ele>438</ele>
        <time>2017-04-16T03:00:36.000Z</time>
      </trkpt>
      <trkpt lat="43.57533" lon="2.92127">
        <ele>438.2</ele>
        <time>2017-04-16T03:00:37.000Z</time>
      </trkpt>
      <trkpt lat="43.57536" lon="2.92125">
        <ele>438.6</ele>
        <time>2017-04-16T03:00:39.000Z</time>
      </trkpt>
      <trkpt lat="43.57539" lon="2.92125">
        <ele>439.2</ele>
        <time>2017-04-16T03:00:41.000Z</time>
      </trkpt>
      <trkpt lat="43.57544" lon="2.92126">
        <ele>439.6</ele>
        <time>2017-04-16T03:00:43.000Z</time>
      </trkpt>
      <trkpt lat="43.57547" lon="2.92125">
        <ele>440.4</ele>
        <time>2017-04-16T03:00:45.000Z</time>
      </trkpt>
      <trkpt lat="43.5755" lon="2.92126">
        <ele>441</ele>
        <time>2017-04-16T03:00:47.000Z</time>
      </trkpt>
      <trkpt lat="43.57553" lon="2.92127">
        <ele>441.6</ele>
        <time>2017-04-16T03:00:49.000Z</time>
      </trkpt>
      <trkpt lat="43.57555" lon="2.92127">
        <ele>442</ele>
        <time>2017-04-16T03:00:51.000Z</time>
      </trkpt>
      <trkpt lat="43.57557" lon="2.92127">
        <ele>442.4</ele>
        <time>2017-04-16T03:00:53.000Z</time>
      </trkpt>
      <trkpt lat="43.5756" lon="2.92127">
        <ele>442.6</ele>
        <time>2017-04-16T03:00:55.000Z</time>
      </trkpt>
      <trkpt lat="43.57564" lon="2.92127">
        <ele>443.2</ele>
        <time>2017-04-16T03:00:58.000Z</time>
      </trkpt>
      <trkpt lat="43.57566" lon="2.92124">
        <ele>443.8</ele>
        <time>2017-04-16T03:01:00.000Z</time>
      </trkpt>
      <trkpt lat="43.57568" lon="2.92122">
        <ele>444.2</ele>
        <time>2017-04-16T03:01:02.000Z</time>
      </trkpt>
      <trkpt lat="43.57568" lon="2.92121">
        <ele>444.4</ele>
        <time>2017-04-16T03:01:03.000Z</time>
      </trkpt>
      <trkpt lat="43.57572" lon="2.92121">
        <ele>444.8</ele>
        <time>2017-04-16T03:01:06.000Z</time>
      </trkpt>
      <trkpt lat="43.57574" lon="2.92121">
        <ele>445.2</ele>
        <time>2017-04-16T03:01:08.000Z</time>
      </trkpt>
      <trkpt lat="43.57575" lon="2.9212">
        <ele>445.8</ele>
        <time>2017-04-16T03:01:10.000Z</time>
      </trkpt>
      <trkpt lat="43.57575" lon="2.9212">
        <ele>446</ele>
        <time>2017-04-16T03:01:11.000Z</time>
      </trkpt>
      <trkpt lat="43.57578" lon="2.92121">
        <ele>446.8</ele>
        <time>2017-04-16T03:01:16.000Z</time>
      </trkpt>
      <trkpt lat="43.57578" lon="2.92121">
        <ele>447.2</ele>
        <time>2017-04-16T03:01:17.000Z</time>
      </trkpt>
      <trkpt lat="43.57579" lon="2.92121">
        <ele>447.4</ele>
        <time>2017-04-16T03:01:18.000Z</time>
      </trkpt>
      <trkpt lat="43.57579" lon="2.92121">
        <ele>447.6</ele>
        <time>2017-04-16T03:01:19.000Z</time>
      </trkpt>
      <trkpt lat="43.5758" lon="2.92118">
        <ele>448.2</ele>
        <time>2017-04-16T03:01:21.000Z</time>
      </trkpt>
      <trkpt lat="43.57582" lon="2.92115">
        <ele>448.6</ele>
        <time>2017-04-16T03:01:23.000Z</time>
      </trkpt>
      <trkpt lat="43.57583" lon="2.92115">
        <ele>449.4</ele>
        <time>2017-04-16T03:01:25.000Z</time>
      </trkpt>
      <trkpt lat="43.57585" lon="2.92115">
        <ele>449.8</ele>
        <time>2017-04-16T03:01:27.000Z</time>
      </trkpt>
      <trkpt lat="43.57587" lon="2.92116">
        <ele>450.4</ele>
        <time>2017-04-16T03:01:29.000Z</time>
      </trkpt>
      <trkpt lat="43.57588" lon="2.92116">
        <ele>450.6</ele>
        <time>2017-04-16T03:01:31.000Z</time>
      </trkpt>
      <trkpt lat="43.57592" lon="2.92116">
        <ele>451.4</ele>
        <time>2017-04-16T03:01:34.000Z</time>
      </trkpt>
      <trkpt lat="43.57594" lon="2.92116">
        <ele>451.8</ele>
        <time>2017-04-16T03:01:36.000Z</time>
      </trkpt>
      <trkpt lat="43.57596" lon="2.92116">
        <ele>452.4</ele>
        <time>2017-04-16T03:01:38.000Z</time>
      </trkpt>
      <trkpt lat="43.57599" lon="2.92117">
        <ele>452.8</ele>
        <time>2017-04-16T03:01:40.000Z</time>
      </trkpt>
      <trkpt lat="43.57601" lon="2.92119">
        <ele>453</ele>
        <time>2017-04-16T03:01:42.000Z</time>
      </trkpt>
      <trkpt lat="43.57601" lon="2.9212">
        <ele>453.4</ele>
        <time>2017-04-16T03:01:43.000Z</time>
      </trkpt>
      <trkpt lat="43.57603" lon="2.92123">
        <ele>454</ele>
        <time>2017-04-16T03:01:45.000Z</time>
      </trkpt>
      <trkpt lat="43.57605" lon="2.92124">
        <ele>454.4</ele>
        <time>2017-04-16T03:01:47.000Z</time>
      </trkpt>
      <trkpt lat="43.57607" lon="2.92124">
        <ele>454.8</ele>
        <time>2017-04-16T03:01:49.000Z</time>
      </trkpt>
      <trkpt lat="43.57609" lon="2.92123">
        <ele>455.2</ele>
        <time>2017-04-16T03:01:51.000Z</time>
      </trkpt>
      <trkpt lat="43.57615" lon="2.92125">
        <ele>456</ele>
        <time>2017-04-16T03:01:58.000Z</time>
      </trkpt>
      <trkpt lat="43.57618" lon="2.92124">
        <ele>456.6</ele>
        <time>2017-04-16T03:02:00.000Z</time>
      </trkpt>
      <trkpt lat="43.57619" lon="2.92121">
        <ele>457</ele>
        <time>2017-04-16T03:02:02.000Z</time>
      </trkpt>
      <trkpt lat="43.57621" lon="2.9212">
        <ele>457.2</ele>
        <time>2017-04-16T03:02:04.000Z</time>
      </trkpt>
      <trkpt lat="43.57623" lon="2.9212">
        <ele>457.6</ele>
        <time>2017-04-16T03:02:06.000Z</time>
      </trkpt>
      <trkpt lat="43.57627" lon="2.92121">
        <ele>458.2</ele>
        <time>2017-04-16T03:02:11.000Z</time>
      </trkpt>
      <trkpt lat="43.57629" lon="2.92121">
        <ele>458.6</ele>
        <time>2017-04-16T03:02:13.000Z</time>
      </trkpt>
      <trkpt lat="43.5763" lon="2.92121">
        <ele>459</ele>
        <time>2017-04-16T03:02:15.000Z</time>
      </trkpt>
      <trkpt lat="43.57632" lon="2.9212">
        <ele>459.4</ele>
        <time>2017-04-16T03:02:17.000Z</time>
      </trkpt>
      <trkpt lat="43.57633" lon="2.92118">
        <ele>459.6</ele>
        <time>2017-04-16T03:02:19.000Z</time>
      </trkpt>
      <trkpt lat="43.57639" lon="2.92113">
        <ele>460.4</ele>
        <time>2017-04-16T03:02:26.000Z</time>
      </trkpt>
      <trkpt lat="43.57641" lon="2.92112">
        <ele>461</ele>
        <time>2017-04-16T03:02:28.000Z</time>
      </trkpt>
      <trkpt lat="43.57643" lon="2.92111">
        <ele>461.4</ele>
        <time>2017-04-16T03:02:30.000Z</time>
      </trkpt>
      <trkpt lat="43.57645" lon="2.92109">
        <ele>461.6</ele>
        <time>2017-04-16T03:02:32.000Z</time>
      </trkpt>
      <trkpt lat="43.57647" lon="2.92107">
        <ele>461.8</ele>
        <time>2017-04-16T03:02:34.000Z</time>
      </trkpt>
      <trkpt lat="43.57648" lon="2.92106">
        <ele>462.2</ele>
        <time>2017-04-16T03:02:35.000Z</time>
      </trkpt>
      <trkpt lat="43.57649" lon="2.92105">
        <ele>462.8</ele>
        <time>2017-04-16T03:02:37.000Z</time>
      </trkpt>
      <trkpt lat="43.5765" lon="2.92104">
        <ele>463.2</ele>
        <time>2017-04-16T03:02:39.000Z</time>
      </trkpt>
      <trkpt lat="43.57651" lon="2.92104">
        <ele>463.6</ele>
        <time>2017-04-16T03:02:41.000Z</time>
      </trkpt>
      <trkpt lat="43.57653" lon="2.92104">
        <ele>463.8</ele>
        <time>2017-04-16T03:02:43.000Z</time>
      </trkpt>
      <trkpt lat="43.57654" lon="2.92105">
        <ele>464.2</ele>
        <time>2017-04-16T03:02:44.000Z</time>
      </trkpt>
      <trkpt lat="43.57656" lon="2.92105">
        <ele>464.8</ele>
        <time>2017-04-16T03:02:46.000Z</time>
      </trkpt>
      <trkpt lat="43.57659" lon="2.92106">
        <ele>465.2</ele>
        <time>2017-04-16T03:02:48.000Z</time>
      </trkpt>
      <trkpt lat="43.5766" lon="2.92106">
        <ele>465.6</ele>
        <time>2017-04-16T03:02:50.000Z</time>
      </trkpt>
      <trkpt lat="43.57661" lon="2.92105">
        <ele>466</ele>
        <time>2017-04-16T03:02:52.000Z</time>
      </trkpt>
      <trkpt lat="43.57662" lon="2.92104">
        <ele>466.6</ele>
        <time>2017-04-16T03:02:54.000Z</time>
      </trkpt>
      <trkpt lat="43.57663" lon="2.92103">
        <ele>467.2</ele>
        <time>2017-04-16T03:02:56.000Z</time>
      </trkpt>
      <trkpt lat="43.57664" lon="2.92101">
        <ele>467.6</ele>
        <time>2017-04-16T03:02:58.000Z</time>
      </trkpt>
      <trkpt lat="43.57665" lon="2.92099">
        <ele>468</ele>
        <time>2017-04-16T03:03:00.000Z</time>
      </trkpt>
      <trkpt lat="43.57667" lon="2.92097">
        <ele>468.8</ele>
        <time>2017-04-16T03:03:02.000Z</time>
      </trkpt>
      <trkpt lat="43.57668" lon="2.92097">
        <ele>469.2</ele>
        <time>2017-04-16T03:03:04.000Z</time>
      </trkpt>
      <trkpt lat="43.57669" lon="2.92095">
        <ele>469.6</ele>
        <time>2017-04-16T03:03:06.000Z</time>
      </trkpt>
      <trkpt lat="43.5767" lon="2.92094">
        <ele>470</ele>
        <time>2017-04-16T03:03:08.000Z</time>
      </trkpt>
      <trkpt lat="43.57671" lon="2.92091">
        <ele>470.6</ele>
        <time>2017-04-16T03:03:11.000Z</time>
      </trkpt>
      <trkpt lat="43.57671" lon="2.92089">
        <ele>471.2</ele>
        <time>2017-04-16T03:03:13.000Z</time>
      </trkpt>
      <trkpt lat="43.57671" lon="2.92087">
        <ele>471.6</ele>
        <time>2017-04-16T03:03:15.000Z</time>
      </trkpt>
      <trkpt lat="43.57672" lon="2.92085">
        <ele>472</ele>
        <time>2017-04-16T03:03:17.000Z</time>
      </trkpt>
      <trkpt lat="43.57672" lon="2.92083">
        <ele>472.2</ele>
        <time>2017-04-16T03:03:19.000Z</time>
      </trkpt>
      <trkpt lat="43.57674" lon="2.92081">
        <ele>472.8</ele>
        <time>2017-04-16T03:03:22.000Z</time>
      </trkpt>
      <trkpt lat="43.57675" lon="2.9208">
        <ele>473.4</ele>
        <time>2017-04-16T03:03:24.000Z</time>
      </trkpt>
      <trkpt lat="43.57677" lon="2.92079">
        <ele>474</ele>
        <time>2017-04-16T03:03:26.000Z</time>
      </trkpt>
      <trkpt lat="43.57678" lon="2.92077">
        <ele>474.2</ele>
        <time>2017-04-16T03:03:28.000Z</time>
      </trkpt>
      <trkpt lat="43.57679" lon="2.92076">
        <ele>474.6</ele>
        <time>2017-04-16T03:03:30.000Z</time>
      </trkpt>
      <trkpt lat="43.57679" lon="2.92075">
        <ele>475</ele>
        <time>2017-04-16T03:03:31.000Z</time>
      </trkpt>
      <trkpt lat="43.5768" lon="2.92074">
        <ele>475.6</ele>
        <time>2017-04-16T03:03:33.000Z</time>
      </trkpt>
      <trkpt lat="43.57681" lon="2.92073">
        <ele>476</ele>
        <time>2017-04-16T03:03:35.000Z</time>
      </trkpt>
      <trkpt lat="43.57683" lon="2.9207">
        <ele>476.4</ele>
        <time>2017-04-16T03:03:37.000Z</time>
      </trkpt>
      <trkpt lat="43.57683" lon="2.92069">
        <ele>476.6</ele>
        <time>2017-04-16T03:03:38.000Z</time>
      </trkpt>
      <trkpt lat="43.57686" lon="2.92063">
        <ele>477.2</ele>
        <time>2017-04-16T03:03:44.000Z</time>
      </trkpt>
      <trkpt lat="43.5769" lon="2.92057">
        <ele>477.8</ele>
        <time>2017-04-16T03:03:50.000Z</time>
      </trkpt>
      <trkpt lat="43.57691" lon="2.92056">
        <ele>478.2</ele>
        <time>2017-04-16T03:03:52.000Z</time>
      </trkpt>
      <trkpt lat="43.57693" lon="2.92055">
        <ele>478.6</ele>
        <time>2017-04-16T03:03:54.000Z</time>
      </trkpt>
      <trkpt lat="43.57694" lon="2.92054">
        <ele>479</ele>
        <time>2017-04-16T03:03:56.000Z</time>
      </trkpt>
      <trkpt lat="43.57695" lon="2.92052">
        <ele>479.2</ele>
        <time>2017-04-16T03:03:58.000Z</time>
      </trkpt>
      <trkpt lat="43.57695" lon="2.92047">
        <ele>479.6</ele>
        <time>2017-04-16T03:04:01.000Z</time>
      </trkpt>
      <trkpt lat="43.57696" lon="2.92045">
        <ele>480.2</ele>
        <time>2017-04-16T03:04:03.000Z</time>
      </trkpt>
      <trkpt lat="43.57697" lon="2.92043">
        <ele>480.6</ele>
        <time>2017-04-16T03:04:05.000Z</time>
      </trkpt>
      <trkpt lat="43.57697" lon="2.92041">
        <ele>481</ele>
        <time>2017-04-16T03:04:07.000Z</time>
      </trkpt>
      <trkpt lat="43.57699" lon="2.9204">
        <ele>481.2</ele>
        <time>2017-04-16T03:04:09.000Z</time>
      </trkpt>
      <trkpt lat="43.57699" lon="2.92039">
        <ele>481.6</ele>
        <time>2017-04-16T03:04:10.000Z</time>
      </trkpt>
      <trkpt lat="43.57701" lon="2.92039">
        <ele>482.2</ele>
        <time>2017-04-16T03:04:12.000Z</time>
      </trkpt>
      <trkpt lat="43.57702" lon="2.92039">
        <ele>482.6</ele>
        <time>2017-04-16T03:04:14.000Z</time>
      </trkpt>
      <trkpt lat="43.57703" lon="2.92037">
        <ele>483</ele>
        <time>2017-04-16T03:04:16.000Z</time>
      </trkpt>
      <trkpt lat="43.57704" lon="2.92035">
        <ele>483.6</ele>
        <time>2017-04-16T03:04:18.000Z</time>
      </trkpt>
      <trkpt lat="43.57705" lon="2.92033">
        <ele>484.2</ele>
        <time>2017-04-16T03:04:20.000Z</time>
      </trkpt>
      <trkpt lat="43.57705" lon="2.92031">
        <ele>484.6</ele>
        <time>2017-04-16T03:04:22.000Z</time>
      </trkpt>
      <trkpt lat="43.57705" lon="2.92029">
        <ele>485</ele>
        <time>2017-04-16T03:04:24.000Z</time>
      </trkpt>
      <trkpt lat="43.57705" lon="2.92026">
        <ele>485.4</ele>
        <time>2017-04-16T03:04:26.000Z</time>
      </trkpt>
      <trkpt lat="43.57706" lon="2.92023">
        <ele>486</ele>
        <time>2017-04-16T03:04:29.000Z</time>
      </trkpt>
      <trkpt lat="43.57707" lon="2.92021">
        <ele>486.4</ele>
        <time>2017-04-16T03:04:31.000Z</time>
      </trkpt>
      <trkpt lat="43.57708" lon="2.92019">
        <ele>486.8</ele>
        <time>2017-04-16T03:04:33.000Z</time>
      </trkpt>
      <trkpt lat="43.5771" lon="2.92018">
        <ele>487.2</ele>
        <time>2017-04-16T03:04:35.000Z</time>
      </trkpt>
      <trkpt lat="43.57713" lon="2.92015">
        <ele>487.6</ele>
        <time>2017-04-16T03:04:37.000Z</time>
      </trkpt>
      <trkpt lat="43.57716" lon="2.92013">
        <ele>487.8</ele>
        <time>2017-04-16T03:04:39.000Z</time>
      </trkpt>
      <trkpt lat="43.57719" lon="2.92005">
        <ele>488.4</ele>
        <time>2017-04-16T03:04:45.000Z</time>
      </trkpt>
      <trkpt lat="43.5772" lon="2.92003">
        <ele>489</ele>
        <time>2017-04-16T03:04:47.000Z</time>
      </trkpt>
      <trkpt lat="43.5772" lon="2.92002">
        <ele>489.2</ele>
        <time>2017-04-16T03:04:48.000Z</time>
      </trkpt>
      <trkpt lat="43.57721" lon="2.92">
        <ele>489.4</ele>
        <time>2017-04-16T03:04:50.000Z</time>
      </trkpt>
      <trkpt lat="43.57721" lon="2.91999">
        <ele>489.6</ele>
        <time>2017-04-16T03:04:51.000Z</time>
      </trkpt>
      <trkpt lat="43.57722" lon="2.91997">
        <ele>489.8</ele>
        <time>2017-04-16T03:04:53.000Z</time>
      </trkpt>
      <trkpt lat="43.57722" lon="2.91988">
        <ele>490.4</ele>
        <time>2017-04-16T03:04:59.000Z</time>
      </trkpt>
      <trkpt lat="43.57724" lon="2.91984">
        <ele>490.8</ele>
        <time>2017-04-16T03:05:02.000Z</time>
      </trkpt>
      <trkpt lat="43.57724" lon="2.91983">
        <ele>491</ele>
        <time>2017-04-16T03:05:03.000Z</time>
      </trkpt>
      <trkpt lat="43.57725" lon="2.91977">
        <ele>491.6</ele>
        <time>2017-04-16T03:05:06.000Z</time>
      </trkpt>
      <trkpt lat="43.57724" lon="2.91972">
        <ele>491.8</ele>
        <time>2017-04-16T03:05:08.000Z</time>
      </trkpt>
      <trkpt lat="43.57725" lon="2.91972">
        <ele>492</ele>
        <time>2017-04-16T03:05:09.000Z</time>
      </trkpt>
      <trkpt lat="43.57725" lon="2.91971">
        <ele>492</ele>
        <time>2017-04-16T03:05:10.000Z</time>
      </trkpt>
      <trkpt lat="43.57727" lon="2.91968">
        <ele>492.6</ele>
        <time>2017-04-16T03:05:13.000Z</time>
      </trkpt>
      <trkpt lat="43.57729" lon="2.91966">
        <ele>493</ele>
        <time>2017-04-16T03:05:15.000Z</time>
      </trkpt>
      <trkpt lat="43.57729" lon="2.91964">
        <ele>493.4</ele>
        <time>2017-04-16T03:05:17.000Z</time>
      </trkpt>
      <trkpt lat="43.5773" lon="2.91964">
        <ele>493.6</ele>
        <time>2017-04-16T03:05:18.000Z</time>
      </trkpt>
      <trkpt lat="43.57731" lon="2.91964">
        <ele>493.8</ele>
        <time>2017-04-16T03:05:19.000Z</time>
      </trkpt>
      <trkpt lat="43.57733" lon="2.91963">
        <ele>494</ele>
        <time>2017-04-16T03:05:21.000Z</time>
      </trkpt>
      <trkpt lat="43.57735" lon="2.91961">
        <ele>494.6</ele>
        <time>2017-04-16T03:05:24.000Z</time>
      </trkpt>
      <trkpt lat="43.57735" lon="2.91959">
        <ele>495</ele>
        <time>2017-04-16T03:05:26.000Z</time>
      </trkpt>
      <trkpt lat="43.57735" lon="2.91957">
        <ele>495.2</ele>
        <time>2017-04-16T03:05:27.000Z</time>
      </trkpt>
      <trkpt lat="43.57738" lon="2.91953">
        <ele>495.8</ele>
        <time>2017-04-16T03:05:30.000Z</time>
      </trkpt>
      <trkpt lat="43.57738" lon="2.91951">
        <ele>496</ele>
        <time>2017-04-16T03:05:31.000Z</time>
      </trkpt>
      <trkpt lat="43.57738" lon="2.91949">
        <ele>496.2</ele>
        <time>2017-04-16T03:05:32.000Z</time>
      </trkpt>
      <trkpt lat="43.57739" lon="2.91946">
        <ele>496.4</ele>
        <time>2017-04-16T03:05:35.000Z</time>
      </trkpt>
      <trkpt lat="43.5774" lon="2.91942">
        <ele>496.6</ele>
        <time>2017-04-16T03:05:38.000Z</time>
      </trkpt>
      <trkpt lat="43.57741" lon="2.9194">
        <ele>497</ele>
        <time>2017-04-16T03:05:40.000Z</time>
      </trkpt>
      <trkpt lat="43.57741" lon="2.91938">
        <ele>497.4</ele>
        <time>2017-04-16T03:05:42.000Z</time>
      </trkpt>
      <trkpt lat="43.57741" lon="2.91934">
        <ele>497.8</ele>
        <time>2017-04-16T03:05:44.000Z</time>
      </trkpt>
      <trkpt lat="43.57742" lon="2.91931">
        <ele>498</ele>
        <time>2017-04-16T03:05:46.000Z</time>
      </trkpt>
      <trkpt lat="43.57743" lon="2.91928">
        <ele>498.4</ele>
        <time>2017-04-16T03:05:48.000Z</time>
      </trkpt>
      <trkpt lat="43.57745" lon="2.91921">
        <ele>499</ele>
        <time>2017-04-16T03:05:54.000Z</time>
      </trkpt>
      <trkpt lat="43.57746" lon="2.9192">
        <ele>499.4</ele>
        <time>2017-04-16T03:05:56.000Z</time>
      </trkpt>
      <trkpt lat="43.57747" lon="2.91918">
        <ele>499.8</ele>
        <time>2017-04-16T03:05:58.000Z</time>
      </trkpt>
      <trkpt lat="43.57748" lon="2.91916">
        <ele>500.2</ele>
        <time>2017-04-16T03:06:00.000Z</time>
      </trkpt>
      <trkpt lat="43.5775" lon="2.91914">
        <ele>500.4</ele>
        <time>2017-04-16T03:06:02.000Z</time>
      </trkpt>
      <trkpt lat="43.57756" lon="2.91904">
        <ele>501</ele>
        <time>2017-04-16T03:06:10.000Z</time>
      </trkpt>
      <trkpt lat="43.57757" lon="2.91902">
        <ele>501</ele>
        <time>2017-04-16T03:06:11.000Z</time>
      </trkpt>
      <trkpt lat="43.57758" lon="2.91898">
        <ele>501.8</ele>
        <time>2017-04-16T03:06:14.000Z</time>
      </trkpt>
      <trkpt lat="43.57758" lon="2.91896">
        <ele>502</ele>
        <time>2017-04-16T03:06:16.000Z</time>
      </trkpt>
      <trkpt lat="43.57759" lon="2.91894">
        <ele>502.4</ele>
        <time>2017-04-16T03:06:18.000Z</time>
      </trkpt>
      <trkpt lat="43.57759" lon="2.91893">
        <ele>502.6</ele>
        <time>2017-04-16T03:06:20.000Z</time>
      </trkpt>
      <trkpt lat="43.5776" lon="2.91889">
        <ele>503.2</ele>
        <time>2017-04-16T03:06:24.000Z</time>
      </trkpt>
      <trkpt lat="43.5776" lon="2.91887">
        <ele>503.6</ele>
        <time>2017-04-16T03:06:26.000Z</time>
      </trkpt>
      <trkpt lat="43.57761" lon="2.91885">
        <ele>504</ele>
        <time>2017-04-16T03:06:28.000Z</time>
      </trkpt>
      <trkpt lat="43.57762" lon="2.91884">
        <ele>504.4</ele>
        <time>2017-04-16T03:06:30.000Z</time>
      </trkpt>
      <trkpt lat="43.57763" lon="2.91882">
        <ele>504.6</ele>
        <time>2017-04-16T03:06:32.000Z</time>
      </trkpt>
      <trkpt lat="43.57764" lon="2.91879">
        <ele>505</ele>
        <time>2017-04-16T03:06:34.000Z</time>
      </trkpt>
      <trkpt lat="43.57765" lon="2.91876">
        <ele>505.6</ele>
        <time>2017-04-16T03:06:36.000Z</time>
      </trkpt>
      <trkpt lat="43.57766" lon="2.91873">
        <ele>506</ele>
        <time>2017-04-16T03:06:38.000Z</time>
      </trkpt>
      <trkpt lat="43.57768" lon="2.91872">
        <ele>506.4</ele>
        <time>2017-04-16T03:06:40.000Z</time>
      </trkpt>
      <trkpt lat="43.57769" lon="2.91871">
        <ele>506.6</ele>
        <time>2017-04-16T03:06:42.000Z</time>
      </trkpt>
      <trkpt lat="43.5777" lon="2.91871">
        <ele>506.8</ele>
        <time>2017-04-16T03:06:43.000Z</time>
      </trkpt>
      <trkpt lat="43.57776" lon="2.91866">
        <ele>507.4</ele>
        <time>2017-04-16T03:06:50.000Z</time>
      </trkpt>
      <trkpt lat="43.57777" lon="2.91865">
        <ele>507.6</ele>
        <time>2017-04-16T03:06:51.000Z</time>
      </trkpt>
      <trkpt lat="43.57778" lon="2.91864">
        <ele>508</ele>
        <time>2017-04-16T03:06:53.000Z</time>
      </trkpt>
      <trkpt lat="43.5778" lon="2.91862">
        <ele>508.4</ele>
        <time>2017-04-16T03:06:55.000Z</time>
      </trkpt>
      <trkpt lat="43.5778" lon="2.9186">
        <ele>508.8</ele>
        <time>2017-04-16T03:06:57.000Z</time>
      </trkpt>
      <trkpt lat="43.5778" lon="2.91858">
        <ele>509</ele>
        <time>2017-04-16T03:06:59.000Z</time>
      </trkpt>
      <trkpt lat="43.57783" lon="2.91851">
        <ele>509.6</ele>
        <time>2017-04-16T03:07:06.000Z</time>
      </trkpt>
      <trkpt lat="43.57783" lon="2.9185">
        <ele>509.8</ele>
        <time>2017-04-16T03:07:07.000Z</time>
      </trkpt>
      <trkpt lat="43.57784" lon="2.91847">
        <ele>510.2</ele>
        <time>2017-04-16T03:07:09.000Z</time>
      </trkpt>
      <trkpt lat="43.57784" lon="2.91844">
        <ele>510.6</ele>
        <time>2017-04-16T03:07:11.000Z</time>
      </trkpt>
      <trkpt lat="43.57784" lon="2.91842">
        <ele>510.8</ele>
        <time>2017-04-16T03:07:13.000Z</time>
      </trkpt>
      <trkpt lat="43.57785" lon="2.9184">
        <ele>511</ele>
        <time>2017-04-16T03:07:15.000Z</time>
      </trkpt>
      <trkpt lat="43.57785" lon="2.91839">
        <ele>511.4</ele>
        <time>2017-04-16T03:07:16.000Z</time>
      </trkpt>
      <trkpt lat="43.57785" lon="2.91837">
        <ele>512</ele>
        <time>2017-04-16T03:07:18.000Z</time>
      </trkpt>
      <trkpt lat="43.57786" lon="2.91834">
        <ele>512.4</ele>
        <time>2017-04-16T03:07:20.000Z</time>
      </trkpt>
      <trkpt lat="43.57786" lon="2.91831">
        <ele>512.8</ele>
        <time>2017-04-16T03:07:22.000Z</time>
      </trkpt>
      <trkpt lat="43.57786" lon="2.9183">
        <ele>512.8</ele>
        <time>2017-04-16T03:07:23.000Z</time>
      </trkpt>
      <trkpt lat="43.57786" lon="2.91826">
        <ele>513.6</ele>
        <time>2017-04-16T03:07:27.000Z</time>
      </trkpt>
      <trkpt lat="43.57787" lon="2.91824">
        <ele>514.2</ele>
        <time>2017-04-16T03:07:29.000Z</time>
      </trkpt>
      <trkpt lat="43.57787" lon="2.91823">
        <ele>514.6</ele>
        <time>2017-04-16T03:07:31.000Z</time>
      </trkpt>
      <trkpt lat="43.57788" lon="2.91821">
        <ele>515</ele>
        <time>2017-04-16T03:07:33.000Z</time>
      </trkpt>
      <trkpt lat="43.5779" lon="2.91818">
        <ele>515.4</ele>
        <time>2017-04-16T03:07:35.000Z</time>
      </trkpt>
      <trkpt lat="43.57791" lon="2.91815">
        <ele>515.8</ele>
        <time>2017-04-16T03:07:38.000Z</time>
      </trkpt>
      <trkpt lat="43.57792" lon="2.91813">
        <ele>516.4</ele>
        <time>2017-04-16T03:07:40.000Z</time>
      </trkpt>
      <trkpt lat="43.57793" lon="2.91811">
        <ele>516.8</ele>
        <time>2017-04-16T03:07:42.000Z</time>
      </trkpt>
      <trkpt lat="43.57795" lon="2.9181">
        <ele>517.2</ele>
        <time>2017-04-16T03:07:44.000Z</time>
      </trkpt>
      <trkpt lat="43.57797" lon="2.91809">
        <ele>517.6</ele>
        <time>2017-04-16T03:07:46.000Z</time>
      </trkpt>
      <trkpt lat="43.57798" lon="2.91808">
        <ele>518</ele>
        <time>2017-04-16T03:07:48.000Z</time>
      </trkpt>
      <trkpt lat="43.57799" lon="2.91806">
        <ele>518.6</ele>
        <time>2017-04-16T03:07:50.000Z</time>
      </trkpt>
      <trkpt lat="43.57799" lon="2.91805">
        <ele>519</ele>
        <time>2017-04-16T03:07:52.000Z</time>
      </trkpt>
      <trkpt lat="43.578" lon="2.91803">
        <ele>519.2</ele>
        <time>2017-04-16T03:07:54.000Z</time>
      </trkpt>
      <trkpt lat="43.57801" lon="2.91801">
        <ele>519.6</ele>
        <time>2017-04-16T03:07:56.000Z</time>
      </trkpt>
      <trkpt lat="43.57802" lon="2.91796">
        <ele>520.2</ele>
        <time>2017-04-16T03:07:59.000Z</time>
      </trkpt>
      <trkpt lat="43.57803" lon="2.91795">
        <ele>520.6</ele>
        <time>2017-04-16T03:08:01.000Z</time>
      </trkpt>
      <trkpt lat="43.57804" lon="2.91793">
        <ele>521</ele>
        <time>2017-04-16T03:08:03.000Z</time>
      </trkpt>
      <trkpt lat="43.57804" lon="2.91791">
        <ele>521.4</ele>
        <time>2017-04-16T03:08:05.000Z</time>
      </trkpt>
      <trkpt lat="43.57804" lon="2.91789">
        <ele>521.6</ele>
        <time>2017-04-16T03:08:07.000Z</time>
      </trkpt>
      <trkpt lat="43.57804" lon="2.91789">
        <ele>521.8</ele>
        <time>2017-04-16T03:08:08.000Z</time>
      </trkpt>
      <trkpt lat="43.57805" lon="2.91787">
        <ele>522.6</ele>
        <time>2017-04-16T03:08:11.000Z</time>
      </trkpt>
      <trkpt lat="43.57806" lon="2.91786">
        <ele>523</ele>
        <time>2017-04-16T03:08:12.000Z</time>
      </trkpt>
      <trkpt lat="43.57806" lon="2.91785">
        <ele>523.2</ele>
        <time>2017-04-16T03:08:13.000Z</time>
      </trkpt>
      <trkpt lat="43.57806" lon="2.91784">
        <ele>523.4</ele>
        <time>2017-04-16T03:08:14.000Z</time>
      </trkpt>
      <trkpt lat="43.57807" lon="2.91783">
        <ele>523.6</ele>
        <time>2017-04-16T03:08:16.000Z</time>
      </trkpt>
      <trkpt lat="43.57808" lon="2.91782">
        <ele>524</ele>
        <time>2017-04-16T03:08:17.000Z</time>
      </trkpt>
      <trkpt lat="43.57809" lon="2.91781">
        <ele>524.6</ele>
        <time>2017-04-16T03:08:19.000Z</time>
      </trkpt>
      <trkpt lat="43.57811" lon="2.91778">
        <ele>525</ele>
        <time>2017-04-16T03:08:21.000Z</time>
      </trkpt>
      <trkpt lat="43.57813" lon="2.91776">
        <ele>525.4</ele>
        <time>2017-04-16T03:08:23.000Z</time>
      </trkpt>
      <trkpt lat="43.57815" lon="2.91774">
        <ele>525.8</ele>
        <time>2017-04-16T03:08:25.000Z</time>
      </trkpt>
      <trkpt lat="43.57816" lon="2.91772">
        <ele>526.2</ele>
        <time>2017-04-16T03:08:27.000Z</time>
      </trkpt>
      <trkpt lat="43.57817" lon="2.9177">
        <ele>526.8</ele>
        <time>2017-04-16T03:08:29.000Z</time>
      </trkpt>
      <trkpt lat="43.57818" lon="2.91769">
        <ele>527.2</ele>
        <time>2017-04-16T03:08:31.000Z</time>
      </trkpt>
      <trkpt lat="43.57819" lon="2.91768">
        <ele>527.4</ele>
        <time>2017-04-16T03:08:32.000Z</time>
      </trkpt>
      <trkpt lat="43.5782" lon="2.91768">
        <ele>527.6</ele>
        <time>2017-04-16T03:08:33.000Z</time>
      </trkpt>
      <trkpt lat="43.5782" lon="2.91766">
        <ele>527.8</ele>
        <time>2017-04-16T03:08:35.000Z</time>
      </trkpt>
      <trkpt lat="43.57825" lon="2.91762">
        <ele>528.6</ele>
        <time>2017-04-16T03:08:41.000Z</time>
      </trkpt>
      <trkpt lat="43.57825" lon="2.91761">
        <ele>529.2</ele>
        <time>2017-04-16T03:08:43.000Z</time>
      </trkpt>
      <trkpt lat="43.57826" lon="2.91759">
        <ele>529.6</ele>
        <time>2017-04-16T03:08:45.000Z</time>
      </trkpt>
      <trkpt lat="43.57826" lon="2.91757">
        <ele>529.8</ele>
        <time>2017-04-16T03:08:47.000Z</time>
      </trkpt>
      <trkpt lat="43.57826" lon="2.91757">
        <ele>530</ele>
        <time>2017-04-16T03:08:49.000Z</time>
      </trkpt>
      <trkpt lat="43.57826" lon="2.91755">
        <ele>530.4</ele>
        <time>2017-04-16T03:08:51.000Z</time>
      </trkpt>
      <trkpt lat="43.57826" lon="2.91754">
        <ele>530.6</ele>
        <time>2017-04-16T03:08:52.000Z</time>
      </trkpt>
      <trkpt lat="43.57828" lon="2.91753">
        <ele>531.2</ele>
        <time>2017-04-16T03:08:54.000Z</time>
      </trkpt>
      <trkpt lat="43.5783" lon="2.91751">
        <ele>531.6</ele>
        <time>2017-04-16T03:08:56.000Z</time>
      </trkpt>
      <trkpt lat="43.57831" lon="2.91751">
        <ele>531.8</ele>
        <time>2017-04-16T03:08:58.000Z</time>
      </trkpt>
      <trkpt lat="43.57833" lon="2.91749">
        <ele>532.2</ele>
        <time>2017-04-16T03:09:00.000Z</time>
      </trkpt>
      <trkpt lat="43.57835" lon="2.91747">
        <ele>532.6</ele>
        <time>2017-04-16T03:09:03.000Z</time>
      </trkpt>
      <trkpt lat="43.57837" lon="2.91746">
        <ele>533.2</ele>
        <time>2017-04-16T03:09:05.000Z</time>
      </trkpt>
      <trkpt lat="43.57838" lon="2.91744">
        <ele>533.6</ele>
        <time>2017-04-16T03:09:07.000Z</time>
      </trkpt>
      <trkpt lat="43.57839" lon="2.91743">
        <ele>534</ele>
        <time>2017-04-16T03:09:09.000Z</time>
      </trkpt>
      <trkpt lat="43.5784" lon="2.91741">
        <ele>534.2</ele>
        <time>2017-04-16T03:09:11.000Z</time>
      </trkpt>
      <trkpt lat="43.5784" lon="2.91739">
        <ele>534.8</ele>
        <time>2017-04-16T03:09:13.000Z</time>
      </trkpt>
      <trkpt lat="43.57841" lon="2.91737">
        <ele>535.4</ele>
        <time>2017-04-16T03:09:15.000Z</time>
      </trkpt>
      <trkpt lat="43.57842" lon="2.91736">
        <ele>535.8</ele>
        <time>2017-04-16T03:09:17.000Z</time>
      </trkpt>
      <trkpt lat="43.57844" lon="2.91734">
        <ele>536.2</ele>
        <time>2017-04-16T03:09:19.000Z</time>
      </trkpt>
      <trkpt lat="43.57846" lon="2.91734">
        <ele>536.4</ele>
        <time>2017-04-16T03:09:21.000Z</time>
      </trkpt>
      <trkpt lat="43.57847" lon="2.91734">
        <ele>537</ele>
        <time>2017-04-16T03:09:23.000Z</time>
      </trkpt>
      <trkpt lat="43.57848" lon="2.91733">
        <ele>537.4</ele>
        <time>2017-04-16T03:09:25.000Z</time>
      </trkpt>
      <trkpt lat="43.57849" lon="2.91731">
        <ele>537.8</ele>
        <time>2017-04-16T03:09:27.000Z</time>
      </trkpt>
      <trkpt lat="43.5785" lon="2.91729">
        <ele>538.2</ele>
        <time>2017-04-16T03:09:29.000Z</time>
      </trkpt>
      <trkpt lat="43.57851" lon="2.91727">
        <ele>538.6</ele>
        <time>2017-04-16T03:09:31.000Z</time>
      </trkpt>
      <trkpt lat="43.57853" lon="2.91721">
        <ele>539.4</ele>
        <time>2017-04-16T03:09:37.000Z</time>
      </trkpt>
      <trkpt lat="43.57855" lon="2.9172">
        <ele>539.8</ele>
        <time>2017-04-16T03:09:39.000Z</time>
      </trkpt>
      <trkpt lat="43.57856" lon="2.91719">
        <ele>540.2</ele>
        <time>2017-04-16T03:09:41.000Z</time>
      </trkpt>
      <trkpt lat="43.57856" lon="2.91717">
        <ele>540.6</ele>
        <time>2017-04-16T03:09:43.000Z</time>
      </trkpt>
      <trkpt lat="43.57857" lon="2.91716">
        <ele>540.8</ele>
        <time>2017-04-16T03:09:45.000Z</time>
      </trkpt>
      <trkpt lat="43.57858" lon="2.91715">
        <ele>541.2</ele>
        <time>2017-04-16T03:09:48.000Z</time>
      </trkpt>
      <trkpt lat="43.57859" lon="2.91714">
        <ele>541.6</ele>
        <time>2017-04-16T03:09:50.000Z</time>
      </trkpt>
      <trkpt lat="43.57859" lon="2.91713">
        <ele>541.8</ele>
        <time>2017-04-16T03:09:51.000Z</time>
      </trkpt>
      <trkpt lat="43.5786" lon="2.91711">
        <ele>542.2</ele>
        <time>2017-04-16T03:09:53.000Z</time>
      </trkpt>
      <trkpt lat="43.57862" lon="2.91709">
        <ele>542.6</ele>
        <time>2017-04-16T03:09:55.000Z</time>
      </trkpt>
      <trkpt lat="43.57862" lon="2.91709">
        <ele>543</ele>
        <time>2017-04-16T03:09:56.000Z</time>
      </trkpt>
      <trkpt lat="43.57863" lon="2.91707">
        <ele>543.6</ele>
        <time>2017-04-16T03:09:58.000Z</time>
      </trkpt>
      <trkpt lat="43.57863" lon="2.91705">
        <ele>544</ele>
        <time>2017-04-16T03:10:00.000Z</time>
      </trkpt>
      <trkpt lat="43.57864" lon="2.91704">
        <ele>544.4</ele>
        <time>2017-04-16T03:10:02.000Z</time>
      </trkpt>
      <trkpt lat="43.57865" lon="2.91702">
        <ele>544.8</ele>
        <time>2017-04-16T03:10:04.000Z</time>
      </trkpt>
      <trkpt lat="43.57871" lon="2.91697">
        <ele>545.8</ele>
        <time>2017-04-16T03:10:12.000Z</time>
      </trkpt>
      <trkpt lat="43.57872" lon="2.91695">
        <ele>546.2</ele>
        <time>2017-04-16T03:10:14.000Z</time>
      </trkpt>
      <trkpt lat="43.57872" lon="2.91693">
        <ele>546.6</ele>
        <time>2017-04-16T03:10:16.000Z</time>
      </trkpt>
      <trkpt lat="43.57874" lon="2.91692">
        <ele>547</ele>
        <time>2017-04-16T03:10:18.000Z</time>
      </trkpt>
      <trkpt lat="43.57876" lon="2.91691">
        <ele>547.2</ele>
        <time>2017-04-16T03:10:20.000Z</time>
      </trkpt>
      <trkpt lat="43.5788" lon="2.91687">
        <ele>548</ele>
        <time>2017-04-16T03:10:26.000Z</time>
      </trkpt>
      <trkpt lat="43.57881" lon="2.91685">
        <ele>548.4</ele>
        <time>2017-04-16T03:10:28.000Z</time>
      </trkpt>
      <trkpt lat="43.57882" lon="2.91684">
        <ele>548.8</ele>
        <time>2017-04-16T03:10:30.000Z</time>
      </trkpt>
      <trkpt lat="43.57884" lon="2.91683">
        <ele>549</ele>
        <time>2017-04-16T03:10:32.000Z</time>
      </trkpt>
      <trkpt lat="43.57886" lon="2.91682">
        <ele>549.2</ele>
        <time>2017-04-16T03:10:34.000Z</time>
      </trkpt>
      <trkpt lat="43.57887" lon="2.91681">
        <ele>549.4</ele>
        <time>2017-04-16T03:10:36.000Z</time>
      </trkpt>
      <trkpt lat="43.57889" lon="2.9168">
        <ele>550.2</ele>
        <time>2017-04-16T03:10:39.000Z</time>
      </trkpt>
      <trkpt lat="43.57889" lon="2.91678">
        <ele>550.6</ele>
        <time>2017-04-16T03:10:40.000Z</time>
      </trkpt>
      <trkpt lat="43.57889" lon="2.91677">
        <ele>550.6</ele>
        <time>2017-04-16T03:10:41.000Z</time>
      </trkpt>
      <trkpt lat="43.5789" lon="2.91676">
        <ele>550.8</ele>
        <time>2017-04-16T03:10:42.000Z</time>
      </trkpt>
      <trkpt lat="43.57891" lon="2.91674">
        <ele>551.2</ele>
        <time>2017-04-16T03:10:44.000Z</time>
      </trkpt>
      <trkpt lat="43.57892" lon="2.91672">
        <ele>551.6</ele>
        <time>2017-04-16T03:10:46.000Z</time>
      </trkpt>
      <trkpt lat="43.57893" lon="2.91671">
        <ele>552.2</ele>
        <time>2017-04-16T03:10:48.000Z</time>
      </trkpt>
      <trkpt lat="43.57894" lon="2.91671">
        <ele>552.6</ele>
        <time>2017-04-16T03:10:50.000Z</time>
      </trkpt>
      <trkpt lat="43.57895" lon="2.9167">
        <ele>553</ele>
        <time>2017-04-16T03:10:52.000Z</time>
      </trkpt>
      <trkpt lat="43.57897" lon="2.91669">
        <ele>553.2</ele>
        <time>2017-04-16T03:10:54.000Z</time>
      </trkpt>
      <trkpt lat="43.57898" lon="2.91667">
        <ele>553.8</ele>
        <time>2017-04-16T03:10:56.000Z</time>
      </trkpt>
      <trkpt lat="43.57898" lon="2.91665">
        <ele>554.2</ele>
        <time>2017-04-16T03:10:58.000Z</time>
      </trkpt>
      <trkpt lat="43.57899" lon="2.91664">
        <ele>554.8</ele>
        <time>2017-04-16T03:11:00.000Z</time>
      </trkpt>
      <trkpt lat="43.579" lon="2.91662">
        <ele>555.2</ele>
        <time>2017-04-16T03:11:02.000Z</time>
      </trkpt>
      <trkpt lat="43.57901" lon="2.9166">
        <ele>555.4</ele>
        <time>2017-04-16T03:11:04.000Z</time>
      </trkpt>
      <trkpt lat="43.57903" lon="2.91657">
        <ele>555.8</ele>
        <time>2017-04-16T03:11:08.000Z</time>
      </trkpt>
      <trkpt lat="43.57903" lon="2.91656">
        <ele>556</ele>
        <time>2017-04-16T03:11:10.000Z</time>
      </trkpt>
      <trkpt lat="43.57903" lon="2.91656">
        <ele>556.4</ele>
        <time>2017-04-16T03:11:11.000Z</time>
      </trkpt>
      <trkpt lat="43.57904" lon="2.91655">
        <ele>556.8</ele>
        <time>2017-04-16T03:11:13.000Z</time>
      </trkpt>
      <trkpt lat="43.57906" lon="2.91655">
        <ele>557.2</ele>
        <time>2017-04-16T03:11:15.000Z</time>
      </trkpt>
      <trkpt lat="43.57908" lon="2.91655">
        <ele>557.6</ele>
        <time>2017-04-16T03:11:17.000Z</time>
      </trkpt>
      <trkpt lat="43.57909" lon="2.91656">
        <ele>557.8</ele>
        <time>2017-04-16T03:11:19.000Z</time>
      </trkpt>
      <trkpt lat="43.57919" lon="2.91665">
        <ele>558.8</ele>
        <time>2017-04-16T03:11:31.000Z</time>
      </trkpt>
      <trkpt lat="43.5792" lon="2.91675">
        <ele>559</ele>
        <time>2017-04-16T03:11:37.000Z</time>
      </trkpt>
      <trkpt lat="43.57922" lon="2.91676">
        <ele>559.4</ele>
        <time>2017-04-16T03:11:39.000Z</time>
      </trkpt>
      <trkpt lat="43.57924" lon="2.91678">
        <ele>559.8</ele>
        <time>2017-04-16T03:11:41.000Z</time>
      </trkpt>
      <trkpt lat="43.57926" lon="2.91679">
        <ele>560</ele>
        <time>2017-04-16T03:11:43.000Z</time>
      </trkpt>
      <trkpt lat="43.57928" lon="2.9168">
        <ele>560.2</ele>
        <time>2017-04-16T03:11:45.000Z</time>
      </trkpt>
      <trkpt lat="43.5793" lon="2.91681">
        <ele>560.6</ele>
        <time>2017-04-16T03:11:47.000Z</time>
      </trkpt>
      <trkpt lat="43.57931" lon="2.91683">
        <ele>561.2</ele>
        <time>2017-04-16T03:11:49.000Z</time>
      </trkpt>
      <trkpt lat="43.57933" lon="2.91684">
        <ele>561.6</ele>
        <time>2017-04-16T03:11:51.000Z</time>
      </trkpt>
      <trkpt lat="43.57933" lon="2.91686">
        <ele>561.8</ele>
        <time>2017-04-16T03:11:53.000Z</time>
      </trkpt>
      <trkpt lat="43.57934" lon="2.91688">
        <ele>562.2</ele>
        <time>2017-04-16T03:11:55.000Z</time>
      </trkpt>
      <trkpt lat="43.57934" lon="2.91689">
        <ele>562.4</ele>
        <time>2017-04-16T03:11:56.000Z</time>
      </trkpt>
      <trkpt lat="43.57933" lon="2.91691">
        <ele>563</ele>
        <time>2017-04-16T03:11:58.000Z</time>
      </trkpt>
      <trkpt lat="43.57934" lon="2.91692">
        <ele>563.4</ele>
        <time>2017-04-16T03:12:00.000Z</time>
      </trkpt>
      <trkpt lat="43.57934" lon="2.91694">
        <ele>563.8</ele>
        <time>2017-04-16T03:12:02.000Z</time>
      </trkpt>
      <trkpt lat="43.57934" lon="2.91697">
        <ele>564</ele>
        <time>2017-04-16T03:12:04.000Z</time>
      </trkpt>
      <trkpt lat="43.57936" lon="2.91701">
        <ele>564.6</ele>
        <time>2017-04-16T03:12:08.000Z</time>
      </trkpt>
      <trkpt lat="43.57938" lon="2.91702">
        <ele>565.2</ele>
        <time>2017-04-16T03:12:10.000Z</time>
      </trkpt>
      <trkpt lat="43.5794" lon="2.91704">
        <ele>565.6</ele>
        <time>2017-04-16T03:12:12.000Z</time>
      </trkpt>
      <trkpt lat="43.57942" lon="2.91705">
        <ele>566</ele>
        <time>2017-04-16T03:12:14.000Z</time>
      </trkpt>
      <trkpt lat="43.57944" lon="2.91707">
        <ele>566.2</ele>
        <time>2017-04-16T03:12:16.000Z</time>
      </trkpt>
      <trkpt lat="43.57956" lon="2.91718">
        <ele>567</ele>
        <time>2017-04-16T03:12:27.000Z</time>
      </trkpt>
      <trkpt lat="43.57959" lon="2.91722">
        <ele>567.4</ele>
        <time>2017-04-16T03:12:31.000Z</time>
      </trkpt>
      <trkpt lat="43.57959" lon="2.91725">
        <ele>567.8</ele>
        <time>2017-04-16T03:12:33.000Z</time>
      </trkpt>
      <trkpt lat="43.5796" lon="2.91727">
        <ele>568</ele>
        <time>2017-04-16T03:12:35.000Z</time>
      </trkpt>
      <trkpt lat="43.57961" lon="2.91728">
        <ele>568.4</ele>
        <time>2017-04-16T03:12:37.000Z</time>
      </trkpt>
      <trkpt lat="43.57962" lon="2.9173">
        <ele>568.6</ele>
        <time>2017-04-16T03:12:39.000Z</time>
      </trkpt>
      <trkpt lat="43.57965" lon="2.91732">
        <ele>568.8</ele>
        <time>2017-04-16T03:12:43.000Z</time>
      </trkpt>
      <trkpt lat="43.57967" lon="2.91734">
        <ele>569.2</ele>
        <time>2017-04-16T03:12:46.000Z</time>
      </trkpt>
      <trkpt lat="43.57968" lon="2.91735">
        <ele>569.4</ele>
        <time>2017-04-16T03:12:47.000Z</time>
      </trkpt>
      <trkpt lat="43.57969" lon="2.91738">
        <ele>570</ele>
        <time>2017-04-16T03:12:50.000Z</time>
      </trkpt>
      <trkpt lat="43.5797" lon="2.9174">
        <ele>570.4</ele>
        <time>2017-04-16T03:12:52.000Z</time>
      </trkpt>
      <trkpt lat="43.57972" lon="2.91743">
        <ele>570.6</ele>
        <time>2017-04-16T03:12:54.000Z</time>
      </trkpt>
      <trkpt lat="43.57972" lon="2.91746">
        <ele>571.2</ele>
        <time>2017-04-16T03:12:57.000Z</time>
      </trkpt>
      <trkpt lat="43.57973" lon="2.91748">
        <ele>571.6</ele>
        <time>2017-04-16T03:12:59.000Z</time>
      </trkpt>
      <trkpt lat="43.57973" lon="2.9175">
        <ele>572.2</ele>
        <time>2017-04-16T03:13:01.000Z</time>
      </trkpt>
      <trkpt lat="43.57974" lon="2.91751">
        <ele>572.2</ele>
        <time>2017-04-16T03:13:02.000Z</time>
      </trkpt>
      <trkpt lat="43.57975" lon="2.91755">
        <ele>572.8</ele>
        <time>2017-04-16T03:13:05.000Z</time>
      </trkpt>
      <trkpt lat="43.57978" lon="2.91759">
        <ele>573.2</ele>
        <time>2017-04-16T03:13:08.000Z</time>
      </trkpt>
      <trkpt lat="43.5798" lon="2.9176">
        <ele>573.8</ele>
        <time>2017-04-16T03:13:10.000Z</time>
      </trkpt>
      <trkpt lat="43.57982" lon="2.91763">
        <ele>574.2</ele>
        <time>2017-04-16T03:13:12.000Z</time>
      </trkpt>
      <trkpt lat="43.57983" lon="2.91765">
        <ele>574.6</ele>
        <time>2017-04-16T03:13:14.000Z</time>
      </trkpt>
      <trkpt lat="43.57984" lon="2.91766">
        <ele>574.8</ele>
        <time>2017-04-16T03:13:16.000Z</time>
      </trkpt>
      <trkpt lat="43.57986" lon="2.91767">
        <ele>575.4</ele>
        <time>2017-04-16T03:13:19.000Z</time>
      </trkpt>
      <trkpt lat="43.57987" lon="2.91767">
        <ele>575.6</ele>
        <time>2017-04-16T03:13:20.000Z</time>
      </trkpt>
      <trkpt lat="43.57987" lon="2.91767">
        <ele>575.8</ele>
        <time>2017-04-16T03:13:21.000Z</time>
      </trkpt>
      <trkpt lat="43.57988" lon="2.91769">
        <ele>576.2</ele>
        <time>2017-04-16T03:13:23.000Z</time>
      </trkpt>
      <trkpt lat="43.57988" lon="2.91771">
        <ele>576.6</ele>
        <time>2017-04-16T03:13:25.000Z</time>
      </trkpt>
      <trkpt lat="43.57988" lon="2.91773">
        <ele>576.8</ele>
        <time>2017-04-16T03:13:27.000Z</time>
      </trkpt>
      <trkpt lat="43.5799" lon="2.91773">
        <ele>577</ele>
        <time>2017-04-16T03:13:28.000Z</time>
      </trkpt>
      <trkpt lat="43.57991" lon="2.91781">
        <ele>577.6</ele>
        <time>2017-04-16T03:13:34.000Z</time>
      </trkpt>
      <trkpt lat="43.57991" lon="2.91784">
        <ele>578.2</ele>
        <time>2017-04-16T03:13:36.000Z</time>
      </trkpt>
      <trkpt lat="43.57991" lon="2.91787">
        <ele>578.4</ele>
        <time>2017-04-16T03:13:38.000Z</time>
      </trkpt>
      <trkpt lat="43.57991" lon="2.91789">
        <ele>578.8</ele>
        <time>2017-04-16T03:13:40.000Z</time>
      </trkpt>
      <trkpt lat="43.57992" lon="2.91792">
        <ele>579</ele>
        <time>2017-04-16T03:13:42.000Z</time>
      </trkpt>
      <trkpt lat="43.57994" lon="2.91797">
        <ele>579.6</ele>
        <time>2017-04-16T03:13:46.000Z</time>
      </trkpt>
      <trkpt lat="43.57997" lon="2.91798">
        <ele>580.2</ele>
        <time>2017-04-16T03:13:48.000Z</time>
      </trkpt>
      <trkpt lat="43.57998" lon="2.91797">
        <ele>580.4</ele>
        <time>2017-04-16T03:13:49.000Z</time>
      </trkpt>
      <trkpt lat="43.58" lon="2.91796">
        <ele>580.6</ele>
        <time>2017-04-16T03:13:50.000Z</time>
      </trkpt>
      <trkpt lat="43.58002" lon="2.91795">
        <ele>580.8</ele>
        <time>2017-04-16T03:13:52.000Z</time>
      </trkpt>
      <trkpt lat="43.58003" lon="2.91792">
        <ele>581</ele>
        <time>2017-04-16T03:13:54.000Z</time>
      </trkpt>
      <trkpt lat="43.58003" lon="2.91788">
        <ele>581.6</ele>
        <time>2017-04-16T03:13:57.000Z</time>
      </trkpt>
      <trkpt lat="43.58002" lon="2.91785">
        <ele>582</ele>
        <time>2017-04-16T03:13:59.000Z</time>
      </trkpt>
      <trkpt lat="43.58001" lon="2.91782">
        <ele>582.4</ele>
        <time>2017-04-16T03:14:01.000Z</time>
      </trkpt>
      <trkpt lat="43.58001" lon="2.91779">
        <ele>582.8</ele>
        <time>2017-04-16T03:14:03.000Z</time>
      </trkpt>
      <trkpt lat="43.58001" lon="2.91776">
        <ele>583.4</ele>
        <time>2017-04-16T03:14:05.000Z</time>
      </trkpt>
      <trkpt lat="43.58001" lon="2.91773">
        <ele>584</ele>
        <time>2017-04-16T03:14:07.000Z</time>
      </trkpt>
      <trkpt lat="43.58001" lon="2.91769">
        <ele>584.4</ele>
        <time>2017-04-16T03:14:09.000Z</time>
      </trkpt>
      <trkpt lat="43.58001" lon="2.91765">
        <ele>584.8</ele>
        <time>2017-04-16T03:14:11.000Z</time>
      </trkpt>
      <trkpt lat="43.58001" lon="2.91762">
        <ele>585.2</ele>
        <time>2017-04-16T03:14:13.000Z</time>
      </trkpt>
      <trkpt lat="43.57998" lon="2.91752">
        <ele>585.8</ele>
        <time>2017-04-16T03:14:20.000Z</time>
      </trkpt>
      <trkpt lat="43.57998" lon="2.91749">
        <ele>586.4</ele>
        <time>2017-04-16T03:14:25.000Z</time>
      </trkpt>
      <trkpt lat="43.57998" lon="2.91747">
        <ele>586.8</ele>
        <time>2017-04-16T03:14:27.000Z</time>
      </trkpt>
      <trkpt lat="43.57997" lon="2.91744">
        <ele>587.2</ele>
        <time>2017-04-16T03:14:29.000Z</time>
      </trkpt>
      <trkpt lat="43.57998" lon="2.91742">
        <ele>587.4</ele>
        <time>2017-04-16T03:14:31.000Z</time>
      </trkpt>
      <trkpt lat="43.57998" lon="2.91741">
        <ele>587.8</ele>
        <time>2017-04-16T03:14:32.000Z</time>
      </trkpt>
      <trkpt lat="43.57998" lon="2.9174">
        <ele>588.2</ele>
        <time>2017-04-16T03:14:34.000Z</time>
      </trkpt>
      <trkpt lat="43.57998" lon="2.91738">
        <ele>588.8</ele>
        <time>2017-04-16T03:14:36.000Z</time>
      </trkpt>
      <trkpt lat="43.57998" lon="2.91736">
        <ele>589.2</ele>
        <time>2017-04-16T03:14:38.000Z</time>
      </trkpt>
      <trkpt lat="43.57998" lon="2.91734">
        <ele>589.4</ele>
        <time>2017-04-16T03:14:40.000Z</time>
      </trkpt>
      <trkpt lat="43.57999" lon="2.9173">
        <ele>590</ele>
        <time>2017-04-16T03:14:43.000Z</time>
      </trkpt>
      <trkpt lat="43.57998" lon="2.91728">
        <ele>590.4</ele>
        <time>2017-04-16T03:14:45.000Z</time>
      </trkpt>
      <trkpt lat="43.57997" lon="2.91725">
        <ele>590.8</ele>
        <time>2017-04-16T03:14:47.000Z</time>
      </trkpt>
      <trkpt lat="43.57997" lon="2.91721">
        <ele>591.2</ele>
        <time>2017-04-16T03:14:49.000Z</time>
      </trkpt>
      <trkpt lat="43.57998" lon="2.91718">
        <ele>591.6</ele>
        <time>2017-04-16T03:14:51.000Z</time>
      </trkpt>
      <trkpt lat="43.57996" lon="2.9171">
        <ele>592.4</ele>
        <time>2017-04-16T03:14:58.000Z</time>
      </trkpt>
      <trkpt lat="43.57996" lon="2.91709">
        <ele>592.6</ele>
        <time>2017-04-16T03:14:59.000Z</time>
      </trkpt>
      <trkpt lat="43.57998" lon="2.91704">
        <ele>593.2</ele>
        <time>2017-04-16T03:15:02.000Z</time>
      </trkpt>
      <trkpt lat="43.57999" lon="2.917">
        <ele>593.4</ele>
        <time>2017-04-16T03:15:04.000Z</time>
      </trkpt>
      <trkpt lat="43.57999" lon="2.91696">
        <ele>593.8</ele>
        <time>2017-04-16T03:15:06.000Z</time>
      </trkpt>
      <trkpt lat="43.57999" lon="2.91689">
        <ele>594.2</ele>
        <time>2017-04-16T03:15:10.000Z</time>
      </trkpt>
      <trkpt lat="43.57998" lon="2.91686">
        <ele>594.8</ele>
        <time>2017-04-16T03:15:12.000Z</time>
      </trkpt>
      <trkpt lat="43.57998" lon="2.91684">
        <ele>595.2</ele>
        <time>2017-04-16T03:15:14.000Z</time>
      </trkpt>
      <trkpt lat="43.57998" lon="2.91681">
        <ele>595.4</ele>
        <time>2017-04-16T03:15:16.000Z</time>
      </trkpt>
      <trkpt lat="43.57997" lon="2.9168">
        <ele>595.6</ele>
        <time>2017-04-16T03:15:18.000Z</time>
      </trkpt>
      <trkpt lat="43.57993" lon="2.91671">
        <ele>596.6</ele>
        <time>2017-04-16T03:15:26.000Z</time>
      </trkpt>
      <trkpt lat="43.57994" lon="2.91669">
        <ele>597</ele>
        <time>2017-04-16T03:15:28.000Z</time>
      </trkpt>
      <trkpt lat="43.57994" lon="2.91667">
        <ele>597.4</ele>
        <time>2017-04-16T03:15:30.000Z</time>
      </trkpt>
      <trkpt lat="43.57994" lon="2.91665">
        <ele>597.6</ele>
        <time>2017-04-16T03:15:32.000Z</time>
      </trkpt>
      <trkpt lat="43.57994" lon="2.91664">
        <ele>598</ele>
        <time>2017-04-16T03:15:34.000Z</time>
      </trkpt>
      <trkpt lat="43.57993" lon="2.91662">
        <ele>598.6</ele>
        <time>2017-04-16T03:15:36.000Z</time>
      </trkpt>
      <trkpt lat="43.57994" lon="2.91661">
        <ele>599</ele>
        <time>2017-04-16T03:15:38.000Z</time>
      </trkpt>
      <trkpt lat="43.57994" lon="2.91659">
        <ele>599.4</ele>
        <time>2017-04-16T03:15:40.000Z</time>
      </trkpt>
      <trkpt lat="43.57994" lon="2.91658">
        <ele>599.8</ele>
        <time>2017-04-16T03:15:42.000Z</time>
      </trkpt>
      <trkpt lat="43.57994" lon="2.91655">
        <ele>600.4</ele>
        <time>2017-04-16T03:15:44.000Z</time>
      </trkpt>
      <trkpt lat="43.57995" lon="2.91653">
        <ele>601</ele>
        <time>2017-04-16T03:15:46.000Z</time>
      </trkpt>
      <trkpt lat="43.57996" lon="2.91651">
        <ele>601.4</ele>
        <time>2017-04-16T03:15:48.000Z</time>
      </trkpt>
      <trkpt lat="43.57997" lon="2.91649">
        <ele>601.6</ele>
        <time>2017-04-16T03:15:50.000Z</time>
      </trkpt>
      <trkpt lat="43.57998" lon="2.91642">
        <ele>602.6</ele>
        <time>2017-04-16T03:15:57.000Z</time>
      </trkpt>
      <trkpt lat="43.58" lon="2.91639">
        <ele>603</ele>
        <time>2017-04-16T03:15:59.000Z</time>
      </trkpt>
      <trkpt lat="43.58001" lon="2.91638">
        <ele>603.2</ele>
        <time>2017-04-16T03:16:00.000Z</time>
      </trkpt>
      <trkpt lat="43.58002" lon="2.91637">
        <ele>603.4</ele>
        <time>2017-04-16T03:16:01.000Z</time>
      </trkpt>
      <trkpt lat="43.58003" lon="2.91634">
        <ele>603.8</ele>
        <time>2017-04-16T03:16:03.000Z</time>
      </trkpt>
      <trkpt lat="43.58003" lon="2.91632">
        <ele>603.8</ele>
        <time>2017-04-16T03:16:04.000Z</time>
      </trkpt>
      <trkpt lat="43.58003" lon="2.91631">
        <ele>604</ele>
        <time>2017-04-16T03:16:05.000Z</time>
      </trkpt>
      <trkpt lat="43.58002" lon="2.91629">
        <ele>604.4</ele>
        <time>2017-04-16T03:16:07.000Z</time>
      </trkpt>
      <trkpt lat="43.58001" lon="2.91626">
        <ele>605</ele>
        <time>2017-04-16T03:16:09.000Z</time>
      </trkpt>
      <trkpt lat="43.58001" lon="2.91624">
        <ele>605.4</ele>
        <time>2017-04-16T03:16:11.000Z</time>
      </trkpt>
      <trkpt lat="43.58" lon="2.91621">
        <ele>605.6</ele>
        <time>2017-04-16T03:16:13.000Z</time>
      </trkpt>
      <trkpt lat="43.58" lon="2.91618">
        <ele>606</ele>
        <time>2017-04-16T03:16:15.000Z</time>
      </trkpt>
      <trkpt lat="43.58" lon="2.91602">
        <ele>606.8</ele>
        <time>2017-04-16T03:16:26.000Z</time>
      </trkpt>
      <trkpt lat="43.57999" lon="2.91599">
        <ele>607</ele>
        <time>2017-04-16T03:16:29.000Z</time>
      </trkpt>
      <trkpt lat="43.57998" lon="2.91597">
        <ele>607.4</ele>
        <time>2017-04-16T03:16:31.000Z</time>
      </trkpt>
      <trkpt lat="43.57996" lon="2.91595">
        <ele>607.8</ele>
        <time>2017-04-16T03:16:33.000Z</time>
      </trkpt>
      <trkpt lat="43.57994" lon="2.91593">
        <ele>608</ele>
        <time>2017-04-16T03:16:35.000Z</time>
      </trkpt>
      <trkpt lat="43.57991" lon="2.9159">
        <ele>608.4</ele>
        <time>2017-04-16T03:16:37.000Z</time>
      </trkpt>
      <trkpt lat="43.57985" lon="2.91578">
        <ele>609</ele>
        <time>2017-04-16T03:16:47.000Z</time>
      </trkpt>
      <trkpt lat="43.57981" lon="2.91565">
        <ele>609.2</ele>
        <time>2017-04-16T03:17:00.000Z</time>
      </trkpt>
      <trkpt lat="43.5798" lon="2.91563">
        <ele>609.4</ele>
        <time>2017-04-16T03:17:01.000Z</time>
      </trkpt>
      <trkpt lat="43.57979" lon="2.9156">
        <ele>609.8</ele>
        <time>2017-04-16T03:17:03.000Z</time>
      </trkpt>
      <trkpt lat="43.57979" lon="2.91557">
        <ele>609.8</ele>
        <time>2017-04-16T03:17:04.000Z</time>
      </trkpt>
      <trkpt lat="43.57979" lon="2.91556">
        <ele>610</ele>
        <time>2017-04-16T03:17:05.000Z</time>
      </trkpt>
      <trkpt lat="43.57979" lon="2.91552">
        <ele>610.2</ele>
        <time>2017-04-16T03:17:07.000Z</time>
      </trkpt>
      <trkpt lat="43.57978" lon="2.9155">
        <ele>610.4</ele>
        <time>2017-04-16T03:17:09.000Z</time>
      </trkpt>
      <trkpt lat="43.57977" lon="2.91548">
        <ele>610.8</ele>
        <time>2017-04-16T03:17:12.000Z</time>
      </trkpt>
      <trkpt lat="43.57975" lon="2.91548">
        <ele>611.4</ele>
        <time>2017-04-16T03:17:14.000Z</time>
      </trkpt>
      <trkpt lat="43.57974" lon="2.91546">
        <ele>611.8</ele>
        <time>2017-04-16T03:17:16.000Z</time>
      </trkpt>
      <trkpt lat="43.57972" lon="2.91544">
        <ele>612</ele>
        <time>2017-04-16T03:17:18.000Z</time>
      </trkpt>
      <trkpt lat="43.5797" lon="2.91542">
        <ele>612.2</ele>
        <time>2017-04-16T03:17:20.000Z</time>
      </trkpt>
      <trkpt lat="43.57968" lon="2.91541">
        <ele>612.6</ele>
        <time>2017-04-16T03:17:21.000Z</time>
      </trkpt>
      <trkpt lat="43.57965" lon="2.91539">
        <ele>613.2</ele>
        <time>2017-04-16T03:17:23.000Z</time>
      </trkpt>
      <trkpt lat="43.57964" lon="2.91537">
        <ele>613.6</ele>
        <time>2017-04-16T03:17:25.000Z</time>
      </trkpt>
      <trkpt lat="43.57965" lon="2.91534">
        <ele>614</ele>
        <time>2017-04-16T03:17:27.000Z</time>
      </trkpt>
      <trkpt lat="43.57966" lon="2.91531">
        <ele>614.2</ele>
        <time>2017-04-16T03:17:29.000Z</time>
      </trkpt>
      <trkpt lat="43.57967" lon="2.91524">
        <ele>615</ele>
        <time>2017-04-16T03:17:34.000Z</time>
      </trkpt>
      <trkpt lat="43.57967" lon="2.91521">
        <ele>615.4</ele>
        <time>2017-04-16T03:17:36.000Z</time>
      </trkpt>
      <trkpt lat="43.57967" lon="2.91519">
        <ele>615.8</ele>
        <time>2017-04-16T03:17:38.000Z</time>
      </trkpt>
      <trkpt lat="43.57967" lon="2.91518">
        <ele>616.2</ele>
        <time>2017-04-16T03:17:40.000Z</time>
      </trkpt>
      <trkpt lat="43.57966" lon="2.91518">
        <ele>616.6</ele>
        <time>2017-04-16T03:17:41.000Z</time>
      </trkpt>
      <trkpt lat="43.57964" lon="2.91517">
        <ele>617.2</ele>
        <time>2017-04-16T03:17:43.000Z</time>
      </trkpt>
      <trkpt lat="43.57962" lon="2.91516">
        <ele>617.6</ele>
        <time>2017-04-16T03:17:45.000Z</time>
      </trkpt>
      <trkpt lat="43.5796" lon="2.91515">
        <ele>618</ele>
        <time>2017-04-16T03:17:47.000Z</time>
      </trkpt>
      <trkpt lat="43.57959" lon="2.91512">
        <ele>618.4</ele>
        <time>2017-04-16T03:17:49.000Z</time>
      </trkpt>
      <trkpt lat="43.57958" lon="2.91509">
        <ele>619</ele>
        <time>2017-04-16T03:17:52.000Z</time>
      </trkpt>
      <trkpt lat="43.57958" lon="2.91507">
        <ele>619.4</ele>
        <time>2017-04-16T03:17:54.000Z</time>
      </trkpt>
      <trkpt lat="43.57958" lon="2.91505">
        <ele>620</ele>
        <time>2017-04-16T03:17:56.000Z</time>
      </trkpt>
      <trkpt lat="43.57957" lon="2.91504">
        <ele>620.4</ele>
        <time>2017-04-16T03:17:58.000Z</time>
      </trkpt>
      <trkpt lat="43.57957" lon="2.91503">
        <ele>620.6</ele>
        <time>2017-04-16T03:18:00.000Z</time>
      </trkpt>
      <trkpt lat="43.57955" lon="2.91502">
        <ele>621</ele>
        <time>2017-04-16T03:18:02.000Z</time>
      </trkpt>
      <trkpt lat="43.57954" lon="2.915">
        <ele>621.6</ele>
        <time>2017-04-16T03:18:04.000Z</time>
      </trkpt>
      <trkpt lat="43.57954" lon="2.91498">
        <ele>622</ele>
        <time>2017-04-16T03:18:06.000Z</time>
      </trkpt>
      <trkpt lat="43.57953" lon="2.91496">
        <ele>622.4</ele>
        <time>2017-04-16T03:18:08.000Z</time>
      </trkpt>
      <trkpt lat="43.57952" lon="2.91494">
        <ele>622.6</ele>
        <time>2017-04-16T03:18:10.000Z</time>
      </trkpt>
      <trkpt lat="43.57946" lon="2.91489">
        <ele>623.6</ele>
        <time>2017-04-16T03:18:18.000Z</time>
      </trkpt>
      <trkpt lat="43.57945" lon="2.91487">
        <ele>624</ele>
        <time>2017-04-16T03:18:20.000Z</time>
      </trkpt>
      <trkpt lat="43.57944" lon="2.91486">
        <ele>624.4</ele>
        <time>2017-04-16T03:18:22.000Z</time>
      </trkpt>
      <trkpt lat="43.57943" lon="2.91484">
        <ele>624.6</ele>
        <time>2017-04-16T03:18:24.000Z</time>
      </trkpt>
      <trkpt lat="43.57941" lon="2.91482">
        <ele>625</ele>
        <time>2017-04-16T03:18:26.000Z</time>
      </trkpt>
      <trkpt lat="43.57935" lon="2.91474">
        <ele>625.6</ele>
        <time>2017-04-16T03:18:34.000Z</time>
      </trkpt>
      <trkpt lat="43.57933" lon="2.91475">
        <ele>626.2</ele>
        <time>2017-04-16T03:18:36.000Z</time>
      </trkpt>
      <trkpt lat="43.57932" lon="2.91475">
        <ele>626.4</ele>
        <time>2017-04-16T03:18:38.000Z</time>
      </trkpt>
      <trkpt lat="43.5793" lon="2.91474">
        <ele>626.8</ele>
        <time>2017-04-16T03:18:40.000Z</time>
      </trkpt>
      <trkpt lat="43.57929" lon="2.91473">
        <ele>627.2</ele>
        <time>2017-04-16T03:18:42.000Z</time>
      </trkpt>
      <trkpt lat="43.57927" lon="2.91472">
        <ele>627.6</ele>
        <time>2017-04-16T03:18:44.000Z</time>
      </trkpt>
      <trkpt lat="43.57925" lon="2.91471">
        <ele>628.2</ele>
        <time>2017-04-16T03:18:46.000Z</time>
      </trkpt>
      <trkpt lat="43.57923" lon="2.91469">
        <ele>628.4</ele>
        <time>2017-04-16T03:18:48.000Z</time>
      </trkpt>
      <trkpt lat="43.5792" lon="2.91468">
        <ele>628.8</ele>
        <time>2017-04-16T03:18:50.000Z</time>
      </trkpt>
      <trkpt lat="43.57917" lon="2.91469">
        <ele>628.8</ele>
        <time>2017-04-16T03:18:51.000Z</time>
      </trkpt>
      <trkpt lat="43.57907" lon="2.91471">
        <ele>629.4</ele>
        <time>2017-04-16T03:18:55.000Z</time>
      </trkpt>
      <trkpt lat="43.57903" lon="2.91474">
        <ele>630</ele>
        <time>2017-04-16T03:18:57.000Z</time>
      </trkpt>
      <trkpt lat="43.57899" lon="2.91478">
        <ele>630.4</ele>
        <time>2017-04-16T03:18:59.000Z</time>
      </trkpt>
      <trkpt lat="43.57895" lon="2.91481">
        <ele>630.6</ele>
        <time>2017-04-16T03:19:01.000Z</time>
      </trkpt>
      <trkpt lat="43.57891" lon="2.91484">
        <ele>631</ele>
        <time>2017-04-16T03:19:03.000Z</time>
      </trkpt>
      <trkpt lat="43.57872" lon="2.91489">
        <ele>631.4</ele>
        <time>2017-04-16T03:19:10.000Z</time>
      </trkpt>
      <trkpt lat="43.57856" lon="2.91492">
        <ele>631.8</ele>
        <time>2017-04-16T03:19:16.000Z</time>
      </trkpt>
      <trkpt lat="43.57844" lon="2.91502">
        <ele>631.8</ele>
        <time>2017-04-16T03:19:22.000Z</time>
      </trkpt>
      <trkpt lat="43.5783" lon="2.91509">
        <ele>632</ele>
        <time>2017-04-16T03:19:26.000Z</time>
      </trkpt>
      <trkpt lat="43.57818" lon="2.91511">
        <ele>632</ele>
        <time>2017-04-16T03:19:30.000Z</time>
      </trkpt>
      <trkpt lat="43.57812" lon="2.91508">
        <ele>632.2</ele>
        <time>2017-04-16T03:19:33.000Z</time>
      </trkpt>
      <trkpt lat="43.57811" lon="2.91508">
        <ele>632.4</ele>
        <time>2017-04-16T03:19:34.000Z</time>
      </trkpt>
      <trkpt lat="43.57807" lon="2.91507">
        <ele>632.8</ele>
        <time>2017-04-16T03:19:37.000Z</time>
      </trkpt>
      <trkpt lat="43.57805" lon="2.91506">
        <ele>633.2</ele>
        <time>2017-04-16T03:19:39.000Z</time>
      </trkpt>
      <trkpt lat="43.57804" lon="2.91506">
        <ele>633.4</ele>
        <time>2017-04-16T03:19:40.000Z</time>
      </trkpt>
      <trkpt lat="43.57802" lon="2.91503">
        <ele>634</ele>
        <time>2017-04-16T03:19:42.000Z</time>
      </trkpt>
      <trkpt lat="43.578" lon="2.91501">
        <ele>634.4</ele>
        <time>2017-04-16T03:19:44.000Z</time>
      </trkpt>
      <trkpt lat="43.57799" lon="2.91498">
        <ele>634.8</ele>
        <time>2017-04-16T03:19:46.000Z</time>
      </trkpt>
      <trkpt lat="43.578" lon="2.91494">
        <ele>635</ele>
        <time>2017-04-16T03:19:48.000Z</time>
      </trkpt>
      <trkpt lat="43.578" lon="2.91493">
        <ele>635.4</ele>
        <time>2017-04-16T03:19:49.000Z</time>
      </trkpt>
      <trkpt lat="43.57801" lon="2.91491">
        <ele>635.6</ele>
        <time>2017-04-16T03:19:50.000Z</time>
      </trkpt>
      <trkpt lat="43.57806" lon="2.91487">
        <ele>636.4</ele>
        <time>2017-04-16T03:19:53.000Z</time>
      </trkpt>
      <trkpt lat="43.57808" lon="2.91485">
        <ele>636.8</ele>
        <time>2017-04-16T03:19:55.000Z</time>
      </trkpt>
      <trkpt lat="43.5781" lon="2.91483">
        <ele>637</ele>
        <time>2017-04-16T03:19:57.000Z</time>
      </trkpt>
      <trkpt lat="43.57811" lon="2.91483">
        <ele>637.4</ele>
        <time>2017-04-16T03:19:58.000Z</time>
      </trkpt>
      <trkpt lat="43.57812" lon="2.91482">
        <ele>638</ele>
        <time>2017-04-16T03:20:00.000Z</time>
      </trkpt>
      <trkpt lat="43.57813" lon="2.91481">
        <ele>638.4</ele>
        <time>2017-04-16T03:20:02.000Z</time>
      </trkpt>
      <trkpt lat="43.57813" lon="2.91479">
        <ele>638.8</ele>
        <time>2017-04-16T03:20:04.000Z</time>
      </trkpt>
      <trkpt lat="43.57815" lon="2.91478">
        <ele>639.4</ele>
        <time>2017-04-16T03:20:06.000Z</time>
      </trkpt>
      <trkpt lat="43.57817" lon="2.91476">
        <ele>640</ele>
        <time>2017-04-16T03:20:08.000Z</time>
      </trkpt>
      <trkpt lat="43.57819" lon="2.91475">
        <ele>640.4</ele>
        <time>2017-04-16T03:20:10.000Z</time>
      </trkpt>
      <trkpt lat="43.57822" lon="2.91474">
        <ele>640.8</ele>
        <time>2017-04-16T03:20:12.000Z</time>
      </trkpt>
      <trkpt lat="43.57825" lon="2.91472">
        <ele>641</ele>
        <time>2017-04-16T03:20:14.000Z</time>
      </trkpt>
      <trkpt lat="43.57826" lon="2.91472">
        <ele>641.2</ele>
        <time>2017-04-16T03:20:15.000Z</time>
      </trkpt>
      <trkpt lat="43.5783" lon="2.91471">
        <ele>641.8</ele>
        <time>2017-04-16T03:20:19.000Z</time>
      </trkpt>
      <trkpt lat="43.57831" lon="2.9147">
        <ele>642.2</ele>
        <time>2017-04-16T03:20:20.000Z</time>
      </trkpt>
      <trkpt lat="43.57832" lon="2.9147">
        <ele>642.4</ele>
        <time>2017-04-16T03:20:21.000Z</time>
      </trkpt>
      <trkpt lat="43.57832" lon="2.91469">
        <ele>642.6</ele>
        <time>2017-04-16T03:20:22.000Z</time>
      </trkpt>
      <trkpt lat="43.57836" lon="2.91467">
        <ele>643.2</ele>
        <time>2017-04-16T03:20:25.000Z</time>
      </trkpt>
      <trkpt lat="43.57837" lon="2.91465">
        <ele>643.4</ele>
        <time>2017-04-16T03:20:27.000Z</time>
      </trkpt>
      <trkpt lat="43.57838" lon="2.91464">
        <ele>643.6</ele>
        <time>2017-04-16T03:20:28.000Z</time>
      </trkpt>
      <trkpt lat="43.5784" lon="2.91462">
        <ele>643.8</ele>
        <time>2017-04-16T03:20:30.000Z</time>
      </trkpt>
      <trkpt lat="43.57843" lon="2.91458">
        <ele>644.4</ele>
        <time>2017-04-16T03:20:35.000Z</time>
      </trkpt>
      <trkpt lat="43.57844" lon="2.91456">
        <ele>644.8</ele>
        <time>2017-04-16T03:20:37.000Z</time>
      </trkpt>
      <trkpt lat="43.57846" lon="2.91455">
        <ele>645.2</ele>
        <time>2017-04-16T03:20:39.000Z</time>
      </trkpt>
      <trkpt lat="43.57848" lon="2.91454">
        <ele>645.4</ele>
        <time>2017-04-16T03:20:41.000Z</time>
      </trkpt>
      <trkpt lat="43.5785" lon="2.91453">
        <ele>645.8</ele>
        <time>2017-04-16T03:20:43.000Z</time>
      </trkpt>
      <trkpt lat="43.57852" lon="2.9145">
        <ele>646.2</ele>
        <time>2017-04-16T03:20:46.000Z</time>
      </trkpt>
      <trkpt lat="43.57854" lon="2.91448">
        <ele>646.8</ele>
        <time>2017-04-16T03:20:48.000Z</time>
      </trkpt>
      <trkpt lat="43.57856" lon="2.91446">
        <ele>647.2</ele>
        <time>2017-04-16T03:20:50.000Z</time>
      </trkpt>
      <trkpt lat="43.57858" lon="2.91444">
        <ele>647.6</ele>
        <time>2017-04-16T03:20:52.000Z</time>
      </trkpt>
      <trkpt lat="43.5786" lon="2.91443">
        <ele>647.8</ele>
        <time>2017-04-16T03:20:54.000Z</time>
      </trkpt>
      <trkpt lat="43.57865" lon="2.91437">
        <ele>648.4</ele>
        <time>2017-04-16T03:20:59.000Z</time>
      </trkpt>
      <trkpt lat="43.57871" lon="2.9143">
        <ele>648.6</ele>
        <time>2017-04-16T03:21:06.000Z</time>
      </trkpt>
      <trkpt lat="43.57873" lon="2.91429">
        <ele>648.8</ele>
        <time>2017-04-16T03:21:07.000Z</time>
      </trkpt>
      <trkpt lat="43.57876" lon="2.91428">
        <ele>649</ele>
        <time>2017-04-16T03:21:09.000Z</time>
      </trkpt>
      <trkpt lat="43.57879" lon="2.91427">
        <ele>649.4</ele>
        <time>2017-04-16T03:21:11.000Z</time>
      </trkpt>
      <trkpt lat="43.57881" lon="2.91425">
        <ele>649.6</ele>
        <time>2017-04-16T03:21:13.000Z</time>
      </trkpt>
      <trkpt lat="43.57882" lon="2.91422">
        <ele>650</ele>
        <time>2017-04-16T03:21:15.000Z</time>
      </trkpt>
      <trkpt lat="43.57884" lon="2.9142">
        <ele>650.2</ele>
        <time>2017-04-16T03:21:17.000Z</time>
      </trkpt>
      <trkpt lat="43.57884" lon="2.91419">
        <ele>650.2</ele>
        <time>2017-04-16T03:21:18.000Z</time>
      </trkpt>
      <trkpt lat="43.57889" lon="2.91418">
        <ele>650.6</ele>
        <time>2017-04-16T03:21:23.000Z</time>
      </trkpt>
      <trkpt lat="43.5789" lon="2.91414">
        <ele>650.8</ele>
        <time>2017-04-16T03:21:26.000Z</time>
      </trkpt>
      <trkpt lat="43.57892" lon="2.91413">
        <ele>651.2</ele>
        <time>2017-04-16T03:21:28.000Z</time>
      </trkpt>
      <trkpt lat="43.57893" lon="2.91412">
        <ele>651.4</ele>
        <time>2017-04-16T03:21:29.000Z</time>
      </trkpt>
      <trkpt lat="43.57896" lon="2.91411">
        <ele>651.8</ele>
        <time>2017-04-16T03:21:31.000Z</time>
      </trkpt>
      <trkpt lat="43.57898" lon="2.9141">
        <ele>652</ele>
        <time>2017-04-16T03:21:32.000Z</time>
      </trkpt>
      <trkpt lat="43.579" lon="2.91409">
        <ele>652.2</ele>
        <time>2017-04-16T03:21:34.000Z</time>
      </trkpt>
      <trkpt lat="43.57901" lon="2.91407">
        <ele>652.2</ele>
        <time>2017-04-16T03:21:35.000Z</time>
      </trkpt>
      <trkpt lat="43.57901" lon="2.91406">
        <ele>652.6</ele>
        <time>2017-04-16T03:21:36.000Z</time>
      </trkpt>
      <trkpt lat="43.57902" lon="2.91406">
        <ele>653</ele>
        <time>2017-04-16T03:21:38.000Z</time>
      </trkpt>
      <trkpt lat="43.57903" lon="2.91405">
        <ele>653.6</ele>
        <time>2017-04-16T03:21:40.000Z</time>
      </trkpt>
      <trkpt lat="43.57904" lon="2.91403">
        <ele>653.8</ele>
        <time>2017-04-16T03:21:42.000Z</time>
      </trkpt>
      <trkpt lat="43.57905" lon="2.91402">
        <ele>654.2</ele>
        <time>2017-04-16T03:21:44.000Z</time>
      </trkpt>
      <trkpt lat="43.57908" lon="2.914">
        <ele>655</ele>
        <time>2017-04-16T03:21:50.000Z</time>
      </trkpt>
      <trkpt lat="43.57908" lon="2.91398">
        <ele>655.4</ele>
        <time>2017-04-16T03:21:52.000Z</time>
      </trkpt>
      <trkpt lat="43.57908" lon="2.91396">
        <ele>655.8</ele>
        <time>2017-04-16T03:21:54.000Z</time>
      </trkpt>
      <trkpt lat="43.57909" lon="2.91393">
        <ele>656.2</ele>
        <time>2017-04-16T03:21:56.000Z</time>
      </trkpt>
      <trkpt lat="43.57911" lon="2.91392">
        <ele>656.4</ele>
        <time>2017-04-16T03:21:58.000Z</time>
      </trkpt>
      <trkpt lat="43.57913" lon="2.9139">
        <ele>656.6</ele>
        <time>2017-04-16T03:22:00.000Z</time>
      </trkpt>
      <trkpt lat="43.57917" lon="2.91391">
        <ele>657.2</ele>
        <time>2017-04-16T03:22:04.000Z</time>
      </trkpt>
      <trkpt lat="43.5792" lon="2.91393">
        <ele>657.6</ele>
        <time>2017-04-16T03:22:06.000Z</time>
      </trkpt>
      <trkpt lat="43.57922" lon="2.91393">
        <ele>658</ele>
        <time>2017-04-16T03:22:08.000Z</time>
      </trkpt>
      <trkpt lat="43.57923" lon="2.91393">
        <ele>658.4</ele>
        <time>2017-04-16T03:22:09.000Z</time>
      </trkpt>
      <trkpt lat="43.57926" lon="2.91393">
        <ele>659</ele>
        <time>2017-04-16T03:22:11.000Z</time>
      </trkpt>
      <trkpt lat="43.57928" lon="2.91393">
        <ele>659.6</ele>
        <time>2017-04-16T03:22:13.000Z</time>
      </trkpt>
      <trkpt lat="43.57929" lon="2.91391">
        <ele>660</ele>
        <time>2017-04-16T03:22:15.000Z</time>
      </trkpt>
      <trkpt lat="43.57931" lon="2.9139">
        <ele>660.4</ele>
        <time>2017-04-16T03:22:17.000Z</time>
      </trkpt>
      <trkpt lat="43.57932" lon="2.91388">
        <ele>661</ele>
        <time>2017-04-16T03:22:19.000Z</time>
      </trkpt>
      <trkpt lat="43.57933" lon="2.91385">
        <ele>661.6</ele>
        <time>2017-04-16T03:22:21.000Z</time>
      </trkpt>
      <trkpt lat="43.57933" lon="2.91383">
        <ele>662</ele>
        <time>2017-04-16T03:22:23.000Z</time>
      </trkpt>
      <trkpt lat="43.57934" lon="2.91381">
        <ele>662.4</ele>
        <time>2017-04-16T03:22:25.000Z</time>
      </trkpt>
      <trkpt lat="43.57935" lon="2.91379">
        <ele>662.8</ele>
        <time>2017-04-16T03:22:27.000Z</time>
      </trkpt>
      <trkpt lat="43.57935" lon="2.91379">
        <ele>663</ele>
        <time>2017-04-16T03:22:28.000Z</time>
      </trkpt>
      <trkpt lat="43.57937" lon="2.91379">
        <ele>663.4</ele>
        <time>2017-04-16T03:22:31.000Z</time>
      </trkpt>
      <trkpt lat="43.57938" lon="2.91379">
        <ele>663.6</ele>
        <time>2017-04-16T03:22:32.000Z</time>
      </trkpt>
      <trkpt lat="43.57939" lon="2.91377">
        <ele>664.2</ele>
        <time>2017-04-16T03:22:34.000Z</time>
      </trkpt>
      <trkpt lat="43.5794" lon="2.91375">
        <ele>664.6</ele>
        <time>2017-04-16T03:22:36.000Z</time>
      </trkpt>
      <trkpt lat="43.57941" lon="2.91373">
        <ele>665.2</ele>
        <time>2017-04-16T03:22:38.000Z</time>
      </trkpt>
      <trkpt lat="43.57943" lon="2.91372">
        <ele>665.8</ele>
        <time>2017-04-16T03:22:40.000Z</time>
      </trkpt>
      <trkpt lat="43.57944" lon="2.9137">
        <ele>666.4</ele>
        <time>2017-04-16T03:22:42.000Z</time>
      </trkpt>
      <trkpt lat="43.57946" lon="2.91369">
        <ele>666.8</ele>
        <time>2017-04-16T03:22:44.000Z</time>
      </trkpt>
      <trkpt lat="43.57947" lon="2.91367">
        <ele>667</ele>
        <time>2017-04-16T03:22:46.000Z</time>
      </trkpt>
      <trkpt lat="43.57948" lon="2.91366">
        <ele>667.4</ele>
        <time>2017-04-16T03:22:47.000Z</time>
      </trkpt>
      <trkpt lat="43.57949" lon="2.91365">
        <ele>668</ele>
        <time>2017-04-16T03:22:49.000Z</time>
      </trkpt>
      <trkpt lat="43.5795" lon="2.91363">
        <ele>668.6</ele>
        <time>2017-04-16T03:22:51.000Z</time>
      </trkpt>
      <trkpt lat="43.57951" lon="2.91361">
        <ele>669</ele>
        <time>2017-04-16T03:22:53.000Z</time>
      </trkpt>
      <trkpt lat="43.57952" lon="2.91361">
        <ele>669.2</ele>
        <time>2017-04-16T03:22:55.000Z</time>
      </trkpt>
      <trkpt lat="43.57954" lon="2.9136">
        <ele>669.8</ele>
        <time>2017-04-16T03:22:57.000Z</time>
      </trkpt>
      <trkpt lat="43.57956" lon="2.91359">
        <ele>670.4</ele>
        <time>2017-04-16T03:22:59.000Z</time>
      </trkpt>
      <trkpt lat="43.57958" lon="2.91359">
        <ele>670.8</ele>
        <time>2017-04-16T03:23:01.000Z</time>
      </trkpt>
      <trkpt lat="43.5796" lon="2.91358">
        <ele>671.4</ele>
        <time>2017-04-16T03:23:03.000Z</time>
      </trkpt>
      <trkpt lat="43.5796" lon="2.91358">
        <ele>671.8</ele>
        <time>2017-04-16T03:23:04.000Z</time>
      </trkpt>
      <trkpt lat="43.57961" lon="2.91358">
        <ele>672.6</ele>
        <time>2017-04-16T03:23:07.000Z</time>
      </trkpt>
      <trkpt lat="43.57961" lon="2.91358">
        <ele>672.8</ele>
        <time>2017-04-16T03:23:08.000Z</time>
      </trkpt>
      <trkpt lat="43.57962" lon="2.91359">
        <ele>673</ele>
        <time>2017-04-16T03:23:09.000Z</time>
      </trkpt>
      <trkpt lat="43.57963" lon="2.91359">
        <ele>673.2</ele>
        <time>2017-04-16T03:23:10.000Z</time>
      </trkpt>
      <trkpt lat="43.57965" lon="2.91361">
        <ele>673.6</ele>
        <time>2017-04-16T03:23:12.000Z</time>
      </trkpt>
      <trkpt lat="43.57967" lon="2.91362">
        <ele>673.8</ele>
        <time>2017-04-16T03:23:14.000Z</time>
      </trkpt>
      <trkpt lat="43.57968" lon="2.91362">
        <ele>673.8</ele>
        <time>2017-04-16T03:23:15.000Z</time>
      </trkpt>
      <trkpt lat="43.5797" lon="2.91363">
        <ele>674.8</ele>
        <time>2017-04-16T03:23:18.000Z</time>
      </trkpt>
      <trkpt lat="43.57971" lon="2.91364">
        <ele>675.2</ele>
        <time>2017-04-16T03:23:20.000Z</time>
      </trkpt>
      <trkpt lat="43.57972" lon="2.91364">
        <ele>675.6</ele>
        <time>2017-04-16T03:23:22.000Z</time>
      </trkpt>
      <trkpt lat="43.57974" lon="2.91365">
        <ele>675.8</ele>
        <time>2017-04-16T03:23:24.000Z</time>
      </trkpt>
      <trkpt lat="43.57982" lon="2.91365">
        <ele>676.8</ele>
        <time>2017-04-16T03:23:35.000Z</time>
      </trkpt>
      <trkpt lat="43.57984" lon="2.91364">
        <ele>677.4</ele>
        <time>2017-04-16T03:23:37.000Z</time>
      </trkpt>
      <trkpt lat="43.57987" lon="2.91364">
        <ele>677.8</ele>
        <time>2017-04-16T03:23:39.000Z</time>
      </trkpt>
      <trkpt lat="43.57988" lon="2.91364">
        <ele>678</ele>
        <time>2017-04-16T03:23:41.000Z</time>
      </trkpt>
      <trkpt lat="43.5799" lon="2.91365">
        <ele>678.2</ele>
        <time>2017-04-16T03:23:43.000Z</time>
      </trkpt>
      <trkpt lat="43.57997" lon="2.91368">
        <ele>679</ele>
        <time>2017-04-16T03:23:50.000Z</time>
      </trkpt>
      <trkpt lat="43.57999" lon="2.91368">
        <ele>679.4</ele>
        <time>2017-04-16T03:23:52.000Z</time>
      </trkpt>
      <trkpt lat="43.58001" lon="2.91369">
        <ele>679.8</ele>
        <time>2017-04-16T03:23:54.000Z</time>
      </trkpt>
      <trkpt lat="43.58001" lon="2.9137">
        <ele>680</ele>
        <time>2017-04-16T03:23:55.000Z</time>
      </trkpt>
      <trkpt lat="43.58004" lon="2.91368">
        <ele>680.4</ele>
        <time>2017-04-16T03:23:58.000Z</time>
      </trkpt>
      <trkpt lat="43.58008" lon="2.91366">
        <ele>680.8</ele>
        <time>2017-04-16T03:24:02.000Z</time>
      </trkpt>
      <trkpt lat="43.58008" lon="2.91365">
        <ele>681.2</ele>
        <time>2017-04-16T03:24:03.000Z</time>
      </trkpt>
      <trkpt lat="43.5801" lon="2.91361">
        <ele>681.8</ele>
        <time>2017-04-16T03:24:06.000Z</time>
      </trkpt>
      <trkpt lat="43.5801" lon="2.91358">
        <ele>682</ele>
        <time>2017-04-16T03:24:08.000Z</time>
      </trkpt>
      <trkpt lat="43.5801" lon="2.91355">
        <ele>682.4</ele>
        <time>2017-04-16T03:24:10.000Z</time>
      </trkpt>
      <trkpt lat="43.5801" lon="2.91353">
        <ele>683</ele>
        <time>2017-04-16T03:24:12.000Z</time>
      </trkpt>
      <trkpt lat="43.5801" lon="2.91351">
        <ele>683.4</ele>
        <time>2017-04-16T03:24:13.000Z</time>
      </trkpt>
      <trkpt lat="43.5801" lon="2.9135">
        <ele>683.6</ele>
        <time>2017-04-16T03:24:14.000Z</time>
      </trkpt>
      <trkpt lat="43.58009" lon="2.91348">
        <ele>683.8</ele>
        <time>2017-04-16T03:24:16.000Z</time>
      </trkpt>
      <trkpt lat="43.58008" lon="2.91347">
        <ele>684</ele>
        <time>2017-04-16T03:24:17.000Z</time>
      </trkpt>
      <trkpt lat="43.58007" lon="2.91346">
        <ele>684.2</ele>
        <time>2017-04-16T03:24:18.000Z</time>
      </trkpt>
      <trkpt lat="43.58006" lon="2.91345">
        <ele>684.4</ele>
        <time>2017-04-16T03:24:19.000Z</time>
      </trkpt>
      <trkpt lat="43.58005" lon="2.91343">
        <ele>684.6</ele>
        <time>2017-04-16T03:24:21.000Z</time>
      </trkpt>
      <trkpt lat="43.58004" lon="2.9134">
        <ele>685.4</ele>
        <time>2017-04-16T03:24:24.000Z</time>
      </trkpt>
      <trkpt lat="43.58002" lon="2.91339">
        <ele>685.8</ele>
        <time>2017-04-16T03:24:26.000Z</time>
      </trkpt>
      <trkpt lat="43.58" lon="2.91337">
        <ele>686.2</ele>
        <time>2017-04-16T03:24:28.000Z</time>
      </trkpt>
      <trkpt lat="43.57999" lon="2.91335">
        <ele>686.6</ele>
        <time>2017-04-16T03:24:30.000Z</time>
      </trkpt>
      <trkpt lat="43.57997" lon="2.91333">
        <ele>687.2</ele>
        <time>2017-04-16T03:24:32.000Z</time>
      </trkpt>
      <trkpt lat="43.57995" lon="2.91331">
        <ele>687.8</ele>
        <time>2017-04-16T03:24:34.000Z</time>
      </trkpt>
      <trkpt lat="43.57993" lon="2.91328">
        <ele>688.2</ele>
        <time>2017-04-16T03:24:36.000Z</time>
      </trkpt>
      <trkpt lat="43.57991" lon="2.91326">
        <ele>688.6</ele>
        <time>2017-04-16T03:24:38.000Z</time>
      </trkpt>
      <trkpt lat="43.57986" lon="2.91322">
        <ele>689</ele>
        <time>2017-04-16T03:24:42.000Z</time>
      </trkpt>
      <trkpt lat="43.57979" lon="2.91312">
        <ele>689.6</ele>
        <time>2017-04-16T03:24:51.000Z</time>
      </trkpt>
      <trkpt lat="43.5798" lon="2.91312">
        <ele>689.6</ele>
        <time>2017-04-16T03:24:52.000Z</time>
      </trkpt>
      <trkpt lat="43.5798" lon="2.9131">
        <ele>689.6</ele>
        <time>2017-04-16T03:24:54.000Z</time>
      </trkpt>
      <trkpt lat="43.57979" lon="2.91306">
        <ele>689.8</ele>
        <time>2017-04-16T03:24:57.000Z</time>
      </trkpt>
      <trkpt lat="43.57976" lon="2.91297">
        <ele>690</ele>
        <time>2017-04-16T03:25:03.000Z</time>
      </trkpt>
      <trkpt lat="43.57974" lon="2.91296">
        <ele>690.4</ele>
        <time>2017-04-16T03:25:05.000Z</time>
      </trkpt>
      <trkpt lat="43.57973" lon="2.91295">
        <ele>690.8</ele>
        <time>2017-04-16T03:25:07.000Z</time>
      </trkpt>
      <trkpt lat="43.57973" lon="2.91293">
        <ele>691</ele>
        <time>2017-04-16T03:25:09.000Z</time>
      </trkpt>
      <trkpt lat="43.57972" lon="2.91291">
        <ele>691.2</ele>
        <time>2017-04-16T03:25:11.000Z</time>
      </trkpt>
      <trkpt lat="43.57971" lon="2.91286">
        <ele>691.6</ele>
        <time>2017-04-16T03:25:14.000Z</time>
      </trkpt>
      <trkpt lat="43.5797" lon="2.91283">
        <ele>692.2</ele>
        <time>2017-04-16T03:25:16.000Z</time>
      </trkpt>
      <trkpt lat="43.57969" lon="2.91281">
        <ele>692.6</ele>
        <time>2017-04-16T03:25:18.000Z</time>
      </trkpt>
      <trkpt lat="43.57969" lon="2.9128">
        <ele>692.8</ele>
        <time>2017-04-16T03:25:19.000Z</time>
      </trkpt>
      <trkpt lat="43.57967" lon="2.91278">
        <ele>693.2</ele>
        <time>2017-04-16T03:25:22.000Z</time>
      </trkpt>
      <trkpt lat="43.57967" lon="2.91273">
        <ele>693.8</ele>
        <time>2017-04-16T03:25:27.000Z</time>
      </trkpt>
      <trkpt lat="43.5797" lon="2.91273">
        <ele>694.4</ele>
        <time>2017-04-16T03:25:30.000Z</time>
      </trkpt>
      <trkpt lat="43.57972" lon="2.91271">
        <ele>694.8</ele>
        <time>2017-04-16T03:25:32.000Z</time>
      </trkpt>
      <trkpt lat="43.57974" lon="2.91269">
        <ele>695.4</ele>
        <time>2017-04-16T03:25:34.000Z</time>
      </trkpt>
      <trkpt lat="43.57977" lon="2.91268">
        <ele>696.2</ele>
        <time>2017-04-16T03:25:36.000Z</time>
      </trkpt>
      <trkpt lat="43.57978" lon="2.91268">
        <ele>696.4</ele>
        <time>2017-04-16T03:25:37.000Z</time>
      </trkpt>
      <trkpt lat="43.57979" lon="2.91267">
        <ele>696.6</ele>
        <time>2017-04-16T03:25:38.000Z</time>
      </trkpt>
      <trkpt lat="43.57981" lon="2.91267">
        <ele>697</ele>
        <time>2017-04-16T03:25:40.000Z</time>
      </trkpt>
      <trkpt lat="43.57983" lon="2.91266">
        <ele>697.4</ele>
        <time>2017-04-16T03:25:42.000Z</time>
      </trkpt>
      <trkpt lat="43.57983" lon="2.91266">
        <ele>697.8</ele>
        <time>2017-04-16T03:25:43.000Z</time>
      </trkpt>
      <trkpt lat="43.57985" lon="2.91265">
        <ele>698.4</ele>
        <time>2017-04-16T03:25:45.000Z</time>
      </trkpt>
      <trkpt lat="43.57986" lon="2.91264">
        <ele>699</ele>
        <time>2017-04-16T03:25:47.000Z</time>
      </trkpt>
      <trkpt lat="43.57989" lon="2.91264">
        <ele>699.4</ele>
        <time>2017-04-16T03:25:49.000Z</time>
      </trkpt>
      <trkpt lat="43.57991" lon="2.91264">
        <ele>699.8</ele>
        <time>2017-04-16T03:25:51.000Z</time>
      </trkpt>
      <trkpt lat="43.57997" lon="2.91262">
        <ele>700.6</ele>
        <time>2017-04-16T03:25:57.000Z</time>
      </trkpt>
      <trkpt lat="43.57999" lon="2.91261">
        <ele>701.2</ele>
        <time>2017-04-16T03:25:59.000Z</time>
      </trkpt>
      <trkpt lat="43.57999" lon="2.9126">
        <ele>701.4</ele>
        <time>2017-04-16T03:26:00.000Z</time>
      </trkpt>
      <trkpt lat="43.58" lon="2.91259">
        <ele>701.6</ele>
        <time>2017-04-16T03:26:01.000Z</time>
      </trkpt>
      <trkpt lat="43.58" lon="2.91256">
        <ele>701.8</ele>
        <time>2017-04-16T03:26:03.000Z</time>
      </trkpt>
      <trkpt lat="43.58001" lon="2.91254">
        <ele>702.2</ele>
        <time>2017-04-16T03:26:05.000Z</time>
      </trkpt>
      <trkpt lat="43.58003" lon="2.91252">
        <ele>702.6</ele>
        <time>2017-04-16T03:26:08.000Z</time>
      </trkpt>
      <trkpt lat="43.58005" lon="2.91252">
        <ele>703.2</ele>
        <time>2017-04-16T03:26:10.000Z</time>
      </trkpt>
      <trkpt lat="43.58006" lon="2.91251">
        <ele>703.6</ele>
        <time>2017-04-16T03:26:12.000Z</time>
      </trkpt>
      <trkpt lat="43.58007" lon="2.9125">
        <ele>703.8</ele>
        <time>2017-04-16T03:26:14.000Z</time>
      </trkpt>
      <trkpt lat="43.58009" lon="2.91249">
        <ele>704.2</ele>
        <time>2017-04-16T03:26:16.000Z</time>
      </trkpt>
      <trkpt lat="43.58011" lon="2.91248">
        <ele>704.6</ele>
        <time>2017-04-16T03:26:19.000Z</time>
      </trkpt>
      <trkpt lat="43.58014" lon="2.91248">
        <ele>705.2</ele>
        <time>2017-04-16T03:26:21.000Z</time>
      </trkpt>
      <trkpt lat="43.58016" lon="2.91247">
        <ele>705.6</ele>
        <time>2017-04-16T03:26:23.000Z</time>
      </trkpt>
      <trkpt lat="43.58018" lon="2.91248">
        <ele>706</ele>
        <time>2017-04-16T03:26:25.000Z</time>
      </trkpt>
      <trkpt lat="43.58019" lon="2.91247">
        <ele>706.2</ele>
        <time>2017-04-16T03:26:27.000Z</time>
      </trkpt>
      <trkpt lat="43.58021" lon="2.91248">
        <ele>706.6</ele>
        <time>2017-04-16T03:26:28.000Z</time>
      </trkpt>
      <trkpt lat="43.58023" lon="2.91249">
        <ele>707.2</ele>
        <time>2017-04-16T03:26:30.000Z</time>
      </trkpt>
      <trkpt lat="43.58025" lon="2.91249">
        <ele>707.6</ele>
        <time>2017-04-16T03:26:32.000Z</time>
      </trkpt>
      <trkpt lat="43.58027" lon="2.9125">
        <ele>708</ele>
        <time>2017-04-16T03:26:34.000Z</time>
      </trkpt>
      <trkpt lat="43.58028" lon="2.91249">
        <ele>708.6</ele>
        <time>2017-04-16T03:26:36.000Z</time>
      </trkpt>
      <trkpt lat="43.5803" lon="2.91249">
        <ele>709.2</ele>
        <time>2017-04-16T03:26:38.000Z</time>
      </trkpt>
      <trkpt lat="43.58032" lon="2.91248">
        <ele>709.6</ele>
        <time>2017-04-16T03:26:40.000Z</time>
      </trkpt>
      <trkpt lat="43.58033" lon="2.91248">
        <ele>710</ele>
        <time>2017-04-16T03:26:42.000Z</time>
      </trkpt>
      <trkpt lat="43.58035" lon="2.91249">
        <ele>710.4</ele>
        <time>2017-04-16T03:26:44.000Z</time>
      </trkpt>
      <trkpt lat="43.58044" lon="2.91251">
        <ele>711.2</ele>
        <time>2017-04-16T03:26:53.000Z</time>
      </trkpt>
      <trkpt lat="43.58048" lon="2.91252">
        <ele>711.6</ele>
        <time>2017-04-16T03:26:59.000Z</time>
      </trkpt>
      <trkpt lat="43.58051" lon="2.91252">
        <ele>712</ele>
        <time>2017-04-16T03:27:01.000Z</time>
      </trkpt>
      <trkpt lat="43.58053" lon="2.91253">
        <ele>712.4</ele>
        <time>2017-04-16T03:27:03.000Z</time>
      </trkpt>
      <trkpt lat="43.58053" lon="2.91254">
        <ele>712.6</ele>
        <time>2017-04-16T03:27:05.000Z</time>
      </trkpt>
      <trkpt lat="43.58053" lon="2.91255">
        <ele>712.8</ele>
        <time>2017-04-16T03:27:07.000Z</time>
      </trkpt>
      <trkpt lat="43.58057" lon="2.91256">
        <ele>713.6</ele>
        <time>2017-04-16T03:27:13.000Z</time>
      </trkpt>
      <trkpt lat="43.58059" lon="2.91257">
        <ele>714</ele>
        <time>2017-04-16T03:27:15.000Z</time>
      </trkpt>
      <trkpt lat="43.5806" lon="2.91256">
        <ele>714.4</ele>
        <time>2017-04-16T03:27:17.000Z</time>
      </trkpt>
      <trkpt lat="43.58062" lon="2.91254">
        <ele>715</ele>
        <time>2017-04-16T03:27:19.000Z</time>
      </trkpt>
      <trkpt lat="43.58065" lon="2.91253">
        <ele>715.6</ele>
        <time>2017-04-16T03:27:21.000Z</time>
      </trkpt>
      <trkpt lat="43.58067" lon="2.91252">
        <ele>716</ele>
        <time>2017-04-16T03:27:23.000Z</time>
      </trkpt>
      <trkpt lat="43.58069" lon="2.91252">
        <ele>716.4</ele>
        <time>2017-04-16T03:27:25.000Z</time>
      </trkpt>
      <trkpt lat="43.58071" lon="2.91251">
        <ele>716.8</ele>
        <time>2017-04-16T03:27:27.000Z</time>
      </trkpt>
      <trkpt lat="43.58071" lon="2.91252">
        <ele>717</ele>
        <time>2017-04-16T03:27:28.000Z</time>
      </trkpt>
      <trkpt lat="43.58072" lon="2.91252">
        <ele>717.6</ele>
        <time>2017-04-16T03:27:30.000Z</time>
      </trkpt>
      <trkpt lat="43.58073" lon="2.91252">
        <ele>718</ele>
        <time>2017-04-16T03:27:31.000Z</time>
      </trkpt>
      <trkpt lat="43.58075" lon="2.91254">
        <ele>718.6</ele>
        <time>2017-04-16T03:27:34.000Z</time>
      </trkpt>
      <trkpt lat="43.58078" lon="2.91253">
        <ele>718.8</ele>
        <time>2017-04-16T03:27:36.000Z</time>
      </trkpt>
      <trkpt lat="43.58085" lon="2.91252">
        <ele>719.6</ele>
        <time>2017-04-16T03:27:41.000Z</time>
      </trkpt>
      <trkpt lat="43.58087" lon="2.91251">
        <ele>720</ele>
        <time>2017-04-16T03:27:43.000Z</time>
      </trkpt>
      <trkpt lat="43.58089" lon="2.9125">
        <ele>720.4</ele>
        <time>2017-04-16T03:27:45.000Z</time>
      </trkpt>
      <trkpt lat="43.58091" lon="2.91249">
        <ele>720.8</ele>
        <time>2017-04-16T03:27:47.000Z</time>
      </trkpt>
      <trkpt lat="43.58092" lon="2.91248">
        <ele>721</ele>
        <time>2017-04-16T03:27:49.000Z</time>
      </trkpt>
      <trkpt lat="43.58093" lon="2.91248">
        <ele>721.4</ele>
        <time>2017-04-16T03:27:50.000Z</time>
      </trkpt>
      <trkpt lat="43.58094" lon="2.91249">
        <ele>722</ele>
        <time>2017-04-16T03:27:52.000Z</time>
      </trkpt>
      <trkpt lat="43.58096" lon="2.91249">
        <ele>722.4</ele>
        <time>2017-04-16T03:27:54.000Z</time>
      </trkpt>
      <trkpt lat="43.58097" lon="2.91248">
        <ele>722.8</ele>
        <time>2017-04-16T03:27:56.000Z</time>
      </trkpt>
      <trkpt lat="43.58099" lon="2.91247">
        <ele>723.2</ele>
        <time>2017-04-16T03:27:58.000Z</time>
      </trkpt>
      <trkpt lat="43.58099" lon="2.91247">
        <ele>723.6</ele>
        <time>2017-04-16T03:27:59.000Z</time>
      </trkpt>
      <trkpt lat="43.58101" lon="2.91247">
        <ele>724.2</ele>
        <time>2017-04-16T03:28:01.000Z</time>
      </trkpt>
      <trkpt lat="43.58103" lon="2.91247">
        <ele>724.6</ele>
        <time>2017-04-16T03:28:03.000Z</time>
      </trkpt>
      <trkpt lat="43.58106" lon="2.91247">
        <ele>725</ele>
        <time>2017-04-16T03:28:05.000Z</time>
      </trkpt>
      <trkpt lat="43.58109" lon="2.91247">
        <ele>725.4</ele>
        <time>2017-04-16T03:28:07.000Z</time>
      </trkpt>
      <trkpt lat="43.58112" lon="2.91246">
        <ele>726</ele>
        <time>2017-04-16T03:28:10.000Z</time>
      </trkpt>
      <trkpt lat="43.58115" lon="2.91247">
        <ele>726.6</ele>
        <time>2017-04-16T03:28:12.000Z</time>
      </trkpt>
      <trkpt lat="43.58117" lon="2.91247">
        <ele>727</ele>
        <time>2017-04-16T03:28:14.000Z</time>
      </trkpt>
      <trkpt lat="43.58118" lon="2.91247">
        <ele>727.4</ele>
        <time>2017-04-16T03:28:16.000Z</time>
      </trkpt>
      <trkpt lat="43.5812" lon="2.91247">
        <ele>727.6</ele>
        <time>2017-04-16T03:28:18.000Z</time>
      </trkpt>
      <trkpt lat="43.58122" lon="2.91247">
        <ele>728.2</ele>
        <time>2017-04-16T03:28:21.000Z</time>
      </trkpt>
      <trkpt lat="43.58124" lon="2.91247">
        <ele>728.8</ele>
        <time>2017-04-16T03:28:23.000Z</time>
      </trkpt>
      <trkpt lat="43.58127" lon="2.91248">
        <ele>729.2</ele>
        <time>2017-04-16T03:28:25.000Z</time>
      </trkpt>
      <trkpt lat="43.5813" lon="2.91249">
        <ele>729.6</ele>
        <time>2017-04-16T03:28:27.000Z</time>
      </trkpt>
      <trkpt lat="43.58132" lon="2.9125">
        <ele>730</ele>
        <time>2017-04-16T03:28:29.000Z</time>
      </trkpt>
      <trkpt lat="43.58136" lon="2.91252">
        <ele>730.8</ele>
        <time>2017-04-16T03:28:38.000Z</time>
      </trkpt>
      <trkpt lat="43.58138" lon="2.91253">
        <ele>731</ele>
        <time>2017-04-16T03:28:41.000Z</time>
      </trkpt>
      <trkpt lat="43.58139" lon="2.91253">
        <ele>731.4</ele>
        <time>2017-04-16T03:28:43.000Z</time>
      </trkpt>
      <trkpt lat="43.58141" lon="2.91254">
        <ele>731.8</ele>
        <time>2017-04-16T03:28:45.000Z</time>
      </trkpt>
      <trkpt lat="43.58143" lon="2.91254">
        <ele>732</ele>
        <time>2017-04-16T03:28:47.000Z</time>
      </trkpt>
      <trkpt lat="43.58145" lon="2.91254">
        <ele>732.4</ele>
        <time>2017-04-16T03:28:49.000Z</time>
      </trkpt>
      <trkpt lat="43.5815" lon="2.91262">
        <ele>733</ele>
        <time>2017-04-16T03:28:58.000Z</time>
      </trkpt>
      <trkpt lat="43.5815" lon="2.91263">
        <ele>733</ele>
        <time>2017-04-16T03:28:59.000Z</time>
      </trkpt>
      <trkpt lat="43.58152" lon="2.91264">
        <ele>733.2</ele>
        <time>2017-04-16T03:29:02.000Z</time>
      </trkpt>
      <trkpt lat="43.58153" lon="2.91264">
        <ele>733.6</ele>
        <time>2017-04-16T03:29:03.000Z</time>
      </trkpt>
      <trkpt lat="43.58157" lon="2.91263">
        <ele>734.2</ele>
        <time>2017-04-16T03:29:06.000Z</time>
      </trkpt>
      <trkpt lat="43.58158" lon="2.91263">
        <ele>734.4</ele>
        <time>2017-04-16T03:29:07.000Z</time>
      </trkpt>
      <trkpt lat="43.58159" lon="2.91264">
        <ele>734.8</ele>
        <time>2017-04-16T03:29:08.000Z</time>
      </trkpt>
      <trkpt lat="43.58159" lon="2.91264">
        <ele>735.2</ele>
        <time>2017-04-16T03:29:09.000Z</time>
      </trkpt>
      <trkpt lat="43.58161" lon="2.91266">
        <ele>735.6</ele>
        <time>2017-04-16T03:29:11.000Z</time>
      </trkpt>
      <trkpt lat="43.58162" lon="2.91266">
        <ele>736</ele>
        <time>2017-04-16T03:29:13.000Z</time>
      </trkpt>
      <trkpt lat="43.58163" lon="2.91266">
        <ele>736.4</ele>
        <time>2017-04-16T03:29:14.000Z</time>
      </trkpt>
      <trkpt lat="43.58164" lon="2.91266">
        <ele>736.8</ele>
        <time>2017-04-16T03:29:15.000Z</time>
      </trkpt>
      <trkpt lat="43.58167" lon="2.91261">
        <ele>737.8</ele>
        <time>2017-04-16T03:29:18.000Z</time>
      </trkpt>
      <trkpt lat="43.58169" lon="2.91258">
        <ele>738.6</ele>
        <time>2017-04-16T03:29:20.000Z</time>
      </trkpt>
      <trkpt lat="43.5817" lon="2.91257">
        <ele>739.6</ele>
        <time>2017-04-16T03:29:22.000Z</time>
      </trkpt>
      <trkpt lat="43.58171" lon="2.91255">
        <ele>740.4</ele>
        <time>2017-04-16T03:29:24.000Z</time>
      </trkpt>
      <trkpt lat="43.58172" lon="2.91254">
        <ele>741.2</ele>
        <time>2017-04-16T03:29:26.000Z</time>
      </trkpt>
      <trkpt lat="43.58173" lon="2.91253">
        <ele>741.6</ele>
        <time>2017-04-16T03:29:27.000Z</time>
      </trkpt>
      <trkpt lat="43.58176" lon="2.91254">
        <ele>742.4</ele>
        <time>2017-04-16T03:29:30.000Z</time>
      </trkpt>
      <trkpt lat="43.58177" lon="2.91254">
        <ele>742.6</ele>
        <time>2017-04-16T03:29:31.000Z</time>
      </trkpt>
      <trkpt lat="43.5818" lon="2.91256">
        <ele>743</ele>
        <time>2017-04-16T03:29:34.000Z</time>
      </trkpt>
      <trkpt lat="43.58191" lon="2.91257">
        <ele>744</ele>
        <time>2017-04-16T03:29:44.000Z</time>
      </trkpt>
      <trkpt lat="43.58194" lon="2.91257">
        <ele>744.2</ele>
        <time>2017-04-16T03:29:46.000Z</time>
      </trkpt>
      <trkpt lat="43.58196" lon="2.91257">
        <ele>744.6</ele>
        <time>2017-04-16T03:29:48.000Z</time>
      </trkpt>
      <trkpt lat="43.58198" lon="2.91257">
        <ele>745</ele>
        <time>2017-04-16T03:29:50.000Z</time>
      </trkpt>
      <trkpt lat="43.58201" lon="2.91257">
        <ele>745.2</ele>
        <time>2017-04-16T03:29:52.000Z</time>
      </trkpt>
      <trkpt lat="43.58204" lon="2.91257">
        <ele>745.4</ele>
        <time>2017-04-16T03:29:54.000Z</time>
      </trkpt>
      <trkpt lat="43.58205" lon="2.91257">
        <ele>745.6</ele>
        <time>2017-04-16T03:29:55.000Z</time>
      </trkpt>
      <trkpt lat="43.5821" lon="2.91256">
        <ele>746</ele>
        <time>2017-04-16T03:30:02.000Z</time>
      </trkpt>
      <trkpt lat="43.58218" lon="2.91252">
        <ele>746.4</ele>
        <time>2017-04-16T03:30:10.000Z</time>
      </trkpt>
      <trkpt lat="43.5822" lon="2.91251">
        <ele>746.8</ele>
        <time>2017-04-16T03:30:12.000Z</time>
      </trkpt>
      <trkpt lat="43.58222" lon="2.9125">
        <ele>747.2</ele>
        <time>2017-04-16T03:30:14.000Z</time>
      </trkpt>
      <trkpt lat="43.58222" lon="2.9125">
        <ele>747.4</ele>
        <time>2017-04-16T03:30:15.000Z</time>
      </trkpt>
      <trkpt lat="43.58225" lon="2.91248">
        <ele>747.6</ele>
        <time>2017-04-16T03:30:18.000Z</time>
      </trkpt>
      <trkpt lat="43.58227" lon="2.91248">
        <ele>748.2</ele>
        <time>2017-04-16T03:30:21.000Z</time>
      </trkpt>
      <trkpt lat="43.58229" lon="2.91248">
        <ele>748.6</ele>
        <time>2017-04-16T03:30:23.000Z</time>
      </trkpt>
      <trkpt lat="43.5823" lon="2.91249">
        <ele>748.8</ele>
        <time>2017-04-16T03:30:24.000Z</time>
      </trkpt>
      <trkpt lat="43.5823" lon="2.91249">
        <ele>749</ele>
        <time>2017-04-16T03:30:25.000Z</time>
      </trkpt>
      <trkpt lat="43.58231" lon="2.9125">
        <ele>749.4</ele>
        <time>2017-04-16T03:30:27.000Z</time>
      </trkpt>
      <trkpt lat="43.58232" lon="2.91251">
        <ele>749.8</ele>
        <time>2017-04-16T03:30:28.000Z</time>
      </trkpt>
      <trkpt lat="43.58233" lon="2.91253">
        <ele>750.4</ele>
        <time>2017-04-16T03:30:30.000Z</time>
      </trkpt>
      <trkpt lat="43.58235" lon="2.91255">
        <ele>750.8</ele>
        <time>2017-04-16T03:30:32.000Z</time>
      </trkpt>
      <trkpt lat="43.58237" lon="2.91257">
        <ele>751.2</ele>
        <time>2017-04-16T03:30:34.000Z</time>
      </trkpt>
      <trkpt lat="43.58239" lon="2.91258">
        <ele>751.6</ele>
        <time>2017-04-16T03:30:36.000Z</time>
      </trkpt>
      <trkpt lat="43.58245" lon="2.91265">
        <ele>752.2</ele>
        <time>2017-04-16T03:30:42.000Z</time>
      </trkpt>
      <trkpt lat="43.58251" lon="2.91272">
        <ele>752.4</ele>
        <time>2017-04-16T03:30:47.000Z</time>
      </trkpt>
      <trkpt lat="43.58256" lon="2.91277">
        <ele>752.6</ele>
        <time>2017-04-16T03:30:51.000Z</time>
      </trkpt>
      <trkpt lat="43.58259" lon="2.91282">
        <ele>752.8</ele>
        <time>2017-04-16T03:30:55.000Z</time>
      </trkpt>
      <trkpt lat="43.58261" lon="2.91283">
        <ele>753</ele>
        <time>2017-04-16T03:30:59.000Z</time>
      </trkpt>
      <trkpt lat="43.58263" lon="2.91284">
        <ele>753.4</ele>
        <time>2017-04-16T03:31:01.000Z</time>
      </trkpt>
      <trkpt lat="43.58265" lon="2.91284">
        <ele>753.8</ele>
        <time>2017-04-16T03:31:03.000Z</time>
      </trkpt>
      <trkpt lat="43.58266" lon="2.91284">
        <ele>753.8</ele>
        <time>2017-04-16T03:31:04.000Z</time>
      </trkpt>
      <trkpt lat="43.58268" lon="2.91284">
        <ele>754</ele>
        <time>2017-04-16T03:31:05.000Z</time>
      </trkpt>
      <trkpt lat="43.58269" lon="2.91285">
        <ele>754</ele>
        <time>2017-04-16T03:31:06.000Z</time>
      </trkpt>
      <trkpt lat="43.5827" lon="2.91285">
        <ele>754.2</ele>
        <time>2017-04-16T03:31:07.000Z</time>
      </trkpt>
      <trkpt lat="43.58274" lon="2.91287">
        <ele>754.8</ele>
        <time>2017-04-16T03:31:13.000Z</time>
      </trkpt>
      <trkpt lat="43.58275" lon="2.91288">
        <ele>755.2</ele>
        <time>2017-04-16T03:31:15.000Z</time>
      </trkpt>
      <trkpt lat="43.58275" lon="2.91288">
        <ele>755.6</ele>
        <time>2017-04-16T03:31:17.000Z</time>
      </trkpt>
      <trkpt lat="43.58276" lon="2.91288">
        <ele>755.8</ele>
        <time>2017-04-16T03:31:19.000Z</time>
      </trkpt>
      <trkpt lat="43.58278" lon="2.9129">
        <ele>756.2</ele>
        <time>2017-04-16T03:31:21.000Z</time>
      </trkpt>
      <trkpt lat="43.58282" lon="2.91294">
        <ele>756.6</ele>
        <time>2017-04-16T03:31:27.000Z</time>
      </trkpt>
      <trkpt lat="43.58283" lon="2.91297">
        <ele>756.8</ele>
        <time>2017-04-16T03:31:29.000Z</time>
      </trkpt>
      <trkpt lat="43.58284" lon="2.91299">
        <ele>757.4</ele>
        <time>2017-04-16T03:31:31.000Z</time>
      </trkpt>
      <trkpt lat="43.58285" lon="2.913">
        <ele>757.6</ele>
        <time>2017-04-16T03:31:32.000Z</time>
      </trkpt>
      <trkpt lat="43.58286" lon="2.913">
        <ele>757.8</ele>
        <time>2017-04-16T03:31:33.000Z</time>
      </trkpt>
      <trkpt lat="43.58288" lon="2.91301">
        <ele>758</ele>
        <time>2017-04-16T03:31:35.000Z</time>
      </trkpt>
      <trkpt lat="43.58289" lon="2.913">
        <ele>758.2</ele>
        <time>2017-04-16T03:31:37.000Z</time>
      </trkpt>
      <trkpt lat="43.58291" lon="2.91298">
        <ele>758.6</ele>
        <time>2017-04-16T03:31:40.000Z</time>
      </trkpt>
      <trkpt lat="43.58293" lon="2.91299">
        <ele>758.8</ele>
        <time>2017-04-16T03:31:43.000Z</time>
      </trkpt>
      <trkpt lat="43.58293" lon="2.91299">
        <ele>759</ele>
        <time>2017-04-16T03:31:44.000Z</time>
      </trkpt>
      <trkpt lat="43.58295" lon="2.913">
        <ele>759.6</ele>
        <time>2017-04-16T03:31:46.000Z</time>
      </trkpt>
      <trkpt lat="43.58296" lon="2.91301">
        <ele>760.2</ele>
        <time>2017-04-16T03:31:48.000Z</time>
      </trkpt>
      <trkpt lat="43.58297" lon="2.91302">
        <ele>760.8</ele>
        <time>2017-04-16T03:31:50.000Z</time>
      </trkpt>
      <trkpt lat="43.58298" lon="2.91302">
        <ele>761.6</ele>
        <time>2017-04-16T03:31:52.000Z</time>
      </trkpt>
      <trkpt lat="43.583" lon="2.91303">
        <ele>762.4</ele>
        <time>2017-04-16T03:31:54.000Z</time>
      </trkpt>
      <trkpt lat="43.58301" lon="2.91303">
        <ele>763.2</ele>
        <time>2017-04-16T03:31:56.000Z</time>
      </trkpt>
      <trkpt lat="43.58301" lon="2.91303">
        <ele>763.6</ele>
        <time>2017-04-16T03:31:57.000Z</time>
      </trkpt>
      <trkpt lat="43.58303" lon="2.91302">
        <ele>764.6</ele>
        <time>2017-04-16T03:31:59.000Z</time>
      </trkpt>
      <trkpt lat="43.58305" lon="2.91302">
        <ele>765.2</ele>
        <time>2017-04-16T03:32:01.000Z</time>
      </trkpt>
      <trkpt lat="43.58306" lon="2.91301">
        <ele>765.8</ele>
        <time>2017-04-16T03:32:03.000Z</time>
      </trkpt>
      <trkpt lat="43.58307" lon="2.91301">
        <ele>766.2</ele>
        <time>2017-04-16T03:32:04.000Z</time>
      </trkpt>
      <trkpt lat="43.58309" lon="2.913">
        <ele>767</ele>
        <time>2017-04-16T03:32:06.000Z</time>
      </trkpt>
      <trkpt lat="43.58311" lon="2.91299">
        <ele>767.6</ele>
        <time>2017-04-16T03:32:08.000Z</time>
      </trkpt>
      <trkpt lat="43.58313" lon="2.91299">
        <ele>768</ele>
        <time>2017-04-16T03:32:10.000Z</time>
      </trkpt>
      <trkpt lat="43.58314" lon="2.91298">
        <ele>768.6</ele>
        <time>2017-04-16T03:32:12.000Z</time>
      </trkpt>
      <trkpt lat="43.58315" lon="2.91298">
        <ele>769.4</ele>
        <time>2017-04-16T03:32:14.000Z</time>
      </trkpt>
      <trkpt lat="43.58317" lon="2.91297">
        <ele>770</ele>
        <time>2017-04-16T03:32:16.000Z</time>
      </trkpt>
      <trkpt lat="43.58319" lon="2.91296">
        <ele>770.4</ele>
        <time>2017-04-16T03:32:18.000Z</time>
      </trkpt>
      <trkpt lat="43.58321" lon="2.91295">
        <ele>770.8</ele>
        <time>2017-04-16T03:32:20.000Z</time>
      </trkpt>
      <trkpt lat="43.58332" lon="2.91289">
        <ele>771.8</ele>
        <time>2017-04-16T03:32:33.000Z</time>
      </trkpt>
      <trkpt lat="43.58334" lon="2.91288">
        <ele>772.2</ele>
        <time>2017-04-16T03:32:35.000Z</time>
      </trkpt>
      <trkpt lat="43.58335" lon="2.91288">
        <ele>772.4</ele>
        <time>2017-04-16T03:32:36.000Z</time>
      </trkpt>
      <trkpt lat="43.58336" lon="2.91288">
        <ele>772.6</ele>
        <time>2017-04-16T03:32:37.000Z</time>
      </trkpt>
      <trkpt lat="43.58338" lon="2.91288">
        <ele>773</ele>
        <time>2017-04-16T03:32:39.000Z</time>
      </trkpt>
      <trkpt lat="43.58339" lon="2.91288">
        <ele>773.2</ele>
        <time>2017-04-16T03:32:41.000Z</time>
      </trkpt>
      <trkpt lat="43.5834" lon="2.91287">
        <ele>773.4</ele>
        <time>2017-04-16T03:32:43.000Z</time>
      </trkpt>
      <trkpt lat="43.58349" lon="2.91282">
        <ele>774</ele>
        <time>2017-04-16T03:32:54.000Z</time>
      </trkpt>
      <trkpt lat="43.58352" lon="2.9128">
        <ele>774.4</ele>
        <time>2017-04-16T03:32:57.000Z</time>
      </trkpt>
      <trkpt lat="43.58354" lon="2.9128">
        <ele>774.8</ele>
        <time>2017-04-16T03:32:59.000Z</time>
      </trkpt>
      <trkpt lat="43.58355" lon="2.9128">
        <ele>775.2</ele>
        <time>2017-04-16T03:33:01.000Z</time>
      </trkpt>
      <trkpt lat="43.58357" lon="2.91279">
        <ele>775.4</ele>
        <time>2017-04-16T03:33:03.000Z</time>
      </trkpt>
      <trkpt lat="43.58359" lon="2.91278">
        <ele>775.8</ele>
        <time>2017-04-16T03:33:05.000Z</time>
      </trkpt>
      <trkpt lat="43.5836" lon="2.91278">
        <ele>776</ele>
        <time>2017-04-16T03:33:06.000Z</time>
      </trkpt>
      <trkpt lat="43.58361" lon="2.91277">
        <ele>776.6</ele>
        <time>2017-04-16T03:33:08.000Z</time>
      </trkpt>
      <trkpt lat="43.58363" lon="2.91277">
        <ele>777</ele>
        <time>2017-04-16T03:33:10.000Z</time>
      </trkpt>
      <trkpt lat="43.58364" lon="2.91276">
        <ele>777.4</ele>
        <time>2017-04-16T03:33:12.000Z</time>
      </trkpt>
      <trkpt lat="43.58367" lon="2.91276">
        <ele>777.6</ele>
        <time>2017-04-16T03:33:14.000Z</time>
      </trkpt>
      <trkpt lat="43.5837" lon="2.91276">
        <ele>778.2</ele>
        <time>2017-04-16T03:33:17.000Z</time>
      </trkpt>
      <trkpt lat="43.58372" lon="2.91276">
        <ele>778.6</ele>
        <time>2017-04-16T03:33:19.000Z</time>
      </trkpt>
      <trkpt lat="43.58373" lon="2.91274">
        <ele>779</ele>
        <time>2017-04-16T03:33:21.000Z</time>
      </trkpt>
      <trkpt lat="43.58375" lon="2.91274">
        <ele>779.4</ele>
        <time>2017-04-16T03:33:23.000Z</time>
      </trkpt>
      <trkpt lat="43.58377" lon="2.91276">
        <ele>779.8</ele>
        <time>2017-04-16T03:33:25.000Z</time>
      </trkpt>
      <trkpt lat="43.58383" lon="2.91277">
        <ele>780.2</ele>
        <time>2017-04-16T03:33:31.000Z</time>
      </trkpt>
      <trkpt lat="43.58395" lon="2.91273">
        <ele>780.6</ele>
        <time>2017-04-16T03:33:38.000Z</time>
      </trkpt>
      <trkpt lat="43.58406" lon="2.91268">
        <ele>780.8</ele>
        <time>2017-04-16T03:33:43.000Z</time>
      </trkpt>
      <trkpt lat="43.58427" lon="2.91259">
        <ele>780.8</ele>
        <time>2017-04-16T03:33:50.000Z</time>
      </trkpt>
      <trkpt lat="43.5844" lon="2.91249">
        <ele>780.8</ele>
        <time>2017-04-16T03:33:55.000Z</time>
      </trkpt>
      <trkpt lat="43.58443" lon="2.91243">
        <ele>781</ele>
        <time>2017-04-16T03:33:57.000Z</time>
      </trkpt>
      <trkpt lat="43.58446" lon="2.91239">
        <ele>781.4</ele>
        <time>2017-04-16T03:33:59.000Z</time>
      </trkpt>
      <trkpt lat="43.58448" lon="2.91236">
        <ele>781.8</ele>
        <time>2017-04-16T03:34:01.000Z</time>
      </trkpt>
      <trkpt lat="43.58449" lon="2.91236">
        <ele>781.8</ele>
        <time>2017-04-16T03:34:02.000Z</time>
      </trkpt>
      <trkpt lat="43.58451" lon="2.91234">
        <ele>782</ele>
        <time>2017-04-16T03:34:03.000Z</time>
      </trkpt>
      <trkpt lat="43.58452" lon="2.91233">
        <ele>782.2</ele>
        <time>2017-04-16T03:34:04.000Z</time>
      </trkpt>
      <trkpt lat="43.58455" lon="2.91233">
        <ele>782.8</ele>
        <time>2017-04-16T03:34:06.000Z</time>
      </trkpt>
      <trkpt lat="43.58459" lon="2.91232">
        <ele>783.2</ele>
        <time>2017-04-16T03:34:08.000Z</time>
      </trkpt>
      <trkpt lat="43.58462" lon="2.91231">
        <ele>783.6</ele>
        <time>2017-04-16T03:34:10.000Z</time>
      </trkpt>
      <trkpt lat="43.58463" lon="2.91231">
        <ele>783.8</ele>
        <time>2017-04-16T03:34:11.000Z</time>
      </trkpt>
      <trkpt lat="43.5847" lon="2.91226">
        <ele>784.4</ele>
        <time>2017-04-16T03:34:17.000Z</time>
      </trkpt>
      <trkpt lat="43.58472" lon="2.91225">
        <ele>784.4</ele>
        <time>2017-04-16T03:34:18.000Z</time>
      </trkpt>
      <trkpt lat="43.58479" lon="2.91223">
        <ele>785</ele>
        <time>2017-04-16T03:34:23.000Z</time>
      </trkpt>
      <trkpt lat="43.58482" lon="2.91222">
        <ele>785.4</ele>
        <time>2017-04-16T03:34:25.000Z</time>
      </trkpt>
      <trkpt lat="43.58485" lon="2.9122">
        <ele>785.6</ele>
        <time>2017-04-16T03:34:27.000Z</time>
      </trkpt>
      <trkpt lat="43.58487" lon="2.91221">
        <ele>785.8</ele>
        <time>2017-04-16T03:34:28.000Z</time>
      </trkpt>
      <trkpt lat="43.58488" lon="2.91221">
        <ele>786</ele>
        <time>2017-04-16T03:34:29.000Z</time>
      </trkpt>
      <trkpt lat="43.58489" lon="2.91219">
        <ele>786.2</ele>
        <time>2017-04-16T03:34:30.000Z</time>
      </trkpt>
      <trkpt lat="43.58492" lon="2.91218">
        <ele>786.8</ele>
        <time>2017-04-16T03:34:32.000Z</time>
      </trkpt>
      <trkpt lat="43.58495" lon="2.91217">
        <ele>787.4</ele>
        <time>2017-04-16T03:34:34.000Z</time>
      </trkpt>
      <trkpt lat="43.58497" lon="2.91215">
        <ele>787.8</ele>
        <time>2017-04-16T03:34:36.000Z</time>
      </trkpt>
      <trkpt lat="43.58499" lon="2.91214">
        <ele>788</ele>
        <time>2017-04-16T03:34:38.000Z</time>
      </trkpt>
      <trkpt lat="43.58502" lon="2.91214">
        <ele>788.6</ele>
        <time>2017-04-16T03:34:40.000Z</time>
      </trkpt>
      <trkpt lat="43.58503" lon="2.91214">
        <ele>788.8</ele>
        <time>2017-04-16T03:34:41.000Z</time>
      </trkpt>
      <trkpt lat="43.58507" lon="2.91213">
        <ele>789.6</ele>
        <time>2017-04-16T03:34:44.000Z</time>
      </trkpt>
      <trkpt lat="43.5851" lon="2.91212">
        <ele>790</ele>
        <time>2017-04-16T03:34:46.000Z</time>
      </trkpt>
      <trkpt lat="43.58512" lon="2.91211">
        <ele>790.2</ele>
        <time>2017-04-16T03:34:48.000Z</time>
      </trkpt>
      <trkpt lat="43.58513" lon="2.91209">
        <ele>790.8</ele>
        <time>2017-04-16T03:34:50.000Z</time>
      </trkpt>
      <trkpt lat="43.58515" lon="2.91208">
        <ele>791.4</ele>
        <time>2017-04-16T03:34:52.000Z</time>
      </trkpt>
      <trkpt lat="43.58516" lon="2.91206">
        <ele>791.8</ele>
        <time>2017-04-16T03:34:54.000Z</time>
      </trkpt>
      <trkpt lat="43.58519" lon="2.91205">
        <ele>792.2</ele>
        <time>2017-04-16T03:34:56.000Z</time>
      </trkpt>
      <trkpt lat="43.58521" lon="2.91204">
        <ele>792.6</ele>
        <time>2017-04-16T03:34:58.000Z</time>
      </trkpt>
      <trkpt lat="43.58523" lon="2.91203">
        <ele>792.8</ele>
        <time>2017-04-16T03:34:59.000Z</time>
      </trkpt>
      <trkpt lat="43.58525" lon="2.91203">
        <ele>793.4</ele>
        <time>2017-04-16T03:35:01.000Z</time>
      </trkpt>
      <trkpt lat="43.58528" lon="2.91203">
        <ele>794</ele>
        <time>2017-04-16T03:35:03.000Z</time>
      </trkpt>
      <trkpt lat="43.58531" lon="2.91202">
        <ele>794.4</ele>
        <time>2017-04-16T03:35:05.000Z</time>
      </trkpt>
      <trkpt lat="43.58534" lon="2.91201">
        <ele>794.6</ele>
        <time>2017-04-16T03:35:07.000Z</time>
      </trkpt>
      <trkpt lat="43.58539" lon="2.91198">
        <ele>795.2</ele>
        <time>2017-04-16T03:35:11.000Z</time>
      </trkpt>
      <trkpt lat="43.58544" lon="2.91199">
        <ele>795.6</ele>
        <time>2017-04-16T03:35:16.000Z</time>
      </trkpt>
      <trkpt lat="43.58545" lon="2.91198">
        <ele>796</ele>
        <time>2017-04-16T03:35:17.000Z</time>
      </trkpt>
      <trkpt lat="43.58546" lon="2.91198">
        <ele>796.2</ele>
        <time>2017-04-16T03:35:18.000Z</time>
      </trkpt>
      <trkpt lat="43.58549" lon="2.91197">
        <ele>796.6</ele>
        <time>2017-04-16T03:35:20.000Z</time>
      </trkpt>
      <trkpt lat="43.5855" lon="2.91197">
        <ele>796.8</ele>
        <time>2017-04-16T03:35:21.000Z</time>
      </trkpt>
      <trkpt lat="43.58551" lon="2.91196">
        <ele>796.8</ele>
        <time>2017-04-16T03:35:22.000Z</time>
      </trkpt>
      <trkpt lat="43.58552" lon="2.91195">
        <ele>797.2</ele>
        <time>2017-04-16T03:35:24.000Z</time>
      </trkpt>
      <trkpt lat="43.58553" lon="2.91192">
        <ele>797.6</ele>
        <time>2017-04-16T03:35:27.000Z</time>
      </trkpt>
      <trkpt lat="43.58555" lon="2.91192">
        <ele>798.2</ele>
        <time>2017-04-16T03:35:29.000Z</time>
      </trkpt>
      <trkpt lat="43.58557" lon="2.91192">
        <ele>798.6</ele>
        <time>2017-04-16T03:35:31.000Z</time>
      </trkpt>
      <trkpt lat="43.58558" lon="2.91193">
        <ele>798.8</ele>
        <time>2017-04-16T03:35:32.000Z</time>
      </trkpt>
      <trkpt lat="43.5856" lon="2.91193">
        <ele>798.8</ele>
        <time>2017-04-16T03:35:33.000Z</time>
      </trkpt>
      <trkpt lat="43.58563" lon="2.91192">
        <ele>799.4</ele>
        <time>2017-04-16T03:35:35.000Z</time>
      </trkpt>
      <trkpt lat="43.58566" lon="2.9119">
        <ele>800</ele>
        <time>2017-04-16T03:35:37.000Z</time>
      </trkpt>
      <trkpt lat="43.58568" lon="2.91189">
        <ele>800.4</ele>
        <time>2017-04-16T03:35:39.000Z</time>
      </trkpt>
      <trkpt lat="43.5857" lon="2.91187">
        <ele>801</ele>
        <time>2017-04-16T03:35:41.000Z</time>
      </trkpt>
      <trkpt lat="43.58573" lon="2.91187">
        <ele>801.8</ele>
        <time>2017-04-16T03:35:43.000Z</time>
      </trkpt>
      <trkpt lat="43.58575" lon="2.91187">
        <ele>802.4</ele>
        <time>2017-04-16T03:35:45.000Z</time>
      </trkpt>
      <trkpt lat="43.58577" lon="2.91187">
        <ele>802.8</ele>
        <time>2017-04-16T03:35:47.000Z</time>
      </trkpt>
      <trkpt lat="43.58579" lon="2.91186">
        <ele>803.2</ele>
        <time>2017-04-16T03:35:49.000Z</time>
      </trkpt>
      <trkpt lat="43.58581" lon="2.91186">
        <ele>803.4</ele>
        <time>2017-04-16T03:35:50.000Z</time>
      </trkpt>
      <trkpt lat="43.58584" lon="2.91186">
        <ele>804</ele>
        <time>2017-04-16T03:35:52.000Z</time>
      </trkpt>
      <trkpt lat="43.58587" lon="2.91185">
        <ele>804.6</ele>
        <time>2017-04-16T03:35:54.000Z</time>
      </trkpt>
      <trkpt lat="43.5859" lon="2.91184">
        <ele>805</ele>
        <time>2017-04-16T03:35:56.000Z</time>
      </trkpt>
      <trkpt lat="43.58593" lon="2.91184">
        <ele>805.4</ele>
        <time>2017-04-16T03:35:58.000Z</time>
      </trkpt>
      <trkpt lat="43.58597" lon="2.91183">
        <ele>805.8</ele>
        <time>2017-04-16T03:36:01.000Z</time>
      </trkpt>
      <trkpt lat="43.586" lon="2.91183">
        <ele>806.6</ele>
        <time>2017-04-16T03:36:04.000Z</time>
      </trkpt>
      <trkpt lat="43.58603" lon="2.91182">
        <ele>807</ele>
        <time>2017-04-16T03:36:06.000Z</time>
      </trkpt>
      <trkpt lat="43.58605" lon="2.91182">
        <ele>807.4</ele>
        <time>2017-04-16T03:36:08.000Z</time>
      </trkpt>
      <trkpt lat="43.58607" lon="2.91181">
        <ele>807.6</ele>
        <time>2017-04-16T03:36:10.000Z</time>
      </trkpt>
      <trkpt lat="43.58612" lon="2.91179">
        <ele>808.2</ele>
        <time>2017-04-16T03:36:14.000Z</time>
      </trkpt>
      <trkpt lat="43.58615" lon="2.91177">
        <ele>808.8</ele>
        <time>2017-04-16T03:36:16.000Z</time>
      </trkpt>
      <trkpt lat="43.58617" lon="2.91175">
        <ele>809.2</ele>
        <time>2017-04-16T03:36:18.000Z</time>
      </trkpt>
      <trkpt lat="43.58619" lon="2.91173">
        <ele>809.4</ele>
        <time>2017-04-16T03:36:20.000Z</time>
      </trkpt>
      <trkpt lat="43.58621" lon="2.91172">
        <ele>809.8</ele>
        <time>2017-04-16T03:36:22.000Z</time>
      </trkpt>
      <trkpt lat="43.58627" lon="2.91172">
        <ele>810.4</ele>
        <time>2017-04-16T03:36:26.000Z</time>
      </trkpt>
      <trkpt lat="43.5863" lon="2.91173">
        <ele>810.8</ele>
        <time>2017-04-16T03:36:28.000Z</time>
      </trkpt>
      <trkpt lat="43.58633" lon="2.91173">
        <ele>811.2</ele>
        <time>2017-04-16T03:36:30.000Z</time>
      </trkpt>
      <trkpt lat="43.58636" lon="2.91173">
        <ele>811.6</ele>
        <time>2017-04-16T03:36:32.000Z</time>
      </trkpt>
      <trkpt lat="43.5864" lon="2.91173">
        <ele>811.8</ele>
        <time>2017-04-16T03:36:34.000Z</time>
      </trkpt>
      <trkpt lat="43.5865" lon="2.91174">
        <ele>812.6</ele>
        <time>2017-04-16T03:36:40.000Z</time>
      </trkpt>
      <trkpt lat="43.58653" lon="2.91174">
        <ele>813</ele>
        <time>2017-04-16T03:36:42.000Z</time>
      </trkpt>
      <trkpt lat="43.58656" lon="2.91175">
        <ele>813.4</ele>
        <time>2017-04-16T03:36:44.000Z</time>
      </trkpt>
      <trkpt lat="43.58658" lon="2.91176">
        <ele>813.8</ele>
        <time>2017-04-16T03:36:46.000Z</time>
      </trkpt>
      <trkpt lat="43.58661" lon="2.91177">
        <ele>814</ele>
        <time>2017-04-16T03:36:48.000Z</time>
      </trkpt>
      <trkpt lat="43.58663" lon="2.91178">
        <ele>814.4</ele>
        <time>2017-04-16T03:36:50.000Z</time>
      </trkpt>
      <trkpt lat="43.58666" lon="2.91179">
        <ele>815</ele>
        <time>2017-04-16T03:36:52.000Z</time>
      </trkpt>
      <trkpt lat="43.58668" lon="2.9118">
        <ele>815.4</ele>
        <time>2017-04-16T03:36:54.000Z</time>
      </trkpt>
      <trkpt lat="43.5867" lon="2.91182">
        <ele>815.8</ele>
        <time>2017-04-16T03:36:56.000Z</time>
      </trkpt>
      <trkpt lat="43.58672" lon="2.91183">
        <ele>816</ele>
        <time>2017-04-16T03:36:58.000Z</time>
      </trkpt>
      <trkpt lat="43.58673" lon="2.91185">
        <ele>816.2</ele>
        <time>2017-04-16T03:36:59.000Z</time>
      </trkpt>
      <trkpt lat="43.5868" lon="2.91192">
        <ele>816.6</ele>
        <time>2017-04-16T03:37:04.000Z</time>
      </trkpt>
      <trkpt lat="43.58683" lon="2.91193">
        <ele>817</ele>
        <time>2017-04-16T03:37:06.000Z</time>
      </trkpt>
      <trkpt lat="43.58686" lon="2.91196">
        <ele>817.4</ele>
        <time>2017-04-16T03:37:08.000Z</time>
      </trkpt>
      <trkpt lat="43.58688" lon="2.91199">
        <ele>817.8</ele>
        <time>2017-04-16T03:37:10.000Z</time>
      </trkpt>
      <trkpt lat="43.5869" lon="2.91204">
        <ele>818</ele>
        <time>2017-04-16T03:37:12.000Z</time>
      </trkpt>
      <trkpt lat="43.58691" lon="2.91209">
        <ele>818.4</ele>
        <time>2017-04-16T03:37:14.000Z</time>
      </trkpt>
      <trkpt lat="43.58693" lon="2.91212">
        <ele>818.4</ele>
        <time>2017-04-16T03:37:15.000Z</time>
      </trkpt>
      <trkpt lat="43.58697" lon="2.91225">
        <ele>818.8</ele>
        <time>2017-04-16T03:37:20.000Z</time>
      </trkpt>
      <trkpt lat="43.58701" lon="2.91238">
        <ele>819</ele>
        <time>2017-04-16T03:37:25.000Z</time>
      </trkpt>
      <trkpt lat="43.58703" lon="2.91247">
        <ele>819.2</ele>
        <time>2017-04-16T03:37:29.000Z</time>
      </trkpt>
      <trkpt lat="43.58709" lon="2.91255">
        <ele>819.2</ele>
        <time>2017-04-16T03:37:34.000Z</time>
      </trkpt>
      <trkpt lat="43.58711" lon="2.91257">
        <ele>819.6</ele>
        <time>2017-04-16T03:37:36.000Z</time>
      </trkpt>
      <trkpt lat="43.58712" lon="2.91258">
        <ele>819.8</ele>
        <time>2017-04-16T03:37:37.000Z</time>
      </trkpt>
      <trkpt lat="43.58713" lon="2.91259">
        <ele>820.2</ele>
        <time>2017-04-16T03:37:39.000Z</time>
      </trkpt>
      <trkpt lat="43.58712" lon="2.91261">
        <ele>820.4</ele>
        <time>2017-04-16T03:37:41.000Z</time>
      </trkpt>
      <trkpt lat="43.58712" lon="2.91262">
        <ele>820.6</ele>
        <time>2017-04-16T03:37:42.000Z</time>
      </trkpt>
      <trkpt lat="43.58712" lon="2.91262">
        <ele>820.6</ele>
        <time>2017-04-16T03:37:43.000Z</time>
      </trkpt>
      <trkpt lat="43.58713" lon="2.91265">
        <ele>821</ele>
        <time>2017-04-16T03:37:45.000Z</time>
      </trkpt>
      <trkpt lat="43.58714" lon="2.91267">
        <ele>821.4</ele>
        <time>2017-04-16T03:37:47.000Z</time>
      </trkpt>
      <trkpt lat="43.58716" lon="2.91269">
        <ele>821.8</ele>
        <time>2017-04-16T03:37:49.000Z</time>
      </trkpt>
      <trkpt lat="43.58717" lon="2.9127">
        <ele>822</ele>
        <time>2017-04-16T03:37:50.000Z</time>
      </trkpt>
      <trkpt lat="43.58717" lon="2.91272">
        <ele>822.2</ele>
        <time>2017-04-16T03:37:51.000Z</time>
      </trkpt>
      <trkpt lat="43.58717" lon="2.91275">
        <ele>822.4</ele>
        <time>2017-04-16T03:37:53.000Z</time>
      </trkpt>
      <trkpt lat="43.58718" lon="2.9128">
        <ele>823</ele>
        <time>2017-04-16T03:37:56.000Z</time>
      </trkpt>
      <trkpt lat="43.58719" lon="2.91282">
        <ele>823.6</ele>
        <time>2017-04-16T03:37:58.000Z</time>
      </trkpt>
      <trkpt lat="43.5872" lon="2.91284">
        <ele>824</ele>
        <time>2017-04-16T03:38:00.000Z</time>
      </trkpt>
      <trkpt lat="43.5872" lon="2.91286">
        <ele>824.2</ele>
        <time>2017-04-16T03:38:02.000Z</time>
      </trkpt>
      <trkpt lat="43.58721" lon="2.91287">
        <ele>824.4</ele>
        <time>2017-04-16T03:38:03.000Z</time>
      </trkpt>
      <trkpt lat="43.58724" lon="2.91292">
        <ele>825</ele>
        <time>2017-04-16T03:38:07.000Z</time>
      </trkpt>
      <trkpt lat="43.58728" lon="2.91296">
        <ele>825.2</ele>
        <time>2017-04-16T03:38:11.000Z</time>
      </trkpt>
      <trkpt lat="43.58735" lon="2.91302">
        <ele>825.6</ele>
        <time>2017-04-16T03:38:18.000Z</time>
      </trkpt>
      <trkpt lat="43.58739" lon="2.91305">
        <ele>825.8</ele>
        <time>2017-04-16T03:38:21.000Z</time>
      </trkpt>
      <trkpt lat="43.58742" lon="2.91307">
        <ele>826.2</ele>
        <time>2017-04-16T03:38:23.000Z</time>
      </trkpt>
      <trkpt lat="43.58745" lon="2.91309">
        <ele>826.6</ele>
        <time>2017-04-16T03:38:25.000Z</time>
      </trkpt>
      <trkpt lat="43.58749" lon="2.9131">
        <ele>826.8</ele>
        <time>2017-04-16T03:38:27.000Z</time>
      </trkpt>
      <trkpt lat="43.58753" lon="2.91311">
        <ele>827</ele>
        <time>2017-04-16T03:38:29.000Z</time>
      </trkpt>
      <trkpt lat="43.58767" lon="2.91311">
        <ele>827.4</ele>
        <time>2017-04-16T03:38:36.000Z</time>
      </trkpt>
      <trkpt lat="43.58776" lon="2.91311">
        <ele>827.8</ele>
        <time>2017-04-16T03:38:41.000Z</time>
      </trkpt>
      <trkpt lat="43.5878" lon="2.91311">
        <ele>828.2</ele>
        <time>2017-04-16T03:38:43.000Z</time>
      </trkpt>
      <trkpt lat="43.58784" lon="2.91311">
        <ele>828.6</ele>
        <time>2017-04-16T03:38:45.000Z</time>
      </trkpt>
      <trkpt lat="43.58788" lon="2.91311">
        <ele>828.8</ele>
        <time>2017-04-16T03:38:47.000Z</time>
      </trkpt>
      <trkpt lat="43.58791" lon="2.91311">
        <ele>829</ele>
        <time>2017-04-16T03:38:49.000Z</time>
      </trkpt>
      <trkpt lat="43.58795" lon="2.91309">
        <ele>829.6</ele>
        <time>2017-04-16T03:38:53.000Z</time>
      </trkpt>
      <trkpt lat="43.58796" lon="2.91307">
        <ele>830</ele>
        <time>2017-04-16T03:38:55.000Z</time>
      </trkpt>
      <trkpt lat="43.58799" lon="2.91305">
        <ele>830.4</ele>
        <time>2017-04-16T03:38:57.000Z</time>
      </trkpt>
      <trkpt lat="43.588" lon="2.91304">
        <ele>830.6</ele>
        <time>2017-04-16T03:38:58.000Z</time>
      </trkpt>
      <trkpt lat="43.58804" lon="2.91302">
        <ele>831.2</ele>
        <time>2017-04-16T03:39:01.000Z</time>
      </trkpt>
      <trkpt lat="43.58808" lon="2.91302">
        <ele>831.8</ele>
        <time>2017-04-16T03:39:03.000Z</time>
      </trkpt>
      <trkpt lat="43.58811" lon="2.91301">
        <ele>832.2</ele>
        <time>2017-04-16T03:39:05.000Z</time>
      </trkpt>
      <trkpt lat="43.58812" lon="2.91301">
        <ele>832.4</ele>
        <time>2017-04-16T03:39:06.000Z</time>
      </trkpt>
      <trkpt lat="43.58813" lon="2.91301">
        <ele>832.6</ele>
        <time>2017-04-16T03:39:07.000Z</time>
      </trkpt>
      <trkpt lat="43.58815" lon="2.91301">
        <ele>832.8</ele>
        <time>2017-04-16T03:39:08.000Z</time>
      </trkpt>
      <trkpt lat="43.58816" lon="2.91301">
        <ele>833</ele>
        <time>2017-04-16T03:39:09.000Z</time>
      </trkpt>
      <trkpt lat="43.58816" lon="2.913">
        <ele>833</ele>
        <time>2017-04-16T03:39:10.000Z</time>
      </trkpt>
      <trkpt lat="43.58817" lon="2.913">
        <ele>833.4</ele>
        <time>2017-04-16T03:39:12.000Z</time>
      </trkpt>
      <trkpt lat="43.58819" lon="2.91298">
        <ele>834</ele>
        <time>2017-04-16T03:39:14.000Z</time>
      </trkpt>
      <trkpt lat="43.58821" lon="2.91296">
        <ele>834.4</ele>
        <time>2017-04-16T03:39:16.000Z</time>
      </trkpt>
      <trkpt lat="43.58825" lon="2.91295">
        <ele>834.8</ele>
        <time>2017-04-16T03:39:18.000Z</time>
      </trkpt>
      <trkpt lat="43.58827" lon="2.91294">
        <ele>835</ele>
        <time>2017-04-16T03:39:20.000Z</time>
      </trkpt>
      <trkpt lat="43.58831" lon="2.91292">
        <ele>835.4</ele>
        <time>2017-04-16T03:39:22.000Z</time>
      </trkpt>
      <trkpt lat="43.58833" lon="2.91291">
        <ele>835.8</ele>
        <time>2017-04-16T03:39:23.000Z</time>
      </trkpt>
      <trkpt lat="43.58837" lon="2.91288">
        <ele>836.4</ele>
        <time>2017-04-16T03:39:26.000Z</time>
      </trkpt>
      <trkpt lat="43.58839" lon="2.91286">
        <ele>836.8</ele>
        <time>2017-04-16T03:39:28.000Z</time>
      </trkpt>
      <trkpt lat="43.5884" lon="2.91286">
        <ele>837</ele>
        <time>2017-04-16T03:39:30.000Z</time>
      </trkpt>
      <trkpt lat="43.58845" lon="2.91284">
        <ele>837.8</ele>
        <time>2017-04-16T03:39:34.000Z</time>
      </trkpt>
      <trkpt lat="43.58847" lon="2.91283">
        <ele>838.2</ele>
        <time>2017-04-16T03:39:36.000Z</time>
      </trkpt>
      <trkpt lat="43.5885" lon="2.91282">
        <ele>838.6</ele>
        <time>2017-04-16T03:39:38.000Z</time>
      </trkpt>
      <trkpt lat="43.58851" lon="2.91282">
        <ele>838.8</ele>
        <time>2017-04-16T03:39:39.000Z</time>
      </trkpt>
      <trkpt lat="43.58855" lon="2.9128">
        <ele>839.8</ele>
        <time>2017-04-16T03:39:42.000Z</time>
      </trkpt>
      <trkpt lat="43.58856" lon="2.91279">
        <ele>840</ele>
        <time>2017-04-16T03:39:43.000Z</time>
      </trkpt>
      <trkpt lat="43.58858" lon="2.91279">
        <ele>840.6</ele>
        <time>2017-04-16T03:39:45.000Z</time>
      </trkpt>
      <trkpt lat="43.5886" lon="2.91279">
        <ele>840.8</ele>
        <time>2017-04-16T03:39:46.000Z</time>
      </trkpt>
      <trkpt lat="43.58861" lon="2.91279">
        <ele>841</ele>
        <time>2017-04-16T03:39:47.000Z</time>
      </trkpt>
      <trkpt lat="43.58863" lon="2.9128">
        <ele>841.4</ele>
        <time>2017-04-16T03:39:48.000Z</time>
      </trkpt>
      <trkpt lat="43.58867" lon="2.91282">
        <ele>842.2</ele>
        <time>2017-04-16T03:39:51.000Z</time>
      </trkpt>
      <trkpt lat="43.5887" lon="2.91282">
        <ele>842.6</ele>
        <time>2017-04-16T03:39:53.000Z</time>
      </trkpt>
      <trkpt lat="43.58872" lon="2.91282">
        <ele>843</ele>
        <time>2017-04-16T03:39:55.000Z</time>
      </trkpt>
      <trkpt lat="43.58873" lon="2.91281">
        <ele>843.2</ele>
        <time>2017-04-16T03:39:56.000Z</time>
      </trkpt>
      <trkpt lat="43.58875" lon="2.9128">
        <ele>843.6</ele>
        <time>2017-04-16T03:39:58.000Z</time>
      </trkpt>
      <trkpt lat="43.58877" lon="2.91279">
        <ele>844</ele>
        <time>2017-04-16T03:39:59.000Z</time>
      </trkpt>
      <trkpt lat="43.58879" lon="2.9128">
        <ele>844.6</ele>
        <time>2017-04-16T03:40:02.000Z</time>
      </trkpt>
      <trkpt lat="43.5888" lon="2.9128">
        <ele>845</ele>
        <time>2017-04-16T03:40:04.000Z</time>
      </trkpt>
      <trkpt lat="43.58881" lon="2.91279">
        <ele>845.4</ele>
        <time>2017-04-16T03:40:06.000Z</time>
      </trkpt>
      <trkpt lat="43.58882" lon="2.91279">
        <ele>846</ele>
        <time>2017-04-16T03:40:08.000Z</time>
      </trkpt>
      <trkpt lat="43.58884" lon="2.91279">
        <ele>846.6</ele>
        <time>2017-04-16T03:40:10.000Z</time>
      </trkpt>
      <trkpt lat="43.58885" lon="2.91278">
        <ele>847</ele>
        <time>2017-04-16T03:40:12.000Z</time>
      </trkpt>
      <trkpt lat="43.58887" lon="2.91278">
        <ele>847.2</ele>
        <time>2017-04-16T03:40:14.000Z</time>
      </trkpt>
      <trkpt lat="43.58894" lon="2.91273">
        <ele>848.2</ele>
        <time>2017-04-16T03:40:23.000Z</time>
      </trkpt>
      <trkpt lat="43.58896" lon="2.91272">
        <ele>848.8</ele>
        <time>2017-04-16T03:40:25.000Z</time>
      </trkpt>
      <trkpt lat="43.58898" lon="2.91272">
        <ele>849.2</ele>
        <time>2017-04-16T03:40:27.000Z</time>
      </trkpt>
      <trkpt lat="43.58901" lon="2.91272">
        <ele>849.4</ele>
        <time>2017-04-16T03:40:29.000Z</time>
      </trkpt>
      <trkpt lat="43.58904" lon="2.91272">
        <ele>849.6</ele>
        <time>2017-04-16T03:40:31.000Z</time>
      </trkpt>
      <trkpt lat="43.5891" lon="2.91271">
        <ele>850.4</ele>
        <time>2017-04-16T03:40:39.000Z</time>
      </trkpt>
      <trkpt lat="43.58911" lon="2.9127">
        <ele>850.8</ele>
        <time>2017-04-16T03:40:41.000Z</time>
      </trkpt>
      <trkpt lat="43.58913" lon="2.91269">
        <ele>851.2</ele>
        <time>2017-04-16T03:40:43.000Z</time>
      </trkpt>
      <trkpt lat="43.58914" lon="2.91268">
        <ele>851.6</ele>
        <time>2017-04-16T03:40:45.000Z</time>
      </trkpt>
      <trkpt lat="43.58916" lon="2.91267">
        <ele>852</ele>
        <time>2017-04-16T03:40:47.000Z</time>
      </trkpt>
      <trkpt lat="43.58917" lon="2.91265">
        <ele>852.6</ele>
        <time>2017-04-16T03:40:49.000Z</time>
      </trkpt>
      <trkpt lat="43.58919" lon="2.91264">
        <ele>853</ele>
        <time>2017-04-16T03:40:51.000Z</time>
      </trkpt>
      <trkpt lat="43.58921" lon="2.91262">
        <ele>853.4</ele>
        <time>2017-04-16T03:40:53.000Z</time>
      </trkpt>
      <trkpt lat="43.58922" lon="2.91261">
        <ele>853.6</ele>
        <time>2017-04-16T03:40:55.000Z</time>
      </trkpt>
      <trkpt lat="43.58927" lon="2.9126">
        <ele>854.2</ele>
        <time>2017-04-16T03:40:59.000Z</time>
      </trkpt>
      <trkpt lat="43.58929" lon="2.9126">
        <ele>854.8</ele>
        <time>2017-04-16T03:41:01.000Z</time>
      </trkpt>
      <trkpt lat="43.58931" lon="2.91259">
        <ele>855.2</ele>
        <time>2017-04-16T03:41:03.000Z</time>
      </trkpt>
      <trkpt lat="43.58932" lon="2.91258">
        <ele>855.6</ele>
        <time>2017-04-16T03:41:05.000Z</time>
      </trkpt>
      <trkpt lat="43.58932" lon="2.91257">
        <ele>855.8</ele>
        <time>2017-04-16T03:41:06.000Z</time>
      </trkpt>
      <trkpt lat="43.58933" lon="2.91256">
        <ele>856.4</ele>
        <time>2017-04-16T03:41:08.000Z</time>
      </trkpt>
      <trkpt lat="43.58935" lon="2.91255">
        <ele>857</ele>
        <time>2017-04-16T03:41:10.000Z</time>
      </trkpt>
      <trkpt lat="43.58936" lon="2.91255">
        <ele>857.4</ele>
        <time>2017-04-16T03:41:12.000Z</time>
      </trkpt>
      <trkpt lat="43.58938" lon="2.91255">
        <ele>857.6</ele>
        <time>2017-04-16T03:41:14.000Z</time>
      </trkpt>
      <trkpt lat="43.5894" lon="2.91254">
        <ele>858.2</ele>
        <time>2017-04-16T03:41:16.000Z</time>
      </trkpt>
      <trkpt lat="43.58942" lon="2.91254">
        <ele>858.6</ele>
        <time>2017-04-16T03:41:18.000Z</time>
      </trkpt>
      <trkpt lat="43.58943" lon="2.91253">
        <ele>859.2</ele>
        <time>2017-04-16T03:41:20.000Z</time>
      </trkpt>
      <trkpt lat="43.58944" lon="2.91252">
        <ele>859.4</ele>
        <time>2017-04-16T03:41:22.000Z</time>
      </trkpt>
      <trkpt lat="43.58944" lon="2.91251">
        <ele>859.8</ele>
        <time>2017-04-16T03:41:24.000Z</time>
      </trkpt>
      <trkpt lat="43.58952" lon="2.91249">
        <ele>860.8</ele>
        <time>2017-04-16T03:41:33.000Z</time>
      </trkpt>
      <trkpt lat="43.58954" lon="2.91248">
        <ele>861.2</ele>
        <time>2017-04-16T03:41:35.000Z</time>
      </trkpt>
      <trkpt lat="43.58956" lon="2.91248">
        <ele>861.6</ele>
        <time>2017-04-16T03:41:37.000Z</time>
      </trkpt>
      <trkpt lat="43.58958" lon="2.91249">
        <ele>862</ele>
        <time>2017-04-16T03:41:39.000Z</time>
      </trkpt>
      <trkpt lat="43.58961" lon="2.91249">
        <ele>862.2</ele>
        <time>2017-04-16T03:41:41.000Z</time>
      </trkpt>
      <trkpt lat="43.58967" lon="2.91251">
        <ele>862.8</ele>
        <time>2017-04-16T03:41:45.000Z</time>
      </trkpt>
      <trkpt lat="43.58969" lon="2.91251">
        <ele>863.2</ele>
        <time>2017-04-16T03:41:47.000Z</time>
      </trkpt>
      <trkpt lat="43.58971" lon="2.91251">
        <ele>863.8</ele>
        <time>2017-04-16T03:41:49.000Z</time>
      </trkpt>
      <trkpt lat="43.58973" lon="2.9125">
        <ele>864</ele>
        <time>2017-04-16T03:41:51.000Z</time>
      </trkpt>
      <trkpt lat="43.58975" lon="2.9125">
        <ele>864.4</ele>
        <time>2017-04-16T03:41:53.000Z</time>
      </trkpt>
      <trkpt lat="43.58979" lon="2.9125">
        <ele>865</ele>
        <time>2017-04-16T03:41:57.000Z</time>
      </trkpt>
      <trkpt lat="43.58981" lon="2.91249">
        <ele>865.4</ele>
        <time>2017-04-16T03:41:59.000Z</time>
      </trkpt>
      <trkpt lat="43.58982" lon="2.91249">
        <ele>865.8</ele>
        <time>2017-04-16T03:42:01.000Z</time>
      </trkpt>
      <trkpt lat="43.58985" lon="2.91249">
        <ele>866.2</ele>
        <time>2017-04-16T03:42:03.000Z</time>
      </trkpt>
      <trkpt lat="43.58986" lon="2.91251">
        <ele>866.4</ele>
        <time>2017-04-16T03:42:05.000Z</time>
      </trkpt>
      <trkpt lat="43.58987" lon="2.91251">
        <ele>866.8</ele>
        <time>2017-04-16T03:42:06.000Z</time>
      </trkpt>
      <trkpt lat="43.58989" lon="2.91252">
        <ele>867.4</ele>
        <time>2017-04-16T03:42:08.000Z</time>
      </trkpt>
      <trkpt lat="43.58991" lon="2.91252">
        <ele>867.8</ele>
        <time>2017-04-16T03:42:10.000Z</time>
      </trkpt>
      <trkpt lat="43.58993" lon="2.91251">
        <ele>868</ele>
        <time>2017-04-16T03:42:11.000Z</time>
      </trkpt>
      <trkpt lat="43.58995" lon="2.91253">
        <ele>868.4</ele>
        <time>2017-04-16T03:42:14.000Z</time>
      </trkpt>
      <trkpt lat="43.59" lon="2.91259">
        <ele>869.2</ele>
        <time>2017-04-16T03:42:21.000Z</time>
      </trkpt>
      <trkpt lat="43.59002" lon="2.9126">
        <ele>869.8</ele>
        <time>2017-04-16T03:42:23.000Z</time>
      </trkpt>
      <trkpt lat="43.59003" lon="2.91262">
        <ele>870.2</ele>
        <time>2017-04-16T03:42:25.000Z</time>
      </trkpt>
      <trkpt lat="43.59005" lon="2.91263">
        <ele>870.4</ele>
        <time>2017-04-16T03:42:27.000Z</time>
      </trkpt>
      <trkpt lat="43.59007" lon="2.91264">
        <ele>870.6</ele>
        <time>2017-04-16T03:42:29.000Z</time>
      </trkpt>
      <trkpt lat="43.59015" lon="2.91269">
        <ele>871.2</ele>
        <time>2017-04-16T03:42:36.000Z</time>
      </trkpt>
      <trkpt lat="43.59018" lon="2.91271">
        <ele>871.6</ele>
        <time>2017-04-16T03:42:38.000Z</time>
      </trkpt>
      <trkpt lat="43.59021" lon="2.91273">
        <ele>872</ele>
        <time>2017-04-16T03:42:40.000Z</time>
      </trkpt>
      <trkpt lat="43.59024" lon="2.91274">
        <ele>872.4</ele>
        <time>2017-04-16T03:42:42.000Z</time>
      </trkpt>
      <trkpt lat="43.59025" lon="2.91275">
        <ele>872.4</ele>
        <time>2017-04-16T03:42:43.000Z</time>
      </trkpt>
      <trkpt lat="43.59027" lon="2.91276">
        <ele>872.6</ele>
        <time>2017-04-16T03:42:44.000Z</time>
      </trkpt>
      <trkpt lat="43.59031" lon="2.91278">
        <ele>872.8</ele>
        <time>2017-04-16T03:42:46.000Z</time>
      </trkpt>
      <trkpt lat="43.59046" lon="2.91284">
        <ele>873.4</ele>
        <time>2017-04-16T03:42:53.000Z</time>
      </trkpt>
      <trkpt lat="43.59054" lon="2.91286">
        <ele>873.6</ele>
        <time>2017-04-16T03:42:59.000Z</time>
      </trkpt>
      <trkpt lat="43.59054" lon="2.91285">
        <ele>873.8</ele>
        <time>2017-04-16T03:43:00.000Z</time>
      </trkpt>
      <trkpt lat="43.59057" lon="2.91284">
        <ele>874.2</ele>
        <time>2017-04-16T03:43:02.000Z</time>
      </trkpt>
      <trkpt lat="43.5906" lon="2.91284">
        <ele>874.6</ele>
        <time>2017-04-16T03:43:04.000Z</time>
      </trkpt>
      <trkpt lat="43.59062" lon="2.91284">
        <ele>874.8</ele>
        <time>2017-04-16T03:43:06.000Z</time>
      </trkpt>
      <trkpt lat="43.59065" lon="2.91285">
        <ele>875.2</ele>
        <time>2017-04-16T03:43:08.000Z</time>
      </trkpt>
      <trkpt lat="43.59066" lon="2.91285">
        <ele>875.6</ele>
        <time>2017-04-16T03:43:09.000Z</time>
      </trkpt>
      <trkpt lat="43.59069" lon="2.91285">
        <ele>876.2</ele>
        <time>2017-04-16T03:43:12.000Z</time>
      </trkpt>
      <trkpt lat="43.59071" lon="2.91285">
        <ele>876.6</ele>
        <time>2017-04-16T03:43:14.000Z</time>
      </trkpt>
      <trkpt lat="43.59073" lon="2.91284">
        <ele>876.8</ele>
        <time>2017-04-16T03:43:16.000Z</time>
      </trkpt>
      <trkpt lat="43.59074" lon="2.91283">
        <ele>877</ele>
        <time>2017-04-16T03:43:17.000Z</time>
      </trkpt>
      <trkpt lat="43.59078" lon="2.91281">
        <ele>877.6</ele>
        <time>2017-04-16T03:43:21.000Z</time>
      </trkpt>
      <trkpt lat="43.59079" lon="2.9128">
        <ele>878</ele>
        <time>2017-04-16T03:43:23.000Z</time>
      </trkpt>
      <trkpt lat="43.5908" lon="2.9128">
        <ele>878.2</ele>
        <time>2017-04-16T03:43:24.000Z</time>
      </trkpt>
      <trkpt lat="43.59082" lon="2.91279">
        <ele>879</ele>
        <time>2017-04-16T03:43:30.000Z</time>
      </trkpt>
      <trkpt lat="43.59083" lon="2.91278">
        <ele>879.4</ele>
        <time>2017-04-16T03:43:31.000Z</time>
      </trkpt>
      <trkpt lat="43.59084" lon="2.91278">
        <ele>879.6</ele>
        <time>2017-04-16T03:43:32.000Z</time>
      </trkpt>
      <trkpt lat="43.59085" lon="2.91277">
        <ele>880</ele>
        <time>2017-04-16T03:43:33.000Z</time>
      </trkpt>
      <trkpt lat="43.59088" lon="2.91277">
        <ele>880.4</ele>
        <time>2017-04-16T03:43:35.000Z</time>
      </trkpt>
      <trkpt lat="43.59089" lon="2.91276">
        <ele>880.6</ele>
        <time>2017-04-16T03:43:37.000Z</time>
      </trkpt>
      <trkpt lat="43.5909" lon="2.91275">
        <ele>881</ele>
        <time>2017-04-16T03:43:39.000Z</time>
      </trkpt>
      <trkpt lat="43.59097" lon="2.91267">
        <ele>882</ele>
        <time>2017-04-16T03:43:48.000Z</time>
      </trkpt>
      <trkpt lat="43.59098" lon="2.91264">
        <ele>882.4</ele>
        <time>2017-04-16T03:43:50.000Z</time>
      </trkpt>
      <trkpt lat="43.59099" lon="2.91262">
        <ele>882.8</ele>
        <time>2017-04-16T03:43:52.000Z</time>
      </trkpt>
      <trkpt lat="43.59101" lon="2.9126">
        <ele>883.2</ele>
        <time>2017-04-16T03:43:54.000Z</time>
      </trkpt>
      <trkpt lat="43.59103" lon="2.91258">
        <ele>883.4</ele>
        <time>2017-04-16T03:43:56.000Z</time>
      </trkpt>
      <trkpt lat="43.59108" lon="2.91255">
        <ele>884</ele>
        <time>2017-04-16T03:44:00.000Z</time>
      </trkpt>
      <trkpt lat="43.59111" lon="2.91254">
        <ele>884.6</ele>
        <time>2017-04-16T03:44:02.000Z</time>
      </trkpt>
      <trkpt lat="43.59113" lon="2.91253">
        <ele>885</ele>
        <time>2017-04-16T03:44:04.000Z</time>
      </trkpt>
      <trkpt lat="43.59116" lon="2.91253">
        <ele>885.2</ele>
        <time>2017-04-16T03:44:06.000Z</time>
      </trkpt>
      <trkpt lat="43.59118" lon="2.91254">
        <ele>885.6</ele>
        <time>2017-04-16T03:44:08.000Z</time>
      </trkpt>
      <trkpt lat="43.59125" lon="2.91255">
        <ele>886</ele>
        <time>2017-04-16T03:44:13.000Z</time>
      </trkpt>
      <trkpt lat="43.59127" lon="2.91251">
        <ele>886.8</ele>
        <time>2017-04-16T03:44:16.000Z</time>
      </trkpt>
      <trkpt lat="43.59128" lon="2.91249">
        <ele>887.2</ele>
        <time>2017-04-16T03:44:18.000Z</time>
      </trkpt>
      <trkpt lat="43.5913" lon="2.91248">
        <ele>887.6</ele>
        <time>2017-04-16T03:44:20.000Z</time>
      </trkpt>
      <trkpt lat="43.59132" lon="2.91246">
        <ele>887.8</ele>
        <time>2017-04-16T03:44:22.000Z</time>
      </trkpt>
      <trkpt lat="43.59136" lon="2.91243">
        <ele>888.4</ele>
        <time>2017-04-16T03:44:27.000Z</time>
      </trkpt>
      <trkpt lat="43.59137" lon="2.91241">
        <ele>889</ele>
        <time>2017-04-16T03:44:29.000Z</time>
      </trkpt>
      <trkpt lat="43.59138" lon="2.91238">
        <ele>889.4</ele>
        <time>2017-04-16T03:44:31.000Z</time>
      </trkpt>
      <trkpt lat="43.59139" lon="2.91236">
        <ele>889.6</ele>
        <time>2017-04-16T03:44:33.000Z</time>
      </trkpt>
      <trkpt lat="43.5914" lon="2.91233">
        <ele>889.8</ele>
        <time>2017-04-16T03:44:35.000Z</time>
      </trkpt>
      <trkpt lat="43.59147" lon="2.91225">
        <ele>890.8</ele>
        <time>2017-04-16T03:44:44.000Z</time>
      </trkpt>
      <trkpt lat="43.59149" lon="2.91223">
        <ele>891.2</ele>
        <time>2017-04-16T03:44:46.000Z</time>
      </trkpt>
      <trkpt lat="43.5915" lon="2.91221">
        <ele>891.4</ele>
        <time>2017-04-16T03:44:47.000Z</time>
      </trkpt>
      <trkpt lat="43.59153" lon="2.91219">
        <ele>891.8</ele>
        <time>2017-04-16T03:44:50.000Z</time>
      </trkpt>
      <trkpt lat="43.59154" lon="2.91217">
        <ele>892</ele>
        <time>2017-04-16T03:44:51.000Z</time>
      </trkpt>
      <trkpt lat="43.59155" lon="2.91217">
        <ele>892</ele>
        <time>2017-04-16T03:44:52.000Z</time>
      </trkpt>
      <trkpt lat="43.59156" lon="2.91216">
        <ele>892.4</ele>
        <time>2017-04-16T03:44:53.000Z</time>
      </trkpt>
      <trkpt lat="43.59158" lon="2.91214">
        <ele>892.8</ele>
        <time>2017-04-16T03:44:55.000Z</time>
      </trkpt>
      <trkpt lat="43.5916" lon="2.91214">
        <ele>893.2</ele>
        <time>2017-04-16T03:44:56.000Z</time>
      </trkpt>
      <trkpt lat="43.5916" lon="2.91213">
        <ele>893.4</ele>
        <time>2017-04-16T03:44:57.000Z</time>
      </trkpt>
      <trkpt lat="43.59163" lon="2.91211">
        <ele>893.6</ele>
        <time>2017-04-16T03:44:59.000Z</time>
      </trkpt>
      <trkpt lat="43.59164" lon="2.9121">
        <ele>893.8</ele>
        <time>2017-04-16T03:45:00.000Z</time>
      </trkpt>
      <trkpt lat="43.59165" lon="2.9121">
        <ele>894.2</ele>
        <time>2017-04-16T03:45:01.000Z</time>
      </trkpt>
      <trkpt lat="43.59167" lon="2.91208">
        <ele>894.8</ele>
        <time>2017-04-16T03:45:03.000Z</time>
      </trkpt>
      <trkpt lat="43.59169" lon="2.91207">
        <ele>895.2</ele>
        <time>2017-04-16T03:45:05.000Z</time>
      </trkpt>
      <trkpt lat="43.5917" lon="2.91206">
        <ele>895.4</ele>
        <time>2017-04-16T03:45:06.000Z</time>
      </trkpt>
      <trkpt lat="43.59173" lon="2.91203">
        <ele>895.8</ele>
        <time>2017-04-16T03:45:09.000Z</time>
      </trkpt>
      <trkpt lat="43.59176" lon="2.91201">
        <ele>896.2</ele>
        <time>2017-04-16T03:45:13.000Z</time>
      </trkpt>
      <trkpt lat="43.59181" lon="2.91198">
        <ele>896.6</ele>
        <time>2017-04-16T03:45:18.000Z</time>
      </trkpt>
      <trkpt lat="43.59183" lon="2.91195">
        <ele>896.8</ele>
        <time>2017-04-16T03:45:20.000Z</time>
      </trkpt>
      <trkpt lat="43.59186" lon="2.91189">
        <ele>896.8</ele>
        <time>2017-04-16T03:45:24.000Z</time>
      </trkpt>
      <trkpt lat="43.59189" lon="2.91185">
        <ele>897.2</ele>
        <time>2017-04-16T03:45:27.000Z</time>
      </trkpt>
      <trkpt lat="43.5919" lon="2.91182">
        <ele>897.6</ele>
        <time>2017-04-16T03:45:29.000Z</time>
      </trkpt>
      <trkpt lat="43.59192" lon="2.91179">
        <ele>897.8</ele>
        <time>2017-04-16T03:45:31.000Z</time>
      </trkpt>
      <trkpt lat="43.59193" lon="2.91177">
        <ele>898.2</ele>
        <time>2017-04-16T03:45:33.000Z</time>
      </trkpt>
      <trkpt lat="43.59194" lon="2.91175">
        <ele>898.4</ele>
        <time>2017-04-16T03:45:34.000Z</time>
      </trkpt>
      <trkpt lat="43.59196" lon="2.91171">
        <ele>899</ele>
        <time>2017-04-16T03:45:36.000Z</time>
      </trkpt>
      <trkpt lat="43.59198" lon="2.91167">
        <ele>899.4</ele>
        <time>2017-04-16T03:45:38.000Z</time>
      </trkpt>
      <trkpt lat="43.592" lon="2.91162">
        <ele>899.8</ele>
        <time>2017-04-16T03:45:40.000Z</time>
      </trkpt>
      <trkpt lat="43.59203" lon="2.91158">
        <ele>900</ele>
        <time>2017-04-16T03:45:42.000Z</time>
      </trkpt>
      <trkpt lat="43.59204" lon="2.91156">
        <ele>900.2</ele>
        <time>2017-04-16T03:45:43.000Z</time>
      </trkpt>
      <trkpt lat="43.59213" lon="2.91146">
        <ele>901</ele>
        <time>2017-04-16T03:45:50.000Z</time>
      </trkpt>
      <trkpt lat="43.59216" lon="2.91141">
        <ele>901.4</ele>
        <time>2017-04-16T03:45:52.000Z</time>
      </trkpt>
      <trkpt lat="43.59219" lon="2.91137">
        <ele>901.8</ele>
        <time>2017-04-16T03:45:54.000Z</time>
      </trkpt>
      <trkpt lat="43.59221" lon="2.91132">
        <ele>902</ele>
        <time>2017-04-16T03:45:56.000Z</time>
      </trkpt>
      <trkpt lat="43.59222" lon="2.91127">
        <ele>902.4</ele>
        <time>2017-04-16T03:45:58.000Z</time>
      </trkpt>
      <trkpt lat="43.59224" lon="2.91115">
        <ele>902.6</ele>
        <time>2017-04-16T03:46:02.000Z</time>
      </trkpt>
      <trkpt lat="43.59225" lon="2.91107">
        <ele>902.8</ele>
        <time>2017-04-16T03:46:05.000Z</time>
      </trkpt>
      <trkpt lat="43.59227" lon="2.91097">
        <ele>903</ele>
        <time>2017-04-16T03:46:09.000Z</time>
      </trkpt>
      <trkpt lat="43.59233" lon="2.9108">
        <ele>903.4</ele>
        <time>2017-04-16T03:46:15.000Z</time>
      </trkpt>
      <trkpt lat="43.59234" lon="2.91076">
        <ele>903.6</ele>
        <time>2017-04-16T03:46:16.000Z</time>
      </trkpt>
      <trkpt lat="43.59234" lon="2.91074">
        <ele>903.8</ele>
        <time>2017-04-16T03:46:17.000Z</time>
      </trkpt>
      <trkpt lat="43.59234" lon="2.9107">
        <ele>904</ele>
        <time>2017-04-16T03:46:19.000Z</time>
      </trkpt>
      <trkpt lat="43.59235" lon="2.91069">
        <ele>904.2</ele>
        <time>2017-04-16T03:46:20.000Z</time>
      </trkpt>
      <trkpt lat="43.59235" lon="2.91067">
        <ele>904.2</ele>
        <time>2017-04-16T03:46:21.000Z</time>
      </trkpt>
      <trkpt lat="43.59237" lon="2.91064">
        <ele>904.4</ele>
        <time>2017-04-16T03:46:23.000Z</time>
      </trkpt>
      <trkpt lat="43.5924" lon="2.91056">
        <ele>904.8</ele>
        <time>2017-04-16T03:46:26.000Z</time>
      </trkpt>
      <trkpt lat="43.5924" lon="2.91049">
        <ele>904.8</ele>
        <time>2017-04-16T03:46:28.000Z</time>
      </trkpt>
      <trkpt lat="43.59239" lon="2.9104">
        <ele>905.2</ele>
        <time>2017-04-16T03:46:31.000Z</time>
      </trkpt>
      <trkpt lat="43.59239" lon="2.91037">
        <ele>905.4</ele>
        <time>2017-04-16T03:46:32.000Z</time>
      </trkpt>
      <trkpt lat="43.5924" lon="2.91035">
        <ele>905.6</ele>
        <time>2017-04-16T03:46:33.000Z</time>
      </trkpt>
      <trkpt lat="43.5924" lon="2.91031">
        <ele>906</ele>
        <time>2017-04-16T03:46:35.000Z</time>
      </trkpt>
      <trkpt lat="43.59239" lon="2.91029">
        <ele>906.2</ele>
        <time>2017-04-16T03:46:37.000Z</time>
      </trkpt>
      <trkpt lat="43.59239" lon="2.91027">
        <ele>906.4</ele>
        <time>2017-04-16T03:46:38.000Z</time>
      </trkpt>
      <trkpt lat="43.59239" lon="2.91024">
        <ele>906.8</ele>
        <time>2017-04-16T03:46:40.000Z</time>
      </trkpt>
      <trkpt lat="43.59238" lon="2.91019">
        <ele>907.4</ele>
        <time>2017-04-16T03:46:42.000Z</time>
      </trkpt>
      <trkpt lat="43.59236" lon="2.91014">
        <ele>907.8</ele>
        <time>2017-04-16T03:46:44.000Z</time>
      </trkpt>
      <trkpt lat="43.59236" lon="2.91012">
        <ele>908</ele>
        <time>2017-04-16T03:46:45.000Z</time>
      </trkpt>
      <trkpt lat="43.59231" lon="2.91005">
        <ele>908.4</ele>
        <time>2017-04-16T03:46:48.000Z</time>
      </trkpt>
      <trkpt lat="43.5923" lon="2.91003">
        <ele>908.8</ele>
        <time>2017-04-16T03:46:49.000Z</time>
      </trkpt>
      <trkpt lat="43.59229" lon="2.91">
        <ele>909</ele>
        <time>2017-04-16T03:46:50.000Z</time>
      </trkpt>
      <trkpt lat="43.59223" lon="2.90992">
        <ele>909.8</ele>
        <time>2017-04-16T03:46:53.000Z</time>
      </trkpt>
      <trkpt lat="43.59222" lon="2.90987">
        <ele>910.2</ele>
        <time>2017-04-16T03:46:55.000Z</time>
      </trkpt>
      <trkpt lat="43.59221" lon="2.90983">
        <ele>910.2</ele>
        <time>2017-04-16T03:46:56.000Z</time>
      </trkpt>
      <trkpt lat="43.59221" lon="2.90981">
        <ele>910.4</ele>
        <time>2017-04-16T03:46:57.000Z</time>
      </trkpt>
      <trkpt lat="43.59222" lon="2.90977">
        <ele>910.6</ele>
        <time>2017-04-16T03:46:59.000Z</time>
      </trkpt>
      <trkpt lat="43.59225" lon="2.90965">
        <ele>911.4</ele>
        <time>2017-04-16T03:47:05.000Z</time>
      </trkpt>
      <trkpt lat="43.59225" lon="2.9096">
        <ele>911.8</ele>
        <time>2017-04-16T03:47:07.000Z</time>
      </trkpt>
      <trkpt lat="43.59223" lon="2.90956">
        <ele>912</ele>
        <time>2017-04-16T03:47:08.000Z</time>
      </trkpt>
      <trkpt lat="43.59222" lon="2.90954">
        <ele>912.2</ele>
        <time>2017-04-16T03:47:09.000Z</time>
      </trkpt>
      <trkpt lat="43.59218" lon="2.90949">
        <ele>912.6</ele>
        <time>2017-04-16T03:47:11.000Z</time>
      </trkpt>
      <trkpt lat="43.59215" lon="2.90944">
        <ele>912.8</ele>
        <time>2017-04-16T03:47:13.000Z</time>
      </trkpt>
      <trkpt lat="43.59214" lon="2.90943">
        <ele>912.8</ele>
        <time>2017-04-16T03:47:14.000Z</time>
      </trkpt>
      <trkpt lat="43.59213" lon="2.9094">
        <ele>913</ele>
        <time>2017-04-16T03:47:16.000Z</time>
      </trkpt>
      <trkpt lat="43.59216" lon="2.90934">
        <ele>913.2</ele>
        <time>2017-04-16T03:47:19.000Z</time>
      </trkpt>
      <trkpt lat="43.59218" lon="2.90925">
        <ele>913.6</ele>
        <time>2017-04-16T03:47:22.000Z</time>
      </trkpt>
      <trkpt lat="43.59221" lon="2.90921">
        <ele>914</ele>
        <time>2017-04-16T03:47:24.000Z</time>
      </trkpt>
      <trkpt lat="43.59223" lon="2.90919">
        <ele>914.4</ele>
        <time>2017-04-16T03:47:26.000Z</time>
      </trkpt>
      <trkpt lat="43.59223" lon="2.90919">
        <ele>914.8</ele>
        <time>2017-04-16T03:47:27.000Z</time>
      </trkpt>
      <trkpt lat="43.59226" lon="2.90918">
        <ele>915.4</ele>
        <time>2017-04-16T03:47:29.000Z</time>
      </trkpt>
      <trkpt lat="43.59229" lon="2.90918">
        <ele>916</ele>
        <time>2017-04-16T03:47:31.000Z</time>
      </trkpt>
      <trkpt lat="43.59232" lon="2.90916">
        <ele>916.4</ele>
        <time>2017-04-16T03:47:33.000Z</time>
      </trkpt>
      <trkpt lat="43.59233" lon="2.90915">
        <ele>916.6</ele>
        <time>2017-04-16T03:47:34.000Z</time>
      </trkpt>
      <trkpt lat="43.59234" lon="2.90915">
        <ele>916.8</ele>
        <time>2017-04-16T03:47:35.000Z</time>
      </trkpt>
      <trkpt lat="43.59237" lon="2.90914">
        <ele>917.4</ele>
        <time>2017-04-16T03:47:38.000Z</time>
      </trkpt>
      <trkpt lat="43.5924" lon="2.90911">
        <ele>918</ele>
        <time>2017-04-16T03:47:40.000Z</time>
      </trkpt>
      <trkpt lat="43.59242" lon="2.90908">
        <ele>918.4</ele>
        <time>2017-04-16T03:47:42.000Z</time>
      </trkpt>
      <trkpt lat="43.59243" lon="2.90908">
        <ele>918.6</ele>
        <time>2017-04-16T03:47:43.000Z</time>
      </trkpt>
      <trkpt lat="43.59241" lon="2.90907">
        <ele>919.2</ele>
        <time>2017-04-16T03:47:46.000Z</time>
      </trkpt>
      <trkpt lat="43.59239" lon="2.90908">
        <ele>919.2</ele>
        <time>2017-04-16T03:47:47.000Z</time>
      </trkpt>
      <trkpt lat="43.59236" lon="2.9091">
        <ele>919.8</ele>
        <time>2017-04-16T03:47:49.000Z</time>
      </trkpt>
      <trkpt lat="43.59236" lon="2.90911">
        <ele>920.2</ele>
        <time>2017-04-16T03:47:51.000Z</time>
      </trkpt>
      <trkpt lat="43.59236" lon="2.90908">
        <ele>920.6</ele>
        <time>2017-04-16T03:47:52.000Z</time>
      </trkpt>
      <trkpt lat="43.59237" lon="2.90907">
        <ele>920.8</ele>
        <time>2017-04-16T03:47:53.000Z</time>
      </trkpt>
      <trkpt lat="43.59239" lon="2.90905">
        <ele>921.2</ele>
        <time>2017-04-16T03:47:55.000Z</time>
      </trkpt>
      <trkpt lat="43.59243" lon="2.90902">
        <ele>921.4</ele>
        <time>2017-04-16T03:47:57.000Z</time>
      </trkpt>
      <trkpt lat="43.59244" lon="2.909">
        <ele>921.8</ele>
        <time>2017-04-16T03:47:58.000Z</time>
      </trkpt>
      <trkpt lat="43.59246" lon="2.90896">
        <ele>922.4</ele>
        <time>2017-04-16T03:48:00.000Z</time>
      </trkpt>
      <trkpt lat="43.59248" lon="2.90892">
        <ele>922.8</ele>
        <time>2017-04-16T03:48:02.000Z</time>
      </trkpt>
      <trkpt lat="43.59248" lon="2.9089">
        <ele>923</ele>
        <time>2017-04-16T03:48:03.000Z</time>
      </trkpt>
      <trkpt lat="43.59249" lon="2.90887">
        <ele>923.4</ele>
        <time>2017-04-16T03:48:05.000Z</time>
      </trkpt>
      <trkpt lat="43.59251" lon="2.90884">
        <ele>924</ele>
        <time>2017-04-16T03:48:08.000Z</time>
      </trkpt>
      <trkpt lat="43.59261" lon="2.90878">
        <ele>925.4</ele>
        <time>2017-04-16T03:48:14.000Z</time>
      </trkpt>
      <trkpt lat="43.59267" lon="2.90876">
        <ele>925.6</ele>
        <time>2017-04-16T03:48:16.000Z</time>
      </trkpt>
      <trkpt lat="43.59272" lon="2.90872">
        <ele>925.8</ele>
        <time>2017-04-16T03:48:18.000Z</time>
      </trkpt>
      <trkpt lat="43.59274" lon="2.90871">
        <ele>926</ele>
        <time>2017-04-16T03:48:19.000Z</time>
      </trkpt>
      <trkpt lat="43.59281" lon="2.9087">
        <ele>926.8</ele>
        <time>2017-04-16T03:48:22.000Z</time>
      </trkpt>
      <trkpt lat="43.59286" lon="2.90868">
        <ele>927.2</ele>
        <time>2017-04-16T03:48:24.000Z</time>
      </trkpt>
      <trkpt lat="43.59292" lon="2.90866">
        <ele>927.6</ele>
        <time>2017-04-16T03:48:26.000Z</time>
      </trkpt>
      <trkpt lat="43.59296" lon="2.90865">
        <ele>927.8</ele>
        <time>2017-04-16T03:48:27.000Z</time>
      </trkpt>
      <trkpt lat="43.59307" lon="2.90865">
        <ele>928.4</ele>
        <time>2017-04-16T03:48:31.000Z</time>
      </trkpt>
      <trkpt lat="43.5931" lon="2.90862">
        <ele>929</ele>
        <time>2017-04-16T03:48:33.000Z</time>
      </trkpt>
      <trkpt lat="43.59313" lon="2.90855">
        <ele>929.4</ele>
        <time>2017-04-16T03:48:35.000Z</time>
      </trkpt>
      <trkpt lat="43.59314" lon="2.90852">
        <ele>929.8</ele>
        <time>2017-04-16T03:48:36.000Z</time>
      </trkpt>
      <trkpt lat="43.59315" lon="2.90847">
        <ele>930.4</ele>
        <time>2017-04-16T03:48:38.000Z</time>
      </trkpt>
      <trkpt lat="43.59314" lon="2.90844">
        <ele>931</ele>
        <time>2017-04-16T03:48:40.000Z</time>
      </trkpt>
      <trkpt lat="43.59313" lon="2.90842">
        <ele>931.4</ele>
        <time>2017-04-16T03:48:42.000Z</time>
      </trkpt>
      <trkpt lat="43.59312" lon="2.90842">
        <ele>931.6</ele>
        <time>2017-04-16T03:48:43.000Z</time>
      </trkpt>
      <trkpt lat="43.59311" lon="2.90842">
        <ele>931.8</ele>
        <time>2017-04-16T03:48:44.000Z</time>
      </trkpt>
      <trkpt lat="43.5931" lon="2.90839">
        <ele>932.2</ele>
        <time>2017-04-16T03:48:46.000Z</time>
      </trkpt>
      <trkpt lat="43.59309" lon="2.90838">
        <ele>932.6</ele>
        <time>2017-04-16T03:48:47.000Z</time>
      </trkpt>
      <trkpt lat="43.59304" lon="2.90838">
        <ele>933.4</ele>
        <time>2017-04-16T03:48:50.000Z</time>
      </trkpt>
      <trkpt lat="43.593" lon="2.90839">
        <ele>933.6</ele>
        <time>2017-04-16T03:48:52.000Z</time>
      </trkpt>
      <trkpt lat="43.59297" lon="2.90839">
        <ele>934</ele>
        <time>2017-04-16T03:48:54.000Z</time>
      </trkpt>
      <trkpt lat="43.59292" lon="2.90838">
        <ele>934.4</ele>
        <time>2017-04-16T03:48:57.000Z</time>
      </trkpt>
      <trkpt lat="43.59289" lon="2.90836">
        <ele>934.6</ele>
        <time>2017-04-16T03:48:59.000Z</time>
      </trkpt>
      <trkpt lat="43.59278" lon="2.90834">
        <ele>935</ele>
        <time>2017-04-16T03:49:03.000Z</time>
      </trkpt>
      <trkpt lat="43.59275" lon="2.90834">
        <ele>935.2</ele>
        <time>2017-04-16T03:49:04.000Z</time>
      </trkpt>
      <trkpt lat="43.59273" lon="2.90833">
        <ele>935.4</ele>
        <time>2017-04-16T03:49:05.000Z</time>
      </trkpt>
      <trkpt lat="43.59272" lon="2.90833">
        <ele>935.6</ele>
        <time>2017-04-16T03:49:06.000Z</time>
      </trkpt>
      <trkpt lat="43.59269" lon="2.90833">
        <ele>936.2</ele>
        <time>2017-04-16T03:49:08.000Z</time>
      </trkpt>
      <trkpt lat="43.59268" lon="2.9083">
        <ele>936.8</ele>
        <time>2017-04-16T03:49:10.000Z</time>
      </trkpt>
      <trkpt lat="43.59267" lon="2.90829">
        <ele>937.4</ele>
        <time>2017-04-16T03:49:12.000Z</time>
      </trkpt>
      <trkpt lat="43.59267" lon="2.90827">
        <ele>937.8</ele>
        <time>2017-04-16T03:49:14.000Z</time>
      </trkpt>
      <trkpt lat="43.59268" lon="2.90824">
        <ele>938</ele>
        <time>2017-04-16T03:49:16.000Z</time>
      </trkpt>
      <trkpt lat="43.5927" lon="2.90821">
        <ele>938.4</ele>
        <time>2017-04-16T03:49:19.000Z</time>
      </trkpt>
      <trkpt lat="43.59283" lon="2.90822">
        <ele>939.4</ele>
        <time>2017-04-16T03:49:29.000Z</time>
      </trkpt>
      <trkpt lat="43.59286" lon="2.90823">
        <ele>939.8</ele>
        <time>2017-04-16T03:49:31.000Z</time>
      </trkpt>
      <trkpt lat="43.5929" lon="2.90823">
        <ele>940.2</ele>
        <time>2017-04-16T03:49:33.000Z</time>
      </trkpt>
      <trkpt lat="43.59295" lon="2.90825">
        <ele>940.4</ele>
        <time>2017-04-16T03:49:35.000Z</time>
      </trkpt>
      <trkpt lat="43.59296" lon="2.90825">
        <ele>940.6</ele>
        <time>2017-04-16T03:49:36.000Z</time>
      </trkpt>
      <trkpt lat="43.59298" lon="2.90826">
        <ele>940.6</ele>
        <time>2017-04-16T03:49:37.000Z</time>
      </trkpt>
      <trkpt lat="43.59306" lon="2.90828">
        <ele>941.2</ele>
        <time>2017-04-16T03:49:42.000Z</time>
      </trkpt>
      <trkpt lat="43.59308" lon="2.90827">
        <ele>941.8</ele>
        <time>2017-04-16T03:49:44.000Z</time>
      </trkpt>
      <trkpt lat="43.5931" lon="2.90825">
        <ele>942.2</ele>
        <time>2017-04-16T03:49:46.000Z</time>
      </trkpt>
      <trkpt lat="43.59312" lon="2.90824">
        <ele>942.4</ele>
        <time>2017-04-16T03:49:47.000Z</time>
      </trkpt>
      <trkpt lat="43.59314" lon="2.90819">
        <ele>942.8</ele>
        <time>2017-04-16T03:49:50.000Z</time>
      </trkpt>
      <trkpt lat="43.59315" lon="2.90818">
        <ele>943</ele>
        <time>2017-04-16T03:49:51.000Z</time>
      </trkpt>
      <trkpt lat="43.59316" lon="2.90818">
        <ele>943.4</ele>
        <time>2017-04-16T03:49:52.000Z</time>
      </trkpt>
      <trkpt lat="43.59317" lon="2.90817">
        <ele>943.6</ele>
        <time>2017-04-16T03:49:53.000Z</time>
      </trkpt>
      <trkpt lat="43.59319" lon="2.90817">
        <ele>944.2</ele>
        <time>2017-04-16T03:49:55.000Z</time>
      </trkpt>
      <trkpt lat="43.59322" lon="2.90817">
        <ele>944.4</ele>
        <time>2017-04-16T03:49:57.000Z</time>
      </trkpt>
      <trkpt lat="43.59324" lon="2.90817">
        <ele>944.6</ele>
        <time>2017-04-16T03:49:58.000Z</time>
      </trkpt>
      <trkpt lat="43.59331" lon="2.90817">
        <ele>945.4</ele>
        <time>2017-04-16T03:50:04.000Z</time>
      </trkpt>
      <trkpt lat="43.59333" lon="2.90816">
        <ele>945.6</ele>
        <time>2017-04-16T03:50:06.000Z</time>
      </trkpt>
      <trkpt lat="43.59337" lon="2.90817">
        <ele>946.2</ele>
        <time>2017-04-16T03:50:08.000Z</time>
      </trkpt>
      <trkpt lat="43.59339" lon="2.90816">
        <ele>946.4</ele>
        <time>2017-04-16T03:50:09.000Z</time>
      </trkpt>
      <trkpt lat="43.59341" lon="2.90815">
        <ele>946.6</ele>
        <time>2017-04-16T03:50:10.000Z</time>
      </trkpt>
      <trkpt lat="43.59343" lon="2.90814">
        <ele>946.8</ele>
        <time>2017-04-16T03:50:11.000Z</time>
      </trkpt>
      <trkpt lat="43.59346" lon="2.90812">
        <ele>946.8</ele>
        <time>2017-04-16T03:50:12.000Z</time>
      </trkpt>
      <trkpt lat="43.59348" lon="2.90809">
        <ele>947.4</ele>
        <time>2017-04-16T03:50:14.000Z</time>
      </trkpt>
      <trkpt lat="43.59351" lon="2.90805">
        <ele>947.8</ele>
        <time>2017-04-16T03:50:16.000Z</time>
      </trkpt>
      <trkpt lat="43.59351" lon="2.90804">
        <ele>948.2</ele>
        <time>2017-04-16T03:50:17.000Z</time>
      </trkpt>
      <trkpt lat="43.59356" lon="2.90802">
        <ele>948.6</ele>
        <time>2017-04-16T03:50:20.000Z</time>
      </trkpt>
      <trkpt lat="43.59357" lon="2.90802">
        <ele>948.8</ele>
        <time>2017-04-16T03:50:21.000Z</time>
      </trkpt>
      <trkpt lat="43.59361" lon="2.90802">
        <ele>949.2</ele>
        <time>2017-04-16T03:50:23.000Z</time>
      </trkpt>
      <trkpt lat="43.59369" lon="2.90808">
        <ele>949.6</ele>
        <time>2017-04-16T03:50:29.000Z</time>
      </trkpt>
      <trkpt lat="43.59371" lon="2.90809">
        <ele>950</ele>
        <time>2017-04-16T03:50:30.000Z</time>
      </trkpt>
      <trkpt lat="43.59373" lon="2.9081">
        <ele>950.2</ele>
        <time>2017-04-16T03:50:31.000Z</time>
      </trkpt>
      <trkpt lat="43.59378" lon="2.90814">
        <ele>950.8</ele>
        <time>2017-04-16T03:50:34.000Z</time>
      </trkpt>
      <trkpt lat="43.59379" lon="2.90816">
        <ele>950.8</ele>
        <time>2017-04-16T03:50:35.000Z</time>
      </trkpt>
      <trkpt lat="43.59381" lon="2.9082">
        <ele>951.2</ele>
        <time>2017-04-16T03:50:37.000Z</time>
      </trkpt>
      <trkpt lat="43.59386" lon="2.90826">
        <ele>951.8</ele>
        <time>2017-04-16T03:50:41.000Z</time>
      </trkpt>
      <trkpt lat="43.59388" lon="2.90828">
        <ele>952.2</ele>
        <time>2017-04-16T03:50:43.000Z</time>
      </trkpt>
      <trkpt lat="43.59393" lon="2.90829">
        <ele>952.8</ele>
        <time>2017-04-16T03:50:45.000Z</time>
      </trkpt>
      <trkpt lat="43.59397" lon="2.90831">
        <ele>953</ele>
        <time>2017-04-16T03:50:47.000Z</time>
      </trkpt>
      <trkpt lat="43.59398" lon="2.90834">
        <ele>953.2</ele>
        <time>2017-04-16T03:50:48.000Z</time>
      </trkpt>
      <trkpt lat="43.59399" lon="2.90835">
        <ele>953.4</ele>
        <time>2017-04-16T03:50:49.000Z</time>
      </trkpt>
      <trkpt lat="43.59404" lon="2.90841">
        <ele>954</ele>
        <time>2017-04-16T03:50:53.000Z</time>
      </trkpt>
      <trkpt lat="43.59407" lon="2.90844">
        <ele>954.4</ele>
        <time>2017-04-16T03:50:55.000Z</time>
      </trkpt>
      <trkpt lat="43.59411" lon="2.90844">
        <ele>954.8</ele>
        <time>2017-04-16T03:50:57.000Z</time>
      </trkpt>
      <trkpt lat="43.59416" lon="2.90844">
        <ele>955.2</ele>
        <time>2017-04-16T03:50:59.000Z</time>
      </trkpt>
      <trkpt lat="43.59419" lon="2.90843">
        <ele>955.4</ele>
        <time>2017-04-16T03:51:00.000Z</time>
      </trkpt>
      <trkpt lat="43.59423" lon="2.90843">
        <ele>956</ele>
        <time>2017-04-16T03:51:02.000Z</time>
      </trkpt>
      <trkpt lat="43.59425" lon="2.90844">
        <ele>956.4</ele>
        <time>2017-04-16T03:51:03.000Z</time>
      </trkpt>
      <trkpt lat="43.5943" lon="2.90845">
        <ele>957</ele>
        <time>2017-04-16T03:51:06.000Z</time>
      </trkpt>
      <trkpt lat="43.59431" lon="2.90846">
        <ele>957.2</ele>
        <time>2017-04-16T03:51:07.000Z</time>
      </trkpt>
      <trkpt lat="43.59435" lon="2.90848">
        <ele>957.4</ele>
        <time>2017-04-16T03:51:09.000Z</time>
      </trkpt>
      <trkpt lat="43.59439" lon="2.90848">
        <ele>958.2</ele>
        <time>2017-04-16T03:51:11.000Z</time>
      </trkpt>
      <trkpt lat="43.59443" lon="2.90849">
        <ele>958.8</ele>
        <time>2017-04-16T03:51:14.000Z</time>
      </trkpt>
      <trkpt lat="43.59446" lon="2.90849">
        <ele>959.2</ele>
        <time>2017-04-16T03:51:16.000Z</time>
      </trkpt>
      <trkpt lat="43.59448" lon="2.90849">
        <ele>959.4</ele>
        <time>2017-04-16T03:51:17.000Z</time>
      </trkpt>
      <trkpt lat="43.59452" lon="2.9085">
        <ele>959.8</ele>
        <time>2017-04-16T03:51:19.000Z</time>
      </trkpt>
      <trkpt lat="43.59464" lon="2.90846">
        <ele>960.4</ele>
        <time>2017-04-16T03:51:25.000Z</time>
      </trkpt>
      <trkpt lat="43.59469" lon="2.90845">
        <ele>961</ele>
        <time>2017-04-16T03:51:27.000Z</time>
      </trkpt>
      <trkpt lat="43.59473" lon="2.90844">
        <ele>961.4</ele>
        <time>2017-04-16T03:51:29.000Z</time>
      </trkpt>
      <trkpt lat="43.59475" lon="2.90843">
        <ele>961.8</ele>
        <time>2017-04-16T03:51:31.000Z</time>
      </trkpt>
      <trkpt lat="43.59477" lon="2.90841">
        <ele>962</ele>
        <time>2017-04-16T03:51:33.000Z</time>
      </trkpt>
      <trkpt lat="43.59479" lon="2.90839">
        <ele>962.2</ele>
        <time>2017-04-16T03:51:35.000Z</time>
      </trkpt>
      <trkpt lat="43.59482" lon="2.90831">
        <ele>962.8</ele>
        <time>2017-04-16T03:51:39.000Z</time>
      </trkpt>
      <trkpt lat="43.59483" lon="2.90829">
        <ele>963</ele>
        <time>2017-04-16T03:51:40.000Z</time>
      </trkpt>
      <trkpt lat="43.59483" lon="2.90828">
        <ele>963.2</ele>
        <time>2017-04-16T03:51:41.000Z</time>
      </trkpt>
      <trkpt lat="43.59485" lon="2.90826">
        <ele>963.6</ele>
        <time>2017-04-16T03:51:43.000Z</time>
      </trkpt>
      <trkpt lat="43.59488" lon="2.90825">
        <ele>964</ele>
        <time>2017-04-16T03:51:45.000Z</time>
      </trkpt>
      <trkpt lat="43.5949" lon="2.90823">
        <ele>964.2</ele>
        <time>2017-04-16T03:51:47.000Z</time>
      </trkpt>
      <trkpt lat="43.59496" lon="2.90818">
        <ele>964.6</ele>
        <time>2017-04-16T03:51:53.000Z</time>
      </trkpt>
      <trkpt lat="43.59497" lon="2.90818">
        <ele>965</ele>
        <time>2017-04-16T03:51:54.000Z</time>
      </trkpt>
      <trkpt lat="43.59497" lon="2.90818">
        <ele>965.2</ele>
        <time>2017-04-16T03:51:55.000Z</time>
      </trkpt>
      <trkpt lat="43.59499" lon="2.90817">
        <ele>965.8</ele>
        <time>2017-04-16T03:51:58.000Z</time>
      </trkpt>
      <trkpt lat="43.59502" lon="2.90817">
        <ele>966</ele>
        <time>2017-04-16T03:52:00.000Z</time>
      </trkpt>
      <trkpt lat="43.59502" lon="2.90817">
        <ele>966.2</ele>
        <time>2017-04-16T03:52:01.000Z</time>
      </trkpt>
      <trkpt lat="43.59505" lon="2.90813">
        <ele>966.6</ele>
        <time>2017-04-16T03:52:04.000Z</time>
      </trkpt>
      <trkpt lat="43.59507" lon="2.90808">
        <ele>967.2</ele>
        <time>2017-04-16T03:52:06.000Z</time>
      </trkpt>
      <trkpt lat="43.59509" lon="2.90805">
        <ele>967.6</ele>
        <time>2017-04-16T03:52:08.000Z</time>
      </trkpt>
      <trkpt lat="43.5951" lon="2.90804">
        <ele>968</ele>
        <time>2017-04-16T03:52:10.000Z</time>
      </trkpt>
      <trkpt lat="43.59514" lon="2.90801">
        <ele>968.2</ele>
        <time>2017-04-16T03:52:12.000Z</time>
      </trkpt>
      <trkpt lat="43.59525" lon="2.90794">
        <ele>968.8</ele>
        <time>2017-04-16T03:52:16.000Z</time>
      </trkpt>
      <trkpt lat="43.59529" lon="2.90791">
        <ele>969.4</ele>
        <time>2017-04-16T03:52:18.000Z</time>
      </trkpt>
      <trkpt lat="43.59531" lon="2.90789">
        <ele>969.6</ele>
        <time>2017-04-16T03:52:19.000Z</time>
      </trkpt>
      <trkpt lat="43.59537" lon="2.90784">
        <ele>970</ele>
        <time>2017-04-16T03:52:22.000Z</time>
      </trkpt>
      <trkpt lat="43.5954" lon="2.90782">
        <ele>970.2</ele>
        <time>2017-04-16T03:52:24.000Z</time>
      </trkpt>
      <trkpt lat="43.59547" lon="2.90777">
        <ele>970.8</ele>
        <time>2017-04-16T03:52:29.000Z</time>
      </trkpt>
      <trkpt lat="43.59548" lon="2.90775">
        <ele>971</ele>
        <time>2017-04-16T03:52:30.000Z</time>
      </trkpt>
      <trkpt lat="43.59551" lon="2.90772">
        <ele>971.6</ele>
        <time>2017-04-16T03:52:32.000Z</time>
      </trkpt>
      <trkpt lat="43.59557" lon="2.90769">
        <ele>972</ele>
        <time>2017-04-16T03:52:34.000Z</time>
      </trkpt>
      <trkpt lat="43.59561" lon="2.90768">
        <ele>972.2</ele>
        <time>2017-04-16T03:52:35.000Z</time>
      </trkpt>
      <trkpt lat="43.59566" lon="2.90762">
        <ele>972.6</ele>
        <time>2017-04-16T03:52:38.000Z</time>
      </trkpt>
      <trkpt lat="43.59567" lon="2.90759">
        <ele>973</ele>
        <time>2017-04-16T03:52:41.000Z</time>
      </trkpt>
      <trkpt lat="43.59567" lon="2.90758">
        <ele>973.4</ele>
        <time>2017-04-16T03:52:42.000Z</time>
      </trkpt>
      <trkpt lat="43.59568" lon="2.90757">
        <ele>973.6</ele>
        <time>2017-04-16T03:52:43.000Z</time>
      </trkpt>
      <trkpt lat="43.59568" lon="2.90756">
        <ele>973.8</ele>
        <time>2017-04-16T03:52:44.000Z</time>
      </trkpt>
      <trkpt lat="43.59569" lon="2.90755">
        <ele>974</ele>
        <time>2017-04-16T03:52:45.000Z</time>
      </trkpt>
      <trkpt lat="43.59571" lon="2.90756">
        <ele>974.2</ele>
        <time>2017-04-16T03:52:46.000Z</time>
      </trkpt>
      <trkpt lat="43.59572" lon="2.90756">
        <ele>974.4</ele>
        <time>2017-04-16T03:52:47.000Z</time>
      </trkpt>
      <trkpt lat="43.59575" lon="2.90757">
        <ele>974.8</ele>
        <time>2017-04-16T03:52:48.000Z</time>
      </trkpt>
      <trkpt lat="43.59577" lon="2.90757">
        <ele>975</ele>
        <time>2017-04-16T03:52:49.000Z</time>
      </trkpt>
      <trkpt lat="43.59588" lon="2.90751">
        <ele>975.8</ele>
        <time>2017-04-16T03:52:52.000Z</time>
      </trkpt>
      <trkpt lat="43.59591" lon="2.9075">
        <ele>976</ele>
        <time>2017-04-16T03:52:53.000Z</time>
      </trkpt>
      <trkpt lat="43.59598" lon="2.90744">
        <ele>976.6</ele>
        <time>2017-04-16T03:52:56.000Z</time>
      </trkpt>
      <trkpt lat="43.59603" lon="2.90733">
        <ele>977.2</ele>
        <time>2017-04-16T03:53:01.000Z</time>
      </trkpt>
      <trkpt lat="43.59606" lon="2.90728">
        <ele>977.4</ele>
        <time>2017-04-16T03:53:03.000Z</time>
      </trkpt>
      <trkpt lat="43.5961" lon="2.90721">
        <ele>977.8</ele>
        <time>2017-04-16T03:53:06.000Z</time>
      </trkpt>
      <trkpt lat="43.59612" lon="2.90716">
        <ele>978.2</ele>
        <time>2017-04-16T03:53:08.000Z</time>
      </trkpt>
      <trkpt lat="43.59614" lon="2.90712">
        <ele>978.6</ele>
        <time>2017-04-16T03:53:10.000Z</time>
      </trkpt>
      <trkpt lat="43.59615" lon="2.9071">
        <ele>978.6</ele>
        <time>2017-04-16T03:53:11.000Z</time>
      </trkpt>
      <trkpt lat="43.59615" lon="2.90703">
        <ele>979</ele>
        <time>2017-04-16T03:53:14.000Z</time>
      </trkpt>
      <trkpt lat="43.59616" lon="2.90701">
        <ele>979.2</ele>
        <time>2017-04-16T03:53:15.000Z</time>
      </trkpt>
      <trkpt lat="43.5963" lon="2.90691">
        <ele>979.6</ele>
        <time>2017-04-16T03:53:22.000Z</time>
      </trkpt>
      <trkpt lat="43.59631" lon="2.90689">
        <ele>980</ele>
        <time>2017-04-16T03:53:24.000Z</time>
      </trkpt>
      <trkpt lat="43.59632" lon="2.90686">
        <ele>980.4</ele>
        <time>2017-04-16T03:53:26.000Z</time>
      </trkpt>
      <trkpt lat="43.59633" lon="2.90685">
        <ele>980.6</ele>
        <time>2017-04-16T03:53:28.000Z</time>
      </trkpt>
      <trkpt lat="43.59636" lon="2.90683">
        <ele>981</ele>
        <time>2017-04-16T03:53:30.000Z</time>
      </trkpt>
      <trkpt lat="43.59638" lon="2.9068">
        <ele>981.2</ele>
        <time>2017-04-16T03:53:32.000Z</time>
      </trkpt>
      <trkpt lat="43.59642" lon="2.90671">
        <ele>981.8</ele>
        <time>2017-04-16T03:53:37.000Z</time>
      </trkpt>
      <trkpt lat="43.59644" lon="2.90666">
        <ele>982.4</ele>
        <time>2017-04-16T03:53:39.000Z</time>
      </trkpt>
      <trkpt lat="43.59648" lon="2.9066">
        <ele>982.8</ele>
        <time>2017-04-16T03:53:41.000Z</time>
      </trkpt>
      <trkpt lat="43.59654" lon="2.90654">
        <ele>983.2</ele>
        <time>2017-04-16T03:53:43.000Z</time>
      </trkpt>
      <trkpt lat="43.59661" lon="2.90649">
        <ele>983.4</ele>
        <time>2017-04-16T03:53:45.000Z</time>
      </trkpt>
      <trkpt lat="43.59664" lon="2.90648">
        <ele>983.6</ele>
        <time>2017-04-16T03:53:46.000Z</time>
      </trkpt>
      <trkpt lat="43.59668" lon="2.90638">
        <ele>984.2</ele>
        <time>2017-04-16T03:53:50.000Z</time>
      </trkpt>
      <trkpt lat="43.59669" lon="2.90635">
        <ele>984.6</ele>
        <time>2017-04-16T03:53:52.000Z</time>
      </trkpt>
      <trkpt lat="43.5967" lon="2.90632">
        <ele>985</ele>
        <time>2017-04-16T03:53:54.000Z</time>
      </trkpt>
      <trkpt lat="43.59673" lon="2.9063">
        <ele>985.4</ele>
        <time>2017-04-16T03:53:56.000Z</time>
      </trkpt>
      <trkpt lat="43.59676" lon="2.90629">
        <ele>985.6</ele>
        <time>2017-04-16T03:53:58.000Z</time>
      </trkpt>
      <trkpt lat="43.59685" lon="2.90616">
        <ele>986</ele>
        <time>2017-04-16T03:54:02.000Z</time>
      </trkpt>
      <trkpt lat="43.59685" lon="2.90613">
        <ele>986.2</ele>
        <time>2017-04-16T03:54:03.000Z</time>
      </trkpt>
      <trkpt lat="43.59689" lon="2.90603">
        <ele>986.4</ele>
        <time>2017-04-16T03:54:08.000Z</time>
      </trkpt>
      <trkpt lat="43.5969" lon="2.90599">
        <ele>986.4</ele>
        <time>2017-04-16T03:54:10.000Z</time>
      </trkpt>
      <trkpt lat="43.59693" lon="2.90593">
        <ele>986.6</ele>
        <time>2017-04-16T03:54:12.000Z</time>
      </trkpt>
      <trkpt lat="43.59695" lon="2.90582">
        <ele>986.8</ele>
        <time>2017-04-16T03:54:15.000Z</time>
      </trkpt>
      <trkpt lat="43.59695" lon="2.90574">
        <ele>987.2</ele>
        <time>2017-04-16T03:54:17.000Z</time>
      </trkpt>
      <trkpt lat="43.59696" lon="2.90568">
        <ele>987.6</ele>
        <time>2017-04-16T03:54:19.000Z</time>
      </trkpt>
      <trkpt lat="43.59695" lon="2.90562">
        <ele>987.8</ele>
        <time>2017-04-16T03:54:21.000Z</time>
      </trkpt>
      <trkpt lat="43.59695" lon="2.90558">
        <ele>988</ele>
        <time>2017-04-16T03:54:23.000Z</time>
      </trkpt>
      <trkpt lat="43.59692" lon="2.90547">
        <ele>988.6</ele>
        <time>2017-04-16T03:54:28.000Z</time>
      </trkpt>
      <trkpt lat="43.59693" lon="2.90546">
        <ele>989</ele>
        <time>2017-04-16T03:54:29.000Z</time>
      </trkpt>
      <trkpt lat="43.59699" lon="2.90542">
        <ele>989.6</ele>
        <time>2017-04-16T03:54:32.000Z</time>
      </trkpt>
      <trkpt lat="43.59702" lon="2.90536">
        <ele>989.8</ele>
        <time>2017-04-16T03:54:34.000Z</time>
      </trkpt>
      <trkpt lat="43.59707" lon="2.9053">
        <ele>990.4</ele>
        <time>2017-04-16T03:54:36.000Z</time>
      </trkpt>
      <trkpt lat="43.59712" lon="2.90523">
        <ele>991</ele>
        <time>2017-04-16T03:54:38.000Z</time>
      </trkpt>
      <trkpt lat="43.59716" lon="2.90516">
        <ele>991.4</ele>
        <time>2017-04-16T03:54:40.000Z</time>
      </trkpt>
      <trkpt lat="43.59719" lon="2.90511">
        <ele>991.8</ele>
        <time>2017-04-16T03:54:42.000Z</time>
      </trkpt>
      <trkpt lat="43.5972" lon="2.90509">
        <ele>992</ele>
        <time>2017-04-16T03:54:43.000Z</time>
      </trkpt>
      <trkpt lat="43.59719" lon="2.90491">
        <ele>992.8</ele>
        <time>2017-04-16T03:54:50.000Z</time>
      </trkpt>
      <trkpt lat="43.59719" lon="2.90488">
        <ele>993</ele>
        <time>2017-04-16T03:54:51.000Z</time>
      </trkpt>
      <trkpt lat="43.59721" lon="2.9048">
        <ele>993.4</ele>
        <time>2017-04-16T03:54:54.000Z</time>
      </trkpt>
      <trkpt lat="43.59721" lon="2.90477">
        <ele>993.6</ele>
        <time>2017-04-16T03:54:55.000Z</time>
      </trkpt>
      <trkpt lat="43.59723" lon="2.90476">
        <ele>993.8</ele>
        <time>2017-04-16T03:54:56.000Z</time>
      </trkpt>
      <trkpt lat="43.59726" lon="2.90474">
        <ele>994.2</ele>
        <time>2017-04-16T03:54:58.000Z</time>
      </trkpt>
      <trkpt lat="43.59727" lon="2.90473">
        <ele>994.2</ele>
        <time>2017-04-16T03:54:59.000Z</time>
      </trkpt>
      <trkpt lat="43.59729" lon="2.90473">
        <ele>994.4</ele>
        <time>2017-04-16T03:55:00.000Z</time>
      </trkpt>
      <trkpt lat="43.59733" lon="2.90472">
        <ele>994.6</ele>
        <time>2017-04-16T03:55:02.000Z</time>
      </trkpt>
      <trkpt lat="43.59735" lon="2.90471">
        <ele>994.8</ele>
        <time>2017-04-16T03:55:03.000Z</time>
      </trkpt>
      <trkpt lat="43.59742" lon="2.90466">
        <ele>995</ele>
        <time>2017-04-16T03:55:07.000Z</time>
      </trkpt>
      <trkpt lat="43.59748" lon="2.90459">
        <ele>995.6</ele>
        <time>2017-04-16T03:55:12.000Z</time>
      </trkpt>
      <trkpt lat="43.59751" lon="2.90456">
        <ele>996</ele>
        <time>2017-04-16T03:55:14.000Z</time>
      </trkpt>
      <trkpt lat="43.59753" lon="2.90454">
        <ele>996.2</ele>
        <time>2017-04-16T03:55:15.000Z</time>
      </trkpt>
      <trkpt lat="43.59759" lon="2.90448">
        <ele>996.6</ele>
        <time>2017-04-16T03:55:18.000Z</time>
      </trkpt>
      <trkpt lat="43.59763" lon="2.90444">
        <ele>996.8</ele>
        <time>2017-04-16T03:55:20.000Z</time>
      </trkpt>
      <trkpt lat="43.59769" lon="2.9043">
        <ele>997.2</ele>
        <time>2017-04-16T03:55:26.000Z</time>
      </trkpt>
      <trkpt lat="43.59773" lon="2.90421">
        <ele>997.6</ele>
        <time>2017-04-16T03:55:30.000Z</time>
      </trkpt>
      <trkpt lat="43.59775" lon="2.90417">
        <ele>998</ele>
        <time>2017-04-16T03:55:32.000Z</time>
      </trkpt>
      <trkpt lat="43.59777" lon="2.90412">
        <ele>998.4</ele>
        <time>2017-04-16T03:55:34.000Z</time>
      </trkpt>
      <trkpt lat="43.5978" lon="2.90407">
        <ele>998.8</ele>
        <time>2017-04-16T03:55:36.000Z</time>
      </trkpt>
      <trkpt lat="43.59782" lon="2.90403">
        <ele>999</ele>
        <time>2017-04-16T03:55:38.000Z</time>
      </trkpt>
      <trkpt lat="43.59788" lon="2.90395">
        <ele>999.6</ele>
        <time>2017-04-16T03:55:42.000Z</time>
      </trkpt>
      <trkpt lat="43.5979" lon="2.90393">
        <ele>999.8</ele>
        <time>2017-04-16T03:55:43.000Z</time>
      </trkpt>
      <trkpt lat="43.59795" lon="2.90388">
        <ele>1000.4</ele>
        <time>2017-04-16T03:55:46.000Z</time>
      </trkpt>
      <trkpt lat="43.59798" lon="2.90384">
        <ele>1000.8</ele>
        <time>2017-04-16T03:55:48.000Z</time>
      </trkpt>
      <trkpt lat="43.59799" lon="2.90383">
        <ele>1001</ele>
        <time>2017-04-16T03:55:49.000Z</time>
      </trkpt>
      <trkpt lat="43.59808" lon="2.90368">
        <ele>1001.8</ele>
        <time>2017-04-16T03:55:56.000Z</time>
      </trkpt>
      <trkpt lat="43.59812" lon="2.90364">
        <ele>1002.4</ele>
        <time>2017-04-16T03:55:58.000Z</time>
      </trkpt>
      <trkpt lat="43.59816" lon="2.9036">
        <ele>1002.6</ele>
        <time>2017-04-16T03:56:00.000Z</time>
      </trkpt>
      <trkpt lat="43.5982" lon="2.90357">
        <ele>1003.2</ele>
        <time>2017-04-16T03:56:02.000Z</time>
      </trkpt>
      <trkpt lat="43.59823" lon="2.90352">
        <ele>1003.8</ele>
        <time>2017-04-16T03:56:04.000Z</time>
      </trkpt>
      <trkpt lat="43.59827" lon="2.90346">
        <ele>1004.4</ele>
        <time>2017-04-16T03:56:06.000Z</time>
      </trkpt>
      <trkpt lat="43.59831" lon="2.90341">
        <ele>1004.8</ele>
        <time>2017-04-16T03:56:08.000Z</time>
      </trkpt>
      <trkpt lat="43.59835" lon="2.90335">
        <ele>1005.2</ele>
        <time>2017-04-16T03:56:10.000Z</time>
      </trkpt>
      <trkpt lat="43.5985" lon="2.90313">
        <ele>1006</ele>
        <time>2017-04-16T03:56:18.000Z</time>
      </trkpt>
      <trkpt lat="43.59862" lon="2.90296">
        <ele>1006.2</ele>
        <time>2017-04-16T03:56:25.000Z</time>
      </trkpt>
      <trkpt lat="43.59877" lon="2.90278">
        <ele>1006.4</ele>
        <time>2017-04-16T03:56:33.000Z</time>
      </trkpt>
      <trkpt lat="43.59889" lon="2.90271">
        <ele>1006.4</ele>
        <time>2017-04-16T03:56:38.000Z</time>
      </trkpt>
      <trkpt lat="43.59899" lon="2.90263">
        <ele>1006.4</ele>
        <time>2017-04-16T03:56:43.000Z</time>
      </trkpt>
      <trkpt lat="43.59913" lon="2.90255">
        <ele>1006.4</ele>
        <time>2017-04-16T03:56:48.000Z</time>
      </trkpt>
      <trkpt lat="43.59924" lon="2.90246">
        <ele>1006.8</ele>
        <time>2017-04-16T03:56:53.000Z</time>
      </trkpt>
      <trkpt lat="43.59928" lon="2.90243">
        <ele>1007</ele>
        <time>2017-04-16T03:56:55.000Z</time>
      </trkpt>
      <trkpt lat="43.59931" lon="2.90241">
        <ele>1007.4</ele>
        <time>2017-04-16T03:56:57.000Z</time>
      </trkpt>
      <trkpt lat="43.59934" lon="2.90238">
        <ele>1007.6</ele>
        <time>2017-04-16T03:56:59.000Z</time>
      </trkpt>
      <trkpt lat="43.59937" lon="2.90235">
        <ele>1008</ele>
        <time>2017-04-16T03:57:01.000Z</time>
      </trkpt>
      <trkpt lat="43.59939" lon="2.90232">
        <ele>1008.6</ele>
        <time>2017-04-16T03:57:03.000Z</time>
      </trkpt>
      <trkpt lat="43.59942" lon="2.90229">
        <ele>1009</ele>
        <time>2017-04-16T03:57:05.000Z</time>
      </trkpt>
      <trkpt lat="43.59943" lon="2.90228">
        <ele>1009.4</ele>
        <time>2017-04-16T03:57:06.000Z</time>
      </trkpt>
      <trkpt lat="43.59943" lon="2.90225">
        <ele>1009.8</ele>
        <time>2017-04-16T03:57:07.000Z</time>
      </trkpt>
      <trkpt lat="43.59945" lon="2.90223">
        <ele>1010</ele>
        <time>2017-04-16T03:57:08.000Z</time>
      </trkpt>
      <trkpt lat="43.59946" lon="2.9022">
        <ele>1010.6</ele>
        <time>2017-04-16T03:57:10.000Z</time>
      </trkpt>
      <trkpt lat="43.59947" lon="2.90219">
        <ele>1010.8</ele>
        <time>2017-04-16T03:57:11.000Z</time>
      </trkpt>
      <trkpt lat="43.59949" lon="2.90215">
        <ele>1011.6</ele>
        <time>2017-04-16T03:57:14.000Z</time>
      </trkpt>
      <trkpt lat="43.59951" lon="2.90212">
        <ele>1012.2</ele>
        <time>2017-04-16T03:57:16.000Z</time>
      </trkpt>
      <trkpt lat="43.59952" lon="2.90208">
        <ele>1012.8</ele>
        <time>2017-04-16T03:57:18.000Z</time>
      </trkpt>
      <trkpt lat="43.59953" lon="2.90207">
        <ele>1013</ele>
        <time>2017-04-16T03:57:19.000Z</time>
      </trkpt>
      <trkpt lat="43.59958" lon="2.90206">
        <ele>1013.4</ele>
        <time>2017-04-16T03:57:22.000Z</time>
      </trkpt>
      <trkpt lat="43.59962" lon="2.90204">
        <ele>1014</ele>
        <time>2017-04-16T03:57:24.000Z</time>
      </trkpt>
      <trkpt lat="43.59965" lon="2.90203">
        <ele>1014.6</ele>
        <time>2017-04-16T03:57:26.000Z</time>
      </trkpt>
      <trkpt lat="43.59966" lon="2.90201">
        <ele>1014.8</ele>
        <time>2017-04-16T03:57:27.000Z</time>
      </trkpt>
      <trkpt lat="43.59968" lon="2.90201">
        <ele>1015</ele>
        <time>2017-04-16T03:57:28.000Z</time>
      </trkpt>
      <trkpt lat="43.59969" lon="2.902">
        <ele>1015.4</ele>
        <time>2017-04-16T03:57:29.000Z</time>
      </trkpt>
      <trkpt lat="43.59972" lon="2.90198">
        <ele>1016.2</ele>
        <time>2017-04-16T03:57:31.000Z</time>
      </trkpt>
      <trkpt lat="43.59975" lon="2.90196">
        <ele>1016.8</ele>
        <time>2017-04-16T03:57:33.000Z</time>
      </trkpt>
      <trkpt lat="43.59979" lon="2.90192">
        <ele>1017.2</ele>
        <time>2017-04-16T03:57:35.000Z</time>
      </trkpt>
      <trkpt lat="43.59985" lon="2.90187">
        <ele>1017.6</ele>
        <time>2017-04-16T03:57:37.000Z</time>
      </trkpt>
      <trkpt lat="43.60005" lon="2.90173">
        <ele>1018.4</ele>
        <time>2017-04-16T03:57:45.000Z</time>
      </trkpt>
      <trkpt lat="43.60022" lon="2.9016">
        <ele>1018.8</ele>
        <time>2017-04-16T03:57:52.000Z</time>
      </trkpt>
      <trkpt lat="43.60036" lon="2.90152">
        <ele>1019</ele>
        <time>2017-04-16T03:57:57.000Z</time>
      </trkpt>
      <trkpt lat="43.60054" lon="2.90142">
        <ele>1019</ele>
        <time>2017-04-16T03:58:02.000Z</time>
      </trkpt>
      <trkpt lat="43.60075" lon="2.90141">
        <ele>1019.2</ele>
        <time>2017-04-16T03:58:08.000Z</time>
      </trkpt>
      <trkpt lat="43.60088" lon="2.90145">
        <ele>1019.2</ele>
        <time>2017-04-16T03:58:11.000Z</time>
      </trkpt>
      <trkpt lat="43.60107" lon="2.90152">
        <ele>1019.2</ele>
        <time>2017-04-16T03:58:15.000Z</time>
      </trkpt>
      <trkpt lat="43.60117" lon="2.90151">
        <ele>1019</ele>
        <time>2017-04-16T03:58:17.000Z</time>
      </trkpt>
      <trkpt lat="43.60125" lon="2.90149">
        <ele>1018.6</ele>
        <time>2017-04-16T03:58:19.000Z</time>
      </trkpt>
      <trkpt lat="43.60135" lon="2.90145">
        <ele>1018.2</ele>
        <time>2017-04-16T03:58:21.000Z</time>
      </trkpt>
      <trkpt lat="43.60145" lon="2.90141">
        <ele>1018</ele>
        <time>2017-04-16T03:58:23.000Z</time>
      </trkpt>
      <trkpt lat="43.60163" lon="2.90136">
        <ele>1017.8</ele>
        <time>2017-04-16T03:58:25.000Z</time>
      </trkpt>
      <trkpt lat="43.60195" lon="2.90122">
        <ele>1017.6</ele>
        <time>2017-04-16T03:58:30.000Z</time>
      </trkpt>
      <trkpt lat="43.60211" lon="2.90115">
        <ele>1017.4</ele>
        <time>2017-04-16T03:58:33.000Z</time>
      </trkpt>
      <trkpt lat="43.60238" lon="2.90113">
        <ele>1017.2</ele>
        <time>2017-04-16T03:58:38.000Z</time>
      </trkpt>
      <trkpt lat="43.60243" lon="2.90128">
        <ele>1017.2</ele>
        <time>2017-04-16T03:58:41.000Z</time>
      </trkpt>
      <trkpt lat="43.60243" lon="2.90136">
        <ele>1017</ele>
        <time>2017-04-16T03:58:42.000Z</time>
      </trkpt>
      <trkpt lat="43.60245" lon="2.90149">
        <ele>1016.6</ele>
        <time>2017-04-16T03:58:44.000Z</time>
      </trkpt>
      <trkpt lat="43.60248" lon="2.90155">
        <ele>1016.4</ele>
        <time>2017-04-16T03:58:45.000Z</time>
      </trkpt>
      <trkpt lat="43.60251" lon="2.90162">
        <ele>1016.2</ele>
        <time>2017-04-16T03:58:46.000Z</time>
      </trkpt>
      <trkpt lat="43.60253" lon="2.90179">
        <ele>1016</ele>
        <time>2017-04-16T03:58:48.000Z</time>
      </trkpt>
      <trkpt lat="43.60253" lon="2.90186">
        <ele>1015.8</ele>
        <time>2017-04-16T03:58:49.000Z</time>
      </trkpt>
      <trkpt lat="43.60254" lon="2.90193">
        <ele>1015.8</ele>
        <time>2017-04-16T03:58:50.000Z</time>
      </trkpt>
      <trkpt lat="43.60256" lon="2.902">
        <ele>1015.6</ele>
        <time>2017-04-16T03:58:51.000Z</time>
      </trkpt>
      <trkpt lat="43.6026" lon="2.90222">
        <ele>1015.2</ele>
        <time>2017-04-16T03:58:54.000Z</time>
      </trkpt>
      <trkpt lat="43.60258" lon="2.9023">
        <ele>1015</ele>
        <time>2017-04-16T03:58:55.000Z</time>
      </trkpt>
      <trkpt lat="43.60257" lon="2.90238">
        <ele>1014.8</ele>
        <time>2017-04-16T03:58:56.000Z</time>
      </trkpt>
      <trkpt lat="43.60256" lon="2.90247">
        <ele>1014.6</ele>
        <time>2017-04-16T03:58:57.000Z</time>
      </trkpt>
      <trkpt lat="43.60259" lon="2.90273">
        <ele>1014</ele>
        <time>2017-04-16T03:59:00.000Z</time>
      </trkpt>
      <trkpt lat="43.60262" lon="2.90282">
        <ele>1014</ele>
        <time>2017-04-16T03:59:01.000Z</time>
      </trkpt>
      <trkpt lat="43.60272" lon="2.90311">
        <ele>1013.4</ele>
        <time>2017-04-16T03:59:04.000Z</time>
      </trkpt>
      <trkpt lat="43.60278" lon="2.9033">
        <ele>1012.8</ele>
        <time>2017-04-16T03:59:06.000Z</time>
      </trkpt>
      <trkpt lat="43.60281" lon="2.90338">
        <ele>1012.6</ele>
        <time>2017-04-16T03:59:07.000Z</time>
      </trkpt>
      <trkpt lat="43.6029" lon="2.90353">
        <ele>1012.2</ele>
        <time>2017-04-16T03:59:09.000Z</time>
      </trkpt>
      <trkpt lat="43.60305" lon="2.9037">
        <ele>1011.8</ele>
        <time>2017-04-16T03:59:12.000Z</time>
      </trkpt>
      <trkpt lat="43.60339" lon="2.90401">
        <ele>1011.2</ele>
        <time>2017-04-16T03:59:17.000Z</time>
      </trkpt>
      <trkpt lat="43.60345" lon="2.90407">
        <ele>1010.8</ele>
        <time>2017-04-16T03:59:18.000Z</time>
      </trkpt>
      <trkpt lat="43.60365" lon="2.90423">
        <ele>1010</ele>
        <time>2017-04-16T03:59:21.000Z</time>
      </trkpt>
      <trkpt lat="43.60373" lon="2.90435">
        <ele>1009.2</ele>
        <time>2017-04-16T03:59:23.000Z</time>
      </trkpt>
      <trkpt lat="43.6038" lon="2.90439">
        <ele>1009</ele>
        <time>2017-04-16T03:59:24.000Z</time>
      </trkpt>
      <trkpt lat="43.60399" lon="2.9046">
        <ele>1008.2</ele>
        <time>2017-04-16T03:59:27.000Z</time>
      </trkpt>
      <trkpt lat="43.60402" lon="2.90469">
        <ele>1008</ele>
        <time>2017-04-16T03:59:28.000Z</time>
      </trkpt>
      <trkpt lat="43.60405" lon="2.9048">
        <ele>1008</ele>
        <time>2017-04-16T03:59:29.000Z</time>
      </trkpt>
      <trkpt lat="43.60411" lon="2.90512">
        <ele>1007.2</ele>
        <time>2017-04-16T03:59:32.000Z</time>
      </trkpt>
      <trkpt lat="43.60415" lon="2.90532">
        <ele>1006.6</ele>
        <time>2017-04-16T03:59:34.000Z</time>
      </trkpt>
      <trkpt lat="43.60421" lon="2.90551">
        <ele>1006.2</ele>
        <time>2017-04-16T03:59:36.000Z</time>
      </trkpt>
      <trkpt lat="43.60424" lon="2.9056">
        <ele>1006</ele>
        <time>2017-04-16T03:59:37.000Z</time>
      </trkpt>
      <trkpt lat="43.60438" lon="2.90584">
        <ele>1005.4</ele>
        <time>2017-04-16T03:59:40.000Z</time>
      </trkpt>
      <trkpt lat="43.60441" lon="2.90593">
        <ele>1005.2</ele>
        <time>2017-04-16T03:59:41.000Z</time>
      </trkpt>
      <trkpt lat="43.60444" lon="2.90614">
        <ele>1004.4</ele>
        <time>2017-04-16T03:59:43.000Z</time>
      </trkpt>
      <trkpt lat="43.60451" lon="2.90634">
        <ele>1004</ele>
        <time>2017-04-16T03:59:45.000Z</time>
      </trkpt>
      <trkpt lat="43.60453" lon="2.90641">
        <ele>1003.8</ele>
        <time>2017-04-16T03:59:46.000Z</time>
      </trkpt>
      <trkpt lat="43.60463" lon="2.90658">
        <ele>1003.2</ele>
        <time>2017-04-16T03:59:49.000Z</time>
      </trkpt>
      <trkpt lat="43.60468" lon="2.90659">
        <ele>1003.2</ele>
        <time>2017-04-16T03:59:50.000Z</time>
      </trkpt>
      <trkpt lat="43.60484" lon="2.90663">
        <ele>1002.6</ele>
        <time>2017-04-16T03:59:52.000Z</time>
      </trkpt>
      <trkpt lat="43.605" lon="2.9067">
        <ele>1002</ele>
        <time>2017-04-16T03:59:54.000Z</time>
      </trkpt>
      <trkpt lat="43.60507" lon="2.90674">
        <ele>1001.6</ele>
        <time>2017-04-16T03:59:55.000Z</time>
      </trkpt>
      <trkpt lat="43.60513" lon="2.90678">
        <ele>1001.2</ele>
        <time>2017-04-16T03:59:56.000Z</time>
      </trkpt>
      <trkpt lat="43.60527" lon="2.90682">
        <ele>1000.2</ele>
        <time>2017-04-16T03:59:58.000Z</time>
      </trkpt>
      <trkpt lat="43.60539" lon="2.90686">
        <ele>999.2</ele>
        <time>2017-04-16T04:00:00.000Z</time>
      </trkpt>
      <trkpt lat="43.60548" lon="2.90686">
        <ele>998.8</ele>
        <time>2017-04-16T04:00:01.000Z</time>
      </trkpt>
      <trkpt lat="43.60556" lon="2.90686">
        <ele>998.4</ele>
        <time>2017-04-16T04:00:02.000Z</time>
      </trkpt>
      <trkpt lat="43.60574" lon="2.90682">
        <ele>997.8</ele>
        <time>2017-04-16T04:00:04.000Z</time>
      </trkpt>
      <trkpt lat="43.60584" lon="2.90676">
        <ele>997.6</ele>
        <time>2017-04-16T04:00:05.000Z</time>
      </trkpt>
      <trkpt lat="43.60594" lon="2.90669">
        <ele>997.2</ele>
        <time>2017-04-16T04:00:06.000Z</time>
      </trkpt>
      <trkpt lat="43.6061" lon="2.90655">
        <ele>996.8</ele>
        <time>2017-04-16T04:00:08.000Z</time>
      </trkpt>
      <trkpt lat="43.60621" lon="2.90648">
        <ele>996.2</ele>
        <time>2017-04-16T04:00:10.000Z</time>
      </trkpt>
      <trkpt lat="43.60627" lon="2.90646">
        <ele>996</ele>
        <time>2017-04-16T04:00:11.000Z</time>
      </trkpt>
      <trkpt lat="43.60636" lon="2.90649">
        <ele>995.6</ele>
        <time>2017-04-16T04:00:12.000Z</time>
      </trkpt>
      <trkpt lat="43.60653" lon="2.90651">
        <ele>995.2</ele>
        <time>2017-04-16T04:00:14.000Z</time>
      </trkpt>
      <trkpt lat="43.60662" lon="2.90652">
        <ele>994.6</ele>
        <time>2017-04-16T04:00:15.000Z</time>
      </trkpt>
      <trkpt lat="43.60683" lon="2.90653">
        <ele>994</ele>
        <time>2017-04-16T04:00:17.000Z</time>
      </trkpt>
      <trkpt lat="43.607" lon="2.90657">
        <ele>993</ele>
        <time>2017-04-16T04:00:19.000Z</time>
      </trkpt>
      <trkpt lat="43.60708" lon="2.90658">
        <ele>992.6</ele>
        <time>2017-04-16T04:00:20.000Z</time>
      </trkpt>
      <trkpt lat="43.6073" lon="2.90653">
        <ele>991.4</ele>
        <time>2017-04-16T04:00:23.000Z</time>
      </trkpt>
      <trkpt lat="43.60747" lon="2.90648">
        <ele>990.6</ele>
        <time>2017-04-16T04:00:25.000Z</time>
      </trkpt>
      <trkpt lat="43.60761" lon="2.90647">
        <ele>989.8</ele>
        <time>2017-04-16T04:00:27.000Z</time>
      </trkpt>
      <trkpt lat="43.60774" lon="2.9065">
        <ele>989</ele>
        <time>2017-04-16T04:00:29.000Z</time>
      </trkpt>
      <trkpt lat="43.60788" lon="2.9065">
        <ele>988</ele>
        <time>2017-04-16T04:00:31.000Z</time>
      </trkpt>
      <trkpt lat="43.60804" lon="2.9065">
        <ele>987.2</ele>
        <time>2017-04-16T04:00:33.000Z</time>
      </trkpt>
      <trkpt lat="43.60819" lon="2.90648">
        <ele>986.6</ele>
        <time>2017-04-16T04:00:35.000Z</time>
      </trkpt>
      <trkpt lat="43.60835" lon="2.90645">
        <ele>986.2</ele>
        <time>2017-04-16T04:00:37.000Z</time>
      </trkpt>
      <trkpt lat="43.60841" lon="2.90643">
        <ele>985.8</ele>
        <time>2017-04-16T04:00:38.000Z</time>
      </trkpt>
      <trkpt lat="43.60848" lon="2.9064">
        <ele>985.4</ele>
        <time>2017-04-16T04:00:39.000Z</time>
      </trkpt>
      <trkpt lat="43.60856" lon="2.90638">
        <ele>985</ele>
        <time>2017-04-16T04:00:40.000Z</time>
      </trkpt>
      <trkpt lat="43.60872" lon="2.90633">
        <ele>984.4</ele>
        <time>2017-04-16T04:00:42.000Z</time>
      </trkpt>
      <trkpt lat="43.60888" lon="2.90625">
        <ele>983.8</ele>
        <time>2017-04-16T04:00:44.000Z</time>
      </trkpt>
      <trkpt lat="43.60903" lon="2.90619">
        <ele>983.4</ele>
        <time>2017-04-16T04:00:46.000Z</time>
      </trkpt>
      <trkpt lat="43.60911" lon="2.90616">
        <ele>983.2</ele>
        <time>2017-04-16T04:00:47.000Z</time>
      </trkpt>
      <trkpt lat="43.60925" lon="2.90609">
        <ele>982.4</ele>
        <time>2017-04-16T04:00:49.000Z</time>
      </trkpt>
      <trkpt lat="43.60932" lon="2.90606">
        <ele>982.2</ele>
        <time>2017-04-16T04:00:50.000Z</time>
      </trkpt>
      <trkpt lat="43.60955" lon="2.90599">
        <ele>981.6</ele>
        <time>2017-04-16T04:00:53.000Z</time>
      </trkpt>
      <trkpt lat="43.6097" lon="2.90596">
        <ele>981.2</ele>
        <time>2017-04-16T04:00:55.000Z</time>
      </trkpt>
      <trkpt lat="43.60985" lon="2.90595">
        <ele>981</ele>
        <time>2017-04-16T04:00:57.000Z</time>
      </trkpt>
      <trkpt lat="43.61005" lon="2.90601">
        <ele>980.6</ele>
        <time>2017-04-16T04:01:00.000Z</time>
      </trkpt>
      <trkpt lat="43.61025" lon="2.90603">
        <ele>979.8</ele>
        <time>2017-04-16T04:01:03.000Z</time>
      </trkpt>
      <trkpt lat="43.61034" lon="2.90606">
        <ele>979.2</ele>
        <time>2017-04-16T04:01:05.000Z</time>
      </trkpt>
      <trkpt lat="43.61047" lon="2.90607">
        <ele>979</ele>
        <time>2017-04-16T04:01:07.000Z</time>
      </trkpt>
      <trkpt lat="43.61059" lon="2.90607">
        <ele>978.6</ele>
        <time>2017-04-16T04:01:09.000Z</time>
      </trkpt>
      <trkpt lat="43.61088" lon="2.90612">
        <ele>978.2</ele>
        <time>2017-04-16T04:01:13.000Z</time>
      </trkpt>
      <trkpt lat="43.61094" lon="2.90614">
        <ele>978.2</ele>
        <time>2017-04-16T04:01:14.000Z</time>
      </trkpt>
      <trkpt lat="43.61103" lon="2.90619">
        <ele>978</ele>
        <time>2017-04-16T04:01:16.000Z</time>
      </trkpt>
      <trkpt lat="43.61118" lon="2.90629">
        <ele>977.8</ele>
        <time>2017-04-16T04:01:19.000Z</time>
      </trkpt>
      <trkpt lat="43.61137" lon="2.90681">
        <ele>977.6</ele>
        <time>2017-04-16T04:01:25.000Z</time>
      </trkpt>
      <trkpt lat="43.61143" lon="2.90696">
        <ele>977.6</ele>
        <time>2017-04-16T04:01:27.000Z</time>
      </trkpt>
      <trkpt lat="43.61156" lon="2.90729">
        <ele>977.6</ele>
        <time>2017-04-16T04:01:32.000Z</time>
      </trkpt>
      <trkpt lat="43.61166" lon="2.90763">
        <ele>977.4</ele>
        <time>2017-04-16T04:01:36.000Z</time>
      </trkpt>
      <trkpt lat="43.61168" lon="2.90785">
        <ele>977.4</ele>
        <time>2017-04-16T04:01:39.000Z</time>
      </trkpt>
      <trkpt lat="43.61162" lon="2.90815">
        <ele>977.4</ele>
        <time>2017-04-16T04:01:43.000Z</time>
      </trkpt>
      <trkpt lat="43.61167" lon="2.90852">
        <ele>977.4</ele>
        <time>2017-04-16T04:01:48.000Z</time>
      </trkpt>
      <trkpt lat="43.61169" lon="2.90859">
        <ele>977.4</ele>
        <time>2017-04-16T04:01:49.000Z</time>
      </trkpt>
      <trkpt lat="43.61173" lon="2.90874">
        <ele>977.4</ele>
        <time>2017-04-16T04:01:51.000Z</time>
      </trkpt>
      <trkpt lat="43.61187" lon="2.90925">
        <ele>977.4</ele>
        <time>2017-04-16T04:01:58.000Z</time>
      </trkpt>
      <trkpt lat="43.61202" lon="2.90963">
        <ele>977.4</ele>
        <time>2017-04-16T04:02:04.000Z</time>
      </trkpt>
      <trkpt lat="43.61209" lon="2.90972">
        <ele>977.4</ele>
        <time>2017-04-16T04:02:06.000Z</time>
      </trkpt>
      <trkpt lat="43.61222" lon="2.90983">
        <ele>977.4</ele>
        <time>2017-04-16T04:02:09.000Z</time>
      </trkpt>
      <trkpt lat="43.61228" lon="2.90999">
        <ele>977.4</ele>
        <time>2017-04-16T04:02:12.000Z</time>
      </trkpt>
      <trkpt lat="43.61232" lon="2.9102">
        <ele>977.4</ele>
        <time>2017-04-16T04:02:15.000Z</time>
      </trkpt>
      <trkpt lat="43.61234" lon="2.91056">
        <ele>977.4</ele>
        <time>2017-04-16T04:02:20.000Z</time>
      </trkpt>
      <trkpt lat="43.61247" lon="2.91083">
        <ele>977.4</ele>
        <time>2017-04-16T04:02:24.000Z</time>
      </trkpt>
      <trkpt lat="43.61259" lon="2.91097">
        <ele>977.6</ele>
        <time>2017-04-16T04:02:27.000Z</time>
      </trkpt>
      <trkpt lat="43.61266" lon="2.91106">
        <ele>978</ele>
        <time>2017-04-16T04:02:29.000Z</time>
      </trkpt>
      <trkpt lat="43.61273" lon="2.91115">
        <ele>978.2</ele>
        <time>2017-04-16T04:02:31.000Z</time>
      </trkpt>
      <trkpt lat="43.61278" lon="2.91119">
        <ele>978.4</ele>
        <time>2017-04-16T04:02:32.000Z</time>
      </trkpt>
      <trkpt lat="43.61291" lon="2.91131">
        <ele>978.6</ele>
        <time>2017-04-16T04:02:35.000Z</time>
      </trkpt>
      <trkpt lat="43.61308" lon="2.91144">
        <ele>979</ele>
        <time>2017-04-16T04:02:40.000Z</time>
      </trkpt>
      <trkpt lat="43.61313" lon="2.91146">
        <ele>979</ele>
        <time>2017-04-16T04:02:41.000Z</time>
      </trkpt>
      <trkpt lat="43.61333" lon="2.91162">
        <ele>979.2</ele>
        <time>2017-04-16T04:02:46.000Z</time>
      </trkpt>
      <trkpt lat="43.61337" lon="2.91166">
        <ele>979.2</ele>
        <time>2017-04-16T04:02:47.000Z</time>
      </trkpt>
      <trkpt lat="43.61355" lon="2.91185">
        <ele>979.2</ele>
        <time>2017-04-16T04:02:51.000Z</time>
      </trkpt>
      <trkpt lat="43.61356" lon="2.91192">
        <ele>979.2</ele>
        <time>2017-04-16T04:02:52.000Z</time>
      </trkpt>
      <trkpt lat="43.61373" lon="2.91226">
        <ele>979.4</ele>
        <time>2017-04-16T04:02:58.000Z</time>
      </trkpt>
      <trkpt lat="43.6139" lon="2.91247">
        <ele>979.4</ele>
        <time>2017-04-16T04:03:04.000Z</time>
      </trkpt>
      <trkpt lat="43.61397" lon="2.91257">
        <ele>979.4</ele>
        <time>2017-04-16T04:03:07.000Z</time>
      </trkpt>
      <trkpt lat="43.61397" lon="2.91267">
        <ele>980</ele>
        <time>2017-04-16T04:03:10.000Z</time>
      </trkpt>
      <trkpt lat="43.61399" lon="2.91272">
        <ele>980.2</ele>
        <time>2017-04-16T04:03:12.000Z</time>
      </trkpt>
      <trkpt lat="43.61402" lon="2.91279">
        <ele>980.6</ele>
        <time>2017-04-16T04:03:14.000Z</time>
      </trkpt>
      <trkpt lat="43.61403" lon="2.91283">
        <ele>980.8</ele>
        <time>2017-04-16T04:03:15.000Z</time>
      </trkpt>
      <trkpt lat="43.61407" lon="2.9129">
        <ele>981.4</ele>
        <time>2017-04-16T04:03:17.000Z</time>
      </trkpt>
      <trkpt lat="43.61406" lon="2.91297">
        <ele>982</ele>
        <time>2017-04-16T04:03:19.000Z</time>
      </trkpt>
      <trkpt lat="43.61409" lon="2.91304">
        <ele>982.8</ele>
        <time>2017-04-16T04:03:21.000Z</time>
      </trkpt>
      <trkpt lat="43.61414" lon="2.91307">
        <ele>983.4</ele>
        <time>2017-04-16T04:03:23.000Z</time>
      </trkpt>
      <trkpt lat="43.6142" lon="2.91312">
        <ele>983.8</ele>
        <time>2017-04-16T04:03:25.000Z</time>
      </trkpt>
      <trkpt lat="43.61425" lon="2.91315">
        <ele>984.2</ele>
        <time>2017-04-16T04:03:27.000Z</time>
      </trkpt>
      <trkpt lat="43.61431" lon="2.91323">
        <ele>985</ele>
        <time>2017-04-16T04:03:31.000Z</time>
      </trkpt>
      <trkpt lat="43.61432" lon="2.91326">
        <ele>985.6</ele>
        <time>2017-04-16T04:03:33.000Z</time>
      </trkpt>
      <trkpt lat="43.61435" lon="2.91328">
        <ele>986</ele>
        <time>2017-04-16T04:03:35.000Z</time>
      </trkpt>
      <trkpt lat="43.61438" lon="2.91332">
        <ele>986.4</ele>
        <time>2017-04-16T04:03:37.000Z</time>
      </trkpt>
      <trkpt lat="43.61442" lon="2.91334">
        <ele>986.6</ele>
        <time>2017-04-16T04:03:39.000Z</time>
      </trkpt>
      <trkpt lat="43.61445" lon="2.91336">
        <ele>986.8</ele>
        <time>2017-04-16T04:03:40.000Z</time>
      </trkpt>
      <trkpt lat="43.6145" lon="2.91338">
        <ele>987.6</ele>
        <time>2017-04-16T04:03:43.000Z</time>
      </trkpt>
      <trkpt lat="43.61455" lon="2.91342">
        <ele>988.2</ele>
        <time>2017-04-16T04:03:45.000Z</time>
      </trkpt>
      <trkpt lat="43.61461" lon="2.91347">
        <ele>988.4</ele>
        <time>2017-04-16T04:03:47.000Z</time>
      </trkpt>
      <trkpt lat="43.61467" lon="2.91353">
        <ele>988.8</ele>
        <time>2017-04-16T04:03:49.000Z</time>
      </trkpt>
      <trkpt lat="43.61474" lon="2.91364">
        <ele>989.2</ele>
        <time>2017-04-16T04:03:54.000Z</time>
      </trkpt>
      <trkpt lat="43.6148" lon="2.91374">
        <ele>989.6</ele>
        <time>2017-04-16T04:03:58.000Z</time>
      </trkpt>
      <trkpt lat="43.61482" lon="2.91379">
        <ele>989.8</ele>
        <time>2017-04-16T04:03:59.000Z</time>
      </trkpt>
      <trkpt lat="43.61485" lon="2.91386">
        <ele>990.4</ele>
        <time>2017-04-16T04:04:01.000Z</time>
      </trkpt>
      <trkpt lat="43.61486" lon="2.9139">
        <ele>990.8</ele>
        <time>2017-04-16T04:04:02.000Z</time>
      </trkpt>
      <trkpt lat="43.61487" lon="2.91393">
        <ele>991</ele>
        <time>2017-04-16T04:04:03.000Z</time>
      </trkpt>
      <trkpt lat="43.61491" lon="2.91398">
        <ele>991.4</ele>
        <time>2017-04-16T04:04:05.000Z</time>
      </trkpt>
      <trkpt lat="43.61494" lon="2.91403">
        <ele>991.6</ele>
        <time>2017-04-16T04:04:07.000Z</time>
      </trkpt>
      <trkpt lat="43.61497" lon="2.91405">
        <ele>992</ele>
        <time>2017-04-16T04:04:08.000Z</time>
      </trkpt>
      <trkpt lat="43.61501" lon="2.91408">
        <ele>992.6</ele>
        <time>2017-04-16T04:04:10.000Z</time>
      </trkpt>
      <trkpt lat="43.61503" lon="2.91411">
        <ele>992.8</ele>
        <time>2017-04-16T04:04:11.000Z</time>
      </trkpt>
      <trkpt lat="43.61504" lon="2.91413">
        <ele>993</ele>
        <time>2017-04-16T04:04:12.000Z</time>
      </trkpt>
      <trkpt lat="43.61506" lon="2.91418">
        <ele>993.4</ele>
        <time>2017-04-16T04:04:14.000Z</time>
      </trkpt>
      <trkpt lat="43.6151" lon="2.91424">
        <ele>993.8</ele>
        <time>2017-04-16T04:04:16.000Z</time>
      </trkpt>
      <trkpt lat="43.61511" lon="2.91425">
        <ele>994</ele>
        <time>2017-04-16T04:04:17.000Z</time>
      </trkpt>
      <trkpt lat="43.61514" lon="2.91426">
        <ele>994.4</ele>
        <time>2017-04-16T04:04:19.000Z</time>
      </trkpt>
      <trkpt lat="43.61518" lon="2.91429">
        <ele>995</ele>
        <time>2017-04-16T04:04:21.000Z</time>
      </trkpt>
      <trkpt lat="43.6152" lon="2.91437">
        <ele>995.4</ele>
        <time>2017-04-16T04:04:23.000Z</time>
      </trkpt>
      <trkpt lat="43.61523" lon="2.91442">
        <ele>995.8</ele>
        <time>2017-04-16T04:04:25.000Z</time>
      </trkpt>
      <trkpt lat="43.61524" lon="2.91444">
        <ele>996.2</ele>
        <time>2017-04-16T04:04:26.000Z</time>
      </trkpt>
      <trkpt lat="43.6153" lon="2.91448">
        <ele>996.8</ele>
        <time>2017-04-16T04:04:28.000Z</time>
      </trkpt>
      <trkpt lat="43.61535" lon="2.91452">
        <ele>997.2</ele>
        <time>2017-04-16T04:04:30.000Z</time>
      </trkpt>
      <trkpt lat="43.61539" lon="2.91457">
        <ele>997.6</ele>
        <time>2017-04-16T04:04:32.000Z</time>
      </trkpt>
      <trkpt lat="43.6154" lon="2.91462">
        <ele>998</ele>
        <time>2017-04-16T04:04:34.000Z</time>
      </trkpt>
      <trkpt lat="43.61552" lon="2.91473">
        <ele>998.6</ele>
        <time>2017-04-16T04:04:40.000Z</time>
      </trkpt>
      <trkpt lat="43.61558" lon="2.91476">
        <ele>999.2</ele>
        <time>2017-04-16T04:04:43.000Z</time>
      </trkpt>
      <trkpt lat="43.61565" lon="2.91479">
        <ele>999.6</ele>
        <time>2017-04-16T04:04:45.000Z</time>
      </trkpt>
      <trkpt lat="43.61574" lon="2.91484">
        <ele>1000</ele>
        <time>2017-04-16T04:04:47.000Z</time>
      </trkpt>
      <trkpt lat="43.61581" lon="2.91491">
        <ele>1000.2</ele>
        <time>2017-04-16T04:04:49.000Z</time>
      </trkpt>
      <trkpt lat="43.61588" lon="2.91499">
        <ele>1000.4</ele>
        <time>2017-04-16T04:04:51.000Z</time>
      </trkpt>
      <trkpt lat="43.61596" lon="2.91507">
        <ele>1000.6</ele>
        <time>2017-04-16T04:04:53.000Z</time>
      </trkpt>
      <trkpt lat="43.61609" lon="2.9152">
        <ele>1000.8</ele>
        <time>2017-04-16T04:04:56.000Z</time>
      </trkpt>
      <trkpt lat="43.61618" lon="2.91529">
        <ele>1000.4</ele>
        <time>2017-04-16T04:04:58.000Z</time>
      </trkpt>
      <trkpt lat="43.61621" lon="2.91534">
        <ele>1000.4</ele>
        <time>2017-04-16T04:04:59.000Z</time>
      </trkpt>
      <trkpt lat="43.61623" lon="2.91537">
        <ele>1000.2</ele>
        <time>2017-04-16T04:05:00.000Z</time>
      </trkpt>
      <trkpt lat="43.61627" lon="2.91541">
        <ele>1000</ele>
        <time>2017-04-16T04:05:02.000Z</time>
      </trkpt>
      <trkpt lat="43.61631" lon="2.91543">
        <ele>1000</ele>
        <time>2017-04-16T04:05:03.000Z</time>
      </trkpt>
      <trkpt lat="43.61639" lon="2.91549">
        <ele>999.8</ele>
        <time>2017-04-16T04:05:05.000Z</time>
      </trkpt>
      <trkpt lat="43.61658" lon="2.91567">
        <ele>999.6</ele>
        <time>2017-04-16T04:05:09.000Z</time>
      </trkpt>
      <trkpt lat="43.61666" lon="2.91578">
        <ele>999.6</ele>
        <time>2017-04-16T04:05:12.000Z</time>
      </trkpt>
      <trkpt lat="43.61684" lon="2.91596">
        <ele>999.4</ele>
        <time>2017-04-16T04:05:17.000Z</time>
      </trkpt>
      <trkpt lat="43.61687" lon="2.91599">
        <ele>999.4</ele>
        <time>2017-04-16T04:05:18.000Z</time>
      </trkpt>
      <trkpt lat="43.61691" lon="2.91604">
        <ele>999.4</ele>
        <time>2017-04-16T04:05:19.000Z</time>
      </trkpt>
      <trkpt lat="43.61714" lon="2.91612">
        <ele>999.4</ele>
        <time>2017-04-16T04:05:23.000Z</time>
      </trkpt>
      <trkpt lat="43.61718" lon="2.91613">
        <ele>999.4</ele>
        <time>2017-04-16T04:05:24.000Z</time>
      </trkpt>
      <trkpt lat="43.61744" lon="2.91612">
        <ele>999.4</ele>
        <time>2017-04-16T04:05:29.000Z</time>
      </trkpt>
      <trkpt lat="43.61755" lon="2.9161">
        <ele>999.4</ele>
        <time>2017-04-16T04:05:31.000Z</time>
      </trkpt>
      <trkpt lat="43.61777" lon="2.91612">
        <ele>999.4</ele>
        <time>2017-04-16T04:05:36.000Z</time>
      </trkpt>
      <trkpt lat="43.61801" lon="2.91615">
        <ele>999.4</ele>
        <time>2017-04-16T04:05:41.000Z</time>
      </trkpt>
      <trkpt lat="43.61804" lon="2.91616">
        <ele>999.4</ele>
        <time>2017-04-16T04:05:42.000Z</time>
      </trkpt>
      <trkpt lat="43.61834" lon="2.91614">
        <ele>999.4</ele>
        <time>2017-04-16T04:05:48.000Z</time>
      </trkpt>
      <trkpt lat="43.61849" lon="2.91611">
        <ele>999.4</ele>
        <time>2017-04-16T04:05:51.000Z</time>
      </trkpt>
      <trkpt lat="43.6186" lon="2.91607">
        <ele>999.4</ele>
        <time>2017-04-16T04:05:55.000Z</time>
      </trkpt>
      <trkpt lat="43.61882" lon="2.9161">
        <ele>999.4</ele>
        <time>2017-04-16T04:06:00.000Z</time>
      </trkpt>
      <trkpt lat="43.61905" lon="2.91605">
        <ele>999.4</ele>
        <time>2017-04-16T04:06:05.000Z</time>
      </trkpt>
      <trkpt lat="43.61931" lon="2.91608">
        <ele>999.4</ele>
        <time>2017-04-16T04:06:11.000Z</time>
      </trkpt>
      <trkpt lat="43.61942" lon="2.91613">
        <ele>999.4</ele>
        <time>2017-04-16T04:06:13.000Z</time>
      </trkpt>
      <trkpt lat="43.61953" lon="2.91638">
        <ele>999.4</ele>
        <time>2017-04-16T04:06:17.000Z</time>
      </trkpt>
      <trkpt lat="43.61951" lon="2.91644">
        <ele>999.4</ele>
        <time>2017-04-16T04:06:18.000Z</time>
      </trkpt>
      <trkpt lat="43.61939" lon="2.91671">
        <ele>999.6</ele>
        <time>2017-04-16T04:06:24.000Z</time>
      </trkpt>
      <trkpt lat="43.61935" lon="2.91679">
        <ele>1000</ele>
        <time>2017-04-16T04:06:26.000Z</time>
      </trkpt>
      <trkpt lat="43.61933" lon="2.91688">
        <ele>1000.2</ele>
        <time>2017-04-16T04:06:28.000Z</time>
      </trkpt>
      <trkpt lat="43.61931" lon="2.91697">
        <ele>1000.4</ele>
        <time>2017-04-16T04:06:30.000Z</time>
      </trkpt>
      <trkpt lat="43.61929" lon="2.91706">
        <ele>1000.6</ele>
        <time>2017-04-16T04:06:32.000Z</time>
      </trkpt>
      <trkpt lat="43.61922" lon="2.91733">
        <ele>1001</ele>
        <time>2017-04-16T04:06:37.000Z</time>
      </trkpt>
      <trkpt lat="43.61919" lon="2.91754">
        <ele>1001.2</ele>
        <time>2017-04-16T04:06:41.000Z</time>
      </trkpt>
      <trkpt lat="43.61916" lon="2.91775">
        <ele>1001.2</ele>
        <time>2017-04-16T04:06:45.000Z</time>
      </trkpt>
      <trkpt lat="43.61915" lon="2.91803">
        <ele>1001.4</ele>
        <time>2017-04-16T04:06:50.000Z</time>
      </trkpt>
      <trkpt lat="43.61913" lon="2.9182">
        <ele>1001.6</ele>
        <time>2017-04-16T04:06:53.000Z</time>
      </trkpt>
      <trkpt lat="43.61913" lon="2.91826">
        <ele>1001.8</ele>
        <time>2017-04-16T04:06:54.000Z</time>
      </trkpt>
      <trkpt lat="43.6191" lon="2.91843">
        <ele>1002.2</ele>
        <time>2017-04-16T04:06:57.000Z</time>
      </trkpt>
      <trkpt lat="43.61911" lon="2.91854">
        <ele>1002.6</ele>
        <time>2017-04-16T04:06:59.000Z</time>
      </trkpt>
      <trkpt lat="43.61912" lon="2.91861">
        <ele>1002.6</ele>
        <time>2017-04-16T04:07:00.000Z</time>
      </trkpt>
      <trkpt lat="43.61912" lon="2.91867">
        <ele>1002.8</ele>
        <time>2017-04-16T04:07:01.000Z</time>
      </trkpt>
      <trkpt lat="43.61915" lon="2.91902">
        <ele>1003.2</ele>
        <time>2017-04-16T04:07:07.000Z</time>
      </trkpt>
      <trkpt lat="43.61914" lon="2.91909">
        <ele>1003.2</ele>
        <time>2017-04-16T04:07:08.000Z</time>
      </trkpt>
      <trkpt lat="43.61911" lon="2.91926">
        <ele>1003.2</ele>
        <time>2017-04-16T04:07:11.000Z</time>
      </trkpt>
      <trkpt lat="43.61911" lon="2.91957">
        <ele>1003.4</ele>
        <time>2017-04-16T04:07:16.000Z</time>
      </trkpt>
      <trkpt lat="43.6191" lon="2.91963">
        <ele>1003.4</ele>
        <time>2017-04-16T04:07:17.000Z</time>
      </trkpt>
      <trkpt lat="43.61901" lon="2.91998">
        <ele>1003.6</ele>
        <time>2017-04-16T04:07:23.000Z</time>
      </trkpt>
      <trkpt lat="43.619" lon="2.92004">
        <ele>1003.6</ele>
        <time>2017-04-16T04:07:24.000Z</time>
      </trkpt>
      <trkpt lat="43.61893" lon="2.92039">
        <ele>1003.6</ele>
        <time>2017-04-16T04:07:30.000Z</time>
      </trkpt>
      <trkpt lat="43.6189" lon="2.92069">
        <ele>1003.6</ele>
        <time>2017-04-16T04:07:35.000Z</time>
      </trkpt>
      <trkpt lat="43.61894" lon="2.92089">
        <ele>1003.6</ele>
        <time>2017-04-16T04:07:38.000Z</time>
      </trkpt>
      <trkpt lat="43.61897" lon="2.92115">
        <ele>1003.6</ele>
        <time>2017-04-16T04:07:42.000Z</time>
      </trkpt>
      <trkpt lat="43.61897" lon="2.92161">
        <ele>1003.6</ele>
        <time>2017-04-16T04:07:49.000Z</time>
      </trkpt>
      <trkpt lat="43.61896" lon="2.92165">
        <ele>1004</ele>
        <time>2017-04-16T04:07:50.000Z</time>
      </trkpt>
      <trkpt lat="43.61896" lon="2.92172">
        <ele>1004.2</ele>
        <time>2017-04-16T04:07:51.000Z</time>
      </trkpt>
      <trkpt lat="43.61889" lon="2.92188">
        <ele>1004.8</ele>
        <time>2017-04-16T04:07:54.000Z</time>
      </trkpt>
      <trkpt lat="43.61886" lon="2.92192">
        <ele>1004.6</ele>
        <time>2017-04-16T04:07:55.000Z</time>
      </trkpt>
      <trkpt lat="43.61883" lon="2.92196">
        <ele>1004.4</ele>
        <time>2017-04-16T04:07:56.000Z</time>
      </trkpt>
      <trkpt lat="43.6188" lon="2.92201">
        <ele>1004.2</ele>
        <time>2017-04-16T04:07:57.000Z</time>
      </trkpt>
      <trkpt lat="43.61876" lon="2.92211">
        <ele>1004.2</ele>
        <time>2017-04-16T04:07:58.000Z</time>
      </trkpt>
      <trkpt lat="43.61874" lon="2.92217">
        <ele>1004</ele>
        <time>2017-04-16T04:07:59.000Z</time>
      </trkpt>
      <trkpt lat="43.61872" lon="2.92226">
        <ele>1003.8</ele>
        <time>2017-04-16T04:08:00.000Z</time>
      </trkpt>
      <trkpt lat="43.61871" lon="2.92242">
        <ele>1003.2</ele>
        <time>2017-04-16T04:08:02.000Z</time>
      </trkpt>
      <trkpt lat="43.61884" lon="2.92272">
        <ele>1002.2</ele>
        <time>2017-04-16T04:08:05.000Z</time>
      </trkpt>
      <trkpt lat="43.61891" lon="2.92282">
        <ele>1001.8</ele>
        <time>2017-04-16T04:08:06.000Z</time>
      </trkpt>
      <trkpt lat="43.61897" lon="2.92291">
        <ele>1001.2</ele>
        <time>2017-04-16T04:08:07.000Z</time>
      </trkpt>
      <trkpt lat="43.61906" lon="2.92299">
        <ele>1000.8</ele>
        <time>2017-04-16T04:08:08.000Z</time>
      </trkpt>
      <trkpt lat="43.61922" lon="2.92313">
        <ele>1000</ele>
        <time>2017-04-16T04:08:10.000Z</time>
      </trkpt>
      <trkpt lat="43.61925" lon="2.92325">
        <ele>999.4</ele>
        <time>2017-04-16T04:08:11.000Z</time>
      </trkpt>
      <trkpt lat="43.61928" lon="2.92338">
        <ele>999</ele>
        <time>2017-04-16T04:08:12.000Z</time>
      </trkpt>
      <trkpt lat="43.61929" lon="2.92363">
        <ele>998.2</ele>
        <time>2017-04-16T04:08:14.000Z</time>
      </trkpt>
      <trkpt lat="43.61927" lon="2.92374">
        <ele>997.8</ele>
        <time>2017-04-16T04:08:15.000Z</time>
      </trkpt>
      <trkpt lat="43.61925" lon="2.92383">
        <ele>997.4</ele>
        <time>2017-04-16T04:08:16.000Z</time>
      </trkpt>
      <trkpt lat="43.61923" lon="2.9239">
        <ele>997</ele>
        <time>2017-04-16T04:08:17.000Z</time>
      </trkpt>
      <trkpt lat="43.61917" lon="2.92406">
        <ele>996.2</ele>
        <time>2017-04-16T04:08:19.000Z</time>
      </trkpt>
      <trkpt lat="43.61915" lon="2.92413">
        <ele>995.8</ele>
        <time>2017-04-16T04:08:20.000Z</time>
      </trkpt>
      <trkpt lat="43.61914" lon="2.9242">
        <ele>995.4</ele>
        <time>2017-04-16T04:08:21.000Z</time>
      </trkpt>
      <trkpt lat="43.61913" lon="2.92432">
        <ele>995</ele>
        <time>2017-04-16T04:08:23.000Z</time>
      </trkpt>
      <trkpt lat="43.6191" lon="2.9244">
        <ele>994.4</ele>
        <time>2017-04-16T04:08:25.000Z</time>
      </trkpt>
      <trkpt lat="43.61893" lon="2.92455">
        <ele>994.2</ele>
        <time>2017-04-16T04:08:27.000Z</time>
      </trkpt>
      <trkpt lat="43.61876" lon="2.92481">
        <ele>993.4</ele>
        <time>2017-04-16T04:08:32.000Z</time>
      </trkpt>
      <trkpt lat="43.61869" lon="2.92513">
        <ele>993.2</ele>
        <time>2017-04-16T04:08:37.000Z</time>
      </trkpt>
      <trkpt lat="43.61862" lon="2.92524">
        <ele>993</ele>
        <time>2017-04-16T04:08:39.000Z</time>
      </trkpt>
      <trkpt lat="43.61849" lon="2.9255">
        <ele>992.8</ele>
        <time>2017-04-16T04:08:44.000Z</time>
      </trkpt>
      <trkpt lat="43.61847" lon="2.92555">
        <ele>992.8</ele>
        <time>2017-04-16T04:08:45.000Z</time>
      </trkpt>
      <trkpt lat="43.61838" lon="2.92597">
        <ele>992.8</ele>
        <time>2017-04-16T04:08:50.000Z</time>
      </trkpt>
      <trkpt lat="43.61835" lon="2.92612">
        <ele>992.6</ele>
        <time>2017-04-16T04:08:52.000Z</time>
      </trkpt>
      <trkpt lat="43.61829" lon="2.92628">
        <ele>992.6</ele>
        <time>2017-04-16T04:08:54.000Z</time>
      </trkpt>
      <trkpt lat="43.6182" lon="2.9265">
        <ele>992.6</ele>
        <time>2017-04-16T04:08:57.000Z</time>
      </trkpt>
      <trkpt lat="43.61819" lon="2.92691">
        <ele>992.4</ele>
        <time>2017-04-16T04:09:02.000Z</time>
      </trkpt>
      <trkpt lat="43.61818" lon="2.92708">
        <ele>992</ele>
        <time>2017-04-16T04:09:04.000Z</time>
      </trkpt>
      <trkpt lat="43.61819" lon="2.92723">
        <ele>991.6</ele>
        <time>2017-04-16T04:09:06.000Z</time>
      </trkpt>
      <trkpt lat="43.61821" lon="2.92738">
        <ele>991.2</ele>
        <time>2017-04-16T04:09:08.000Z</time>
      </trkpt>
      <trkpt lat="43.61822" lon="2.92745">
        <ele>991.2</ele>
        <time>2017-04-16T04:09:09.000Z</time>
      </trkpt>
      <trkpt lat="43.61805" lon="2.92801">
        <ele>990.6</ele>
        <time>2017-04-16T04:09:16.000Z</time>
      </trkpt>
      <trkpt lat="43.61801" lon="2.92809">
        <ele>990.2</ele>
        <time>2017-04-16T04:09:17.000Z</time>
      </trkpt>
      <trkpt lat="43.61797" lon="2.9282">
        <ele>990</ele>
        <time>2017-04-16T04:09:18.000Z</time>
      </trkpt>
      <trkpt lat="43.61794" lon="2.92829">
        <ele>989.8</ele>
        <time>2017-04-16T04:09:19.000Z</time>
      </trkpt>
      <trkpt lat="43.6179" lon="2.92848">
        <ele>989.4</ele>
        <time>2017-04-16T04:09:21.000Z</time>
      </trkpt>
      <trkpt lat="43.61791" lon="2.92856">
        <ele>989.2</ele>
        <time>2017-04-16T04:09:22.000Z</time>
      </trkpt>
      <trkpt lat="43.61793" lon="2.92866">
        <ele>989</ele>
        <time>2017-04-16T04:09:23.000Z</time>
      </trkpt>
      <trkpt lat="43.61805" lon="2.92886">
        <ele>988.6</ele>
        <time>2017-04-16T04:09:25.000Z</time>
      </trkpt>
      <trkpt lat="43.61812" lon="2.92895">
        <ele>988.2</ele>
        <time>2017-04-16T04:09:26.000Z</time>
      </trkpt>
      <trkpt lat="43.61818" lon="2.92905">
        <ele>988</ele>
        <time>2017-04-16T04:09:27.000Z</time>
      </trkpt>
      <trkpt lat="43.61826" lon="2.92921">
        <ele>987.4</ele>
        <time>2017-04-16T04:09:29.000Z</time>
      </trkpt>
      <trkpt lat="43.61826" lon="2.92935">
        <ele>987</ele>
        <time>2017-04-16T04:09:30.000Z</time>
      </trkpt>
      <trkpt lat="43.61825" lon="2.92955">
        <ele>986.4</ele>
        <time>2017-04-16T04:09:32.000Z</time>
      </trkpt>
      <trkpt lat="43.61821" lon="2.92965">
        <ele>986.2</ele>
        <time>2017-04-16T04:09:33.000Z</time>
      </trkpt>
      <trkpt lat="43.61814" lon="2.92978">
        <ele>985.8</ele>
        <time>2017-04-16T04:09:34.000Z</time>
      </trkpt>
      <trkpt lat="43.61801" lon="2.9299">
        <ele>985.4</ele>
        <time>2017-04-16T04:09:35.000Z</time>
      </trkpt>
      <trkpt lat="43.61783" lon="2.92998">
        <ele>984.6</ele>
        <time>2017-04-16T04:09:37.000Z</time>
      </trkpt>
      <trkpt lat="43.61773" lon="2.93002">
        <ele>984</ele>
        <time>2017-04-16T04:09:38.000Z</time>
      </trkpt>
      <trkpt lat="43.61755" lon="2.93013">
        <ele>983</ele>
        <time>2017-04-16T04:09:40.000Z</time>
      </trkpt>
      <trkpt lat="43.6175" lon="2.93024">
        <ele>982.6</ele>
        <time>2017-04-16T04:09:41.000Z</time>
      </trkpt>
      <trkpt lat="43.61745" lon="2.93036">
        <ele>982</ele>
        <time>2017-04-16T04:09:42.000Z</time>
      </trkpt>
      <trkpt lat="43.6174" lon="2.93056">
        <ele>981</ele>
        <time>2017-04-16T04:09:44.000Z</time>
      </trkpt>
      <trkpt lat="43.61736" lon="2.93063">
        <ele>980.6</ele>
        <time>2017-04-16T04:09:45.000Z</time>
      </trkpt>
      <trkpt lat="43.61732" lon="2.9307">
        <ele>980.2</ele>
        <time>2017-04-16T04:09:46.000Z</time>
      </trkpt>
      <trkpt lat="43.61729" lon="2.93077">
        <ele>980</ele>
        <time>2017-04-16T04:09:47.000Z</time>
      </trkpt>
      <trkpt lat="43.61723" lon="2.93105">
        <ele>979.2</ele>
        <time>2017-04-16T04:09:50.000Z</time>
      </trkpt>
      <trkpt lat="43.6172" lon="2.93122">
        <ele>978.6</ele>
        <time>2017-04-16T04:09:52.000Z</time>
      </trkpt>
      <trkpt lat="43.61714" lon="2.93135">
        <ele>978.4</ele>
        <time>2017-04-16T04:09:54.000Z</time>
      </trkpt>
      <trkpt lat="43.61696" lon="2.93146">
        <ele>978</ele>
        <time>2017-04-16T04:09:57.000Z</time>
      </trkpt>
      <trkpt lat="43.61643" lon="2.93144">
        <ele>977</ele>
        <time>2017-04-16T04:10:06.000Z</time>
      </trkpt>
      <trkpt lat="43.61632" lon="2.93145">
        <ele>976.6</ele>
        <time>2017-04-16T04:10:08.000Z</time>
      </trkpt>
      <trkpt lat="43.61622" lon="2.93145">
        <ele>976.2</ele>
        <time>2017-04-16T04:10:10.000Z</time>
      </trkpt>
      <trkpt lat="43.61611" lon="2.93144">
        <ele>976</ele>
        <time>2017-04-16T04:10:12.000Z</time>
      </trkpt>
      <trkpt lat="43.61605" lon="2.93143">
        <ele>975.8</ele>
        <time>2017-04-16T04:10:13.000Z</time>
      </trkpt>
      <trkpt lat="43.61584" lon="2.93148">
        <ele>975.4</ele>
        <time>2017-04-16T04:10:17.000Z</time>
      </trkpt>
      <trkpt lat="43.61565" lon="2.93173">
        <ele>975</ele>
        <time>2017-04-16T04:10:23.000Z</time>
      </trkpt>
      <trkpt lat="43.61552" lon="2.93192">
        <ele>974.8</ele>
        <time>2017-04-16T04:10:28.000Z</time>
      </trkpt>
      <trkpt lat="43.6154" lon="2.93207">
        <ele>974.8</ele>
        <time>2017-04-16T04:10:32.000Z</time>
      </trkpt>
      <trkpt lat="43.61527" lon="2.93224">
        <ele>974.8</ele>
        <time>2017-04-16T04:10:37.000Z</time>
      </trkpt>
      <trkpt lat="43.61518" lon="2.93233">
        <ele>975</ele>
        <time>2017-04-16T04:10:40.000Z</time>
      </trkpt>
      <trkpt lat="43.61513" lon="2.93241">
        <ele>975.2</ele>
        <time>2017-04-16T04:10:42.000Z</time>
      </trkpt>
      <trkpt lat="43.61507" lon="2.93246">
        <ele>975.6</ele>
        <time>2017-04-16T04:10:44.000Z</time>
      </trkpt>
      <trkpt lat="43.61504" lon="2.93249">
        <ele>976</ele>
        <time>2017-04-16T04:10:46.000Z</time>
      </trkpt>
      <trkpt lat="43.615" lon="2.93249">
        <ele>976.2</ele>
        <time>2017-04-16T04:10:47.000Z</time>
      </trkpt>
      <trkpt lat="43.61499" lon="2.93251">
        <ele>976.4</ele>
        <time>2017-04-16T04:10:48.000Z</time>
      </trkpt>
      <trkpt lat="43.61493" lon="2.93253">
        <ele>977</ele>
        <time>2017-04-16T04:10:50.000Z</time>
      </trkpt>
      <trkpt lat="43.61488" lon="2.93256">
        <ele>977.2</ele>
        <time>2017-04-16T04:10:52.000Z</time>
      </trkpt>
      <trkpt lat="43.61485" lon="2.93259">
        <ele>977.6</ele>
        <time>2017-04-16T04:10:54.000Z</time>
      </trkpt>
      <trkpt lat="43.61477" lon="2.93267">
        <ele>978.2</ele>
        <time>2017-04-16T04:10:58.000Z</time>
      </trkpt>
      <trkpt lat="43.61474" lon="2.9327">
        <ele>978.6</ele>
        <time>2017-04-16T04:11:00.000Z</time>
      </trkpt>
      <trkpt lat="43.6147" lon="2.93273">
        <ele>979.2</ele>
        <time>2017-04-16T04:11:02.000Z</time>
      </trkpt>
      <trkpt lat="43.61465" lon="2.93276">
        <ele>979.6</ele>
        <time>2017-04-16T04:11:04.000Z</time>
      </trkpt>
      <trkpt lat="43.61459" lon="2.9328">
        <ele>980.4</ele>
        <time>2017-04-16T04:11:06.000Z</time>
      </trkpt>
      <trkpt lat="43.61455" lon="2.93283">
        <ele>980.8</ele>
        <time>2017-04-16T04:11:08.000Z</time>
      </trkpt>
      <trkpt lat="43.61451" lon="2.93284">
        <ele>981.2</ele>
        <time>2017-04-16T04:11:10.000Z</time>
      </trkpt>
      <trkpt lat="43.61449" lon="2.93285">
        <ele>981.6</ele>
        <time>2017-04-16T04:11:11.000Z</time>
      </trkpt>
      <trkpt lat="43.61445" lon="2.93287">
        <ele>982.4</ele>
        <time>2017-04-16T04:11:13.000Z</time>
      </trkpt>
      <trkpt lat="43.61441" lon="2.9329">
        <ele>982.8</ele>
        <time>2017-04-16T04:11:15.000Z</time>
      </trkpt>
      <trkpt lat="43.61436" lon="2.93292">
        <ele>983.2</ele>
        <time>2017-04-16T04:11:17.000Z</time>
      </trkpt>
      <trkpt lat="43.61434" lon="2.93292">
        <ele>983.6</ele>
        <time>2017-04-16T04:11:18.000Z</time>
      </trkpt>
      <trkpt lat="43.61429" lon="2.93293">
        <ele>984.4</ele>
        <time>2017-04-16T04:11:20.000Z</time>
      </trkpt>
      <trkpt lat="43.61425" lon="2.93294">
        <ele>985</ele>
        <time>2017-04-16T04:11:22.000Z</time>
      </trkpt>
      <trkpt lat="43.61421" lon="2.93295">
        <ele>985.4</ele>
        <time>2017-04-16T04:11:24.000Z</time>
      </trkpt>
      <trkpt lat="43.61417" lon="2.93298">
        <ele>985.8</ele>
        <time>2017-04-16T04:11:26.000Z</time>
      </trkpt>
      <trkpt lat="43.61403" lon="2.93306">
        <ele>986.6</ele>
        <time>2017-04-16T04:11:33.000Z</time>
      </trkpt>
      <trkpt lat="43.61401" lon="2.93307">
        <ele>986.8</ele>
        <time>2017-04-16T04:11:34.000Z</time>
      </trkpt>
      <trkpt lat="43.61396" lon="2.93309">
        <ele>987.4</ele>
        <time>2017-04-16T04:11:36.000Z</time>
      </trkpt>
      <trkpt lat="43.61392" lon="2.9331">
        <ele>987.8</ele>
        <time>2017-04-16T04:11:38.000Z</time>
      </trkpt>
      <trkpt lat="43.61388" lon="2.93312">
        <ele>988</ele>
        <time>2017-04-16T04:11:40.000Z</time>
      </trkpt>
      <trkpt lat="43.61383" lon="2.93314">
        <ele>988.4</ele>
        <time>2017-04-16T04:11:42.000Z</time>
      </trkpt>
      <trkpt lat="43.6138" lon="2.93315">
        <ele>988.6</ele>
        <time>2017-04-16T04:11:43.000Z</time>
      </trkpt>
      <trkpt lat="43.61376" lon="2.93318">
        <ele>989.2</ele>
        <time>2017-04-16T04:11:45.000Z</time>
      </trkpt>
      <trkpt lat="43.61371" lon="2.93322">
        <ele>989.6</ele>
        <time>2017-04-16T04:11:47.000Z</time>
      </trkpt>
      <trkpt lat="43.61365" lon="2.93326">
        <ele>990</ele>
        <time>2017-04-16T04:11:49.000Z</time>
      </trkpt>
      <trkpt lat="43.61361" lon="2.93328">
        <ele>990.2</ele>
        <time>2017-04-16T04:11:51.000Z</time>
      </trkpt>
      <trkpt lat="43.61356" lon="2.93332">
        <ele>990.6</ele>
        <time>2017-04-16T04:11:54.000Z</time>
      </trkpt>
      <trkpt lat="43.61352" lon="2.93337">
        <ele>991</ele>
        <time>2017-04-16T04:12:01.000Z</time>
      </trkpt>
      <trkpt lat="43.6135" lon="2.93338">
        <ele>991.4</ele>
        <time>2017-04-16T04:12:02.000Z</time>
      </trkpt>
      <trkpt lat="43.6135" lon="2.93339">
        <ele>991.6</ele>
        <time>2017-04-16T04:12:03.000Z</time>
      </trkpt>
      <trkpt lat="43.61348" lon="2.93342">
        <ele>991.8</ele>
        <time>2017-04-16T04:12:04.000Z</time>
      </trkpt>
      <trkpt lat="43.61344" lon="2.93343">
        <ele>992.2</ele>
        <time>2017-04-16T04:12:06.000Z</time>
      </trkpt>
      <trkpt lat="43.61336" lon="2.93347">
        <ele>992.6</ele>
        <time>2017-04-16T04:12:08.000Z</time>
      </trkpt>
      <trkpt lat="43.61331" lon="2.9335">
        <ele>993.2</ele>
        <time>2017-04-16T04:12:10.000Z</time>
      </trkpt>
      <trkpt lat="43.61327" lon="2.93352">
        <ele>993.8</ele>
        <time>2017-04-16T04:12:12.000Z</time>
      </trkpt>
      <trkpt lat="43.61323" lon="2.93354">
        <ele>994.2</ele>
        <time>2017-04-16T04:12:14.000Z</time>
      </trkpt>
      <trkpt lat="43.6132" lon="2.93356">
        <ele>994.6</ele>
        <time>2017-04-16T04:12:16.000Z</time>
      </trkpt>
      <trkpt lat="43.61312" lon="2.93357">
        <ele>995.4</ele>
        <time>2017-04-16T04:12:21.000Z</time>
      </trkpt>
      <trkpt lat="43.61309" lon="2.93359">
        <ele>996</ele>
        <time>2017-04-16T04:12:23.000Z</time>
      </trkpt>
      <trkpt lat="43.61306" lon="2.9336">
        <ele>996.6</ele>
        <time>2017-04-16T04:12:25.000Z</time>
      </trkpt>
      <trkpt lat="43.61304" lon="2.93361">
        <ele>997.4</ele>
        <time>2017-04-16T04:12:27.000Z</time>
      </trkpt>
      <trkpt lat="43.613" lon="2.93362">
        <ele>998.2</ele>
        <time>2017-04-16T04:12:29.000Z</time>
      </trkpt>
      <trkpt lat="43.61297" lon="2.93362">
        <ele>998.6</ele>
        <time>2017-04-16T04:12:31.000Z</time>
      </trkpt>
      <trkpt lat="43.61296" lon="2.93363">
        <ele>999</ele>
        <time>2017-04-16T04:12:32.000Z</time>
      </trkpt>
      <trkpt lat="43.61283" lon="2.93365">
        <ele>1000.2</ele>
        <time>2017-04-16T04:12:39.000Z</time>
      </trkpt>
      <trkpt lat="43.61279" lon="2.93365">
        <ele>1000.8</ele>
        <time>2017-04-16T04:12:41.000Z</time>
      </trkpt>
      <trkpt lat="43.61276" lon="2.93365">
        <ele>1001.2</ele>
        <time>2017-04-16T04:12:43.000Z</time>
      </trkpt>
      <trkpt lat="43.61275" lon="2.93366">
        <ele>1001.6</ele>
        <time>2017-04-16T04:12:44.000Z</time>
      </trkpt>
      <trkpt lat="43.61272" lon="2.93366">
        <ele>1002.4</ele>
        <time>2017-04-16T04:12:46.000Z</time>
      </trkpt>
      <trkpt lat="43.61269" lon="2.93367">
        <ele>1003</ele>
        <time>2017-04-16T04:12:48.000Z</time>
      </trkpt>
      <trkpt lat="43.61267" lon="2.93368">
        <ele>1003.4</ele>
        <time>2017-04-16T04:12:50.000Z</time>
      </trkpt>
      <trkpt lat="43.61263" lon="2.9337">
        <ele>1003.8</ele>
        <time>2017-04-16T04:12:52.000Z</time>
      </trkpt>
      <trkpt lat="43.6126" lon="2.93371">
        <ele>1004.2</ele>
        <time>2017-04-16T04:12:54.000Z</time>
      </trkpt>
      <trkpt lat="43.61258" lon="2.93371">
        <ele>1004.8</ele>
        <time>2017-04-16T04:12:56.000Z</time>
      </trkpt>
      <trkpt lat="43.61257" lon="2.9337">
        <ele>1005.2</ele>
        <time>2017-04-16T04:12:57.000Z</time>
      </trkpt>
      <trkpt lat="43.61256" lon="2.9337">
        <ele>1005.4</ele>
        <time>2017-04-16T04:12:58.000Z</time>
      </trkpt>
      <trkpt lat="43.61255" lon="2.93371">
        <ele>1005.8</ele>
        <time>2017-04-16T04:13:00.000Z</time>
      </trkpt>
      <trkpt lat="43.61252" lon="2.93372">
        <ele>1006.2</ele>
        <time>2017-04-16T04:13:02.000Z</time>
      </trkpt>
      <trkpt lat="43.61248" lon="2.93372">
        <ele>1006.8</ele>
        <time>2017-04-16T04:13:04.000Z</time>
      </trkpt>
      <trkpt lat="43.61246" lon="2.93371">
        <ele>1007.2</ele>
        <time>2017-04-16T04:13:05.000Z</time>
      </trkpt>
      <trkpt lat="43.61244" lon="2.93372">
        <ele>1007.4</ele>
        <time>2017-04-16T04:13:06.000Z</time>
      </trkpt>
      <trkpt lat="43.61241" lon="2.93372">
        <ele>1007.8</ele>
        <time>2017-04-16T04:13:08.000Z</time>
      </trkpt>
      <trkpt lat="43.61238" lon="2.93372">
        <ele>1008.4</ele>
        <time>2017-04-16T04:13:10.000Z</time>
      </trkpt>
      <trkpt lat="43.61233" lon="2.93371">
        <ele>1009</ele>
        <time>2017-04-16T04:13:12.000Z</time>
      </trkpt>
      <trkpt lat="43.61229" lon="2.93369">
        <ele>1009.4</ele>
        <time>2017-04-16T04:13:14.000Z</time>
      </trkpt>
      <trkpt lat="43.61225" lon="2.9337">
        <ele>1009.8</ele>
        <time>2017-04-16T04:13:16.000Z</time>
      </trkpt>
      <trkpt lat="43.61222" lon="2.93372">
        <ele>1010.2</ele>
        <time>2017-04-16T04:13:18.000Z</time>
      </trkpt>
      <trkpt lat="43.61213" lon="2.93373">
        <ele>1010.8</ele>
        <time>2017-04-16T04:13:22.000Z</time>
      </trkpt>
      <trkpt lat="43.6121" lon="2.93373">
        <ele>1011.4</ele>
        <time>2017-04-16T04:13:24.000Z</time>
      </trkpt>
      <trkpt lat="43.61205" lon="2.93375">
        <ele>1011.8</ele>
        <time>2017-04-16T04:13:26.000Z</time>
      </trkpt>
      <trkpt lat="43.61201" lon="2.93379">
        <ele>1012.2</ele>
        <time>2017-04-16T04:13:28.000Z</time>
      </trkpt>
      <trkpt lat="43.61198" lon="2.93381">
        <ele>1012.4</ele>
        <time>2017-04-16T04:13:30.000Z</time>
      </trkpt>
      <trkpt lat="43.61196" lon="2.93383">
        <ele>1012.8</ele>
        <time>2017-04-16T04:13:31.000Z</time>
      </trkpt>
      <trkpt lat="43.6119" lon="2.93385">
        <ele>1013.2</ele>
        <time>2017-04-16T04:13:33.000Z</time>
      </trkpt>
      <trkpt lat="43.61185" lon="2.93387">
        <ele>1013.8</ele>
        <time>2017-04-16T04:13:35.000Z</time>
      </trkpt>
      <trkpt lat="43.61181" lon="2.93388">
        <ele>1014</ele>
        <time>2017-04-16T04:13:37.000Z</time>
      </trkpt>
      <trkpt lat="43.61176" lon="2.93388">
        <ele>1014.4</ele>
        <time>2017-04-16T04:13:39.000Z</time>
      </trkpt>
      <trkpt lat="43.61164" lon="2.9339">
        <ele>1014.8</ele>
        <time>2017-04-16T04:13:44.000Z</time>
      </trkpt>
      <trkpt lat="43.61152" lon="2.93389">
        <ele>1015.2</ele>
        <time>2017-04-16T04:13:50.000Z</time>
      </trkpt>
      <trkpt lat="43.6115" lon="2.93389">
        <ele>1015.2</ele>
        <time>2017-04-16T04:13:51.000Z</time>
      </trkpt>
      <trkpt lat="43.61144" lon="2.93392">
        <ele>1015.6</ele>
        <time>2017-04-16T04:13:54.000Z</time>
      </trkpt>
      <trkpt lat="43.61139" lon="2.93395">
        <ele>1016</ele>
        <time>2017-04-16T04:13:56.000Z</time>
      </trkpt>
      <trkpt lat="43.61135" lon="2.93396">
        <ele>1016.4</ele>
        <time>2017-04-16T04:13:58.000Z</time>
      </trkpt>
      <trkpt lat="43.6113" lon="2.93397">
        <ele>1016.6</ele>
        <time>2017-04-16T04:14:00.000Z</time>
      </trkpt>
      <trkpt lat="43.61126" lon="2.934">
        <ele>1016.8</ele>
        <time>2017-04-16T04:14:02.000Z</time>
      </trkpt>
      <trkpt lat="43.61125" lon="2.93401">
        <ele>1017.2</ele>
        <time>2017-04-16T04:14:03.000Z</time>
      </trkpt>
      <trkpt lat="43.61122" lon="2.93405">
        <ele>1017.8</ele>
        <time>2017-04-16T04:14:05.000Z</time>
      </trkpt>
      <trkpt lat="43.6112" lon="2.93409">
        <ele>1018.2</ele>
        <time>2017-04-16T04:14:07.000Z</time>
      </trkpt>
      <trkpt lat="43.61119" lon="2.93413">
        <ele>1018.6</ele>
        <time>2017-04-16T04:14:09.000Z</time>
      </trkpt>
      <trkpt lat="43.61117" lon="2.93413">
        <ele>1019</ele>
        <time>2017-04-16T04:14:10.000Z</time>
      </trkpt>
      <trkpt lat="43.61114" lon="2.93413">
        <ele>1019.6</ele>
        <time>2017-04-16T04:14:12.000Z</time>
      </trkpt>
      <trkpt lat="43.61111" lon="2.93414">
        <ele>1020.2</ele>
        <time>2017-04-16T04:14:14.000Z</time>
      </trkpt>
      <trkpt lat="43.61108" lon="2.93416">
        <ele>1020.6</ele>
        <time>2017-04-16T04:14:16.000Z</time>
      </trkpt>
      <trkpt lat="43.61106" lon="2.93416">
        <ele>1021</ele>
        <time>2017-04-16T04:14:17.000Z</time>
      </trkpt>
      <trkpt lat="43.61104" lon="2.93417">
        <ele>1021.4</ele>
        <time>2017-04-16T04:14:18.000Z</time>
      </trkpt>
      <trkpt lat="43.61101" lon="2.93417">
        <ele>1021.6</ele>
        <time>2017-04-16T04:14:19.000Z</time>
      </trkpt>
      <trkpt lat="43.61096" lon="2.93417">
        <ele>1022.2</ele>
        <time>2017-04-16T04:14:21.000Z</time>
      </trkpt>
      <trkpt lat="43.6109" lon="2.93418">
        <ele>1022.8</ele>
        <time>2017-04-16T04:14:23.000Z</time>
      </trkpt>
      <trkpt lat="43.61088" lon="2.93419">
        <ele>1022.8</ele>
        <time>2017-04-16T04:14:24.000Z</time>
      </trkpt>
      <trkpt lat="43.61084" lon="2.93418">
        <ele>1023</ele>
        <time>2017-04-16T04:14:25.000Z</time>
      </trkpt>
      <trkpt lat="43.61082" lon="2.93419">
        <ele>1023.2</ele>
        <time>2017-04-16T04:14:26.000Z</time>
      </trkpt>
      <trkpt lat="43.61075" lon="2.93425">
        <ele>1023.8</ele>
        <time>2017-04-16T04:14:32.000Z</time>
      </trkpt>
      <trkpt lat="43.61065" lon="2.93427">
        <ele>1024.4</ele>
        <time>2017-04-16T04:14:36.000Z</time>
      </trkpt>
      <trkpt lat="43.6106" lon="2.9343">
        <ele>1024.8</ele>
        <time>2017-04-16T04:14:38.000Z</time>
      </trkpt>
      <trkpt lat="43.61055" lon="2.93436">
        <ele>1025.2</ele>
        <time>2017-04-16T04:14:40.000Z</time>
      </trkpt>
      <trkpt lat="43.61052" lon="2.93438">
        <ele>1025.4</ele>
        <time>2017-04-16T04:14:41.000Z</time>
      </trkpt>
      <trkpt lat="43.61037" lon="2.93442">
        <ele>1025.8</ele>
        <time>2017-04-16T04:14:44.000Z</time>
      </trkpt>
      <trkpt lat="43.61032" lon="2.93443">
        <ele>1025.8</ele>
        <time>2017-04-16T04:14:45.000Z</time>
      </trkpt>
      <trkpt lat="43.61019" lon="2.93444">
        <ele>1025.8</ele>
        <time>2017-04-16T04:14:47.000Z</time>
      </trkpt>
      <trkpt lat="43.61006" lon="2.9345">
        <ele>1025.6</ele>
        <time>2017-04-16T04:14:49.000Z</time>
      </trkpt>
      <trkpt lat="43.60996" lon="2.93457">
        <ele>1025.4</ele>
        <time>2017-04-16T04:14:51.000Z</time>
      </trkpt>
      <trkpt lat="43.60987" lon="2.93464">
        <ele>1025.2</ele>
        <time>2017-04-16T04:14:53.000Z</time>
      </trkpt>
      <trkpt lat="43.60977" lon="2.93471">
        <ele>1025.2</ele>
        <time>2017-04-16T04:14:55.000Z</time>
      </trkpt>
      <trkpt lat="43.60972" lon="2.93475">
        <ele>1025</ele>
        <time>2017-04-16T04:14:56.000Z</time>
      </trkpt>
      <trkpt lat="43.60962" lon="2.93483">
        <ele>1024.4</ele>
        <time>2017-04-16T04:14:58.000Z</time>
      </trkpt>
      <trkpt lat="43.60953" lon="2.93491">
        <ele>1024.2</ele>
        <time>2017-04-16T04:15:00.000Z</time>
      </trkpt>
      <trkpt lat="43.60948" lon="2.93494">
        <ele>1024</ele>
        <time>2017-04-16T04:15:01.000Z</time>
      </trkpt>
      <trkpt lat="43.60935" lon="2.93499">
        <ele>1023.6</ele>
        <time>2017-04-16T04:15:04.000Z</time>
      </trkpt>
      <trkpt lat="43.60925" lon="2.93506">
        <ele>1023.2</ele>
        <time>2017-04-16T04:15:08.000Z</time>
      </trkpt>
      <trkpt lat="43.60906" lon="2.93514">
        <ele>1023</ele>
        <time>2017-04-16T04:15:14.000Z</time>
      </trkpt>
      <trkpt lat="43.60892" lon="2.93513">
        <ele>1022.8</ele>
        <time>2017-04-16T04:15:18.000Z</time>
      </trkpt>
      <trkpt lat="43.60889" lon="2.93514">
        <ele>1022.8</ele>
        <time>2017-04-16T04:15:19.000Z</time>
      </trkpt>
      <trkpt lat="43.60865" lon="2.93518">
        <ele>1022.8</ele>
        <time>2017-04-16T04:15:25.000Z</time>
      </trkpt>
      <trkpt lat="43.60861" lon="2.93519">
        <ele>1023</ele>
        <time>2017-04-16T04:15:26.000Z</time>
      </trkpt>
      <trkpt lat="43.60854" lon="2.93522">
        <ele>1023.4</ele>
        <time>2017-04-16T04:15:28.000Z</time>
      </trkpt>
      <trkpt lat="43.60848" lon="2.93525">
        <ele>1023.6</ele>
        <time>2017-04-16T04:15:30.000Z</time>
      </trkpt>
      <trkpt lat="43.60843" lon="2.93527">
        <ele>1023.8</ele>
        <time>2017-04-16T04:15:32.000Z</time>
      </trkpt>
      <trkpt lat="43.60838" lon="2.93529">
        <ele>1024</ele>
        <time>2017-04-16T04:15:34.000Z</time>
      </trkpt>
      <trkpt lat="43.60826" lon="2.93539">
        <ele>1024.4</ele>
        <time>2017-04-16T04:15:38.000Z</time>
      </trkpt>
      <trkpt lat="43.60823" lon="2.93542">
        <ele>1024.6</ele>
        <time>2017-04-16T04:15:39.000Z</time>
      </trkpt>
      <trkpt lat="43.60817" lon="2.93547">
        <ele>1025</ele>
        <time>2017-04-16T04:15:41.000Z</time>
      </trkpt>
      <trkpt lat="43.60809" lon="2.93551">
        <ele>1025.4</ele>
        <time>2017-04-16T04:15:43.000Z</time>
      </trkpt>
      <trkpt lat="43.608" lon="2.93556">
        <ele>1025.6</ele>
        <time>2017-04-16T04:15:45.000Z</time>
      </trkpt>
      <trkpt lat="43.60792" lon="2.93561">
        <ele>1025.8</ele>
        <time>2017-04-16T04:15:47.000Z</time>
      </trkpt>
      <trkpt lat="43.60779" lon="2.93569">
        <ele>1026</ele>
        <time>2017-04-16T04:15:51.000Z</time>
      </trkpt>
      <trkpt lat="43.60775" lon="2.93576">
        <ele>1025.8</ele>
        <time>2017-04-16T04:15:53.000Z</time>
      </trkpt>
      <trkpt lat="43.60775" lon="2.93582">
        <ele>1025.6</ele>
        <time>2017-04-16T04:15:55.000Z</time>
      </trkpt>
      <trkpt lat="43.60777" lon="2.93586">
        <ele>1025.4</ele>
        <time>2017-04-16T04:15:57.000Z</time>
      </trkpt>
      <trkpt lat="43.60777" lon="2.93585">
        <ele>1025.4</ele>
        <time>2017-04-16T04:15:58.000Z</time>
      </trkpt>
      <trkpt lat="43.60775" lon="2.93583">
        <ele>1025.2</ele>
        <time>2017-04-16T04:16:01.000Z</time>
      </trkpt>
      <trkpt lat="43.60773" lon="2.93584">
        <ele>1025.2</ele>
        <time>2017-04-16T04:16:02.000Z</time>
      </trkpt>
      <trkpt lat="43.60771" lon="2.93584">
        <ele>1025.2</ele>
        <time>2017-04-16T04:16:03.000Z</time>
      </trkpt>
      <trkpt lat="43.60755" lon="2.93577">
        <ele>1025</ele>
        <time>2017-04-16T04:16:08.000Z</time>
      </trkpt>
      <trkpt lat="43.6074" lon="2.93577">
        <ele>1024.8</ele>
        <time>2017-04-16T04:16:13.000Z</time>
      </trkpt>
      <trkpt lat="43.60732" lon="2.93578">
        <ele>1024.4</ele>
        <time>2017-04-16T04:16:15.000Z</time>
      </trkpt>
      <trkpt lat="43.60726" lon="2.93581">
        <ele>1024</ele>
        <time>2017-04-16T04:16:17.000Z</time>
      </trkpt>
      <trkpt lat="43.60723" lon="2.93582">
        <ele>1023.8</ele>
        <time>2017-04-16T04:16:18.000Z</time>
      </trkpt>
      <trkpt lat="43.60713" lon="2.93586">
        <ele>1023.6</ele>
        <time>2017-04-16T04:16:21.000Z</time>
      </trkpt>
      <trkpt lat="43.60702" lon="2.93591">
        <ele>1023.2</ele>
        <time>2017-04-16T04:16:26.000Z</time>
      </trkpt>
      <trkpt lat="43.60693" lon="2.93596">
        <ele>1023</ele>
        <time>2017-04-16T04:16:30.000Z</time>
      </trkpt>
      <trkpt lat="43.60684" lon="2.93596">
        <ele>1022.8</ele>
        <time>2017-04-16T04:16:35.000Z</time>
      </trkpt>
      <trkpt lat="43.60683" lon="2.93592">
        <ele>1022.8</ele>
        <time>2017-04-16T04:16:39.000Z</time>
      </trkpt>
      <trkpt lat="43.60682" lon="2.93589">
        <ele>1023</ele>
        <time>2017-04-16T04:16:41.000Z</time>
      </trkpt>
      <trkpt lat="43.6068" lon="2.93589">
        <ele>1023.4</ele>
        <time>2017-04-16T04:16:43.000Z</time>
      </trkpt>
      <trkpt lat="43.60669" lon="2.93584">
        <ele>1024.8</ele>
        <time>2017-04-16T04:17:34.000Z</time>
      </trkpt>
      <trkpt lat="43.60668" lon="2.93583">
        <ele>1024.8</ele>
        <time>2017-04-16T04:17:36.000Z</time>
      </trkpt>
      <trkpt lat="43.60667" lon="2.93582">
        <ele>1024.8</ele>
        <time>2017-04-16T04:17:38.000Z</time>
      </trkpt>
      <trkpt lat="43.60666" lon="2.93581">
        <ele>1024.8</ele>
        <time>2017-04-16T04:17:40.000Z</time>
      </trkpt>
      <trkpt lat="43.60664" lon="2.9358">
        <ele>1024.8</ele>
        <time>2017-04-16T04:17:44.000Z</time>
      </trkpt>
      <trkpt lat="43.60663" lon="2.9358">
        <ele>1024.8</ele>
        <time>2017-04-16T04:18:13.000Z</time>
      </trkpt>
      <trkpt lat="43.60663" lon="2.93582">
        <ele>1024.8</ele>
        <time>2017-04-16T04:18:17.000Z</time>
      </trkpt>
      <trkpt lat="43.60664" lon="2.93583">
        <ele>1024.8</ele>
        <time>2017-04-16T04:18:19.000Z</time>
      </trkpt>
      <trkpt lat="43.60665" lon="2.93585">
        <ele>1024.8</ele>
        <time>2017-04-16T04:18:33.000Z</time>
      </trkpt>
      <trkpt lat="43.60663" lon="2.93583">
        <ele>1024.8</ele>
        <time>2017-04-16T04:18:37.000Z</time>
      </trkpt>
      <trkpt lat="43.60662" lon="2.93584">
        <ele>1024.8</ele>
        <time>2017-04-16T04:18:40.000Z</time>
      </trkpt>
      <trkpt lat="43.60658" lon="2.93585">
        <ele>1024.8</ele>
        <time>2017-04-16T04:19:22.000Z</time>
      </trkpt>
      <trkpt lat="43.60658" lon="2.93587">
        <ele>1024.8</ele>
        <time>2017-04-16T04:19:24.000Z</time>
      </trkpt>
      <trkpt lat="43.60661" lon="2.93589">
        <ele>1024.8</ele>
        <time>2017-04-16T04:19:38.000Z</time>
      </trkpt>
      <trkpt lat="43.60662" lon="2.93587">
        <ele>1024.8</ele>
        <time>2017-04-16T04:19:41.000Z</time>
      </trkpt>
      <trkpt lat="43.60664" lon="2.93585">
        <ele>1024.8</ele>
        <time>2017-04-16T04:19:46.000Z</time>
      </trkpt>
      <trkpt lat="43.60667" lon="2.93581">
        <ele>1024.8</ele>
        <time>2017-04-16T04:20:06.000Z</time>
      </trkpt>
      <trkpt lat="43.60665" lon="2.93582">
        <ele>1024.8</ele>
        <time>2017-04-16T04:20:09.000Z</time>
      </trkpt>
      <trkpt lat="43.60665" lon="2.93582">
        <ele>1024.8</ele>
        <time>2017-04-16T04:20:10.000Z</time>
      </trkpt>
      <trkpt lat="43.60662" lon="2.9358">
        <ele>1024.8</ele>
        <time>2017-04-16T04:21:06.000Z</time>
      </trkpt>
      <trkpt lat="43.60664" lon="2.93582">
        <ele>1024.8</ele>
        <time>2017-04-16T04:21:10.000Z</time>
      </trkpt>
      <trkpt lat="43.60665" lon="2.93584">
        <ele>1024.8</ele>
        <time>2017-04-16T04:21:12.000Z</time>
      </trkpt>
      <trkpt lat="43.60665" lon="2.93586">
        <ele>1024.8</ele>
        <time>2017-04-16T04:21:14.000Z</time>
      </trkpt>
      <trkpt lat="43.60664" lon="2.93585">
        <ele>1024.8</ele>
        <time>2017-04-16T04:21:50.000Z</time>
      </trkpt>
      <trkpt lat="43.60665" lon="2.93586">
        <ele>1024.8</ele>
        <time>2017-04-16T04:21:52.000Z</time>
      </trkpt>
      <trkpt lat="43.60671" lon="2.93586">
        <ele>1024.8</ele>
        <time>2017-04-16T04:22:50.000Z</time>
      </trkpt>
      <trkpt lat="43.60672" lon="2.93583">
        <ele>1024.8</ele>
        <time>2017-04-16T04:22:54.000Z</time>
      </trkpt>
      <trkpt lat="43.60668" lon="2.93586">
        <ele>1024.8</ele>
        <time>2017-04-16T04:23:15.000Z</time>
      </trkpt>
      <trkpt lat="43.60668" lon="2.93587">
        <ele>1024.8</ele>
        <time>2017-04-16T04:23:16.000Z</time>
      </trkpt>
      <trkpt lat="43.60667" lon="2.93588">
        <ele>1024.8</ele>
        <time>2017-04-16T04:23:18.000Z</time>
      </trkpt>
      <trkpt lat="43.60664" lon="2.9359">
        <ele>1024.8</ele>
        <time>2017-04-16T04:23:58.000Z</time>
      </trkpt>
      <trkpt lat="43.60663" lon="2.93594">
        <ele>1024.8</ele>
        <time>2017-04-16T04:24:02.000Z</time>
      </trkpt>
      <trkpt lat="43.60662" lon="2.93594">
        <ele>1024.8</ele>
        <time>2017-04-16T04:24:06.000Z</time>
      </trkpt>
      <trkpt lat="43.60662" lon="2.93592">
        <ele>1024.8</ele>
        <time>2017-04-16T04:24:09.000Z</time>
      </trkpt>
      <trkpt lat="43.60663" lon="2.9359">
        <ele>1024.8</ele>
        <time>2017-04-16T04:24:14.000Z</time>
      </trkpt>
      <trkpt lat="43.60663" lon="2.93591">
        <ele>1024.8</ele>
        <time>2017-04-16T04:24:17.000Z</time>
      </trkpt>
      <trkpt lat="43.60663" lon="2.93592">
        <ele>1024.8</ele>
        <time>2017-04-16T04:24:18.000Z</time>
      </trkpt>
      <trkpt lat="43.60661" lon="2.93587">
        <ele>1022.8</ele>
        <time>2017-04-16T04:25:34.000Z</time>
      </trkpt>
      <trkpt lat="43.60661" lon="2.93588">
        <ele>1022.8</ele>
        <time>2017-04-16T04:25:35.000Z</time>
      </trkpt>
      <trkpt lat="43.6066" lon="2.93588">
        <ele>1022.8</ele>
        <time>2017-04-16T04:25:36.000Z</time>
      </trkpt>
      <trkpt lat="43.6066" lon="2.9359">
        <ele>1022.8</ele>
        <time>2017-04-16T04:25:37.000Z</time>
      </trkpt>
      <trkpt lat="43.6066" lon="2.93593">
        <ele>1022.8</ele>
        <time>2017-04-16T04:25:39.000Z</time>
      </trkpt>
      <trkpt lat="43.60659" lon="2.93594">
        <ele>1022.8</ele>
        <time>2017-04-16T04:25:41.000Z</time>
      </trkpt>
      <trkpt lat="43.60659" lon="2.93594">
        <ele>1022.8</ele>
        <time>2017-04-16T04:25:42.000Z</time>
      </trkpt>
      <trkpt lat="43.6066" lon="2.9359">
        <ele>1022.8</ele>
        <time>2017-04-16T04:26:22.000Z</time>
      </trkpt>
      <trkpt lat="43.60661" lon="2.9359">
        <ele>1022.8</ele>
        <time>2017-04-16T04:26:23.000Z</time>
      </trkpt>
      <trkpt lat="43.60661" lon="2.93591">
        <ele>1022.8</ele>
        <time>2017-04-16T04:26:26.000Z</time>
      </trkpt>
      <trkpt lat="43.60664" lon="2.93585">
        <ele>1022.8</ele>
        <time>2017-04-16T04:28:00.000Z</time>
      </trkpt>
      <trkpt lat="43.60664" lon="2.93586">
        <ele>1022.8</ele>
        <time>2017-04-16T04:28:02.000Z</time>
      </trkpt>
      <trkpt lat="43.6066" lon="2.93583">
        <ele>1022.4</ele>
        <time>2017-04-16T04:29:32.000Z</time>
      </trkpt>
      <trkpt lat="43.6066" lon="2.93584">
        <ele>1022.4</ele>
        <time>2017-04-16T04:29:33.000Z</time>
      </trkpt>
      <trkpt lat="43.6066" lon="2.93585">
        <ele>1022.4</ele>
        <time>2017-04-16T04:29:34.000Z</time>
      </trkpt>
      <trkpt lat="43.60661" lon="2.93587">
        <ele>1022.6</ele>
        <time>2017-04-16T04:29:38.000Z</time>
      </trkpt>
      <trkpt lat="43.60661" lon="2.93588">
        <ele>1022.6</ele>
        <time>2017-04-16T04:29:39.000Z</time>
      </trkpt>
      <trkpt lat="43.60661" lon="2.93589">
        <ele>1022.6</ele>
        <time>2017-04-16T04:29:41.000Z</time>
      </trkpt>
      <trkpt lat="43.60659" lon="2.93592">
        <ele>1022.6</ele>
        <time>2017-04-16T04:30:02.000Z</time>
      </trkpt>
      <trkpt lat="43.6066" lon="2.93593">
        <ele>1022.6</ele>
        <time>2017-04-16T04:30:04.000Z</time>
      </trkpt>
      <trkpt lat="43.60661" lon="2.93592">
        <ele>1022.6</ele>
        <time>2017-04-16T04:30:06.000Z</time>
      </trkpt>
      <trkpt lat="43.60655" lon="2.93596">
        <ele>1020.6</ele>
        <time>2017-04-16T04:30:45.000Z</time>
      </trkpt>
      <trkpt lat="43.60655" lon="2.93595">
        <ele>1020.6</ele>
        <time>2017-04-16T04:30:46.000Z</time>
      </trkpt>
      <trkpt lat="43.60655" lon="2.93595">
        <ele>1020.6</ele>
        <time>2017-04-16T04:30:47.000Z</time>
      </trkpt>
      <trkpt lat="43.60654" lon="2.93595">
        <ele>1020.6</ele>
        <time>2017-04-16T04:30:48.000Z</time>
      </trkpt>
      <trkpt lat="43.60654" lon="2.93594">
        <ele>1020.6</ele>
        <time>2017-04-16T04:30:50.000Z</time>
      </trkpt>
      <trkpt lat="43.60653" lon="2.93594">
        <ele>1020.6</ele>
        <time>2017-04-16T04:30:52.000Z</time>
      </trkpt>
      <trkpt lat="43.60661" lon="2.93597">
        <ele>1020.6</ele>
        <time>2017-04-16T04:32:16.000Z</time>
      </trkpt>
      <trkpt lat="43.60662" lon="2.93598">
        <ele>1020.6</ele>
        <time>2017-04-16T04:32:18.000Z</time>
      </trkpt>
      <trkpt lat="43.60662" lon="2.93599">
        <ele>1020.6</ele>
        <time>2017-04-16T04:32:20.000Z</time>
      </trkpt>
      <trkpt lat="43.60662" lon="2.936">
        <ele>1020.6</ele>
        <time>2017-04-16T04:32:21.000Z</time>
      </trkpt>
      <trkpt lat="43.60663" lon="2.93599">
        <ele>1020.6</ele>
        <time>2017-04-16T04:32:34.000Z</time>
      </trkpt>
      <trkpt lat="43.60663" lon="2.93599">
        <ele>1020.6</ele>
        <time>2017-04-16T04:32:36.000Z</time>
      </trkpt>
      <trkpt lat="43.60664" lon="2.936">
        <ele>1020.6</ele>
        <time>2017-04-16T04:32:38.000Z</time>
      </trkpt>
      <trkpt lat="43.60664" lon="2.936">
        <ele>1020.6</ele>
        <time>2017-04-16T04:32:41.000Z</time>
      </trkpt>
      <trkpt lat="43.60665" lon="2.93603">
        <ele>1020.6</ele>
        <time>2017-04-16T04:33:18.000Z</time>
      </trkpt>
      <trkpt lat="43.60664" lon="2.93606">
        <ele>1020.6</ele>
        <time>2017-04-16T04:33:21.000Z</time>
      </trkpt>
      <trkpt lat="43.60663" lon="2.93606">
        <ele>1020.6</ele>
        <time>2017-04-16T04:33:22.000Z</time>
      </trkpt>
      <trkpt lat="43.60664" lon="2.93608">
        <ele>1020.6</ele>
        <time>2017-04-16T04:33:40.000Z</time>
      </trkpt>
      <trkpt lat="43.60658" lon="2.93611">
        <ele>1020.6</ele>
        <time>2017-04-16T04:33:47.000Z</time>
      </trkpt>
      <trkpt lat="43.6066" lon="2.9361">
        <ele>1020.6</ele>
        <time>2017-04-16T04:33:56.000Z</time>
      </trkpt>
      <trkpt lat="43.60669" lon="2.9361">
        <ele>1020.6</ele>
        <time>2017-04-16T04:33:59.000Z</time>
      </trkpt>
      <trkpt lat="43.60698" lon="2.93608">
        <ele>1020.6</ele>
        <time>2017-04-16T04:34:02.000Z</time>
      </trkpt>
      <trkpt lat="43.60706" lon="2.93606">
        <ele>1020.6</ele>
        <time>2017-04-16T04:34:03.000Z</time>
      </trkpt>
      <trkpt lat="43.60729" lon="2.93604">
        <ele>1020.4</ele>
        <time>2017-04-16T04:34:06.000Z</time>
      </trkpt>
      <trkpt lat="43.60746" lon="2.93602">
        <ele>1020</ele>
        <time>2017-04-16T04:34:08.000Z</time>
      </trkpt>
      <trkpt lat="43.60752" lon="2.93604">
        <ele>1019.8</ele>
        <time>2017-04-16T04:34:09.000Z</time>
      </trkpt>
      <trkpt lat="43.60759" lon="2.93605">
        <ele>1019.6</ele>
        <time>2017-04-16T04:34:10.000Z</time>
      </trkpt>
      <trkpt lat="43.60762" lon="2.93617">
        <ele>1019.4</ele>
        <time>2017-04-16T04:34:12.000Z</time>
      </trkpt>
      <trkpt lat="43.60754" lon="2.93631">
        <ele>1019</ele>
        <time>2017-04-16T04:34:14.000Z</time>
      </trkpt>
      <trkpt lat="43.60748" lon="2.93636">
        <ele>1019</ele>
        <time>2017-04-16T04:34:15.000Z</time>
      </trkpt>
      <trkpt lat="43.60736" lon="2.93649">
        <ele>1018.6</ele>
        <time>2017-04-16T04:34:17.000Z</time>
      </trkpt>
      <trkpt lat="43.60731" lon="2.93656">
        <ele>1018.4</ele>
        <time>2017-04-16T04:34:18.000Z</time>
      </trkpt>
      <trkpt lat="43.60713" lon="2.93672">
        <ele>1017.8</ele>
        <time>2017-04-16T04:34:21.000Z</time>
      </trkpt>
      <trkpt lat="43.60707" lon="2.93676">
        <ele>1017.4</ele>
        <time>2017-04-16T04:34:22.000Z</time>
      </trkpt>
      <trkpt lat="43.607" lon="2.9368">
        <ele>1017</ele>
        <time>2017-04-16T04:34:23.000Z</time>
      </trkpt>
      <trkpt lat="43.60689" lon="2.93692">
        <ele>1016.2</ele>
        <time>2017-04-16T04:34:25.000Z</time>
      </trkpt>
      <trkpt lat="43.60677" lon="2.93707">
        <ele>1015</ele>
        <time>2017-04-16T04:34:27.000Z</time>
      </trkpt>
      <trkpt lat="43.60666" lon="2.9372">
        <ele>1013.8</ele>
        <time>2017-04-16T04:34:29.000Z</time>
      </trkpt>
      <trkpt lat="43.60657" lon="2.93732">
        <ele>1012.2</ele>
        <time>2017-04-16T04:34:31.000Z</time>
      </trkpt>
      <trkpt lat="43.60653" lon="2.93739">
        <ele>1011.4</ele>
        <time>2017-04-16T04:34:32.000Z</time>
      </trkpt>
      <trkpt lat="43.60641" lon="2.93759">
        <ele>1008.6</ele>
        <time>2017-04-16T04:34:35.000Z</time>
      </trkpt>
      <trkpt lat="43.60636" lon="2.93762">
        <ele>1007.8</ele>
        <time>2017-04-16T04:34:36.000Z</time>
      </trkpt>
      <trkpt lat="43.60624" lon="2.93763">
        <ele>1004.8</ele>
        <time>2017-04-16T04:34:39.000Z</time>
      </trkpt>
      <trkpt lat="43.6062" lon="2.93764">
        <ele>1003.8</ele>
        <time>2017-04-16T04:34:40.000Z</time>
      </trkpt>
      <trkpt lat="43.6061" lon="2.93765">
        <ele>1002</ele>
        <time>2017-04-16T04:34:42.000Z</time>
      </trkpt>
      <trkpt lat="43.60605" lon="2.93763">
        <ele>1001</ele>
        <time>2017-04-16T04:34:43.000Z</time>
      </trkpt>
      <trkpt lat="43.606" lon="2.93761">
        <ele>1000</ele>
        <time>2017-04-16T04:34:44.000Z</time>
      </trkpt>
      <trkpt lat="43.60597" lon="2.93762">
        <ele>997.8</ele>
        <time>2017-04-16T04:34:46.000Z</time>
      </trkpt>
      <trkpt lat="43.60602" lon="2.93773">
        <ele>996</ele>
        <time>2017-04-16T04:34:48.000Z</time>
      </trkpt>
      <trkpt lat="43.60604" lon="2.93778">
        <ele>994.8</ele>
        <time>2017-04-16T04:34:49.000Z</time>
      </trkpt>
      <trkpt lat="43.60601" lon="2.93781">
        <ele>993</ele>
        <time>2017-04-16T04:34:51.000Z</time>
      </trkpt>
      <trkpt lat="43.60596" lon="2.93777">
        <ele>992.2</ele>
        <time>2017-04-16T04:34:52.000Z</time>
      </trkpt>
      <trkpt lat="43.60591" lon="2.93771">
        <ele>991.4</ele>
        <time>2017-04-16T04:34:53.000Z</time>
      </trkpt>
      <trkpt lat="43.60585" lon="2.93765">
        <ele>990.4</ele>
        <time>2017-04-16T04:34:54.000Z</time>
      </trkpt>
      <trkpt lat="43.60573" lon="2.93755">
        <ele>988.8</ele>
        <time>2017-04-16T04:34:56.000Z</time>
      </trkpt>
      <trkpt lat="43.60559" lon="2.93749">
        <ele>986.8</ele>
        <time>2017-04-16T04:34:58.000Z</time>
      </trkpt>
      <trkpt lat="43.60542" lon="2.93745">
        <ele>984.6</ele>
        <time>2017-04-16T04:35:00.000Z</time>
      </trkpt>
      <trkpt lat="43.60534" lon="2.93742">
        <ele>983.6</ele>
        <time>2017-04-16T04:35:01.000Z</time>
      </trkpt>
      <trkpt lat="43.60527" lon="2.9374">
        <ele>982.2</ele>
        <time>2017-04-16T04:35:02.000Z</time>
      </trkpt>
      <trkpt lat="43.6052" lon="2.9374">
        <ele>979.6</ele>
        <time>2017-04-16T04:35:04.000Z</time>
      </trkpt>
      <trkpt lat="43.60523" lon="2.93748">
        <ele>977</ele>
        <time>2017-04-16T04:35:06.000Z</time>
      </trkpt>
      <trkpt lat="43.60531" lon="2.93762">
        <ele>974.6</ele>
        <time>2017-04-16T04:35:08.000Z</time>
      </trkpt>
      <trkpt lat="43.60536" lon="2.93769">
        <ele>973.4</ele>
        <time>2017-04-16T04:35:09.000Z</time>
      </trkpt>
      <trkpt lat="43.60548" lon="2.93783">
        <ele>971.4</ele>
        <time>2017-04-16T04:35:11.000Z</time>
      </trkpt>
      <trkpt lat="43.60554" lon="2.9379">
        <ele>970.2</ele>
        <time>2017-04-16T04:35:12.000Z</time>
      </trkpt>
      <trkpt lat="43.60563" lon="2.93807">
        <ele>968.4</ele>
        <time>2017-04-16T04:35:14.000Z</time>
      </trkpt>
      <trkpt lat="43.60567" lon="2.93815">
        <ele>967.2</ele>
        <time>2017-04-16T04:35:15.000Z</time>
      </trkpt>
      <trkpt lat="43.60569" lon="2.93822">
        <ele>966.2</ele>
        <time>2017-04-16T04:35:16.000Z</time>
      </trkpt>
      <trkpt lat="43.6057" lon="2.93828">
        <ele>965</ele>
        <time>2017-04-16T04:35:17.000Z</time>
      </trkpt>
      <trkpt lat="43.60569" lon="2.93841">
        <ele>962.8</ele>
        <time>2017-04-16T04:35:19.000Z</time>
      </trkpt>
      <trkpt lat="43.60569" lon="2.93859">
        <ele>961</ele>
        <time>2017-04-16T04:35:21.000Z</time>
      </trkpt>
      <trkpt lat="43.60568" lon="2.93868">
        <ele>959.8</ele>
        <time>2017-04-16T04:35:22.000Z</time>
      </trkpt>
      <trkpt lat="43.60568" lon="2.93877">
        <ele>958.8</ele>
        <time>2017-04-16T04:35:23.000Z</time>
      </trkpt>
      <trkpt lat="43.60568" lon="2.93884">
        <ele>957.6</ele>
        <time>2017-04-16T04:35:24.000Z</time>
      </trkpt>
      <trkpt lat="43.60564" lon="2.93887">
        <ele>955.2</ele>
        <time>2017-04-16T04:35:26.000Z</time>
      </trkpt>
      <trkpt lat="43.60554" lon="2.93875">
        <ele>953.2</ele>
        <time>2017-04-16T04:35:28.000Z</time>
      </trkpt>
      <trkpt lat="43.6055" lon="2.93865">
        <ele>952</ele>
        <time>2017-04-16T04:35:29.000Z</time>
      </trkpt>
      <trkpt lat="43.60547" lon="2.93855">
        <ele>951.2</ele>
        <time>2017-04-16T04:35:30.000Z</time>
      </trkpt>
      <trkpt lat="43.60543" lon="2.93847">
        <ele>950.2</ele>
        <time>2017-04-16T04:35:31.000Z</time>
      </trkpt>
      <trkpt lat="43.60533" lon="2.93832">
        <ele>948.4</ele>
        <time>2017-04-16T04:35:33.000Z</time>
      </trkpt>
      <trkpt lat="43.60527" lon="2.93826">
        <ele>947.6</ele>
        <time>2017-04-16T04:35:34.000Z</time>
      </trkpt>
      <trkpt lat="43.60519" lon="2.9382">
        <ele>946.6</ele>
        <time>2017-04-16T04:35:35.000Z</time>
      </trkpt>
      <trkpt lat="43.60511" lon="2.93814">
        <ele>945.8</ele>
        <time>2017-04-16T04:35:36.000Z</time>
      </trkpt>
      <trkpt lat="43.60485" lon="2.938">
        <ele>942.8</ele>
        <time>2017-04-16T04:35:39.000Z</time>
      </trkpt>
      <trkpt lat="43.60469" lon="2.93794">
        <ele>940.8</ele>
        <time>2017-04-16T04:35:41.000Z</time>
      </trkpt>
      <trkpt lat="43.60462" lon="2.93792">
        <ele>939.8</ele>
        <time>2017-04-16T04:35:42.000Z</time>
      </trkpt>
      <trkpt lat="43.60456" lon="2.9379">
        <ele>938.8</ele>
        <time>2017-04-16T04:35:43.000Z</time>
      </trkpt>
      <trkpt lat="43.60446" lon="2.93788">
        <ele>936.6</ele>
        <time>2017-04-16T04:35:45.000Z</time>
      </trkpt>
      <trkpt lat="43.60438" lon="2.93784">
        <ele>934.6</ele>
        <time>2017-04-16T04:35:47.000Z</time>
      </trkpt>
      <trkpt lat="43.60433" lon="2.93781">
        <ele>933.6</ele>
        <time>2017-04-16T04:35:48.000Z</time>
      </trkpt>
      <trkpt lat="43.60427" lon="2.93777">
        <ele>932.6</ele>
        <time>2017-04-16T04:35:49.000Z</time>
      </trkpt>
      <trkpt lat="43.60421" lon="2.93772">
        <ele>931.8</ele>
        <time>2017-04-16T04:35:50.000Z</time>
      </trkpt>
      <trkpt lat="43.60416" lon="2.93766">
        <ele>930.8</ele>
        <time>2017-04-16T04:35:51.000Z</time>
      </trkpt>
      <trkpt lat="43.6041" lon="2.93759">
        <ele>929</ele>
        <time>2017-04-16T04:35:53.000Z</time>
      </trkpt>
      <trkpt lat="43.6041" lon="2.93761">
        <ele>928</ele>
        <time>2017-04-16T04:35:54.000Z</time>
      </trkpt>
      <trkpt lat="43.60416" lon="2.93773">
        <ele>926.2</ele>
        <time>2017-04-16T04:35:56.000Z</time>
      </trkpt>
      <trkpt lat="43.6042" lon="2.93781">
        <ele>925.4</ele>
        <time>2017-04-16T04:35:57.000Z</time>
      </trkpt>
      <trkpt lat="43.60429" lon="2.93797">
        <ele>923.8</ele>
        <time>2017-04-16T04:35:59.000Z</time>
      </trkpt>
      <trkpt lat="43.6044" lon="2.9381">
        <ele>922.4</ele>
        <time>2017-04-16T04:36:01.000Z</time>
      </trkpt>
      <trkpt lat="43.60451" lon="2.93824">
        <ele>920.8</ele>
        <time>2017-04-16T04:36:03.000Z</time>
      </trkpt>
      <trkpt lat="43.6046" lon="2.9384">
        <ele>919</ele>
        <time>2017-04-16T04:36:05.000Z</time>
      </trkpt>
      <trkpt lat="43.60468" lon="2.93858">
        <ele>917</ele>
        <time>2017-04-16T04:36:07.000Z</time>
      </trkpt>
      <trkpt lat="43.60471" lon="2.93867">
        <ele>916.2</ele>
        <time>2017-04-16T04:36:08.000Z</time>
      </trkpt>
      <trkpt lat="43.60473" lon="2.93893">
        <ele>912.8</ele>
        <time>2017-04-16T04:36:11.000Z</time>
      </trkpt>
      <trkpt lat="43.60473" lon="2.939">
        <ele>911.8</ele>
        <time>2017-04-16T04:36:12.000Z</time>
      </trkpt>
      <trkpt lat="43.60474" lon="2.93915">
        <ele>909.8</ele>
        <time>2017-04-16T04:36:14.000Z</time>
      </trkpt>
      <trkpt lat="43.60472" lon="2.93932">
        <ele>908</ele>
        <time>2017-04-16T04:36:16.000Z</time>
      </trkpt>
      <trkpt lat="43.6047" lon="2.93941">
        <ele>906.8</ele>
        <time>2017-04-16T04:36:17.000Z</time>
      </trkpt>
      <trkpt lat="43.60468" lon="2.9395">
        <ele>906</ele>
        <time>2017-04-16T04:36:18.000Z</time>
      </trkpt>
      <trkpt lat="43.60467" lon="2.93959">
        <ele>905</ele>
        <time>2017-04-16T04:36:19.000Z</time>
      </trkpt>
      <trkpt lat="43.60465" lon="2.93966">
        <ele>904</ele>
        <time>2017-04-16T04:36:20.000Z</time>
      </trkpt>
      <trkpt lat="43.60463" lon="2.93974">
        <ele>903</ele>
        <time>2017-04-16T04:36:21.000Z</time>
      </trkpt>
      <trkpt lat="43.60459" lon="2.93989">
        <ele>901.2</ele>
        <time>2017-04-16T04:36:23.000Z</time>
      </trkpt>
      <trkpt lat="43.60458" lon="2.93997">
        <ele>900.2</ele>
        <time>2017-04-16T04:36:24.000Z</time>
      </trkpt>
      <trkpt lat="43.60457" lon="2.94006">
        <ele>899.2</ele>
        <time>2017-04-16T04:36:25.000Z</time>
      </trkpt>
      <trkpt lat="43.60452" lon="2.94023">
        <ele>897.2</ele>
        <time>2017-04-16T04:36:27.000Z</time>
      </trkpt>
      <trkpt lat="43.60449" lon="2.94031">
        <ele>896.2</ele>
        <time>2017-04-16T04:36:28.000Z</time>
      </trkpt>
      <trkpt lat="43.60445" lon="2.94037">
        <ele>895.2</ele>
        <time>2017-04-16T04:36:29.000Z</time>
      </trkpt>
      <trkpt lat="43.60443" lon="2.94041">
        <ele>894.2</ele>
        <time>2017-04-16T04:36:30.000Z</time>
      </trkpt>
      <trkpt lat="43.60441" lon="2.9404">
        <ele>893</ele>
        <time>2017-04-16T04:36:31.000Z</time>
      </trkpt>
      <trkpt lat="43.60442" lon="2.9403">
        <ele>891</ele>
        <time>2017-04-16T04:36:33.000Z</time>
      </trkpt>
      <trkpt lat="43.60443" lon="2.94023">
        <ele>890.2</ele>
        <time>2017-04-16T04:36:34.000Z</time>
      </trkpt>
      <trkpt lat="43.6044" lon="2.94022">
        <ele>887.4</ele>
        <time>2017-04-16T04:36:37.000Z</time>
      </trkpt>
      <trkpt lat="43.60437" lon="2.94035">
        <ele>886.2</ele>
        <time>2017-04-16T04:36:39.000Z</time>
      </trkpt>
      <trkpt lat="43.60435" lon="2.94043">
        <ele>885.6</ele>
        <time>2017-04-16T04:36:40.000Z</time>
      </trkpt>
      <trkpt lat="43.60431" lon="2.94058">
        <ele>884.2</ele>
        <time>2017-04-16T04:36:42.000Z</time>
      </trkpt>
      <trkpt lat="43.60427" lon="2.94056">
        <ele>882.2</ele>
        <time>2017-04-16T04:36:45.000Z</time>
      </trkpt>
      <trkpt lat="43.60427" lon="2.9405">
        <ele>881</ele>
        <time>2017-04-16T04:36:47.000Z</time>
      </trkpt>
      <trkpt lat="43.60423" lon="2.9405">
        <ele>880.2</ele>
        <time>2017-04-16T04:36:49.000Z</time>
      </trkpt>
      <trkpt lat="43.6042" lon="2.94054">
        <ele>879.6</ele>
        <time>2017-04-16T04:36:50.000Z</time>
      </trkpt>
      <trkpt lat="43.60416" lon="2.94061">
        <ele>879</ele>
        <time>2017-04-16T04:36:51.000Z</time>
      </trkpt>
      <trkpt lat="43.60404" lon="2.94081">
        <ele>877.6</ele>
        <time>2017-04-16T04:36:54.000Z</time>
      </trkpt>
      <trkpt lat="43.60401" lon="2.94084">
        <ele>877</ele>
        <time>2017-04-16T04:36:55.000Z</time>
      </trkpt>
      <trkpt lat="43.604" lon="2.94072">
        <ele>875.6</ele>
        <time>2017-04-16T04:36:57.000Z</time>
      </trkpt>
      <trkpt lat="43.60399" lon="2.9407">
        <ele>875</ele>
        <time>2017-04-16T04:36:58.000Z</time>
      </trkpt>
      <trkpt lat="43.60407" lon="2.94042">
        <ele>872.6</ele>
        <time>2017-04-16T04:37:01.000Z</time>
      </trkpt>
      <trkpt lat="43.60408" lon="2.94033">
        <ele>872</ele>
        <time>2017-04-16T04:37:02.000Z</time>
      </trkpt>
      <trkpt lat="43.60409" lon="2.94025">
        <ele>871.2</ele>
        <time>2017-04-16T04:37:03.000Z</time>
      </trkpt>
      <trkpt lat="43.60409" lon="2.94016">
        <ele>870.6</ele>
        <time>2017-04-16T04:37:04.000Z</time>
      </trkpt>
      <trkpt lat="43.60409" lon="2.94">
        <ele>869.4</ele>
        <time>2017-04-16T04:37:06.000Z</time>
      </trkpt>
      <trkpt lat="43.60401" lon="2.94003">
        <ele>867.4</ele>
        <time>2017-04-16T04:37:09.000Z</time>
      </trkpt>
      <trkpt lat="43.60399" lon="2.94004">
        <ele>866.6</ele>
        <time>2017-04-16T04:37:10.000Z</time>
      </trkpt>
      <trkpt lat="43.60395" lon="2.94023">
        <ele>865.2</ele>
        <time>2017-04-16T04:37:12.000Z</time>
      </trkpt>
      <trkpt lat="43.60393" lon="2.94029">
        <ele>864.6</ele>
        <time>2017-04-16T04:37:13.000Z</time>
      </trkpt>
      <trkpt lat="43.60391" lon="2.9403">
        <ele>863.8</ele>
        <time>2017-04-16T04:37:14.000Z</time>
      </trkpt>
      <trkpt lat="43.60389" lon="2.94019">
        <ele>862.6</ele>
        <time>2017-04-16T04:37:16.000Z</time>
      </trkpt>
      <trkpt lat="43.60388" lon="2.94009">
        <ele>861.8</ele>
        <time>2017-04-16T04:37:17.000Z</time>
      </trkpt>
      <trkpt lat="43.60389" lon="2.9399">
        <ele>860.4</ele>
        <time>2017-04-16T04:37:19.000Z</time>
      </trkpt>
      <trkpt lat="43.60388" lon="2.93981">
        <ele>859.6</ele>
        <time>2017-04-16T04:37:20.000Z</time>
      </trkpt>
      <trkpt lat="43.60386" lon="2.93972">
        <ele>859</ele>
        <time>2017-04-16T04:37:21.000Z</time>
      </trkpt>
      <trkpt lat="43.60383" lon="2.93964">
        <ele>858.4</ele>
        <time>2017-04-16T04:37:22.000Z</time>
      </trkpt>
      <trkpt lat="43.60378" lon="2.93958">
        <ele>857.4</ele>
        <time>2017-04-16T04:37:23.000Z</time>
      </trkpt>
      <trkpt lat="43.6037" lon="2.93958">
        <ele>855.6</ele>
        <time>2017-04-16T04:37:25.000Z</time>
      </trkpt>
      <trkpt lat="43.60367" lon="2.93973">
        <ele>853.6</ele>
        <time>2017-04-16T04:37:27.000Z</time>
      </trkpt>
      <trkpt lat="43.60366" lon="2.93981">
        <ele>852.8</ele>
        <time>2017-04-16T04:37:28.000Z</time>
      </trkpt>
      <trkpt lat="43.6036" lon="2.93996">
        <ele>850.8</ele>
        <time>2017-04-16T04:37:30.000Z</time>
      </trkpt>
      <trkpt lat="43.60352" lon="2.94011">
        <ele>849.2</ele>
        <time>2017-04-16T04:37:32.000Z</time>
      </trkpt>
      <trkpt lat="43.60348" lon="2.94019">
        <ele>848.2</ele>
        <time>2017-04-16T04:37:33.000Z</time>
      </trkpt>
      <trkpt lat="43.60339" lon="2.94033">
        <ele>846.4</ele>
        <time>2017-04-16T04:37:35.000Z</time>
      </trkpt>
      <trkpt lat="43.60335" lon="2.94041">
        <ele>845.4</ele>
        <time>2017-04-16T04:37:36.000Z</time>
      </trkpt>
      <trkpt lat="43.60331" lon="2.94048">
        <ele>844.6</ele>
        <time>2017-04-16T04:37:37.000Z</time>
      </trkpt>
      <trkpt lat="43.60319" lon="2.94062">
        <ele>841.6</ele>
        <time>2017-04-16T04:37:40.000Z</time>
      </trkpt>
      <trkpt lat="43.60315" lon="2.94067">
        <ele>840.6</ele>
        <time>2017-04-16T04:37:41.000Z</time>
      </trkpt>
      <trkpt lat="43.60303" lon="2.94077">
        <ele>837.6</ele>
        <time>2017-04-16T04:37:44.000Z</time>
      </trkpt>
      <trkpt lat="43.60301" lon="2.94073">
        <ele>835.4</ele>
        <time>2017-04-16T04:37:46.000Z</time>
      </trkpt>
      <trkpt lat="43.60305" lon="2.94058">
        <ele>833.6</ele>
        <time>2017-04-16T04:37:48.000Z</time>
      </trkpt>
      <trkpt lat="43.60308" lon="2.94052">
        <ele>832.4</ele>
        <time>2017-04-16T04:37:49.000Z</time>
      </trkpt>
      <trkpt lat="43.60312" lon="2.94042">
        <ele>830.6</ele>
        <time>2017-04-16T04:37:51.000Z</time>
      </trkpt>
      <trkpt lat="43.60314" lon="2.94036">
        <ele>830</ele>
        <time>2017-04-16T04:37:52.000Z</time>
      </trkpt>
      <trkpt lat="43.60315" lon="2.94029">
        <ele>829.2</ele>
        <time>2017-04-16T04:37:53.000Z</time>
      </trkpt>
      <trkpt lat="43.60316" lon="2.94015">
        <ele>827.8</ele>
        <time>2017-04-16T04:37:55.000Z</time>
      </trkpt>
      <trkpt lat="43.60312" lon="2.94015">
        <ele>827</ele>
        <time>2017-04-16T04:37:56.000Z</time>
      </trkpt>
      <trkpt lat="43.60303" lon="2.94024">
        <ele>826.4</ele>
        <time>2017-04-16T04:37:57.000Z</time>
      </trkpt>
      <trkpt lat="43.60295" lon="2.94032">
        <ele>825.4</ele>
        <time>2017-04-16T04:37:58.000Z</time>
      </trkpt>
      <trkpt lat="43.60288" lon="2.94036">
        <ele>824.8</ele>
        <time>2017-04-16T04:37:59.000Z</time>
      </trkpt>
      <trkpt lat="43.60283" lon="2.94035">
        <ele>824</ele>
        <time>2017-04-16T04:38:00.000Z</time>
      </trkpt>
      <trkpt lat="43.6028" lon="2.94034">
        <ele>823.2</ele>
        <time>2017-04-16T04:38:01.000Z</time>
      </trkpt>
      <trkpt lat="43.60277" lon="2.94027">
        <ele>821.6</ele>
        <time>2017-04-16T04:38:03.000Z</time>
      </trkpt>
      <trkpt lat="43.6028" lon="2.94019">
        <ele>820.6</ele>
        <time>2017-04-16T04:38:04.000Z</time>
      </trkpt>
      <trkpt lat="43.60288" lon="2.94005">
        <ele>819</ele>
        <time>2017-04-16T04:38:06.000Z</time>
      </trkpt>
      <trkpt lat="43.60291" lon="2.93997">
        <ele>818.4</ele>
        <time>2017-04-16T04:38:07.000Z</time>
      </trkpt>
      <trkpt lat="43.60292" lon="2.93988">
        <ele>817.4</ele>
        <time>2017-04-16T04:38:08.000Z</time>
      </trkpt>
      <trkpt lat="43.60295" lon="2.93975">
        <ele>816</ele>
        <time>2017-04-16T04:38:10.000Z</time>
      </trkpt>
      <trkpt lat="43.60293" lon="2.93973">
        <ele>815</ele>
        <time>2017-04-16T04:38:11.000Z</time>
      </trkpt>
      <trkpt lat="43.60285" lon="2.93978">
        <ele>813.4</ele>
        <time>2017-04-16T04:38:13.000Z</time>
      </trkpt>
      <trkpt lat="43.60279" lon="2.93984">
        <ele>812.4</ele>
        <time>2017-04-16T04:38:14.000Z</time>
      </trkpt>
      <trkpt lat="43.60271" lon="2.93998">
        <ele>811</ele>
        <time>2017-04-16T04:38:16.000Z</time>
      </trkpt>
      <trkpt lat="43.60268" lon="2.94005">
        <ele>810</ele>
        <time>2017-04-16T04:38:17.000Z</time>
      </trkpt>
      <trkpt lat="43.60259" lon="2.94011">
        <ele>808</ele>
        <time>2017-04-16T04:38:19.000Z</time>
      </trkpt>
      <trkpt lat="43.60246" lon="2.94016">
        <ele>806.2</ele>
        <time>2017-04-16T04:38:21.000Z</time>
      </trkpt>
      <trkpt lat="43.6024" lon="2.94019">
        <ele>805.2</ele>
        <time>2017-04-16T04:38:22.000Z</time>
      </trkpt>
      <trkpt lat="43.60234" lon="2.94022">
        <ele>804.4</ele>
        <time>2017-04-16T04:38:23.000Z</time>
      </trkpt>
      <trkpt lat="43.60228" lon="2.94026">
        <ele>803.4</ele>
        <time>2017-04-16T04:38:24.000Z</time>
      </trkpt>
      <trkpt lat="43.60223" lon="2.9403">
        <ele>802.4</ele>
        <time>2017-04-16T04:38:25.000Z</time>
      </trkpt>
      <trkpt lat="43.60218" lon="2.94035">
        <ele>801.6</ele>
        <time>2017-04-16T04:38:26.000Z</time>
      </trkpt>
      <trkpt lat="43.60208" lon="2.94048">
        <ele>799.8</ele>
        <time>2017-04-16T04:38:28.000Z</time>
      </trkpt>
      <trkpt lat="43.60203" lon="2.94053">
        <ele>799</ele>
        <time>2017-04-16T04:38:29.000Z</time>
      </trkpt>
      <trkpt lat="43.60197" lon="2.94057">
        <ele>798.4</ele>
        <time>2017-04-16T04:38:30.000Z</time>
      </trkpt>
      <trkpt lat="43.60183" lon="2.94065">
        <ele>797.2</ele>
        <time>2017-04-16T04:38:32.000Z</time>
      </trkpt>
      <trkpt lat="43.60176" lon="2.94068">
        <ele>796.6</ele>
        <time>2017-04-16T04:38:33.000Z</time>
      </trkpt>
      <trkpt lat="43.6017" lon="2.94071">
        <ele>796.2</ele>
        <time>2017-04-16T04:38:34.000Z</time>
      </trkpt>
      <trkpt lat="43.60158" lon="2.9408">
        <ele>795.4</ele>
        <time>2017-04-16T04:38:36.000Z</time>
      </trkpt>
      <trkpt lat="43.60152" lon="2.94084">
        <ele>794.8</ele>
        <time>2017-04-16T04:38:37.000Z</time>
      </trkpt>
      <trkpt lat="43.60147" lon="2.94089">
        <ele>794.2</ele>
        <time>2017-04-16T04:38:38.000Z</time>
      </trkpt>
      <trkpt lat="43.60137" lon="2.94093">
        <ele>793</ele>
        <time>2017-04-16T04:38:40.000Z</time>
      </trkpt>
      <trkpt lat="43.6013" lon="2.941">
        <ele>791.6</ele>
        <time>2017-04-16T04:38:42.000Z</time>
      </trkpt>
      <trkpt lat="43.60126" lon="2.94107">
        <ele>791</ele>
        <time>2017-04-16T04:38:43.000Z</time>
      </trkpt>
      <trkpt lat="43.60121" lon="2.94115">
        <ele>790</ele>
        <time>2017-04-16T04:38:44.000Z</time>
      </trkpt>
      <trkpt lat="43.60115" lon="2.94122">
        <ele>789.2</ele>
        <time>2017-04-16T04:38:45.000Z</time>
      </trkpt>
      <trkpt lat="43.60109" lon="2.94127">
        <ele>788.2</ele>
        <time>2017-04-16T04:38:46.000Z</time>
      </trkpt>
      <trkpt lat="43.60101" lon="2.94124">
        <ele>786.4</ele>
        <time>2017-04-16T04:38:48.000Z</time>
      </trkpt>
      <trkpt lat="43.60098" lon="2.94109">
        <ele>784.4</ele>
        <time>2017-04-16T04:38:50.000Z</time>
      </trkpt>
      <trkpt lat="43.60096" lon="2.941">
        <ele>782.6</ele>
        <time>2017-04-16T04:38:52.000Z</time>
      </trkpt>
      <trkpt lat="43.60095" lon="2.941">
        <ele>781.4</ele>
        <time>2017-04-16T04:38:53.000Z</time>
      </trkpt>
      <trkpt lat="43.60093" lon="2.94094">
        <ele>779.8</ele>
        <time>2017-04-16T04:38:55.000Z</time>
      </trkpt>
      <trkpt lat="43.60095" lon="2.94088">
        <ele>778.8</ele>
        <time>2017-04-16T04:38:56.000Z</time>
      </trkpt>
      <trkpt lat="43.60098" lon="2.94076">
        <ele>777.2</ele>
        <time>2017-04-16T04:38:58.000Z</time>
      </trkpt>
      <trkpt lat="43.60096" lon="2.94076">
        <ele>776.2</ele>
        <time>2017-04-16T04:38:59.000Z</time>
      </trkpt>
      <trkpt lat="43.60091" lon="2.94082">
        <ele>775.4</ele>
        <time>2017-04-16T04:39:00.000Z</time>
      </trkpt>
      <trkpt lat="43.60074" lon="2.94097">
        <ele>773</ele>
        <time>2017-04-16T04:39:03.000Z</time>
      </trkpt>
      <trkpt lat="43.6007" lon="2.94102">
        <ele>772.4</ele>
        <time>2017-04-16T04:39:04.000Z</time>
      </trkpt>
      <trkpt lat="43.60067" lon="2.94108">
        <ele>771.6</ele>
        <time>2017-04-16T04:39:05.000Z</time>
      </trkpt>
      <trkpt lat="43.60065" lon="2.94115">
        <ele>770.8</ele>
        <time>2017-04-16T04:39:06.000Z</time>
      </trkpt>
      <trkpt lat="43.60063" lon="2.94122">
        <ele>770</ele>
        <time>2017-04-16T04:39:07.000Z</time>
      </trkpt>
      <trkpt lat="43.60062" lon="2.94129">
        <ele>769.4</ele>
        <time>2017-04-16T04:39:08.000Z</time>
      </trkpt>
      <trkpt lat="43.60061" lon="2.94135">
        <ele>768.6</ele>
        <time>2017-04-16T04:39:09.000Z</time>
      </trkpt>
      <trkpt lat="43.6006" lon="2.94145">
        <ele>767</ele>
        <time>2017-04-16T04:39:11.000Z</time>
      </trkpt>
      <trkpt lat="43.60059" lon="2.94147">
        <ele>766.2</ele>
        <time>2017-04-16T04:39:12.000Z</time>
      </trkpt>
      <trkpt lat="43.60057" lon="2.94148">
        <ele>765.4</ele>
        <time>2017-04-16T04:39:13.000Z</time>
      </trkpt>
      <trkpt lat="43.60047" lon="2.94144">
        <ele>764</ele>
        <time>2017-04-16T04:39:15.000Z</time>
      </trkpt>
      <trkpt lat="43.60037" lon="2.94134">
        <ele>762.6</ele>
        <time>2017-04-16T04:39:17.000Z</time>
      </trkpt>
      <trkpt lat="43.60034" lon="2.94128">
        <ele>761.8</ele>
        <time>2017-04-16T04:39:18.000Z</time>
      </trkpt>
      <trkpt lat="43.6003" lon="2.94122">
        <ele>760.2</ele>
        <time>2017-04-16T04:39:20.000Z</time>
      </trkpt>
      <trkpt lat="43.60028" lon="2.94123">
        <ele>758.6</ele>
        <time>2017-04-16T04:39:22.000Z</time>
      </trkpt>
      <trkpt lat="43.60027" lon="2.94121">
        <ele>757.8</ele>
        <time>2017-04-16T04:39:23.000Z</time>
      </trkpt>
      <trkpt lat="43.60025" lon="2.94117">
        <ele>757</ele>
        <time>2017-04-16T04:39:24.000Z</time>
      </trkpt>
      <trkpt lat="43.6002" lon="2.94097">
        <ele>755</ele>
        <time>2017-04-16T04:39:27.000Z</time>
      </trkpt>
      <trkpt lat="43.60017" lon="2.94089">
        <ele>754.2</ele>
        <time>2017-04-16T04:39:28.000Z</time>
      </trkpt>
      <trkpt lat="43.60015" lon="2.94081">
        <ele>753.6</ele>
        <time>2017-04-16T04:39:29.000Z</time>
      </trkpt>
      <trkpt lat="43.60015" lon="2.94074">
        <ele>753</ele>
        <time>2017-04-16T04:39:30.000Z</time>
      </trkpt>
      <trkpt lat="43.60018" lon="2.94069">
        <ele>752.2</ele>
        <time>2017-04-16T04:39:31.000Z</time>
      </trkpt>
      <trkpt lat="43.60025" lon="2.94059">
        <ele>750.8</ele>
        <time>2017-04-16T04:39:33.000Z</time>
      </trkpt>
      <trkpt lat="43.60032" lon="2.9405">
        <ele>749.6</ele>
        <time>2017-04-16T04:39:35.000Z</time>
      </trkpt>
      <trkpt lat="43.60039" lon="2.94044">
        <ele>748.6</ele>
        <time>2017-04-16T04:39:37.000Z</time>
      </trkpt>
      <trkpt lat="43.60043" lon="2.94041">
        <ele>748</ele>
        <time>2017-04-16T04:39:38.000Z</time>
      </trkpt>
      <trkpt lat="43.6005" lon="2.94032">
        <ele>747</ele>
        <time>2017-04-16T04:39:40.000Z</time>
      </trkpt>
      <trkpt lat="43.60057" lon="2.94022">
        <ele>746.2</ele>
        <time>2017-04-16T04:39:42.000Z</time>
      </trkpt>
      <trkpt lat="43.6006" lon="2.94018">
        <ele>745.6</ele>
        <time>2017-04-16T04:39:43.000Z</time>
      </trkpt>
      <trkpt lat="43.60063" lon="2.94013">
        <ele>745.2</ele>
        <time>2017-04-16T04:39:44.000Z</time>
      </trkpt>
      <trkpt lat="43.60067" lon="2.94009">
        <ele>744.6</ele>
        <time>2017-04-16T04:39:45.000Z</time>
      </trkpt>
      <trkpt lat="43.60071" lon="2.93999">
        <ele>743.6</ele>
        <time>2017-04-16T04:39:47.000Z</time>
      </trkpt>
      <trkpt lat="43.60071" lon="2.93985">
        <ele>742.6</ele>
        <time>2017-04-16T04:39:49.000Z</time>
      </trkpt>
      <trkpt lat="43.60072" lon="2.9398">
        <ele>741.8</ele>
        <time>2017-04-16T04:39:50.000Z</time>
      </trkpt>
      <trkpt lat="43.60075" lon="2.93976">
        <ele>741.2</ele>
        <time>2017-04-16T04:39:51.000Z</time>
      </trkpt>
      <trkpt lat="43.60083" lon="2.93973">
        <ele>739.6</ele>
        <time>2017-04-16T04:39:53.000Z</time>
      </trkpt>
      <trkpt lat="43.60083" lon="2.93972">
        <ele>738.8</ele>
        <time>2017-04-16T04:39:54.000Z</time>
      </trkpt>
      <trkpt lat="43.60076" lon="2.93973">
        <ele>737.4</ele>
        <time>2017-04-16T04:39:56.000Z</time>
      </trkpt>
      <trkpt lat="43.60069" lon="2.93975">
        <ele>736.4</ele>
        <time>2017-04-16T04:39:57.000Z</time>
      </trkpt>
      <trkpt lat="43.60054" lon="2.93975">
        <ele>734.6</ele>
        <time>2017-04-16T04:39:59.000Z</time>
      </trkpt>
      <trkpt lat="43.60048" lon="2.93976">
        <ele>733.8</ele>
        <time>2017-04-16T04:40:00.000Z</time>
      </trkpt>
      <trkpt lat="43.60043" lon="2.93979">
        <ele>732.8</ele>
        <time>2017-04-16T04:40:01.000Z</time>
      </trkpt>
      <trkpt lat="43.6004" lon="2.93985">
        <ele>731.8</ele>
        <time>2017-04-16T04:40:02.000Z</time>
      </trkpt>
      <trkpt lat="43.60024" lon="2.93994">
        <ele>728.6</ele>
        <time>2017-04-16T04:40:05.000Z</time>
      </trkpt>
      <trkpt lat="43.60011" lon="2.93991">
        <ele>726.2</ele>
        <time>2017-04-16T04:40:07.000Z</time>
      </trkpt>
      <trkpt lat="43.60005" lon="2.93991">
        <ele>725</ele>
        <time>2017-04-16T04:40:08.000Z</time>
      </trkpt>
      <trkpt lat="43.6" lon="2.93991">
        <ele>723.8</ele>
        <time>2017-04-16T04:40:09.000Z</time>
      </trkpt>
      <trkpt lat="43.59988" lon="2.93994">
        <ele>721.4</ele>
        <time>2017-04-16T04:40:11.000Z</time>
      </trkpt>
      <trkpt lat="43.59983" lon="2.93996">
        <ele>720.2</ele>
        <time>2017-04-16T04:40:12.000Z</time>
      </trkpt>
      <trkpt lat="43.59977" lon="2.93999">
        <ele>719</ele>
        <time>2017-04-16T04:40:13.000Z</time>
      </trkpt>
      <trkpt lat="43.59969" lon="2.94006">
        <ele>716.4</ele>
        <time>2017-04-16T04:40:15.000Z</time>
      </trkpt>
      <trkpt lat="43.59965" lon="2.94009">
        <ele>715.4</ele>
        <time>2017-04-16T04:40:16.000Z</time>
      </trkpt>
      <trkpt lat="43.59961" lon="2.94011">
        <ele>714</ele>
        <time>2017-04-16T04:40:17.000Z</time>
      </trkpt>
      <trkpt lat="43.59956" lon="2.94012">
        <ele>712.6</ele>
        <time>2017-04-16T04:40:18.000Z</time>
      </trkpt>
      <trkpt lat="43.59945" lon="2.94017">
        <ele>710.2</ele>
        <time>2017-04-16T04:40:20.000Z</time>
      </trkpt>
      <trkpt lat="43.59936" lon="2.94028">
        <ele>707.8</ele>
        <time>2017-04-16T04:40:22.000Z</time>
      </trkpt>
      <trkpt lat="43.59926" lon="2.94038">
        <ele>705.8</ele>
        <time>2017-04-16T04:40:24.000Z</time>
      </trkpt>
      <trkpt lat="43.59921" lon="2.94043">
        <ele>704.6</ele>
        <time>2017-04-16T04:40:25.000Z</time>
      </trkpt>
      <trkpt lat="43.59915" lon="2.94045">
        <ele>703.4</ele>
        <time>2017-04-16T04:40:26.000Z</time>
      </trkpt>
      <trkpt lat="43.59907" lon="2.94053">
        <ele>701.6</ele>
        <time>2017-04-16T04:40:28.000Z</time>
      </trkpt>
      <trkpt lat="43.59908" lon="2.94073">
        <ele>699.4</ele>
        <time>2017-04-16T04:40:31.000Z</time>
      </trkpt>
      <trkpt lat="43.59912" lon="2.9409">
        <ele>698</ele>
        <time>2017-04-16T04:40:33.000Z</time>
      </trkpt>
      <trkpt lat="43.59913" lon="2.94099">
        <ele>697.4</ele>
        <time>2017-04-16T04:40:34.000Z</time>
      </trkpt>
      <trkpt lat="43.59912" lon="2.94117">
        <ele>696.4</ele>
        <time>2017-04-16T04:40:36.000Z</time>
      </trkpt>
      <trkpt lat="43.59907" lon="2.94152">
        <ele>694.8</ele>
        <time>2017-04-16T04:40:39.000Z</time>
      </trkpt>
      <trkpt lat="43.59904" lon="2.94174">
        <ele>693.6</ele>
        <time>2017-04-16T04:40:41.000Z</time>
      </trkpt>
      <trkpt lat="43.59901" lon="2.94183">
        <ele>692.8</ele>
        <time>2017-04-16T04:40:42.000Z</time>
      </trkpt>
      <trkpt lat="43.59898" lon="2.94193">
        <ele>692</ele>
        <time>2017-04-16T04:40:43.000Z</time>
      </trkpt>
      <trkpt lat="43.59887" lon="2.94209">
        <ele>690.4</ele>
        <time>2017-04-16T04:40:45.000Z</time>
      </trkpt>
      <trkpt lat="43.59874" lon="2.94221">
        <ele>689</ele>
        <time>2017-04-16T04:40:47.000Z</time>
      </trkpt>
      <trkpt lat="43.59869" lon="2.94228">
        <ele>688</ele>
        <time>2017-04-16T04:40:48.000Z</time>
      </trkpt>
      <trkpt lat="43.59864" lon="2.94246">
        <ele>686.4</ele>
        <time>2017-04-16T04:40:50.000Z</time>
      </trkpt>
      <trkpt lat="43.59864" lon="2.94256">
        <ele>685.6</ele>
        <time>2017-04-16T04:40:51.000Z</time>
      </trkpt>
      <trkpt lat="43.59862" lon="2.94275">
        <ele>683.6</ele>
        <time>2017-04-16T04:40:53.000Z</time>
      </trkpt>
      <trkpt lat="43.59853" lon="2.94297">
        <ele>680.4</ele>
        <time>2017-04-16T04:40:56.000Z</time>
      </trkpt>
      <trkpt lat="43.59847" lon="2.94294">
        <ele>678.2</ele>
        <time>2017-04-16T04:40:58.000Z</time>
      </trkpt>
      <trkpt lat="43.59843" lon="2.94276">
        <ele>676</ele>
        <time>2017-04-16T04:41:00.000Z</time>
      </trkpt>
      <trkpt lat="43.59841" lon="2.94266">
        <ele>675</ele>
        <time>2017-04-16T04:41:01.000Z</time>
      </trkpt>
      <trkpt lat="43.59838" lon="2.94257">
        <ele>673.8</ele>
        <time>2017-04-16T04:41:02.000Z</time>
      </trkpt>
      <trkpt lat="43.59836" lon="2.94248">
        <ele>672.8</ele>
        <time>2017-04-16T04:41:03.000Z</time>
      </trkpt>
      <trkpt lat="43.59829" lon="2.94241">
        <ele>670.4</ele>
        <time>2017-04-16T04:41:05.000Z</time>
      </trkpt>
      <trkpt lat="43.59828" lon="2.94251">
        <ele>669.4</ele>
        <time>2017-04-16T04:41:06.000Z</time>
      </trkpt>
      <trkpt lat="43.59825" lon="2.94261">
        <ele>667.2</ele>
        <time>2017-04-16T04:41:08.000Z</time>
      </trkpt>
      <trkpt lat="43.59822" lon="2.9427">
        <ele>666.2</ele>
        <time>2017-04-16T04:41:09.000Z</time>
      </trkpt>
      <trkpt lat="43.59819" lon="2.94278">
        <ele>665.2</ele>
        <time>2017-04-16T04:41:10.000Z</time>
      </trkpt>
      <trkpt lat="43.59812" lon="2.94294">
        <ele>662.8</ele>
        <time>2017-04-16T04:41:12.000Z</time>
      </trkpt>
      <trkpt lat="43.59808" lon="2.94311">
        <ele>659.8</ele>
        <time>2017-04-16T04:41:15.000Z</time>
      </trkpt>
      <trkpt lat="43.59811" lon="2.94321">
        <ele>658.2</ele>
        <time>2017-04-16T04:41:17.000Z</time>
      </trkpt>
      <trkpt lat="43.59812" lon="2.94327">
        <ele>657.2</ele>
        <time>2017-04-16T04:41:18.000Z</time>
      </trkpt>
      <trkpt lat="43.59812" lon="2.94335">
        <ele>655.6</ele>
        <time>2017-04-16T04:41:20.000Z</time>
      </trkpt>
      <trkpt lat="43.59811" lon="2.94336">
        <ele>654.6</ele>
        <time>2017-04-16T04:41:21.000Z</time>
      </trkpt>
      <trkpt lat="43.59809" lon="2.94334">
        <ele>653.8</ele>
        <time>2017-04-16T04:41:22.000Z</time>
      </trkpt>
      <trkpt lat="43.59805" lon="2.94328">
        <ele>652.4</ele>
        <time>2017-04-16T04:41:24.000Z</time>
      </trkpt>
      <trkpt lat="43.59804" lon="2.94327">
        <ele>651.8</ele>
        <time>2017-04-16T04:41:25.000Z</time>
      </trkpt>
      <trkpt lat="43.59803" lon="2.9433">
        <ele>651</ele>
        <time>2017-04-16T04:41:26.000Z</time>
      </trkpt>
      <trkpt lat="43.59802" lon="2.94342">
        <ele>649.6</ele>
        <time>2017-04-16T04:41:28.000Z</time>
      </trkpt>
      <trkpt lat="43.59802" lon="2.94348">
        <ele>649</ele>
        <time>2017-04-16T04:41:29.000Z</time>
      </trkpt>
      <trkpt lat="43.59806" lon="2.94356">
        <ele>647</ele>
        <time>2017-04-16T04:41:32.000Z</time>
      </trkpt>
      <trkpt lat="43.59806" lon="2.94356">
        <ele>646.4</ele>
        <time>2017-04-16T04:41:33.000Z</time>
      </trkpt>
      <trkpt lat="43.598" lon="2.94358">
        <ele>645</ele>
        <time>2017-04-16T04:41:35.000Z</time>
      </trkpt>
      <trkpt lat="43.59794" lon="2.94358">
        <ele>644.4</ele>
        <time>2017-04-16T04:41:36.000Z</time>
      </trkpt>
      <trkpt lat="43.59781" lon="2.94357">
        <ele>643.2</ele>
        <time>2017-04-16T04:41:38.000Z</time>
      </trkpt>
      <trkpt lat="43.59775" lon="2.94357">
        <ele>642.6</ele>
        <time>2017-04-16T04:41:39.000Z</time>
      </trkpt>
      <trkpt lat="43.59771" lon="2.94355">
        <ele>641.8</ele>
        <time>2017-04-16T04:41:40.000Z</time>
      </trkpt>
      <trkpt lat="43.59767" lon="2.94339">
        <ele>640.2</ele>
        <time>2017-04-16T04:41:42.000Z</time>
      </trkpt>
      <trkpt lat="43.59767" lon="2.94319">
        <ele>638.6</ele>
        <time>2017-04-16T04:41:44.000Z</time>
      </trkpt>
      <trkpt lat="43.59764" lon="2.94315">
        <ele>637</ele>
        <time>2017-04-16T04:41:46.000Z</time>
      </trkpt>
      <trkpt lat="43.5976" lon="2.94319">
        <ele>636</ele>
        <time>2017-04-16T04:41:47.000Z</time>
      </trkpt>
      <trkpt lat="43.59756" lon="2.94326">
        <ele>635.2</ele>
        <time>2017-04-16T04:41:48.000Z</time>
      </trkpt>
      <trkpt lat="43.59751" lon="2.94334">
        <ele>634.2</ele>
        <time>2017-04-16T04:41:49.000Z</time>
      </trkpt>
      <trkpt lat="43.59745" lon="2.94342">
        <ele>633.2</ele>
        <time>2017-04-16T04:41:50.000Z</time>
      </trkpt>
      <trkpt lat="43.59739" lon="2.94348">
        <ele>632.2</ele>
        <time>2017-04-16T04:41:51.000Z</time>
      </trkpt>
      <trkpt lat="43.59728" lon="2.94356">
        <ele>630</ele>
        <time>2017-04-16T04:41:53.000Z</time>
      </trkpt>
      <trkpt lat="43.59722" lon="2.94359">
        <ele>629</ele>
        <time>2017-04-16T04:41:54.000Z</time>
      </trkpt>
      <trkpt lat="43.59716" lon="2.9436">
        <ele>627.8</ele>
        <time>2017-04-16T04:41:55.000Z</time>
      </trkpt>
      <trkpt lat="43.59703" lon="2.9436">
        <ele>625.8</ele>
        <time>2017-04-16T04:41:57.000Z</time>
      </trkpt>
      <trkpt lat="43.59695" lon="2.94358">
        <ele>624.8</ele>
        <time>2017-04-16T04:41:58.000Z</time>
      </trkpt>
      <trkpt lat="43.59688" lon="2.94356">
        <ele>623.8</ele>
        <time>2017-04-16T04:41:59.000Z</time>
      </trkpt>
      <trkpt lat="43.59683" lon="2.94355">
        <ele>622.8</ele>
        <time>2017-04-16T04:42:00.000Z</time>
      </trkpt>
      <trkpt lat="43.59681" lon="2.94359">
        <ele>620.8</ele>
        <time>2017-04-16T04:42:02.000Z</time>
      </trkpt>
      <trkpt lat="43.59683" lon="2.94364">
        <ele>619.8</ele>
        <time>2017-04-16T04:42:03.000Z</time>
      </trkpt>
      <trkpt lat="43.59688" lon="2.94369">
        <ele>619</ele>
        <time>2017-04-16T04:42:04.000Z</time>
      </trkpt>
      <trkpt lat="43.59697" lon="2.9438">
        <ele>617.4</ele>
        <time>2017-04-16T04:42:06.000Z</time>
      </trkpt>
      <trkpt lat="43.59696" lon="2.94385">
        <ele>615</ele>
        <time>2017-04-16T04:42:09.000Z</time>
      </trkpt>
      <trkpt lat="43.59693" lon="2.94385">
        <ele>614.2</ele>
        <time>2017-04-16T04:42:10.000Z</time>
      </trkpt>
      <trkpt lat="43.59688" lon="2.94385">
        <ele>612.4</ele>
        <time>2017-04-16T04:42:12.000Z</time>
      </trkpt>
      <trkpt lat="43.59686" lon="2.9439">
        <ele>610.8</ele>
        <time>2017-04-16T04:42:14.000Z</time>
      </trkpt>
      <trkpt lat="43.59683" lon="2.94392">
        <ele>610</ele>
        <time>2017-04-16T04:42:15.000Z</time>
      </trkpt>
      <trkpt lat="43.59675" lon="2.9439">
        <ele>608.4</ele>
        <time>2017-04-16T04:42:17.000Z</time>
      </trkpt>
      <trkpt lat="43.5967" lon="2.94386">
        <ele>607.8</ele>
        <time>2017-04-16T04:42:18.000Z</time>
      </trkpt>
      <trkpt lat="43.5966" lon="2.94377">
        <ele>606.4</ele>
        <time>2017-04-16T04:42:20.000Z</time>
      </trkpt>
      <trkpt lat="43.59655" lon="2.94372">
        <ele>605.8</ele>
        <time>2017-04-16T04:42:21.000Z</time>
      </trkpt>
      <trkpt lat="43.59651" lon="2.94365">
        <ele>605.2</ele>
        <time>2017-04-16T04:42:22.000Z</time>
      </trkpt>
      <trkpt lat="43.59646" lon="2.9436">
        <ele>604.4</ele>
        <time>2017-04-16T04:42:23.000Z</time>
      </trkpt>
      <trkpt lat="43.59637" lon="2.94359">
        <ele>602.6</ele>
        <time>2017-04-16T04:42:25.000Z</time>
      </trkpt>
      <trkpt lat="43.59626" lon="2.94365">
        <ele>601</ele>
        <time>2017-04-16T04:42:27.000Z</time>
      </trkpt>
      <trkpt lat="43.5962" lon="2.94368">
        <ele>600</ele>
        <time>2017-04-16T04:42:28.000Z</time>
      </trkpt>
      <trkpt lat="43.59611" lon="2.94373">
        <ele>598.6</ele>
        <time>2017-04-16T04:42:30.000Z</time>
      </trkpt>
      <trkpt lat="43.59609" lon="2.94379">
        <ele>597</ele>
        <time>2017-04-16T04:42:32.000Z</time>
      </trkpt>
      <trkpt lat="43.5961" lon="2.94382">
        <ele>595.6</ele>
        <time>2017-04-16T04:42:34.000Z</time>
      </trkpt>
      <trkpt lat="43.59612" lon="2.9438">
        <ele>594.2</ele>
        <time>2017-04-16T04:42:36.000Z</time>
      </trkpt>
      <trkpt lat="43.59614" lon="2.94378">
        <ele>592.8</ele>
        <time>2017-04-16T04:42:38.000Z</time>
      </trkpt>
      <trkpt lat="43.59613" lon="2.94379">
        <ele>589.4</ele>
        <time>2017-04-16T04:42:47.000Z</time>
      </trkpt>
      <trkpt lat="43.59613" lon="2.94377">
        <ele>589</ele>
        <time>2017-04-16T04:42:49.000Z</time>
      </trkpt>
      <trkpt lat="43.59611" lon="2.94376">
        <ele>588.6</ele>
        <time>2017-04-16T04:42:51.000Z</time>
      </trkpt>
      <trkpt lat="43.5961" lon="2.94376">
        <ele>588.4</ele>
        <time>2017-04-16T04:42:53.000Z</time>
      </trkpt>
      <trkpt lat="43.59609" lon="2.94379">
        <ele>588</ele>
        <time>2017-04-16T04:42:58.000Z</time>
      </trkpt>
      <trkpt lat="43.59608" lon="2.94378">
        <ele>587.8</ele>
        <time>2017-04-16T04:43:02.000Z</time>
      </trkpt>
      <trkpt lat="43.59606" lon="2.94376">
        <ele>587.6</ele>
        <time>2017-04-16T04:43:03.000Z</time>
      </trkpt>
      <trkpt lat="43.59597" lon="2.94368">
        <ele>587.6</ele>
        <time>2017-04-16T04:43:06.000Z</time>
      </trkpt>
      <trkpt lat="43.59592" lon="2.94365">
        <ele>587.4</ele>
        <time>2017-04-16T04:43:07.000Z</time>
      </trkpt>
      <trkpt lat="43.59581" lon="2.9436">
        <ele>587</ele>
        <time>2017-04-16T04:43:09.000Z</time>
      </trkpt>
      <trkpt lat="43.59572" lon="2.94356">
        <ele>586.6</ele>
        <time>2017-04-16T04:43:11.000Z</time>
      </trkpt>
      <trkpt lat="43.59567" lon="2.94355">
        <ele>586.4</ele>
        <time>2017-04-16T04:43:12.000Z</time>
      </trkpt>
      <trkpt lat="43.59552" lon="2.94347">
        <ele>586.2</ele>
        <time>2017-04-16T04:43:15.000Z</time>
      </trkpt>
      <trkpt lat="43.59545" lon="2.94344">
        <ele>586</ele>
        <time>2017-04-16T04:43:16.000Z</time>
      </trkpt>
      <trkpt lat="43.59531" lon="2.94337">
        <ele>585.6</ele>
        <time>2017-04-16T04:43:18.000Z</time>
      </trkpt>
      <trkpt lat="43.59524" lon="2.94332">
        <ele>585.4</ele>
        <time>2017-04-16T04:43:19.000Z</time>
      </trkpt>
      <trkpt lat="43.59517" lon="2.94326">
        <ele>585.2</ele>
        <time>2017-04-16T04:43:20.000Z</time>
      </trkpt>
      <trkpt lat="43.5951" lon="2.94321">
        <ele>584.6</ele>
        <time>2017-04-16T04:43:21.000Z</time>
      </trkpt>
      <trkpt lat="43.59496" lon="2.94313">
        <ele>584</ele>
        <time>2017-04-16T04:43:23.000Z</time>
      </trkpt>
      <trkpt lat="43.59489" lon="2.94312">
        <ele>583.6</ele>
        <time>2017-04-16T04:43:24.000Z</time>
      </trkpt>
      <trkpt lat="43.59482" lon="2.9431">
        <ele>583.4</ele>
        <time>2017-04-16T04:43:25.000Z</time>
      </trkpt>
      <trkpt lat="43.59475" lon="2.94307">
        <ele>583</ele>
        <time>2017-04-16T04:43:26.000Z</time>
      </trkpt>
      <trkpt lat="43.59469" lon="2.94304">
        <ele>582.6</ele>
        <time>2017-04-16T04:43:27.000Z</time>
      </trkpt>
      <trkpt lat="43.59465" lon="2.943">
        <ele>582.2</ele>
        <time>2017-04-16T04:43:28.000Z</time>
      </trkpt>
      <trkpt lat="43.5946" lon="2.94296">
        <ele>581.8</ele>
        <time>2017-04-16T04:43:29.000Z</time>
      </trkpt>
      <trkpt lat="43.59451" lon="2.94289">
        <ele>581</ele>
        <time>2017-04-16T04:43:31.000Z</time>
      </trkpt>
      <trkpt lat="43.59446" lon="2.94287">
        <ele>580.6</ele>
        <time>2017-04-16T04:43:32.000Z</time>
      </trkpt>
      <trkpt lat="43.59442" lon="2.94285">
        <ele>580.2</ele>
        <time>2017-04-16T04:43:33.000Z</time>
      </trkpt>
      <trkpt lat="43.59433" lon="2.94278">
        <ele>579.4</ele>
        <time>2017-04-16T04:43:35.000Z</time>
      </trkpt>
      <trkpt lat="43.59426" lon="2.94273">
        <ele>578.4</ele>
        <time>2017-04-16T04:43:37.000Z</time>
      </trkpt>
      <trkpt lat="43.59423" lon="2.94271">
        <ele>578</ele>
        <time>2017-04-16T04:43:38.000Z</time>
      </trkpt>
      <trkpt lat="43.5942" lon="2.94262">
        <ele>577</ele>
        <time>2017-04-16T04:43:41.000Z</time>
      </trkpt>
      <trkpt lat="43.59417" lon="2.9426">
        <ele>576.8</ele>
        <time>2017-04-16T04:43:42.000Z</time>
      </trkpt>
      <trkpt lat="43.59409" lon="2.94256">
        <ele>576.4</ele>
        <time>2017-04-16T04:43:44.000Z</time>
      </trkpt>
      <trkpt lat="43.59397" lon="2.94256">
        <ele>575.6</ele>
        <time>2017-04-16T04:43:48.000Z</time>
      </trkpt>
      <trkpt lat="43.59388" lon="2.94253">
        <ele>575.6</ele>
        <time>2017-04-16T04:43:50.000Z</time>
      </trkpt>
      <trkpt lat="43.59379" lon="2.94251">
        <ele>575.8</ele>
        <time>2017-04-16T04:43:52.000Z</time>
      </trkpt>
      <trkpt lat="43.5937" lon="2.9425">
        <ele>576</ele>
        <time>2017-04-16T04:43:54.000Z</time>
      </trkpt>
      <trkpt lat="43.5936" lon="2.94248">
        <ele>576</ele>
        <time>2017-04-16T04:43:56.000Z</time>
      </trkpt>
      <trkpt lat="43.59352" lon="2.94244">
        <ele>576</ele>
        <time>2017-04-16T04:43:58.000Z</time>
      </trkpt>
      <trkpt lat="43.59345" lon="2.94244">
        <ele>576.2</ele>
        <time>2017-04-16T04:44:00.000Z</time>
      </trkpt>
      <trkpt lat="43.59341" lon="2.94244">
        <ele>576.4</ele>
        <time>2017-04-16T04:44:02.000Z</time>
      </trkpt>
      <trkpt lat="43.59337" lon="2.94242">
        <ele>576.8</ele>
        <time>2017-04-16T04:44:04.000Z</time>
      </trkpt>
      <trkpt lat="43.59332" lon="2.94237">
        <ele>577.2</ele>
        <time>2017-04-16T04:44:06.000Z</time>
      </trkpt>
      <trkpt lat="43.59328" lon="2.94231">
        <ele>577.6</ele>
        <time>2017-04-16T04:44:08.000Z</time>
      </trkpt>
      <trkpt lat="43.59324" lon="2.94228">
        <ele>578.2</ele>
        <time>2017-04-16T04:44:10.000Z</time>
      </trkpt>
      <trkpt lat="43.59319" lon="2.94224">
        <ele>578.4</ele>
        <time>2017-04-16T04:44:11.000Z</time>
      </trkpt>
      <trkpt lat="43.59313" lon="2.94221">
        <ele>578.6</ele>
        <time>2017-04-16T04:44:12.000Z</time>
      </trkpt>
      <trkpt lat="43.59304" lon="2.94215">
        <ele>579</ele>
        <time>2017-04-16T04:44:14.000Z</time>
      </trkpt>
      <trkpt lat="43.59298" lon="2.94211">
        <ele>579.4</ele>
        <time>2017-04-16T04:44:16.000Z</time>
      </trkpt>
      <trkpt lat="43.59293" lon="2.94207">
        <ele>579.6</ele>
        <time>2017-04-16T04:44:17.000Z</time>
      </trkpt>
      <trkpt lat="43.59274" lon="2.94201">
        <ele>580</ele>
        <time>2017-04-16T04:44:21.000Z</time>
      </trkpt>
      <trkpt lat="43.59265" lon="2.94205">
        <ele>580.2</ele>
        <time>2017-04-16T04:44:24.000Z</time>
      </trkpt>
      <trkpt lat="43.59244" lon="2.94215">
        <ele>580.6</ele>
        <time>2017-04-16T04:44:29.000Z</time>
      </trkpt>
      <trkpt lat="43.59238" lon="2.94218">
        <ele>581</ele>
        <time>2017-04-16T04:44:31.000Z</time>
      </trkpt>
      <trkpt lat="43.59237" lon="2.94219">
        <ele>581.2</ele>
        <time>2017-04-16T04:44:32.000Z</time>
      </trkpt>
      <trkpt lat="43.5923" lon="2.94218">
        <ele>581.6</ele>
        <time>2017-04-16T04:44:35.000Z</time>
      </trkpt>
      <trkpt lat="43.59223" lon="2.9422">
        <ele>582.2</ele>
        <time>2017-04-16T04:44:37.000Z</time>
      </trkpt>
      <trkpt lat="43.59215" lon="2.94221">
        <ele>582.6</ele>
        <time>2017-04-16T04:44:39.000Z</time>
      </trkpt>
      <trkpt lat="43.59212" lon="2.94222">
        <ele>583</ele>
        <time>2017-04-16T04:44:40.000Z</time>
      </trkpt>
      <trkpt lat="43.59204" lon="2.94221">
        <ele>583.4</ele>
        <time>2017-04-16T04:44:43.000Z</time>
      </trkpt>
      <trkpt lat="43.59199" lon="2.94219">
        <ele>583.8</ele>
        <time>2017-04-16T04:44:45.000Z</time>
      </trkpt>
      <trkpt lat="43.59192" lon="2.94217">
        <ele>584.2</ele>
        <time>2017-04-16T04:44:47.000Z</time>
      </trkpt>
      <trkpt lat="43.59186" lon="2.94216">
        <ele>584.8</ele>
        <time>2017-04-16T04:44:49.000Z</time>
      </trkpt>
      <trkpt lat="43.59182" lon="2.94218">
        <ele>585.2</ele>
        <time>2017-04-16T04:44:51.000Z</time>
      </trkpt>
      <trkpt lat="43.59177" lon="2.9422">
        <ele>585.6</ele>
        <time>2017-04-16T04:44:53.000Z</time>
      </trkpt>
      <trkpt lat="43.59174" lon="2.94222">
        <ele>585.8</ele>
        <time>2017-04-16T04:44:55.000Z</time>
      </trkpt>
      <trkpt lat="43.59172" lon="2.94223">
        <ele>586.2</ele>
        <time>2017-04-16T04:44:57.000Z</time>
      </trkpt>
      <trkpt lat="43.59169" lon="2.94223">
        <ele>586.6</ele>
        <time>2017-04-16T04:44:59.000Z</time>
      </trkpt>
      <trkpt lat="43.59165" lon="2.94225">
        <ele>587</ele>
        <time>2017-04-16T04:45:01.000Z</time>
      </trkpt>
      <trkpt lat="43.59157" lon="2.94229">
        <ele>587.6</ele>
        <time>2017-04-16T04:45:03.000Z</time>
      </trkpt>
      <trkpt lat="43.59153" lon="2.94231">
        <ele>587.8</ele>
        <time>2017-04-16T04:45:04.000Z</time>
      </trkpt>
      <trkpt lat="43.59149" lon="2.94232">
        <ele>587.8</ele>
        <time>2017-04-16T04:45:05.000Z</time>
      </trkpt>
      <trkpt lat="43.59142" lon="2.94235">
        <ele>588.2</ele>
        <time>2017-04-16T04:45:07.000Z</time>
      </trkpt>
      <trkpt lat="43.59133" lon="2.94245">
        <ele>588.6</ele>
        <time>2017-04-16T04:45:11.000Z</time>
      </trkpt>
      <trkpt lat="43.59133" lon="2.94246">
        <ele>588.6</ele>
        <time>2017-04-16T04:45:12.000Z</time>
      </trkpt>
      <trkpt lat="43.59135" lon="2.94249">
        <ele>589</ele>
        <time>2017-04-16T04:45:14.000Z</time>
      </trkpt>
      <trkpt lat="43.59133" lon="2.94258">
        <ele>589.6</ele>
        <time>2017-04-16T04:45:16.000Z</time>
      </trkpt>
      <trkpt lat="43.59131" lon="2.94261">
        <ele>589.8</ele>
        <time>2017-04-16T04:45:17.000Z</time>
      </trkpt>
      <trkpt lat="43.59129" lon="2.94265">
        <ele>590</ele>
        <time>2017-04-16T04:45:18.000Z</time>
      </trkpt>
      <trkpt lat="43.59124" lon="2.94273">
        <ele>590.2</ele>
        <time>2017-04-16T04:45:20.000Z</time>
      </trkpt>
      <trkpt lat="43.5912" lon="2.94279">
        <ele>590.6</ele>
        <time>2017-04-16T04:45:22.000Z</time>
      </trkpt>
      <trkpt lat="43.59113" lon="2.94296">
        <ele>591.2</ele>
        <time>2017-04-16T04:45:27.000Z</time>
      </trkpt>
      <trkpt lat="43.5911" lon="2.94302">
        <ele>591.6</ele>
        <time>2017-04-16T04:45:29.000Z</time>
      </trkpt>
      <trkpt lat="43.59107" lon="2.94309">
        <ele>592</ele>
        <time>2017-04-16T04:45:31.000Z</time>
      </trkpt>
      <trkpt lat="43.59102" lon="2.94318">
        <ele>592.4</ele>
        <time>2017-04-16T04:45:33.000Z</time>
      </trkpt>
      <trkpt lat="43.59094" lon="2.94325">
        <ele>592.6</ele>
        <time>2017-04-16T04:45:35.000Z</time>
      </trkpt>
      <trkpt lat="43.59086" lon="2.94335">
        <ele>592.8</ele>
        <time>2017-04-16T04:45:38.000Z</time>
      </trkpt>
      <trkpt lat="43.59074" lon="2.94333">
        <ele>593.2</ele>
        <time>2017-04-16T04:45:42.000Z</time>
      </trkpt>
      <trkpt lat="43.5907" lon="2.94333">
        <ele>593.2</ele>
        <time>2017-04-16T04:45:43.000Z</time>
      </trkpt>
      <trkpt lat="43.59059" lon="2.94334">
        <ele>593.6</ele>
        <time>2017-04-16T04:45:46.000Z</time>
      </trkpt>
      <trkpt lat="43.5905" lon="2.94336">
        <ele>594</ele>
        <time>2017-04-16T04:45:49.000Z</time>
      </trkpt>
      <trkpt lat="43.59043" lon="2.94338">
        <ele>594.2</ele>
        <time>2017-04-16T04:45:50.000Z</time>
      </trkpt>
      <trkpt lat="43.59038" lon="2.94339">
        <ele>594.4</ele>
        <time>2017-04-16T04:45:51.000Z</time>
      </trkpt>
      <trkpt lat="43.59018" lon="2.94349">
        <ele>594.8</ele>
        <time>2017-04-16T04:45:54.000Z</time>
      </trkpt>
      <trkpt lat="43.59002" lon="2.94354">
        <ele>595</ele>
        <time>2017-04-16T04:45:58.000Z</time>
      </trkpt>
      <trkpt lat="43.58994" lon="2.94354">
        <ele>595.2</ele>
        <time>2017-04-16T04:46:00.000Z</time>
      </trkpt>
      <trkpt lat="43.58984" lon="2.94352">
        <ele>595.6</ele>
        <time>2017-04-16T04:46:03.000Z</time>
      </trkpt>
      <trkpt lat="43.5898" lon="2.94352">
        <ele>595.8</ele>
        <time>2017-04-16T04:46:04.000Z</time>
      </trkpt>
      <trkpt lat="43.58976" lon="2.94352">
        <ele>596</ele>
        <time>2017-04-16T04:46:05.000Z</time>
      </trkpt>
      <trkpt lat="43.58969" lon="2.94354">
        <ele>596.4</ele>
        <time>2017-04-16T04:46:07.000Z</time>
      </trkpt>
      <trkpt lat="43.58964" lon="2.94354">
        <ele>596.6</ele>
        <time>2017-04-16T04:46:09.000Z</time>
      </trkpt>
      <trkpt lat="43.58958" lon="2.94351">
        <ele>596.8</ele>
        <time>2017-04-16T04:46:11.000Z</time>
      </trkpt>
      <trkpt lat="43.58954" lon="2.9435">
        <ele>597</ele>
        <time>2017-04-16T04:46:12.000Z</time>
      </trkpt>
      <trkpt lat="43.58928" lon="2.94354">
        <ele>597.2</ele>
        <time>2017-04-16T04:46:16.000Z</time>
      </trkpt>
      <trkpt lat="43.58911" lon="2.94361">
        <ele>597.4</ele>
        <time>2017-04-16T04:46:19.000Z</time>
      </trkpt>
      <trkpt lat="43.58899" lon="2.94363">
        <ele>597.4</ele>
        <time>2017-04-16T04:46:21.000Z</time>
      </trkpt>
      <trkpt lat="43.58875" lon="2.94362">
        <ele>597.6</ele>
        <time>2017-04-16T04:46:25.000Z</time>
      </trkpt>
      <trkpt lat="43.58854" lon="2.94368">
        <ele>597.6</ele>
        <time>2017-04-16T04:46:28.000Z</time>
      </trkpt>
      <trkpt lat="43.58822" lon="2.94375">
        <ele>597.8</ele>
        <time>2017-04-16T04:46:33.000Z</time>
      </trkpt>
      <trkpt lat="43.58789" lon="2.94392">
        <ele>597.6</ele>
        <time>2017-04-16T04:46:37.000Z</time>
      </trkpt>
      <trkpt lat="43.58781" lon="2.94398">
        <ele>597.2</ele>
        <time>2017-04-16T04:46:38.000Z</time>
      </trkpt>
      <trkpt lat="43.58767" lon="2.94406">
        <ele>596.8</ele>
        <time>2017-04-16T04:46:41.000Z</time>
      </trkpt>
      <trkpt lat="43.58762" lon="2.94412">
        <ele>596.4</ele>
        <time>2017-04-16T04:46:43.000Z</time>
      </trkpt>
      <trkpt lat="43.58759" lon="2.94418">
        <ele>596.2</ele>
        <time>2017-04-16T04:46:45.000Z</time>
      </trkpt>
      <trkpt lat="43.58757" lon="2.94423">
        <ele>596</ele>
        <time>2017-04-16T04:46:47.000Z</time>
      </trkpt>
      <trkpt lat="43.58738" lon="2.94431">
        <ele>595.8</ele>
        <time>2017-04-16T04:46:52.000Z</time>
      </trkpt>
      <trkpt lat="43.58716" lon="2.94442">
        <ele>595.6</ele>
        <time>2017-04-16T04:46:56.000Z</time>
      </trkpt>
      <trkpt lat="43.5871" lon="2.94446">
        <ele>595.4</ele>
        <time>2017-04-16T04:46:59.000Z</time>
      </trkpt>
      <trkpt lat="43.58707" lon="2.94447">
        <ele>595.6</ele>
        <time>2017-04-16T04:47:01.000Z</time>
      </trkpt>
      <trkpt lat="43.58702" lon="2.94452">
        <ele>596</ele>
        <time>2017-04-16T04:47:03.000Z</time>
      </trkpt>
      <trkpt lat="43.58698" lon="2.9446">
        <ele>596.2</ele>
        <time>2017-04-16T04:47:05.000Z</time>
      </trkpt>
      <trkpt lat="43.58697" lon="2.94464">
        <ele>596.4</ele>
        <time>2017-04-16T04:47:06.000Z</time>
      </trkpt>
      <trkpt lat="43.58694" lon="2.9447">
        <ele>596.6</ele>
        <time>2017-04-16T04:47:09.000Z</time>
      </trkpt>
      <trkpt lat="43.58692" lon="2.9447">
        <ele>597</ele>
        <time>2017-04-16T04:47:10.000Z</time>
      </trkpt>
      <trkpt lat="43.58689" lon="2.94472">
        <ele>597.4</ele>
        <time>2017-04-16T04:47:12.000Z</time>
      </trkpt>
      <trkpt lat="43.58685" lon="2.94475">
        <ele>597.8</ele>
        <time>2017-04-16T04:47:14.000Z</time>
      </trkpt>
      <trkpt lat="43.58681" lon="2.9448">
        <ele>598</ele>
        <time>2017-04-16T04:47:16.000Z</time>
      </trkpt>
      <trkpt lat="43.58677" lon="2.94483">
        <ele>598.4</ele>
        <time>2017-04-16T04:47:18.000Z</time>
      </trkpt>
      <trkpt lat="43.58674" lon="2.94488">
        <ele>598.6</ele>
        <time>2017-04-16T04:47:20.000Z</time>
      </trkpt>
      <trkpt lat="43.58673" lon="2.94497">
        <ele>599</ele>
        <time>2017-04-16T04:47:24.000Z</time>
      </trkpt>
      <trkpt lat="43.58674" lon="2.94498">
        <ele>599.4</ele>
        <time>2017-04-16T04:47:25.000Z</time>
      </trkpt>
      <trkpt lat="43.58677" lon="2.94502">
        <ele>600</ele>
        <time>2017-04-16T04:47:28.000Z</time>
      </trkpt>
      <trkpt lat="43.58679" lon="2.94509">
        <ele>600.2</ele>
        <time>2017-04-16T04:47:30.000Z</time>
      </trkpt>
      <trkpt lat="43.5868" lon="2.94516">
        <ele>600.4</ele>
        <time>2017-04-16T04:47:31.000Z</time>
      </trkpt>
      <trkpt lat="43.58686" lon="2.94535">
        <ele>600.4</ele>
        <time>2017-04-16T04:47:33.000Z</time>
      </trkpt>
      <trkpt lat="43.58692" lon="2.94557">
        <ele>599.8</ele>
        <time>2017-04-16T04:47:35.000Z</time>
      </trkpt>
      <trkpt lat="43.58698" lon="2.94578">
        <ele>598.6</ele>
        <time>2017-04-16T04:47:37.000Z</time>
      </trkpt>
      <trkpt lat="43.58705" lon="2.94598">
        <ele>597.4</ele>
        <time>2017-04-16T04:47:39.000Z</time>
      </trkpt>
      <trkpt lat="43.58708" lon="2.94608">
        <ele>596.6</ele>
        <time>2017-04-16T04:47:40.000Z</time>
      </trkpt>
      <trkpt lat="43.58712" lon="2.94629">
        <ele>595.2</ele>
        <time>2017-04-16T04:47:42.000Z</time>
      </trkpt>
      <trkpt lat="43.58713" lon="2.94639">
        <ele>594.4</ele>
        <time>2017-04-16T04:47:43.000Z</time>
      </trkpt>
      <trkpt lat="43.58718" lon="2.94661">
        <ele>592</ele>
        <time>2017-04-16T04:47:46.000Z</time>
      </trkpt>
      <trkpt lat="43.58721" lon="2.94669">
        <ele>591</ele>
        <time>2017-04-16T04:47:47.000Z</time>
      </trkpt>
      <trkpt lat="43.58724" lon="2.94679">
        <ele>590.2</ele>
        <time>2017-04-16T04:47:48.000Z</time>
      </trkpt>
      <trkpt lat="43.58725" lon="2.94699">
        <ele>588.4</ele>
        <time>2017-04-16T04:47:50.000Z</time>
      </trkpt>
      <trkpt lat="43.58719" lon="2.94716">
        <ele>586.8</ele>
        <time>2017-04-16T04:47:52.000Z</time>
      </trkpt>
      <trkpt lat="43.58716" lon="2.94719">
        <ele>586</ele>
        <time>2017-04-16T04:47:53.000Z</time>
      </trkpt>
      <trkpt lat="43.58713" lon="2.94722">
        <ele>585.2</ele>
        <time>2017-04-16T04:47:54.000Z</time>
      </trkpt>
      <trkpt lat="43.5871" lon="2.94721">
        <ele>583.6</ele>
        <time>2017-04-16T04:47:56.000Z</time>
      </trkpt>
      <trkpt lat="43.58708" lon="2.94718">
        <ele>582.8</ele>
        <time>2017-04-16T04:47:57.000Z</time>
      </trkpt>
      <trkpt lat="43.58705" lon="2.94713">
        <ele>582</ele>
        <time>2017-04-16T04:47:58.000Z</time>
      </trkpt>
      <trkpt lat="43.58701" lon="2.94708">
        <ele>581.2</ele>
        <time>2017-04-16T04:47:59.000Z</time>
      </trkpt>
      <trkpt lat="43.58697" lon="2.94702">
        <ele>580.4</ele>
        <time>2017-04-16T04:48:00.000Z</time>
      </trkpt>
      <trkpt lat="43.58691" lon="2.94696">
        <ele>578.6</ele>
        <time>2017-04-16T04:48:02.000Z</time>
      </trkpt>
      <trkpt lat="43.58689" lon="2.94696">
        <ele>577.8</ele>
        <time>2017-04-16T04:48:03.000Z</time>
      </trkpt>
      <trkpt lat="43.58686" lon="2.94697">
        <ele>576.8</ele>
        <time>2017-04-16T04:48:04.000Z</time>
      </trkpt>
      <trkpt lat="43.5868" lon="2.94699">
        <ele>574.8</ele>
        <time>2017-04-16T04:48:06.000Z</time>
      </trkpt>
      <trkpt lat="43.58674" lon="2.94704">
        <ele>572.6</ele>
        <time>2017-04-16T04:48:08.000Z</time>
      </trkpt>
      <trkpt lat="43.5867" lon="2.94715">
        <ele>570.4</ele>
        <time>2017-04-16T04:48:10.000Z</time>
      </trkpt>
      <trkpt lat="43.58665" lon="2.94727">
        <ele>568</ele>
        <time>2017-04-16T04:48:12.000Z</time>
      </trkpt>
      <trkpt lat="43.58656" lon="2.94738">
        <ele>565.6</ele>
        <time>2017-04-16T04:48:14.000Z</time>
      </trkpt>
      <trkpt lat="43.58642" lon="2.94748">
        <ele>563.6</ele>
        <time>2017-04-16T04:48:16.000Z</time>
      </trkpt>
      <trkpt lat="43.58636" lon="2.94751">
        <ele>562.4</ele>
        <time>2017-04-16T04:48:17.000Z</time>
      </trkpt>
      <trkpt lat="43.58626" lon="2.94761">
        <ele>560.4</ele>
        <time>2017-04-16T04:48:19.000Z</time>
      </trkpt>
      <trkpt lat="43.58622" lon="2.94766">
        <ele>559.4</ele>
        <time>2017-04-16T04:48:20.000Z</time>
      </trkpt>
      <trkpt lat="43.58613" lon="2.94779">
        <ele>557.6</ele>
        <time>2017-04-16T04:48:22.000Z</time>
      </trkpt>
      <trkpt lat="43.58609" lon="2.94784">
        <ele>556.4</ele>
        <time>2017-04-16T04:48:23.000Z</time>
      </trkpt>
      <trkpt lat="43.58605" lon="2.94788">
        <ele>555.6</ele>
        <time>2017-04-16T04:48:24.000Z</time>
      </trkpt>
      <trkpt lat="43.58594" lon="2.94802">
        <ele>554</ele>
        <time>2017-04-16T04:48:26.000Z</time>
      </trkpt>
      <trkpt lat="43.58579" lon="2.94824">
        <ele>551.4</ele>
        <time>2017-04-16T04:48:29.000Z</time>
      </trkpt>
      <trkpt lat="43.58575" lon="2.94831">
        <ele>550.8</ele>
        <time>2017-04-16T04:48:30.000Z</time>
      </trkpt>
      <trkpt lat="43.58569" lon="2.94837">
        <ele>550.2</ele>
        <time>2017-04-16T04:48:31.000Z</time>
      </trkpt>
      <trkpt lat="43.58555" lon="2.94847">
        <ele>548.8</ele>
        <time>2017-04-16T04:48:33.000Z</time>
      </trkpt>
      <trkpt lat="43.58542" lon="2.94854">
        <ele>547.6</ele>
        <time>2017-04-16T04:48:35.000Z</time>
      </trkpt>
      <trkpt lat="43.58537" lon="2.94858">
        <ele>547.2</ele>
        <time>2017-04-16T04:48:36.000Z</time>
      </trkpt>
      <trkpt lat="43.58528" lon="2.94868">
        <ele>546</ele>
        <time>2017-04-16T04:48:39.000Z</time>
      </trkpt>
      <trkpt lat="43.58527" lon="2.94871">
        <ele>545.6</ele>
        <time>2017-04-16T04:48:40.000Z</time>
      </trkpt>
      <trkpt lat="43.58524" lon="2.94878">
        <ele>545</ele>
        <time>2017-04-16T04:48:42.000Z</time>
      </trkpt>
      <trkpt lat="43.58505" lon="2.9489">
        <ele>544</ele>
        <time>2017-04-16T04:48:46.000Z</time>
      </trkpt>
      <trkpt lat="43.58496" lon="2.94889">
        <ele>543.6</ele>
        <time>2017-04-16T04:48:47.000Z</time>
      </trkpt>
      <trkpt lat="43.58479" lon="2.94889">
        <ele>542.6</ele>
        <time>2017-04-16T04:48:49.000Z</time>
      </trkpt>
      <trkpt lat="43.58456" lon="2.94882">
        <ele>540.4</ele>
        <time>2017-04-16T04:48:52.000Z</time>
      </trkpt>
      <trkpt lat="43.58449" lon="2.94881">
        <ele>539.8</ele>
        <time>2017-04-16T04:48:53.000Z</time>
      </trkpt>
      <trkpt lat="43.58442" lon="2.94884">
        <ele>539</ele>
        <time>2017-04-16T04:48:54.000Z</time>
      </trkpt>
      <trkpt lat="43.58435" lon="2.94889">
        <ele>538.2</ele>
        <time>2017-04-16T04:48:55.000Z</time>
      </trkpt>
      <trkpt lat="43.58429" lon="2.94897">
        <ele>537.6</ele>
        <time>2017-04-16T04:48:56.000Z</time>
      </trkpt>
      <trkpt lat="43.58418" lon="2.94912">
        <ele>536</ele>
        <time>2017-04-16T04:48:58.000Z</time>
      </trkpt>
      <trkpt lat="43.58411" lon="2.94924">
        <ele>534.2</ele>
        <time>2017-04-16T04:49:00.000Z</time>
      </trkpt>
      <trkpt lat="43.58406" lon="2.94929">
        <ele>533.4</ele>
        <time>2017-04-16T04:49:01.000Z</time>
      </trkpt>
      <trkpt lat="43.58384" lon="2.94941">
        <ele>530.2</ele>
        <time>2017-04-16T04:49:04.000Z</time>
      </trkpt>
      <trkpt lat="43.58376" lon="2.94944">
        <ele>529.2</ele>
        <time>2017-04-16T04:49:05.000Z</time>
      </trkpt>
      <trkpt lat="43.58369" lon="2.94946">
        <ele>528</ele>
        <time>2017-04-16T04:49:06.000Z</time>
      </trkpt>
      <trkpt lat="43.58361" lon="2.94948">
        <ele>527</ele>
        <time>2017-04-16T04:49:07.000Z</time>
      </trkpt>
      <trkpt lat="43.58336" lon="2.94952">
        <ele>523.2</ele>
        <time>2017-04-16T04:49:10.000Z</time>
      </trkpt>
      <trkpt lat="43.58316" lon="2.94949">
        <ele>520.6</ele>
        <time>2017-04-16T04:49:12.000Z</time>
      </trkpt>
      <trkpt lat="43.58299" lon="2.94947">
        <ele>518.2</ele>
        <time>2017-04-16T04:49:14.000Z</time>
      </trkpt>
      <trkpt lat="43.58287" lon="2.94947">
        <ele>516.4</ele>
        <time>2017-04-16T04:49:16.000Z</time>
      </trkpt>
      <trkpt lat="43.58282" lon="2.94947">
        <ele>515.6</ele>
        <time>2017-04-16T04:49:17.000Z</time>
      </trkpt>
      <trkpt lat="43.58267" lon="2.94942">
        <ele>513.2</ele>
        <time>2017-04-16T04:49:20.000Z</time>
      </trkpt>
      <trkpt lat="43.58259" lon="2.94935">
        <ele>511.8</ele>
        <time>2017-04-16T04:49:22.000Z</time>
      </trkpt>
      <trkpt lat="43.58255" lon="2.94932">
        <ele>510.8</ele>
        <time>2017-04-16T04:49:23.000Z</time>
      </trkpt>
      <trkpt lat="43.58246" lon="2.94925">
        <ele>509.2</ele>
        <time>2017-04-16T04:49:25.000Z</time>
      </trkpt>
      <trkpt lat="43.5824" lon="2.94922">
        <ele>508.6</ele>
        <time>2017-04-16T04:49:26.000Z</time>
      </trkpt>
      <trkpt lat="43.58235" lon="2.94919">
        <ele>507.8</ele>
        <time>2017-04-16T04:49:27.000Z</time>
      </trkpt>
      <trkpt lat="43.58225" lon="2.94917">
        <ele>506.4</ele>
        <time>2017-04-16T04:49:29.000Z</time>
      </trkpt>
      <trkpt lat="43.58218" lon="2.94915">
        <ele>505.2</ele>
        <time>2017-04-16T04:49:31.000Z</time>
      </trkpt>
      <trkpt lat="43.58207" lon="2.94911">
        <ele>504.4</ele>
        <time>2017-04-16T04:49:33.000Z</time>
      </trkpt>
      <trkpt lat="43.58201" lon="2.94907">
        <ele>504</ele>
        <time>2017-04-16T04:49:34.000Z</time>
      </trkpt>
      <trkpt lat="43.58184" lon="2.94898">
        <ele>502.6</ele>
        <time>2017-04-16T04:49:38.000Z</time>
      </trkpt>
      <trkpt lat="43.58175" lon="2.94897">
        <ele>502.2</ele>
        <time>2017-04-16T04:49:40.000Z</time>
      </trkpt>
      <trkpt lat="43.58154" lon="2.94896">
        <ele>501.6</ele>
        <time>2017-04-16T04:49:44.000Z</time>
      </trkpt>
      <trkpt lat="43.58132" lon="2.94908">
        <ele>501</ele>
        <time>2017-04-16T04:49:48.000Z</time>
      </trkpt>
      <trkpt lat="43.58125" lon="2.9491">
        <ele>500.8</ele>
        <time>2017-04-16T04:49:49.000Z</time>
      </trkpt>
      <trkpt lat="43.58118" lon="2.94914">
        <ele>500.4</ele>
        <time>2017-04-16T04:49:50.000Z</time>
      </trkpt>
      <trkpt lat="43.58103" lon="2.9492">
        <ele>500</ele>
        <time>2017-04-16T04:49:52.000Z</time>
      </trkpt>
      <trkpt lat="43.58097" lon="2.9492">
        <ele>499.6</ele>
        <time>2017-04-16T04:49:53.000Z</time>
      </trkpt>
      <trkpt lat="43.5809" lon="2.94922">
        <ele>499.2</ele>
        <time>2017-04-16T04:49:54.000Z</time>
      </trkpt>
      <trkpt lat="43.58085" lon="2.94922">
        <ele>499</ele>
        <time>2017-04-16T04:49:55.000Z</time>
      </trkpt>
      <trkpt lat="43.58081" lon="2.94924">
        <ele>498.4</ele>
        <time>2017-04-16T04:49:56.000Z</time>
      </trkpt>
      <trkpt lat="43.58076" lon="2.9493">
        <ele>497.6</ele>
        <time>2017-04-16T04:49:58.000Z</time>
      </trkpt>
      <trkpt lat="43.58072" lon="2.94934">
        <ele>497</ele>
        <time>2017-04-16T04:49:59.000Z</time>
      </trkpt>
      <trkpt lat="43.58068" lon="2.9494">
        <ele>496</ele>
        <time>2017-04-16T04:50:01.000Z</time>
      </trkpt>
      <trkpt lat="43.58065" lon="2.94943">
        <ele>495.2</ele>
        <time>2017-04-16T04:50:02.000Z</time>
      </trkpt>
      <trkpt lat="43.58063" lon="2.94946">
        <ele>494.6</ele>
        <time>2017-04-16T04:50:03.000Z</time>
      </trkpt>
      <trkpt lat="43.58057" lon="2.94953">
        <ele>493.2</ele>
        <time>2017-04-16T04:50:05.000Z</time>
      </trkpt>
      <trkpt lat="43.58046" lon="2.94959">
        <ele>491.4</ele>
        <time>2017-04-16T04:50:07.000Z</time>
      </trkpt>
      <trkpt lat="43.58034" lon="2.94969">
        <ele>489.6</ele>
        <time>2017-04-16T04:50:09.000Z</time>
      </trkpt>
      <trkpt lat="43.58019" lon="2.94981">
        <ele>487.6</ele>
        <time>2017-04-16T04:50:11.000Z</time>
      </trkpt>
      <trkpt lat="43.58005" lon="2.94991">
        <ele>485.4</ele>
        <time>2017-04-16T04:50:13.000Z</time>
      </trkpt>
      <trkpt lat="43.57995" lon="2.94994">
        <ele>484.4</ele>
        <time>2017-04-16T04:50:14.000Z</time>
      </trkpt>
      <trkpt lat="43.57986" lon="2.94996">
        <ele>483.2</ele>
        <time>2017-04-16T04:50:15.000Z</time>
      </trkpt>
      <trkpt lat="43.57979" lon="2.94999">
        <ele>482</ele>
        <time>2017-04-16T04:50:16.000Z</time>
      </trkpt>
      <trkpt lat="43.57965" lon="2.95016">
        <ele>478.8</ele>
        <time>2017-04-16T04:50:19.000Z</time>
      </trkpt>
      <trkpt lat="43.5796" lon="2.95022">
        <ele>477.8</ele>
        <time>2017-04-16T04:50:20.000Z</time>
      </trkpt>
      <trkpt lat="43.57955" lon="2.95029">
        <ele>476.8</ele>
        <time>2017-04-16T04:50:21.000Z</time>
      </trkpt>
      <trkpt lat="43.57949" lon="2.95037">
        <ele>475.8</ele>
        <time>2017-04-16T04:50:22.000Z</time>
      </trkpt>
      <trkpt lat="43.57934" lon="2.95056">
        <ele>474</ele>
        <time>2017-04-16T04:50:24.000Z</time>
      </trkpt>
      <trkpt lat="43.57922" lon="2.95074">
        <ele>473.2</ele>
        <time>2017-04-16T04:50:25.000Z</time>
      </trkpt>
      <trkpt lat="43.57921" lon="2.95082">
        <ele>472.2</ele>
        <time>2017-04-16T04:50:26.000Z</time>
      </trkpt>
      <trkpt lat="43.57914" lon="2.95088">
        <ele>471.4</ele>
        <time>2017-04-16T04:50:27.000Z</time>
      </trkpt>
      <trkpt lat="43.579" lon="2.95101">
        <ele>469.6</ele>
        <time>2017-04-16T04:50:29.000Z</time>
      </trkpt>
      <trkpt lat="43.57893" lon="2.95108">
        <ele>468.6</ele>
        <time>2017-04-16T04:50:30.000Z</time>
      </trkpt>
      <trkpt lat="43.57886" lon="2.95114">
        <ele>467.6</ele>
        <time>2017-04-16T04:50:31.000Z</time>
      </trkpt>
      <trkpt lat="43.5788" lon="2.95116">
        <ele>466.6</ele>
        <time>2017-04-16T04:50:32.000Z</time>
      </trkpt>
      <trkpt lat="43.57874" lon="2.95119">
        <ele>465.6</ele>
        <time>2017-04-16T04:50:33.000Z</time>
      </trkpt>
      <trkpt lat="43.57864" lon="2.95121">
        <ele>463.4</ele>
        <time>2017-04-16T04:50:35.000Z</time>
      </trkpt>
      <trkpt lat="43.5786" lon="2.95125">
        <ele>462.4</ele>
        <time>2017-04-16T04:50:36.000Z</time>
      </trkpt>
      <trkpt lat="43.57851" lon="2.95141">
        <ele>460</ele>
        <time>2017-04-16T04:50:38.000Z</time>
      </trkpt>
      <trkpt lat="43.57846" lon="2.95149">
        <ele>459.2</ele>
        <time>2017-04-16T04:50:39.000Z</time>
      </trkpt>
      <trkpt lat="43.57841" lon="2.95154">
        <ele>458</ele>
        <time>2017-04-16T04:50:40.000Z</time>
      </trkpt>
      <trkpt lat="43.57832" lon="2.95163">
        <ele>456.2</ele>
        <time>2017-04-16T04:50:42.000Z</time>
      </trkpt>
      <trkpt lat="43.57827" lon="2.95172">
        <ele>455.2</ele>
        <time>2017-04-16T04:50:43.000Z</time>
      </trkpt>
      <trkpt lat="43.57818" lon="2.95194">
        <ele>453.2</ele>
        <time>2017-04-16T04:50:45.000Z</time>
      </trkpt>
      <trkpt lat="43.57813" lon="2.95204">
        <ele>452.2</ele>
        <time>2017-04-16T04:50:46.000Z</time>
      </trkpt>
      <trkpt lat="43.57808" lon="2.95213">
        <ele>451.2</ele>
        <time>2017-04-16T04:50:47.000Z</time>
      </trkpt>
      <trkpt lat="43.57801" lon="2.95221">
        <ele>450.4</ele>
        <time>2017-04-16T04:50:48.000Z</time>
      </trkpt>
      <trkpt lat="43.57794" lon="2.95228">
        <ele>449.4</ele>
        <time>2017-04-16T04:50:49.000Z</time>
      </trkpt>
      <trkpt lat="43.57785" lon="2.95235">
        <ele>448.4</ele>
        <time>2017-04-16T04:50:50.000Z</time>
      </trkpt>
      <trkpt lat="43.57761" lon="2.95257">
        <ele>444.8</ele>
        <time>2017-04-16T04:50:53.000Z</time>
      </trkpt>
      <trkpt lat="43.57753" lon="2.95264">
        <ele>443.6</ele>
        <time>2017-04-16T04:50:54.000Z</time>
      </trkpt>
      <trkpt lat="43.57746" lon="2.95271">
        <ele>442.4</ele>
        <time>2017-04-16T04:50:55.000Z</time>
      </trkpt>
      <trkpt lat="43.5774" lon="2.95277">
        <ele>441.2</ele>
        <time>2017-04-16T04:50:56.000Z</time>
      </trkpt>
      <trkpt lat="43.57726" lon="2.95295">
        <ele>437.8</ele>
        <time>2017-04-16T04:50:59.000Z</time>
      </trkpt>
      <trkpt lat="43.57721" lon="2.95301">
        <ele>436.6</ele>
        <time>2017-04-16T04:51:00.000Z</time>
      </trkpt>
      <trkpt lat="43.57716" lon="2.95307">
        <ele>435.6</ele>
        <time>2017-04-16T04:51:01.000Z</time>
      </trkpt>
      <trkpt lat="43.57708" lon="2.95318">
        <ele>433.4</ele>
        <time>2017-04-16T04:51:03.000Z</time>
      </trkpt>
      <trkpt lat="43.57706" lon="2.9533">
        <ele>431.4</ele>
        <time>2017-04-16T04:51:05.000Z</time>
      </trkpt>
      <trkpt lat="43.57707" lon="2.95336">
        <ele>430.4</ele>
        <time>2017-04-16T04:51:06.000Z</time>
      </trkpt>
      <trkpt lat="43.57709" lon="2.95342">
        <ele>428.2</ele>
        <time>2017-04-16T04:51:08.000Z</time>
      </trkpt>
      <trkpt lat="43.57706" lon="2.95336">
        <ele>425.2</ele>
        <time>2017-04-16T04:51:11.000Z</time>
      </trkpt>
      <trkpt lat="43.57701" lon="2.95326">
        <ele>423.6</ele>
        <time>2017-04-16T04:51:13.000Z</time>
      </trkpt>
      <trkpt lat="43.57698" lon="2.95322">
        <ele>422.6</ele>
        <time>2017-04-16T04:51:14.000Z</time>
      </trkpt>
      <trkpt lat="43.57695" lon="2.95325">
        <ele>421</ele>
        <time>2017-04-16T04:51:16.000Z</time>
      </trkpt>
      <trkpt lat="43.57693" lon="2.95329">
        <ele>420.2</ele>
        <time>2017-04-16T04:51:17.000Z</time>
      </trkpt>
      <trkpt lat="43.57689" lon="2.9533">
        <ele>418.6</ele>
        <time>2017-04-16T04:51:19.000Z</time>
      </trkpt>
      <trkpt lat="43.57685" lon="2.95327">
        <ele>418</ele>
        <time>2017-04-16T04:51:20.000Z</time>
      </trkpt>
      <trkpt lat="43.5768" lon="2.95323">
        <ele>417.4</ele>
        <time>2017-04-16T04:51:21.000Z</time>
      </trkpt>
      <trkpt lat="43.57675" lon="2.95318">
        <ele>416.6</ele>
        <time>2017-04-16T04:51:22.000Z</time>
      </trkpt>
      <trkpt lat="43.5767" lon="2.95309">
        <ele>415.2</ele>
        <time>2017-04-16T04:51:24.000Z</time>
      </trkpt>
      <trkpt lat="43.57671" lon="2.95296">
        <ele>414</ele>
        <time>2017-04-16T04:51:26.000Z</time>
      </trkpt>
      <trkpt lat="43.57671" lon="2.95287">
        <ele>412.8</ele>
        <time>2017-04-16T04:51:28.000Z</time>
      </trkpt>
      <trkpt lat="43.57669" lon="2.95287">
        <ele>412</ele>
        <time>2017-04-16T04:51:29.000Z</time>
      </trkpt>
      <trkpt lat="43.57666" lon="2.95288">
        <ele>410.6</ele>
        <time>2017-04-16T04:51:31.000Z</time>
      </trkpt>
      <trkpt lat="43.57666" lon="2.95286">
        <ele>409.8</ele>
        <time>2017-04-16T04:51:32.000Z</time>
      </trkpt>
      <trkpt lat="43.57669" lon="2.95277">
        <ele>408.6</ele>
        <time>2017-04-16T04:51:34.000Z</time>
      </trkpt>
      <trkpt lat="43.57668" lon="2.95269">
        <ele>407.2</ele>
        <time>2017-04-16T04:51:36.000Z</time>
      </trkpt>
      <trkpt lat="43.57666" lon="2.95269">
        <ele>406.6</ele>
        <time>2017-04-16T04:51:37.000Z</time>
      </trkpt>
      <trkpt lat="43.57659" lon="2.9528">
        <ele>404.8</ele>
        <time>2017-04-16T04:51:40.000Z</time>
      </trkpt>
      <trkpt lat="43.57657" lon="2.95282">
        <ele>404</ele>
        <time>2017-04-16T04:51:41.000Z</time>
      </trkpt>
      <trkpt lat="43.57656" lon="2.95277">
        <ele>402.8</ele>
        <time>2017-04-16T04:51:43.000Z</time>
      </trkpt>
      <trkpt lat="43.57656" lon="2.95274">
        <ele>401.4</ele>
        <time>2017-04-16T04:51:45.000Z</time>
      </trkpt>
      <trkpt lat="43.57651" lon="2.95279">
        <ele>400</ele>
        <time>2017-04-16T04:51:47.000Z</time>
      </trkpt>
      <trkpt lat="43.57648" lon="2.95284">
        <ele>399.4</ele>
        <time>2017-04-16T04:51:48.000Z</time>
      </trkpt>
      <trkpt lat="43.57645" lon="2.95288">
        <ele>398.8</ele>
        <time>2017-04-16T04:51:49.000Z</time>
      </trkpt>
      <trkpt lat="43.57643" lon="2.95291">
        <ele>398.2</ele>
        <time>2017-04-16T04:51:50.000Z</time>
      </trkpt>
      <trkpt lat="43.57641" lon="2.95291">
        <ele>396.8</ele>
        <time>2017-04-16T04:51:53.000Z</time>
      </trkpt>
      <trkpt lat="43.5764" lon="2.95288">
        <ele>396.2</ele>
        <time>2017-04-16T04:51:54.000Z</time>
      </trkpt>
      <trkpt lat="43.57632" lon="2.95292">
        <ele>394.6</ele>
        <time>2017-04-16T04:51:57.000Z</time>
      </trkpt>
      <trkpt lat="43.57628" lon="2.95295">
        <ele>394</ele>
        <time>2017-04-16T04:51:58.000Z</time>
      </trkpt>
      <trkpt lat="43.57626" lon="2.95296">
        <ele>393.6</ele>
        <time>2017-04-16T04:51:59.000Z</time>
      </trkpt>
      <trkpt lat="43.57626" lon="2.95287">
        <ele>392.6</ele>
        <time>2017-04-16T04:52:01.000Z</time>
      </trkpt>
      <trkpt lat="43.57627" lon="2.95281">
        <ele>392</ele>
        <time>2017-04-16T04:52:02.000Z</time>
      </trkpt>
      <trkpt lat="43.57627" lon="2.95276">
        <ele>391.6</ele>
        <time>2017-04-16T04:52:03.000Z</time>
      </trkpt>
      <trkpt lat="43.57622" lon="2.95279">
        <ele>390.8</ele>
        <time>2017-04-16T04:52:04.000Z</time>
      </trkpt>
      <trkpt lat="43.57619" lon="2.95277">
        <ele>390.2</ele>
        <time>2017-04-16T04:52:05.000Z</time>
      </trkpt>
      <trkpt lat="43.5761" lon="2.95282">
        <ele>389</ele>
        <time>2017-04-16T04:52:07.000Z</time>
      </trkpt>
      <trkpt lat="43.57606" lon="2.95286">
        <ele>388.4</ele>
        <time>2017-04-16T04:52:08.000Z</time>
      </trkpt>
      <trkpt lat="43.57601" lon="2.95289">
        <ele>387.8</ele>
        <time>2017-04-16T04:52:09.000Z</time>
      </trkpt>
      <trkpt lat="43.5759" lon="2.953">
        <ele>386.6</ele>
        <time>2017-04-16T04:52:11.000Z</time>
      </trkpt>
      <trkpt lat="43.57582" lon="2.95311">
        <ele>385.2</ele>
        <time>2017-04-16T04:52:13.000Z</time>
      </trkpt>
      <trkpt lat="43.57583" lon="2.95327">
        <ele>383.6</ele>
        <time>2017-04-16T04:52:15.000Z</time>
      </trkpt>
      <trkpt lat="43.5759" lon="2.95346">
        <ele>382.2</ele>
        <time>2017-04-16T04:52:17.000Z</time>
      </trkpt>
      <trkpt lat="43.57593" lon="2.95354">
        <ele>381.2</ele>
        <time>2017-04-16T04:52:18.000Z</time>
      </trkpt>
      <trkpt lat="43.57596" lon="2.9536">
        <ele>380.6</ele>
        <time>2017-04-16T04:52:19.000Z</time>
      </trkpt>
      <trkpt lat="43.576" lon="2.95368">
        <ele>379.8</ele>
        <time>2017-04-16T04:52:20.000Z</time>
      </trkpt>
      <trkpt lat="43.57604" lon="2.95374">
        <ele>379</ele>
        <time>2017-04-16T04:52:21.000Z</time>
      </trkpt>
      <trkpt lat="43.57612" lon="2.95389">
        <ele>377.2</ele>
        <time>2017-04-16T04:52:23.000Z</time>
      </trkpt>
      <trkpt lat="43.57615" lon="2.95393">
        <ele>376.4</ele>
        <time>2017-04-16T04:52:24.000Z</time>
      </trkpt>
      <trkpt lat="43.57617" lon="2.95396">
        <ele>375.6</ele>
        <time>2017-04-16T04:52:25.000Z</time>
      </trkpt>
      <trkpt lat="43.5762" lon="2.95397">
        <ele>374.6</ele>
        <time>2017-04-16T04:52:26.000Z</time>
      </trkpt>
      <trkpt lat="43.57624" lon="2.95399">
        <ele>373.8</ele>
        <time>2017-04-16T04:52:27.000Z</time>
      </trkpt>
      <trkpt lat="43.57627" lon="2.95403">
        <ele>373</ele>
        <time>2017-04-16T04:52:28.000Z</time>
      </trkpt>
      <trkpt lat="43.57634" lon="2.95416">
        <ele>371.8</ele>
        <time>2017-04-16T04:52:30.000Z</time>
      </trkpt>
      <trkpt lat="43.57635" lon="2.95423">
        <ele>371</ele>
        <time>2017-04-16T04:52:31.000Z</time>
      </trkpt>
      <trkpt lat="43.57636" lon="2.95429">
        <ele>370.4</ele>
        <time>2017-04-16T04:52:32.000Z</time>
      </trkpt>
      <trkpt lat="43.57637" lon="2.95437">
        <ele>368.8</ele>
        <time>2017-04-16T04:52:34.000Z</time>
      </trkpt>
      <trkpt lat="43.57639" lon="2.95443">
        <ele>367.6</ele>
        <time>2017-04-16T04:52:36.000Z</time>
      </trkpt>
      <trkpt lat="43.57644" lon="2.95452">
        <ele>366.4</ele>
        <time>2017-04-16T04:52:38.000Z</time>
      </trkpt>
      <trkpt lat="43.57651" lon="2.95463">
        <ele>365.6</ele>
        <time>2017-04-16T04:52:40.000Z</time>
      </trkpt>
      <trkpt lat="43.57654" lon="2.9547">
        <ele>365</ele>
        <time>2017-04-16T04:52:41.000Z</time>
      </trkpt>
      <trkpt lat="43.57655" lon="2.95476">
        <ele>364.4</ele>
        <time>2017-04-16T04:52:42.000Z</time>
      </trkpt>
      <trkpt lat="43.57657" lon="2.95482">
        <ele>364</ele>
        <time>2017-04-16T04:52:43.000Z</time>
      </trkpt>
      <trkpt lat="43.57659" lon="2.95488">
        <ele>363.6</ele>
        <time>2017-04-16T04:52:44.000Z</time>
      </trkpt>
      <trkpt lat="43.57663" lon="2.95493">
        <ele>362.8</ele>
        <time>2017-04-16T04:52:45.000Z</time>
      </trkpt>
      <trkpt lat="43.57671" lon="2.95505">
        <ele>361.6</ele>
        <time>2017-04-16T04:52:47.000Z</time>
      </trkpt>
      <trkpt lat="43.57673" lon="2.95514">
        <ele>361</ele>
        <time>2017-04-16T04:52:48.000Z</time>
      </trkpt>
      <trkpt lat="43.57671" lon="2.95527">
        <ele>359.8</ele>
        <time>2017-04-16T04:52:50.000Z</time>
      </trkpt>
      <trkpt lat="43.5766" lon="2.95534">
        <ele>358.6</ele>
        <time>2017-04-16T04:52:52.000Z</time>
      </trkpt>
      <trkpt lat="43.57645" lon="2.95535">
        <ele>357.2</ele>
        <time>2017-04-16T04:52:54.000Z</time>
      </trkpt>
      <trkpt lat="43.57637" lon="2.95534">
        <ele>356.4</ele>
        <time>2017-04-16T04:52:55.000Z</time>
      </trkpt>
      <trkpt lat="43.57618" lon="2.95538">
        <ele>353.6</ele>
        <time>2017-04-16T04:52:58.000Z</time>
      </trkpt>
      <trkpt lat="43.57611" lon="2.95539">
        <ele>352.6</ele>
        <time>2017-04-16T04:52:59.000Z</time>
      </trkpt>
      <trkpt lat="43.5759" lon="2.95545">
        <ele>349</ele>
        <time>2017-04-16T04:53:02.000Z</time>
      </trkpt>
      <trkpt lat="43.57581" lon="2.9555">
        <ele>346.4</ele>
        <time>2017-04-16T04:53:04.000Z</time>
      </trkpt>
      <trkpt lat="43.57576" lon="2.95553">
        <ele>343.6</ele>
        <time>2017-04-16T04:53:06.000Z</time>
      </trkpt>
      <trkpt lat="43.57574" lon="2.95555">
        <ele>342.2</ele>
        <time>2017-04-16T04:53:07.000Z</time>
      </trkpt>
      <trkpt lat="43.57568" lon="2.95555">
        <ele>338.4</ele>
        <time>2017-04-16T04:53:10.000Z</time>
      </trkpt>
      <trkpt lat="43.57565" lon="2.95556">
        <ele>337</ele>
        <time>2017-04-16T04:53:11.000Z</time>
      </trkpt>
      <trkpt lat="43.57557" lon="2.95561">
        <ele>334.8</ele>
        <time>2017-04-16T04:53:13.000Z</time>
      </trkpt>
      <trkpt lat="43.57553" lon="2.95563">
        <ele>333.6</ele>
        <time>2017-04-16T04:53:14.000Z</time>
      </trkpt>
      <trkpt lat="43.57544" lon="2.95561">
        <ele>331.4</ele>
        <time>2017-04-16T04:53:16.000Z</time>
      </trkpt>
      <trkpt lat="43.57535" lon="2.95563">
        <ele>329</ele>
        <time>2017-04-16T04:53:18.000Z</time>
      </trkpt>
      <trkpt lat="43.57529" lon="2.95565">
        <ele>327.8</ele>
        <time>2017-04-16T04:53:19.000Z</time>
      </trkpt>
      <trkpt lat="43.57524" lon="2.95569">
        <ele>326.6</ele>
        <time>2017-04-16T04:53:20.000Z</time>
      </trkpt>
      <trkpt lat="43.57518" lon="2.95572">
        <ele>325.4</ele>
        <time>2017-04-16T04:53:21.000Z</time>
      </trkpt>
      <trkpt lat="43.57512" lon="2.95575">
        <ele>324.4</ele>
        <time>2017-04-16T04:53:22.000Z</time>
      </trkpt>
      <trkpt lat="43.57507" lon="2.95578">
        <ele>323.2</ele>
        <time>2017-04-16T04:53:23.000Z</time>
      </trkpt>
      <trkpt lat="43.57496" lon="2.95584">
        <ele>321</ele>
        <time>2017-04-16T04:53:25.000Z</time>
      </trkpt>
      <trkpt lat="43.57485" lon="2.95587">
        <ele>319.2</ele>
        <time>2017-04-16T04:53:27.000Z</time>
      </trkpt>
      <trkpt lat="43.57479" lon="2.95588">
        <ele>318.2</ele>
        <time>2017-04-16T04:53:28.000Z</time>
      </trkpt>
      <trkpt lat="43.57475" lon="2.9559">
        <ele>317.4</ele>
        <time>2017-04-16T04:53:29.000Z</time>
      </trkpt>
      <trkpt lat="43.57466" lon="2.956">
        <ele>315.8</ele>
        <time>2017-04-16T04:53:31.000Z</time>
      </trkpt>
      <trkpt lat="43.57463" lon="2.95605">
        <ele>315.2</ele>
        <time>2017-04-16T04:53:32.000Z</time>
      </trkpt>
      <trkpt lat="43.57458" lon="2.95618">
        <ele>313.8</ele>
        <time>2017-04-16T04:53:35.000Z</time>
      </trkpt>
      <trkpt lat="43.5745" lon="2.95628">
        <ele>312.4</ele>
        <time>2017-04-16T04:53:39.000Z</time>
      </trkpt>
      <trkpt lat="43.57447" lon="2.95632">
        <ele>312</ele>
        <time>2017-04-16T04:53:40.000Z</time>
      </trkpt>
      <trkpt lat="43.57434" lon="2.95644">
        <ele>311.4</ele>
        <time>2017-04-16T04:53:43.000Z</time>
      </trkpt>
      <trkpt lat="43.57418" lon="2.95654">
        <ele>310.6</ele>
        <time>2017-04-16T04:53:47.000Z</time>
      </trkpt>
      <trkpt lat="43.57416" lon="2.95658">
        <ele>310.2</ele>
        <time>2017-04-16T04:53:48.000Z</time>
      </trkpt>
      <trkpt lat="43.5741" lon="2.9567">
        <ele>309.4</ele>
        <time>2017-04-16T04:53:50.000Z</time>
      </trkpt>
      <trkpt lat="43.57405" lon="2.95676">
        <ele>309</ele>
        <time>2017-04-16T04:53:51.000Z</time>
      </trkpt>
      <trkpt lat="43.574" lon="2.95683">
        <ele>308.2</ele>
        <time>2017-04-16T04:53:52.000Z</time>
      </trkpt>
      <trkpt lat="43.57396" lon="2.95689">
        <ele>307.6</ele>
        <time>2017-04-16T04:53:53.000Z</time>
      </trkpt>
      <trkpt lat="43.57392" lon="2.95695">
        <ele>306.8</ele>
        <time>2017-04-16T04:53:54.000Z</time>
      </trkpt>
      <trkpt lat="43.57389" lon="2.95696">
        <ele>305</ele>
        <time>2017-04-16T04:53:56.000Z</time>
      </trkpt>
      <trkpt lat="43.57388" lon="2.95683">
        <ele>303.2</ele>
        <time>2017-04-16T04:53:58.000Z</time>
      </trkpt>
      <trkpt lat="43.57387" lon="2.95673">
        <ele>302.2</ele>
        <time>2017-04-16T04:53:59.000Z</time>
      </trkpt>
      <trkpt lat="43.57387" lon="2.95663">
        <ele>301.2</ele>
        <time>2017-04-16T04:54:00.000Z</time>
      </trkpt>
      <trkpt lat="43.57388" lon="2.95642">
        <ele>299.4</ele>
        <time>2017-04-16T04:54:02.000Z</time>
      </trkpt>
      <trkpt lat="43.5739" lon="2.95632">
        <ele>298.4</ele>
        <time>2017-04-16T04:54:03.000Z</time>
      </trkpt>
      <trkpt lat="43.57394" lon="2.9561">
        <ele>296.2</ele>
        <time>2017-04-16T04:54:05.000Z</time>
      </trkpt>
      <trkpt lat="43.57398" lon="2.95588">
        <ele>294.2</ele>
        <time>2017-04-16T04:54:07.000Z</time>
      </trkpt>
      <trkpt lat="43.574" lon="2.95579">
        <ele>293</ele>
        <time>2017-04-16T04:54:08.000Z</time>
      </trkpt>
      <trkpt lat="43.57403" lon="2.95572">
        <ele>291.8</ele>
        <time>2017-04-16T04:54:09.000Z</time>
      </trkpt>
      <trkpt lat="43.57405" lon="2.95569">
        <ele>290.8</ele>
        <time>2017-04-16T04:54:10.000Z</time>
      </trkpt>
      <trkpt lat="43.57405" lon="2.95568">
        <ele>289.8</ele>
        <time>2017-04-16T04:54:11.000Z</time>
      </trkpt>
      <trkpt lat="43.57403" lon="2.95571">
        <ele>288.6</ele>
        <time>2017-04-16T04:54:12.000Z</time>
      </trkpt>
      <trkpt lat="43.57401" lon="2.95574">
        <ele>287.6</ele>
        <time>2017-04-16T04:54:13.000Z</time>
      </trkpt>
      <trkpt lat="43.57382" lon="2.95589">
        <ele>285</ele>
        <time>2017-04-16T04:54:16.000Z</time>
      </trkpt>
      <trkpt lat="43.57375" lon="2.95592">
        <ele>284</ele>
        <time>2017-04-16T04:54:17.000Z</time>
      </trkpt>
      <trkpt lat="43.57355" lon="2.95602">
        <ele>281</ele>
        <time>2017-04-16T04:54:20.000Z</time>
      </trkpt>
      <trkpt lat="43.57351" lon="2.95601">
        <ele>279.8</ele>
        <time>2017-04-16T04:54:21.000Z</time>
      </trkpt>
      <trkpt lat="43.57348" lon="2.95599">
        <ele>277.4</ele>
        <time>2017-04-16T04:54:23.000Z</time>
      </trkpt>
      <trkpt lat="43.57346" lon="2.95601">
        <ele>276.2</ele>
        <time>2017-04-16T04:54:24.000Z</time>
      </trkpt>
      <trkpt lat="43.57343" lon="2.95609">
        <ele>274</ele>
        <time>2017-04-16T04:54:26.000Z</time>
      </trkpt>
      <trkpt lat="43.57341" lon="2.95613">
        <ele>273</ele>
        <time>2017-04-16T04:54:27.000Z</time>
      </trkpt>
      <trkpt lat="43.5734" lon="2.95618">
        <ele>271.8</ele>
        <time>2017-04-16T04:54:28.000Z</time>
      </trkpt>
      <trkpt lat="43.57338" lon="2.95623">
        <ele>269.8</ele>
        <time>2017-04-16T04:54:30.000Z</time>
      </trkpt>
      <trkpt lat="43.57338" lon="2.95623">
        <ele>268</ele>
        <time>2017-04-16T04:54:32.000Z</time>
      </trkpt>
      <trkpt lat="43.57337" lon="2.95622">
        <ele>266.4</ele>
        <time>2017-04-16T04:54:34.000Z</time>
      </trkpt>
      <trkpt lat="43.57336" lon="2.95622">
        <ele>265.8</ele>
        <time>2017-04-16T04:54:35.000Z</time>
      </trkpt>
      <trkpt lat="43.57325" lon="2.95629">
        <ele>263.2</ele>
        <time>2017-04-16T04:54:38.000Z</time>
      </trkpt>
      <trkpt lat="43.5732" lon="2.95632">
        <ele>262.4</ele>
        <time>2017-04-16T04:54:39.000Z</time>
      </trkpt>
      <trkpt lat="43.5731" lon="2.95637">
        <ele>260.6</ele>
        <time>2017-04-16T04:54:41.000Z</time>
      </trkpt>
      <trkpt lat="43.57306" lon="2.95639">
        <ele>259.8</ele>
        <time>2017-04-16T04:54:42.000Z</time>
      </trkpt>
      <trkpt lat="43.57291" lon="2.95641">
        <ele>256.8</ele>
        <time>2017-04-16T04:54:45.000Z</time>
      </trkpt>
      <trkpt lat="43.57287" lon="2.9564">
        <ele>255.6</ele>
        <time>2017-04-16T04:54:46.000Z</time>
      </trkpt>
      <trkpt lat="43.57278" lon="2.95635">
        <ele>253.2</ele>
        <time>2017-04-16T04:54:48.000Z</time>
      </trkpt>
      <trkpt lat="43.57276" lon="2.9563">
        <ele>251.8</ele>
        <time>2017-04-16T04:54:49.000Z</time>
      </trkpt>
      <trkpt lat="43.57274" lon="2.95625">
        <ele>249</ele>
        <time>2017-04-16T04:54:51.000Z</time>
      </trkpt>
      <trkpt lat="43.57273" lon="2.95626">
        <ele>247.8</ele>
        <time>2017-04-16T04:54:52.000Z</time>
      </trkpt>
      <trkpt lat="43.57271" lon="2.9563">
        <ele>246.6</ele>
        <time>2017-04-16T04:54:53.000Z</time>
      </trkpt>
      <trkpt lat="43.57267" lon="2.95636">
        <ele>245.2</ele>
        <time>2017-04-16T04:54:54.000Z</time>
      </trkpt>
      <trkpt lat="43.57262" lon="2.95641">
        <ele>244.2</ele>
        <time>2017-04-16T04:54:55.000Z</time>
      </trkpt>
      <trkpt lat="43.57256" lon="2.95645">
        <ele>242.8</ele>
        <time>2017-04-16T04:54:56.000Z</time>
      </trkpt>
      <trkpt lat="43.5725" lon="2.95647">
        <ele>241.8</ele>
        <time>2017-04-16T04:54:57.000Z</time>
      </trkpt>
      <trkpt lat="43.57238" lon="2.9566">
        <ele>237.6</ele>
        <time>2017-04-16T04:55:00.000Z</time>
      </trkpt>
      <trkpt lat="43.57236" lon="2.95673">
        <ele>235.2</ele>
        <time>2017-04-16T04:55:02.000Z</time>
      </trkpt>
      <trkpt lat="43.57238" lon="2.95679">
        <ele>234</ele>
        <time>2017-04-16T04:55:03.000Z</time>
      </trkpt>
      <trkpt lat="43.57245" lon="2.95688">
        <ele>231.8</ele>
        <time>2017-04-16T04:55:05.000Z</time>
      </trkpt>
      <trkpt lat="43.57252" lon="2.95696">
        <ele>230</ele>
        <time>2017-04-16T04:55:07.000Z</time>
      </trkpt>
      <trkpt lat="43.57256" lon="2.95701">
        <ele>229.2</ele>
        <time>2017-04-16T04:55:08.000Z</time>
      </trkpt>
      <trkpt lat="43.57258" lon="2.95706">
        <ele>228.8</ele>
        <time>2017-04-16T04:55:09.000Z</time>
      </trkpt>
      <trkpt lat="43.57258" lon="2.95717">
        <ele>228</ele>
        <time>2017-04-16T04:55:11.000Z</time>
      </trkpt>
      <trkpt lat="43.57255" lon="2.95727">
        <ele>227.4</ele>
        <time>2017-04-16T04:55:13.000Z</time>
      </trkpt>
      <trkpt lat="43.57254" lon="2.95733">
        <ele>227.2</ele>
        <time>2017-04-16T04:55:14.000Z</time>
      </trkpt>
      <trkpt lat="43.57251" lon="2.95749">
        <ele>226.4</ele>
        <time>2017-04-16T04:55:16.000Z</time>
      </trkpt>
      <trkpt lat="43.57248" lon="2.9577">
        <ele>225.4</ele>
        <time>2017-04-16T04:55:18.000Z</time>
      </trkpt>
      <trkpt lat="43.57245" lon="2.95791">
        <ele>224</ele>
        <time>2017-04-16T04:55:20.000Z</time>
      </trkpt>
      <trkpt lat="43.57244" lon="2.95802">
        <ele>223.4</ele>
        <time>2017-04-16T04:55:21.000Z</time>
      </trkpt>
      <trkpt lat="43.57245" lon="2.95813">
        <ele>222.8</ele>
        <time>2017-04-16T04:55:22.000Z</time>
      </trkpt>
      <trkpt lat="43.57251" lon="2.95837">
        <ele>221.6</ele>
        <time>2017-04-16T04:55:24.000Z</time>
      </trkpt>
      <trkpt lat="43.57254" lon="2.95862">
        <ele>220.2</ele>
        <time>2017-04-16T04:55:26.000Z</time>
      </trkpt>
      <trkpt lat="43.57254" lon="2.95882">
        <ele>219.2</ele>
        <time>2017-04-16T04:55:28.000Z</time>
      </trkpt>
      <trkpt lat="43.57255" lon="2.9589">
        <ele>218.8</ele>
        <time>2017-04-16T04:55:29.000Z</time>
      </trkpt>
      <trkpt lat="43.57255" lon="2.95899">
        <ele>218.4</ele>
        <time>2017-04-16T04:55:30.000Z</time>
      </trkpt>
      <trkpt lat="43.57256" lon="2.95917">
        <ele>217.8</ele>
        <time>2017-04-16T04:55:32.000Z</time>
      </trkpt>
      <trkpt lat="43.57261" lon="2.95949">
        <ele>216.8</ele>
        <time>2017-04-16T04:55:35.000Z</time>
      </trkpt>
      <trkpt lat="43.57262" lon="2.95958">
        <ele>216.4</ele>
        <time>2017-04-16T04:55:36.000Z</time>
      </trkpt>
      <trkpt lat="43.57264" lon="2.95966">
        <ele>216</ele>
        <time>2017-04-16T04:55:37.000Z</time>
      </trkpt>
      <trkpt lat="43.57268" lon="2.9598">
        <ele>215.4</ele>
        <time>2017-04-16T04:55:39.000Z</time>
      </trkpt>
      <trkpt lat="43.57266" lon="2.95993">
        <ele>214.8</ele>
        <time>2017-04-16T04:55:41.000Z</time>
      </trkpt>
      <trkpt lat="43.57265" lon="2.95999">
        <ele>214.6</ele>
        <time>2017-04-16T04:55:42.000Z</time>
      </trkpt>
      <trkpt lat="43.57263" lon="2.96003">
        <ele>214.4</ele>
        <time>2017-04-16T04:55:43.000Z</time>
      </trkpt>
      <trkpt lat="43.57262" lon="2.96007">
        <ele>214.4</ele>
        <time>2017-04-16T04:55:44.000Z</time>
      </trkpt>
      <trkpt lat="43.57263" lon="2.96014">
        <ele>214</ele>
        <time>2017-04-16T04:55:47.000Z</time>
      </trkpt>
      <trkpt lat="43.57266" lon="2.96031">
        <ele>213.6</ele>
        <time>2017-04-16T04:55:51.000Z</time>
      </trkpt>
      <trkpt lat="43.57265" lon="2.96034">
        <ele>213.4</ele>
        <time>2017-04-16T04:55:52.000Z</time>
      </trkpt>
      <trkpt lat="43.57258" lon="2.96043">
        <ele>213.2</ele>
        <time>2017-04-16T04:55:56.000Z</time>
      </trkpt>
      <trkpt lat="43.57257" lon="2.96043">
        <ele>213</ele>
        <time>2017-04-16T04:55:57.000Z</time>
      </trkpt>
      <trkpt lat="43.57255" lon="2.96042">
        <ele>212.6</ele>
        <time>2017-04-16T04:55:59.000Z</time>
      </trkpt>
      <trkpt lat="43.57255" lon="2.96043">
        <ele>212.2</ele>
        <time>2017-04-16T04:56:01.000Z</time>
      </trkpt>
      <trkpt lat="43.57254" lon="2.96044">
        <ele>212</ele>
        <time>2017-04-16T04:56:02.000Z</time>
      </trkpt>
      <trkpt lat="43.57253" lon="2.96046">
        <ele>211.6</ele>
        <time>2017-04-16T04:56:03.000Z</time>
      </trkpt>
      <trkpt lat="43.57252" lon="2.96049">
        <ele>211.4</ele>
        <time>2017-04-16T04:56:04.000Z</time>
      </trkpt>
      <trkpt lat="43.57252" lon="2.96052">
        <ele>211</ele>
        <time>2017-04-16T04:56:05.000Z</time>
      </trkpt>
      <trkpt lat="43.57254" lon="2.96058">
        <ele>210.8</ele>
        <time>2017-04-16T04:56:06.000Z</time>
      </trkpt>
      <trkpt lat="43.57255" lon="2.96065">
        <ele>210.6</ele>
        <time>2017-04-16T04:56:07.000Z</time>
      </trkpt>
      <trkpt lat="43.57259" lon="2.96081">
        <ele>210.2</ele>
        <time>2017-04-16T04:56:09.000Z</time>
      </trkpt>
      <trkpt lat="43.57262" lon="2.96089">
        <ele>210</ele>
        <time>2017-04-16T04:56:10.000Z</time>
      </trkpt>
      <trkpt lat="43.57262" lon="2.96102">
        <ele>209.4</ele>
        <time>2017-04-16T04:56:12.000Z</time>
      </trkpt>
      <trkpt lat="43.57261" lon="2.96111">
        <ele>208.8</ele>
        <time>2017-04-16T04:56:14.000Z</time>
      </trkpt>
      <trkpt lat="43.57262" lon="2.96122">
        <ele>208</ele>
        <time>2017-04-16T04:56:16.000Z</time>
      </trkpt>
      <trkpt lat="43.57269" lon="2.96137">
        <ele>207.2</ele>
        <time>2017-04-16T04:56:18.000Z</time>
      </trkpt>
      <trkpt lat="43.57274" lon="2.96155">
        <ele>206.6</ele>
        <time>2017-04-16T04:56:20.000Z</time>
      </trkpt>
      <trkpt lat="43.57275" lon="2.96162">
        <ele>206.2</ele>
        <time>2017-04-16T04:56:21.000Z</time>
      </trkpt>
      <trkpt lat="43.57273" lon="2.96175">
        <ele>205.8</ele>
        <time>2017-04-16T04:56:23.000Z</time>
      </trkpt>
      <trkpt lat="43.57271" lon="2.96182">
        <ele>205.6</ele>
        <time>2017-04-16T04:56:24.000Z</time>
      </trkpt>
      <trkpt lat="43.57265" lon="2.96199">
        <ele>205</ele>
        <time>2017-04-16T04:56:26.000Z</time>
      </trkpt>
      <trkpt lat="43.57263" lon="2.96209">
        <ele>204.8</ele>
        <time>2017-04-16T04:56:27.000Z</time>
      </trkpt>
      <trkpt lat="43.57259" lon="2.96224">
        <ele>204.2</ele>
        <time>2017-04-16T04:56:29.000Z</time>
      </trkpt>
      <trkpt lat="43.57249" lon="2.96239">
        <ele>202.6</ele>
        <time>2017-04-16T04:56:32.000Z</time>
      </trkpt>
      <trkpt lat="43.57245" lon="2.96244">
        <ele>202</ele>
        <time>2017-04-16T04:56:33.000Z</time>
      </trkpt>
      <trkpt lat="43.57238" lon="2.96254">
        <ele>200.2</ele>
        <time>2017-04-16T04:56:35.000Z</time>
      </trkpt>
      <trkpt lat="43.57231" lon="2.96269">
        <ele>197.4</ele>
        <time>2017-04-16T04:56:38.000Z</time>
      </trkpt>
      <trkpt lat="43.5723" lon="2.96271">
        <ele>196.4</ele>
        <time>2017-04-16T04:56:39.000Z</time>
      </trkpt>
      <trkpt lat="43.57228" lon="2.96283">
        <ele>193.4</ele>
        <time>2017-04-16T04:56:42.000Z</time>
      </trkpt>
      <trkpt lat="43.57226" lon="2.96288">
        <ele>192.4</ele>
        <time>2017-04-16T04:56:43.000Z</time>
      </trkpt>
      <trkpt lat="43.57224" lon="2.96293">
        <ele>191.6</ele>
        <time>2017-04-16T04:56:44.000Z</time>
      </trkpt>
      <trkpt lat="43.57223" lon="2.96297">
        <ele>190.8</ele>
        <time>2017-04-16T04:56:45.000Z</time>
      </trkpt>
      <trkpt lat="43.57221" lon="2.96301">
        <ele>189.8</ele>
        <time>2017-04-16T04:56:46.000Z</time>
      </trkpt>
      <trkpt lat="43.57217" lon="2.96311">
        <ele>188.2</ele>
        <time>2017-04-16T04:56:48.000Z</time>
      </trkpt>
      <trkpt lat="43.57216" lon="2.96316">
        <ele>187.2</ele>
        <time>2017-04-16T04:56:49.000Z</time>
      </trkpt>
      <trkpt lat="43.57215" lon="2.96321">
        <ele>186.2</ele>
        <time>2017-04-16T04:56:50.000Z</time>
      </trkpt>
      <trkpt lat="43.57214" lon="2.96326">
        <ele>185.4</ele>
        <time>2017-04-16T04:56:51.000Z</time>
      </trkpt>
      <trkpt lat="43.57213" lon="2.96332">
        <ele>184.6</ele>
        <time>2017-04-16T04:56:52.000Z</time>
      </trkpt>
      <trkpt lat="43.57211" lon="2.96345">
        <ele>182.8</ele>
        <time>2017-04-16T04:56:54.000Z</time>
      </trkpt>
      <trkpt lat="43.57209" lon="2.96351">
        <ele>182.2</ele>
        <time>2017-04-16T04:56:55.000Z</time>
      </trkpt>
      <trkpt lat="43.57206" lon="2.96359">
        <ele>181.4</ele>
        <time>2017-04-16T04:56:56.000Z</time>
      </trkpt>
      <trkpt lat="43.57203" lon="2.96374">
        <ele>179.8</ele>
        <time>2017-04-16T04:56:58.000Z</time>
      </trkpt>
      <trkpt lat="43.572" lon="2.96389">
        <ele>178.4</ele>
        <time>2017-04-16T04:57:00.000Z</time>
      </trkpt>
      <trkpt lat="43.57199" lon="2.96397">
        <ele>177.8</ele>
        <time>2017-04-16T04:57:01.000Z</time>
      </trkpt>
      <trkpt lat="43.57195" lon="2.96414">
        <ele>176.6</ele>
        <time>2017-04-16T04:57:03.000Z</time>
      </trkpt>
      <trkpt lat="43.57193" lon="2.9644">
        <ele>175.2</ele>
        <time>2017-04-16T04:57:06.000Z</time>
      </trkpt>
      <trkpt lat="43.57192" lon="2.96448">
        <ele>174.6</ele>
        <time>2017-04-16T04:57:07.000Z</time>
      </trkpt>
      <trkpt lat="43.57188" lon="2.96465">
        <ele>173.6</ele>
        <time>2017-04-16T04:57:09.000Z</time>
      </trkpt>
      <trkpt lat="43.57183" lon="2.96483">
        <ele>172.8</ele>
        <time>2017-04-16T04:57:11.000Z</time>
      </trkpt>
      <trkpt lat="43.57181" lon="2.96492">
        <ele>172.2</ele>
        <time>2017-04-16T04:57:12.000Z</time>
      </trkpt>
      <trkpt lat="43.57177" lon="2.96509">
        <ele>171.2</ele>
        <time>2017-04-16T04:57:14.000Z</time>
      </trkpt>
      <trkpt lat="43.57175" lon="2.96519">
        <ele>170.4</ele>
        <time>2017-04-16T04:57:15.000Z</time>
      </trkpt>
      <trkpt lat="43.5717" lon="2.9654">
        <ele>168.8</ele>
        <time>2017-04-16T04:57:17.000Z</time>
      </trkpt>
      <trkpt lat="43.57169" lon="2.9655">
        <ele>168</ele>
        <time>2017-04-16T04:57:18.000Z</time>
      </trkpt>
      <trkpt lat="43.57169" lon="2.96559">
        <ele>167</ele>
        <time>2017-04-16T04:57:19.000Z</time>
      </trkpt>
      <trkpt lat="43.57171" lon="2.96574">
        <ele>165.2</ele>
        <time>2017-04-16T04:57:21.000Z</time>
      </trkpt>
      <trkpt lat="43.57176" lon="2.96589">
        <ele>163.2</ele>
        <time>2017-04-16T04:57:23.000Z</time>
      </trkpt>
      <trkpt lat="43.57179" lon="2.96601">
        <ele>161.2</ele>
        <time>2017-04-16T04:57:25.000Z</time>
      </trkpt>
      <trkpt lat="43.57181" lon="2.96606">
        <ele>160.2</ele>
        <time>2017-04-16T04:57:26.000Z</time>
      </trkpt>
      <trkpt lat="43.57182" lon="2.96611">
        <ele>159.2</ele>
        <time>2017-04-16T04:57:27.000Z</time>
      </trkpt>
      <trkpt lat="43.57183" lon="2.96616">
        <ele>158.2</ele>
        <time>2017-04-16T04:57:28.000Z</time>
      </trkpt>
      <trkpt lat="43.57186" lon="2.96621">
        <ele>156.4</ele>
        <time>2017-04-16T04:57:30.000Z</time>
      </trkpt>
      <trkpt lat="43.57187" lon="2.96623">
        <ele>155.4</ele>
        <time>2017-04-16T04:57:31.000Z</time>
      </trkpt>
      <trkpt lat="43.57189" lon="2.96624">
        <ele>154.6</ele>
        <time>2017-04-16T04:57:32.000Z</time>
      </trkpt>
      <trkpt lat="43.57191" lon="2.96627">
        <ele>153.8</ele>
        <time>2017-04-16T04:57:33.000Z</time>
      </trkpt>
      <trkpt lat="43.57194" lon="2.9663">
        <ele>152.8</ele>
        <time>2017-04-16T04:57:34.000Z</time>
      </trkpt>
      <trkpt lat="43.57197" lon="2.96634">
        <ele>151.8</ele>
        <time>2017-04-16T04:57:35.000Z</time>
      </trkpt>
      <trkpt lat="43.57201" lon="2.96641">
        <ele>150</ele>
        <time>2017-04-16T04:57:37.000Z</time>
      </trkpt>
      <trkpt lat="43.57198" lon="2.96646">
        <ele>148.4</ele>
        <time>2017-04-16T04:57:39.000Z</time>
      </trkpt>
      <trkpt lat="43.57195" lon="2.96648">
        <ele>147.4</ele>
        <time>2017-04-16T04:57:40.000Z</time>
      </trkpt>
      <trkpt lat="43.57193" lon="2.9665">
        <ele>146.6</ele>
        <time>2017-04-16T04:57:41.000Z</time>
      </trkpt>
      <trkpt lat="43.57192" lon="2.96652">
        <ele>145.8</ele>
        <time>2017-04-16T04:57:42.000Z</time>
      </trkpt>
      <trkpt lat="43.57197" lon="2.96655">
        <ele>144.4</ele>
        <time>2017-04-16T04:57:44.000Z</time>
      </trkpt>
      <trkpt lat="43.572" lon="2.96655">
        <ele>143.6</ele>
        <time>2017-04-16T04:57:45.000Z</time>
      </trkpt>
      <trkpt lat="43.57204" lon="2.96655">
        <ele>141.8</ele>
        <time>2017-04-16T04:57:48.000Z</time>
      </trkpt>
      <trkpt lat="43.57206" lon="2.96654">
        <ele>140.8</ele>
        <time>2017-04-16T04:57:50.000Z</time>
      </trkpt>
      <trkpt lat="43.57208" lon="2.96653">
        <ele>140.4</ele>
        <time>2017-04-16T04:57:51.000Z</time>
      </trkpt>
      <trkpt lat="43.57208" lon="2.96649">
        <ele>139</ele>
        <time>2017-04-16T04:57:56.000Z</time>
      </trkpt>
      <trkpt lat="43.57206" lon="2.9665">
        <ele>138.8</ele>
        <time>2017-04-16T04:57:57.000Z</time>
      </trkpt>
      <trkpt lat="43.57203" lon="2.96653">
        <ele>138</ele>
        <time>2017-04-16T04:58:02.000Z</time>
      </trkpt>
      <trkpt lat="43.57203" lon="2.96653">
        <ele>137.8</ele>
        <time>2017-04-16T04:58:03.000Z</time>
      </trkpt>
      <trkpt lat="43.57205" lon="2.96653">
        <ele>137.6</ele>
        <time>2017-04-16T04:58:06.000Z</time>
      </trkpt>
      <trkpt lat="43.57205" lon="2.96653">
        <ele>137.4</ele>
        <time>2017-04-16T04:58:08.000Z</time>
      </trkpt>
      <trkpt lat="43.57205" lon="2.96655">
        <ele>137.2</ele>
        <time>2017-04-16T04:58:17.000Z</time>
      </trkpt>
      <trkpt lat="43.57204" lon="2.96655">
        <ele>137</ele>
        <time>2017-04-16T04:58:19.000Z</time>
      </trkpt>
      <trkpt lat="43.57204" lon="2.96646">
        <ele>136.8</ele>
        <time>2017-04-16T05:00:12.000Z</time>
      </trkpt>
      <trkpt lat="43.57204" lon="2.96647">
        <ele>136.8</ele>
        <time>2017-04-16T05:00:14.000Z</time>
      </trkpt>
      <trkpt lat="43.57198" lon="2.96656">
        <ele>136.8</ele>
        <time>2017-04-16T05:08:01.000Z</time>
      </trkpt>
      <trkpt lat="43.57197" lon="2.96656">
        <ele>136.8</ele>
        <time>2017-04-16T05:08:02.000Z</time>
      </trkpt>
      <trkpt lat="43.57183" lon="2.96658">
        <ele>136.8</ele>
        <time>2017-04-16T05:08:07.000Z</time>
      </trkpt>
      <trkpt lat="43.5716" lon="2.96665">
        <ele>136.8</ele>
        <time>2017-04-16T05:08:13.000Z</time>
      </trkpt>
      <trkpt lat="43.57149" lon="2.96661">
        <ele>136.8</ele>
        <time>2017-04-16T05:08:20.000Z</time>
      </trkpt>
      <trkpt lat="43.57139" lon="2.96654">
        <ele>136.8</ele>
        <time>2017-04-16T05:08:27.000Z</time>
      </trkpt>
      <trkpt lat="43.57138" lon="2.96654">
        <ele>136.8</ele>
        <time>2017-04-16T05:08:28.000Z</time>
      </trkpt>
      <trkpt lat="43.57137" lon="2.96657">
        <ele>136.8</ele>
        <time>2017-04-16T05:08:42.000Z</time>
      </trkpt>
      <trkpt lat="43.57133" lon="2.96655">
        <ele>136.8</ele>
        <time>2017-04-16T05:08:45.000Z</time>
      </trkpt>
      <trkpt lat="43.57117" lon="2.96645">
        <ele>136.8</ele>
        <time>2017-04-16T05:08:52.000Z</time>
      </trkpt>
      <trkpt lat="43.57101" lon="2.96638">
        <ele>136.8</ele>
        <time>2017-04-16T05:08:58.000Z</time>
      </trkpt>
      <trkpt lat="43.57086" lon="2.96637">
        <ele>136.8</ele>
        <time>2017-04-16T05:09:02.000Z</time>
      </trkpt>
      <trkpt lat="43.57082" lon="2.96639">
        <ele>136.8</ele>
        <time>2017-04-16T05:09:03.000Z</time>
      </trkpt>
      <trkpt lat="43.57063" lon="2.96655">
        <ele>136.8</ele>
        <time>2017-04-16T05:09:08.000Z</time>
      </trkpt>
      <trkpt lat="43.57048" lon="2.96673">
        <ele>136.8</ele>
        <time>2017-04-16T05:09:11.000Z</time>
      </trkpt>
      <trkpt lat="43.57035" lon="2.96685">
        <ele>136.6</ele>
        <time>2017-04-16T05:09:13.000Z</time>
      </trkpt>
      <trkpt lat="43.57029" lon="2.96689">
        <ele>136.6</ele>
        <time>2017-04-16T05:09:14.000Z</time>
      </trkpt>
      <trkpt lat="43.57023" lon="2.96691">
        <ele>136.4</ele>
        <time>2017-04-16T05:09:15.000Z</time>
      </trkpt>
      <trkpt lat="43.57012" lon="2.96688">
        <ele>136</ele>
        <time>2017-04-16T05:09:17.000Z</time>
      </trkpt>
      <trkpt lat="43.57008" lon="2.96684">
        <ele>136</ele>
        <time>2017-04-16T05:09:18.000Z</time>
      </trkpt>
      <trkpt lat="43.57001" lon="2.96664">
        <ele>135.2</ele>
        <time>2017-04-16T05:09:21.000Z</time>
      </trkpt>
      <trkpt lat="43.56999" lon="2.96658">
        <ele>134.8</ele>
        <time>2017-04-16T05:09:22.000Z</time>
      </trkpt>
      <trkpt lat="43.5699" lon="2.96636">
        <ele>134.4</ele>
        <time>2017-04-16T05:09:25.000Z</time>
      </trkpt>
      <trkpt lat="43.56985" lon="2.9662">
        <ele>134</ele>
        <time>2017-04-16T05:09:27.000Z</time>
      </trkpt>
      <trkpt lat="43.56968" lon="2.96584">
        <ele>133.4</ele>
        <time>2017-04-16T05:09:32.000Z</time>
      </trkpt>
      <trkpt lat="43.56961" lon="2.9657">
        <ele>132.8</ele>
        <time>2017-04-16T05:09:34.000Z</time>
      </trkpt>
      <trkpt lat="43.56954" lon="2.96557">
        <ele>132.4</ele>
        <time>2017-04-16T05:09:36.000Z</time>
      </trkpt>
      <trkpt lat="43.56948" lon="2.96545">
        <ele>132.2</ele>
        <time>2017-04-16T05:09:38.000Z</time>
      </trkpt>
      <trkpt lat="43.56943" lon="2.96533">
        <ele>132</ele>
        <time>2017-04-16T05:09:40.000Z</time>
      </trkpt>
      <trkpt lat="43.5694" lon="2.96527">
        <ele>131.8</ele>
        <time>2017-04-16T05:09:41.000Z</time>
      </trkpt>
      <trkpt lat="43.56924" lon="2.96495">
        <ele>131.4</ele>
        <time>2017-04-16T05:09:47.000Z</time>
      </trkpt>
      <trkpt lat="43.56907" lon="2.96459">
        <ele>131</ele>
        <time>2017-04-16T05:09:54.000Z</time>
      </trkpt>
      <trkpt lat="43.56902" lon="2.9645">
        <ele>131</ele>
        <time>2017-04-16T05:09:56.000Z</time>
      </trkpt>
      <trkpt lat="43.56883" lon="2.96409">
        <ele>131</ele>
        <time>2017-04-16T05:10:04.000Z</time>
      </trkpt>
      <trkpt lat="43.56877" lon="2.96398">
        <ele>131</ele>
        <time>2017-04-16T05:10:06.000Z</time>
      </trkpt>
      <trkpt lat="43.56856" lon="2.96353">
        <ele>130.8</ele>
        <time>2017-04-16T05:10:14.000Z</time>
      </trkpt>
      <trkpt lat="43.56843" lon="2.96321">
        <ele>130.8</ele>
        <time>2017-04-16T05:10:19.000Z</time>
      </trkpt>
      <trkpt lat="43.56818" lon="2.96265">
        <ele>130.8</ele>
        <time>2017-04-16T05:10:27.000Z</time>
      </trkpt>
      <trkpt lat="43.56813" lon="2.96254">
        <ele>130.6</ele>
        <time>2017-04-16T05:10:29.000Z</time>
      </trkpt>
      <trkpt lat="43.56809" lon="2.96245">
        <ele>130.2</ele>
        <time>2017-04-16T05:10:30.000Z</time>
      </trkpt>
      <trkpt lat="43.56806" lon="2.96239">
        <ele>130.2</ele>
        <time>2017-04-16T05:10:31.000Z</time>
      </trkpt>
      <trkpt lat="43.56796" lon="2.96218">
        <ele>129.8</ele>
        <time>2017-04-16T05:10:34.000Z</time>
      </trkpt>
      <trkpt lat="43.56791" lon="2.96202">
        <ele>129.6</ele>
        <time>2017-04-16T05:10:36.000Z</time>
      </trkpt>
      <trkpt lat="43.56779" lon="2.96176">
        <ele>129.2</ele>
        <time>2017-04-16T05:10:40.000Z</time>
      </trkpt>
      <trkpt lat="43.56749" lon="2.96112">
        <ele>128.6</ele>
        <time>2017-04-16T05:10:50.000Z</time>
      </trkpt>
      <trkpt lat="43.56746" lon="2.96106">
        <ele>128.4</ele>
        <time>2017-04-16T05:10:51.000Z</time>
      </trkpt>
      <trkpt lat="43.56743" lon="2.961">
        <ele>128.2</ele>
        <time>2017-04-16T05:10:52.000Z</time>
      </trkpt>
      <trkpt lat="43.56737" lon="2.96087">
        <ele>128</ele>
        <time>2017-04-16T05:10:54.000Z</time>
      </trkpt>
      <trkpt lat="43.5673" lon="2.96074">
        <ele>127.8</ele>
        <time>2017-04-16T05:10:56.000Z</time>
      </trkpt>
      <trkpt lat="43.56723" lon="2.96062">
        <ele>127.6</ele>
        <time>2017-04-16T05:10:58.000Z</time>
      </trkpt>
      <trkpt lat="43.5672" lon="2.96056">
        <ele>127.4</ele>
        <time>2017-04-16T05:10:59.000Z</time>
      </trkpt>
      <trkpt lat="43.567" lon="2.96003">
        <ele>127</ele>
        <time>2017-04-16T05:11:07.000Z</time>
      </trkpt>
      <trkpt lat="43.56694" lon="2.95979">
        <ele>126.8</ele>
        <time>2017-04-16T05:11:11.000Z</time>
      </trkpt>
      <trkpt lat="43.56689" lon="2.95968">
        <ele>126.6</ele>
        <time>2017-04-16T05:11:13.000Z</time>
      </trkpt>
      <trkpt lat="43.56687" lon="2.95964">
        <ele>126.4</ele>
        <time>2017-04-16T05:11:14.000Z</time>
      </trkpt>
      <trkpt lat="43.5668" lon="2.95959">
        <ele>125.8</ele>
        <time>2017-04-16T05:11:17.000Z</time>
      </trkpt>
      <trkpt lat="43.56676" lon="2.95957">
        <ele>125.6</ele>
        <time>2017-04-16T05:11:19.000Z</time>
      </trkpt>
      <trkpt lat="43.56676" lon="2.95958">
        <ele>125.4</ele>
        <time>2017-04-16T05:11:21.000Z</time>
      </trkpt>
      <trkpt lat="43.56676" lon="2.95958">
        <ele>125</ele>
        <time>2017-04-16T05:11:28.000Z</time>
      </trkpt>
      <trkpt lat="43.56672" lon="2.95959">
        <ele>124.8</ele>
        <time>2017-04-16T05:11:30.000Z</time>
      </trkpt>
      <trkpt lat="43.56656" lon="2.95967">
        <ele>124.8</ele>
        <time>2017-04-16T05:11:34.000Z</time>
      </trkpt>
      <trkpt lat="43.56628" lon="2.95972">
        <ele>124.6</ele>
        <time>2017-04-16T05:11:40.000Z</time>
      </trkpt>
      <trkpt lat="43.56623" lon="2.95971">
        <ele>124.6</ele>
        <time>2017-04-16T05:11:41.000Z</time>
      </trkpt>
      <trkpt lat="43.56606" lon="2.95969">
        <ele>124.6</ele>
        <time>2017-04-16T05:11:45.000Z</time>
      </trkpt>
      <trkpt lat="43.56598" lon="2.95969">
        <ele>124.4</ele>
        <time>2017-04-16T05:11:47.000Z</time>
      </trkpt>
      <trkpt lat="43.56593" lon="2.95964">
        <ele>124</ele>
        <time>2017-04-16T05:11:49.000Z</time>
      </trkpt>
      <trkpt lat="43.56593" lon="2.95952">
        <ele>123.6</ele>
        <time>2017-04-16T05:11:51.000Z</time>
      </trkpt>
      <trkpt lat="43.56595" lon="2.95942">
        <ele>123.6</ele>
        <time>2017-04-16T05:11:52.000Z</time>
      </trkpt>
      <trkpt lat="43.56596" lon="2.95931">
        <ele>123.2</ele>
        <time>2017-04-16T05:11:53.000Z</time>
      </trkpt>
      <trkpt lat="43.56595" lon="2.95906">
        <ele>122.2</ele>
        <time>2017-04-16T05:11:55.000Z</time>
      </trkpt>
      <trkpt lat="43.56587" lon="2.95881">
        <ele>121</ele>
        <time>2017-04-16T05:11:57.000Z</time>
      </trkpt>
      <trkpt lat="43.56575" lon="2.95863">
        <ele>119.8</ele>
        <time>2017-04-16T05:11:59.000Z</time>
      </trkpt>
      <trkpt lat="43.56567" lon="2.95856">
        <ele>119</ele>
        <time>2017-04-16T05:12:00.000Z</time>
      </trkpt>
      <trkpt lat="43.56559" lon="2.95848">
        <ele>118.4</ele>
        <time>2017-04-16T05:12:01.000Z</time>
      </trkpt>
      <trkpt lat="43.56534" lon="2.95826">
        <ele>116.2</ele>
        <time>2017-04-16T05:12:04.000Z</time>
      </trkpt>
      <trkpt lat="43.56527" lon="2.95797">
        <ele>114.6</ele>
        <time>2017-04-16T05:12:06.000Z</time>
      </trkpt>
      <trkpt lat="43.56525" lon="2.95781">
        <ele>113.8</ele>
        <time>2017-04-16T05:12:07.000Z</time>
      </trkpt>
      <trkpt lat="43.56518" lon="2.95753">
        <ele>112.2</ele>
        <time>2017-04-16T05:12:09.000Z</time>
      </trkpt>
      <trkpt lat="43.56513" lon="2.95735">
        <ele>111.2</ele>
        <time>2017-04-16T05:12:10.000Z</time>
      </trkpt>
      <trkpt lat="43.56512" lon="2.95717">
        <ele>110.4</ele>
        <time>2017-04-16T05:12:11.000Z</time>
      </trkpt>
      <trkpt lat="43.5651" lon="2.95702">
        <ele>109.6</ele>
        <time>2017-04-16T05:12:12.000Z</time>
      </trkpt>
      <trkpt lat="43.5651" lon="2.95687">
        <ele>108.8</ele>
        <time>2017-04-16T05:12:13.000Z</time>
      </trkpt>
      <trkpt lat="43.56509" lon="2.95672">
        <ele>107.8</ele>
        <time>2017-04-16T05:12:14.000Z</time>
      </trkpt>
      <trkpt lat="43.56506" lon="2.95658">
        <ele>107</ele>
        <time>2017-04-16T05:12:15.000Z</time>
      </trkpt>
      <trkpt lat="43.56503" lon="2.95644">
        <ele>106</ele>
        <time>2017-04-16T05:12:16.000Z</time>
      </trkpt>
      <trkpt lat="43.56488" lon="2.95619">
        <ele>104.2</ele>
        <time>2017-04-16T05:12:18.000Z</time>
      </trkpt>
      <trkpt lat="43.56481" lon="2.95607">
        <ele>103.2</ele>
        <time>2017-04-16T05:12:19.000Z</time>
      </trkpt>
      <trkpt lat="43.56474" lon="2.95596">
        <ele>102.2</ele>
        <time>2017-04-16T05:12:20.000Z</time>
      </trkpt>
      <trkpt lat="43.56468" lon="2.95586">
        <ele>101.2</ele>
        <time>2017-04-16T05:12:21.000Z</time>
      </trkpt>
      <trkpt lat="43.56468" lon="2.95571">
        <ele>99.2</ele>
        <time>2017-04-16T05:12:23.000Z</time>
      </trkpt>
      <trkpt lat="43.5646" lon="2.95562">
        <ele>97.2</ele>
        <time>2017-04-16T05:12:25.000Z</time>
      </trkpt>
      <trkpt lat="43.56451" lon="2.95569">
        <ele>96.2</ele>
        <time>2017-04-16T05:12:26.000Z</time>
      </trkpt>
      <trkpt lat="43.56435" lon="2.95584">
        <ele>94.4</ele>
        <time>2017-04-16T05:12:28.000Z</time>
      </trkpt>
      <trkpt lat="43.56423" lon="2.95594">
        <ele>92.6</ele>
        <time>2017-04-16T05:12:30.000Z</time>
      </trkpt>
      <trkpt lat="43.56417" lon="2.95599">
        <ele>91.8</ele>
        <time>2017-04-16T05:12:31.000Z</time>
      </trkpt>
      <trkpt lat="43.56411" lon="2.95604">
        <ele>91.2</ele>
        <time>2017-04-16T05:12:32.000Z</time>
      </trkpt>
      <trkpt lat="43.564" lon="2.95612">
        <ele>90</ele>
        <time>2017-04-16T05:12:34.000Z</time>
      </trkpt>
      <trkpt lat="43.56394" lon="2.95615">
        <ele>89.6</ele>
        <time>2017-04-16T05:12:35.000Z</time>
      </trkpt>
      <trkpt lat="43.56386" lon="2.95618">
        <ele>89</ele>
        <time>2017-04-16T05:12:36.000Z</time>
      </trkpt>
      <trkpt lat="43.56378" lon="2.95621">
        <ele>88.6</ele>
        <time>2017-04-16T05:12:37.000Z</time>
      </trkpt>
      <trkpt lat="43.56355" lon="2.95616">
        <ele>87.2</ele>
        <time>2017-04-16T05:12:41.000Z</time>
      </trkpt>
      <trkpt lat="43.56347" lon="2.95601">
        <ele>86.4</ele>
        <time>2017-04-16T05:12:43.000Z</time>
      </trkpt>
      <trkpt lat="43.56342" lon="2.95592">
        <ele>86</ele>
        <time>2017-04-16T05:12:44.000Z</time>
      </trkpt>
      <trkpt lat="43.56337" lon="2.95583">
        <ele>85.6</ele>
        <time>2017-04-16T05:12:45.000Z</time>
      </trkpt>
      <trkpt lat="43.56332" lon="2.95576">
        <ele>85.4</ele>
        <time>2017-04-16T05:12:46.000Z</time>
      </trkpt>
      <trkpt lat="43.56326" lon="2.95568">
        <ele>85.2</ele>
        <time>2017-04-16T05:12:47.000Z</time>
      </trkpt>
      <trkpt lat="43.56316" lon="2.95555">
        <ele>84.8</ele>
        <time>2017-04-16T05:12:49.000Z</time>
      </trkpt>
      <trkpt lat="43.56304" lon="2.95538">
        <ele>84.2</ele>
        <time>2017-04-16T05:12:52.000Z</time>
      </trkpt>
      <trkpt lat="43.56302" lon="2.95508">
        <ele>83.8</ele>
        <time>2017-04-16T05:12:56.000Z</time>
      </trkpt>
      <trkpt lat="43.56308" lon="2.955">
        <ele>83.6</ele>
        <time>2017-04-16T05:12:58.000Z</time>
      </trkpt>
      <trkpt lat="43.56323" lon="2.95481">
        <ele>83.2</ele>
        <time>2017-04-16T05:13:04.000Z</time>
      </trkpt>
      <trkpt lat="43.56331" lon="2.95469">
        <ele>83.2</ele>
        <time>2017-04-16T05:13:10.000Z</time>
      </trkpt>
      <trkpt lat="43.56334" lon="2.95464">
        <ele>83.6</ele>
        <time>2017-04-16T05:13:12.000Z</time>
      </trkpt>
      <trkpt lat="43.56337" lon="2.9546">
        <ele>83.8</ele>
        <time>2017-04-16T05:13:14.000Z</time>
      </trkpt>
      <trkpt lat="43.56339" lon="2.95455">
        <ele>84</ele>
        <time>2017-04-16T05:13:16.000Z</time>
      </trkpt>
      <trkpt lat="43.56341" lon="2.9545">
        <ele>84.2</ele>
        <time>2017-04-16T05:13:18.000Z</time>
      </trkpt>
      <trkpt lat="43.56342" lon="2.95448">
        <ele>84.4</ele>
        <time>2017-04-16T05:13:19.000Z</time>
      </trkpt>
      <trkpt lat="43.56343" lon="2.95444">
        <ele>85</ele>
        <time>2017-04-16T05:13:21.000Z</time>
      </trkpt>
      <trkpt lat="43.56344" lon="2.9544">
        <ele>85.4</ele>
        <time>2017-04-16T05:13:23.000Z</time>
      </trkpt>
      <trkpt lat="43.56344" lon="2.95438">
        <ele>85.6</ele>
        <time>2017-04-16T05:13:24.000Z</time>
      </trkpt>
      <trkpt lat="43.56343" lon="2.95434">
        <ele>86.6</ele>
        <time>2017-04-16T05:13:27.000Z</time>
      </trkpt>
      <trkpt lat="43.56343" lon="2.9543">
        <ele>87</ele>
        <time>2017-04-16T05:13:29.000Z</time>
      </trkpt>
      <trkpt lat="43.56341" lon="2.95426">
        <ele>87.4</ele>
        <time>2017-04-16T05:13:31.000Z</time>
      </trkpt>
      <trkpt lat="43.5634" lon="2.95424">
        <ele>87.6</ele>
        <time>2017-04-16T05:13:32.000Z</time>
      </trkpt>
      <trkpt lat="43.56335" lon="2.95418">
        <ele>88.4</ele>
        <time>2017-04-16T05:13:36.000Z</time>
      </trkpt>
      <trkpt lat="43.56334" lon="2.95415">
        <ele>89</ele>
        <time>2017-04-16T05:13:38.000Z</time>
      </trkpt>
      <trkpt lat="43.56332" lon="2.95411">
        <ele>89.4</ele>
        <time>2017-04-16T05:13:40.000Z</time>
      </trkpt>
      <trkpt lat="43.5633" lon="2.95407">
        <ele>89.8</ele>
        <time>2017-04-16T05:13:42.000Z</time>
      </trkpt>
      <trkpt lat="43.56328" lon="2.95403">
        <ele>90.2</ele>
        <time>2017-04-16T05:13:44.000Z</time>
      </trkpt>
      <trkpt lat="43.56325" lon="2.95396">
        <ele>90.8</ele>
        <time>2017-04-16T05:13:47.000Z</time>
      </trkpt>
      <trkpt lat="43.56323" lon="2.95392">
        <ele>91.2</ele>
        <time>2017-04-16T05:13:49.000Z</time>
      </trkpt>
      <trkpt lat="43.5632" lon="2.95388">
        <ele>91.8</ele>
        <time>2017-04-16T05:13:51.000Z</time>
      </trkpt>
      <trkpt lat="43.56317" lon="2.95385">
        <ele>92</ele>
        <time>2017-04-16T05:13:53.000Z</time>
      </trkpt>
      <trkpt lat="43.56315" lon="2.9538">
        <ele>92.4</ele>
        <time>2017-04-16T05:13:55.000Z</time>
      </trkpt>
      <trkpt lat="43.56311" lon="2.95372">
        <ele>92.8</ele>
        <time>2017-04-16T05:13:58.000Z</time>
      </trkpt>
      <trkpt lat="43.56307" lon="2.95366">
        <ele>93.4</ele>
        <time>2017-04-16T05:14:00.000Z</time>
      </trkpt>
      <trkpt lat="43.56303" lon="2.95361">
        <ele>93.8</ele>
        <time>2017-04-16T05:14:02.000Z</time>
      </trkpt>
      <trkpt lat="43.563" lon="2.95353">
        <ele>94.2</ele>
        <time>2017-04-16T05:14:04.000Z</time>
      </trkpt>
      <trkpt lat="43.56297" lon="2.95346">
        <ele>94.6</ele>
        <time>2017-04-16T05:14:06.000Z</time>
      </trkpt>
      <trkpt lat="43.56283" lon="2.95318">
        <ele>95.2</ele>
        <time>2017-04-16T05:14:15.000Z</time>
      </trkpt>
      <trkpt lat="43.56286" lon="2.95303">
        <ele>95.4</ele>
        <time>2017-04-16T05:14:19.000Z</time>
      </trkpt>
      <trkpt lat="43.56299" lon="2.9529">
        <ele>95.8</ele>
        <time>2017-04-16T05:14:24.000Z</time>
      </trkpt>
      <trkpt lat="43.56304" lon="2.95281">
        <ele>96.2</ele>
        <time>2017-04-16T05:14:26.000Z</time>
      </trkpt>
      <trkpt lat="43.56307" lon="2.95273">
        <ele>96.6</ele>
        <time>2017-04-16T05:14:28.000Z</time>
      </trkpt>
      <trkpt lat="43.56309" lon="2.95265">
        <ele>96.8</ele>
        <time>2017-04-16T05:14:30.000Z</time>
      </trkpt>
      <trkpt lat="43.56309" lon="2.9526">
        <ele>97</ele>
        <time>2017-04-16T05:14:31.000Z</time>
      </trkpt>
      <trkpt lat="43.56307" lon="2.95257">
        <ele>97</ele>
        <time>2017-04-16T05:14:32.000Z</time>
      </trkpt>
      <trkpt lat="43.563" lon="2.95251">
        <ele>97.2</ele>
        <time>2017-04-16T05:14:34.000Z</time>
      </trkpt>
      <trkpt lat="43.56283" lon="2.95247">
        <ele>97.6</ele>
        <time>2017-04-16T05:14:40.000Z</time>
      </trkpt>
      <trkpt lat="43.56272" lon="2.95237">
        <ele>97.6</ele>
        <time>2017-04-16T05:14:46.000Z</time>
      </trkpt>
      <trkpt lat="43.56267" lon="2.95228">
        <ele>98</ele>
        <time>2017-04-16T05:14:49.000Z</time>
      </trkpt>
      <trkpt lat="43.56263" lon="2.95223">
        <ele>98.4</ele>
        <time>2017-04-16T05:14:51.000Z</time>
      </trkpt>
      <trkpt lat="43.5626" lon="2.9522">
        <ele>98.6</ele>
        <time>2017-04-16T05:14:53.000Z</time>
      </trkpt>
      <trkpt lat="43.56257" lon="2.95216">
        <ele>99</ele>
        <time>2017-04-16T05:14:55.000Z</time>
      </trkpt>
      <trkpt lat="43.56254" lon="2.95212">
        <ele>99.4</ele>
        <time>2017-04-16T05:14:57.000Z</time>
      </trkpt>
      <trkpt lat="43.56251" lon="2.9521">
        <ele>99.6</ele>
        <time>2017-04-16T05:14:58.000Z</time>
      </trkpt>
      <trkpt lat="43.56243" lon="2.95207">
        <ele>100.4</ele>
        <time>2017-04-16T05:15:01.000Z</time>
      </trkpt>
      <trkpt lat="43.56241" lon="2.95206">
        <ele>100.6</ele>
        <time>2017-04-16T05:15:02.000Z</time>
      </trkpt>
      <trkpt lat="43.56233" lon="2.95202">
        <ele>101</ele>
        <time>2017-04-16T05:15:05.000Z</time>
      </trkpt>
      <trkpt lat="43.56219" lon="2.95191">
        <ele>101.6</ele>
        <time>2017-04-16T05:15:11.000Z</time>
      </trkpt>
      <trkpt lat="43.56217" lon="2.95189">
        <ele>101.6</ele>
        <time>2017-04-16T05:15:12.000Z</time>
      </trkpt>
      <trkpt lat="43.56209" lon="2.95174">
        <ele>101.8</ele>
        <time>2017-04-16T05:15:18.000Z</time>
      </trkpt>
      <trkpt lat="43.56203" lon="2.95163">
        <ele>102.2</ele>
        <time>2017-04-16T05:15:22.000Z</time>
      </trkpt>
      <trkpt lat="43.56202" lon="2.9516">
        <ele>102.4</ele>
        <time>2017-04-16T05:15:23.000Z</time>
      </trkpt>
      <trkpt lat="43.56202" lon="2.9515">
        <ele>103</ele>
        <time>2017-04-16T05:15:26.000Z</time>
      </trkpt>
      <trkpt lat="43.56205" lon="2.95146">
        <ele>103.2</ele>
        <time>2017-04-16T05:15:28.000Z</time>
      </trkpt>
      <trkpt lat="43.56206" lon="2.95144">
        <ele>103.2</ele>
        <time>2017-04-16T05:15:29.000Z</time>
      </trkpt>
      <trkpt lat="43.56208" lon="2.95143">
        <ele>103.4</ele>
        <time>2017-04-16T05:15:30.000Z</time>
      </trkpt>
      <trkpt lat="43.56214" lon="2.95135">
        <ele>103.8</ele>
        <time>2017-04-16T05:15:33.000Z</time>
      </trkpt>
      <trkpt lat="43.56214" lon="2.95133">
        <ele>104</ele>
        <time>2017-04-16T05:15:34.000Z</time>
      </trkpt>
      <trkpt lat="43.56215" lon="2.9513">
        <ele>104.4</ele>
        <time>2017-04-16T05:15:35.000Z</time>
      </trkpt>
      <trkpt lat="43.56216" lon="2.95125">
        <ele>104.6</ele>
        <time>2017-04-16T05:15:37.000Z</time>
      </trkpt>
      <trkpt lat="43.56218" lon="2.95119">
        <ele>105</ele>
        <time>2017-04-16T05:15:39.000Z</time>
      </trkpt>
      <trkpt lat="43.56218" lon="2.95117">
        <ele>105.2</ele>
        <time>2017-04-16T05:15:40.000Z</time>
      </trkpt>
      <trkpt lat="43.56219" lon="2.95114">
        <ele>105.4</ele>
        <time>2017-04-16T05:15:41.000Z</time>
      </trkpt>
      <trkpt lat="43.56221" lon="2.95108">
        <ele>106</ele>
        <time>2017-04-16T05:15:43.000Z</time>
      </trkpt>
      <trkpt lat="43.56223" lon="2.95103">
        <ele>106.4</ele>
        <time>2017-04-16T05:15:45.000Z</time>
      </trkpt>
      <trkpt lat="43.56224" lon="2.95098">
        <ele>106.8</ele>
        <time>2017-04-16T05:15:47.000Z</time>
      </trkpt>
      <trkpt lat="43.56226" lon="2.95093">
        <ele>107</ele>
        <time>2017-04-16T05:15:49.000Z</time>
      </trkpt>
      <trkpt lat="43.56227" lon="2.95091">
        <ele>107.4</ele>
        <time>2017-04-16T05:15:50.000Z</time>
      </trkpt>
      <trkpt lat="43.56228" lon="2.95086">
        <ele>108</ele>
        <time>2017-04-16T05:15:52.000Z</time>
      </trkpt>
      <trkpt lat="43.5623" lon="2.95082">
        <ele>108.4</ele>
        <time>2017-04-16T05:15:54.000Z</time>
      </trkpt>
      <trkpt lat="43.56231" lon="2.95077">
        <ele>108.8</ele>
        <time>2017-04-16T05:15:56.000Z</time>
      </trkpt>
      <trkpt lat="43.56233" lon="2.95073">
        <ele>109.2</ele>
        <time>2017-04-16T05:15:58.000Z</time>
      </trkpt>
      <trkpt lat="43.56234" lon="2.95071">
        <ele>109.2</ele>
        <time>2017-04-16T05:15:59.000Z</time>
      </trkpt>
      <trkpt lat="43.56235" lon="2.95067">
        <ele>109.6</ele>
        <time>2017-04-16T05:16:01.000Z</time>
      </trkpt>
      <trkpt lat="43.56236" lon="2.95062">
        <ele>110.2</ele>
        <time>2017-04-16T05:16:03.000Z</time>
      </trkpt>
      <trkpt lat="43.56237" lon="2.95059">
        <ele>110.4</ele>
        <time>2017-04-16T05:16:04.000Z</time>
      </trkpt>
      <trkpt lat="43.56238" lon="2.95051">
        <ele>111</ele>
        <time>2017-04-16T05:16:07.000Z</time>
      </trkpt>
      <trkpt lat="43.56239" lon="2.95046">
        <ele>111.4</ele>
        <time>2017-04-16T05:16:09.000Z</time>
      </trkpt>
      <trkpt lat="43.56239" lon="2.95043">
        <ele>111.4</ele>
        <time>2017-04-16T05:16:10.000Z</time>
      </trkpt>
      <trkpt lat="43.56241" lon="2.95035">
        <ele>112</ele>
        <time>2017-04-16T05:16:13.000Z</time>
      </trkpt>
      <trkpt lat="43.56241" lon="2.9503">
        <ele>112.4</ele>
        <time>2017-04-16T05:16:15.000Z</time>
      </trkpt>
      <trkpt lat="43.56242" lon="2.95025">
        <ele>112.8</ele>
        <time>2017-04-16T05:16:17.000Z</time>
      </trkpt>
      <trkpt lat="43.56242" lon="2.9502">
        <ele>113.2</ele>
        <time>2017-04-16T05:16:19.000Z</time>
      </trkpt>
      <trkpt lat="43.56241" lon="2.95016">
        <ele>113.6</ele>
        <time>2017-04-16T05:16:21.000Z</time>
      </trkpt>
      <trkpt lat="43.56242" lon="2.95009">
        <ele>114</ele>
        <time>2017-04-16T05:16:24.000Z</time>
      </trkpt>
      <trkpt lat="43.5624" lon="2.95005">
        <ele>114.6</ele>
        <time>2017-04-16T05:16:26.000Z</time>
      </trkpt>
      <trkpt lat="43.56239" lon="2.95">
        <ele>115</ele>
        <time>2017-04-16T05:16:28.000Z</time>
      </trkpt>
      <trkpt lat="43.56238" lon="2.94995">
        <ele>115.2</ele>
        <time>2017-04-16T05:16:30.000Z</time>
      </trkpt>
      <trkpt lat="43.56238" lon="2.9499">
        <ele>115.6</ele>
        <time>2017-04-16T05:16:32.000Z</time>
      </trkpt>
      <trkpt lat="43.56239" lon="2.94978">
        <ele>116.2</ele>
        <time>2017-04-16T05:16:37.000Z</time>
      </trkpt>
      <trkpt lat="43.56239" lon="2.94974">
        <ele>116.8</ele>
        <time>2017-04-16T05:16:39.000Z</time>
      </trkpt>
      <trkpt lat="43.56241" lon="2.94969">
        <ele>117</ele>
        <time>2017-04-16T05:16:41.000Z</time>
      </trkpt>
      <trkpt lat="43.56242" lon="2.94964">
        <ele>117.4</ele>
        <time>2017-04-16T05:16:43.000Z</time>
      </trkpt>
      <trkpt lat="43.56242" lon="2.94959">
        <ele>117.6</ele>
        <time>2017-04-16T05:16:45.000Z</time>
      </trkpt>
      <trkpt lat="43.56243" lon="2.94949">
        <ele>118.2</ele>
        <time>2017-04-16T05:16:49.000Z</time>
      </trkpt>
      <trkpt lat="43.56244" lon="2.94944">
        <ele>118.8</ele>
        <time>2017-04-16T05:16:51.000Z</time>
      </trkpt>
      <trkpt lat="43.56243" lon="2.94939">
        <ele>119.2</ele>
        <time>2017-04-16T05:16:53.000Z</time>
      </trkpt>
      <trkpt lat="43.56242" lon="2.94935">
        <ele>119.4</ele>
        <time>2017-04-16T05:16:55.000Z</time>
      </trkpt>
      <trkpt lat="43.56241" lon="2.9493">
        <ele>119.8</ele>
        <time>2017-04-16T05:16:57.000Z</time>
      </trkpt>
      <trkpt lat="43.56241" lon="2.94928">
        <ele>120</ele>
        <time>2017-04-16T05:16:58.000Z</time>
      </trkpt>
      <trkpt lat="43.5624" lon="2.94922">
        <ele>120.6</ele>
        <time>2017-04-16T05:17:00.000Z</time>
      </trkpt>
      <trkpt lat="43.56239" lon="2.94917">
        <ele>121.2</ele>
        <time>2017-04-16T05:17:02.000Z</time>
      </trkpt>
      <trkpt lat="43.56239" lon="2.94913">
        <ele>121.4</ele>
        <time>2017-04-16T05:17:04.000Z</time>
      </trkpt>
      <trkpt lat="43.5624" lon="2.9491">
        <ele>121.8</ele>
        <time>2017-04-16T05:17:06.000Z</time>
      </trkpt>
      <trkpt lat="43.5624" lon="2.94906">
        <ele>122.2</ele>
        <time>2017-04-16T05:17:08.000Z</time>
      </trkpt>
      <trkpt lat="43.5624" lon="2.94901">
        <ele>122.8</ele>
        <time>2017-04-16T05:17:10.000Z</time>
      </trkpt>
      <trkpt lat="43.5624" lon="2.94897">
        <ele>123.2</ele>
        <time>2017-04-16T05:17:12.000Z</time>
      </trkpt>
      <trkpt lat="43.56239" lon="2.94893">
        <ele>123.6</ele>
        <time>2017-04-16T05:17:14.000Z</time>
      </trkpt>
      <trkpt lat="43.56239" lon="2.94888">
        <ele>124</ele>
        <time>2017-04-16T05:17:16.000Z</time>
      </trkpt>
      <trkpt lat="43.56239" lon="2.94879">
        <ele>124.6</ele>
        <time>2017-04-16T05:17:20.000Z</time>
      </trkpt>
      <trkpt lat="43.56239" lon="2.94876">
        <ele>124.8</ele>
        <time>2017-04-16T05:17:21.000Z</time>
      </trkpt>
      <trkpt lat="43.56239" lon="2.94874">
        <ele>125</ele>
        <time>2017-04-16T05:17:22.000Z</time>
      </trkpt>
      <trkpt lat="43.56238" lon="2.9487">
        <ele>125.6</ele>
        <time>2017-04-16T05:17:24.000Z</time>
      </trkpt>
      <trkpt lat="43.56238" lon="2.94868">
        <ele>125.6</ele>
        <time>2017-04-16T05:17:25.000Z</time>
      </trkpt>
      <trkpt lat="43.56237" lon="2.94865">
        <ele>125.8</ele>
        <time>2017-04-16T05:17:26.000Z</time>
      </trkpt>
      <trkpt lat="43.56235" lon="2.94861">
        <ele>126.2</ele>
        <time>2017-04-16T05:17:28.000Z</time>
      </trkpt>
      <trkpt lat="43.56233" lon="2.94846">
        <ele>126.6</ele>
        <time>2017-04-16T05:17:34.000Z</time>
      </trkpt>
      <trkpt lat="43.56233" lon="2.94844">
        <ele>127</ele>
        <time>2017-04-16T05:17:35.000Z</time>
      </trkpt>
      <trkpt lat="43.56232" lon="2.94838">
        <ele>127.4</ele>
        <time>2017-04-16T05:17:37.000Z</time>
      </trkpt>
      <trkpt lat="43.56233" lon="2.94833">
        <ele>127.8</ele>
        <time>2017-04-16T05:17:39.000Z</time>
      </trkpt>
      <trkpt lat="43.56234" lon="2.94828">
        <ele>128.2</ele>
        <time>2017-04-16T05:17:41.000Z</time>
      </trkpt>
      <trkpt lat="43.56236" lon="2.94823">
        <ele>128.4</ele>
        <time>2017-04-16T05:17:43.000Z</time>
      </trkpt>
      <trkpt lat="43.5624" lon="2.94812">
        <ele>129.2</ele>
        <time>2017-04-16T05:17:48.000Z</time>
      </trkpt>
      <trkpt lat="43.56239" lon="2.94808">
        <ele>129.6</ele>
        <time>2017-04-16T05:17:50.000Z</time>
      </trkpt>
      <trkpt lat="43.56239" lon="2.94803">
        <ele>130</ele>
        <time>2017-04-16T05:17:52.000Z</time>
      </trkpt>
      <trkpt lat="43.56239" lon="2.94799">
        <ele>130.4</ele>
        <time>2017-04-16T05:17:54.000Z</time>
      </trkpt>
      <trkpt lat="43.5624" lon="2.94795">
        <ele>130.6</ele>
        <time>2017-04-16T05:17:56.000Z</time>
      </trkpt>
      <trkpt lat="43.56241" lon="2.94791">
        <ele>131</ele>
        <time>2017-04-16T05:17:58.000Z</time>
      </trkpt>
      <trkpt lat="43.56241" lon="2.94789">
        <ele>131.2</ele>
        <time>2017-04-16T05:17:59.000Z</time>
      </trkpt>
      <trkpt lat="43.5624" lon="2.94788">
        <ele>131.6</ele>
        <time>2017-04-16T05:18:00.000Z</time>
      </trkpt>
      <trkpt lat="43.56238" lon="2.94787">
        <ele>132</ele>
        <time>2017-04-16T05:18:02.000Z</time>
      </trkpt>
      <trkpt lat="43.56235" lon="2.94788">
        <ele>132.4</ele>
        <time>2017-04-16T05:18:04.000Z</time>
      </trkpt>
      <trkpt lat="43.56233" lon="2.94789">
        <ele>132.6</ele>
        <time>2017-04-16T05:18:05.000Z</time>
      </trkpt>
      <trkpt lat="43.56228" lon="2.94805">
        <ele>133.2</ele>
        <time>2017-04-16T05:18:12.000Z</time>
      </trkpt>
      <trkpt lat="43.56228" lon="2.94808">
        <ele>133.6</ele>
        <time>2017-04-16T05:18:13.000Z</time>
      </trkpt>
      <trkpt lat="43.56226" lon="2.94812">
        <ele>134</ele>
        <time>2017-04-16T05:18:15.000Z</time>
      </trkpt>
      <trkpt lat="43.56225" lon="2.94816">
        <ele>134.4</ele>
        <time>2017-04-16T05:18:17.000Z</time>
      </trkpt>
      <trkpt lat="43.56222" lon="2.94819">
        <ele>134.6</ele>
        <time>2017-04-16T05:18:19.000Z</time>
      </trkpt>
      <trkpt lat="43.5622" lon="2.94822">
        <ele>135</ele>
        <time>2017-04-16T05:18:21.000Z</time>
      </trkpt>
      <trkpt lat="43.56215" lon="2.9483">
        <ele>135.6</ele>
        <time>2017-04-16T05:18:25.000Z</time>
      </trkpt>
      <trkpt lat="43.56212" lon="2.94834">
        <ele>136</ele>
        <time>2017-04-16T05:18:27.000Z</time>
      </trkpt>
      <trkpt lat="43.5621" lon="2.94837">
        <ele>136.4</ele>
        <time>2017-04-16T05:18:29.000Z</time>
      </trkpt>
      <trkpt lat="43.56207" lon="2.9484">
        <ele>136.6</ele>
        <time>2017-04-16T05:18:31.000Z</time>
      </trkpt>
      <trkpt lat="43.56204" lon="2.94844">
        <ele>137</ele>
        <time>2017-04-16T05:18:33.000Z</time>
      </trkpt>
      <trkpt lat="43.56199" lon="2.94851">
        <ele>137.6</ele>
        <time>2017-04-16T05:18:37.000Z</time>
      </trkpt>
      <trkpt lat="43.56197" lon="2.94854">
        <ele>138</ele>
        <time>2017-04-16T05:18:39.000Z</time>
      </trkpt>
      <trkpt lat="43.56195" lon="2.94859">
        <ele>138.4</ele>
        <time>2017-04-16T05:18:41.000Z</time>
      </trkpt>
      <trkpt lat="43.56194" lon="2.94863">
        <ele>138.8</ele>
        <time>2017-04-16T05:18:43.000Z</time>
      </trkpt>
      <trkpt lat="43.56193" lon="2.94867">
        <ele>139</ele>
        <time>2017-04-16T05:18:45.000Z</time>
      </trkpt>
      <trkpt lat="43.56192" lon="2.94869">
        <ele>139.4</ele>
        <time>2017-04-16T05:18:46.000Z</time>
      </trkpt>
      <trkpt lat="43.5619" lon="2.94874">
        <ele>139.8</ele>
        <time>2017-04-16T05:18:48.000Z</time>
      </trkpt>
      <trkpt lat="43.56187" lon="2.94879">
        <ele>140.4</ele>
        <time>2017-04-16T05:18:50.000Z</time>
      </trkpt>
      <trkpt lat="43.56184" lon="2.94884">
        <ele>140.6</ele>
        <time>2017-04-16T05:18:52.000Z</time>
      </trkpt>
      <trkpt lat="43.56182" lon="2.94888">
        <ele>141</ele>
        <time>2017-04-16T05:18:54.000Z</time>
      </trkpt>
      <trkpt lat="43.56179" lon="2.94893">
        <ele>141.6</ele>
        <time>2017-04-16T05:18:57.000Z</time>
      </trkpt>
      <trkpt lat="43.56177" lon="2.94897">
        <ele>142.2</ele>
        <time>2017-04-16T05:18:59.000Z</time>
      </trkpt>
      <trkpt lat="43.56175" lon="2.94899">
        <ele>142.6</ele>
        <time>2017-04-16T05:19:01.000Z</time>
      </trkpt>
      <trkpt lat="43.56172" lon="2.94902">
        <ele>143</ele>
        <time>2017-04-16T05:19:03.000Z</time>
      </trkpt>
      <trkpt lat="43.56169" lon="2.94903">
        <ele>143.2</ele>
        <time>2017-04-16T05:19:05.000Z</time>
      </trkpt>
      <trkpt lat="43.56158" lon="2.94911">
        <ele>144</ele>
        <time>2017-04-16T05:19:12.000Z</time>
      </trkpt>
      <trkpt lat="43.56154" lon="2.94916">
        <ele>144.4</ele>
        <time>2017-04-16T05:19:15.000Z</time>
      </trkpt>
      <trkpt lat="43.56152" lon="2.94919">
        <ele>144.8</ele>
        <time>2017-04-16T05:19:17.000Z</time>
      </trkpt>
      <trkpt lat="43.56149" lon="2.94922">
        <ele>145.2</ele>
        <time>2017-04-16T05:19:19.000Z</time>
      </trkpt>
      <trkpt lat="43.56147" lon="2.94926">
        <ele>145.4</ele>
        <time>2017-04-16T05:19:21.000Z</time>
      </trkpt>
      <trkpt lat="43.56144" lon="2.94929">
        <ele>145.6</ele>
        <time>2017-04-16T05:19:23.000Z</time>
      </trkpt>
      <trkpt lat="43.56141" lon="2.94932">
        <ele>146</ele>
        <time>2017-04-16T05:19:25.000Z</time>
      </trkpt>
      <trkpt lat="43.56137" lon="2.94935">
        <ele>146.6</ele>
        <time>2017-04-16T05:19:27.000Z</time>
      </trkpt>
      <trkpt lat="43.56133" lon="2.94938">
        <ele>147</ele>
        <time>2017-04-16T05:19:29.000Z</time>
      </trkpt>
      <trkpt lat="43.56129" lon="2.9494">
        <ele>147.4</ele>
        <time>2017-04-16T05:19:31.000Z</time>
      </trkpt>
      <trkpt lat="43.56126" lon="2.94942">
        <ele>147.6</ele>
        <time>2017-04-16T05:19:33.000Z</time>
      </trkpt>
      <trkpt lat="43.5612" lon="2.94944">
        <ele>148.2</ele>
        <time>2017-04-16T05:19:37.000Z</time>
      </trkpt>
      <trkpt lat="43.56117" lon="2.94946">
        <ele>148.8</ele>
        <time>2017-04-16T05:19:39.000Z</time>
      </trkpt>
      <trkpt lat="43.56114" lon="2.94949">
        <ele>149.2</ele>
        <time>2017-04-16T05:19:41.000Z</time>
      </trkpt>
      <trkpt lat="43.56111" lon="2.94951">
        <ele>149.4</ele>
        <time>2017-04-16T05:19:43.000Z</time>
      </trkpt>
      <trkpt lat="43.56108" lon="2.94954">
        <ele>149.8</ele>
        <time>2017-04-16T05:19:45.000Z</time>
      </trkpt>
      <trkpt lat="43.56107" lon="2.94955">
        <ele>150</ele>
        <time>2017-04-16T05:19:46.000Z</time>
      </trkpt>
      <trkpt lat="43.56103" lon="2.94957">
        <ele>150.6</ele>
        <time>2017-04-16T05:19:48.000Z</time>
      </trkpt>
      <trkpt lat="43.56099" lon="2.94959">
        <ele>151</ele>
        <time>2017-04-16T05:19:50.000Z</time>
      </trkpt>
      <trkpt lat="43.56096" lon="2.9496">
        <ele>151.4</ele>
        <time>2017-04-16T05:19:52.000Z</time>
      </trkpt>
      <trkpt lat="43.56092" lon="2.94962">
        <ele>151.6</ele>
        <time>2017-04-16T05:19:54.000Z</time>
      </trkpt>
      <trkpt lat="43.56086" lon="2.94966">
        <ele>152.2</ele>
        <time>2017-04-16T05:19:58.000Z</time>
      </trkpt>
      <trkpt lat="43.56084" lon="2.94969">
        <ele>152.8</ele>
        <time>2017-04-16T05:20:00.000Z</time>
      </trkpt>
      <trkpt lat="43.56082" lon="2.94974">
        <ele>153.2</ele>
        <time>2017-04-16T05:20:02.000Z</time>
      </trkpt>
      <trkpt lat="43.5608" lon="2.94979">
        <ele>153.6</ele>
        <time>2017-04-16T05:20:04.000Z</time>
      </trkpt>
      <trkpt lat="43.56077" lon="2.94984">
        <ele>153.8</ele>
        <time>2017-04-16T05:20:06.000Z</time>
      </trkpt>
      <trkpt lat="43.56073" lon="2.94991">
        <ele>154.6</ele>
        <time>2017-04-16T05:20:10.000Z</time>
      </trkpt>
      <trkpt lat="43.56071" lon="2.94993">
        <ele>155</ele>
        <time>2017-04-16T05:20:12.000Z</time>
      </trkpt>
      <trkpt lat="43.5607" lon="2.94994">
        <ele>155.2</ele>
        <time>2017-04-16T05:20:13.000Z</time>
      </trkpt>
      <trkpt lat="43.56069" lon="2.94995">
        <ele>155.4</ele>
        <time>2017-04-16T05:20:14.000Z</time>
      </trkpt>
      <trkpt lat="43.56066" lon="2.94998">
        <ele>155.8</ele>
        <time>2017-04-16T05:20:16.000Z</time>
      </trkpt>
      <trkpt lat="43.56065" lon="2.95">
        <ele>156</ele>
        <time>2017-04-16T05:20:17.000Z</time>
      </trkpt>
      <trkpt lat="43.56064" lon="2.95002">
        <ele>156.2</ele>
        <time>2017-04-16T05:20:18.000Z</time>
      </trkpt>
      <trkpt lat="43.56062" lon="2.95009">
        <ele>156.6</ele>
        <time>2017-04-16T05:20:21.000Z</time>
      </trkpt>
      <trkpt lat="43.5606" lon="2.95015">
        <ele>157.2</ele>
        <time>2017-04-16T05:20:23.000Z</time>
      </trkpt>
      <trkpt lat="43.56058" lon="2.9502">
        <ele>157.6</ele>
        <time>2017-04-16T05:20:25.000Z</time>
      </trkpt>
      <trkpt lat="43.56056" lon="2.95024">
        <ele>158</ele>
        <time>2017-04-16T05:20:27.000Z</time>
      </trkpt>
      <trkpt lat="43.56054" lon="2.95028">
        <ele>158.2</ele>
        <time>2017-04-16T05:20:29.000Z</time>
      </trkpt>
      <trkpt lat="43.56053" lon="2.9503">
        <ele>158.6</ele>
        <time>2017-04-16T05:20:30.000Z</time>
      </trkpt>
      <trkpt lat="43.56051" lon="2.95034">
        <ele>159.2</ele>
        <time>2017-04-16T05:20:32.000Z</time>
      </trkpt>
      <trkpt lat="43.56049" lon="2.95038">
        <ele>159.6</ele>
        <time>2017-04-16T05:20:34.000Z</time>
      </trkpt>
      <trkpt lat="43.56046" lon="2.95042">
        <ele>160</ele>
        <time>2017-04-16T05:20:36.000Z</time>
      </trkpt>
      <trkpt lat="43.56044" lon="2.95046">
        <ele>160.2</ele>
        <time>2017-04-16T05:20:38.000Z</time>
      </trkpt>
      <trkpt lat="43.56039" lon="2.95054">
        <ele>160.8</ele>
        <time>2017-04-16T05:20:42.000Z</time>
      </trkpt>
      <trkpt lat="43.56036" lon="2.95058">
        <ele>161.4</ele>
        <time>2017-04-16T05:20:44.000Z</time>
      </trkpt>
      <trkpt lat="43.56034" lon="2.95062">
        <ele>161.8</ele>
        <time>2017-04-16T05:20:46.000Z</time>
      </trkpt>
      <trkpt lat="43.56032" lon="2.95066">
        <ele>162.2</ele>
        <time>2017-04-16T05:20:48.000Z</time>
      </trkpt>
      <trkpt lat="43.56031" lon="2.95068">
        <ele>162.4</ele>
        <time>2017-04-16T05:20:50.000Z</time>
      </trkpt>
      <trkpt lat="43.56024" lon="2.95077">
        <ele>163.2</ele>
        <time>2017-04-16T05:20:56.000Z</time>
      </trkpt>
      <trkpt lat="43.56021" lon="2.95079">
        <ele>163.6</ele>
        <time>2017-04-16T05:20:58.000Z</time>
      </trkpt>
      <trkpt lat="43.56018" lon="2.95083">
        <ele>164</ele>
        <time>2017-04-16T05:21:00.000Z</time>
      </trkpt>
      <trkpt lat="43.56014" lon="2.95087">
        <ele>164.4</ele>
        <time>2017-04-16T05:21:02.000Z</time>
      </trkpt>
      <trkpt lat="43.5601" lon="2.9509">
        <ele>164.6</ele>
        <time>2017-04-16T05:21:04.000Z</time>
      </trkpt>
      <trkpt lat="43.56007" lon="2.95093">
        <ele>165</ele>
        <time>2017-04-16T05:21:06.000Z</time>
      </trkpt>
      <trkpt lat="43.56004" lon="2.95094">
        <ele>165.6</ele>
        <time>2017-04-16T05:21:08.000Z</time>
      </trkpt>
      <trkpt lat="43.56001" lon="2.95096">
        <ele>166</ele>
        <time>2017-04-16T05:21:10.000Z</time>
      </trkpt>
      <trkpt lat="43.55998" lon="2.95098">
        <ele>166.4</ele>
        <time>2017-04-16T05:21:12.000Z</time>
      </trkpt>
      <trkpt lat="43.55995" lon="2.95101">
        <ele>166.6</ele>
        <time>2017-04-16T05:21:14.000Z</time>
      </trkpt>
      <trkpt lat="43.55984" lon="2.9511">
        <ele>167.2</ele>
        <time>2017-04-16T05:21:20.000Z</time>
      </trkpt>
      <trkpt lat="43.55982" lon="2.95111">
        <ele>167.6</ele>
        <time>2017-04-16T05:21:21.000Z</time>
      </trkpt>
      <trkpt lat="43.55979" lon="2.95114">
        <ele>168</ele>
        <time>2017-04-16T05:21:23.000Z</time>
      </trkpt>
      <trkpt lat="43.55975" lon="2.95116">
        <ele>168.4</ele>
        <time>2017-04-16T05:21:25.000Z</time>
      </trkpt>
      <trkpt lat="43.55972" lon="2.95117">
        <ele>168.8</ele>
        <time>2017-04-16T05:21:27.000Z</time>
      </trkpt>
      <trkpt lat="43.55968" lon="2.95118">
        <ele>169</ele>
        <time>2017-04-16T05:21:29.000Z</time>
      </trkpt>
      <trkpt lat="43.55958" lon="2.9512">
        <ele>169.6</ele>
        <time>2017-04-16T05:21:34.000Z</time>
      </trkpt>
      <trkpt lat="43.55954" lon="2.9512">
        <ele>170.2</ele>
        <time>2017-04-16T05:21:36.000Z</time>
      </trkpt>
      <trkpt lat="43.55951" lon="2.9512">
        <ele>170.6</ele>
        <time>2017-04-16T05:21:38.000Z</time>
      </trkpt>
      <trkpt lat="43.55947" lon="2.95121">
        <ele>170.8</ele>
        <time>2017-04-16T05:21:40.000Z</time>
      </trkpt>
      <trkpt lat="43.55943" lon="2.95121">
        <ele>171.2</ele>
        <time>2017-04-16T05:21:42.000Z</time>
      </trkpt>
      <trkpt lat="43.55939" lon="2.95121">
        <ele>171.4</ele>
        <time>2017-04-16T05:21:44.000Z</time>
      </trkpt>
      <trkpt lat="43.55934" lon="2.9512">
        <ele>172.2</ele>
        <time>2017-04-16T05:21:47.000Z</time>
      </trkpt>
      <trkpt lat="43.55931" lon="2.95118">
        <ele>172.6</ele>
        <time>2017-04-16T05:21:49.000Z</time>
      </trkpt>
      <trkpt lat="43.55929" lon="2.95116">
        <ele>172.8</ele>
        <time>2017-04-16T05:21:51.000Z</time>
      </trkpt>
      <trkpt lat="43.55926" lon="2.95113">
        <ele>173.2</ele>
        <time>2017-04-16T05:21:53.000Z</time>
      </trkpt>
      <trkpt lat="43.55923" lon="2.95107">
        <ele>173.8</ele>
        <time>2017-04-16T05:21:56.000Z</time>
      </trkpt>
      <trkpt lat="43.5592" lon="2.95103">
        <ele>174.2</ele>
        <time>2017-04-16T05:21:58.000Z</time>
      </trkpt>
      <trkpt lat="43.55918" lon="2.95098">
        <ele>174.8</ele>
        <time>2017-04-16T05:22:00.000Z</time>
      </trkpt>
      <trkpt lat="43.55917" lon="2.95092">
        <ele>175.2</ele>
        <time>2017-04-16T05:22:02.000Z</time>
      </trkpt>
      <trkpt lat="43.55916" lon="2.95087">
        <ele>175.4</ele>
        <time>2017-04-16T05:22:04.000Z</time>
      </trkpt>
      <trkpt lat="43.55914" lon="2.95078">
        <ele>176</ele>
        <time>2017-04-16T05:22:08.000Z</time>
      </trkpt>
      <trkpt lat="43.55914" lon="2.95074">
        <ele>176.6</ele>
        <time>2017-04-16T05:22:10.000Z</time>
      </trkpt>
      <trkpt lat="43.55913" lon="2.95069">
        <ele>177</ele>
        <time>2017-04-16T05:22:12.000Z</time>
      </trkpt>
      <trkpt lat="43.55912" lon="2.95064">
        <ele>177.4</ele>
        <time>2017-04-16T05:22:14.000Z</time>
      </trkpt>
      <trkpt lat="43.55912" lon="2.95059">
        <ele>177.6</ele>
        <time>2017-04-16T05:22:16.000Z</time>
      </trkpt>
      <trkpt lat="43.55913" lon="2.95039">
        <ele>178.4</ele>
        <time>2017-04-16T05:22:22.000Z</time>
      </trkpt>
      <trkpt lat="43.55912" lon="2.95034">
        <ele>178.8</ele>
        <time>2017-04-16T05:22:24.000Z</time>
      </trkpt>
      <trkpt lat="43.55912" lon="2.95028">
        <ele>179.2</ele>
        <time>2017-04-16T05:22:26.000Z</time>
      </trkpt>
      <trkpt lat="43.55912" lon="2.95023">
        <ele>179.4</ele>
        <time>2017-04-16T05:22:28.000Z</time>
      </trkpt>
      <trkpt lat="43.55912" lon="2.95021">
        <ele>179.6</ele>
        <time>2017-04-16T05:22:29.000Z</time>
      </trkpt>
      <trkpt lat="43.55913" lon="2.95019">
        <ele>179.6</ele>
        <time>2017-04-16T05:22:30.000Z</time>
      </trkpt>
      <trkpt lat="43.55916" lon="2.95013">
        <ele>180.2</ele>
        <time>2017-04-16T05:22:33.000Z</time>
      </trkpt>
      <trkpt lat="43.5592" lon="2.9501">
        <ele>180.6</ele>
        <time>2017-04-16T05:22:35.000Z</time>
      </trkpt>
      <trkpt lat="43.55923" lon="2.95007">
        <ele>181</ele>
        <time>2017-04-16T05:22:37.000Z</time>
      </trkpt>
      <trkpt lat="43.55926" lon="2.95004">
        <ele>181.4</ele>
        <time>2017-04-16T05:22:39.000Z</time>
      </trkpt>
      <trkpt lat="43.55929" lon="2.95002">
        <ele>181.8</ele>
        <time>2017-04-16T05:22:41.000Z</time>
      </trkpt>
      <trkpt lat="43.55932" lon="2.94999">
        <ele>182.4</ele>
        <time>2017-04-16T05:22:43.000Z</time>
      </trkpt>
      <trkpt lat="43.55935" lon="2.94996">
        <ele>182.8</ele>
        <time>2017-04-16T05:22:45.000Z</time>
      </trkpt>
      <trkpt lat="43.55938" lon="2.94993">
        <ele>183.2</ele>
        <time>2017-04-16T05:22:47.000Z</time>
      </trkpt>
      <trkpt lat="43.55941" lon="2.94989">
        <ele>183.6</ele>
        <time>2017-04-16T05:22:49.000Z</time>
      </trkpt>
      <trkpt lat="43.5595" lon="2.9498">
        <ele>184.4</ele>
        <time>2017-04-16T05:22:55.000Z</time>
      </trkpt>
      <trkpt lat="43.55953" lon="2.94976">
        <ele>185</ele>
        <time>2017-04-16T05:22:57.000Z</time>
      </trkpt>
      <trkpt lat="43.55956" lon="2.94973">
        <ele>185.4</ele>
        <time>2017-04-16T05:22:59.000Z</time>
      </trkpt>
      <trkpt lat="43.5596" lon="2.94969">
        <ele>185.6</ele>
        <time>2017-04-16T05:23:01.000Z</time>
      </trkpt>
      <trkpt lat="43.55963" lon="2.94966">
        <ele>186</ele>
        <time>2017-04-16T05:23:03.000Z</time>
      </trkpt>
      <trkpt lat="43.55971" lon="2.94955">
        <ele>186.6</ele>
        <time>2017-04-16T05:23:09.000Z</time>
      </trkpt>
      <trkpt lat="43.55974" lon="2.94951">
        <ele>187.2</ele>
        <time>2017-04-16T05:23:11.000Z</time>
      </trkpt>
      <trkpt lat="43.55977" lon="2.94948">
        <ele>187.6</ele>
        <time>2017-04-16T05:23:13.000Z</time>
      </trkpt>
      <trkpt lat="43.55979" lon="2.94944">
        <ele>187.8</ele>
        <time>2017-04-16T05:23:15.000Z</time>
      </trkpt>
      <trkpt lat="43.55982" lon="2.94941">
        <ele>188</ele>
        <time>2017-04-16T05:23:17.000Z</time>
      </trkpt>
      <trkpt lat="43.55991" lon="2.94931">
        <ele>188.6</ele>
        <time>2017-04-16T05:23:24.000Z</time>
      </trkpt>
      <trkpt lat="43.55995" lon="2.94925">
        <ele>189</ele>
        <time>2017-04-16T05:23:27.000Z</time>
      </trkpt>
      <trkpt lat="43.55998" lon="2.94921">
        <ele>189.4</ele>
        <time>2017-04-16T05:23:29.000Z</time>
      </trkpt>
      <trkpt lat="43.56" lon="2.94917">
        <ele>189.8</ele>
        <time>2017-04-16T05:23:31.000Z</time>
      </trkpt>
      <trkpt lat="43.56002" lon="2.94912">
        <ele>190</ele>
        <time>2017-04-16T05:23:33.000Z</time>
      </trkpt>
      <trkpt lat="43.56004" lon="2.94907">
        <ele>190.2</ele>
        <time>2017-04-16T05:23:35.000Z</time>
      </trkpt>
      <trkpt lat="43.56006" lon="2.949">
        <ele>190.8</ele>
        <time>2017-04-16T05:23:38.000Z</time>
      </trkpt>
      <trkpt lat="43.56007" lon="2.94899">
        <ele>191</ele>
        <time>2017-04-16T05:23:39.000Z</time>
      </trkpt>
      <trkpt lat="43.56008" lon="2.94897">
        <ele>191.2</ele>
        <time>2017-04-16T05:23:40.000Z</time>
      </trkpt>
      <trkpt lat="43.56009" lon="2.94895">
        <ele>191.6</ele>
        <time>2017-04-16T05:23:42.000Z</time>
      </trkpt>
      <trkpt lat="43.56009" lon="2.94896">
        <ele>193.2</ele>
        <time>2017-04-16T05:24:36.000Z</time>
      </trkpt>
      <trkpt lat="43.56009" lon="2.94897">
        <ele>193.2</ele>
        <time>2017-04-16T05:24:38.000Z</time>
      </trkpt>
      <trkpt lat="43.56008" lon="2.94898">
        <ele>193.2</ele>
        <time>2017-04-16T05:24:40.000Z</time>
      </trkpt>
      <trkpt lat="43.56007" lon="2.94893">
        <ele>193.2</ele>
        <time>2017-04-16T05:24:45.000Z</time>
      </trkpt>
      <trkpt lat="43.56008" lon="2.94888">
        <ele>193.2</ele>
        <time>2017-04-16T05:24:48.000Z</time>
      </trkpt>
      <trkpt lat="43.56007" lon="2.94877">
        <ele>193.6</ele>
        <time>2017-04-16T05:24:55.000Z</time>
      </trkpt>
      <trkpt lat="43.56006" lon="2.94874">
        <ele>193.8</ele>
        <time>2017-04-16T05:24:57.000Z</time>
      </trkpt>
      <trkpt lat="43.56006" lon="2.9487">
        <ele>194.2</ele>
        <time>2017-04-16T05:24:59.000Z</time>
      </trkpt>
      <trkpt lat="43.56005" lon="2.94867">
        <ele>194.4</ele>
        <time>2017-04-16T05:25:01.000Z</time>
      </trkpt>
      <trkpt lat="43.56004" lon="2.94863">
        <ele>194.6</ele>
        <time>2017-04-16T05:25:03.000Z</time>
      </trkpt>
      <trkpt lat="43.56004" lon="2.94861">
        <ele>194.8</ele>
        <time>2017-04-16T05:25:04.000Z</time>
      </trkpt>
      <trkpt lat="43.56001" lon="2.9485">
        <ele>195</ele>
        <time>2017-04-16T05:25:10.000Z</time>
      </trkpt>
      <trkpt lat="43.56001" lon="2.94849">
        <ele>195.4</ele>
        <time>2017-04-16T05:25:11.000Z</time>
      </trkpt>
      <trkpt lat="43.56" lon="2.94847">
        <ele>195.6</ele>
        <time>2017-04-16T05:25:12.000Z</time>
      </trkpt>
      <trkpt lat="43.56" lon="2.94844">
        <ele>196</ele>
        <time>2017-04-16T05:25:14.000Z</time>
      </trkpt>
      <trkpt lat="43.55998" lon="2.9484">
        <ele>196.4</ele>
        <time>2017-04-16T05:25:17.000Z</time>
      </trkpt>
      <trkpt lat="43.55998" lon="2.94836">
        <ele>196.6</ele>
        <time>2017-04-16T05:25:19.000Z</time>
      </trkpt>
      <trkpt lat="43.55995" lon="2.94823">
        <ele>197.4</ele>
        <time>2017-04-16T05:25:26.000Z</time>
      </trkpt>
      <trkpt lat="43.55995" lon="2.94819">
        <ele>197.8</ele>
        <time>2017-04-16T05:25:28.000Z</time>
      </trkpt>
      <trkpt lat="43.55994" lon="2.94815">
        <ele>198.2</ele>
        <time>2017-04-16T05:25:30.000Z</time>
      </trkpt>
      <trkpt lat="43.55993" lon="2.94811">
        <ele>198.4</ele>
        <time>2017-04-16T05:25:32.000Z</time>
      </trkpt>
      <trkpt lat="43.55992" lon="2.94807">
        <ele>198.6</ele>
        <time>2017-04-16T05:25:34.000Z</time>
      </trkpt>
      <trkpt lat="43.55987" lon="2.94791">
        <ele>199.2</ele>
        <time>2017-04-16T05:25:42.000Z</time>
      </trkpt>
      <trkpt lat="43.55985" lon="2.94779">
        <ele>199.6</ele>
        <time>2017-04-16T05:25:47.000Z</time>
      </trkpt>
      <trkpt lat="43.55984" lon="2.94775">
        <ele>200</ele>
        <time>2017-04-16T05:25:49.000Z</time>
      </trkpt>
      <trkpt lat="43.55983" lon="2.94773">
        <ele>200.4</ele>
        <time>2017-04-16T05:25:51.000Z</time>
      </trkpt>
      <trkpt lat="43.55981" lon="2.9477">
        <ele>200.6</ele>
        <time>2017-04-16T05:25:53.000Z</time>
      </trkpt>
      <trkpt lat="43.5598" lon="2.94768">
        <ele>200.8</ele>
        <time>2017-04-16T05:25:55.000Z</time>
      </trkpt>
      <trkpt lat="43.55977" lon="2.94762">
        <ele>201.4</ele>
        <time>2017-04-16T05:26:00.000Z</time>
      </trkpt>
      <trkpt lat="43.55975" lon="2.94759">
        <ele>201.8</ele>
        <time>2017-04-16T05:26:02.000Z</time>
      </trkpt>
      <trkpt lat="43.55974" lon="2.94755">
        <ele>202.2</ele>
        <time>2017-04-16T05:26:04.000Z</time>
      </trkpt>
      <trkpt lat="43.55973" lon="2.94754">
        <ele>202.4</ele>
        <time>2017-04-16T05:26:05.000Z</time>
      </trkpt>
      <trkpt lat="43.55972" lon="2.94752">
        <ele>202.6</ele>
        <time>2017-04-16T05:26:06.000Z</time>
      </trkpt>
      <trkpt lat="43.5597" lon="2.94748">
        <ele>202.8</ele>
        <time>2017-04-16T05:26:08.000Z</time>
      </trkpt>
      <trkpt lat="43.55969" lon="2.94747">
        <ele>202.8</ele>
        <time>2017-04-16T05:26:09.000Z</time>
      </trkpt>
      <trkpt lat="43.55961" lon="2.94734">
        <ele>203.6</ele>
        <time>2017-04-16T05:26:16.000Z</time>
      </trkpt>
      <trkpt lat="43.5596" lon="2.94729">
        <ele>204</ele>
        <time>2017-04-16T05:26:18.000Z</time>
      </trkpt>
      <trkpt lat="43.55958" lon="2.94725">
        <ele>204.4</ele>
        <time>2017-04-16T05:26:20.000Z</time>
      </trkpt>
      <trkpt lat="43.55957" lon="2.94721">
        <ele>204.6</ele>
        <time>2017-04-16T05:26:22.000Z</time>
      </trkpt>
      <trkpt lat="43.55955" lon="2.94717">
        <ele>205</ele>
        <time>2017-04-16T05:26:24.000Z</time>
      </trkpt>
      <trkpt lat="43.55954" lon="2.94713">
        <ele>205.4</ele>
        <time>2017-04-16T05:26:26.000Z</time>
      </trkpt>
      <trkpt lat="43.55954" lon="2.94708">
        <ele>205.8</ele>
        <time>2017-04-16T05:26:28.000Z</time>
      </trkpt>
      <trkpt lat="43.55954" lon="2.94702">
        <ele>206.2</ele>
        <time>2017-04-16T05:26:30.000Z</time>
      </trkpt>
      <trkpt lat="43.55954" lon="2.94697">
        <ele>206.6</ele>
        <time>2017-04-16T05:26:32.000Z</time>
      </trkpt>
      <trkpt lat="43.55953" lon="2.94692">
        <ele>206.8</ele>
        <time>2017-04-16T05:26:34.000Z</time>
      </trkpt>
      <trkpt lat="43.55952" lon="2.94685">
        <ele>207.4</ele>
        <time>2017-04-16T05:26:37.000Z</time>
      </trkpt>
      <trkpt lat="43.5595" lon="2.94681">
        <ele>207.8</ele>
        <time>2017-04-16T05:26:39.000Z</time>
      </trkpt>
      <trkpt lat="43.55948" lon="2.94676">
        <ele>208.4</ele>
        <time>2017-04-16T05:26:41.000Z</time>
      </trkpt>
      <trkpt lat="43.55946" lon="2.94671">
        <ele>208.6</ele>
        <time>2017-04-16T05:26:43.000Z</time>
      </trkpt>
      <trkpt lat="43.55944" lon="2.94666">
        <ele>209</ele>
        <time>2017-04-16T05:26:45.000Z</time>
      </trkpt>
      <trkpt lat="43.55942" lon="2.94657">
        <ele>209.4</ele>
        <time>2017-04-16T05:26:48.000Z</time>
      </trkpt>
      <trkpt lat="43.55941" lon="2.94652">
        <ele>210</ele>
        <time>2017-04-16T05:26:50.000Z</time>
      </trkpt>
      <trkpt lat="43.5594" lon="2.94647">
        <ele>210.4</ele>
        <time>2017-04-16T05:26:52.000Z</time>
      </trkpt>
      <trkpt lat="43.55938" lon="2.94642">
        <ele>210.8</ele>
        <time>2017-04-16T05:26:54.000Z</time>
      </trkpt>
      <trkpt lat="43.55937" lon="2.94637">
        <ele>211</ele>
        <time>2017-04-16T05:26:56.000Z</time>
      </trkpt>
      <trkpt lat="43.55934" lon="2.94624">
        <ele>211.6</ele>
        <time>2017-04-16T05:27:01.000Z</time>
      </trkpt>
      <trkpt lat="43.55931" lon="2.94611">
        <ele>212</ele>
        <time>2017-04-16T05:27:06.000Z</time>
      </trkpt>
      <trkpt lat="43.55931" lon="2.94606">
        <ele>212.4</ele>
        <time>2017-04-16T05:27:08.000Z</time>
      </trkpt>
      <trkpt lat="43.5593" lon="2.94602">
        <ele>212.8</ele>
        <time>2017-04-16T05:27:10.000Z</time>
      </trkpt>
      <trkpt lat="43.55929" lon="2.94598">
        <ele>213.2</ele>
        <time>2017-04-16T05:27:12.000Z</time>
      </trkpt>
      <trkpt lat="43.55928" lon="2.94592">
        <ele>213.4</ele>
        <time>2017-04-16T05:27:14.000Z</time>
      </trkpt>
      <trkpt lat="43.55925" lon="2.94575">
        <ele>213.8</ele>
        <time>2017-04-16T05:27:19.000Z</time>
      </trkpt>
      <trkpt lat="43.55923" lon="2.94562">
        <ele>214.2</ele>
        <time>2017-04-16T05:27:24.000Z</time>
      </trkpt>
      <trkpt lat="43.55922" lon="2.94556">
        <ele>214.6</ele>
        <time>2017-04-16T05:27:26.000Z</time>
      </trkpt>
      <trkpt lat="43.55922" lon="2.9455">
        <ele>215</ele>
        <time>2017-04-16T05:27:28.000Z</time>
      </trkpt>
      <trkpt lat="43.55922" lon="2.94544">
        <ele>215.2</ele>
        <time>2017-04-16T05:27:30.000Z</time>
      </trkpt>
      <trkpt lat="43.55921" lon="2.94539">
        <ele>215.4</ele>
        <time>2017-04-16T05:27:32.000Z</time>
      </trkpt>
      <trkpt lat="43.55917" lon="2.94524">
        <ele>216</ele>
        <time>2017-04-16T05:27:38.000Z</time>
      </trkpt>
      <trkpt lat="43.55914" lon="2.94519">
        <ele>216.2</ele>
        <time>2017-04-16T05:27:40.000Z</time>
      </trkpt>
      <trkpt lat="43.55911" lon="2.94514">
        <ele>216.6</ele>
        <time>2017-04-16T05:27:42.000Z</time>
      </trkpt>
      <trkpt lat="43.55908" lon="2.94509">
        <ele>217</ele>
        <time>2017-04-16T05:27:44.000Z</time>
      </trkpt>
      <trkpt lat="43.55905" lon="2.94505">
        <ele>217.4</ele>
        <time>2017-04-16T05:27:46.000Z</time>
      </trkpt>
      <trkpt lat="43.55902" lon="2.945">
        <ele>217.6</ele>
        <time>2017-04-16T05:27:48.000Z</time>
      </trkpt>
      <trkpt lat="43.55896" lon="2.94492">
        <ele>218</ele>
        <time>2017-04-16T05:27:52.000Z</time>
      </trkpt>
      <trkpt lat="43.55893" lon="2.94487">
        <ele>218.6</ele>
        <time>2017-04-16T05:27:54.000Z</time>
      </trkpt>
      <trkpt lat="43.5589" lon="2.94483">
        <ele>219</ele>
        <time>2017-04-16T05:27:56.000Z</time>
      </trkpt>
      <trkpt lat="43.55887" lon="2.94478">
        <ele>219.2</ele>
        <time>2017-04-16T05:27:58.000Z</time>
      </trkpt>
      <trkpt lat="43.55884" lon="2.94474">
        <ele>219.6</ele>
        <time>2017-04-16T05:28:00.000Z</time>
      </trkpt>
      <trkpt lat="43.55881" lon="2.9447">
        <ele>220</ele>
        <time>2017-04-16T05:28:02.000Z</time>
      </trkpt>
      <trkpt lat="43.55878" lon="2.94466">
        <ele>220.4</ele>
        <time>2017-04-16T05:28:04.000Z</time>
      </trkpt>
      <trkpt lat="43.55874" lon="2.94463">
        <ele>220.8</ele>
        <time>2017-04-16T05:28:06.000Z</time>
      </trkpt>
      <trkpt lat="43.55871" lon="2.9446">
        <ele>221.2</ele>
        <time>2017-04-16T05:28:08.000Z</time>
      </trkpt>
      <trkpt lat="43.55868" lon="2.94457">
        <ele>221.4</ele>
        <time>2017-04-16T05:28:10.000Z</time>
      </trkpt>
      <trkpt lat="43.55857" lon="2.94448">
        <ele>222</ele>
        <time>2017-04-16T05:28:17.000Z</time>
      </trkpt>
      <trkpt lat="43.55856" lon="2.94447">
        <ele>222.4</ele>
        <time>2017-04-16T05:28:18.000Z</time>
      </trkpt>
      <trkpt lat="43.55852" lon="2.94444">
        <ele>222.8</ele>
        <time>2017-04-16T05:28:20.000Z</time>
      </trkpt>
      <trkpt lat="43.55849" lon="2.9444">
        <ele>223.2</ele>
        <time>2017-04-16T05:28:22.000Z</time>
      </trkpt>
      <trkpt lat="43.55845" lon="2.94437">
        <ele>223.6</ele>
        <time>2017-04-16T05:28:24.000Z</time>
      </trkpt>
      <trkpt lat="43.55842" lon="2.94434">
        <ele>223.8</ele>
        <time>2017-04-16T05:28:26.000Z</time>
      </trkpt>
      <trkpt lat="43.5583" lon="2.94428">
        <ele>224.4</ele>
        <time>2017-04-16T05:28:32.000Z</time>
      </trkpt>
      <trkpt lat="43.55825" lon="2.94426">
        <ele>225</ele>
        <time>2017-04-16T05:28:34.000Z</time>
      </trkpt>
      <trkpt lat="43.55821" lon="2.94425">
        <ele>225.4</ele>
        <time>2017-04-16T05:28:36.000Z</time>
      </trkpt>
      <trkpt lat="43.55816" lon="2.94423">
        <ele>225.6</ele>
        <time>2017-04-16T05:28:38.000Z</time>
      </trkpt>
      <trkpt lat="43.55811" lon="2.94423">
        <ele>226</ele>
        <time>2017-04-16T05:28:40.000Z</time>
      </trkpt>
      <trkpt lat="43.55806" lon="2.94422">
        <ele>226.4</ele>
        <time>2017-04-16T05:28:42.000Z</time>
      </trkpt>
      <trkpt lat="43.55801" lon="2.94422">
        <ele>226.8</ele>
        <time>2017-04-16T05:28:44.000Z</time>
      </trkpt>
      <trkpt lat="43.55796" lon="2.94421">
        <ele>227.4</ele>
        <time>2017-04-16T05:28:46.000Z</time>
      </trkpt>
      <trkpt lat="43.55791" lon="2.9442">
        <ele>227.6</ele>
        <time>2017-04-16T05:28:48.000Z</time>
      </trkpt>
      <trkpt lat="43.55787" lon="2.9442">
        <ele>228</ele>
        <time>2017-04-16T05:28:50.000Z</time>
      </trkpt>
      <trkpt lat="43.55777" lon="2.94422">
        <ele>228.6</ele>
        <time>2017-04-16T05:28:54.000Z</time>
      </trkpt>
      <trkpt lat="43.55772" lon="2.94423">
        <ele>229.2</ele>
        <time>2017-04-16T05:28:56.000Z</time>
      </trkpt>
      <trkpt lat="43.55768" lon="2.94424">
        <ele>229.6</ele>
        <time>2017-04-16T05:28:58.000Z</time>
      </trkpt>
      <trkpt lat="43.55764" lon="2.94424">
        <ele>230</ele>
        <time>2017-04-16T05:29:00.000Z</time>
      </trkpt>
      <trkpt lat="43.55759" lon="2.94424">
        <ele>230.2</ele>
        <time>2017-04-16T05:29:02.000Z</time>
      </trkpt>
      <trkpt lat="43.55754" lon="2.94423">
        <ele>230.8</ele>
        <time>2017-04-16T05:29:05.000Z</time>
      </trkpt>
      <trkpt lat="43.5575" lon="2.94424">
        <ele>231.2</ele>
        <time>2017-04-16T05:29:07.000Z</time>
      </trkpt>
      <trkpt lat="43.55746" lon="2.94424">
        <ele>231.8</ele>
        <time>2017-04-16T05:29:09.000Z</time>
      </trkpt>
      <trkpt lat="43.55742" lon="2.94425">
        <ele>232</ele>
        <time>2017-04-16T05:29:11.000Z</time>
      </trkpt>
      <trkpt lat="43.55738" lon="2.94427">
        <ele>232.4</ele>
        <time>2017-04-16T05:29:13.000Z</time>
      </trkpt>
      <trkpt lat="43.5573" lon="2.94428">
        <ele>233</ele>
        <time>2017-04-16T05:29:17.000Z</time>
      </trkpt>
      <trkpt lat="43.55727" lon="2.94428">
        <ele>233.6</ele>
        <time>2017-04-16T05:29:19.000Z</time>
      </trkpt>
      <trkpt lat="43.55723" lon="2.94426">
        <ele>234</ele>
        <time>2017-04-16T05:29:21.000Z</time>
      </trkpt>
      <trkpt lat="43.5572" lon="2.94423">
        <ele>234.2</ele>
        <time>2017-04-16T05:29:23.000Z</time>
      </trkpt>
      <trkpt lat="43.55717" lon="2.9442">
        <ele>234.6</ele>
        <time>2017-04-16T05:29:25.000Z</time>
      </trkpt>
      <trkpt lat="43.55712" lon="2.94413">
        <ele>235.2</ele>
        <time>2017-04-16T05:29:28.000Z</time>
      </trkpt>
      <trkpt lat="43.55709" lon="2.94409">
        <ele>235.6</ele>
        <time>2017-04-16T05:29:30.000Z</time>
      </trkpt>
      <trkpt lat="43.55707" lon="2.94403">
        <ele>236</ele>
        <time>2017-04-16T05:29:32.000Z</time>
      </trkpt>
      <trkpt lat="43.55705" lon="2.94399">
        <ele>236.4</ele>
        <time>2017-04-16T05:29:34.000Z</time>
      </trkpt>
      <trkpt lat="43.55703" lon="2.94395">
        <ele>236.8</ele>
        <time>2017-04-16T05:29:36.000Z</time>
      </trkpt>
      <trkpt lat="43.55697" lon="2.94382">
        <ele>237.2</ele>
        <time>2017-04-16T05:29:41.000Z</time>
      </trkpt>
      <trkpt lat="43.55696" lon="2.94379">
        <ele>237.4</ele>
        <time>2017-04-16T05:29:42.000Z</time>
      </trkpt>
      <trkpt lat="43.55694" lon="2.94374">
        <ele>238</ele>
        <time>2017-04-16T05:29:44.000Z</time>
      </trkpt>
      <trkpt lat="43.55691" lon="2.94369">
        <ele>238.4</ele>
        <time>2017-04-16T05:29:46.000Z</time>
      </trkpt>
      <trkpt lat="43.55687" lon="2.94364">
        <ele>238.8</ele>
        <time>2017-04-16T05:29:48.000Z</time>
      </trkpt>
      <trkpt lat="43.55684" lon="2.9436">
        <ele>239</ele>
        <time>2017-04-16T05:29:50.000Z</time>
      </trkpt>
      <trkpt lat="43.55682" lon="2.94358">
        <ele>239.4</ele>
        <time>2017-04-16T05:29:51.000Z</time>
      </trkpt>
      <trkpt lat="43.55678" lon="2.94355">
        <ele>239.8</ele>
        <time>2017-04-16T05:29:53.000Z</time>
      </trkpt>
      <trkpt lat="43.55673" lon="2.94353">
        <ele>240.4</ele>
        <time>2017-04-16T05:29:55.000Z</time>
      </trkpt>
      <trkpt lat="43.55669" lon="2.94351">
        <ele>240.6</ele>
        <time>2017-04-16T05:29:57.000Z</time>
      </trkpt>
      <trkpt lat="43.55664" lon="2.94351">
        <ele>241</ele>
        <time>2017-04-16T05:29:59.000Z</time>
      </trkpt>
      <trkpt lat="43.55655" lon="2.94347">
        <ele>241.6</ele>
        <time>2017-04-16T05:30:03.000Z</time>
      </trkpt>
      <trkpt lat="43.55651" lon="2.94345">
        <ele>242.2</ele>
        <time>2017-04-16T05:30:05.000Z</time>
      </trkpt>
      <trkpt lat="43.55647" lon="2.94343">
        <ele>242.6</ele>
        <time>2017-04-16T05:30:07.000Z</time>
      </trkpt>
      <trkpt lat="43.55643" lon="2.94341">
        <ele>243</ele>
        <time>2017-04-16T05:30:09.000Z</time>
      </trkpt>
      <trkpt lat="43.55638" lon="2.94339">
        <ele>243.2</ele>
        <time>2017-04-16T05:30:11.000Z</time>
      </trkpt>
      <trkpt lat="43.55634" lon="2.94335">
        <ele>243.6</ele>
        <time>2017-04-16T05:30:13.000Z</time>
      </trkpt>
      <trkpt lat="43.55631" lon="2.94332">
        <ele>244.2</ele>
        <time>2017-04-16T05:30:15.000Z</time>
      </trkpt>
      <trkpt lat="43.55627" lon="2.94327">
        <ele>244.6</ele>
        <time>2017-04-16T05:30:17.000Z</time>
      </trkpt>
      <trkpt lat="43.55624" lon="2.94323">
        <ele>245</ele>
        <time>2017-04-16T05:30:19.000Z</time>
      </trkpt>
      <trkpt lat="43.5562" lon="2.94318">
        <ele>245.4</ele>
        <time>2017-04-16T05:30:21.000Z</time>
      </trkpt>
      <trkpt lat="43.55607" lon="2.94304">
        <ele>246</ele>
        <time>2017-04-16T05:30:28.000Z</time>
      </trkpt>
      <trkpt lat="43.55604" lon="2.94298">
        <ele>246.4</ele>
        <time>2017-04-16T05:30:31.000Z</time>
      </trkpt>
      <trkpt lat="43.556" lon="2.94294">
        <ele>246.8</ele>
        <time>2017-04-16T05:30:33.000Z</time>
      </trkpt>
      <trkpt lat="43.55597" lon="2.9429">
        <ele>247.2</ele>
        <time>2017-04-16T05:30:35.000Z</time>
      </trkpt>
      <trkpt lat="43.55594" lon="2.94286">
        <ele>247.4</ele>
        <time>2017-04-16T05:30:37.000Z</time>
      </trkpt>
      <trkpt lat="43.55591" lon="2.94282">
        <ele>247.6</ele>
        <time>2017-04-16T05:30:39.000Z</time>
      </trkpt>
      <trkpt lat="43.55584" lon="2.94274">
        <ele>248.2</ele>
        <time>2017-04-16T05:30:43.000Z</time>
      </trkpt>
      <trkpt lat="43.55581" lon="2.9427">
        <ele>248.6</ele>
        <time>2017-04-16T05:30:45.000Z</time>
      </trkpt>
      <trkpt lat="43.55577" lon="2.94268">
        <ele>249</ele>
        <time>2017-04-16T05:30:47.000Z</time>
      </trkpt>
      <trkpt lat="43.55574" lon="2.94265">
        <ele>249.4</ele>
        <time>2017-04-16T05:30:49.000Z</time>
      </trkpt>
      <trkpt lat="43.5557" lon="2.94263">
        <ele>249.6</ele>
        <time>2017-04-16T05:30:51.000Z</time>
      </trkpt>
      <trkpt lat="43.55568" lon="2.94262">
        <ele>249.8</ele>
        <time>2017-04-16T05:30:52.000Z</time>
      </trkpt>
      <trkpt lat="43.55562" lon="2.94262">
        <ele>250.6</ele>
        <time>2017-04-16T05:30:55.000Z</time>
      </trkpt>
      <trkpt lat="43.55558" lon="2.94263">
        <ele>251</ele>
        <time>2017-04-16T05:30:57.000Z</time>
      </trkpt>
      <trkpt lat="43.55554" lon="2.94263">
        <ele>251.4</ele>
        <time>2017-04-16T05:30:59.000Z</time>
      </trkpt>
      <trkpt lat="43.55552" lon="2.94263">
        <ele>251.6</ele>
        <time>2017-04-16T05:31:00.000Z</time>
      </trkpt>
      <trkpt lat="43.5555" lon="2.94263">
        <ele>251.6</ele>
        <time>2017-04-16T05:31:01.000Z</time>
      </trkpt>
      <trkpt lat="43.55548" lon="2.94261">
        <ele>252.2</ele>
        <time>2017-04-16T05:31:03.000Z</time>
      </trkpt>
      <trkpt lat="43.55546" lon="2.94259">
        <ele>252.6</ele>
        <time>2017-04-16T05:31:05.000Z</time>
      </trkpt>
      <trkpt lat="43.55543" lon="2.9426">
        <ele>253.2</ele>
        <time>2017-04-16T05:31:07.000Z</time>
      </trkpt>
      <trkpt lat="43.55539" lon="2.94262">
        <ele>253.6</ele>
        <time>2017-04-16T05:31:09.000Z</time>
      </trkpt>
      <trkpt lat="43.55535" lon="2.94267">
        <ele>253.8</ele>
        <time>2017-04-16T05:31:11.000Z</time>
      </trkpt>
      <trkpt lat="43.55523" lon="2.94272">
        <ele>254.4</ele>
        <time>2017-04-16T05:31:16.000Z</time>
      </trkpt>
      <trkpt lat="43.55521" lon="2.94272">
        <ele>254.6</ele>
        <time>2017-04-16T05:31:17.000Z</time>
      </trkpt>
      <trkpt lat="43.55518" lon="2.94273">
        <ele>255.2</ele>
        <time>2017-04-16T05:31:19.000Z</time>
      </trkpt>
      <trkpt lat="43.55514" lon="2.94273">
        <ele>255.4</ele>
        <time>2017-04-16T05:31:21.000Z</time>
      </trkpt>
      <trkpt lat="43.55511" lon="2.94274">
        <ele>255.8</ele>
        <time>2017-04-16T05:31:23.000Z</time>
      </trkpt>
      <trkpt lat="43.55507" lon="2.94276">
        <ele>256</ele>
        <time>2017-04-16T05:31:25.000Z</time>
      </trkpt>
      <trkpt lat="43.55502" lon="2.94277">
        <ele>256.6</ele>
        <time>2017-04-16T05:31:28.000Z</time>
      </trkpt>
      <trkpt lat="43.55498" lon="2.94277">
        <ele>257</ele>
        <time>2017-04-16T05:31:30.000Z</time>
      </trkpt>
      <trkpt lat="43.55493" lon="2.94277">
        <ele>257.4</ele>
        <time>2017-04-16T05:31:32.000Z</time>
      </trkpt>
      <trkpt lat="43.55489" lon="2.94276">
        <ele>257.8</ele>
        <time>2017-04-16T05:31:34.000Z</time>
      </trkpt>
      <trkpt lat="43.55484" lon="2.94275">
        <ele>258</ele>
        <time>2017-04-16T05:31:36.000Z</time>
      </trkpt>
      <trkpt lat="43.55478" lon="2.94275">
        <ele>258.6</ele>
        <time>2017-04-16T05:31:39.000Z</time>
      </trkpt>
      <trkpt lat="43.55473" lon="2.94274">
        <ele>259</ele>
        <time>2017-04-16T05:31:41.000Z</time>
      </trkpt>
      <trkpt lat="43.55469" lon="2.94274">
        <ele>259.4</ele>
        <time>2017-04-16T05:31:43.000Z</time>
      </trkpt>
      <trkpt lat="43.55465" lon="2.94274">
        <ele>259.8</ele>
        <time>2017-04-16T05:31:45.000Z</time>
      </trkpt>
      <trkpt lat="43.55461" lon="2.94272">
        <ele>260.2</ele>
        <time>2017-04-16T05:31:47.000Z</time>
      </trkpt>
      <trkpt lat="43.55455" lon="2.9427">
        <ele>260.6</ele>
        <time>2017-04-16T05:31:50.000Z</time>
      </trkpt>
      <trkpt lat="43.55452" lon="2.94268">
        <ele>261.2</ele>
        <time>2017-04-16T05:31:52.000Z</time>
      </trkpt>
      <trkpt lat="43.55449" lon="2.94264">
        <ele>261.6</ele>
        <time>2017-04-16T05:31:54.000Z</time>
      </trkpt>
      <trkpt lat="43.55445" lon="2.94262">
        <ele>261.8</ele>
        <time>2017-04-16T05:31:56.000Z</time>
      </trkpt>
      <trkpt lat="43.55441" lon="2.9426">
        <ele>262.2</ele>
        <time>2017-04-16T05:31:58.000Z</time>
      </trkpt>
      <trkpt lat="43.55435" lon="2.94259">
        <ele>262.8</ele>
        <time>2017-04-16T05:32:01.000Z</time>
      </trkpt>
      <trkpt lat="43.5543" lon="2.94258">
        <ele>263.2</ele>
        <time>2017-04-16T05:32:03.000Z</time>
      </trkpt>
      <trkpt lat="43.55426" lon="2.94256">
        <ele>263.6</ele>
        <time>2017-04-16T05:32:05.000Z</time>
      </trkpt>
      <trkpt lat="43.55422" lon="2.94254">
        <ele>264</ele>
        <time>2017-04-16T05:32:07.000Z</time>
      </trkpt>
      <trkpt lat="43.55419" lon="2.94252">
        <ele>264.2</ele>
        <time>2017-04-16T05:32:09.000Z</time>
      </trkpt>
      <trkpt lat="43.55417" lon="2.94251">
        <ele>264.6</ele>
        <time>2017-04-16T05:32:10.000Z</time>
      </trkpt>
      <trkpt lat="43.55414" lon="2.94248">
        <ele>265.2</ele>
        <time>2017-04-16T05:32:12.000Z</time>
      </trkpt>
      <trkpt lat="43.5541" lon="2.94246">
        <ele>265.6</ele>
        <time>2017-04-16T05:32:14.000Z</time>
      </trkpt>
      <trkpt lat="43.55407" lon="2.94244">
        <ele>266</ele>
        <time>2017-04-16T05:32:16.000Z</time>
      </trkpt>
      <trkpt lat="43.55402" lon="2.94242">
        <ele>266.2</ele>
        <time>2017-04-16T05:32:18.000Z</time>
      </trkpt>
      <trkpt lat="43.55393" lon="2.94236">
        <ele>267</ele>
        <time>2017-04-16T05:32:23.000Z</time>
      </trkpt>
      <trkpt lat="43.55389" lon="2.94233">
        <ele>267.6</ele>
        <time>2017-04-16T05:32:25.000Z</time>
      </trkpt>
      <trkpt lat="43.55386" lon="2.9423">
        <ele>268</ele>
        <time>2017-04-16T05:32:27.000Z</time>
      </trkpt>
      <trkpt lat="43.55383" lon="2.94225">
        <ele>268.2</ele>
        <time>2017-04-16T05:32:29.000Z</time>
      </trkpt>
      <trkpt lat="43.5538" lon="2.94221">
        <ele>268.6</ele>
        <time>2017-04-16T05:32:31.000Z</time>
      </trkpt>
      <trkpt lat="43.55371" lon="2.94209">
        <ele>269.4</ele>
        <time>2017-04-16T05:32:37.000Z</time>
      </trkpt>
      <trkpt lat="43.55368" lon="2.94206">
        <ele>269.8</ele>
        <time>2017-04-16T05:32:39.000Z</time>
      </trkpt>
      <trkpt lat="43.55365" lon="2.94202">
        <ele>270.2</ele>
        <time>2017-04-16T05:32:41.000Z</time>
      </trkpt>
      <trkpt lat="43.55361" lon="2.94198">
        <ele>270.6</ele>
        <time>2017-04-16T05:32:43.000Z</time>
      </trkpt>
      <trkpt lat="43.55358" lon="2.94194">
        <ele>270.8</ele>
        <time>2017-04-16T05:32:45.000Z</time>
      </trkpt>
      <trkpt lat="43.55354" lon="2.94187">
        <ele>271.2</ele>
        <time>2017-04-16T05:32:48.000Z</time>
      </trkpt>
      <trkpt lat="43.55352" lon="2.94182">
        <ele>271.8</ele>
        <time>2017-04-16T05:32:50.000Z</time>
      </trkpt>
      <trkpt lat="43.5535" lon="2.94178">
        <ele>272.2</ele>
        <time>2017-04-16T05:32:52.000Z</time>
      </trkpt>
      <trkpt lat="43.55348" lon="2.94173">
        <ele>272.6</ele>
        <time>2017-04-16T05:32:54.000Z</time>
      </trkpt>
      <trkpt lat="43.55345" lon="2.94168">
        <ele>272.8</ele>
        <time>2017-04-16T05:32:56.000Z</time>
      </trkpt>
      <trkpt lat="43.5534" lon="2.9416">
        <ele>273.4</ele>
        <time>2017-04-16T05:33:00.000Z</time>
      </trkpt>
      <trkpt lat="43.55337" lon="2.94155">
        <ele>273.8</ele>
        <time>2017-04-16T05:33:02.000Z</time>
      </trkpt>
      <trkpt lat="43.55335" lon="2.94151">
        <ele>274.2</ele>
        <time>2017-04-16T05:33:04.000Z</time>
      </trkpt>
      <trkpt lat="43.55332" lon="2.94147">
        <ele>274.6</ele>
        <time>2017-04-16T05:33:06.000Z</time>
      </trkpt>
      <trkpt lat="43.5533" lon="2.94143">
        <ele>275</ele>
        <time>2017-04-16T05:33:08.000Z</time>
      </trkpt>
      <trkpt lat="43.55328" lon="2.9414">
        <ele>275.6</ele>
        <time>2017-04-16T05:33:10.000Z</time>
      </trkpt>
      <trkpt lat="43.55324" lon="2.94138">
        <ele>276.2</ele>
        <time>2017-04-16T05:33:12.000Z</time>
      </trkpt>
      <trkpt lat="43.5532" lon="2.94135">
        <ele>276.6</ele>
        <time>2017-04-16T05:33:14.000Z</time>
      </trkpt>
      <trkpt lat="43.55317" lon="2.94133">
        <ele>276.8</ele>
        <time>2017-04-16T05:33:16.000Z</time>
      </trkpt>
      <trkpt lat="43.55311" lon="2.9413">
        <ele>277.4</ele>
        <time>2017-04-16T05:33:19.000Z</time>
      </trkpt>
      <trkpt lat="43.55308" lon="2.94128">
        <ele>278</ele>
        <time>2017-04-16T05:33:21.000Z</time>
      </trkpt>
      <trkpt lat="43.55304" lon="2.94125">
        <ele>278.4</ele>
        <time>2017-04-16T05:33:23.000Z</time>
      </trkpt>
      <trkpt lat="43.55301" lon="2.94122">
        <ele>278.8</ele>
        <time>2017-04-16T05:33:25.000Z</time>
      </trkpt>
      <trkpt lat="43.55298" lon="2.9412">
        <ele>279</ele>
        <time>2017-04-16T05:33:27.000Z</time>
      </trkpt>
      <trkpt lat="43.55291" lon="2.94116">
        <ele>279.6</ele>
        <time>2017-04-16T05:33:30.000Z</time>
      </trkpt>
      <trkpt lat="43.55287" lon="2.94114">
        <ele>280</ele>
        <time>2017-04-16T05:33:32.000Z</time>
      </trkpt>
      <trkpt lat="43.55283" lon="2.94112">
        <ele>280.6</ele>
        <time>2017-04-16T05:33:34.000Z</time>
      </trkpt>
      <trkpt lat="43.55279" lon="2.94109">
        <ele>280.8</ele>
        <time>2017-04-16T05:33:36.000Z</time>
      </trkpt>
      <trkpt lat="43.55276" lon="2.94106">
        <ele>281.2</ele>
        <time>2017-04-16T05:33:38.000Z</time>
      </trkpt>
      <trkpt lat="43.55272" lon="2.94103">
        <ele>281.6</ele>
        <time>2017-04-16T05:33:40.000Z</time>
      </trkpt>
      <trkpt lat="43.55269" lon="2.941">
        <ele>282.2</ele>
        <time>2017-04-16T05:33:42.000Z</time>
      </trkpt>
      <trkpt lat="43.55266" lon="2.94098">
        <ele>282.6</ele>
        <time>2017-04-16T05:33:44.000Z</time>
      </trkpt>
      <trkpt lat="43.55262" lon="2.94095">
        <ele>283</ele>
        <time>2017-04-16T05:33:46.000Z</time>
      </trkpt>
      <trkpt lat="43.55259" lon="2.94092">
        <ele>283.2</ele>
        <time>2017-04-16T05:33:48.000Z</time>
      </trkpt>
      <trkpt lat="43.55257" lon="2.9409">
        <ele>283.6</ele>
        <time>2017-04-16T05:33:49.000Z</time>
      </trkpt>
      <trkpt lat="43.55254" lon="2.94088">
        <ele>284.2</ele>
        <time>2017-04-16T05:33:51.000Z</time>
      </trkpt>
      <trkpt lat="43.5525" lon="2.94085">
        <ele>284.6</ele>
        <time>2017-04-16T05:33:53.000Z</time>
      </trkpt>
      <trkpt lat="43.55247" lon="2.94082">
        <ele>285</ele>
        <time>2017-04-16T05:33:55.000Z</time>
      </trkpt>
      <trkpt lat="43.55243" lon="2.94079">
        <ele>285.4</ele>
        <time>2017-04-16T05:33:57.000Z</time>
      </trkpt>
      <trkpt lat="43.55236" lon="2.94072">
        <ele>286</ele>
        <time>2017-04-16T05:34:01.000Z</time>
      </trkpt>
      <trkpt lat="43.55233" lon="2.94068">
        <ele>286.6</ele>
        <time>2017-04-16T05:34:03.000Z</time>
      </trkpt>
      <trkpt lat="43.5523" lon="2.94064">
        <ele>287</ele>
        <time>2017-04-16T05:34:05.000Z</time>
      </trkpt>
      <trkpt lat="43.55227" lon="2.94061">
        <ele>287.4</ele>
        <time>2017-04-16T05:34:07.000Z</time>
      </trkpt>
      <trkpt lat="43.55223" lon="2.94057">
        <ele>287.6</ele>
        <time>2017-04-16T05:34:09.000Z</time>
      </trkpt>
      <trkpt lat="43.55221" lon="2.94053">
        <ele>288</ele>
        <time>2017-04-16T05:34:11.000Z</time>
      </trkpt>
      <trkpt lat="43.55218" lon="2.94049">
        <ele>288.6</ele>
        <time>2017-04-16T05:34:13.000Z</time>
      </trkpt>
      <trkpt lat="43.55216" lon="2.94045">
        <ele>289</ele>
        <time>2017-04-16T05:34:15.000Z</time>
      </trkpt>
      <trkpt lat="43.55213" lon="2.94041">
        <ele>289.4</ele>
        <time>2017-04-16T05:34:17.000Z</time>
      </trkpt>
      <trkpt lat="43.5521" lon="2.94037">
        <ele>289.6</ele>
        <time>2017-04-16T05:34:19.000Z</time>
      </trkpt>
      <trkpt lat="43.55207" lon="2.94033">
        <ele>290.2</ele>
        <time>2017-04-16T05:34:21.000Z</time>
      </trkpt>
      <trkpt lat="43.55205" lon="2.94029">
        <ele>290.6</ele>
        <time>2017-04-16T05:34:23.000Z</time>
      </trkpt>
      <trkpt lat="43.55203" lon="2.94023">
        <ele>291.2</ele>
        <time>2017-04-16T05:34:25.000Z</time>
      </trkpt>
      <trkpt lat="43.55201" lon="2.94018">
        <ele>291.4</ele>
        <time>2017-04-16T05:34:27.000Z</time>
      </trkpt>
      <trkpt lat="43.55199" lon="2.94012">
        <ele>291.8</ele>
        <time>2017-04-16T05:34:29.000Z</time>
      </trkpt>
      <trkpt lat="43.55195" lon="2.9399">
        <ele>292.6</ele>
        <time>2017-04-16T05:34:36.000Z</time>
      </trkpt>
      <trkpt lat="43.55193" lon="2.93984">
        <ele>293</ele>
        <time>2017-04-16T05:34:38.000Z</time>
      </trkpt>
      <trkpt lat="43.55191" lon="2.93977">
        <ele>293.4</ele>
        <time>2017-04-16T05:34:40.000Z</time>
      </trkpt>
      <trkpt lat="43.5519" lon="2.9397">
        <ele>293.8</ele>
        <time>2017-04-16T05:34:42.000Z</time>
      </trkpt>
      <trkpt lat="43.55189" lon="2.93964">
        <ele>294</ele>
        <time>2017-04-16T05:34:44.000Z</time>
      </trkpt>
      <trkpt lat="43.55184" lon="2.93947">
        <ele>294.8</ele>
        <time>2017-04-16T05:34:50.000Z</time>
      </trkpt>
      <trkpt lat="43.55181" lon="2.93941">
        <ele>295.2</ele>
        <time>2017-04-16T05:34:52.000Z</time>
      </trkpt>
      <trkpt lat="43.55177" lon="2.93936">
        <ele>295.6</ele>
        <time>2017-04-16T05:34:54.000Z</time>
      </trkpt>
      <trkpt lat="43.55172" lon="2.93932">
        <ele>296</ele>
        <time>2017-04-16T05:34:56.000Z</time>
      </trkpt>
      <trkpt lat="43.55166" lon="2.93929">
        <ele>296.2</ele>
        <time>2017-04-16T05:34:58.000Z</time>
      </trkpt>
      <trkpt lat="43.55147" lon="2.93918">
        <ele>297</ele>
        <time>2017-04-16T05:35:04.000Z</time>
      </trkpt>
      <trkpt lat="43.55139" lon="2.93916">
        <ele>297.4</ele>
        <time>2017-04-16T05:35:06.000Z</time>
      </trkpt>
      <trkpt lat="43.55132" lon="2.93912">
        <ele>297.8</ele>
        <time>2017-04-16T05:35:08.000Z</time>
      </trkpt>
      <trkpt lat="43.55126" lon="2.93908">
        <ele>298</ele>
        <time>2017-04-16T05:35:10.000Z</time>
      </trkpt>
      <trkpt lat="43.5512" lon="2.93903">
        <ele>298.4</ele>
        <time>2017-04-16T05:35:12.000Z</time>
      </trkpt>
      <trkpt lat="43.55109" lon="2.93891">
        <ele>298.8</ele>
        <time>2017-04-16T05:35:17.000Z</time>
      </trkpt>
      <trkpt lat="43.55104" lon="2.93887">
        <ele>299.2</ele>
        <time>2017-04-16T05:35:19.000Z</time>
      </trkpt>
      <trkpt lat="43.55101" lon="2.93885">
        <ele>299.4</ele>
        <time>2017-04-16T05:35:20.000Z</time>
      </trkpt>
      <trkpt lat="43.55098" lon="2.93884">
        <ele>299.6</ele>
        <time>2017-04-16T05:35:21.000Z</time>
      </trkpt>
      <trkpt lat="43.5509" lon="2.93882">
        <ele>300</ele>
        <time>2017-04-16T05:35:23.000Z</time>
      </trkpt>
      <trkpt lat="43.55083" lon="2.93879">
        <ele>300.2</ele>
        <time>2017-04-16T05:35:25.000Z</time>
      </trkpt>
      <trkpt lat="43.55077" lon="2.93876">
        <ele>300.4</ele>
        <time>2017-04-16T05:35:27.000Z</time>
      </trkpt>
      <trkpt lat="43.55058" lon="2.9386">
        <ele>301</ele>
        <time>2017-04-16T05:35:33.000Z</time>
      </trkpt>
      <trkpt lat="43.55053" lon="2.93854">
        <ele>301.2</ele>
        <time>2017-04-16T05:35:35.000Z</time>
      </trkpt>
      <trkpt lat="43.55049" lon="2.93847">
        <ele>301.6</ele>
        <time>2017-04-16T05:35:37.000Z</time>
      </trkpt>
      <trkpt lat="43.55046" lon="2.9384">
        <ele>302</ele>
        <time>2017-04-16T05:35:39.000Z</time>
      </trkpt>
      <trkpt lat="43.55042" lon="2.93833">
        <ele>302.4</ele>
        <time>2017-04-16T05:35:41.000Z</time>
      </trkpt>
      <trkpt lat="43.55039" lon="2.93825">
        <ele>302.6</ele>
        <time>2017-04-16T05:35:43.000Z</time>
      </trkpt>
      <trkpt lat="43.55036" lon="2.93817">
        <ele>303</ele>
        <time>2017-04-16T05:35:45.000Z</time>
      </trkpt>
      <trkpt lat="43.55033" lon="2.93809">
        <ele>303.4</ele>
        <time>2017-04-16T05:35:47.000Z</time>
      </trkpt>
      <trkpt lat="43.55029" lon="2.93802">
        <ele>303.8</ele>
        <time>2017-04-16T05:35:49.000Z</time>
      </trkpt>
      <trkpt lat="43.55025" lon="2.93795">
        <ele>304.2</ele>
        <time>2017-04-16T05:35:51.000Z</time>
      </trkpt>
      <trkpt lat="43.5502" lon="2.9379">
        <ele>304.6</ele>
        <time>2017-04-16T05:35:53.000Z</time>
      </trkpt>
      <trkpt lat="43.55004" lon="2.93787">
        <ele>305</ele>
        <time>2017-04-16T05:35:58.000Z</time>
      </trkpt>
      <trkpt lat="43.54989" lon="2.93802">
        <ele>305.2</ele>
        <time>2017-04-16T05:36:02.000Z</time>
      </trkpt>
      <trkpt lat="43.54986" lon="2.93806">
        <ele>305.4</ele>
        <time>2017-04-16T05:36:03.000Z</time>
      </trkpt>
      <trkpt lat="43.54982" lon="2.93811">
        <ele>305.8</ele>
        <time>2017-04-16T05:36:05.000Z</time>
      </trkpt>
      <trkpt lat="43.54978" lon="2.93812">
        <ele>306.2</ele>
        <time>2017-04-16T05:36:07.000Z</time>
      </trkpt>
      <trkpt lat="43.54973" lon="2.93812">
        <ele>306.6</ele>
        <time>2017-04-16T05:36:09.000Z</time>
      </trkpt>
      <trkpt lat="43.54968" lon="2.93814">
        <ele>306.8</ele>
        <time>2017-04-16T05:36:11.000Z</time>
      </trkpt>
      <trkpt lat="43.54949" lon="2.93825">
        <ele>307.4</ele>
        <time>2017-04-16T05:36:17.000Z</time>
      </trkpt>
      <trkpt lat="43.54944" lon="2.93827">
        <ele>307.8</ele>
        <time>2017-04-16T05:36:19.000Z</time>
      </trkpt>
      <trkpt lat="43.54939" lon="2.93828">
        <ele>308.2</ele>
        <time>2017-04-16T05:36:21.000Z</time>
      </trkpt>
      <trkpt lat="43.54934" lon="2.93828">
        <ele>308.6</ele>
        <time>2017-04-16T05:36:23.000Z</time>
      </trkpt>
      <trkpt lat="43.54929" lon="2.93827">
        <ele>308.8</ele>
        <time>2017-04-16T05:36:25.000Z</time>
      </trkpt>
      <trkpt lat="43.54927" lon="2.93826">
        <ele>309</ele>
        <time>2017-04-16T05:36:26.000Z</time>
      </trkpt>
      <trkpt lat="43.54922" lon="2.93826">
        <ele>309.6</ele>
        <time>2017-04-16T05:36:28.000Z</time>
      </trkpt>
      <trkpt lat="43.54917" lon="2.93827">
        <ele>310</ele>
        <time>2017-04-16T05:36:30.000Z</time>
      </trkpt>
      <trkpt lat="43.54912" lon="2.93829">
        <ele>310.4</ele>
        <time>2017-04-16T05:36:32.000Z</time>
      </trkpt>
      <trkpt lat="43.54907" lon="2.93832">
        <ele>310.6</ele>
        <time>2017-04-16T05:36:34.000Z</time>
      </trkpt>
      <trkpt lat="43.54902" lon="2.93836">
        <ele>311</ele>
        <time>2017-04-16T05:36:36.000Z</time>
      </trkpt>
      <trkpt lat="43.54897" lon="2.93839">
        <ele>311.6</ele>
        <time>2017-04-16T05:36:38.000Z</time>
      </trkpt>
      <trkpt lat="43.54892" lon="2.93842">
        <ele>312</ele>
        <time>2017-04-16T05:36:40.000Z</time>
      </trkpt>
      <trkpt lat="43.54887" lon="2.93845">
        <ele>312.4</ele>
        <time>2017-04-16T05:36:42.000Z</time>
      </trkpt>
      <trkpt lat="43.54882" lon="2.93848">
        <ele>312.8</ele>
        <time>2017-04-16T05:36:44.000Z</time>
      </trkpt>
      <trkpt lat="43.54869" lon="2.93858">
        <ele>313.4</ele>
        <time>2017-04-16T05:36:50.000Z</time>
      </trkpt>
      <trkpt lat="43.5486" lon="2.93867">
        <ele>313.8</ele>
        <time>2017-04-16T05:36:54.000Z</time>
      </trkpt>
      <trkpt lat="43.54855" lon="2.93871">
        <ele>314.2</ele>
        <time>2017-04-16T05:36:56.000Z</time>
      </trkpt>
      <trkpt lat="43.5485" lon="2.93875">
        <ele>314.6</ele>
        <time>2017-04-16T05:36:58.000Z</time>
      </trkpt>
      <trkpt lat="43.54846" lon="2.93879">
        <ele>314.8</ele>
        <time>2017-04-16T05:37:00.000Z</time>
      </trkpt>
      <trkpt lat="43.54841" lon="2.93883">
        <ele>315</ele>
        <time>2017-04-16T05:37:02.000Z</time>
      </trkpt>
      <trkpt lat="43.54823" lon="2.93896">
        <ele>315.6</ele>
        <time>2017-04-16T05:37:10.000Z</time>
      </trkpt>
      <trkpt lat="43.54816" lon="2.93901">
        <ele>316</ele>
        <time>2017-04-16T05:37:13.000Z</time>
      </trkpt>
      <trkpt lat="43.54812" lon="2.93904">
        <ele>316.4</ele>
        <time>2017-04-16T05:37:15.000Z</time>
      </trkpt>
      <trkpt lat="43.54808" lon="2.93907">
        <ele>316.8</ele>
        <time>2017-04-16T05:37:17.000Z</time>
      </trkpt>
      <trkpt lat="43.54803" lon="2.93908">
        <ele>317</ele>
        <time>2017-04-16T05:37:19.000Z</time>
      </trkpt>
      <trkpt lat="43.54798" lon="2.93909">
        <ele>317.2</ele>
        <time>2017-04-16T05:37:21.000Z</time>
      </trkpt>
      <trkpt lat="43.54788" lon="2.93911">
        <ele>317.6</ele>
        <time>2017-04-16T05:37:25.000Z</time>
      </trkpt>
      <trkpt lat="43.5478" lon="2.93911">
        <ele>317.8</ele>
        <time>2017-04-16T05:37:29.000Z</time>
      </trkpt>
      <trkpt lat="43.54777" lon="2.93909">
        <ele>317.8</ele>
        <time>2017-04-16T05:37:31.000Z</time>
      </trkpt>
      <trkpt lat="43.54776" lon="2.93907">
        <ele>318</ele>
        <time>2017-04-16T05:37:32.000Z</time>
      </trkpt>
      <trkpt lat="43.54775" lon="2.93903">
        <ele>318.4</ele>
        <time>2017-04-16T05:37:34.000Z</time>
      </trkpt>
      <trkpt lat="43.54776" lon="2.93901">
        <ele>318.6</ele>
        <time>2017-04-16T05:37:35.000Z</time>
      </trkpt>
      <trkpt lat="43.54783" lon="2.93895">
        <ele>319</ele>
        <time>2017-04-16T05:37:38.000Z</time>
      </trkpt>
      <trkpt lat="43.54785" lon="2.93894">
        <ele>319.2</ele>
        <time>2017-04-16T05:37:39.000Z</time>
      </trkpt>
      <trkpt lat="43.54792" lon="2.93893">
        <ele>319.6</ele>
        <time>2017-04-16T05:37:42.000Z</time>
      </trkpt>
      <trkpt lat="43.54797" lon="2.93893">
        <ele>320.2</ele>
        <time>2017-04-16T05:37:44.000Z</time>
      </trkpt>
      <trkpt lat="43.54802" lon="2.93892">
        <ele>320.6</ele>
        <time>2017-04-16T05:37:46.000Z</time>
      </trkpt>
      <trkpt lat="43.54808" lon="2.9389">
        <ele>321</ele>
        <time>2017-04-16T05:37:48.000Z</time>
      </trkpt>
      <trkpt lat="43.54812" lon="2.93886">
        <ele>321.2</ele>
        <time>2017-04-16T05:37:50.000Z</time>
      </trkpt>
      <trkpt lat="43.5483" lon="2.93862">
        <ele>322</ele>
        <time>2017-04-16T05:37:57.000Z</time>
      </trkpt>
      <trkpt lat="43.54835" lon="2.93857">
        <ele>322.6</ele>
        <time>2017-04-16T05:37:59.000Z</time>
      </trkpt>
      <trkpt lat="43.5484" lon="2.93851">
        <ele>323</ele>
        <time>2017-04-16T05:38:01.000Z</time>
      </trkpt>
      <trkpt lat="43.54842" lon="2.93849">
        <ele>323.4</ele>
        <time>2017-04-16T05:38:02.000Z</time>
      </trkpt>
      <trkpt lat="43.54847" lon="2.93844">
        <ele>324</ele>
        <time>2017-04-16T05:38:04.000Z</time>
      </trkpt>
      <trkpt lat="43.54852" lon="2.93839">
        <ele>324.4</ele>
        <time>2017-04-16T05:38:06.000Z</time>
      </trkpt>
      <trkpt lat="43.54857" lon="2.93834">
        <ele>324.8</ele>
        <time>2017-04-16T05:38:08.000Z</time>
      </trkpt>
      <trkpt lat="43.54861" lon="2.93828">
        <ele>325.2</ele>
        <time>2017-04-16T05:38:10.000Z</time>
      </trkpt>
      <trkpt lat="43.5488" lon="2.93807">
        <ele>326</ele>
        <time>2017-04-16T05:38:19.000Z</time>
      </trkpt>
      <trkpt lat="43.54889" lon="2.93797">
        <ele>326.4</ele>
        <time>2017-04-16T05:38:23.000Z</time>
      </trkpt>
      <trkpt lat="43.54894" lon="2.93792">
        <ele>327</ele>
        <time>2017-04-16T05:38:25.000Z</time>
      </trkpt>
      <trkpt lat="43.54898" lon="2.93787">
        <ele>327.2</ele>
        <time>2017-04-16T05:38:27.000Z</time>
      </trkpt>
      <trkpt lat="43.54903" lon="2.93782">
        <ele>327.6</ele>
        <time>2017-04-16T05:38:29.000Z</time>
      </trkpt>
      <trkpt lat="43.54908" lon="2.93776">
        <ele>327.8</ele>
        <time>2017-04-16T05:38:31.000Z</time>
      </trkpt>
      <trkpt lat="43.54932" lon="2.9375">
        <ele>328.4</ele>
        <time>2017-04-16T05:38:41.000Z</time>
      </trkpt>
      <trkpt lat="43.54937" lon="2.93746">
        <ele>328.8</ele>
        <time>2017-04-16T05:38:43.000Z</time>
      </trkpt>
      <trkpt lat="43.54942" lon="2.93742">
        <ele>329.2</ele>
        <time>2017-04-16T05:38:45.000Z</time>
      </trkpt>
      <trkpt lat="43.54946" lon="2.93739">
        <ele>329.6</ele>
        <time>2017-04-16T05:38:47.000Z</time>
      </trkpt>
      <trkpt lat="43.54951" lon="2.93735">
        <ele>329.8</ele>
        <time>2017-04-16T05:38:49.000Z</time>
      </trkpt>
      <trkpt lat="43.54956" lon="2.93732">
        <ele>330</ele>
        <time>2017-04-16T05:38:51.000Z</time>
      </trkpt>
      <trkpt lat="43.54966" lon="2.93724">
        <ele>330.4</ele>
        <time>2017-04-16T05:38:55.000Z</time>
      </trkpt>
      <trkpt lat="43.5498" lon="2.93718">
        <ele>331</ele>
        <time>2017-04-16T05:39:01.000Z</time>
      </trkpt>
      <trkpt lat="43.54985" lon="2.93718">
        <ele>331.4</ele>
        <time>2017-04-16T05:39:03.000Z</time>
      </trkpt>
      <trkpt lat="43.54989" lon="2.93718">
        <ele>331.8</ele>
        <time>2017-04-16T05:39:05.000Z</time>
      </trkpt>
      <trkpt lat="43.54994" lon="2.93718">
        <ele>332</ele>
        <time>2017-04-16T05:39:07.000Z</time>
      </trkpt>
      <trkpt lat="43.54999" lon="2.93719">
        <ele>332.2</ele>
        <time>2017-04-16T05:39:09.000Z</time>
      </trkpt>
      <trkpt lat="43.55016" lon="2.93716">
        <ele>332.6</ele>
        <time>2017-04-16T05:39:15.000Z</time>
      </trkpt>
      <trkpt lat="43.55032" lon="2.93712">
        <ele>333</ele>
        <time>2017-04-16T05:39:20.000Z</time>
      </trkpt>
      <trkpt lat="43.55041" lon="2.93713">
        <ele>333.2</ele>
        <time>2017-04-16T05:39:23.000Z</time>
      </trkpt>
      <trkpt lat="43.55045" lon="2.93715">
        <ele>333.6</ele>
        <time>2017-04-16T05:39:25.000Z</time>
      </trkpt>
      <trkpt lat="43.55051" lon="2.93716">
        <ele>334</ele>
        <time>2017-04-16T05:39:27.000Z</time>
      </trkpt>
      <trkpt lat="43.55058" lon="2.93715">
        <ele>334.2</ele>
        <time>2017-04-16T05:39:29.000Z</time>
      </trkpt>
      <trkpt lat="43.55064" lon="2.93715">
        <ele>334.4</ele>
        <time>2017-04-16T05:39:31.000Z</time>
      </trkpt>
      <trkpt lat="43.55076" lon="2.9372">
        <ele>334.8</ele>
        <time>2017-04-16T05:39:36.000Z</time>
      </trkpt>
      <trkpt lat="43.55089" lon="2.93725">
        <ele>335.4</ele>
        <time>2017-04-16T05:39:41.000Z</time>
      </trkpt>
      <trkpt lat="43.55094" lon="2.93725">
        <ele>335.8</ele>
        <time>2017-04-16T05:39:43.000Z</time>
      </trkpt>
      <trkpt lat="43.55096" lon="2.93723">
        <ele>336</ele>
        <time>2017-04-16T05:39:44.000Z</time>
      </trkpt>
      <trkpt lat="43.55097" lon="2.9372">
        <ele>336.2</ele>
        <time>2017-04-16T05:39:45.000Z</time>
      </trkpt>
      <trkpt lat="43.55098" lon="2.93713">
        <ele>336.4</ele>
        <time>2017-04-16T05:39:47.000Z</time>
      </trkpt>
      <trkpt lat="43.55096" lon="2.93704">
        <ele>336.6</ele>
        <time>2017-04-16T05:39:49.000Z</time>
      </trkpt>
      <trkpt lat="43.5509" lon="2.93696">
        <ele>336.8</ele>
        <time>2017-04-16T05:39:51.000Z</time>
      </trkpt>
      <trkpt lat="43.55071" lon="2.93672">
        <ele>337.2</ele>
        <time>2017-04-16T05:39:56.000Z</time>
      </trkpt>
      <trkpt lat="43.5505" lon="2.9365">
        <ele>337.4</ele>
        <time>2017-04-16T05:40:03.000Z</time>
      </trkpt>
      <trkpt lat="43.55034" lon="2.93641">
        <ele>337.6</ele>
        <time>2017-04-16T05:40:09.000Z</time>
      </trkpt>
      <trkpt lat="43.55017" lon="2.93632">
        <ele>337.6</ele>
        <time>2017-04-16T05:40:16.000Z</time>
      </trkpt>
      <trkpt lat="43.55011" lon="2.93629">
        <ele>337.8</ele>
        <time>2017-04-16T05:40:19.000Z</time>
      </trkpt>
      <trkpt lat="43.55007" lon="2.93627">
        <ele>338.2</ele>
        <time>2017-04-16T05:40:21.000Z</time>
      </trkpt>
      <trkpt lat="43.55003" lon="2.93626">
        <ele>338.6</ele>
        <time>2017-04-16T05:40:23.000Z</time>
      </trkpt>
      <trkpt lat="43.54998" lon="2.93625">
        <ele>338.8</ele>
        <time>2017-04-16T05:40:25.000Z</time>
      </trkpt>
      <trkpt lat="43.54996" lon="2.93624">
        <ele>339</ele>
        <time>2017-04-16T05:40:26.000Z</time>
      </trkpt>
      <trkpt lat="43.54991" lon="2.93624">
        <ele>339.6</ele>
        <time>2017-04-16T05:40:28.000Z</time>
      </trkpt>
      <trkpt lat="43.54987" lon="2.93623">
        <ele>340</ele>
        <time>2017-04-16T05:40:30.000Z</time>
      </trkpt>
      <trkpt lat="43.54983" lon="2.93623">
        <ele>340.4</ele>
        <time>2017-04-16T05:40:32.000Z</time>
      </trkpt>
      <trkpt lat="43.54978" lon="2.93623">
        <ele>340.6</ele>
        <time>2017-04-16T05:40:34.000Z</time>
      </trkpt>
      <trkpt lat="43.54976" lon="2.93623">
        <ele>341</ele>
        <time>2017-04-16T05:40:35.000Z</time>
      </trkpt>
      <trkpt lat="43.54971" lon="2.93623">
        <ele>341.6</ele>
        <time>2017-04-16T05:40:37.000Z</time>
      </trkpt>
      <trkpt lat="43.54965" lon="2.93623">
        <ele>342.2</ele>
        <time>2017-04-16T05:40:39.000Z</time>
      </trkpt>
      <trkpt lat="43.54961" lon="2.93624">
        <ele>342.6</ele>
        <time>2017-04-16T05:40:41.000Z</time>
      </trkpt>
      <trkpt lat="43.54956" lon="2.93625">
        <ele>342.8</ele>
        <time>2017-04-16T05:40:43.000Z</time>
      </trkpt>
      <trkpt lat="43.54946" lon="2.93631">
        <ele>343.6</ele>
        <time>2017-04-16T05:40:48.000Z</time>
      </trkpt>
      <trkpt lat="43.54943" lon="2.93634">
        <ele>344.2</ele>
        <time>2017-04-16T05:40:50.000Z</time>
      </trkpt>
      <trkpt lat="43.54939" lon="2.93637">
        <ele>344.6</ele>
        <time>2017-04-16T05:40:52.000Z</time>
      </trkpt>
      <trkpt lat="43.54935" lon="2.9364">
        <ele>345</ele>
        <time>2017-04-16T05:40:54.000Z</time>
      </trkpt>
      <trkpt lat="43.54931" lon="2.93643">
        <ele>345.2</ele>
        <time>2017-04-16T05:40:56.000Z</time>
      </trkpt>
      <trkpt lat="43.5492" lon="2.93646">
        <ele>345.6</ele>
        <time>2017-04-16T05:41:01.000Z</time>
      </trkpt>
      <trkpt lat="43.54911" lon="2.93648">
        <ele>346.2</ele>
        <time>2017-04-16T05:41:06.000Z</time>
      </trkpt>
      <trkpt lat="43.54907" lon="2.93648">
        <ele>346.6</ele>
        <time>2017-04-16T05:41:08.000Z</time>
      </trkpt>
      <trkpt lat="43.54903" lon="2.93648">
        <ele>347</ele>
        <time>2017-04-16T05:41:10.000Z</time>
      </trkpt>
      <trkpt lat="43.54899" lon="2.93648">
        <ele>347.4</ele>
        <time>2017-04-16T05:41:12.000Z</time>
      </trkpt>
      <trkpt lat="43.54895" lon="2.93647">
        <ele>347.6</ele>
        <time>2017-04-16T05:41:14.000Z</time>
      </trkpt>
      <trkpt lat="43.54889" lon="2.93645">
        <ele>348</ele>
        <time>2017-04-16T05:41:17.000Z</time>
      </trkpt>
      <trkpt lat="43.54884" lon="2.93643">
        <ele>348.6</ele>
        <time>2017-04-16T05:41:19.000Z</time>
      </trkpt>
      <trkpt lat="43.54881" lon="2.93642">
        <ele>349</ele>
        <time>2017-04-16T05:41:21.000Z</time>
      </trkpt>
      <trkpt lat="43.54877" lon="2.9364">
        <ele>349.4</ele>
        <time>2017-04-16T05:41:23.000Z</time>
      </trkpt>
      <trkpt lat="43.54873" lon="2.93638">
        <ele>349.6</ele>
        <time>2017-04-16T05:41:25.000Z</time>
      </trkpt>
      <trkpt lat="43.54869" lon="2.93637">
        <ele>350</ele>
        <time>2017-04-16T05:41:27.000Z</time>
      </trkpt>
      <trkpt lat="43.54865" lon="2.93635">
        <ele>350.6</ele>
        <time>2017-04-16T05:41:29.000Z</time>
      </trkpt>
      <trkpt lat="43.54861" lon="2.93634">
        <ele>351</ele>
        <time>2017-04-16T05:41:31.000Z</time>
      </trkpt>
      <trkpt lat="43.54858" lon="2.93632">
        <ele>351.4</ele>
        <time>2017-04-16T05:41:33.000Z</time>
      </trkpt>
      <trkpt lat="43.54854" lon="2.93629">
        <ele>351.6</ele>
        <time>2017-04-16T05:41:35.000Z</time>
      </trkpt>
      <trkpt lat="43.5484" lon="2.93623">
        <ele>352.6</ele>
        <time>2017-04-16T05:41:42.000Z</time>
      </trkpt>
      <trkpt lat="43.54836" lon="2.93621">
        <ele>353</ele>
        <time>2017-04-16T05:41:44.000Z</time>
      </trkpt>
      <trkpt lat="43.54831" lon="2.93619">
        <ele>353.4</ele>
        <time>2017-04-16T05:41:46.000Z</time>
      </trkpt>
      <trkpt lat="43.54827" lon="2.93617">
        <ele>353.8</ele>
        <time>2017-04-16T05:41:48.000Z</time>
      </trkpt>
      <trkpt lat="43.54823" lon="2.93615">
        <ele>354</ele>
        <time>2017-04-16T05:41:50.000Z</time>
      </trkpt>
      <trkpt lat="43.54812" lon="2.93612">
        <ele>354.6</ele>
        <time>2017-04-16T05:41:55.000Z</time>
      </trkpt>
      <trkpt lat="43.54808" lon="2.9361">
        <ele>355.2</ele>
        <time>2017-04-16T05:41:57.000Z</time>
      </trkpt>
      <trkpt lat="43.54804" lon="2.93609">
        <ele>355.6</ele>
        <time>2017-04-16T05:41:59.000Z</time>
      </trkpt>
      <trkpt lat="43.548" lon="2.93607">
        <ele>356</ele>
        <time>2017-04-16T05:42:01.000Z</time>
      </trkpt>
      <trkpt lat="43.54796" lon="2.93606">
        <ele>356.2</ele>
        <time>2017-04-16T05:42:03.000Z</time>
      </trkpt>
      <trkpt lat="43.54788" lon="2.93604">
        <ele>356.8</ele>
        <time>2017-04-16T05:42:07.000Z</time>
      </trkpt>
      <trkpt lat="43.54783" lon="2.93604">
        <ele>357.4</ele>
        <time>2017-04-16T05:42:09.000Z</time>
      </trkpt>
      <trkpt lat="43.54779" lon="2.93603">
        <ele>357.8</ele>
        <time>2017-04-16T05:42:11.000Z</time>
      </trkpt>
      <trkpt lat="43.54774" lon="2.93601">
        <ele>358</ele>
        <time>2017-04-16T05:42:13.000Z</time>
      </trkpt>
      <trkpt lat="43.54769" lon="2.936">
        <ele>358.4</ele>
        <time>2017-04-16T05:42:15.000Z</time>
      </trkpt>
      <trkpt lat="43.54765" lon="2.936">
        <ele>358.8</ele>
        <time>2017-04-16T05:42:17.000Z</time>
      </trkpt>
      <trkpt lat="43.54761" lon="2.936">
        <ele>359.2</ele>
        <time>2017-04-16T05:42:19.000Z</time>
      </trkpt>
      <trkpt lat="43.54757" lon="2.936">
        <ele>359.8</ele>
        <time>2017-04-16T05:42:21.000Z</time>
      </trkpt>
      <trkpt lat="43.54753" lon="2.936">
        <ele>360</ele>
        <time>2017-04-16T05:42:23.000Z</time>
      </trkpt>
      <trkpt lat="43.54749" lon="2.93601">
        <ele>360.4</ele>
        <time>2017-04-16T05:42:25.000Z</time>
      </trkpt>
      <trkpt lat="43.54734" lon="2.93601">
        <ele>361.2</ele>
        <time>2017-04-16T05:42:33.000Z</time>
      </trkpt>
      <trkpt lat="43.5473" lon="2.93601">
        <ele>361.8</ele>
        <time>2017-04-16T05:42:35.000Z</time>
      </trkpt>
      <trkpt lat="43.54727" lon="2.93601">
        <ele>362.2</ele>
        <time>2017-04-16T05:42:37.000Z</time>
      </trkpt>
      <trkpt lat="43.54723" lon="2.93601">
        <ele>362.4</ele>
        <time>2017-04-16T05:42:39.000Z</time>
      </trkpt>
      <trkpt lat="43.54719" lon="2.93602">
        <ele>362.6</ele>
        <time>2017-04-16T05:42:41.000Z</time>
      </trkpt>
      <trkpt lat="43.54705" lon="2.93605">
        <ele>363.4</ele>
        <time>2017-04-16T05:42:48.000Z</time>
      </trkpt>
      <trkpt lat="43.54701" lon="2.93606">
        <ele>364</ele>
        <time>2017-04-16T05:42:50.000Z</time>
      </trkpt>
      <trkpt lat="43.54698" lon="2.93607">
        <ele>364.4</ele>
        <time>2017-04-16T05:42:52.000Z</time>
      </trkpt>
      <trkpt lat="43.54694" lon="2.93608">
        <ele>364.6</ele>
        <time>2017-04-16T05:42:54.000Z</time>
      </trkpt>
      <trkpt lat="43.5469" lon="2.93609">
        <ele>365</ele>
        <time>2017-04-16T05:42:56.000Z</time>
      </trkpt>
      <trkpt lat="43.54689" lon="2.9361">
        <ele>365.2</ele>
        <time>2017-04-16T05:42:57.000Z</time>
      </trkpt>
      <trkpt lat="43.54685" lon="2.93611">
        <ele>365.8</ele>
        <time>2017-04-16T05:42:59.000Z</time>
      </trkpt>
      <trkpt lat="43.54682" lon="2.93611">
        <ele>366.2</ele>
        <time>2017-04-16T05:43:01.000Z</time>
      </trkpt>
      <trkpt lat="43.54678" lon="2.93612">
        <ele>366.6</ele>
        <time>2017-04-16T05:43:03.000Z</time>
      </trkpt>
      <trkpt lat="43.54674" lon="2.93613">
        <ele>366.8</ele>
        <time>2017-04-16T05:43:05.000Z</time>
      </trkpt>
      <trkpt lat="43.54661" lon="2.93616">
        <ele>367.6</ele>
        <time>2017-04-16T05:43:12.000Z</time>
      </trkpt>
      <trkpt lat="43.54646" lon="2.93617">
        <ele>367.8</ele>
        <time>2017-04-16T05:43:19.000Z</time>
      </trkpt>
      <trkpt lat="43.54644" lon="2.93617">
        <ele>368</ele>
        <time>2017-04-16T05:43:20.000Z</time>
      </trkpt>
      <trkpt lat="43.54639" lon="2.93617">
        <ele>368.4</ele>
        <time>2017-04-16T05:43:22.000Z</time>
      </trkpt>
      <trkpt lat="43.54635" lon="2.93617">
        <ele>368.8</ele>
        <time>2017-04-16T05:43:24.000Z</time>
      </trkpt>
      <trkpt lat="43.54631" lon="2.93617">
        <ele>369</ele>
        <time>2017-04-16T05:43:26.000Z</time>
      </trkpt>
      <trkpt lat="43.54627" lon="2.93617">
        <ele>369.2</ele>
        <time>2017-04-16T05:43:29.000Z</time>
      </trkpt>
      <trkpt lat="43.54619" lon="2.93617">
        <ele>369.8</ele>
        <time>2017-04-16T05:43:32.000Z</time>
      </trkpt>
      <trkpt lat="43.54615" lon="2.93618">
        <ele>370.2</ele>
        <time>2017-04-16T05:43:34.000Z</time>
      </trkpt>
      <trkpt lat="43.54611" lon="2.93619">
        <ele>370.6</ele>
        <time>2017-04-16T05:43:36.000Z</time>
      </trkpt>
      <trkpt lat="43.54607" lon="2.93619">
        <ele>371</ele>
        <time>2017-04-16T05:43:38.000Z</time>
      </trkpt>
      <trkpt lat="43.54603" lon="2.93619">
        <ele>371.2</ele>
        <time>2017-04-16T05:43:40.000Z</time>
      </trkpt>
      <trkpt lat="43.54599" lon="2.93619">
        <ele>371.8</ele>
        <time>2017-04-16T05:43:43.000Z</time>
      </trkpt>
      <trkpt lat="43.54595" lon="2.93618">
        <ele>372.2</ele>
        <time>2017-04-16T05:43:45.000Z</time>
      </trkpt>
      <trkpt lat="43.54592" lon="2.93617">
        <ele>372.6</ele>
        <time>2017-04-16T05:43:47.000Z</time>
      </trkpt>
      <trkpt lat="43.54589" lon="2.93616">
        <ele>373</ele>
        <time>2017-04-16T05:43:49.000Z</time>
      </trkpt>
      <trkpt lat="43.54585" lon="2.93615">
        <ele>373.2</ele>
        <time>2017-04-16T05:43:51.000Z</time>
      </trkpt>
      <trkpt lat="43.54574" lon="2.93615">
        <ele>373.8</ele>
        <time>2017-04-16T05:43:57.000Z</time>
      </trkpt>
      <trkpt lat="43.54572" lon="2.93615">
        <ele>374.2</ele>
        <time>2017-04-16T05:43:58.000Z</time>
      </trkpt>
      <trkpt lat="43.54568" lon="2.93614">
        <ele>374.6</ele>
        <time>2017-04-16T05:44:00.000Z</time>
      </trkpt>
      <trkpt lat="43.54565" lon="2.93613">
        <ele>375</ele>
        <time>2017-04-16T05:44:02.000Z</time>
      </trkpt>
      <trkpt lat="43.54563" lon="2.93613">
        <ele>375.4</ele>
        <time>2017-04-16T05:44:03.000Z</time>
      </trkpt>
      <trkpt lat="43.5456" lon="2.93613">
        <ele>376.2</ele>
        <time>2017-04-16T05:44:05.000Z</time>
      </trkpt>
      <trkpt lat="43.54556" lon="2.93613">
        <ele>376.6</ele>
        <time>2017-04-16T05:44:07.000Z</time>
      </trkpt>
      <trkpt lat="43.54553" lon="2.93613">
        <ele>377.2</ele>
        <time>2017-04-16T05:44:09.000Z</time>
      </trkpt>
      <trkpt lat="43.54549" lon="2.93613">
        <ele>377.6</ele>
        <time>2017-04-16T05:44:11.000Z</time>
      </trkpt>
      <trkpt lat="43.54547" lon="2.93613">
        <ele>377.8</ele>
        <time>2017-04-16T05:44:12.000Z</time>
      </trkpt>
      <trkpt lat="43.54544" lon="2.93613">
        <ele>378.4</ele>
        <time>2017-04-16T05:44:14.000Z</time>
      </trkpt>
      <trkpt lat="43.5454" lon="2.93612">
        <ele>379</ele>
        <time>2017-04-16T05:44:16.000Z</time>
      </trkpt>
      <trkpt lat="43.54536" lon="2.93612">
        <ele>379.6</ele>
        <time>2017-04-16T05:44:18.000Z</time>
      </trkpt>
      <trkpt lat="43.54534" lon="2.93613">
        <ele>380.2</ele>
        <time>2017-04-16T05:44:20.000Z</time>
      </trkpt>
      <trkpt lat="43.54532" lon="2.93612">
        <ele>381.4</ele>
        <time>2017-04-16T05:44:25.000Z</time>
      </trkpt>
      <trkpt lat="43.54531" lon="2.93612">
        <ele>382</ele>
        <time>2017-04-16T05:44:27.000Z</time>
      </trkpt>
      <trkpt lat="43.54528" lon="2.93613">
        <ele>382.6</ele>
        <time>2017-04-16T05:44:29.000Z</time>
      </trkpt>
      <trkpt lat="43.54524" lon="2.93614">
        <ele>383</ele>
        <time>2017-04-16T05:44:31.000Z</time>
      </trkpt>
      <trkpt lat="43.54522" lon="2.93614">
        <ele>383.4</ele>
        <time>2017-04-16T05:44:32.000Z</time>
      </trkpt>
      <trkpt lat="43.54515" lon="2.93613">
        <ele>383.8</ele>
        <time>2017-04-16T05:44:35.000Z</time>
      </trkpt>
      <trkpt lat="43.54507" lon="2.93604">
        <ele>384.4</ele>
        <time>2017-04-16T05:44:39.000Z</time>
      </trkpt>
      <trkpt lat="43.54504" lon="2.93594">
        <ele>384.6</ele>
        <time>2017-04-16T05:44:42.000Z</time>
      </trkpt>
      <trkpt lat="43.54501" lon="2.93576">
        <ele>385</ele>
        <time>2017-04-16T05:44:48.000Z</time>
      </trkpt>
      <trkpt lat="43.54501" lon="2.93573">
        <ele>385.2</ele>
        <time>2017-04-16T05:44:49.000Z</time>
      </trkpt>
      <trkpt lat="43.54501" lon="2.93569">
        <ele>385.4</ele>
        <time>2017-04-16T05:44:50.000Z</time>
      </trkpt>
      <trkpt lat="43.54502" lon="2.93566">
        <ele>385.6</ele>
        <time>2017-04-16T05:44:51.000Z</time>
      </trkpt>
      <trkpt lat="43.54502" lon="2.93559">
        <ele>386</ele>
        <time>2017-04-16T05:44:53.000Z</time>
      </trkpt>
      <trkpt lat="43.54501" lon="2.93552">
        <ele>386.2</ele>
        <time>2017-04-16T05:44:55.000Z</time>
      </trkpt>
      <trkpt lat="43.545" lon="2.93548">
        <ele>386.4</ele>
        <time>2017-04-16T05:44:56.000Z</time>
      </trkpt>
      <trkpt lat="43.54497" lon="2.93524">
        <ele>386.8</ele>
        <time>2017-04-16T05:45:02.000Z</time>
      </trkpt>
      <trkpt lat="43.545" lon="2.93504">
        <ele>387</ele>
        <time>2017-04-16T05:45:07.000Z</time>
      </trkpt>
      <trkpt lat="43.54499" lon="2.93484">
        <ele>387.2</ele>
        <time>2017-04-16T05:45:13.000Z</time>
      </trkpt>
      <trkpt lat="43.54498" lon="2.93481">
        <ele>387.4</ele>
        <time>2017-04-16T05:45:14.000Z</time>
      </trkpt>
      <trkpt lat="43.54496" lon="2.93475">
        <ele>387.8</ele>
        <time>2017-04-16T05:45:16.000Z</time>
      </trkpt>
      <trkpt lat="43.54496" lon="2.93469">
        <ele>388.2</ele>
        <time>2017-04-16T05:45:18.000Z</time>
      </trkpt>
      <trkpt lat="43.54496" lon="2.93463">
        <ele>388.4</ele>
        <time>2017-04-16T05:45:20.000Z</time>
      </trkpt>
      <trkpt lat="43.54496" lon="2.93456">
        <ele>388.6</ele>
        <time>2017-04-16T05:45:22.000Z</time>
      </trkpt>
      <trkpt lat="43.54496" lon="2.93435">
        <ele>389</ele>
        <time>2017-04-16T05:45:27.000Z</time>
      </trkpt>
      <trkpt lat="43.54495" lon="2.93431">
        <ele>389.4</ele>
        <time>2017-04-16T05:45:28.000Z</time>
      </trkpt>
      <trkpt lat="43.54494" lon="2.93423">
        <ele>389.8</ele>
        <time>2017-04-16T05:45:30.000Z</time>
      </trkpt>
      <trkpt lat="43.54495" lon="2.93414">
        <ele>390.2</ele>
        <time>2017-04-16T05:45:32.000Z</time>
      </trkpt>
      <trkpt lat="43.54497" lon="2.93406">
        <ele>390.4</ele>
        <time>2017-04-16T05:45:34.000Z</time>
      </trkpt>
      <trkpt lat="43.54497" lon="2.93401">
        <ele>390.6</ele>
        <time>2017-04-16T05:45:35.000Z</time>
      </trkpt>
      <trkpt lat="43.54498" lon="2.93397">
        <ele>390.8</ele>
        <time>2017-04-16T05:45:36.000Z</time>
      </trkpt>
      <trkpt lat="43.54499" lon="2.93388">
        <ele>391</ele>
        <time>2017-04-16T05:45:38.000Z</time>
      </trkpt>
      <trkpt lat="43.54503" lon="2.93352">
        <ele>391.4</ele>
        <time>2017-04-16T05:45:46.000Z</time>
      </trkpt>
      <trkpt lat="43.54507" lon="2.93326">
        <ele>391.6</ele>
        <time>2017-04-16T05:45:52.000Z</time>
      </trkpt>
      <trkpt lat="43.54514" lon="2.9331">
        <ele>391.8</ele>
        <time>2017-04-16T05:45:56.000Z</time>
      </trkpt>
      <trkpt lat="43.54518" lon="2.93302">
        <ele>392.2</ele>
        <time>2017-04-16T05:45:58.000Z</time>
      </trkpt>
      <trkpt lat="43.54523" lon="2.93295">
        <ele>392.6</ele>
        <time>2017-04-16T05:46:00.000Z</time>
      </trkpt>
      <trkpt lat="43.54527" lon="2.93288">
        <ele>392.8</ele>
        <time>2017-04-16T05:46:02.000Z</time>
      </trkpt>
      <trkpt lat="43.54531" lon="2.93281">
        <ele>393</ele>
        <time>2017-04-16T05:46:04.000Z</time>
      </trkpt>
      <trkpt lat="43.54544" lon="2.93261">
        <ele>393.4</ele>
        <time>2017-04-16T05:46:10.000Z</time>
      </trkpt>
      <trkpt lat="43.54554" lon="2.93245">
        <ele>393.8</ele>
        <time>2017-04-16T05:46:15.000Z</time>
      </trkpt>
      <trkpt lat="43.54558" lon="2.9324">
        <ele>394.2</ele>
        <time>2017-04-16T05:46:17.000Z</time>
      </trkpt>
      <trkpt lat="43.54561" lon="2.93234">
        <ele>394.4</ele>
        <time>2017-04-16T05:46:19.000Z</time>
      </trkpt>
      <trkpt lat="43.54564" lon="2.93228">
        <ele>394.8</ele>
        <time>2017-04-16T05:46:21.000Z</time>
      </trkpt>
      <trkpt lat="43.54568" lon="2.93222">
        <ele>395</ele>
        <time>2017-04-16T05:46:23.000Z</time>
      </trkpt>
      <trkpt lat="43.54579" lon="2.932">
        <ele>395.6</ele>
        <time>2017-04-16T05:46:30.000Z</time>
      </trkpt>
      <trkpt lat="43.54581" lon="2.93193">
        <ele>396</ele>
        <time>2017-04-16T05:46:32.000Z</time>
      </trkpt>
      <trkpt lat="43.54583" lon="2.93187">
        <ele>396.4</ele>
        <time>2017-04-16T05:46:34.000Z</time>
      </trkpt>
      <trkpt lat="43.54586" lon="2.9318">
        <ele>396.6</ele>
        <time>2017-04-16T05:46:36.000Z</time>
      </trkpt>
      <trkpt lat="43.54589" lon="2.93173">
        <ele>396.8</ele>
        <time>2017-04-16T05:46:38.000Z</time>
      </trkpt>
      <trkpt lat="43.54593" lon="2.93162">
        <ele>397.4</ele>
        <time>2017-04-16T05:46:41.000Z</time>
      </trkpt>
      <trkpt lat="43.54595" lon="2.93155">
        <ele>397.8</ele>
        <time>2017-04-16T05:46:43.000Z</time>
      </trkpt>
      <trkpt lat="43.54597" lon="2.93148">
        <ele>398.2</ele>
        <time>2017-04-16T05:46:45.000Z</time>
      </trkpt>
      <trkpt lat="43.54601" lon="2.93142">
        <ele>398.6</ele>
        <time>2017-04-16T05:46:47.000Z</time>
      </trkpt>
      <trkpt lat="43.54604" lon="2.93135">
        <ele>398.8</ele>
        <time>2017-04-16T05:46:49.000Z</time>
      </trkpt>
      <trkpt lat="43.54605" lon="2.93129">
        <ele>399.2</ele>
        <time>2017-04-16T05:46:51.000Z</time>
      </trkpt>
      <trkpt lat="43.54604" lon="2.93122">
        <ele>399.8</ele>
        <time>2017-04-16T05:46:53.000Z</time>
      </trkpt>
      <trkpt lat="43.54602" lon="2.93115">
        <ele>400.2</ele>
        <time>2017-04-16T05:46:55.000Z</time>
      </trkpt>
      <trkpt lat="43.54598" lon="2.93107">
        <ele>400.6</ele>
        <time>2017-04-16T05:46:57.000Z</time>
      </trkpt>
      <trkpt lat="43.54594" lon="2.93099">
        <ele>400.8</ele>
        <time>2017-04-16T05:46:59.000Z</time>
      </trkpt>
      <trkpt lat="43.54592" lon="2.93095">
        <ele>401</ele>
        <time>2017-04-16T05:47:00.000Z</time>
      </trkpt>
      <trkpt lat="43.54571" lon="2.93068">
        <ele>401.6</ele>
        <time>2017-04-16T05:47:07.000Z</time>
      </trkpt>
      <trkpt lat="43.54564" lon="2.93062">
        <ele>401.6</ele>
        <time>2017-04-16T05:47:09.000Z</time>
      </trkpt>
      <trkpt lat="43.54541" lon="2.93035">
        <ele>402</ele>
        <time>2017-04-16T05:47:17.000Z</time>
      </trkpt>
      <trkpt lat="43.5452" lon="2.93009">
        <ele>402</ele>
        <time>2017-04-16T05:47:24.000Z</time>
      </trkpt>
      <trkpt lat="43.54517" lon="2.93005">
        <ele>402</ele>
        <time>2017-04-16T05:47:25.000Z</time>
      </trkpt>
      <trkpt lat="43.54501" lon="2.92984">
        <ele>402</ele>
        <time>2017-04-16T05:47:31.000Z</time>
      </trkpt>
      <trkpt lat="43.54497" lon="2.92979">
        <ele>402.2</ele>
        <time>2017-04-16T05:47:33.000Z</time>
      </trkpt>
      <trkpt lat="43.54493" lon="2.92974">
        <ele>402.6</ele>
        <time>2017-04-16T05:47:35.000Z</time>
      </trkpt>
      <trkpt lat="43.54491" lon="2.92968">
        <ele>403</ele>
        <time>2017-04-16T05:47:37.000Z</time>
      </trkpt>
      <trkpt lat="43.54491" lon="2.92959">
        <ele>403.2</ele>
        <time>2017-04-16T05:47:39.000Z</time>
      </trkpt>
      <trkpt lat="43.54493" lon="2.92948">
        <ele>403.4</ele>
        <time>2017-04-16T05:47:41.000Z</time>
      </trkpt>
      <trkpt lat="43.545" lon="2.92929">
        <ele>403.6</ele>
        <time>2017-04-16T05:47:43.000Z</time>
      </trkpt>
      <trkpt lat="43.54506" lon="2.92901">
        <ele>403</ele>
        <time>2017-04-16T05:47:46.000Z</time>
      </trkpt>
      <trkpt lat="43.54495" lon="2.92875">
        <ele>402.2</ele>
        <time>2017-04-16T05:47:48.000Z</time>
      </trkpt>
      <trkpt lat="43.54491" lon="2.92864">
        <ele>401.8</ele>
        <time>2017-04-16T05:47:49.000Z</time>
      </trkpt>
      <trkpt lat="43.54487" lon="2.92852">
        <ele>401</ele>
        <time>2017-04-16T05:47:50.000Z</time>
      </trkpt>
      <trkpt lat="43.54484" lon="2.92837">
        <ele>400.4</ele>
        <time>2017-04-16T05:47:51.000Z</time>
      </trkpt>
      <trkpt lat="43.54475" lon="2.92795">
        <ele>397.8</ele>
        <time>2017-04-16T05:47:54.000Z</time>
      </trkpt>
      <trkpt lat="43.54474" lon="2.92782">
        <ele>397</ele>
        <time>2017-04-16T05:47:55.000Z</time>
      </trkpt>
      <trkpt lat="43.54469" lon="2.92759">
        <ele>393.8</ele>
        <time>2017-04-16T05:47:58.000Z</time>
      </trkpt>
      <trkpt lat="43.54461" lon="2.92754">
        <ele>392</ele>
        <time>2017-04-16T05:48:00.000Z</time>
      </trkpt>
      <trkpt lat="43.54457" lon="2.92755">
        <ele>391.2</ele>
        <time>2017-04-16T05:48:01.000Z</time>
      </trkpt>
      <trkpt lat="43.54452" lon="2.92762">
        <ele>390</ele>
        <time>2017-04-16T05:48:03.000Z</time>
      </trkpt>
      <trkpt lat="43.54451" lon="2.92766">
        <ele>389.4</ele>
        <time>2017-04-16T05:48:04.000Z</time>
      </trkpt>
      <trkpt lat="43.5445" lon="2.92775">
        <ele>388.4</ele>
        <time>2017-04-16T05:48:06.000Z</time>
      </trkpt>
      <trkpt lat="43.54446" lon="2.92791">
        <ele>386.4</ele>
        <time>2017-04-16T05:48:12.000Z</time>
      </trkpt>
      <trkpt lat="43.54445" lon="2.92807">
        <ele>385.4</ele>
        <time>2017-04-16T05:48:18.000Z</time>
      </trkpt>
      <trkpt lat="43.54443" lon="2.92817">
        <ele>385.2</ele>
        <time>2017-04-16T05:48:22.000Z</time>
      </trkpt>
      <trkpt lat="43.54441" lon="2.92822">
        <ele>385.4</ele>
        <time>2017-04-16T05:48:24.000Z</time>
      </trkpt>
      <trkpt lat="43.5444" lon="2.92827">
        <ele>385.6</ele>
        <time>2017-04-16T05:48:26.000Z</time>
      </trkpt>
      <trkpt lat="43.54439" lon="2.92831">
        <ele>385.8</ele>
        <time>2017-04-16T05:48:28.000Z</time>
      </trkpt>
      <trkpt lat="43.54438" lon="2.92835">
        <ele>385.8</ele>
        <time>2017-04-16T05:48:30.000Z</time>
      </trkpt>
      <trkpt lat="43.54437" lon="2.92842">
        <ele>386.2</ele>
        <time>2017-04-16T05:48:33.000Z</time>
      </trkpt>
      <trkpt lat="43.54435" lon="2.92847">
        <ele>386.6</ele>
        <time>2017-04-16T05:48:35.000Z</time>
      </trkpt>
      <trkpt lat="43.54433" lon="2.92852">
        <ele>387</ele>
        <time>2017-04-16T05:48:37.000Z</time>
      </trkpt>
      <trkpt lat="43.54432" lon="2.92856">
        <ele>387.2</ele>
        <time>2017-04-16T05:48:39.000Z</time>
      </trkpt>
      <trkpt lat="43.5443" lon="2.92861">
        <ele>387.4</ele>
        <time>2017-04-16T05:48:41.000Z</time>
      </trkpt>
      <trkpt lat="43.54427" lon="2.9287">
        <ele>388</ele>
        <time>2017-04-16T05:48:45.000Z</time>
      </trkpt>
      <trkpt lat="43.54426" lon="2.92875">
        <ele>388.4</ele>
        <time>2017-04-16T05:48:47.000Z</time>
      </trkpt>
      <trkpt lat="43.54424" lon="2.92879">
        <ele>388.8</ele>
        <time>2017-04-16T05:48:49.000Z</time>
      </trkpt>
      <trkpt lat="43.54422" lon="2.92883">
        <ele>389.2</ele>
        <time>2017-04-16T05:48:51.000Z</time>
      </trkpt>
      <trkpt lat="43.54421" lon="2.92888">
        <ele>389.6</ele>
        <time>2017-04-16T05:48:53.000Z</time>
      </trkpt>
      <trkpt lat="43.5442" lon="2.92893">
        <ele>390.2</ele>
        <time>2017-04-16T05:48:55.000Z</time>
      </trkpt>
      <trkpt lat="43.54418" lon="2.92897">
        <ele>390.6</ele>
        <time>2017-04-16T05:48:57.000Z</time>
      </trkpt>
      <trkpt lat="43.54417" lon="2.92902">
        <ele>391</ele>
        <time>2017-04-16T05:48:59.000Z</time>
      </trkpt>
      <trkpt lat="43.54416" lon="2.92907">
        <ele>391.4</ele>
        <time>2017-04-16T05:49:01.000Z</time>
      </trkpt>
      <trkpt lat="43.54413" lon="2.92917">
        <ele>392</ele>
        <time>2017-04-16T05:49:05.000Z</time>
      </trkpt>
      <trkpt lat="43.54413" lon="2.92922">
        <ele>392.6</ele>
        <time>2017-04-16T05:49:07.000Z</time>
      </trkpt>
      <trkpt lat="43.54412" lon="2.92927">
        <ele>393</ele>
        <time>2017-04-16T05:49:09.000Z</time>
      </trkpt>
      <trkpt lat="43.54412" lon="2.92932">
        <ele>393.2</ele>
        <time>2017-04-16T05:49:11.000Z</time>
      </trkpt>
      <trkpt lat="43.5441" lon="2.92936">
        <ele>393.6</ele>
        <time>2017-04-16T05:49:13.000Z</time>
      </trkpt>
      <trkpt lat="43.54409" lon="2.92939">
        <ele>394</ele>
        <time>2017-04-16T05:49:15.000Z</time>
      </trkpt>
      <trkpt lat="43.54408" lon="2.92944">
        <ele>394.6</ele>
        <time>2017-04-16T05:49:17.000Z</time>
      </trkpt>
      <trkpt lat="43.54407" lon="2.92948">
        <ele>395</ele>
        <time>2017-04-16T05:49:19.000Z</time>
      </trkpt>
      <trkpt lat="43.54406" lon="2.92953">
        <ele>395.4</ele>
        <time>2017-04-16T05:49:21.000Z</time>
      </trkpt>
      <trkpt lat="43.54404" lon="2.92958">
        <ele>395.6</ele>
        <time>2017-04-16T05:49:23.000Z</time>
      </trkpt>
      <trkpt lat="43.54401" lon="2.92963">
        <ele>396</ele>
        <time>2017-04-16T05:49:25.000Z</time>
      </trkpt>
      <trkpt lat="43.54399" lon="2.92967">
        <ele>396.6</ele>
        <time>2017-04-16T05:49:27.000Z</time>
      </trkpt>
      <trkpt lat="43.54397" lon="2.92971">
        <ele>397</ele>
        <time>2017-04-16T05:49:29.000Z</time>
      </trkpt>
      <trkpt lat="43.54395" lon="2.92974">
        <ele>397.4</ele>
        <time>2017-04-16T05:49:31.000Z</time>
      </trkpt>
      <trkpt lat="43.54392" lon="2.92977">
        <ele>397.6</ele>
        <time>2017-04-16T05:49:33.000Z</time>
      </trkpt>
      <trkpt lat="43.54389" lon="2.9298">
        <ele>398</ele>
        <time>2017-04-16T05:49:35.000Z</time>
      </trkpt>
      <trkpt lat="43.54387" lon="2.92982">
        <ele>398.6</ele>
        <time>2017-04-16T05:49:37.000Z</time>
      </trkpt>
      <trkpt lat="43.54384" lon="2.92986">
        <ele>399</ele>
        <time>2017-04-16T05:49:39.000Z</time>
      </trkpt>
      <trkpt lat="43.54381" lon="2.92989">
        <ele>399.4</ele>
        <time>2017-04-16T05:49:41.000Z</time>
      </trkpt>
      <trkpt lat="43.54378" lon="2.92993">
        <ele>399.6</ele>
        <time>2017-04-16T05:49:43.000Z</time>
      </trkpt>
      <trkpt lat="43.54376" lon="2.92997">
        <ele>400.2</ele>
        <time>2017-04-16T05:49:45.000Z</time>
      </trkpt>
      <trkpt lat="43.54374" lon="2.93001">
        <ele>400.8</ele>
        <time>2017-04-16T05:49:47.000Z</time>
      </trkpt>
      <trkpt lat="43.54373" lon="2.93005">
        <ele>401.2</ele>
        <time>2017-04-16T05:49:49.000Z</time>
      </trkpt>
      <trkpt lat="43.54371" lon="2.9301">
        <ele>401.6</ele>
        <time>2017-04-16T05:49:51.000Z</time>
      </trkpt>
      <trkpt lat="43.54369" lon="2.93015">
        <ele>402</ele>
        <time>2017-04-16T05:49:53.000Z</time>
      </trkpt>
      <trkpt lat="43.54366" lon="2.9302">
        <ele>402.6</ele>
        <time>2017-04-16T05:49:55.000Z</time>
      </trkpt>
      <trkpt lat="43.54364" lon="2.93025">
        <ele>403.2</ele>
        <time>2017-04-16T05:49:57.000Z</time>
      </trkpt>
      <trkpt lat="43.54362" lon="2.93031">
        <ele>403.6</ele>
        <time>2017-04-16T05:49:59.000Z</time>
      </trkpt>
      <trkpt lat="43.5436" lon="2.93036">
        <ele>403.8</ele>
        <time>2017-04-16T05:50:01.000Z</time>
      </trkpt>
      <trkpt lat="43.54355" lon="2.93049">
        <ele>404.8</ele>
        <time>2017-04-16T05:50:07.000Z</time>
      </trkpt>
      <trkpt lat="43.54352" lon="2.93055">
        <ele>405.2</ele>
        <time>2017-04-16T05:50:09.000Z</time>
      </trkpt>
      <trkpt lat="43.5435" lon="2.9306">
        <ele>405.6</ele>
        <time>2017-04-16T05:50:11.000Z</time>
      </trkpt>
      <trkpt lat="43.54347" lon="2.93064">
        <ele>406</ele>
        <time>2017-04-16T05:50:13.000Z</time>
      </trkpt>
      <trkpt lat="43.54345" lon="2.93067">
        <ele>406.2</ele>
        <time>2017-04-16T05:50:15.000Z</time>
      </trkpt>
      <trkpt lat="43.54341" lon="2.93079">
        <ele>407</ele>
        <time>2017-04-16T05:50:21.000Z</time>
      </trkpt>
      <trkpt lat="43.5434" lon="2.93083">
        <ele>407.4</ele>
        <time>2017-04-16T05:50:23.000Z</time>
      </trkpt>
      <trkpt lat="43.54338" lon="2.93086">
        <ele>407.8</ele>
        <time>2017-04-16T05:50:25.000Z</time>
      </trkpt>
      <trkpt lat="43.54337" lon="2.9309">
        <ele>408.2</ele>
        <time>2017-04-16T05:50:27.000Z</time>
      </trkpt>
      <trkpt lat="43.54335" lon="2.93094">
        <ele>408.4</ele>
        <time>2017-04-16T05:50:29.000Z</time>
      </trkpt>
      <trkpt lat="43.54331" lon="2.93102">
        <ele>409</ele>
        <time>2017-04-16T05:50:34.000Z</time>
      </trkpt>
      <trkpt lat="43.5433" lon="2.93107">
        <ele>409.6</ele>
        <time>2017-04-16T05:50:36.000Z</time>
      </trkpt>
      <trkpt lat="43.54327" lon="2.93112">
        <ele>410</ele>
        <time>2017-04-16T05:50:38.000Z</time>
      </trkpt>
      <trkpt lat="43.54326" lon="2.93117">
        <ele>410.4</ele>
        <time>2017-04-16T05:50:40.000Z</time>
      </trkpt>
      <trkpt lat="43.54324" lon="2.93121">
        <ele>410.6</ele>
        <time>2017-04-16T05:50:42.000Z</time>
      </trkpt>
      <trkpt lat="43.54324" lon="2.93123">
        <ele>411</ele>
        <time>2017-04-16T05:50:43.000Z</time>
      </trkpt>
      <trkpt lat="43.54324" lon="2.93127">
        <ele>411.6</ele>
        <time>2017-04-16T05:50:45.000Z</time>
      </trkpt>
      <trkpt lat="43.54323" lon="2.93131">
        <ele>412.2</ele>
        <time>2017-04-16T05:50:47.000Z</time>
      </trkpt>
      <trkpt lat="43.54322" lon="2.93138">
        <ele>412.6</ele>
        <time>2017-04-16T05:50:49.000Z</time>
      </trkpt>
      <trkpt lat="43.54323" lon="2.93142">
        <ele>412.8</ele>
        <time>2017-04-16T05:50:51.000Z</time>
      </trkpt>
      <trkpt lat="43.54323" lon="2.93143">
        <ele>413</ele>
        <time>2017-04-16T05:50:52.000Z</time>
      </trkpt>
      <trkpt lat="43.54323" lon="2.93146">
        <ele>413.4</ele>
        <time>2017-04-16T05:50:54.000Z</time>
      </trkpt>
      <trkpt lat="43.54323" lon="2.9315">
        <ele>414</ele>
        <time>2017-04-16T05:50:56.000Z</time>
      </trkpt>
      <trkpt lat="43.54323" lon="2.93155">
        <ele>414.4</ele>
        <time>2017-04-16T05:50:58.000Z</time>
      </trkpt>
      <trkpt lat="43.54323" lon="2.93159">
        <ele>414.8</ele>
        <time>2017-04-16T05:51:00.000Z</time>
      </trkpt>
      <trkpt lat="43.54323" lon="2.93163">
        <ele>415</ele>
        <time>2017-04-16T05:51:02.000Z</time>
      </trkpt>
      <trkpt lat="43.54323" lon="2.93165">
        <ele>415.2</ele>
        <time>2017-04-16T05:51:03.000Z</time>
      </trkpt>
      <trkpt lat="43.54323" lon="2.93168">
        <ele>415.4</ele>
        <time>2017-04-16T05:51:04.000Z</time>
      </trkpt>
      <trkpt lat="43.54323" lon="2.93172">
        <ele>416</ele>
        <time>2017-04-16T05:51:06.000Z</time>
      </trkpt>
      <trkpt lat="43.54323" lon="2.93174">
        <ele>416.4</ele>
        <time>2017-04-16T05:51:07.000Z</time>
      </trkpt>
      <trkpt lat="43.54322" lon="2.93177">
        <ele>416.6</ele>
        <time>2017-04-16T05:51:08.000Z</time>
      </trkpt>
      <trkpt lat="43.54321" lon="2.93182">
        <ele>417</ele>
        <time>2017-04-16T05:51:10.000Z</time>
      </trkpt>
      <trkpt lat="43.5432" lon="2.93188">
        <ele>417.4</ele>
        <time>2017-04-16T05:51:12.000Z</time>
      </trkpt>
      <trkpt lat="43.5432" lon="2.93193">
        <ele>418</ele>
        <time>2017-04-16T05:51:14.000Z</time>
      </trkpt>
      <trkpt lat="43.5432" lon="2.93199">
        <ele>418.6</ele>
        <time>2017-04-16T05:51:16.000Z</time>
      </trkpt>
      <trkpt lat="43.5432" lon="2.93203">
        <ele>419</ele>
        <time>2017-04-16T05:51:18.000Z</time>
      </trkpt>
      <trkpt lat="43.5432" lon="2.93208">
        <ele>419.4</ele>
        <time>2017-04-16T05:51:20.000Z</time>
      </trkpt>
      <trkpt lat="43.54319" lon="2.93213">
        <ele>420</ele>
        <time>2017-04-16T05:51:22.000Z</time>
      </trkpt>
      <trkpt lat="43.54319" lon="2.93217">
        <ele>420.6</ele>
        <time>2017-04-16T05:51:24.000Z</time>
      </trkpt>
      <trkpt lat="43.54318" lon="2.93223">
        <ele>421</ele>
        <time>2017-04-16T05:51:26.000Z</time>
      </trkpt>
      <trkpt lat="43.54318" lon="2.93228">
        <ele>421.4</ele>
        <time>2017-04-16T05:51:28.000Z</time>
      </trkpt>
      <trkpt lat="43.54316" lon="2.93245">
        <ele>422</ele>
        <time>2017-04-16T05:51:35.000Z</time>
      </trkpt>
      <trkpt lat="43.54316" lon="2.93248">
        <ele>422.4</ele>
        <time>2017-04-16T05:51:36.000Z</time>
      </trkpt>
      <trkpt lat="43.54316" lon="2.93253">
        <ele>422.8</ele>
        <time>2017-04-16T05:51:38.000Z</time>
      </trkpt>
      <trkpt lat="43.54315" lon="2.93258">
        <ele>423.2</ele>
        <time>2017-04-16T05:51:40.000Z</time>
      </trkpt>
      <trkpt lat="43.54314" lon="2.93263">
        <ele>423.6</ele>
        <time>2017-04-16T05:51:42.000Z</time>
      </trkpt>
      <trkpt lat="43.54313" lon="2.93266">
        <ele>423.8</ele>
        <time>2017-04-16T05:51:44.000Z</time>
      </trkpt>
      <trkpt lat="43.54313" lon="2.93277">
        <ele>424.4</ele>
        <time>2017-04-16T05:51:48.000Z</time>
      </trkpt>
      <trkpt lat="43.54313" lon="2.93282">
        <ele>424.8</ele>
        <time>2017-04-16T05:51:50.000Z</time>
      </trkpt>
      <trkpt lat="43.54312" lon="2.93286">
        <ele>425.2</ele>
        <time>2017-04-16T05:51:52.000Z</time>
      </trkpt>
      <trkpt lat="43.54311" lon="2.93291">
        <ele>425.6</ele>
        <time>2017-04-16T05:51:54.000Z</time>
      </trkpt>
      <trkpt lat="43.5431" lon="2.93296">
        <ele>425.8</ele>
        <time>2017-04-16T05:51:56.000Z</time>
      </trkpt>
      <trkpt lat="43.54309" lon="2.93301">
        <ele>426</ele>
        <time>2017-04-16T05:51:58.000Z</time>
      </trkpt>
      <trkpt lat="43.54308" lon="2.93306">
        <ele>426.4</ele>
        <time>2017-04-16T05:52:00.000Z</time>
      </trkpt>
      <trkpt lat="43.54307" lon="2.9331">
        <ele>427</ele>
        <time>2017-04-16T05:52:02.000Z</time>
      </trkpt>
      <trkpt lat="43.54307" lon="2.93313">
        <ele>427.2</ele>
        <time>2017-04-16T05:52:03.000Z</time>
      </trkpt>
      <trkpt lat="43.54307" lon="2.93315">
        <ele>427.4</ele>
        <time>2017-04-16T05:52:04.000Z</time>
      </trkpt>
      <trkpt lat="43.54306" lon="2.93319">
        <ele>427.6</ele>
        <time>2017-04-16T05:52:06.000Z</time>
      </trkpt>
      <trkpt lat="43.54305" lon="2.93324">
        <ele>428</ele>
        <time>2017-04-16T05:52:08.000Z</time>
      </trkpt>
      <trkpt lat="43.543" lon="2.93336">
        <ele>428.6</ele>
        <time>2017-04-16T05:52:13.000Z</time>
      </trkpt>
      <trkpt lat="43.54298" lon="2.9334">
        <ele>429.2</ele>
        <time>2017-04-16T05:52:15.000Z</time>
      </trkpt>
      <trkpt lat="43.54297" lon="2.93343">
        <ele>429.6</ele>
        <time>2017-04-16T05:52:17.000Z</time>
      </trkpt>
      <trkpt lat="43.54295" lon="2.93347">
        <ele>429.8</ele>
        <time>2017-04-16T05:52:19.000Z</time>
      </trkpt>
      <trkpt lat="43.54292" lon="2.9335">
        <ele>430.2</ele>
        <time>2017-04-16T05:52:21.000Z</time>
      </trkpt>
      <trkpt lat="43.54283" lon="2.93361">
        <ele>430.6</ele>
        <time>2017-04-16T05:52:27.000Z</time>
      </trkpt>
      <trkpt lat="43.54276" lon="2.93367">
        <ele>431</ele>
        <time>2017-04-16T05:52:31.000Z</time>
      </trkpt>
      <trkpt lat="43.54272" lon="2.9337">
        <ele>431.6</ele>
        <time>2017-04-16T05:52:33.000Z</time>
      </trkpt>
      <trkpt lat="43.54269" lon="2.93373">
        <ele>432</ele>
        <time>2017-04-16T05:52:35.000Z</time>
      </trkpt>
      <trkpt lat="43.54265" lon="2.93375">
        <ele>432.2</ele>
        <time>2017-04-16T05:52:37.000Z</time>
      </trkpt>
      <trkpt lat="43.54262" lon="2.93377">
        <ele>432.4</ele>
        <time>2017-04-16T05:52:39.000Z</time>
      </trkpt>
      <trkpt lat="43.54259" lon="2.9338">
        <ele>432.8</ele>
        <time>2017-04-16T05:52:41.000Z</time>
      </trkpt>
      <trkpt lat="43.54255" lon="2.93382">
        <ele>433.4</ele>
        <time>2017-04-16T05:52:43.000Z</time>
      </trkpt>
      <trkpt lat="43.54252" lon="2.93385">
        <ele>433.8</ele>
        <time>2017-04-16T05:52:45.000Z</time>
      </trkpt>
      <trkpt lat="43.54249" lon="2.93388">
        <ele>434.2</ele>
        <time>2017-04-16T05:52:47.000Z</time>
      </trkpt>
      <trkpt lat="43.54246" lon="2.93392">
        <ele>434.4</ele>
        <time>2017-04-16T05:52:49.000Z</time>
      </trkpt>
      <trkpt lat="43.54241" lon="2.934">
        <ele>435</ele>
        <time>2017-04-16T05:52:53.000Z</time>
      </trkpt>
      <trkpt lat="43.54238" lon="2.93404">
        <ele>435.6</ele>
        <time>2017-04-16T05:52:55.000Z</time>
      </trkpt>
      <trkpt lat="43.54236" lon="2.93408">
        <ele>436</ele>
        <time>2017-04-16T05:52:57.000Z</time>
      </trkpt>
      <trkpt lat="43.54233" lon="2.93413">
        <ele>436.4</ele>
        <time>2017-04-16T05:52:59.000Z</time>
      </trkpt>
      <trkpt lat="43.5423" lon="2.93417">
        <ele>436.6</ele>
        <time>2017-04-16T05:53:01.000Z</time>
      </trkpt>
      <trkpt lat="43.54228" lon="2.9342">
        <ele>437</ele>
        <time>2017-04-16T05:53:02.000Z</time>
      </trkpt>
      <trkpt lat="43.54225" lon="2.93425">
        <ele>437.4</ele>
        <time>2017-04-16T05:53:04.000Z</time>
      </trkpt>
      <trkpt lat="43.54223" lon="2.93429">
        <ele>438</ele>
        <time>2017-04-16T05:53:06.000Z</time>
      </trkpt>
      <trkpt lat="43.5422" lon="2.93433">
        <ele>438.2</ele>
        <time>2017-04-16T05:53:08.000Z</time>
      </trkpt>
      <trkpt lat="43.54216" lon="2.93435">
        <ele>438.6</ele>
        <time>2017-04-16T05:53:10.000Z</time>
      </trkpt>
      <trkpt lat="43.54212" lon="2.93436">
        <ele>439</ele>
        <time>2017-04-16T05:53:12.000Z</time>
      </trkpt>
      <trkpt lat="43.54208" lon="2.93437">
        <ele>439.6</ele>
        <time>2017-04-16T05:53:14.000Z</time>
      </trkpt>
      <trkpt lat="43.54204" lon="2.93436">
        <ele>440</ele>
        <time>2017-04-16T05:53:16.000Z</time>
      </trkpt>
      <trkpt lat="43.542" lon="2.93433">
        <ele>440.4</ele>
        <time>2017-04-16T05:53:18.000Z</time>
      </trkpt>
      <trkpt lat="43.54196" lon="2.93429">
        <ele>440.8</ele>
        <time>2017-04-16T05:53:20.000Z</time>
      </trkpt>
      <trkpt lat="43.54191" lon="2.93418">
        <ele>441.4</ele>
        <time>2017-04-16T05:53:25.000Z</time>
      </trkpt>
      <trkpt lat="43.54189" lon="2.93413">
        <ele>442</ele>
        <time>2017-04-16T05:53:27.000Z</time>
      </trkpt>
      <trkpt lat="43.54189" lon="2.93408">
        <ele>442.4</ele>
        <time>2017-04-16T05:53:29.000Z</time>
      </trkpt>
      <trkpt lat="43.54189" lon="2.93403">
        <ele>442.6</ele>
        <time>2017-04-16T05:53:31.000Z</time>
      </trkpt>
      <trkpt lat="43.54189" lon="2.934">
        <ele>442.8</ele>
        <time>2017-04-16T05:53:32.000Z</time>
      </trkpt>
      <trkpt lat="43.54189" lon="2.93398">
        <ele>443</ele>
        <time>2017-04-16T05:53:33.000Z</time>
      </trkpt>
      <trkpt lat="43.54189" lon="2.93394">
        <ele>443.2</ele>
        <time>2017-04-16T05:53:35.000Z</time>
      </trkpt>
      <trkpt lat="43.54189" lon="2.93386">
        <ele>443.6</ele>
        <time>2017-04-16T05:53:38.000Z</time>
      </trkpt>
      <trkpt lat="43.54189" lon="2.93381">
        <ele>444</ele>
        <time>2017-04-16T05:53:40.000Z</time>
      </trkpt>
      <trkpt lat="43.54189" lon="2.93374">
        <ele>444.4</ele>
        <time>2017-04-16T05:53:42.000Z</time>
      </trkpt>
      <trkpt lat="43.54189" lon="2.93368">
        <ele>444.8</ele>
        <time>2017-04-16T05:53:44.000Z</time>
      </trkpt>
      <trkpt lat="43.54189" lon="2.93366">
        <ele>445</ele>
        <time>2017-04-16T05:53:45.000Z</time>
      </trkpt>
      <trkpt lat="43.54186" lon="2.93351">
        <ele>445.8</ele>
        <time>2017-04-16T05:53:51.000Z</time>
      </trkpt>
      <trkpt lat="43.54185" lon="2.93349">
        <ele>446.2</ele>
        <time>2017-04-16T05:53:53.000Z</time>
      </trkpt>
      <trkpt lat="43.54183" lon="2.93349">
        <ele>446.4</ele>
        <time>2017-04-16T05:53:54.000Z</time>
      </trkpt>
      <trkpt lat="43.54182" lon="2.93347">
        <ele>446.6</ele>
        <time>2017-04-16T05:53:55.000Z</time>
      </trkpt>
      <trkpt lat="43.54179" lon="2.93344">
        <ele>447</ele>
        <time>2017-04-16T05:53:57.000Z</time>
      </trkpt>
      <trkpt lat="43.54176" lon="2.93341">
        <ele>447.2</ele>
        <time>2017-04-16T05:53:59.000Z</time>
      </trkpt>
      <trkpt lat="43.5416" lon="2.93328">
        <ele>448</ele>
        <time>2017-04-16T05:54:07.000Z</time>
      </trkpt>
      <trkpt lat="43.54157" lon="2.93325">
        <ele>448.6</ele>
        <time>2017-04-16T05:54:09.000Z</time>
      </trkpt>
      <trkpt lat="43.54153" lon="2.93322">
        <ele>449</ele>
        <time>2017-04-16T05:54:11.000Z</time>
      </trkpt>
      <trkpt lat="43.54149" lon="2.93319">
        <ele>449.2</ele>
        <time>2017-04-16T05:54:13.000Z</time>
      </trkpt>
      <trkpt lat="43.54145" lon="2.93317">
        <ele>449.4</ele>
        <time>2017-04-16T05:54:15.000Z</time>
      </trkpt>
      <trkpt lat="43.54143" lon="2.93316">
        <ele>449.8</ele>
        <time>2017-04-16T05:54:16.000Z</time>
      </trkpt>
      <trkpt lat="43.54139" lon="2.93315">
        <ele>450.2</ele>
        <time>2017-04-16T05:54:18.000Z</time>
      </trkpt>
      <trkpt lat="43.54135" lon="2.93314">
        <ele>450.8</ele>
        <time>2017-04-16T05:54:20.000Z</time>
      </trkpt>
      <trkpt lat="43.54131" lon="2.93314">
        <ele>451</ele>
        <time>2017-04-16T05:54:22.000Z</time>
      </trkpt>
      <trkpt lat="43.54127" lon="2.93314">
        <ele>451.4</ele>
        <time>2017-04-16T05:54:24.000Z</time>
      </trkpt>
      <trkpt lat="43.5412" lon="2.93315">
        <ele>451.8</ele>
        <time>2017-04-16T05:54:27.000Z</time>
      </trkpt>
      <trkpt lat="43.54117" lon="2.93316">
        <ele>452.4</ele>
        <time>2017-04-16T05:54:29.000Z</time>
      </trkpt>
      <trkpt lat="43.54113" lon="2.93317">
        <ele>452.8</ele>
        <time>2017-04-16T05:54:31.000Z</time>
      </trkpt>
      <trkpt lat="43.54109" lon="2.93318">
        <ele>453.2</ele>
        <time>2017-04-16T05:54:33.000Z</time>
      </trkpt>
      <trkpt lat="43.54105" lon="2.9332">
        <ele>453.4</ele>
        <time>2017-04-16T05:54:35.000Z</time>
      </trkpt>
      <trkpt lat="43.54099" lon="2.93324">
        <ele>454</ele>
        <time>2017-04-16T05:54:39.000Z</time>
      </trkpt>
      <trkpt lat="43.54096" lon="2.93327">
        <ele>454.6</ele>
        <time>2017-04-16T05:54:41.000Z</time>
      </trkpt>
      <trkpt lat="43.54093" lon="2.9333">
        <ele>455</ele>
        <time>2017-04-16T05:54:43.000Z</time>
      </trkpt>
      <trkpt lat="43.5409" lon="2.93333">
        <ele>455.2</ele>
        <time>2017-04-16T05:54:45.000Z</time>
      </trkpt>
      <trkpt lat="43.54087" lon="2.93335">
        <ele>455.6</ele>
        <time>2017-04-16T05:54:47.000Z</time>
      </trkpt>
      <trkpt lat="43.54081" lon="2.93341">
        <ele>456.2</ele>
        <time>2017-04-16T05:54:51.000Z</time>
      </trkpt>
      <trkpt lat="43.54078" lon="2.93343">
        <ele>456.6</ele>
        <time>2017-04-16T05:54:53.000Z</time>
      </trkpt>
      <trkpt lat="43.54075" lon="2.93346">
        <ele>457</ele>
        <time>2017-04-16T05:54:55.000Z</time>
      </trkpt>
      <trkpt lat="43.54072" lon="2.93348">
        <ele>457.4</ele>
        <time>2017-04-16T05:54:57.000Z</time>
      </trkpt>
      <trkpt lat="43.54069" lon="2.93351">
        <ele>457.6</ele>
        <time>2017-04-16T05:54:59.000Z</time>
      </trkpt>
      <trkpt lat="43.54065" lon="2.93353">
        <ele>458</ele>
        <time>2017-04-16T05:55:01.000Z</time>
      </trkpt>
      <trkpt lat="43.54062" lon="2.93356">
        <ele>458.6</ele>
        <time>2017-04-16T05:55:03.000Z</time>
      </trkpt>
      <trkpt lat="43.54059" lon="2.93358">
        <ele>459</ele>
        <time>2017-04-16T05:55:05.000Z</time>
      </trkpt>
      <trkpt lat="43.54056" lon="2.93359">
        <ele>459.4</ele>
        <time>2017-04-16T05:55:07.000Z</time>
      </trkpt>
      <trkpt lat="43.54054" lon="2.9336">
        <ele>459.6</ele>
        <time>2017-04-16T05:55:08.000Z</time>
      </trkpt>
      <trkpt lat="43.54049" lon="2.93363">
        <ele>460.2</ele>
        <time>2017-04-16T05:55:11.000Z</time>
      </trkpt>
      <trkpt lat="43.54046" lon="2.93365">
        <ele>460.6</ele>
        <time>2017-04-16T05:55:13.000Z</time>
      </trkpt>
      <trkpt lat="43.54042" lon="2.93366">
        <ele>461</ele>
        <time>2017-04-16T05:55:15.000Z</time>
      </trkpt>
      <trkpt lat="43.54038" lon="2.93367">
        <ele>461.4</ele>
        <time>2017-04-16T05:55:17.000Z</time>
      </trkpt>
      <trkpt lat="43.54034" lon="2.93368">
        <ele>461.8</ele>
        <time>2017-04-16T05:55:19.000Z</time>
      </trkpt>
      <trkpt lat="43.54028" lon="2.93369">
        <ele>462.2</ele>
        <time>2017-04-16T05:55:22.000Z</time>
      </trkpt>
      <trkpt lat="43.54024" lon="2.9337">
        <ele>462.8</ele>
        <time>2017-04-16T05:55:24.000Z</time>
      </trkpt>
      <trkpt lat="43.54021" lon="2.93371">
        <ele>463.2</ele>
        <time>2017-04-16T05:55:26.000Z</time>
      </trkpt>
      <trkpt lat="43.54017" lon="2.93371">
        <ele>463.6</ele>
        <time>2017-04-16T05:55:28.000Z</time>
      </trkpt>
      <trkpt lat="43.54015" lon="2.93372">
        <ele>464</ele>
        <time>2017-04-16T05:55:29.000Z</time>
      </trkpt>
      <trkpt lat="43.54012" lon="2.93373">
        <ele>464.6</ele>
        <time>2017-04-16T05:55:31.000Z</time>
      </trkpt>
      <trkpt lat="43.54008" lon="2.93375">
        <ele>465</ele>
        <time>2017-04-16T05:55:33.000Z</time>
      </trkpt>
      <trkpt lat="43.54005" lon="2.93377">
        <ele>465.4</ele>
        <time>2017-04-16T05:55:35.000Z</time>
      </trkpt>
      <trkpt lat="43.54002" lon="2.9338">
        <ele>466</ele>
        <time>2017-04-16T05:55:37.000Z</time>
      </trkpt>
      <trkpt lat="43.53998" lon="2.93382">
        <ele>466.6</ele>
        <time>2017-04-16T05:55:39.000Z</time>
      </trkpt>
      <trkpt lat="43.53995" lon="2.93385">
        <ele>467.2</ele>
        <time>2017-04-16T05:55:41.000Z</time>
      </trkpt>
      <trkpt lat="43.53993" lon="2.93388">
        <ele>467.6</ele>
        <time>2017-04-16T05:55:43.000Z</time>
      </trkpt>
      <trkpt lat="43.5399" lon="2.93391">
        <ele>468</ele>
        <time>2017-04-16T05:55:45.000Z</time>
      </trkpt>
      <trkpt lat="43.53989" lon="2.93393">
        <ele>468.2</ele>
        <time>2017-04-16T05:55:46.000Z</time>
      </trkpt>
      <trkpt lat="43.53987" lon="2.93397">
        <ele>468.8</ele>
        <time>2017-04-16T05:55:49.000Z</time>
      </trkpt>
      <trkpt lat="43.53984" lon="2.93401">
        <ele>469.4</ele>
        <time>2017-04-16T05:55:50.000Z</time>
      </trkpt>
      <trkpt lat="43.53982" lon="2.93404">
        <ele>469.8</ele>
        <time>2017-04-16T05:55:52.000Z</time>
      </trkpt>
      <trkpt lat="43.5398" lon="2.93408">
        <ele>470</ele>
        <time>2017-04-16T05:55:54.000Z</time>
      </trkpt>
      <trkpt lat="43.53978" lon="2.93412">
        <ele>470.6</ele>
        <time>2017-04-16T05:55:56.000Z</time>
      </trkpt>
      <trkpt lat="43.53976" lon="2.93416">
        <ele>471.2</ele>
        <time>2017-04-16T05:55:58.000Z</time>
      </trkpt>
      <trkpt lat="43.53974" lon="2.9342">
        <ele>471.8</ele>
        <time>2017-04-16T05:56:00.000Z</time>
      </trkpt>
      <trkpt lat="43.53972" lon="2.93425">
        <ele>472.2</ele>
        <time>2017-04-16T05:56:02.000Z</time>
      </trkpt>
      <trkpt lat="43.5397" lon="2.9343">
        <ele>472.4</ele>
        <time>2017-04-16T05:56:04.000Z</time>
      </trkpt>
      <trkpt lat="43.53965" lon="2.93443">
        <ele>473</ele>
        <time>2017-04-16T05:56:10.000Z</time>
      </trkpt>
      <trkpt lat="43.53964" lon="2.93445">
        <ele>473.4</ele>
        <time>2017-04-16T05:56:11.000Z</time>
      </trkpt>
      <trkpt lat="43.53962" lon="2.9345">
        <ele>473.8</ele>
        <time>2017-04-16T05:56:13.000Z</time>
      </trkpt>
      <trkpt lat="43.5396" lon="2.93454">
        <ele>474.2</ele>
        <time>2017-04-16T05:56:15.000Z</time>
      </trkpt>
      <trkpt lat="43.53959" lon="2.93458">
        <ele>474.6</ele>
        <time>2017-04-16T05:56:17.000Z</time>
      </trkpt>
      <trkpt lat="43.53958" lon="2.93462">
        <ele>474.8</ele>
        <time>2017-04-16T05:56:19.000Z</time>
      </trkpt>
      <trkpt lat="43.53951" lon="2.93474">
        <ele>475.6</ele>
        <time>2017-04-16T05:56:26.000Z</time>
      </trkpt>
      <trkpt lat="43.53948" lon="2.93478">
        <ele>476</ele>
        <time>2017-04-16T05:56:28.000Z</time>
      </trkpt>
      <trkpt lat="43.53947" lon="2.93482">
        <ele>476.4</ele>
        <time>2017-04-16T05:56:30.000Z</time>
      </trkpt>
      <trkpt lat="43.53945" lon="2.93484">
        <ele>476.4</ele>
        <time>2017-04-16T05:56:31.000Z</time>
      </trkpt>
      <trkpt lat="43.53944" lon="2.93486">
        <ele>476.6</ele>
        <time>2017-04-16T05:56:32.000Z</time>
      </trkpt>
      <trkpt lat="43.53942" lon="2.9349">
        <ele>476.8</ele>
        <time>2017-04-16T05:56:34.000Z</time>
      </trkpt>
      <trkpt lat="43.53939" lon="2.93493">
        <ele>477.2</ele>
        <time>2017-04-16T05:56:36.000Z</time>
      </trkpt>
      <trkpt lat="43.53937" lon="2.93497">
        <ele>477.8</ele>
        <time>2017-04-16T05:56:38.000Z</time>
      </trkpt>
      <trkpt lat="43.53935" lon="2.935">
        <ele>478.2</ele>
        <time>2017-04-16T05:56:40.000Z</time>
      </trkpt>
      <trkpt lat="43.53933" lon="2.93503">
        <ele>478.4</ele>
        <time>2017-04-16T05:56:42.000Z</time>
      </trkpt>
      <trkpt lat="43.5393" lon="2.93507">
        <ele>478.8</ele>
        <time>2017-04-16T05:56:44.000Z</time>
      </trkpt>
      <trkpt lat="43.53926" lon="2.93515">
        <ele>479.4</ele>
        <time>2017-04-16T05:56:48.000Z</time>
      </trkpt>
      <trkpt lat="43.53924" lon="2.93518">
        <ele>479.8</ele>
        <time>2017-04-16T05:56:50.000Z</time>
      </trkpt>
      <trkpt lat="43.53921" lon="2.93522">
        <ele>480.4</ele>
        <time>2017-04-16T05:56:52.000Z</time>
      </trkpt>
      <trkpt lat="43.53919" lon="2.93525">
        <ele>480.6</ele>
        <time>2017-04-16T05:56:54.000Z</time>
      </trkpt>
      <trkpt lat="43.53917" lon="2.93529">
        <ele>481</ele>
        <time>2017-04-16T05:56:56.000Z</time>
      </trkpt>
      <trkpt lat="43.53914" lon="2.93534">
        <ele>481.4</ele>
        <time>2017-04-16T05:56:59.000Z</time>
      </trkpt>
      <trkpt lat="43.53912" lon="2.93538">
        <ele>482</ele>
        <time>2017-04-16T05:57:01.000Z</time>
      </trkpt>
      <trkpt lat="43.5391" lon="2.93542">
        <ele>482.4</ele>
        <time>2017-04-16T05:57:03.000Z</time>
      </trkpt>
      <trkpt lat="43.53908" lon="2.93546">
        <ele>482.8</ele>
        <time>2017-04-16T05:57:05.000Z</time>
      </trkpt>
      <trkpt lat="43.53906" lon="2.9355">
        <ele>483</ele>
        <time>2017-04-16T05:57:07.000Z</time>
      </trkpt>
      <trkpt lat="43.53904" lon="2.93557">
        <ele>483.6</ele>
        <time>2017-04-16T05:57:10.000Z</time>
      </trkpt>
      <trkpt lat="43.53902" lon="2.93562">
        <ele>484.2</ele>
        <time>2017-04-16T05:57:12.000Z</time>
      </trkpt>
      <trkpt lat="43.539" lon="2.93568">
        <ele>484.6</ele>
        <time>2017-04-16T05:57:15.000Z</time>
      </trkpt>
      <trkpt lat="43.53899" lon="2.93573">
        <ele>484.8</ele>
        <time>2017-04-16T05:57:17.000Z</time>
      </trkpt>
      <trkpt lat="43.53898" lon="2.93578">
        <ele>485.2</ele>
        <time>2017-04-16T05:57:19.000Z</time>
      </trkpt>
      <trkpt lat="43.53895" lon="2.93588">
        <ele>485.8</ele>
        <time>2017-04-16T05:57:23.000Z</time>
      </trkpt>
      <trkpt lat="43.53894" lon="2.93592">
        <ele>486.2</ele>
        <time>2017-04-16T05:57:25.000Z</time>
      </trkpt>
      <trkpt lat="43.53892" lon="2.93596">
        <ele>486.6</ele>
        <time>2017-04-16T05:57:27.000Z</time>
      </trkpt>
      <trkpt lat="43.53891" lon="2.93601">
        <ele>487</ele>
        <time>2017-04-16T05:57:29.000Z</time>
      </trkpt>
      <trkpt lat="43.53889" lon="2.93605">
        <ele>487.2</ele>
        <time>2017-04-16T05:57:31.000Z</time>
      </trkpt>
      <trkpt lat="43.53886" lon="2.93617">
        <ele>487.8</ele>
        <time>2017-04-16T05:57:36.000Z</time>
      </trkpt>
      <trkpt lat="43.53886" lon="2.93621">
        <ele>488.4</ele>
        <time>2017-04-16T05:57:38.000Z</time>
      </trkpt>
      <trkpt lat="43.53886" lon="2.93625">
        <ele>488.8</ele>
        <time>2017-04-16T05:57:40.000Z</time>
      </trkpt>
      <trkpt lat="43.53886" lon="2.9363">
        <ele>489</ele>
        <time>2017-04-16T05:57:42.000Z</time>
      </trkpt>
      <trkpt lat="43.53886" lon="2.93634">
        <ele>489.2</ele>
        <time>2017-04-16T05:57:44.000Z</time>
      </trkpt>
      <trkpt lat="43.53885" lon="2.9364">
        <ele>489.8</ele>
        <time>2017-04-16T05:57:47.000Z</time>
      </trkpt>
      <trkpt lat="43.53885" lon="2.93645">
        <ele>490.4</ele>
        <time>2017-04-16T05:57:49.000Z</time>
      </trkpt>
      <trkpt lat="43.53884" lon="2.9365">
        <ele>490.8</ele>
        <time>2017-04-16T05:57:51.000Z</time>
      </trkpt>
      <trkpt lat="43.53883" lon="2.93655">
        <ele>491</ele>
        <time>2017-04-16T05:57:53.000Z</time>
      </trkpt>
      <trkpt lat="43.53882" lon="2.9366">
        <ele>491.4</ele>
        <time>2017-04-16T05:57:55.000Z</time>
      </trkpt>
      <trkpt lat="43.53878" lon="2.93675">
        <ele>492.2</ele>
        <time>2017-04-16T05:58:02.000Z</time>
      </trkpt>
      <trkpt lat="43.53877" lon="2.93679">
        <ele>492.6</ele>
        <time>2017-04-16T05:58:04.000Z</time>
      </trkpt>
      <trkpt lat="43.53876" lon="2.93683">
        <ele>493</ele>
        <time>2017-04-16T05:58:06.000Z</time>
      </trkpt>
      <trkpt lat="43.53875" lon="2.93688">
        <ele>493.2</ele>
        <time>2017-04-16T05:58:08.000Z</time>
      </trkpt>
      <trkpt lat="43.53874" lon="2.93693">
        <ele>493.6</ele>
        <time>2017-04-16T05:58:10.000Z</time>
      </trkpt>
      <trkpt lat="43.53873" lon="2.93695">
        <ele>493.8</ele>
        <time>2017-04-16T05:58:11.000Z</time>
      </trkpt>
      <trkpt lat="43.53872" lon="2.937">
        <ele>494.4</ele>
        <time>2017-04-16T05:58:13.000Z</time>
      </trkpt>
      <trkpt lat="43.53872" lon="2.93705">
        <ele>494.8</ele>
        <time>2017-04-16T05:58:15.000Z</time>
      </trkpt>
      <trkpt lat="43.53871" lon="2.9371">
        <ele>495.2</ele>
        <time>2017-04-16T05:58:17.000Z</time>
      </trkpt>
      <trkpt lat="43.5387" lon="2.93715">
        <ele>495.4</ele>
        <time>2017-04-16T05:58:19.000Z</time>
      </trkpt>
      <trkpt lat="43.53868" lon="2.93728">
        <ele>496.2</ele>
        <time>2017-04-16T05:58:24.000Z</time>
      </trkpt>
      <trkpt lat="43.53867" lon="2.93732">
        <ele>496.6</ele>
        <time>2017-04-16T05:58:26.000Z</time>
      </trkpt>
      <trkpt lat="43.53866" lon="2.93737">
        <ele>497</ele>
        <time>2017-04-16T05:58:28.000Z</time>
      </trkpt>
      <trkpt lat="43.53866" lon="2.93741">
        <ele>497.4</ele>
        <time>2017-04-16T05:58:30.000Z</time>
      </trkpt>
      <trkpt lat="43.53865" lon="2.93745">
        <ele>497.6</ele>
        <time>2017-04-16T05:58:32.000Z</time>
      </trkpt>
      <trkpt lat="43.53865" lon="2.93749">
        <ele>498.2</ele>
        <time>2017-04-16T05:58:34.000Z</time>
      </trkpt>
      <trkpt lat="43.53864" lon="2.93754">
        <ele>498.6</ele>
        <time>2017-04-16T05:58:36.000Z</time>
      </trkpt>
      <trkpt lat="43.53863" lon="2.93758">
        <ele>499.2</ele>
        <time>2017-04-16T05:58:38.000Z</time>
      </trkpt>
      <trkpt lat="43.53862" lon="2.93763">
        <ele>499.4</ele>
        <time>2017-04-16T05:58:40.000Z</time>
      </trkpt>
      <trkpt lat="43.53862" lon="2.93768">
        <ele>499.8</ele>
        <time>2017-04-16T05:58:42.000Z</time>
      </trkpt>
      <trkpt lat="43.5386" lon="2.93779">
        <ele>500.6</ele>
        <time>2017-04-16T05:58:47.000Z</time>
      </trkpt>
      <trkpt lat="43.53859" lon="2.93783">
        <ele>501</ele>
        <time>2017-04-16T05:58:49.000Z</time>
      </trkpt>
      <trkpt lat="43.53859" lon="2.93788">
        <ele>501.4</ele>
        <time>2017-04-16T05:58:51.000Z</time>
      </trkpt>
      <trkpt lat="43.53859" lon="2.93793">
        <ele>501.8</ele>
        <time>2017-04-16T05:58:53.000Z</time>
      </trkpt>
      <trkpt lat="43.53858" lon="2.93798">
        <ele>502</ele>
        <time>2017-04-16T05:58:55.000Z</time>
      </trkpt>
      <trkpt lat="43.53859" lon="2.93808">
        <ele>502.6</ele>
        <time>2017-04-16T05:58:59.000Z</time>
      </trkpt>
      <trkpt lat="43.53859" lon="2.93812">
        <ele>503.2</ele>
        <time>2017-04-16T05:59:01.000Z</time>
      </trkpt>
      <trkpt lat="43.53859" lon="2.93818">
        <ele>503.6</ele>
        <time>2017-04-16T05:59:03.000Z</time>
      </trkpt>
      <trkpt lat="43.53859" lon="2.93823">
        <ele>504</ele>
        <time>2017-04-16T05:59:05.000Z</time>
      </trkpt>
      <trkpt lat="43.5386" lon="2.9383">
        <ele>504.2</ele>
        <time>2017-04-16T05:59:07.000Z</time>
      </trkpt>
      <trkpt lat="43.5386" lon="2.93845">
        <ele>505</ele>
        <time>2017-04-16T05:59:12.000Z</time>
      </trkpt>
      <trkpt lat="43.5386" lon="2.93847">
        <ele>505.2</ele>
        <time>2017-04-16T05:59:13.000Z</time>
      </trkpt>
      <trkpt lat="43.53862" lon="2.93855">
        <ele>505.8</ele>
        <time>2017-04-16T05:59:16.000Z</time>
      </trkpt>
      <trkpt lat="43.53863" lon="2.9386">
        <ele>506.2</ele>
        <time>2017-04-16T05:59:18.000Z</time>
      </trkpt>
      <trkpt lat="43.53864" lon="2.93865">
        <ele>506.4</ele>
        <time>2017-04-16T05:59:20.000Z</time>
      </trkpt>
      <trkpt lat="43.53864" lon="2.93867">
        <ele>506.6</ele>
        <time>2017-04-16T05:59:21.000Z</time>
      </trkpt>
      <trkpt lat="43.53865" lon="2.93874">
        <ele>507.4</ele>
        <time>2017-04-16T05:59:24.000Z</time>
      </trkpt>
      <trkpt lat="43.53866" lon="2.93876">
        <ele>507.6</ele>
        <time>2017-04-16T05:59:25.000Z</time>
      </trkpt>
      <trkpt lat="43.53867" lon="2.93878">
        <ele>508</ele>
        <time>2017-04-16T05:59:26.000Z</time>
      </trkpt>
      <trkpt lat="43.53869" lon="2.93883">
        <ele>508.2</ele>
        <time>2017-04-16T05:59:28.000Z</time>
      </trkpt>
      <trkpt lat="43.53871" lon="2.93887">
        <ele>508.6</ele>
        <time>2017-04-16T05:59:30.000Z</time>
      </trkpt>
      <trkpt lat="43.53872" lon="2.93896">
        <ele>509.2</ele>
        <time>2017-04-16T05:59:34.000Z</time>
      </trkpt>
      <trkpt lat="43.53873" lon="2.93901">
        <ele>509.6</ele>
        <time>2017-04-16T05:59:36.000Z</time>
      </trkpt>
      <trkpt lat="43.53873" lon="2.93905">
        <ele>510.2</ele>
        <time>2017-04-16T05:59:38.000Z</time>
      </trkpt>
      <trkpt lat="43.53874" lon="2.9391">
        <ele>510.4</ele>
        <time>2017-04-16T05:59:40.000Z</time>
      </trkpt>
      <trkpt lat="43.53874" lon="2.93916">
        <ele>510.8</ele>
        <time>2017-04-16T05:59:42.000Z</time>
      </trkpt>
      <trkpt lat="43.53874" lon="2.93919">
        <ele>510.8</ele>
        <time>2017-04-16T05:59:43.000Z</time>
      </trkpt>
      <trkpt lat="43.53875" lon="2.93931">
        <ele>511.4</ele>
        <time>2017-04-16T05:59:48.000Z</time>
      </trkpt>
      <trkpt lat="43.53876" lon="2.93934">
        <ele>512</ele>
        <time>2017-04-16T05:59:50.000Z</time>
      </trkpt>
      <trkpt lat="43.53876" lon="2.93938">
        <ele>512.4</ele>
        <time>2017-04-16T05:59:52.000Z</time>
      </trkpt>
      <trkpt lat="43.53877" lon="2.93942">
        <ele>512.6</ele>
        <time>2017-04-16T05:59:54.000Z</time>
      </trkpt>
      <trkpt lat="43.53878" lon="2.93948">
        <ele>512.8</ele>
        <time>2017-04-16T05:59:56.000Z</time>
      </trkpt>
      <trkpt lat="43.53878" lon="2.93951">
        <ele>513.2</ele>
        <time>2017-04-16T05:59:57.000Z</time>
      </trkpt>
      <trkpt lat="43.53878" lon="2.93953">
        <ele>513.6</ele>
        <time>2017-04-16T05:59:58.000Z</time>
      </trkpt>
      <trkpt lat="43.53878" lon="2.9396">
        <ele>514.2</ele>
        <time>2017-04-16T06:00:01.000Z</time>
      </trkpt>
      <trkpt lat="43.53876" lon="2.93966">
        <ele>514.6</ele>
        <time>2017-04-16T06:00:03.000Z</time>
      </trkpt>
      <trkpt lat="43.53875" lon="2.93972">
        <ele>514.8</ele>
        <time>2017-04-16T06:00:05.000Z</time>
      </trkpt>
      <trkpt lat="43.53874" lon="2.93974">
        <ele>515</ele>
        <time>2017-04-16T06:00:06.000Z</time>
      </trkpt>
      <trkpt lat="43.53871" lon="2.93983">
        <ele>515.4</ele>
        <time>2017-04-16T06:00:10.000Z</time>
      </trkpt>
      <trkpt lat="43.53867" lon="2.9399">
        <ele>516.2</ele>
        <time>2017-04-16T06:00:13.000Z</time>
      </trkpt>
      <trkpt lat="43.53864" lon="2.93994">
        <ele>516.6</ele>
        <time>2017-04-16T06:00:15.000Z</time>
      </trkpt>
      <trkpt lat="43.53861" lon="2.93997">
        <ele>517</ele>
        <time>2017-04-16T06:00:17.000Z</time>
      </trkpt>
      <trkpt lat="43.53858" lon="2.94001">
        <ele>517.2</ele>
        <time>2017-04-16T06:00:19.000Z</time>
      </trkpt>
      <trkpt lat="43.53851" lon="2.9401">
        <ele>517.8</ele>
        <time>2017-04-16T06:00:24.000Z</time>
      </trkpt>
      <trkpt lat="43.53848" lon="2.94013">
        <ele>518.4</ele>
        <time>2017-04-16T06:00:26.000Z</time>
      </trkpt>
      <trkpt lat="43.53845" lon="2.94016">
        <ele>518.8</ele>
        <time>2017-04-16T06:00:28.000Z</time>
      </trkpt>
      <trkpt lat="43.53841" lon="2.9402">
        <ele>519.2</ele>
        <time>2017-04-16T06:00:30.000Z</time>
      </trkpt>
      <trkpt lat="43.53838" lon="2.94023">
        <ele>519.4</ele>
        <time>2017-04-16T06:00:32.000Z</time>
      </trkpt>
      <trkpt lat="43.53829" lon="2.94031">
        <ele>520</ele>
        <time>2017-04-16T06:00:37.000Z</time>
      </trkpt>
      <trkpt lat="43.53825" lon="2.94033">
        <ele>520.6</ele>
        <time>2017-04-16T06:00:39.000Z</time>
      </trkpt>
      <trkpt lat="43.53821" lon="2.94035">
        <ele>521</ele>
        <time>2017-04-16T06:00:41.000Z</time>
      </trkpt>
      <trkpt lat="43.53817" lon="2.94037">
        <ele>521.2</ele>
        <time>2017-04-16T06:00:43.000Z</time>
      </trkpt>
      <trkpt lat="43.53813" lon="2.9404">
        <ele>521.4</ele>
        <time>2017-04-16T06:00:45.000Z</time>
      </trkpt>
      <trkpt lat="43.53802" lon="2.94046">
        <ele>522</ele>
        <time>2017-04-16T06:00:51.000Z</time>
      </trkpt>
      <trkpt lat="43.538" lon="2.94046">
        <ele>522.2</ele>
        <time>2017-04-16T06:00:52.000Z</time>
      </trkpt>
      <trkpt lat="43.53797" lon="2.94048">
        <ele>522.8</ele>
        <time>2017-04-16T06:00:54.000Z</time>
      </trkpt>
      <trkpt lat="43.53794" lon="2.9405">
        <ele>523</ele>
        <time>2017-04-16T06:00:56.000Z</time>
      </trkpt>
      <trkpt lat="43.5379" lon="2.94051">
        <ele>523.4</ele>
        <time>2017-04-16T06:00:58.000Z</time>
      </trkpt>
      <trkpt lat="43.53787" lon="2.94053">
        <ele>523.6</ele>
        <time>2017-04-16T06:01:00.000Z</time>
      </trkpt>
      <trkpt lat="43.53782" lon="2.94055">
        <ele>524.2</ele>
        <time>2017-04-16T06:01:03.000Z</time>
      </trkpt>
      <trkpt lat="43.53778" lon="2.94057">
        <ele>524.8</ele>
        <time>2017-04-16T06:01:05.000Z</time>
      </trkpt>
      <trkpt lat="43.53775" lon="2.94059">
        <ele>525.2</ele>
        <time>2017-04-16T06:01:07.000Z</time>
      </trkpt>
      <trkpt lat="43.53771" lon="2.94061">
        <ele>525.6</ele>
        <time>2017-04-16T06:01:09.000Z</time>
      </trkpt>
      <trkpt lat="43.53767" lon="2.94063">
        <ele>525.8</ele>
        <time>2017-04-16T06:01:11.000Z</time>
      </trkpt>
      <trkpt lat="43.53764" lon="2.94066">
        <ele>526.2</ele>
        <time>2017-04-16T06:01:13.000Z</time>
      </trkpt>
      <trkpt lat="43.5376" lon="2.94068">
        <ele>526.8</ele>
        <time>2017-04-16T06:01:15.000Z</time>
      </trkpt>
      <trkpt lat="43.53757" lon="2.94071">
        <ele>527.2</ele>
        <time>2017-04-16T06:01:17.000Z</time>
      </trkpt>
      <trkpt lat="43.53755" lon="2.94074">
        <ele>527.6</ele>
        <time>2017-04-16T06:01:19.000Z</time>
      </trkpt>
      <trkpt lat="43.53754" lon="2.94075">
        <ele>528</ele>
        <time>2017-04-16T06:01:20.000Z</time>
      </trkpt>
      <trkpt lat="43.53752" lon="2.94079">
        <ele>528.6</ele>
        <time>2017-04-16T06:01:22.000Z</time>
      </trkpt>
      <trkpt lat="43.5375" lon="2.94083">
        <ele>529</ele>
        <time>2017-04-16T06:01:24.000Z</time>
      </trkpt>
      <trkpt lat="43.53749" lon="2.94088">
        <ele>529.4</ele>
        <time>2017-04-16T06:01:26.000Z</time>
      </trkpt>
      <trkpt lat="43.53747" lon="2.94093">
        <ele>529.8</ele>
        <time>2017-04-16T06:01:28.000Z</time>
      </trkpt>
      <trkpt lat="43.53746" lon="2.94102">
        <ele>530.4</ele>
        <time>2017-04-16T06:01:32.000Z</time>
      </trkpt>
      <trkpt lat="43.53746" lon="2.94106">
        <ele>531</ele>
        <time>2017-04-16T06:01:34.000Z</time>
      </trkpt>
      <trkpt lat="43.53746" lon="2.94111">
        <ele>531.4</ele>
        <time>2017-04-16T06:01:36.000Z</time>
      </trkpt>
      <trkpt lat="43.53746" lon="2.94115">
        <ele>531.8</ele>
        <time>2017-04-16T06:01:38.000Z</time>
      </trkpt>
      <trkpt lat="43.53746" lon="2.94119">
        <ele>532</ele>
        <time>2017-04-16T06:01:40.000Z</time>
      </trkpt>
      <trkpt lat="43.53746" lon="2.94124">
        <ele>532.6</ele>
        <time>2017-04-16T06:01:42.000Z</time>
      </trkpt>
      <trkpt lat="43.53745" lon="2.94128">
        <ele>533</ele>
        <time>2017-04-16T06:01:44.000Z</time>
      </trkpt>
      <trkpt lat="43.53744" lon="2.94132">
        <ele>533.6</ele>
        <time>2017-04-16T06:01:46.000Z</time>
      </trkpt>
      <trkpt lat="43.53743" lon="2.94134">
        <ele>533.8</ele>
        <time>2017-04-16T06:01:47.000Z</time>
      </trkpt>
      <trkpt lat="43.53742" lon="2.94136">
        <ele>533.8</ele>
        <time>2017-04-16T06:01:48.000Z</time>
      </trkpt>
      <trkpt lat="43.53739" lon="2.94138">
        <ele>534.2</ele>
        <time>2017-04-16T06:01:50.000Z</time>
      </trkpt>
      <trkpt lat="43.53738" lon="2.94139">
        <ele>534.6</ele>
        <time>2017-04-16T06:01:51.000Z</time>
      </trkpt>
      <trkpt lat="43.53734" lon="2.94139">
        <ele>535.2</ele>
        <time>2017-04-16T06:01:53.000Z</time>
      </trkpt>
      <trkpt lat="43.53732" lon="2.94139">
        <ele>535.4</ele>
        <time>2017-04-16T06:01:54.000Z</time>
      </trkpt>
      <trkpt lat="43.5373" lon="2.94139">
        <ele>535.6</ele>
        <time>2017-04-16T06:01:55.000Z</time>
      </trkpt>
      <trkpt lat="43.53726" lon="2.94139">
        <ele>536</ele>
        <time>2017-04-16T06:01:58.000Z</time>
      </trkpt>
      <trkpt lat="43.53722" lon="2.94139">
        <ele>536.4</ele>
        <time>2017-04-16T06:01:59.000Z</time>
      </trkpt>
      <trkpt lat="43.53715" lon="2.94137">
        <ele>537</ele>
        <time>2017-04-16T06:02:03.000Z</time>
      </trkpt>
      <trkpt lat="43.53712" lon="2.94135">
        <ele>537.6</ele>
        <time>2017-04-16T06:02:05.000Z</time>
      </trkpt>
      <trkpt lat="43.53709" lon="2.94134">
        <ele>538</ele>
        <time>2017-04-16T06:02:07.000Z</time>
      </trkpt>
      <trkpt lat="43.53705" lon="2.94134">
        <ele>538.2</ele>
        <time>2017-04-16T06:02:09.000Z</time>
      </trkpt>
      <trkpt lat="43.53701" lon="2.94135">
        <ele>538.6</ele>
        <time>2017-04-16T06:02:11.000Z</time>
      </trkpt>
      <trkpt lat="43.53692" lon="2.94136">
        <ele>539.2</ele>
        <time>2017-04-16T06:02:16.000Z</time>
      </trkpt>
      <trkpt lat="43.53689" lon="2.94135">
        <ele>539.8</ele>
        <time>2017-04-16T06:02:18.000Z</time>
      </trkpt>
      <trkpt lat="43.53685" lon="2.94133">
        <ele>540.2</ele>
        <time>2017-04-16T06:02:20.000Z</time>
      </trkpt>
      <trkpt lat="43.53681" lon="2.94131">
        <ele>540.4</ele>
        <time>2017-04-16T06:02:22.000Z</time>
      </trkpt>
      <trkpt lat="43.53678" lon="2.94128">
        <ele>540.8</ele>
        <time>2017-04-16T06:02:24.000Z</time>
      </trkpt>
      <trkpt lat="43.53673" lon="2.94123">
        <ele>541.2</ele>
        <time>2017-04-16T06:02:27.000Z</time>
      </trkpt>
      <trkpt lat="43.53671" lon="2.94118">
        <ele>541.8</ele>
        <time>2017-04-16T06:02:29.000Z</time>
      </trkpt>
      <trkpt lat="43.53669" lon="2.94114">
        <ele>542.2</ele>
        <time>2017-04-16T06:02:31.000Z</time>
      </trkpt>
      <trkpt lat="43.53668" lon="2.94109">
        <ele>542.6</ele>
        <time>2017-04-16T06:02:33.000Z</time>
      </trkpt>
      <trkpt lat="43.53666" lon="2.94104">
        <ele>542.8</ele>
        <time>2017-04-16T06:02:35.000Z</time>
      </trkpt>
      <trkpt lat="43.53659" lon="2.94092">
        <ele>543.6</ele>
        <time>2017-04-16T06:02:41.000Z</time>
      </trkpt>
      <trkpt lat="43.53656" lon="2.94087">
        <ele>544</ele>
        <time>2017-04-16T06:02:43.000Z</time>
      </trkpt>
      <trkpt lat="43.53653" lon="2.94083">
        <ele>544.4</ele>
        <time>2017-04-16T06:02:45.000Z</time>
      </trkpt>
      <trkpt lat="43.53651" lon="2.94079">
        <ele>544.8</ele>
        <time>2017-04-16T06:02:47.000Z</time>
      </trkpt>
      <trkpt lat="43.53647" lon="2.94076">
        <ele>545</ele>
        <time>2017-04-16T06:02:49.000Z</time>
      </trkpt>
      <trkpt lat="43.53638" lon="2.94069">
        <ele>545.6</ele>
        <time>2017-04-16T06:02:54.000Z</time>
      </trkpt>
      <trkpt lat="43.53635" lon="2.94066">
        <ele>546.2</ele>
        <time>2017-04-16T06:02:56.000Z</time>
      </trkpt>
      <trkpt lat="43.53632" lon="2.94064">
        <ele>546.6</ele>
        <time>2017-04-16T06:02:58.000Z</time>
      </trkpt>
      <trkpt lat="43.53628" lon="2.94062">
        <ele>546.8</ele>
        <time>2017-04-16T06:03:00.000Z</time>
      </trkpt>
      <trkpt lat="43.53624" lon="2.9406">
        <ele>547.2</ele>
        <time>2017-04-16T06:03:02.000Z</time>
      </trkpt>
      <trkpt lat="43.53618" lon="2.94056">
        <ele>547.6</ele>
        <time>2017-04-16T06:03:05.000Z</time>
      </trkpt>
      <trkpt lat="43.53615" lon="2.94054">
        <ele>548.2</ele>
        <time>2017-04-16T06:03:07.000Z</time>
      </trkpt>
      <trkpt lat="43.53612" lon="2.94051">
        <ele>548.6</ele>
        <time>2017-04-16T06:03:09.000Z</time>
      </trkpt>
      <trkpt lat="43.53609" lon="2.94048">
        <ele>549</ele>
        <time>2017-04-16T06:03:11.000Z</time>
      </trkpt>
      <trkpt lat="43.53606" lon="2.94046">
        <ele>549.4</ele>
        <time>2017-04-16T06:03:13.000Z</time>
      </trkpt>
      <trkpt lat="43.53601" lon="2.94042">
        <ele>550</ele>
        <time>2017-04-16T06:03:16.000Z</time>
      </trkpt>
      <trkpt lat="43.53598" lon="2.9404">
        <ele>550.4</ele>
        <time>2017-04-16T06:03:18.000Z</time>
      </trkpt>
      <trkpt lat="43.53595" lon="2.94038">
        <ele>550.8</ele>
        <time>2017-04-16T06:03:20.000Z</time>
      </trkpt>
      <trkpt lat="43.53592" lon="2.94036">
        <ele>551.2</ele>
        <time>2017-04-16T06:03:22.000Z</time>
      </trkpt>
      <trkpt lat="43.53588" lon="2.94034">
        <ele>551.8</ele>
        <time>2017-04-16T06:03:24.000Z</time>
      </trkpt>
      <trkpt lat="43.53585" lon="2.94033">
        <ele>552.4</ele>
        <time>2017-04-16T06:03:26.000Z</time>
      </trkpt>
      <trkpt lat="43.53581" lon="2.94031">
        <ele>553</ele>
        <time>2017-04-16T06:03:28.000Z</time>
      </trkpt>
      <trkpt lat="43.53578" lon="2.94029">
        <ele>553.8</ele>
        <time>2017-04-16T06:03:30.000Z</time>
      </trkpt>
      <trkpt lat="43.53575" lon="2.94027">
        <ele>554.4</ele>
        <time>2017-04-16T06:03:32.000Z</time>
      </trkpt>
      <trkpt lat="43.53572" lon="2.94024">
        <ele>555.2</ele>
        <time>2017-04-16T06:03:34.000Z</time>
      </trkpt>
      <trkpt lat="43.53568" lon="2.94021">
        <ele>555.8</ele>
        <time>2017-04-16T06:03:36.000Z</time>
      </trkpt>
      <trkpt lat="43.53564" lon="2.94019">
        <ele>556.4</ele>
        <time>2017-04-16T06:03:38.000Z</time>
      </trkpt>
      <trkpt lat="43.53561" lon="2.94017">
        <ele>557</ele>
        <time>2017-04-16T06:03:40.000Z</time>
      </trkpt>
      <trkpt lat="43.53557" lon="2.94015">
        <ele>557.4</ele>
        <time>2017-04-16T06:03:42.000Z</time>
      </trkpt>
      <trkpt lat="43.53555" lon="2.94014">
        <ele>557.8</ele>
        <time>2017-04-16T06:03:43.000Z</time>
      </trkpt>
      <trkpt lat="43.53551" lon="2.94012">
        <ele>558.4</ele>
        <time>2017-04-16T06:03:45.000Z</time>
      </trkpt>
      <trkpt lat="43.53548" lon="2.94011">
        <ele>559</ele>
        <time>2017-04-16T06:03:47.000Z</time>
      </trkpt>
      <trkpt lat="43.53544" lon="2.9401">
        <ele>559.4</ele>
        <time>2017-04-16T06:03:49.000Z</time>
      </trkpt>
      <trkpt lat="43.5354" lon="2.9401">
        <ele>559.8</ele>
        <time>2017-04-16T06:03:51.000Z</time>
      </trkpt>
      <trkpt lat="43.53537" lon="2.9401">
        <ele>560.2</ele>
        <time>2017-04-16T06:03:53.000Z</time>
      </trkpt>
      <trkpt lat="43.53533" lon="2.94009">
        <ele>560.8</ele>
        <time>2017-04-16T06:03:55.000Z</time>
      </trkpt>
      <trkpt lat="43.53529" lon="2.94008">
        <ele>561.2</ele>
        <time>2017-04-16T06:03:57.000Z</time>
      </trkpt>
      <trkpt lat="43.53526" lon="2.94006">
        <ele>561.6</ele>
        <time>2017-04-16T06:03:59.000Z</time>
      </trkpt>
      <trkpt lat="43.53524" lon="2.94003">
        <ele>562.2</ele>
        <time>2017-04-16T06:04:01.000Z</time>
      </trkpt>
      <trkpt lat="43.53521" lon="2.94">
        <ele>562.8</ele>
        <time>2017-04-16T06:04:03.000Z</time>
      </trkpt>
      <trkpt lat="43.53518" lon="2.93996">
        <ele>563.4</ele>
        <time>2017-04-16T06:04:05.000Z</time>
      </trkpt>
      <trkpt lat="43.53515" lon="2.93992">
        <ele>563.8</ele>
        <time>2017-04-16T06:04:07.000Z</time>
      </trkpt>
      <trkpt lat="43.53512" lon="2.93988">
        <ele>564</ele>
        <time>2017-04-16T06:04:09.000Z</time>
      </trkpt>
      <trkpt lat="43.53505" lon="2.93976">
        <ele>564.6</ele>
        <time>2017-04-16T06:04:15.000Z</time>
      </trkpt>
      <trkpt lat="43.53496" lon="2.93967">
        <ele>565</ele>
        <time>2017-04-16T06:04:21.000Z</time>
      </trkpt>
      <trkpt lat="43.53491" lon="2.93967">
        <ele>565.4</ele>
        <time>2017-04-16T06:04:23.000Z</time>
      </trkpt>
      <trkpt lat="43.53487" lon="2.93969">
        <ele>565.8</ele>
        <time>2017-04-16T06:04:25.000Z</time>
      </trkpt>
      <trkpt lat="43.53483" lon="2.93972">
        <ele>566</ele>
        <time>2017-04-16T06:04:27.000Z</time>
      </trkpt>
      <trkpt lat="43.53479" lon="2.93976">
        <ele>566.4</ele>
        <time>2017-04-16T06:04:29.000Z</time>
      </trkpt>
      <trkpt lat="43.53478" lon="2.93978">
        <ele>566.4</ele>
        <time>2017-04-16T06:04:30.000Z</time>
      </trkpt>
      <trkpt lat="43.53478" lon="2.9398">
        <ele>566.6</ele>
        <time>2017-04-16T06:04:31.000Z</time>
      </trkpt>
      <trkpt lat="43.53479" lon="2.93997">
        <ele>567</ele>
        <time>2017-04-16T06:04:38.000Z</time>
      </trkpt>
      <trkpt lat="43.53479" lon="2.94">
        <ele>567.4</ele>
        <time>2017-04-16T06:04:39.000Z</time>
      </trkpt>
      <trkpt lat="43.53481" lon="2.94004">
        <ele>567.8</ele>
        <time>2017-04-16T06:04:41.000Z</time>
      </trkpt>
      <trkpt lat="43.53482" lon="2.94009">
        <ele>568.2</ele>
        <time>2017-04-16T06:04:43.000Z</time>
      </trkpt>
      <trkpt lat="43.53483" lon="2.94013">
        <ele>568.4</ele>
        <time>2017-04-16T06:04:45.000Z</time>
      </trkpt>
      <trkpt lat="43.53485" lon="2.94017">
        <ele>568.6</ele>
        <time>2017-04-16T06:04:47.000Z</time>
      </trkpt>
      <trkpt lat="43.53486" lon="2.94019">
        <ele>569</ele>
        <time>2017-04-16T06:04:48.000Z</time>
      </trkpt>
      <trkpt lat="43.53488" lon="2.94022">
        <ele>569.6</ele>
        <time>2017-04-16T06:04:50.000Z</time>
      </trkpt>
      <trkpt lat="43.5349" lon="2.94026">
        <ele>570</ele>
        <time>2017-04-16T06:04:52.000Z</time>
      </trkpt>
      <trkpt lat="43.53492" lon="2.94029">
        <ele>570.2</ele>
        <time>2017-04-16T06:04:54.000Z</time>
      </trkpt>
      <trkpt lat="43.53494" lon="2.94033">
        <ele>570.6</ele>
        <time>2017-04-16T06:04:56.000Z</time>
      </trkpt>
      <trkpt lat="43.53495" lon="2.94035">
        <ele>570.6</ele>
        <time>2017-04-16T06:04:57.000Z</time>
      </trkpt>
      <trkpt lat="43.53498" lon="2.94039">
        <ele>571.2</ele>
        <time>2017-04-16T06:05:00.000Z</time>
      </trkpt>
      <trkpt lat="43.53498" lon="2.9404">
        <ele>571.6</ele>
        <time>2017-04-16T06:05:01.000Z</time>
      </trkpt>
      <trkpt lat="43.53498" lon="2.94041">
        <ele>571.8</ele>
        <time>2017-04-16T06:05:02.000Z</time>
      </trkpt>
      <trkpt lat="43.53499" lon="2.94043">
        <ele>572.2</ele>
        <time>2017-04-16T06:05:04.000Z</time>
      </trkpt>
      <trkpt lat="43.53501" lon="2.94046">
        <ele>572.6</ele>
        <time>2017-04-16T06:05:06.000Z</time>
      </trkpt>
      <trkpt lat="43.53503" lon="2.94049">
        <ele>572.8</ele>
        <time>2017-04-16T06:05:08.000Z</time>
      </trkpt>
      <trkpt lat="43.53506" lon="2.94053">
        <ele>573.6</ele>
        <time>2017-04-16T06:05:12.000Z</time>
      </trkpt>
      <trkpt lat="43.53508" lon="2.94056">
        <ele>574</ele>
        <time>2017-04-16T06:05:14.000Z</time>
      </trkpt>
      <trkpt lat="43.5351" lon="2.94057">
        <ele>574.4</ele>
        <time>2017-04-16T06:05:16.000Z</time>
      </trkpt>
      <trkpt lat="43.53513" lon="2.94059">
        <ele>574.8</ele>
        <time>2017-04-16T06:05:18.000Z</time>
      </trkpt>
      <trkpt lat="43.53515" lon="2.94062">
        <ele>575.2</ele>
        <time>2017-04-16T06:05:20.000Z</time>
      </trkpt>
      <trkpt lat="43.53519" lon="2.94069">
        <ele>575.8</ele>
        <time>2017-04-16T06:05:25.000Z</time>
      </trkpt>
      <trkpt lat="43.53521" lon="2.94071">
        <ele>576.4</ele>
        <time>2017-04-16T06:05:27.000Z</time>
      </trkpt>
      <trkpt lat="43.53523" lon="2.94074">
        <ele>576.8</ele>
        <time>2017-04-16T06:05:29.000Z</time>
      </trkpt>
      <trkpt lat="43.53525" lon="2.94077">
        <ele>577.2</ele>
        <time>2017-04-16T06:05:31.000Z</time>
      </trkpt>
      <trkpt lat="43.53527" lon="2.9408">
        <ele>577.4</ele>
        <time>2017-04-16T06:05:33.000Z</time>
      </trkpt>
      <trkpt lat="43.53529" lon="2.94083">
        <ele>577.8</ele>
        <time>2017-04-16T06:05:35.000Z</time>
      </trkpt>
      <trkpt lat="43.53531" lon="2.94086">
        <ele>578.4</ele>
        <time>2017-04-16T06:05:37.000Z</time>
      </trkpt>
      <trkpt lat="43.53532" lon="2.94089">
        <ele>578.8</ele>
        <time>2017-04-16T06:05:39.000Z</time>
      </trkpt>
      <trkpt lat="43.53533" lon="2.9409">
        <ele>579</ele>
        <time>2017-04-16T06:05:40.000Z</time>
      </trkpt>
      <trkpt lat="43.53536" lon="2.94095">
        <ele>579.4</ele>
        <time>2017-04-16T06:05:43.000Z</time>
      </trkpt>
      <trkpt lat="43.53536" lon="2.94097">
        <ele>579.6</ele>
        <time>2017-04-16T06:05:44.000Z</time>
      </trkpt>
      <trkpt lat="43.53539" lon="2.94102">
        <ele>580</ele>
        <time>2017-04-16T06:05:47.000Z</time>
      </trkpt>
      <trkpt lat="43.53541" lon="2.94105">
        <ele>580.6</ele>
        <time>2017-04-16T06:05:49.000Z</time>
      </trkpt>
      <trkpt lat="43.53544" lon="2.94108">
        <ele>581</ele>
        <time>2017-04-16T06:05:51.000Z</time>
      </trkpt>
      <trkpt lat="43.53546" lon="2.94111">
        <ele>581.2</ele>
        <time>2017-04-16T06:05:53.000Z</time>
      </trkpt>
      <trkpt lat="43.53548" lon="2.94115">
        <ele>581.6</ele>
        <time>2017-04-16T06:05:55.000Z</time>
      </trkpt>
      <trkpt lat="43.53552" lon="2.9412">
        <ele>582</ele>
        <time>2017-04-16T06:05:58.000Z</time>
      </trkpt>
      <trkpt lat="43.53554" lon="2.94123">
        <ele>582.6</ele>
        <time>2017-04-16T06:06:00.000Z</time>
      </trkpt>
      <trkpt lat="43.53555" lon="2.94127">
        <ele>583</ele>
        <time>2017-04-16T06:06:02.000Z</time>
      </trkpt>
      <trkpt lat="43.53558" lon="2.94131">
        <ele>583.4</ele>
        <time>2017-04-16T06:06:05.000Z</time>
      </trkpt>
      <trkpt lat="43.53559" lon="2.94134">
        <ele>583.6</ele>
        <time>2017-04-16T06:06:06.000Z</time>
      </trkpt>
      <trkpt lat="43.53564" lon="2.94141">
        <ele>584</ele>
        <time>2017-04-16T06:06:11.000Z</time>
      </trkpt>
      <trkpt lat="43.53565" lon="2.94143">
        <ele>584.4</ele>
        <time>2017-04-16T06:06:12.000Z</time>
      </trkpt>
      <trkpt lat="43.53567" lon="2.94146">
        <ele>584.8</ele>
        <time>2017-04-16T06:06:14.000Z</time>
      </trkpt>
      <trkpt lat="43.53569" lon="2.94149">
        <ele>585.2</ele>
        <time>2017-04-16T06:06:16.000Z</time>
      </trkpt>
      <trkpt lat="43.53571" lon="2.94152">
        <ele>585.6</ele>
        <time>2017-04-16T06:06:18.000Z</time>
      </trkpt>
      <trkpt lat="43.53572" lon="2.94156">
        <ele>585.8</ele>
        <time>2017-04-16T06:06:20.000Z</time>
      </trkpt>
      <trkpt lat="43.53573" lon="2.94157">
        <ele>586</ele>
        <time>2017-04-16T06:06:21.000Z</time>
      </trkpt>
      <trkpt lat="43.53575" lon="2.94161">
        <ele>586.4</ele>
        <time>2017-04-16T06:06:23.000Z</time>
      </trkpt>
      <trkpt lat="43.53576" lon="2.94165">
        <ele>586.8</ele>
        <time>2017-04-16T06:06:25.000Z</time>
      </trkpt>
      <trkpt lat="43.53577" lon="2.94167">
        <ele>587</ele>
        <time>2017-04-16T06:06:26.000Z</time>
      </trkpt>
      <trkpt lat="43.53578" lon="2.94173">
        <ele>587.6</ele>
        <time>2017-04-16T06:06:29.000Z</time>
      </trkpt>
      <trkpt lat="43.5358" lon="2.94176">
        <ele>588</ele>
        <time>2017-04-16T06:06:31.000Z</time>
      </trkpt>
      <trkpt lat="43.53584" lon="2.94187">
        <ele>588.6</ele>
        <time>2017-04-16T06:06:37.000Z</time>
      </trkpt>
      <trkpt lat="43.53586" lon="2.9419">
        <ele>588.8</ele>
        <time>2017-04-16T06:06:39.000Z</time>
      </trkpt>
      <trkpt lat="43.53588" lon="2.94194">
        <ele>589.4</ele>
        <time>2017-04-16T06:06:41.000Z</time>
      </trkpt>
      <trkpt lat="43.53589" lon="2.94197">
        <ele>589.8</ele>
        <time>2017-04-16T06:06:43.000Z</time>
      </trkpt>
      <trkpt lat="43.53591" lon="2.94201">
        <ele>590</ele>
        <time>2017-04-16T06:06:45.000Z</time>
      </trkpt>
      <trkpt lat="43.53592" lon="2.94204">
        <ele>590.4</ele>
        <time>2017-04-16T06:06:47.000Z</time>
      </trkpt>
      <trkpt lat="43.53593" lon="2.94206">
        <ele>590.6</ele>
        <time>2017-04-16T06:06:48.000Z</time>
      </trkpt>
      <trkpt lat="43.53594" lon="2.9421">
        <ele>591.2</ele>
        <time>2017-04-16T06:06:50.000Z</time>
      </trkpt>
      <trkpt lat="43.53595" lon="2.94213">
        <ele>591.6</ele>
        <time>2017-04-16T06:06:52.000Z</time>
      </trkpt>
      <trkpt lat="43.53596" lon="2.94217">
        <ele>592</ele>
        <time>2017-04-16T06:06:54.000Z</time>
      </trkpt>
      <trkpt lat="43.53596" lon="2.94221">
        <ele>592.6</ele>
        <time>2017-04-16T06:06:56.000Z</time>
      </trkpt>
      <trkpt lat="43.53597" lon="2.94224">
        <ele>593.2</ele>
        <time>2017-04-16T06:06:58.000Z</time>
      </trkpt>
      <trkpt lat="43.53598" lon="2.94228">
        <ele>593.6</ele>
        <time>2017-04-16T06:07:00.000Z</time>
      </trkpt>
      <trkpt lat="43.53599" lon="2.94231">
        <ele>594</ele>
        <time>2017-04-16T06:07:02.000Z</time>
      </trkpt>
      <trkpt lat="43.536" lon="2.94233">
        <ele>594.2</ele>
        <time>2017-04-16T06:07:03.000Z</time>
      </trkpt>
      <trkpt lat="43.53602" lon="2.94238">
        <ele>594.8</ele>
        <time>2017-04-16T06:07:06.000Z</time>
      </trkpt>
      <trkpt lat="43.53603" lon="2.94242">
        <ele>595.4</ele>
        <time>2017-04-16T06:07:08.000Z</time>
      </trkpt>
      <trkpt lat="43.53605" lon="2.94246">
        <ele>595.8</ele>
        <time>2017-04-16T06:07:10.000Z</time>
      </trkpt>
      <trkpt lat="43.53606" lon="2.94249">
        <ele>596.2</ele>
        <time>2017-04-16T06:07:12.000Z</time>
      </trkpt>
      <trkpt lat="43.53606" lon="2.94251">
        <ele>596.4</ele>
        <time>2017-04-16T06:07:13.000Z</time>
      </trkpt>
      <trkpt lat="43.53607" lon="2.94253">
        <ele>596.6</ele>
        <time>2017-04-16T06:07:14.000Z</time>
      </trkpt>
      <trkpt lat="43.53609" lon="2.94256">
        <ele>597</ele>
        <time>2017-04-16T06:07:16.000Z</time>
      </trkpt>
      <trkpt lat="43.53609" lon="2.94258">
        <ele>597.4</ele>
        <time>2017-04-16T06:07:17.000Z</time>
      </trkpt>
      <trkpt lat="43.53612" lon="2.94262">
        <ele>598</ele>
        <time>2017-04-16T06:07:20.000Z</time>
      </trkpt>
      <trkpt lat="43.53613" lon="2.94263">
        <ele>598.2</ele>
        <time>2017-04-16T06:07:21.000Z</time>
      </trkpt>
      <trkpt lat="43.53617" lon="2.94267">
        <ele>598.8</ele>
        <time>2017-04-16T06:07:24.000Z</time>
      </trkpt>
      <trkpt lat="43.53621" lon="2.94271">
        <ele>599.4</ele>
        <time>2017-04-16T06:07:27.000Z</time>
      </trkpt>
      <trkpt lat="43.53623" lon="2.94273">
        <ele>599.8</ele>
        <time>2017-04-16T06:07:29.000Z</time>
      </trkpt>
      <trkpt lat="43.53625" lon="2.94276">
        <ele>600.4</ele>
        <time>2017-04-16T06:07:31.000Z</time>
      </trkpt>
      <trkpt lat="43.53626" lon="2.94278">
        <ele>600.6</ele>
        <time>2017-04-16T06:07:33.000Z</time>
      </trkpt>
      <trkpt lat="43.53628" lon="2.94281">
        <ele>601</ele>
        <time>2017-04-16T06:07:35.000Z</time>
      </trkpt>
      <trkpt lat="43.5363" lon="2.94285">
        <ele>601.2</ele>
        <time>2017-04-16T06:07:38.000Z</time>
      </trkpt>
      <trkpt lat="43.53635" lon="2.94288">
        <ele>602</ele>
        <time>2017-04-16T06:07:41.000Z</time>
      </trkpt>
      <trkpt lat="43.53638" lon="2.94291">
        <ele>602.4</ele>
        <time>2017-04-16T06:07:43.000Z</time>
      </trkpt>
      <trkpt lat="43.5364" lon="2.94292">
        <ele>602.6</ele>
        <time>2017-04-16T06:07:44.000Z</time>
      </trkpt>
      <trkpt lat="43.53641" lon="2.94293">
        <ele>602.8</ele>
        <time>2017-04-16T06:07:45.000Z</time>
      </trkpt>
      <trkpt lat="43.53644" lon="2.94296">
        <ele>603</ele>
        <time>2017-04-16T06:07:47.000Z</time>
      </trkpt>
      <trkpt lat="43.53645" lon="2.94297">
        <ele>603.4</ele>
        <time>2017-04-16T06:07:48.000Z</time>
      </trkpt>
      <trkpt lat="43.53646" lon="2.94298">
        <ele>603.8</ele>
        <time>2017-04-16T06:07:49.000Z</time>
      </trkpt>
      <trkpt lat="43.53647" lon="2.94299">
        <ele>604</ele>
        <time>2017-04-16T06:07:50.000Z</time>
      </trkpt>
      <trkpt lat="43.53649" lon="2.94302">
        <ele>604.4</ele>
        <time>2017-04-16T06:07:52.000Z</time>
      </trkpt>
      <trkpt lat="43.5365" lon="2.94305">
        <ele>604.8</ele>
        <time>2017-04-16T06:07:54.000Z</time>
      </trkpt>
      <trkpt lat="43.53651" lon="2.94309">
        <ele>605.2</ele>
        <time>2017-04-16T06:07:56.000Z</time>
      </trkpt>
      <trkpt lat="43.53653" lon="2.94313">
        <ele>605.4</ele>
        <time>2017-04-16T06:07:59.000Z</time>
      </trkpt>
      <trkpt lat="43.53659" lon="2.94318">
        <ele>605.8</ele>
        <time>2017-04-16T06:08:04.000Z</time>
      </trkpt>
      <trkpt lat="43.53664" lon="2.94323">
        <ele>606.2</ele>
        <time>2017-04-16T06:08:08.000Z</time>
      </trkpt>
      <trkpt lat="43.53667" lon="2.94325">
        <ele>606.6</ele>
        <time>2017-04-16T06:08:10.000Z</time>
      </trkpt>
      <trkpt lat="43.5367" lon="2.94327">
        <ele>607</ele>
        <time>2017-04-16T06:08:12.000Z</time>
      </trkpt>
      <trkpt lat="43.53672" lon="2.9433">
        <ele>607.2</ele>
        <time>2017-04-16T06:08:14.000Z</time>
      </trkpt>
      <trkpt lat="43.53674" lon="2.94332">
        <ele>607.8</ele>
        <time>2017-04-16T06:08:16.000Z</time>
      </trkpt>
      <trkpt lat="43.53676" lon="2.94335">
        <ele>608.4</ele>
        <time>2017-04-16T06:08:18.000Z</time>
      </trkpt>
      <trkpt lat="43.53678" lon="2.94338">
        <ele>608.8</ele>
        <time>2017-04-16T06:08:20.000Z</time>
      </trkpt>
      <trkpt lat="43.5368" lon="2.94342">
        <ele>609.2</ele>
        <time>2017-04-16T06:08:22.000Z</time>
      </trkpt>
      <trkpt lat="43.53681" lon="2.94343">
        <ele>609.6</ele>
        <time>2017-04-16T06:08:23.000Z</time>
      </trkpt>
      <trkpt lat="43.53683" lon="2.94346">
        <ele>610.4</ele>
        <time>2017-04-16T06:08:25.000Z</time>
      </trkpt>
      <trkpt lat="43.53684" lon="2.94349">
        <ele>610.8</ele>
        <time>2017-04-16T06:08:27.000Z</time>
      </trkpt>
      <trkpt lat="43.53685" lon="2.9435">
        <ele>611.4</ele>
        <time>2017-04-16T06:08:28.000Z</time>
      </trkpt>
      <trkpt lat="43.53686" lon="2.94353">
        <ele>612.2</ele>
        <time>2017-04-16T06:08:30.000Z</time>
      </trkpt>
      <trkpt lat="43.53688" lon="2.94355">
        <ele>612.8</ele>
        <time>2017-04-16T06:08:32.000Z</time>
      </trkpt>
      <trkpt lat="43.5369" lon="2.94358">
        <ele>613.2</ele>
        <time>2017-04-16T06:08:34.000Z</time>
      </trkpt>
      <trkpt lat="43.53692" lon="2.9436">
        <ele>613.6</ele>
        <time>2017-04-16T06:08:36.000Z</time>
      </trkpt>
      <trkpt lat="43.53693" lon="2.94361">
        <ele>614</ele>
        <time>2017-04-16T06:08:37.000Z</time>
      </trkpt>
      <trkpt lat="43.53695" lon="2.94364">
        <ele>614.6</ele>
        <time>2017-04-16T06:08:39.000Z</time>
      </trkpt>
      <trkpt lat="43.53697" lon="2.94367">
        <ele>615.2</ele>
        <time>2017-04-16T06:08:41.000Z</time>
      </trkpt>
      <trkpt lat="43.537" lon="2.9437">
        <ele>615.6</ele>
        <time>2017-04-16T06:08:43.000Z</time>
      </trkpt>
      <trkpt lat="43.53702" lon="2.94373">
        <ele>616</ele>
        <time>2017-04-16T06:08:45.000Z</time>
      </trkpt>
      <trkpt lat="43.53708" lon="2.94381">
        <ele>616.8</ele>
        <time>2017-04-16T06:08:51.000Z</time>
      </trkpt>
      <trkpt lat="43.53709" lon="2.94384">
        <ele>617.4</ele>
        <time>2017-04-16T06:08:53.000Z</time>
      </trkpt>
      <trkpt lat="43.53711" lon="2.94387">
        <ele>617.8</ele>
        <time>2017-04-16T06:08:55.000Z</time>
      </trkpt>
      <trkpt lat="43.53712" lon="2.9439">
        <ele>618.2</ele>
        <time>2017-04-16T06:08:57.000Z</time>
      </trkpt>
      <trkpt lat="43.53714" lon="2.94393">
        <ele>618.4</ele>
        <time>2017-04-16T06:08:59.000Z</time>
      </trkpt>
      <trkpt lat="43.53715" lon="2.94395">
        <ele>618.6</ele>
        <time>2017-04-16T06:09:00.000Z</time>
      </trkpt>
      <trkpt lat="43.5372" lon="2.94402">
        <ele>619</ele>
        <time>2017-04-16T06:09:05.000Z</time>
      </trkpt>
      <trkpt lat="43.53721" lon="2.94405">
        <ele>619.4</ele>
        <time>2017-04-16T06:09:07.000Z</time>
      </trkpt>
      <trkpt lat="43.53723" lon="2.94409">
        <ele>619.8</ele>
        <time>2017-04-16T06:09:09.000Z</time>
      </trkpt>
      <trkpt lat="43.53725" lon="2.94412">
        <ele>620.2</ele>
        <time>2017-04-16T06:09:11.000Z</time>
      </trkpt>
      <trkpt lat="43.53727" lon="2.94415">
        <ele>620.4</ele>
        <time>2017-04-16T06:09:13.000Z</time>
      </trkpt>
      <trkpt lat="43.5373" lon="2.94417">
        <ele>620.6</ele>
        <time>2017-04-16T06:09:15.000Z</time>
      </trkpt>
      <trkpt lat="43.53732" lon="2.9442">
        <ele>621</ele>
        <time>2017-04-16T06:09:17.000Z</time>
      </trkpt>
      <trkpt lat="43.53733" lon="2.94422">
        <ele>621.4</ele>
        <time>2017-04-16T06:09:18.000Z</time>
      </trkpt>
      <trkpt lat="43.53736" lon="2.94426">
        <ele>622</ele>
        <time>2017-04-16T06:09:21.000Z</time>
      </trkpt>
      <trkpt lat="43.53738" lon="2.94429">
        <ele>622.4</ele>
        <time>2017-04-16T06:09:23.000Z</time>
      </trkpt>
      <trkpt lat="43.53739" lon="2.94431">
        <ele>623</ele>
        <time>2017-04-16T06:09:25.000Z</time>
      </trkpt>
      <trkpt lat="43.53741" lon="2.94433">
        <ele>623.6</ele>
        <time>2017-04-16T06:09:27.000Z</time>
      </trkpt>
      <trkpt lat="43.53742" lon="2.94436">
        <ele>624</ele>
        <time>2017-04-16T06:09:29.000Z</time>
      </trkpt>
      <trkpt lat="43.53743" lon="2.94437">
        <ele>624.2</ele>
        <time>2017-04-16T06:09:30.000Z</time>
      </trkpt>
      <trkpt lat="43.53744" lon="2.94439">
        <ele>624.4</ele>
        <time>2017-04-16T06:09:31.000Z</time>
      </trkpt>
      <trkpt lat="43.53747" lon="2.94441">
        <ele>624.8</ele>
        <time>2017-04-16T06:09:33.000Z</time>
      </trkpt>
      <trkpt lat="43.53749" lon="2.94444">
        <ele>625.2</ele>
        <time>2017-04-16T06:09:35.000Z</time>
      </trkpt>
      <trkpt lat="43.53751" lon="2.94446">
        <ele>625.8</ele>
        <time>2017-04-16T06:09:37.000Z</time>
      </trkpt>
      <trkpt lat="43.53752" lon="2.94449">
        <ele>626.4</ele>
        <time>2017-04-16T06:09:39.000Z</time>
      </trkpt>
      <trkpt lat="43.53754" lon="2.94451">
        <ele>626.8</ele>
        <time>2017-04-16T06:09:41.000Z</time>
      </trkpt>
      <trkpt lat="43.53755" lon="2.94453">
        <ele>627</ele>
        <time>2017-04-16T06:09:42.000Z</time>
      </trkpt>
      <trkpt lat="43.53756" lon="2.94453">
        <ele>627.2</ele>
        <time>2017-04-16T06:09:43.000Z</time>
      </trkpt>
      <trkpt lat="43.53758" lon="2.94456">
        <ele>628</ele>
        <time>2017-04-16T06:09:45.000Z</time>
      </trkpt>
      <trkpt lat="43.53759" lon="2.94457">
        <ele>628.2</ele>
        <time>2017-04-16T06:09:46.000Z</time>
      </trkpt>
      <trkpt lat="43.53761" lon="2.94458">
        <ele>628.4</ele>
        <time>2017-04-16T06:09:47.000Z</time>
      </trkpt>
      <trkpt lat="43.53763" lon="2.94461">
        <ele>628.8</ele>
        <time>2017-04-16T06:09:49.000Z</time>
      </trkpt>
      <trkpt lat="43.53765" lon="2.94462">
        <ele>629</ele>
        <time>2017-04-16T06:09:50.000Z</time>
      </trkpt>
      <trkpt lat="43.53771" lon="2.94468">
        <ele>630</ele>
        <time>2017-04-16T06:09:55.000Z</time>
      </trkpt>
      <trkpt lat="43.53773" lon="2.9447">
        <ele>630.4</ele>
        <time>2017-04-16T06:09:57.000Z</time>
      </trkpt>
      <trkpt lat="43.53774" lon="2.94471">
        <ele>630.6</ele>
        <time>2017-04-16T06:09:58.000Z</time>
      </trkpt>
      <trkpt lat="43.53775" lon="2.94472">
        <ele>630.8</ele>
        <time>2017-04-16T06:09:59.000Z</time>
      </trkpt>
      <trkpt lat="43.53777" lon="2.94475">
        <ele>631.2</ele>
        <time>2017-04-16T06:10:01.000Z</time>
      </trkpt>
      <trkpt lat="43.53779" lon="2.94478">
        <ele>631.6</ele>
        <time>2017-04-16T06:10:03.000Z</time>
      </trkpt>
      <trkpt lat="43.53787" lon="2.94489">
        <ele>632.4</ele>
        <time>2017-04-16T06:10:11.000Z</time>
      </trkpt>
      <trkpt lat="43.53789" lon="2.94492">
        <ele>632.8</ele>
        <time>2017-04-16T06:10:13.000Z</time>
      </trkpt>
      <trkpt lat="43.53791" lon="2.94495">
        <ele>633.2</ele>
        <time>2017-04-16T06:10:15.000Z</time>
      </trkpt>
      <trkpt lat="43.53795" lon="2.94498">
        <ele>633.6</ele>
        <time>2017-04-16T06:10:17.000Z</time>
      </trkpt>
      <trkpt lat="43.53797" lon="2.94501">
        <ele>633.8</ele>
        <time>2017-04-16T06:10:19.000Z</time>
      </trkpt>
      <trkpt lat="43.53798" lon="2.94503">
        <ele>634.2</ele>
        <time>2017-04-16T06:10:20.000Z</time>
      </trkpt>
      <trkpt lat="43.53801" lon="2.94506">
        <ele>634.6</ele>
        <time>2017-04-16T06:10:22.000Z</time>
      </trkpt>
      <trkpt lat="43.53802" lon="2.94507">
        <ele>634.8</ele>
        <time>2017-04-16T06:10:23.000Z</time>
      </trkpt>
      <trkpt lat="43.53806" lon="2.94511">
        <ele>635.4</ele>
        <time>2017-04-16T06:10:26.000Z</time>
      </trkpt>
      <trkpt lat="43.53809" lon="2.94513">
        <ele>635.8</ele>
        <time>2017-04-16T06:10:28.000Z</time>
      </trkpt>
      <trkpt lat="43.5381" lon="2.94515">
        <ele>635.8</ele>
        <time>2017-04-16T06:10:29.000Z</time>
      </trkpt>
      <trkpt lat="43.53812" lon="2.94519">
        <ele>636.4</ele>
        <time>2017-04-16T06:10:32.000Z</time>
      </trkpt>
      <trkpt lat="43.53814" lon="2.94522">
        <ele>636.8</ele>
        <time>2017-04-16T06:10:34.000Z</time>
      </trkpt>
      <trkpt lat="43.53815" lon="2.94524">
        <ele>637.2</ele>
        <time>2017-04-16T06:10:35.000Z</time>
      </trkpt>
      <trkpt lat="43.53816" lon="2.94526">
        <ele>637.4</ele>
        <time>2017-04-16T06:10:36.000Z</time>
      </trkpt>
      <trkpt lat="43.53818" lon="2.94529">
        <ele>637.8</ele>
        <time>2017-04-16T06:10:38.000Z</time>
      </trkpt>
      <trkpt lat="43.5382" lon="2.94532">
        <ele>638.6</ele>
        <time>2017-04-16T06:10:40.000Z</time>
      </trkpt>
      <trkpt lat="43.53822" lon="2.94535">
        <ele>639</ele>
        <time>2017-04-16T06:10:42.000Z</time>
      </trkpt>
      <trkpt lat="43.53825" lon="2.94538">
        <ele>639.4</ele>
        <time>2017-04-16T06:10:44.000Z</time>
      </trkpt>
      <trkpt lat="43.53828" lon="2.94541">
        <ele>639.8</ele>
        <time>2017-04-16T06:10:46.000Z</time>
      </trkpt>
      <trkpt lat="43.53836" lon="2.94552">
        <ele>640.6</ele>
        <time>2017-04-16T06:10:53.000Z</time>
      </trkpt>
      <trkpt lat="43.5384" lon="2.94556">
        <ele>641</ele>
        <time>2017-04-16T06:10:56.000Z</time>
      </trkpt>
      <trkpt lat="43.53842" lon="2.94559">
        <ele>641.4</ele>
        <time>2017-04-16T06:10:58.000Z</time>
      </trkpt>
      <trkpt lat="43.53844" lon="2.94561">
        <ele>641.6</ele>
        <time>2017-04-16T06:10:59.000Z</time>
      </trkpt>
      <trkpt lat="43.53846" lon="2.94563">
        <ele>642</ele>
        <time>2017-04-16T06:11:00.000Z</time>
      </trkpt>
      <trkpt lat="43.5385" lon="2.94566">
        <ele>642.6</ele>
        <time>2017-04-16T06:11:02.000Z</time>
      </trkpt>
      <trkpt lat="43.53854" lon="2.94569">
        <ele>643.2</ele>
        <time>2017-04-16T06:11:04.000Z</time>
      </trkpt>
      <trkpt lat="43.53859" lon="2.94572">
        <ele>643.6</ele>
        <time>2017-04-16T06:11:06.000Z</time>
      </trkpt>
      <trkpt lat="43.53864" lon="2.94575">
        <ele>644</ele>
        <time>2017-04-16T06:11:08.000Z</time>
      </trkpt>
      <trkpt lat="43.53876" lon="2.94582">
        <ele>644.8</ele>
        <time>2017-04-16T06:11:13.000Z</time>
      </trkpt>
      <trkpt lat="43.53877" lon="2.94584">
        <ele>645</ele>
        <time>2017-04-16T06:11:14.000Z</time>
      </trkpt>
      <trkpt lat="43.53879" lon="2.94586">
        <ele>645.4</ele>
        <time>2017-04-16T06:11:15.000Z</time>
      </trkpt>
      <trkpt lat="43.53881" lon="2.94591">
        <ele>645.8</ele>
        <time>2017-04-16T06:11:17.000Z</time>
      </trkpt>
      <trkpt lat="43.53882" lon="2.94593">
        <ele>646</ele>
        <time>2017-04-16T06:11:18.000Z</time>
      </trkpt>
      <trkpt lat="43.53883" lon="2.94596">
        <ele>646.2</ele>
        <time>2017-04-16T06:11:19.000Z</time>
      </trkpt>
      <trkpt lat="43.53883" lon="2.94599">
        <ele>646.6</ele>
        <time>2017-04-16T06:11:20.000Z</time>
      </trkpt>
      <trkpt lat="43.53882" lon="2.94604">
        <ele>647.2</ele>
        <time>2017-04-16T06:11:22.000Z</time>
      </trkpt>
      <trkpt lat="43.53881" lon="2.94606">
        <ele>647.6</ele>
        <time>2017-04-16T06:11:23.000Z</time>
      </trkpt>
      <trkpt lat="43.53877" lon="2.94608">
        <ele>648.6</ele>
        <time>2017-04-16T06:11:25.000Z</time>
      </trkpt>
      <trkpt lat="43.53875" lon="2.94608">
        <ele>648.8</ele>
        <time>2017-04-16T06:11:26.000Z</time>
      </trkpt>
      <trkpt lat="43.53867" lon="2.94605">
        <ele>649.8</ele>
        <time>2017-04-16T06:11:29.000Z</time>
      </trkpt>
      <trkpt lat="43.53862" lon="2.94603">
        <ele>650.2</ele>
        <time>2017-04-16T06:11:31.000Z</time>
      </trkpt>
      <trkpt lat="43.53849" lon="2.94596">
        <ele>651.2</ele>
        <time>2017-04-16T06:11:38.000Z</time>
      </trkpt>
      <trkpt lat="43.53834" lon="2.94586">
        <ele>651.6</ele>
        <time>2017-04-16T06:11:47.000Z</time>
      </trkpt>
      <trkpt lat="43.53825" lon="2.9458">
        <ele>651.8</ele>
        <time>2017-04-16T06:11:53.000Z</time>
      </trkpt>
      <trkpt lat="43.53808" lon="2.94572">
        <ele>652.2</ele>
        <time>2017-04-16T06:12:03.000Z</time>
      </trkpt>
      <trkpt lat="43.53805" lon="2.9457">
        <ele>652.6</ele>
        <time>2017-04-16T06:12:05.000Z</time>
      </trkpt>
      <trkpt lat="43.53801" lon="2.94569">
        <ele>653</ele>
        <time>2017-04-16T06:12:07.000Z</time>
      </trkpt>
      <trkpt lat="43.53798" lon="2.94567">
        <ele>653.4</ele>
        <time>2017-04-16T06:12:09.000Z</time>
      </trkpt>
      <trkpt lat="43.53794" lon="2.94565">
        <ele>653.6</ele>
        <time>2017-04-16T06:12:11.000Z</time>
      </trkpt>
      <trkpt lat="43.53791" lon="2.94564">
        <ele>654</ele>
        <time>2017-04-16T06:12:13.000Z</time>
      </trkpt>
      <trkpt lat="43.53787" lon="2.94562">
        <ele>654.6</ele>
        <time>2017-04-16T06:12:15.000Z</time>
      </trkpt>
      <trkpt lat="43.53786" lon="2.94561">
        <ele>654.8</ele>
        <time>2017-04-16T06:12:16.000Z</time>
      </trkpt>
      <trkpt lat="43.53781" lon="2.94558">
        <ele>655.2</ele>
        <time>2017-04-16T06:12:19.000Z</time>
      </trkpt>
      <trkpt lat="43.53778" lon="2.94557">
        <ele>655.6</ele>
        <time>2017-04-16T06:12:21.000Z</time>
      </trkpt>
      <trkpt lat="43.5377" lon="2.94555">
        <ele>656.2</ele>
        <time>2017-04-16T06:12:26.000Z</time>
      </trkpt>
      <trkpt lat="43.53767" lon="2.94555">
        <ele>656.8</ele>
        <time>2017-04-16T06:12:28.000Z</time>
      </trkpt>
      <trkpt lat="43.53764" lon="2.94554">
        <ele>657.2</ele>
        <time>2017-04-16T06:12:30.000Z</time>
      </trkpt>
      <trkpt lat="43.53761" lon="2.94552">
        <ele>657.6</ele>
        <time>2017-04-16T06:12:32.000Z</time>
      </trkpt>
      <trkpt lat="43.53759" lon="2.94551">
        <ele>658</ele>
        <time>2017-04-16T06:12:33.000Z</time>
      </trkpt>
      <trkpt lat="43.53755" lon="2.94549">
        <ele>658.6</ele>
        <time>2017-04-16T06:12:35.000Z</time>
      </trkpt>
      <trkpt lat="43.53751" lon="2.94547">
        <ele>659</ele>
        <time>2017-04-16T06:12:37.000Z</time>
      </trkpt>
      <trkpt lat="43.53748" lon="2.94546">
        <ele>659.4</ele>
        <time>2017-04-16T06:12:39.000Z</time>
      </trkpt>
      <trkpt lat="43.53745" lon="2.94544">
        <ele>659.6</ele>
        <time>2017-04-16T06:12:41.000Z</time>
      </trkpt>
      <trkpt lat="43.53741" lon="2.94542">
        <ele>660.2</ele>
        <time>2017-04-16T06:12:44.000Z</time>
      </trkpt>
      <trkpt lat="43.53738" lon="2.9454">
        <ele>660.8</ele>
        <time>2017-04-16T06:12:46.000Z</time>
      </trkpt>
      <trkpt lat="43.53735" lon="2.94538">
        <ele>661.2</ele>
        <time>2017-04-16T06:12:48.000Z</time>
      </trkpt>
      <trkpt lat="43.53732" lon="2.94536">
        <ele>661.8</ele>
        <time>2017-04-16T06:12:50.000Z</time>
      </trkpt>
      <trkpt lat="43.53729" lon="2.94534">
        <ele>662.4</ele>
        <time>2017-04-16T06:12:52.000Z</time>
      </trkpt>
      <trkpt lat="43.53727" lon="2.94532">
        <ele>663</ele>
        <time>2017-04-16T06:12:54.000Z</time>
      </trkpt>
      <trkpt lat="43.53724" lon="2.9453">
        <ele>663.4</ele>
        <time>2017-04-16T06:12:56.000Z</time>
      </trkpt>
      <trkpt lat="43.53721" lon="2.94528">
        <ele>663.8</ele>
        <time>2017-04-16T06:12:58.000Z</time>
      </trkpt>
      <trkpt lat="43.53713" lon="2.94521">
        <ele>664.4</ele>
        <time>2017-04-16T06:13:03.000Z</time>
      </trkpt>
      <trkpt lat="43.53708" lon="2.94518">
        <ele>664.8</ele>
        <time>2017-04-16T06:13:06.000Z</time>
      </trkpt>
      <trkpt lat="43.53704" lon="2.94516">
        <ele>665.2</ele>
        <time>2017-04-16T06:13:08.000Z</time>
      </trkpt>
      <trkpt lat="43.53701" lon="2.94513">
        <ele>665.6</ele>
        <time>2017-04-16T06:13:10.000Z</time>
      </trkpt>
      <trkpt lat="43.53698" lon="2.94511">
        <ele>666</ele>
        <time>2017-04-16T06:13:12.000Z</time>
      </trkpt>
      <trkpt lat="43.53695" lon="2.94509">
        <ele>666.2</ele>
        <time>2017-04-16T06:13:14.000Z</time>
      </trkpt>
      <trkpt lat="43.53683" lon="2.94502">
        <ele>667</ele>
        <time>2017-04-16T06:13:21.000Z</time>
      </trkpt>
      <trkpt lat="43.53679" lon="2.94499">
        <ele>667.4</ele>
        <time>2017-04-16T06:13:23.000Z</time>
      </trkpt>
      <trkpt lat="43.53676" lon="2.94497">
        <ele>667.8</ele>
        <time>2017-04-16T06:13:25.000Z</time>
      </trkpt>
      <trkpt lat="43.53673" lon="2.94496">
        <ele>668.2</ele>
        <time>2017-04-16T06:13:27.000Z</time>
      </trkpt>
      <trkpt lat="43.53669" lon="2.94495">
        <ele>668.4</ele>
        <time>2017-04-16T06:13:29.000Z</time>
      </trkpt>
      <trkpt lat="43.53663" lon="2.94493">
        <ele>669</ele>
        <time>2017-04-16T06:13:32.000Z</time>
      </trkpt>
      <trkpt lat="43.53659" lon="2.94492">
        <ele>669.6</ele>
        <time>2017-04-16T06:13:34.000Z</time>
      </trkpt>
      <trkpt lat="43.53655" lon="2.94492">
        <ele>670</ele>
        <time>2017-04-16T06:13:36.000Z</time>
      </trkpt>
      <trkpt lat="43.53652" lon="2.94491">
        <ele>670.4</ele>
        <time>2017-04-16T06:13:38.000Z</time>
      </trkpt>
      <trkpt lat="43.5365" lon="2.94491">
        <ele>670.6</ele>
        <time>2017-04-16T06:13:39.000Z</time>
      </trkpt>
      <trkpt lat="43.53647" lon="2.9449">
        <ele>671.4</ele>
        <time>2017-04-16T06:13:41.000Z</time>
      </trkpt>
      <trkpt lat="43.53643" lon="2.94488">
        <ele>671.8</ele>
        <time>2017-04-16T06:13:43.000Z</time>
      </trkpt>
      <trkpt lat="43.5364" lon="2.94487">
        <ele>672.2</ele>
        <time>2017-04-16T06:13:45.000Z</time>
      </trkpt>
      <trkpt lat="43.53637" lon="2.94486">
        <ele>672.6</ele>
        <time>2017-04-16T06:13:47.000Z</time>
      </trkpt>
      <trkpt lat="43.53628" lon="2.94486">
        <ele>673.4</ele>
        <time>2017-04-16T06:13:52.000Z</time>
      </trkpt>
      <trkpt lat="43.53624" lon="2.94487">
        <ele>673.8</ele>
        <time>2017-04-16T06:13:54.000Z</time>
      </trkpt>
      <trkpt lat="43.5362" lon="2.94487">
        <ele>674.2</ele>
        <time>2017-04-16T06:13:56.000Z</time>
      </trkpt>
      <trkpt lat="43.53616" lon="2.94489">
        <ele>674.6</ele>
        <time>2017-04-16T06:13:58.000Z</time>
      </trkpt>
      <trkpt lat="43.53612" lon="2.9449">
        <ele>674.8</ele>
        <time>2017-04-16T06:14:00.000Z</time>
      </trkpt>
      <trkpt lat="43.53608" lon="2.94492">
        <ele>675.4</ele>
        <time>2017-04-16T06:14:02.000Z</time>
      </trkpt>
      <trkpt lat="43.53605" lon="2.94493">
        <ele>675.8</ele>
        <time>2017-04-16T06:14:04.000Z</time>
      </trkpt>
      <trkpt lat="43.53603" lon="2.94494">
        <ele>676</ele>
        <time>2017-04-16T06:14:05.000Z</time>
      </trkpt>
      <trkpt lat="43.53601" lon="2.94495">
        <ele>676.2</ele>
        <time>2017-04-16T06:14:06.000Z</time>
      </trkpt>
      <trkpt lat="43.53598" lon="2.94497">
        <ele>676.8</ele>
        <time>2017-04-16T06:14:08.000Z</time>
      </trkpt>
      <trkpt lat="43.53595" lon="2.94499">
        <ele>677.4</ele>
        <time>2017-04-16T06:14:10.000Z</time>
      </trkpt>
      <trkpt lat="43.53592" lon="2.94502">
        <ele>678</ele>
        <time>2017-04-16T06:14:12.000Z</time>
      </trkpt>
      <trkpt lat="43.53589" lon="2.94504">
        <ele>678.4</ele>
        <time>2017-04-16T06:14:14.000Z</time>
      </trkpt>
      <trkpt lat="43.53586" lon="2.94507">
        <ele>678.8</ele>
        <time>2017-04-16T06:14:16.000Z</time>
      </trkpt>
      <trkpt lat="43.53584" lon="2.94509">
        <ele>679.4</ele>
        <time>2017-04-16T06:14:18.000Z</time>
      </trkpt>
      <trkpt lat="43.53582" lon="2.94513">
        <ele>680</ele>
        <time>2017-04-16T06:14:20.000Z</time>
      </trkpt>
      <trkpt lat="43.53581" lon="2.94515">
        <ele>680.2</ele>
        <time>2017-04-16T06:14:21.000Z</time>
      </trkpt>
      <trkpt lat="43.53581" lon="2.94519">
        <ele>680.8</ele>
        <time>2017-04-16T06:14:23.000Z</time>
      </trkpt>
      <trkpt lat="43.53582" lon="2.94522">
        <ele>681.4</ele>
        <time>2017-04-16T06:14:25.000Z</time>
      </trkpt>
      <trkpt lat="43.53583" lon="2.94523">
        <ele>682</ele>
        <time>2017-04-16T06:14:27.000Z</time>
      </trkpt>
      <trkpt lat="43.53584" lon="2.94524">
        <ele>682.8</ele>
        <time>2017-04-16T06:14:32.000Z</time>
      </trkpt>
      <trkpt lat="43.53585" lon="2.94524">
        <ele>683</ele>
        <time>2017-04-16T06:14:34.000Z</time>
      </trkpt>
      <trkpt lat="43.53587" lon="2.94524">
        <ele>683.2</ele>
        <time>2017-04-16T06:14:36.000Z</time>
      </trkpt>
      <trkpt lat="43.53593" lon="2.94523">
        <ele>683.8</ele>
        <time>2017-04-16T06:14:40.000Z</time>
      </trkpt>
      <trkpt lat="43.53595" lon="2.94522">
        <ele>684.2</ele>
        <time>2017-04-16T06:14:42.000Z</time>
      </trkpt>
      <trkpt lat="43.53598" lon="2.94522">
        <ele>684.6</ele>
        <time>2017-04-16T06:14:44.000Z</time>
      </trkpt>
      <trkpt lat="43.536" lon="2.94521">
        <ele>684.8</ele>
        <time>2017-04-16T06:14:46.000Z</time>
      </trkpt>
      <trkpt lat="43.53603" lon="2.94521">
        <ele>685.2</ele>
        <time>2017-04-16T06:14:48.000Z</time>
      </trkpt>
      <trkpt lat="43.53611" lon="2.9452">
        <ele>685.6</ele>
        <time>2017-04-16T06:14:55.000Z</time>
      </trkpt>
      <trkpt lat="43.53619" lon="2.94521">
        <ele>686</ele>
        <time>2017-04-16T06:15:01.000Z</time>
      </trkpt>
      <trkpt lat="43.53627" lon="2.94525">
        <ele>686.2</ele>
        <time>2017-04-16T06:15:06.000Z</time>
      </trkpt>
      <trkpt lat="43.5363" lon="2.94528">
        <ele>686.6</ele>
        <time>2017-04-16T06:15:08.000Z</time>
      </trkpt>
      <trkpt lat="43.53633" lon="2.9453">
        <ele>687</ele>
        <time>2017-04-16T06:15:10.000Z</time>
      </trkpt>
      <trkpt lat="43.53636" lon="2.94532">
        <ele>687.2</ele>
        <time>2017-04-16T06:15:12.000Z</time>
      </trkpt>
      <trkpt lat="43.53638" lon="2.94534">
        <ele>687.4</ele>
        <time>2017-04-16T06:15:14.000Z</time>
      </trkpt>
      <trkpt lat="43.53647" lon="2.94541">
        <ele>688</ele>
        <time>2017-04-16T06:15:20.000Z</time>
      </trkpt>
      <trkpt lat="43.5365" lon="2.94544">
        <ele>688.4</ele>
        <time>2017-04-16T06:15:22.000Z</time>
      </trkpt>
      <trkpt lat="43.53654" lon="2.94547">
        <ele>688.8</ele>
        <time>2017-04-16T06:15:24.000Z</time>
      </trkpt>
      <trkpt lat="43.53657" lon="2.94549">
        <ele>689</ele>
        <time>2017-04-16T06:15:26.000Z</time>
      </trkpt>
      <trkpt lat="43.5366" lon="2.94553">
        <ele>689.2</ele>
        <time>2017-04-16T06:15:28.000Z</time>
      </trkpt>
      <trkpt lat="43.53668" lon="2.94562">
        <ele>689.8</ele>
        <time>2017-04-16T06:15:34.000Z</time>
      </trkpt>
      <trkpt lat="43.5367" lon="2.94564">
        <ele>690</ele>
        <time>2017-04-16T06:15:35.000Z</time>
      </trkpt>
      <trkpt lat="43.53674" lon="2.94568">
        <ele>690.4</ele>
        <time>2017-04-16T06:15:37.000Z</time>
      </trkpt>
      <trkpt lat="43.53677" lon="2.94572">
        <ele>690.8</ele>
        <time>2017-04-16T06:15:39.000Z</time>
      </trkpt>
      <trkpt lat="43.53679" lon="2.94577">
        <ele>691</ele>
        <time>2017-04-16T06:15:41.000Z</time>
      </trkpt>
      <trkpt lat="43.5368" lon="2.9458">
        <ele>691.4</ele>
        <time>2017-04-16T06:15:42.000Z</time>
      </trkpt>
      <trkpt lat="43.53682" lon="2.94585">
        <ele>692</ele>
        <time>2017-04-16T06:15:44.000Z</time>
      </trkpt>
      <trkpt lat="43.53685" lon="2.9459">
        <ele>692.4</ele>
        <time>2017-04-16T06:15:46.000Z</time>
      </trkpt>
      <trkpt lat="43.53687" lon="2.94595">
        <ele>692.8</ele>
        <time>2017-04-16T06:15:48.000Z</time>
      </trkpt>
      <trkpt lat="43.53689" lon="2.94599">
        <ele>693</ele>
        <time>2017-04-16T06:15:50.000Z</time>
      </trkpt>
      <trkpt lat="43.53697" lon="2.94617">
        <ele>693.8</ele>
        <time>2017-04-16T06:15:58.000Z</time>
      </trkpt>
      <trkpt lat="43.53704" lon="2.9463">
        <ele>694.2</ele>
        <time>2017-04-16T06:16:04.000Z</time>
      </trkpt>
      <trkpt lat="43.53707" lon="2.94636">
        <ele>694.6</ele>
        <time>2017-04-16T06:16:06.000Z</time>
      </trkpt>
      <trkpt lat="43.53709" lon="2.94642">
        <ele>695</ele>
        <time>2017-04-16T06:16:08.000Z</time>
      </trkpt>
      <trkpt lat="43.53711" lon="2.9465">
        <ele>695.2</ele>
        <time>2017-04-16T06:16:10.000Z</time>
      </trkpt>
      <trkpt lat="43.53713" lon="2.9466">
        <ele>695.4</ele>
        <time>2017-04-16T06:16:12.000Z</time>
      </trkpt>
      <trkpt lat="43.53715" lon="2.94691">
        <ele>695.8</ele>
        <time>2017-04-16T06:16:18.000Z</time>
      </trkpt>
      <trkpt lat="43.53712" lon="2.94718">
        <ele>696.2</ele>
        <time>2017-04-16T06:16:25.000Z</time>
      </trkpt>
      <trkpt lat="43.53712" lon="2.94721">
        <ele>696.4</ele>
        <time>2017-04-16T06:16:26.000Z</time>
      </trkpt>
      <trkpt lat="43.53711" lon="2.94726">
        <ele>696.8</ele>
        <time>2017-04-16T06:16:29.000Z</time>
      </trkpt>
      <trkpt lat="43.5371" lon="2.9473">
        <ele>697.2</ele>
        <time>2017-04-16T06:16:30.000Z</time>
      </trkpt>
      <trkpt lat="43.5371" lon="2.94735">
        <ele>697.4</ele>
        <time>2017-04-16T06:16:32.000Z</time>
      </trkpt>
      <trkpt lat="43.5371" lon="2.94739">
        <ele>697.8</ele>
        <time>2017-04-16T06:16:34.000Z</time>
      </trkpt>
      <trkpt lat="43.5371" lon="2.94744">
        <ele>698.4</ele>
        <time>2017-04-16T06:16:36.000Z</time>
      </trkpt>
      <trkpt lat="43.5371" lon="2.94749">
        <ele>698.8</ele>
        <time>2017-04-16T06:16:38.000Z</time>
      </trkpt>
      <trkpt lat="43.5371" lon="2.94753">
        <ele>699.2</ele>
        <time>2017-04-16T06:16:40.000Z</time>
      </trkpt>
      <trkpt lat="43.53709" lon="2.94758">
        <ele>699.6</ele>
        <time>2017-04-16T06:16:42.000Z</time>
      </trkpt>
      <trkpt lat="43.53709" lon="2.94765">
        <ele>700</ele>
        <time>2017-04-16T06:16:45.000Z</time>
      </trkpt>
      <trkpt lat="43.53708" lon="2.94769">
        <ele>700.6</ele>
        <time>2017-04-16T06:16:47.000Z</time>
      </trkpt>
      <trkpt lat="43.53706" lon="2.94773">
        <ele>701</ele>
        <time>2017-04-16T06:16:49.000Z</time>
      </trkpt>
      <trkpt lat="43.53704" lon="2.94776">
        <ele>701.4</ele>
        <time>2017-04-16T06:16:51.000Z</time>
      </trkpt>
      <trkpt lat="43.53703" lon="2.94779">
        <ele>701.8</ele>
        <time>2017-04-16T06:16:53.000Z</time>
      </trkpt>
      <trkpt lat="43.53702" lon="2.94781">
        <ele>702</ele>
        <time>2017-04-16T06:16:55.000Z</time>
      </trkpt>
      <trkpt lat="43.53698" lon="2.94779">
        <ele>705.2</ele>
        <time>2017-04-16T06:20:34.000Z</time>
      </trkpt>
      <trkpt lat="43.53698" lon="2.9478">
        <ele>705.4</ele>
        <time>2017-04-16T06:20:35.000Z</time>
      </trkpt>
      <trkpt lat="43.53698" lon="2.94782">
        <ele>705.6</ele>
        <time>2017-04-16T06:20:36.000Z</time>
      </trkpt>
      <trkpt lat="43.53697" lon="2.94783">
        <ele>705.8</ele>
        <time>2017-04-16T06:20:37.000Z</time>
      </trkpt>
      <trkpt lat="43.53697" lon="2.94784">
        <ele>706</ele>
        <time>2017-04-16T06:20:39.000Z</time>
      </trkpt>
      <trkpt lat="43.53697" lon="2.94786">
        <ele>706.2</ele>
        <time>2017-04-16T06:20:41.000Z</time>
      </trkpt>
      <trkpt lat="43.53697" lon="2.94788">
        <ele>706.4</ele>
        <time>2017-04-16T06:20:43.000Z</time>
      </trkpt>
      <trkpt lat="43.53701" lon="2.94799">
        <ele>706.8</ele>
        <time>2017-04-16T06:20:51.000Z</time>
      </trkpt>
      <trkpt lat="43.53705" lon="2.94798">
        <ele>706.8</ele>
        <time>2017-04-16T06:20:56.000Z</time>
      </trkpt>
      <trkpt lat="43.53706" lon="2.94796">
        <ele>706.8</ele>
        <time>2017-04-16T06:20:58.000Z</time>
      </trkpt>
      <trkpt lat="43.53706" lon="2.94796">
        <ele>707</ele>
        <time>2017-04-16T06:21:00.000Z</time>
      </trkpt>
      <trkpt lat="43.53707" lon="2.94794">
        <ele>707</ele>
        <time>2017-04-16T06:21:03.000Z</time>
      </trkpt>
      <trkpt lat="43.53705" lon="2.94791">
        <ele>707</ele>
        <time>2017-04-16T06:21:42.000Z</time>
      </trkpt>
      <trkpt lat="43.53707" lon="2.9479">
        <ele>707</ele>
        <time>2017-04-16T06:21:43.000Z</time>
      </trkpt>
      <trkpt lat="43.53711" lon="2.9479">
        <ele>707</ele>
        <time>2017-04-16T06:21:44.000Z</time>
      </trkpt>
      <trkpt lat="43.53724" lon="2.94785">
        <ele>707</ele>
        <time>2017-04-16T06:21:47.000Z</time>
      </trkpt>
      <trkpt lat="43.53732" lon="2.9478">
        <ele>706.8</ele>
        <time>2017-04-16T06:21:48.000Z</time>
      </trkpt>
      <trkpt lat="43.53741" lon="2.94776">
        <ele>706.4</ele>
        <time>2017-04-16T06:21:49.000Z</time>
      </trkpt>
      <trkpt lat="43.53743" lon="2.94775">
        <ele>706</ele>
        <time>2017-04-16T06:21:50.000Z</time>
      </trkpt>
      <trkpt lat="43.53747" lon="2.94768">
        <ele>705</ele>
        <time>2017-04-16T06:21:52.000Z</time>
      </trkpt>
      <trkpt lat="43.53749" lon="2.94771">
        <ele>703.8</ele>
        <time>2017-04-16T06:21:54.000Z</time>
      </trkpt>
      <trkpt lat="43.53753" lon="2.94774">
        <ele>702.2</ele>
        <time>2017-04-16T06:21:56.000Z</time>
      </trkpt>
      <trkpt lat="43.53756" lon="2.9478">
        <ele>700.4</ele>
        <time>2017-04-16T06:21:58.000Z</time>
      </trkpt>
      <trkpt lat="43.53763" lon="2.94775">
        <ele>698.2</ele>
        <time>2017-04-16T06:22:00.000Z</time>
      </trkpt>
      <trkpt lat="43.53767" lon="2.94772">
        <ele>697.2</ele>
        <time>2017-04-16T06:22:01.000Z</time>
      </trkpt>
      <trkpt lat="43.5377" lon="2.94768">
        <ele>696</ele>
        <time>2017-04-16T06:22:02.000Z</time>
      </trkpt>
      <trkpt lat="43.53778" lon="2.9476">
        <ele>694.6</ele>
        <time>2017-04-16T06:22:03.000Z</time>
      </trkpt>
      <trkpt lat="43.53784" lon="2.94755">
        <ele>693.4</ele>
        <time>2017-04-16T06:22:04.000Z</time>
      </trkpt>
      <trkpt lat="43.53796" lon="2.94743">
        <ele>690.6</ele>
        <time>2017-04-16T06:22:06.000Z</time>
      </trkpt>
      <trkpt lat="43.53802" lon="2.94739">
        <ele>687.8</ele>
        <time>2017-04-16T06:22:08.000Z</time>
      </trkpt>
      <trkpt lat="43.53804" lon="2.94747">
        <ele>685</ele>
        <time>2017-04-16T06:22:10.000Z</time>
      </trkpt>
      <trkpt lat="43.53806" lon="2.94743">
        <ele>683.6</ele>
        <time>2017-04-16T06:22:11.000Z</time>
      </trkpt>
      <trkpt lat="43.53825" lon="2.94732">
        <ele>679.6</ele>
        <time>2017-04-16T06:22:14.000Z</time>
      </trkpt>
      <trkpt lat="43.53827" lon="2.94734">
        <ele>678.4</ele>
        <time>2017-04-16T06:22:15.000Z</time>
      </trkpt>
      <trkpt lat="43.5383" lon="2.94734">
        <ele>677</ele>
        <time>2017-04-16T06:22:16.000Z</time>
      </trkpt>
      <trkpt lat="43.53839" lon="2.94728">
        <ele>674.2</ele>
        <time>2017-04-16T06:22:18.000Z</time>
      </trkpt>
      <trkpt lat="43.53843" lon="2.94729">
        <ele>671.4</ele>
        <time>2017-04-16T06:22:20.000Z</time>
      </trkpt>
      <trkpt lat="43.53848" lon="2.94727">
        <ele>670</ele>
        <time>2017-04-16T06:22:21.000Z</time>
      </trkpt>
      <trkpt lat="43.5386" lon="2.9472">
        <ele>668.4</ele>
        <time>2017-04-16T06:22:22.000Z</time>
      </trkpt>
      <trkpt lat="43.53884" lon="2.94706">
        <ele>665.6</ele>
        <time>2017-04-16T06:22:24.000Z</time>
      </trkpt>
      <trkpt lat="43.53892" lon="2.94699">
        <ele>664.2</ele>
        <time>2017-04-16T06:22:25.000Z</time>
      </trkpt>
      <trkpt lat="43.53895" lon="2.94688">
        <ele>662.6</ele>
        <time>2017-04-16T06:22:26.000Z</time>
      </trkpt>
      <trkpt lat="43.53903" lon="2.94673">
        <ele>659.8</ele>
        <time>2017-04-16T06:22:28.000Z</time>
      </trkpt>
      <trkpt lat="43.53902" lon="2.94665">
        <ele>658.4</ele>
        <time>2017-04-16T06:22:29.000Z</time>
      </trkpt>
      <trkpt lat="43.53897" lon="2.94653">
        <ele>656</ele>
        <time>2017-04-16T06:22:31.000Z</time>
      </trkpt>
      <trkpt lat="43.53895" lon="2.9465">
        <ele>655.2</ele>
        <time>2017-04-16T06:22:32.000Z</time>
      </trkpt>
      <trkpt lat="43.53892" lon="2.94646">
        <ele>654.6</ele>
        <time>2017-04-16T06:22:33.000Z</time>
      </trkpt>
      <trkpt lat="43.53892" lon="2.9464">
        <ele>653.6</ele>
        <time>2017-04-16T06:22:35.000Z</time>
      </trkpt>
      <trkpt lat="43.53895" lon="2.94629">
        <ele>653</ele>
        <time>2017-04-16T06:22:37.000Z</time>
      </trkpt>
      <trkpt lat="43.53899" lon="2.94615">
        <ele>652.4</ele>
        <time>2017-04-16T06:22:39.000Z</time>
      </trkpt>
      <trkpt lat="43.53901" lon="2.94608">
        <ele>652.4</ele>
        <time>2017-04-16T06:22:40.000Z</time>
      </trkpt>
      <trkpt lat="43.53902" lon="2.94601">
        <ele>652.4</ele>
        <time>2017-04-16T06:22:41.000Z</time>
      </trkpt>
      <trkpt lat="43.53903" lon="2.94595">
        <ele>652.4</ele>
        <time>2017-04-16T06:22:42.000Z</time>
      </trkpt>
      <trkpt lat="43.5391" lon="2.94585">
        <ele>652.4</ele>
        <time>2017-04-16T06:22:44.000Z</time>
      </trkpt>
      <trkpt lat="43.53917" lon="2.94583">
        <ele>652.4</ele>
        <time>2017-04-16T06:22:46.000Z</time>
      </trkpt>
      <trkpt lat="43.5392" lon="2.94583">
        <ele>652.4</ele>
        <time>2017-04-16T06:22:47.000Z</time>
      </trkpt>
      <trkpt lat="43.53921" lon="2.94582">
        <ele>652.4</ele>
        <time>2017-04-16T06:22:48.000Z</time>
      </trkpt>
      <trkpt lat="43.53922" lon="2.94582">
        <ele>652.6</ele>
        <time>2017-04-16T06:22:49.000Z</time>
      </trkpt>
      <trkpt lat="43.53927" lon="2.94579">
        <ele>653</ele>
        <time>2017-04-16T06:22:51.000Z</time>
      </trkpt>
      <trkpt lat="43.53931" lon="2.94574">
        <ele>653.2</ele>
        <time>2017-04-16T06:22:53.000Z</time>
      </trkpt>
      <trkpt lat="43.53934" lon="2.9457">
        <ele>653.4</ele>
        <time>2017-04-16T06:22:54.000Z</time>
      </trkpt>
      <trkpt lat="43.53939" lon="2.94557">
        <ele>653.6</ele>
        <time>2017-04-16T06:22:56.000Z</time>
      </trkpt>
      <trkpt lat="43.53941" lon="2.94549">
        <ele>653.8</ele>
        <time>2017-04-16T06:22:57.000Z</time>
      </trkpt>
      <trkpt lat="43.53946" lon="2.94532">
        <ele>653.8</ele>
        <time>2017-04-16T06:22:59.000Z</time>
      </trkpt>
      <trkpt lat="43.53944" lon="2.94502">
        <ele>653.2</ele>
        <time>2017-04-16T06:23:02.000Z</time>
      </trkpt>
      <trkpt lat="43.53942" lon="2.94483">
        <ele>652.6</ele>
        <time>2017-04-16T06:23:04.000Z</time>
      </trkpt>
      <trkpt lat="43.53942" lon="2.94475">
        <ele>652.4</ele>
        <time>2017-04-16T06:23:05.000Z</time>
      </trkpt>
      <trkpt lat="43.53946" lon="2.94451">
        <ele>651.8</ele>
        <time>2017-04-16T06:23:08.000Z</time>
      </trkpt>
      <trkpt lat="43.53948" lon="2.94435">
        <ele>651.4</ele>
        <time>2017-04-16T06:23:10.000Z</time>
      </trkpt>
      <trkpt lat="43.53946" lon="2.94426">
        <ele>651.2</ele>
        <time>2017-04-16T06:23:11.000Z</time>
      </trkpt>
      <trkpt lat="43.53935" lon="2.94393">
        <ele>650</ele>
        <time>2017-04-16T06:23:14.000Z</time>
      </trkpt>
      <trkpt lat="43.53932" lon="2.94383">
        <ele>649.4</ele>
        <time>2017-04-16T06:23:15.000Z</time>
      </trkpt>
      <trkpt lat="43.53927" lon="2.94368">
        <ele>647.4</ele>
        <time>2017-04-16T06:23:18.000Z</time>
      </trkpt>
      <trkpt lat="43.53927" lon="2.94363">
        <ele>645.6</ele>
        <time>2017-04-16T06:23:20.000Z</time>
      </trkpt>
      <trkpt lat="43.53926" lon="2.9436">
        <ele>644.8</ele>
        <time>2017-04-16T06:23:21.000Z</time>
      </trkpt>
      <trkpt lat="43.53923" lon="2.94347">
        <ele>641.6</ele>
        <time>2017-04-16T06:23:24.000Z</time>
      </trkpt>
      <trkpt lat="43.53924" lon="2.94342">
        <ele>640.6</ele>
        <time>2017-04-16T06:23:25.000Z</time>
      </trkpt>
      <trkpt lat="43.53926" lon="2.94339">
        <ele>639.4</ele>
        <time>2017-04-16T06:23:26.000Z</time>
      </trkpt>
      <trkpt lat="43.53934" lon="2.94338">
        <ele>637.4</ele>
        <time>2017-04-16T06:23:28.000Z</time>
      </trkpt>
      <trkpt lat="43.53937" lon="2.94338">
        <ele>636.2</ele>
        <time>2017-04-16T06:23:29.000Z</time>
      </trkpt>
      <trkpt lat="43.53937" lon="2.94331">
        <ele>634.2</ele>
        <time>2017-04-16T06:23:31.000Z</time>
      </trkpt>
      <trkpt lat="43.53933" lon="2.94324">
        <ele>633.2</ele>
        <time>2017-04-16T06:23:32.000Z</time>
      </trkpt>
      <trkpt lat="43.5393" lon="2.94316">
        <ele>632</ele>
        <time>2017-04-16T06:23:33.000Z</time>
      </trkpt>
      <trkpt lat="43.53927" lon="2.94307">
        <ele>631</ele>
        <time>2017-04-16T06:23:34.000Z</time>
      </trkpt>
      <trkpt lat="43.53922" lon="2.94294">
        <ele>628.8</ele>
        <time>2017-04-16T06:23:36.000Z</time>
      </trkpt>
      <trkpt lat="43.53924" lon="2.94286">
        <ele>626.6</ele>
        <time>2017-04-16T06:23:38.000Z</time>
      </trkpt>
      <trkpt lat="43.53925" lon="2.94281">
        <ele>624.2</ele>
        <time>2017-04-16T06:23:40.000Z</time>
      </trkpt>
      <trkpt lat="43.53923" lon="2.9428">
        <ele>622</ele>
        <time>2017-04-16T06:23:42.000Z</time>
      </trkpt>
      <trkpt lat="43.53923" lon="2.9428">
        <ele>621</ele>
        <time>2017-04-16T06:23:43.000Z</time>
      </trkpt>
      <trkpt lat="43.53923" lon="2.94277">
        <ele>619</ele>
        <time>2017-04-16T06:23:45.000Z</time>
      </trkpt>
      <trkpt lat="43.53924" lon="2.94268">
        <ele>617.2</ele>
        <time>2017-04-16T06:23:47.000Z</time>
      </trkpt>
      <trkpt lat="43.53925" lon="2.94261">
        <ele>616.2</ele>
        <time>2017-04-16T06:23:48.000Z</time>
      </trkpt>
      <trkpt lat="43.53937" lon="2.94249">
        <ele>613.2</ele>
        <time>2017-04-16T06:23:51.000Z</time>
      </trkpt>
      <trkpt lat="43.53949" lon="2.94246">
        <ele>610.8</ele>
        <time>2017-04-16T06:23:53.000Z</time>
      </trkpt>
      <trkpt lat="43.53951" lon="2.94246">
        <ele>609.8</ele>
        <time>2017-04-16T06:23:54.000Z</time>
      </trkpt>
      <trkpt lat="43.53946" lon="2.94239">
        <ele>606.4</ele>
        <time>2017-04-16T06:23:57.000Z</time>
      </trkpt>
      <trkpt lat="43.53942" lon="2.94236">
        <ele>605.2</ele>
        <time>2017-04-16T06:23:58.000Z</time>
      </trkpt>
      <trkpt lat="43.53939" lon="2.94231">
        <ele>604</ele>
        <time>2017-04-16T06:23:59.000Z</time>
      </trkpt>
      <trkpt lat="43.53939" lon="2.9421">
        <ele>600.4</ele>
        <time>2017-04-16T06:24:02.000Z</time>
      </trkpt>
      <trkpt lat="43.53932" lon="2.94194">
        <ele>597.6</ele>
        <time>2017-04-16T06:24:04.000Z</time>
      </trkpt>
      <trkpt lat="43.53927" lon="2.9418">
        <ele>594.8</ele>
        <time>2017-04-16T06:24:06.000Z</time>
      </trkpt>
      <trkpt lat="43.53926" lon="2.94175">
        <ele>593.2</ele>
        <time>2017-04-16T06:24:07.000Z</time>
      </trkpt>
      <trkpt lat="43.53927" lon="2.94169">
        <ele>591.6</ele>
        <time>2017-04-16T06:24:08.000Z</time>
      </trkpt>
      <trkpt lat="43.53927" lon="2.94153">
        <ele>588.4</ele>
        <time>2017-04-16T06:24:10.000Z</time>
      </trkpt>
      <trkpt lat="43.53923" lon="2.94144">
        <ele>587</ele>
        <time>2017-04-16T06:24:11.000Z</time>
      </trkpt>
      <trkpt lat="43.5392" lon="2.94135">
        <ele>585.2</ele>
        <time>2017-04-16T06:24:12.000Z</time>
      </trkpt>
      <trkpt lat="43.5392" lon="2.94125">
        <ele>583.8</ele>
        <time>2017-04-16T06:24:13.000Z</time>
      </trkpt>
      <trkpt lat="43.53922" lon="2.94118">
        <ele>582.2</ele>
        <time>2017-04-16T06:24:14.000Z</time>
      </trkpt>
      <trkpt lat="43.53931" lon="2.94101">
        <ele>579</ele>
        <time>2017-04-16T06:24:16.000Z</time>
      </trkpt>
      <trkpt lat="43.53936" lon="2.94092">
        <ele>577.6</ele>
        <time>2017-04-16T06:24:17.000Z</time>
      </trkpt>
      <trkpt lat="43.53945" lon="2.94069">
        <ele>573.4</ele>
        <time>2017-04-16T06:24:20.000Z</time>
      </trkpt>
      <trkpt lat="43.53948" lon="2.94063">
        <ele>572</ele>
        <time>2017-04-16T06:24:21.000Z</time>
      </trkpt>
      <trkpt lat="43.53952" lon="2.94057">
        <ele>570.8</ele>
        <time>2017-04-16T06:24:22.000Z</time>
      </trkpt>
      <trkpt lat="43.53957" lon="2.94052">
        <ele>569.6</ele>
        <time>2017-04-16T06:24:23.000Z</time>
      </trkpt>
      <trkpt lat="43.53962" lon="2.94044">
        <ele>568.6</ele>
        <time>2017-04-16T06:24:24.000Z</time>
      </trkpt>
      <trkpt lat="43.53967" lon="2.94037">
        <ele>567.6</ele>
        <time>2017-04-16T06:24:25.000Z</time>
      </trkpt>
      <trkpt lat="43.53972" lon="2.94033">
        <ele>566.6</ele>
        <time>2017-04-16T06:24:26.000Z</time>
      </trkpt>
      <trkpt lat="43.53976" lon="2.94028">
        <ele>565.4</ele>
        <time>2017-04-16T06:24:27.000Z</time>
      </trkpt>
      <trkpt lat="43.5398" lon="2.94023">
        <ele>564.4</ele>
        <time>2017-04-16T06:24:28.000Z</time>
      </trkpt>
      <trkpt lat="43.53991" lon="2.94006">
        <ele>562.2</ele>
        <time>2017-04-16T06:24:30.000Z</time>
      </trkpt>
      <trkpt lat="43.54015" lon="2.93976">
        <ele>558.4</ele>
        <time>2017-04-16T06:24:33.000Z</time>
      </trkpt>
      <trkpt lat="43.54023" lon="2.93969">
        <ele>557</ele>
        <time>2017-04-16T06:24:34.000Z</time>
      </trkpt>
      <trkpt lat="43.54031" lon="2.93963">
        <ele>555.8</ele>
        <time>2017-04-16T06:24:35.000Z</time>
      </trkpt>
      <trkpt lat="43.54041" lon="2.93957">
        <ele>554.2</ele>
        <time>2017-04-16T06:24:36.000Z</time>
      </trkpt>
      <trkpt lat="43.54069" lon="2.93937">
        <ele>549.8</ele>
        <time>2017-04-16T06:24:39.000Z</time>
      </trkpt>
      <trkpt lat="43.54081" lon="2.93919">
        <ele>546.6</ele>
        <time>2017-04-16T06:24:41.000Z</time>
      </trkpt>
      <trkpt lat="43.5409" lon="2.93912">
        <ele>545</ele>
        <time>2017-04-16T06:24:42.000Z</time>
      </trkpt>
      <trkpt lat="43.54099" lon="2.93906">
        <ele>543.2</ele>
        <time>2017-04-16T06:24:43.000Z</time>
      </trkpt>
      <trkpt lat="43.54109" lon="2.93901">
        <ele>541.6</ele>
        <time>2017-04-16T06:24:44.000Z</time>
      </trkpt>
      <trkpt lat="43.5413" lon="2.93891">
        <ele>538</ele>
        <time>2017-04-16T06:24:46.000Z</time>
      </trkpt>
      <trkpt lat="43.54148" lon="2.93881">
        <ele>534.4</ele>
        <time>2017-04-16T06:24:48.000Z</time>
      </trkpt>
      <trkpt lat="43.54155" lon="2.93877">
        <ele>532.8</ele>
        <time>2017-04-16T06:24:49.000Z</time>
      </trkpt>
      <trkpt lat="43.54163" lon="2.93872">
        <ele>531</ele>
        <time>2017-04-16T06:24:50.000Z</time>
      </trkpt>
      <trkpt lat="43.54174" lon="2.93869">
        <ele>529.6</ele>
        <time>2017-04-16T06:24:51.000Z</time>
      </trkpt>
      <trkpt lat="43.54183" lon="2.93865">
        <ele>527.8</ele>
        <time>2017-04-16T06:24:52.000Z</time>
      </trkpt>
      <trkpt lat="43.54191" lon="2.93862">
        <ele>526.4</ele>
        <time>2017-04-16T06:24:53.000Z</time>
      </trkpt>
      <trkpt lat="43.54202" lon="2.93856">
        <ele>523.6</ele>
        <time>2017-04-16T06:24:55.000Z</time>
      </trkpt>
      <trkpt lat="43.54211" lon="2.93858">
        <ele>521.2</ele>
        <time>2017-04-16T06:24:57.000Z</time>
      </trkpt>
      <trkpt lat="43.54218" lon="2.9386">
        <ele>520</ele>
        <time>2017-04-16T06:24:58.000Z</time>
      </trkpt>
      <trkpt lat="43.54226" lon="2.93862">
        <ele>518.8</ele>
        <time>2017-04-16T06:24:59.000Z</time>
      </trkpt>
      <trkpt lat="43.5425" lon="2.93857">
        <ele>515</ele>
        <time>2017-04-16T06:25:02.000Z</time>
      </trkpt>
      <trkpt lat="43.54259" lon="2.93853">
        <ele>513.8</ele>
        <time>2017-04-16T06:25:03.000Z</time>
      </trkpt>
      <trkpt lat="43.54276" lon="2.93845">
        <ele>511.4</ele>
        <time>2017-04-16T06:25:05.000Z</time>
      </trkpt>
      <trkpt lat="43.54291" lon="2.93837">
        <ele>509.2</ele>
        <time>2017-04-16T06:25:07.000Z</time>
      </trkpt>
      <trkpt lat="43.54299" lon="2.93832">
        <ele>508</ele>
        <time>2017-04-16T06:25:08.000Z</time>
      </trkpt>
      <trkpt lat="43.54312" lon="2.9382">
        <ele>505.4</ele>
        <time>2017-04-16T06:25:10.000Z</time>
      </trkpt>
      <trkpt lat="43.54328" lon="2.93811">
        <ele>502.8</ele>
        <time>2017-04-16T06:25:12.000Z</time>
      </trkpt>
      <trkpt lat="43.54337" lon="2.93809">
        <ele>501.6</ele>
        <time>2017-04-16T06:25:13.000Z</time>
      </trkpt>
      <trkpt lat="43.54356" lon="2.93804">
        <ele>499</ele>
        <time>2017-04-16T06:25:15.000Z</time>
      </trkpt>
      <trkpt lat="43.54381" lon="2.93808">
        <ele>494.8</ele>
        <time>2017-04-16T06:25:18.000Z</time>
      </trkpt>
      <trkpt lat="43.54393" lon="2.93816">
        <ele>492.2</ele>
        <time>2017-04-16T06:25:20.000Z</time>
      </trkpt>
      <trkpt lat="43.54399" lon="2.93816">
        <ele>490.8</ele>
        <time>2017-04-16T06:25:21.000Z</time>
      </trkpt>
      <trkpt lat="43.5441" lon="2.93817">
        <ele>487.8</ele>
        <time>2017-04-16T06:25:23.000Z</time>
      </trkpt>
      <trkpt lat="43.54416" lon="2.93818">
        <ele>486.2</ele>
        <time>2017-04-16T06:25:24.000Z</time>
      </trkpt>
      <trkpt lat="43.54428" lon="2.93817">
        <ele>483.2</ele>
        <time>2017-04-16T06:25:26.000Z</time>
      </trkpt>
      <trkpt lat="43.54442" lon="2.93805">
        <ele>480.2</ele>
        <time>2017-04-16T06:25:28.000Z</time>
      </trkpt>
      <trkpt lat="43.5445" lon="2.93796">
        <ele>478.6</ele>
        <time>2017-04-16T06:25:29.000Z</time>
      </trkpt>
      <trkpt lat="43.54457" lon="2.93785">
        <ele>477</ele>
        <time>2017-04-16T06:25:30.000Z</time>
      </trkpt>
      <trkpt lat="43.54463" lon="2.93776">
        <ele>475.6</ele>
        <time>2017-04-16T06:25:31.000Z</time>
      </trkpt>
      <trkpt lat="43.5447" lon="2.93752">
        <ele>472.8</ele>
        <time>2017-04-16T06:25:33.000Z</time>
      </trkpt>
      <trkpt lat="43.54464" lon="2.93712">
        <ele>468.2</ele>
        <time>2017-04-16T06:25:36.000Z</time>
      </trkpt>
      <trkpt lat="43.54459" lon="2.93701">
        <ele>466.8</ele>
        <time>2017-04-16T06:25:37.000Z</time>
      </trkpt>
      <trkpt lat="43.54449" lon="2.93679">
        <ele>463.4</ele>
        <time>2017-04-16T06:25:39.000Z</time>
      </trkpt>
      <trkpt lat="43.54442" lon="2.93669">
        <ele>460.4</ele>
        <time>2017-04-16T06:25:41.000Z</time>
      </trkpt>
      <trkpt lat="43.54439" lon="2.93671">
        <ele>458.8</ele>
        <time>2017-04-16T06:25:42.000Z</time>
      </trkpt>
      <trkpt lat="43.54433" lon="2.9368">
        <ele>456.2</ele>
        <time>2017-04-16T06:25:44.000Z</time>
      </trkpt>
      <trkpt lat="43.54448" lon="2.93695">
        <ele>453.8</ele>
        <time>2017-04-16T06:25:46.000Z</time>
      </trkpt>
      <trkpt lat="43.54452" lon="2.937">
        <ele>452.6</ele>
        <time>2017-04-16T06:25:47.000Z</time>
      </trkpt>
      <trkpt lat="43.54466" lon="2.9371">
        <ele>450.2</ele>
        <time>2017-04-16T06:25:49.000Z</time>
      </trkpt>
      <trkpt lat="43.54503" lon="2.93731">
        <ele>446.4</ele>
        <time>2017-04-16T06:25:52.000Z</time>
      </trkpt>
      <trkpt lat="43.54517" lon="2.93745">
        <ele>444.2</ele>
        <time>2017-04-16T06:25:54.000Z</time>
      </trkpt>
      <trkpt lat="43.54523" lon="2.9375">
        <ele>443</ele>
        <time>2017-04-16T06:25:55.000Z</time>
      </trkpt>
      <trkpt lat="43.54525" lon="2.93749">
        <ele>442</ele>
        <time>2017-04-16T06:25:56.000Z</time>
      </trkpt>
      <trkpt lat="43.5453" lon="2.93749">
        <ele>440.6</ele>
        <time>2017-04-16T06:25:57.000Z</time>
      </trkpt>
      <trkpt lat="43.5453" lon="2.93732">
        <ele>438.6</ele>
        <time>2017-04-16T06:25:59.000Z</time>
      </trkpt>
      <trkpt lat="43.54531" lon="2.93724">
        <ele>437.4</ele>
        <time>2017-04-16T06:26:00.000Z</time>
      </trkpt>
      <trkpt lat="43.54539" lon="2.93724">
        <ele>435.4</ele>
        <time>2017-04-16T06:26:02.000Z</time>
      </trkpt>
      <trkpt lat="43.54545" lon="2.93731">
        <ele>434.4</ele>
        <time>2017-04-16T06:26:03.000Z</time>
      </trkpt>
      <trkpt lat="43.54555" lon="2.93753">
        <ele>432.6</ele>
        <time>2017-04-16T06:26:05.000Z</time>
      </trkpt>
      <trkpt lat="43.54564" lon="2.93764">
        <ele>430.8</ele>
        <time>2017-04-16T06:26:07.000Z</time>
      </trkpt>
      <trkpt lat="43.54569" lon="2.93761">
        <ele>430</ele>
        <time>2017-04-16T06:26:08.000Z</time>
      </trkpt>
      <trkpt lat="43.54578" lon="2.9375">
        <ele>428</ele>
        <time>2017-04-16T06:26:10.000Z</time>
      </trkpt>
      <trkpt lat="43.5458" lon="2.93742">
        <ele>427</ele>
        <time>2017-04-16T06:26:11.000Z</time>
      </trkpt>
      <trkpt lat="43.54585" lon="2.93723">
        <ele>425</ele>
        <time>2017-04-16T06:26:13.000Z</time>
      </trkpt>
      <trkpt lat="43.54588" lon="2.93717">
        <ele>424.4</ele>
        <time>2017-04-16T06:26:14.000Z</time>
      </trkpt>
      <trkpt lat="43.54592" lon="2.93715">
        <ele>423.4</ele>
        <time>2017-04-16T06:26:15.000Z</time>
      </trkpt>
      <trkpt lat="43.546" lon="2.93724">
        <ele>421.8</ele>
        <time>2017-04-16T06:26:17.000Z</time>
      </trkpt>
      <trkpt lat="43.54605" lon="2.93728">
        <ele>420.8</ele>
        <time>2017-04-16T06:26:18.000Z</time>
      </trkpt>
      <trkpt lat="43.54616" lon="2.93729">
        <ele>419</ele>
        <time>2017-04-16T06:26:20.000Z</time>
      </trkpt>
      <trkpt lat="43.54621" lon="2.93725">
        <ele>418</ele>
        <time>2017-04-16T06:26:21.000Z</time>
      </trkpt>
      <trkpt lat="43.54625" lon="2.93714">
        <ele>416</ele>
        <time>2017-04-16T06:26:23.000Z</time>
      </trkpt>
      <trkpt lat="43.54623" lon="2.93708">
        <ele>415</ele>
        <time>2017-04-16T06:26:24.000Z</time>
      </trkpt>
      <trkpt lat="43.54616" lon="2.93699">
        <ele>413.2</ele>
        <time>2017-04-16T06:26:26.000Z</time>
      </trkpt>
      <trkpt lat="43.54612" lon="2.93693">
        <ele>412.2</ele>
        <time>2017-04-16T06:26:27.000Z</time>
      </trkpt>
      <trkpt lat="43.54609" lon="2.93686">
        <ele>411.4</ele>
        <time>2017-04-16T06:26:28.000Z</time>
      </trkpt>
      <trkpt lat="43.54605" lon="2.9368">
        <ele>410.4</ele>
        <time>2017-04-16T06:26:29.000Z</time>
      </trkpt>
      <trkpt lat="43.546" lon="2.93673">
        <ele>409.6</ele>
        <time>2017-04-16T06:26:30.000Z</time>
      </trkpt>
      <trkpt lat="43.54595" lon="2.93667">
        <ele>408.8</ele>
        <time>2017-04-16T06:26:31.000Z</time>
      </trkpt>
      <trkpt lat="43.54588" lon="2.93661">
        <ele>407.8</ele>
        <time>2017-04-16T06:26:32.000Z</time>
      </trkpt>
      <trkpt lat="43.54575" lon="2.93649">
        <ele>406.2</ele>
        <time>2017-04-16T06:26:34.000Z</time>
      </trkpt>
      <trkpt lat="43.54568" lon="2.93642">
        <ele>405.4</ele>
        <time>2017-04-16T06:26:35.000Z</time>
      </trkpt>
      <trkpt lat="43.54561" lon="2.93636">
        <ele>404.6</ele>
        <time>2017-04-16T06:26:36.000Z</time>
      </trkpt>
      <trkpt lat="43.54552" lon="2.93631">
        <ele>403.8</ele>
        <time>2017-04-16T06:26:37.000Z</time>
      </trkpt>
      <trkpt lat="43.54544" lon="2.93626">
        <ele>402.8</ele>
        <time>2017-04-16T06:26:38.000Z</time>
      </trkpt>
      <trkpt lat="43.54529" lon="2.93617">
        <ele>401</ele>
        <time>2017-04-16T06:26:40.000Z</time>
      </trkpt>
      <trkpt lat="43.54513" lon="2.93609">
        <ele>399.2</ele>
        <time>2017-04-16T06:26:42.000Z</time>
      </trkpt>
      <trkpt lat="43.54504" lon="2.93605">
        <ele>398.4</ele>
        <time>2017-04-16T06:26:43.000Z</time>
      </trkpt>
      <trkpt lat="43.54496" lon="2.93599">
        <ele>397.4</ele>
        <time>2017-04-16T06:26:44.000Z</time>
      </trkpt>
      <trkpt lat="43.54492" lon="2.93591">
        <ele>396.8</ele>
        <time>2017-04-16T06:26:45.000Z</time>
      </trkpt>
      <trkpt lat="43.54489" lon="2.93573">
        <ele>395.4</ele>
        <time>2017-04-16T06:26:47.000Z</time>
      </trkpt>
      <trkpt lat="43.54491" lon="2.93562">
        <ele>394.8</ele>
        <time>2017-04-16T06:26:48.000Z</time>
      </trkpt>
      <trkpt lat="43.54492" lon="2.93551">
        <ele>394.4</ele>
        <time>2017-04-16T06:26:49.000Z</time>
      </trkpt>
      <trkpt lat="43.54494" lon="2.9354">
        <ele>394.2</ele>
        <time>2017-04-16T06:26:50.000Z</time>
      </trkpt>
      <trkpt lat="43.545" lon="2.9352">
        <ele>393.8</ele>
        <time>2017-04-16T06:26:52.000Z</time>
      </trkpt>
      <trkpt lat="43.54508" lon="2.93502">
        <ele>393.4</ele>
        <time>2017-04-16T06:26:54.000Z</time>
      </trkpt>
      <trkpt lat="43.5451" lon="2.93493">
        <ele>393.2</ele>
        <time>2017-04-16T06:26:55.000Z</time>
      </trkpt>
      <trkpt lat="43.54511" lon="2.93484">
        <ele>393</ele>
        <time>2017-04-16T06:26:56.000Z</time>
      </trkpt>
      <trkpt lat="43.54509" lon="2.93467">
        <ele>392.8</ele>
        <time>2017-04-16T06:26:58.000Z</time>
      </trkpt>
      <trkpt lat="43.54506" lon="2.93436">
        <ele>392.6</ele>
        <time>2017-04-16T06:27:02.000Z</time>
      </trkpt>
      <trkpt lat="43.54509" lon="2.93421">
        <ele>392.6</ele>
        <time>2017-04-16T06:27:04.000Z</time>
      </trkpt>
      <trkpt lat="43.54511" lon="2.93404">
        <ele>393</ele>
        <time>2017-04-16T06:27:06.000Z</time>
      </trkpt>
      <trkpt lat="43.54513" lon="2.93388">
        <ele>393.2</ele>
        <time>2017-04-16T06:27:08.000Z</time>
      </trkpt>
      <trkpt lat="43.54514" lon="2.93381">
        <ele>393.4</ele>
        <time>2017-04-16T06:27:09.000Z</time>
      </trkpt>
      <trkpt lat="43.54515" lon="2.93374">
        <ele>393.4</ele>
        <time>2017-04-16T06:27:10.000Z</time>
      </trkpt>
      <trkpt lat="43.54517" lon="2.93359">
        <ele>393.6</ele>
        <time>2017-04-16T06:27:12.000Z</time>
      </trkpt>
      <trkpt lat="43.5452" lon="2.93334">
        <ele>393.8</ele>
        <time>2017-04-16T06:27:15.000Z</time>
      </trkpt>
      <trkpt lat="43.54528" lon="2.9331">
        <ele>394.6</ele>
        <time>2017-04-16T06:27:18.000Z</time>
      </trkpt>
      <trkpt lat="43.5453" lon="2.93304">
        <ele>394.8</ele>
        <time>2017-04-16T06:27:19.000Z</time>
      </trkpt>
      <trkpt lat="43.54533" lon="2.93296">
        <ele>394.8</ele>
        <time>2017-04-16T06:27:20.000Z</time>
      </trkpt>
      <trkpt lat="43.54536" lon="2.9329">
        <ele>395</ele>
        <time>2017-04-16T06:27:21.000Z</time>
      </trkpt>
      <trkpt lat="43.5454" lon="2.93283">
        <ele>395.2</ele>
        <time>2017-04-16T06:27:22.000Z</time>
      </trkpt>
      <trkpt lat="43.54544" lon="2.93276">
        <ele>395.6</ele>
        <time>2017-04-16T06:27:23.000Z</time>
      </trkpt>
      <trkpt lat="43.54549" lon="2.93269">
        <ele>395.8</ele>
        <time>2017-04-16T06:27:24.000Z</time>
      </trkpt>
      <trkpt lat="43.54562" lon="2.93253">
        <ele>396.8</ele>
        <time>2017-04-16T06:27:27.000Z</time>
      </trkpt>
      <trkpt lat="43.54569" lon="2.93245">
        <ele>397.6</ele>
        <time>2017-04-16T06:27:29.000Z</time>
      </trkpt>
      <trkpt lat="43.54571" lon="2.9324">
        <ele>397.8</ele>
        <time>2017-04-16T06:27:30.000Z</time>
      </trkpt>
      <trkpt lat="43.54575" lon="2.93235">
        <ele>398.2</ele>
        <time>2017-04-16T06:27:31.000Z</time>
      </trkpt>
      <trkpt lat="43.54579" lon="2.93222">
        <ele>398.6</ele>
        <time>2017-04-16T06:27:33.000Z</time>
      </trkpt>
      <trkpt lat="43.54585" lon="2.93209">
        <ele>399</ele>
        <time>2017-04-16T06:27:35.000Z</time>
      </trkpt>
      <trkpt lat="43.54588" lon="2.93204">
        <ele>399.4</ele>
        <time>2017-04-16T06:27:36.000Z</time>
      </trkpt>
      <trkpt lat="43.54591" lon="2.93198">
        <ele>399.8</ele>
        <time>2017-04-16T06:27:37.000Z</time>
      </trkpt>
      <trkpt lat="43.54594" lon="2.93193">
        <ele>400.2</ele>
        <time>2017-04-16T06:27:38.000Z</time>
      </trkpt>
      <trkpt lat="43.54599" lon="2.93183">
        <ele>400.6</ele>
        <time>2017-04-16T06:27:40.000Z</time>
      </trkpt>
      <trkpt lat="43.54604" lon="2.93174">
        <ele>401.2</ele>
        <time>2017-04-16T06:27:42.000Z</time>
      </trkpt>
      <trkpt lat="43.54608" lon="2.93171">
        <ele>401.4</ele>
        <time>2017-04-16T06:27:43.000Z</time>
      </trkpt>
      <trkpt lat="43.54615" lon="2.93169">
        <ele>401.6</ele>
        <time>2017-04-16T06:27:44.000Z</time>
      </trkpt>
      <trkpt lat="43.54629" lon="2.93167">
        <ele>401.8</ele>
        <time>2017-04-16T06:27:46.000Z</time>
      </trkpt>
      <trkpt lat="43.54646" lon="2.93157">
        <ele>400.8</ele>
        <time>2017-04-16T06:27:49.000Z</time>
      </trkpt>
      <trkpt lat="43.54649" lon="2.93154">
        <ele>400.2</ele>
        <time>2017-04-16T06:27:50.000Z</time>
      </trkpt>
      <trkpt lat="43.54658" lon="2.93148">
        <ele>398.8</ele>
        <time>2017-04-16T06:27:52.000Z</time>
      </trkpt>
      <trkpt lat="43.54668" lon="2.93132">
        <ele>396</ele>
        <time>2017-04-16T06:27:55.000Z</time>
      </trkpt>
      <trkpt lat="43.54675" lon="2.93123">
        <ele>393.8</ele>
        <time>2017-04-16T06:27:57.000Z</time>
      </trkpt>
      <trkpt lat="43.54681" lon="2.93115">
        <ele>391.6</ele>
        <time>2017-04-16T06:27:59.000Z</time>
      </trkpt>
      <trkpt lat="43.54684" lon="2.93113">
        <ele>390.6</ele>
        <time>2017-04-16T06:28:00.000Z</time>
      </trkpt>
      <trkpt lat="43.54683" lon="2.93121">
        <ele>386.6</ele>
        <time>2017-04-16T06:28:03.000Z</time>
      </trkpt>
      <trkpt lat="43.54683" lon="2.93122">
        <ele>385.4</ele>
        <time>2017-04-16T06:28:04.000Z</time>
      </trkpt>
      <trkpt lat="43.54687" lon="2.93121">
        <ele>383.8</ele>
        <time>2017-04-16T06:28:05.000Z</time>
      </trkpt>
      <trkpt lat="43.54699" lon="2.93113">
        <ele>381</ele>
        <time>2017-04-16T06:28:07.000Z</time>
      </trkpt>
      <trkpt lat="43.54705" lon="2.93108">
        <ele>379.6</ele>
        <time>2017-04-16T06:28:08.000Z</time>
      </trkpt>
      <trkpt lat="43.54711" lon="2.93103">
        <ele>378</ele>
        <time>2017-04-16T06:28:09.000Z</time>
      </trkpt>
      <trkpt lat="43.54719" lon="2.93095">
        <ele>375</ele>
        <time>2017-04-16T06:28:11.000Z</time>
      </trkpt>
      <trkpt lat="43.54724" lon="2.93094">
        <ele>373.4</ele>
        <time>2017-04-16T06:28:12.000Z</time>
      </trkpt>
      <trkpt lat="43.54729" lon="2.93092">
        <ele>371.6</ele>
        <time>2017-04-16T06:28:13.000Z</time>
      </trkpt>
      <trkpt lat="43.54732" lon="2.93089">
        <ele>369.8</ele>
        <time>2017-04-16T06:28:14.000Z</time>
      </trkpt>
      <trkpt lat="43.54734" lon="2.93086">
        <ele>367.8</ele>
        <time>2017-04-16T06:28:15.000Z</time>
      </trkpt>
      <trkpt lat="43.54736" lon="2.93083">
        <ele>366.2</ele>
        <time>2017-04-16T06:28:16.000Z</time>
      </trkpt>
      <trkpt lat="43.54746" lon="2.93073">
        <ele>361</ele>
        <time>2017-04-16T06:28:19.000Z</time>
      </trkpt>
      <trkpt lat="43.54749" lon="2.93075">
        <ele>357.8</ele>
        <time>2017-04-16T06:28:21.000Z</time>
      </trkpt>
      <trkpt lat="43.54759" lon="2.93076">
        <ele>354.6</ele>
        <time>2017-04-16T06:28:23.000Z</time>
      </trkpt>
      <trkpt lat="43.54767" lon="2.93077">
        <ele>353.2</ele>
        <time>2017-04-16T06:28:24.000Z</time>
      </trkpt>
      <trkpt lat="43.54775" lon="2.93079">
        <ele>351.4</ele>
        <time>2017-04-16T06:28:25.000Z</time>
      </trkpt>
      <trkpt lat="43.54784" lon="2.93081">
        <ele>350</ele>
        <time>2017-04-16T06:28:26.000Z</time>
      </trkpt>
      <trkpt lat="43.54796" lon="2.93088">
        <ele>346.4</ele>
        <time>2017-04-16T06:28:28.000Z</time>
      </trkpt>
      <trkpt lat="43.54807" lon="2.93093">
        <ele>343</ele>
        <time>2017-04-16T06:28:30.000Z</time>
      </trkpt>
      <trkpt lat="43.54815" lon="2.93094">
        <ele>339.6</ele>
        <time>2017-04-16T06:28:32.000Z</time>
      </trkpt>
      <trkpt lat="43.5482" lon="2.93092">
        <ele>338</ele>
        <time>2017-04-16T06:28:33.000Z</time>
      </trkpt>
      <trkpt lat="43.54833" lon="2.93086">
        <ele>335</ele>
        <time>2017-04-16T06:28:35.000Z</time>
      </trkpt>
      <trkpt lat="43.54845" lon="2.9308">
        <ele>332</ele>
        <time>2017-04-16T06:28:37.000Z</time>
      </trkpt>
      <trkpt lat="43.54851" lon="2.93075">
        <ele>330.6</ele>
        <time>2017-04-16T06:28:38.000Z</time>
      </trkpt>
      <trkpt lat="43.54855" lon="2.9307">
        <ele>329</ele>
        <time>2017-04-16T06:28:39.000Z</time>
      </trkpt>
      <trkpt lat="43.54866" lon="2.9306">
        <ele>326</ele>
        <time>2017-04-16T06:28:41.000Z</time>
      </trkpt>
      <trkpt lat="43.54872" lon="2.93055">
        <ele>324.6</ele>
        <time>2017-04-16T06:28:42.000Z</time>
      </trkpt>
      <trkpt lat="43.54895" lon="2.93051">
        <ele>318.8</ele>
        <time>2017-04-16T06:28:46.000Z</time>
      </trkpt>
      <trkpt lat="43.54898" lon="2.93053">
        <ele>317</ele>
        <time>2017-04-16T06:28:47.000Z</time>
      </trkpt>
      <trkpt lat="43.54906" lon="2.93058">
        <ele>315.4</ele>
        <time>2017-04-16T06:28:48.000Z</time>
      </trkpt>
      <trkpt lat="43.54909" lon="2.93061">
        <ele>313.8</ele>
        <time>2017-04-16T06:28:49.000Z</time>
      </trkpt>
      <trkpt lat="43.54915" lon="2.93063">
        <ele>311.6</ele>
        <time>2017-04-16T06:28:50.000Z</time>
      </trkpt>
      <trkpt lat="43.54918" lon="2.93064">
        <ele>309.4</ele>
        <time>2017-04-16T06:28:51.000Z</time>
      </trkpt>
      <trkpt lat="43.54921" lon="2.93063">
        <ele>307.4</ele>
        <time>2017-04-16T06:28:52.000Z</time>
      </trkpt>
      <trkpt lat="43.54924" lon="2.93061">
        <ele>303.6</ele>
        <time>2017-04-16T06:28:54.000Z</time>
      </trkpt>
      <trkpt lat="43.54924" lon="2.93061">
        <ele>301.8</ele>
        <time>2017-04-16T06:28:55.000Z</time>
      </trkpt>
      <trkpt lat="43.54924" lon="2.93063">
        <ele>290.6</ele>
        <time>2017-04-16T06:29:04.000Z</time>
      </trkpt>
      <trkpt lat="43.54926" lon="2.93063">
        <ele>289.8</ele>
        <time>2017-04-16T06:29:05.000Z</time>
      </trkpt>
      <trkpt lat="43.54938" lon="2.9306">
        <ele>288.2</ele>
        <time>2017-04-16T06:29:07.000Z</time>
      </trkpt>
      <trkpt lat="43.5495" lon="2.93051">
        <ele>286.4</ele>
        <time>2017-04-16T06:29:09.000Z</time>
      </trkpt>
      <trkpt lat="43.54961" lon="2.9304">
        <ele>284.2</ele>
        <time>2017-04-16T06:29:11.000Z</time>
      </trkpt>
      <trkpt lat="43.54965" lon="2.93029">
        <ele>282.2</ele>
        <time>2017-04-16T06:29:13.000Z</time>
      </trkpt>
      <trkpt lat="43.54967" lon="2.93025">
        <ele>281.4</ele>
        <time>2017-04-16T06:29:14.000Z</time>
      </trkpt>
      <trkpt lat="43.5497" lon="2.9302">
        <ele>280.4</ele>
        <time>2017-04-16T06:29:15.000Z</time>
      </trkpt>
      <trkpt lat="43.54972" lon="2.93015">
        <ele>279.6</ele>
        <time>2017-04-16T06:29:16.000Z</time>
      </trkpt>
      <trkpt lat="43.54975" lon="2.9301">
        <ele>278.4</ele>
        <time>2017-04-16T06:29:17.000Z</time>
      </trkpt>
      <trkpt lat="43.5498" lon="2.93">
        <ele>276.4</ele>
        <time>2017-04-16T06:29:19.000Z</time>
      </trkpt>
      <trkpt lat="43.54984" lon="2.92996">
        <ele>275.4</ele>
        <time>2017-04-16T06:29:20.000Z</time>
      </trkpt>
      <trkpt lat="43.54987" lon="2.92993">
        <ele>274.6</ele>
        <time>2017-04-16T06:29:21.000Z</time>
      </trkpt>
      <trkpt lat="43.54991" lon="2.92989">
        <ele>273.6</ele>
        <time>2017-04-16T06:29:22.000Z</time>
      </trkpt>
      <trkpt lat="43.55007" lon="2.9298">
        <ele>271</ele>
        <time>2017-04-16T06:29:25.000Z</time>
      </trkpt>
      <trkpt lat="43.55016" lon="2.92976">
        <ele>270</ele>
        <time>2017-04-16T06:29:26.000Z</time>
      </trkpt>
      <trkpt lat="43.55025" lon="2.92973">
        <ele>269.2</ele>
        <time>2017-04-16T06:29:27.000Z</time>
      </trkpt>
      <trkpt lat="43.55041" lon="2.92961">
        <ele>267</ele>
        <time>2017-04-16T06:29:29.000Z</time>
      </trkpt>
      <trkpt lat="43.55045" lon="2.92955">
        <ele>266</ele>
        <time>2017-04-16T06:29:30.000Z</time>
      </trkpt>
      <trkpt lat="43.55048" lon="2.9295">
        <ele>264.8</ele>
        <time>2017-04-16T06:29:31.000Z</time>
      </trkpt>
      <trkpt lat="43.55057" lon="2.92944">
        <ele>261.8</ele>
        <time>2017-04-16T06:29:34.000Z</time>
      </trkpt>
      <trkpt lat="43.55062" lon="2.92941">
        <ele>260.6</ele>
        <time>2017-04-16T06:29:35.000Z</time>
      </trkpt>
      <trkpt lat="43.55067" lon="2.92938">
        <ele>259.6</ele>
        <time>2017-04-16T06:29:36.000Z</time>
      </trkpt>
      <trkpt lat="43.55073" lon="2.92936">
        <ele>258.6</ele>
        <time>2017-04-16T06:29:37.000Z</time>
      </trkpt>
      <trkpt lat="43.55085" lon="2.92933">
        <ele>256.6</ele>
        <time>2017-04-16T06:29:39.000Z</time>
      </trkpt>
      <trkpt lat="43.55092" lon="2.92934">
        <ele>255.6</ele>
        <time>2017-04-16T06:29:40.000Z</time>
      </trkpt>
      <trkpt lat="43.551" lon="2.92936">
        <ele>254.8</ele>
        <time>2017-04-16T06:29:41.000Z</time>
      </trkpt>
      <trkpt lat="43.55108" lon="2.92938">
        <ele>254</ele>
        <time>2017-04-16T06:29:42.000Z</time>
      </trkpt>
      <trkpt lat="43.55116" lon="2.92939">
        <ele>253.2</ele>
        <time>2017-04-16T06:29:43.000Z</time>
      </trkpt>
      <trkpt lat="43.55123" lon="2.92938">
        <ele>252.6</ele>
        <time>2017-04-16T06:29:44.000Z</time>
      </trkpt>
      <trkpt lat="43.55132" lon="2.92937">
        <ele>252</ele>
        <time>2017-04-16T06:29:45.000Z</time>
      </trkpt>
      <trkpt lat="43.55145" lon="2.9293">
        <ele>250.4</ele>
        <time>2017-04-16T06:29:47.000Z</time>
      </trkpt>
      <trkpt lat="43.55158" lon="2.9293">
        <ele>249</ele>
        <time>2017-04-16T06:29:49.000Z</time>
      </trkpt>
      <trkpt lat="43.55171" lon="2.92926">
        <ele>247.4</ele>
        <time>2017-04-16T06:29:51.000Z</time>
      </trkpt>
      <trkpt lat="43.55177" lon="2.92921">
        <ele>246.8</ele>
        <time>2017-04-16T06:29:52.000Z</time>
      </trkpt>
      <trkpt lat="43.55189" lon="2.92905">
        <ele>245.4</ele>
        <time>2017-04-16T06:29:54.000Z</time>
      </trkpt>
      <trkpt lat="43.55207" lon="2.929">
        <ele>243.8</ele>
        <time>2017-04-16T06:29:56.000Z</time>
      </trkpt>
      <trkpt lat="43.55225" lon="2.929">
        <ele>242.2</ele>
        <time>2017-04-16T06:29:58.000Z</time>
      </trkpt>
      <trkpt lat="43.55232" lon="2.92901">
        <ele>241.2</ele>
        <time>2017-04-16T06:29:59.000Z</time>
      </trkpt>
      <trkpt lat="43.55253" lon="2.92911">
        <ele>237.6</ele>
        <time>2017-04-16T06:30:02.000Z</time>
      </trkpt>
      <trkpt lat="43.55259" lon="2.92915">
        <ele>236.2</ele>
        <time>2017-04-16T06:30:03.000Z</time>
      </trkpt>
      <trkpt lat="43.55272" lon="2.92923">
        <ele>233.2</ele>
        <time>2017-04-16T06:30:05.000Z</time>
      </trkpt>
      <trkpt lat="43.55278" lon="2.92923">
        <ele>231.6</ele>
        <time>2017-04-16T06:30:06.000Z</time>
      </trkpt>
      <trkpt lat="43.55283" lon="2.92921">
        <ele>230</ele>
        <time>2017-04-16T06:30:07.000Z</time>
      </trkpt>
      <trkpt lat="43.55287" lon="2.92921">
        <ele>228.2</ele>
        <time>2017-04-16T06:30:08.000Z</time>
      </trkpt>
      <trkpt lat="43.55294" lon="2.92918">
        <ele>224.8</ele>
        <time>2017-04-16T06:30:10.000Z</time>
      </trkpt>
      <trkpt lat="43.55298" lon="2.92915">
        <ele>223.2</ele>
        <time>2017-04-16T06:30:11.000Z</time>
      </trkpt>
      <trkpt lat="43.55307" lon="2.92912">
        <ele>220</ele>
        <time>2017-04-16T06:30:13.000Z</time>
      </trkpt>
      <trkpt lat="43.55315" lon="2.92917">
        <ele>216.6</ele>
        <time>2017-04-16T06:30:15.000Z</time>
      </trkpt>
      <trkpt lat="43.55321" lon="2.92924">
        <ele>213.2</ele>
        <time>2017-04-16T06:30:17.000Z</time>
      </trkpt>
      <trkpt lat="43.55329" lon="2.92915">
        <ele>209.6</ele>
        <time>2017-04-16T06:30:19.000Z</time>
      </trkpt>
      <trkpt lat="43.55333" lon="2.92908">
        <ele>208</ele>
        <time>2017-04-16T06:30:20.000Z</time>
      </trkpt>
      <trkpt lat="43.55337" lon="2.92905">
        <ele>206.4</ele>
        <time>2017-04-16T06:30:21.000Z</time>
      </trkpt>
      <trkpt lat="43.55341" lon="2.92912">
        <ele>203.2</ele>
        <time>2017-04-16T06:30:23.000Z</time>
      </trkpt>
      <trkpt lat="43.55344" lon="2.92933">
        <ele>200.4</ele>
        <time>2017-04-16T06:30:25.000Z</time>
      </trkpt>
      <trkpt lat="43.55349" lon="2.92937">
        <ele>197.4</ele>
        <time>2017-04-16T06:30:27.000Z</time>
      </trkpt>
      <trkpt lat="43.55353" lon="2.92933">
        <ele>196</ele>
        <time>2017-04-16T06:30:28.000Z</time>
      </trkpt>
      <trkpt lat="43.55375" lon="2.92916">
        <ele>192</ele>
        <time>2017-04-16T06:30:31.000Z</time>
      </trkpt>
      <trkpt lat="43.55389" lon="2.92908">
        <ele>190.6</ele>
        <time>2017-04-16T06:30:32.000Z</time>
      </trkpt>
      <trkpt lat="43.55402" lon="2.92895">
        <ele>187.8</ele>
        <time>2017-04-16T06:30:34.000Z</time>
      </trkpt>
      <trkpt lat="43.55408" lon="2.92888">
        <ele>186.4</ele>
        <time>2017-04-16T06:30:35.000Z</time>
      </trkpt>
      <trkpt lat="43.5541" lon="2.9288">
        <ele>185</ele>
        <time>2017-04-16T06:30:36.000Z</time>
      </trkpt>
      <trkpt lat="43.55415" lon="2.92866">
        <ele>182.4</ele>
        <time>2017-04-16T06:30:38.000Z</time>
      </trkpt>
      <trkpt lat="43.55416" lon="2.9286">
        <ele>181.2</ele>
        <time>2017-04-16T06:30:39.000Z</time>
      </trkpt>
      <trkpt lat="43.55418" lon="2.92854">
        <ele>180</ele>
        <time>2017-04-16T06:30:40.000Z</time>
      </trkpt>
      <trkpt lat="43.55422" lon="2.9285">
        <ele>178.8</ele>
        <time>2017-04-16T06:30:41.000Z</time>
      </trkpt>
      <trkpt lat="43.55426" lon="2.92847">
        <ele>177.6</ele>
        <time>2017-04-16T06:30:42.000Z</time>
      </trkpt>
      <trkpt lat="43.5543" lon="2.92842">
        <ele>176.4</ele>
        <time>2017-04-16T06:30:43.000Z</time>
      </trkpt>
      <trkpt lat="43.55432" lon="2.92835">
        <ele>175</ele>
        <time>2017-04-16T06:30:44.000Z</time>
      </trkpt>
      <trkpt lat="43.55429" lon="2.92819">
        <ele>172.8</ele>
        <time>2017-04-16T06:30:46.000Z</time>
      </trkpt>
      <trkpt lat="43.55425" lon="2.92808">
        <ele>171.6</ele>
        <time>2017-04-16T06:30:47.000Z</time>
      </trkpt>
      <trkpt lat="43.55422" lon="2.92797">
        <ele>170.4</ele>
        <time>2017-04-16T06:30:49.000Z</time>
      </trkpt>
      <trkpt lat="43.55417" lon="2.92785">
        <ele>168.4</ele>
        <time>2017-04-16T06:30:50.000Z</time>
      </trkpt>
      <trkpt lat="43.55412" lon="2.92776">
        <ele>166.4</ele>
        <time>2017-04-16T06:30:52.000Z</time>
      </trkpt>
      <trkpt lat="43.55407" lon="2.92772">
        <ele>164.8</ele>
        <time>2017-04-16T06:30:54.000Z</time>
      </trkpt>
      <trkpt lat="43.55407" lon="2.92772">
        <ele>163.8</ele>
        <time>2017-04-16T06:30:55.000Z</time>
      </trkpt>
      <trkpt lat="43.55412" lon="2.92776">
        <ele>154.2</ele>
        <time>2017-04-16T06:32:01.000Z</time>
      </trkpt>
      <trkpt lat="43.55412" lon="2.92777">
        <ele>154.2</ele>
        <time>2017-04-16T06:32:02.000Z</time>
      </trkpt>
      <trkpt lat="43.55412" lon="2.92778">
        <ele>154.2</ele>
        <time>2017-04-16T06:32:03.000Z</time>
      </trkpt>
      <trkpt lat="43.55412" lon="2.92779">
        <ele>154.2</ele>
        <time>2017-04-16T06:32:06.000Z</time>
      </trkpt>
      <trkpt lat="43.55413" lon="2.9278">
        <ele>154.2</ele>
        <time>2017-04-16T06:32:07.000Z</time>
      </trkpt>
      <trkpt lat="43.55414" lon="2.92781">
        <ele>154.2</ele>
        <time>2017-04-16T06:32:09.000Z</time>
      </trkpt>
      <trkpt lat="43.55416" lon="2.92782">
        <ele>154.2</ele>
        <time>2017-04-16T06:32:11.000Z</time>
      </trkpt>
      <trkpt lat="43.55418" lon="2.92784">
        <ele>154.2</ele>
        <time>2017-04-16T06:32:13.000Z</time>
      </trkpt>
      <trkpt lat="43.55429" lon="2.92789">
        <ele>154.2</ele>
        <time>2017-04-16T06:32:18.000Z</time>
      </trkpt>
      <trkpt lat="43.55433" lon="2.9279">
        <ele>154.2</ele>
        <time>2017-04-16T06:32:19.000Z</time>
      </trkpt>
      <trkpt lat="43.55448" lon="2.92803">
        <ele>154.2</ele>
        <time>2017-04-16T06:32:24.000Z</time>
      </trkpt>
      <trkpt lat="43.55463" lon="2.92818">
        <ele>154.2</ele>
        <time>2017-04-16T06:32:29.000Z</time>
      </trkpt>
      <trkpt lat="43.55471" lon="2.9283">
        <ele>154.2</ele>
        <time>2017-04-16T06:32:32.000Z</time>
      </trkpt>
      <trkpt lat="43.55476" lon="2.92863">
        <ele>154.2</ele>
        <time>2017-04-16T06:32:38.000Z</time>
      </trkpt>
      <trkpt lat="43.55477" lon="2.92869">
        <ele>154.2</ele>
        <time>2017-04-16T06:32:39.000Z</time>
      </trkpt>
      <trkpt lat="43.55479" lon="2.9288">
        <ele>154.2</ele>
        <time>2017-04-16T06:32:41.000Z</time>
      </trkpt>
      <trkpt lat="43.55474" lon="2.92909">
        <ele>154.2</ele>
        <time>2017-04-16T06:32:46.000Z</time>
      </trkpt>
      <trkpt lat="43.55475" lon="2.92919">
        <ele>154.2</ele>
        <time>2017-04-16T06:32:49.000Z</time>
      </trkpt>
      <trkpt lat="43.55484" lon="2.92911">
        <ele>154</ele>
        <time>2017-04-16T06:32:52.000Z</time>
      </trkpt>
      <trkpt lat="43.55491" lon="2.92898">
        <ele>153.6</ele>
        <time>2017-04-16T06:32:53.000Z</time>
      </trkpt>
      <trkpt lat="43.55495" lon="2.92883">
        <ele>153.2</ele>
        <time>2017-04-16T06:32:55.000Z</time>
      </trkpt>
      <trkpt lat="43.55498" lon="2.92859">
        <ele>152.8</ele>
        <time>2017-04-16T06:32:58.000Z</time>
      </trkpt>
      <trkpt lat="43.55498" lon="2.9285">
        <ele>152.6</ele>
        <time>2017-04-16T06:32:59.000Z</time>
      </trkpt>
      <trkpt lat="43.55498" lon="2.92841">
        <ele>152.4</ele>
        <time>2017-04-16T06:33:00.000Z</time>
      </trkpt>
      <trkpt lat="43.55495" lon="2.92824">
        <ele>151.8</ele>
        <time>2017-04-16T06:33:02.000Z</time>
      </trkpt>
      <trkpt lat="43.55491" lon="2.92808">
        <ele>151.4</ele>
        <time>2017-04-16T06:33:04.000Z</time>
      </trkpt>
      <trkpt lat="43.55489" lon="2.928">
        <ele>151</ele>
        <time>2017-04-16T06:33:05.000Z</time>
      </trkpt>
      <trkpt lat="43.55487" lon="2.92793">
        <ele>150.6</ele>
        <time>2017-04-16T06:33:06.000Z</time>
      </trkpt>
      <trkpt lat="43.5548" lon="2.92777">
        <ele>149.8</ele>
        <time>2017-04-16T06:33:08.000Z</time>
      </trkpt>
      <trkpt lat="43.55473" lon="2.92765">
        <ele>148.8</ele>
        <time>2017-04-16T06:33:10.000Z</time>
      </trkpt>
      <trkpt lat="43.55464" lon="2.92753">
        <ele>148.2</ele>
        <time>2017-04-16T06:33:12.000Z</time>
      </trkpt>
      <trkpt lat="43.55455" lon="2.92741">
        <ele>147.4</ele>
        <time>2017-04-16T06:33:14.000Z</time>
      </trkpt>
      <trkpt lat="43.55446" lon="2.92728">
        <ele>146.4</ele>
        <time>2017-04-16T06:33:16.000Z</time>
      </trkpt>
      <trkpt lat="43.55436" lon="2.92717">
        <ele>145.6</ele>
        <time>2017-04-16T06:33:18.000Z</time>
      </trkpt>
      <trkpt lat="43.55431" lon="2.92711">
        <ele>145</ele>
        <time>2017-04-16T06:33:19.000Z</time>
      </trkpt>
      <trkpt lat="43.55418" lon="2.92691">
        <ele>143.8</ele>
        <time>2017-04-16T06:33:22.000Z</time>
      </trkpt>
      <trkpt lat="43.55413" lon="2.92685">
        <ele>143.4</ele>
        <time>2017-04-16T06:33:23.000Z</time>
      </trkpt>
      <trkpt lat="43.55403" lon="2.92673">
        <ele>142.4</ele>
        <time>2017-04-16T06:33:25.000Z</time>
      </trkpt>
      <trkpt lat="43.55399" lon="2.92667">
        <ele>142</ele>
        <time>2017-04-16T06:33:26.000Z</time>
      </trkpt>
      <trkpt lat="43.55387" lon="2.92644">
        <ele>141</ele>
        <time>2017-04-16T06:33:29.000Z</time>
      </trkpt>
      <trkpt lat="43.55382" lon="2.92638">
        <ele>140.6</ele>
        <time>2017-04-16T06:33:30.000Z</time>
      </trkpt>
      <trkpt lat="43.55377" lon="2.92631">
        <ele>140.2</ele>
        <time>2017-04-16T06:33:31.000Z</time>
      </trkpt>
      <trkpt lat="43.55374" lon="2.92624">
        <ele>139.6</ele>
        <time>2017-04-16T06:33:32.000Z</time>
      </trkpt>
      <trkpt lat="43.55374" lon="2.92619">
        <ele>139.2</ele>
        <time>2017-04-16T06:33:33.000Z</time>
      </trkpt>
      <trkpt lat="43.55377" lon="2.92618">
        <ele>138.6</ele>
        <time>2017-04-16T06:33:34.000Z</time>
      </trkpt>
      <trkpt lat="43.55388" lon="2.92623">
        <ele>138.2</ele>
        <time>2017-04-16T06:33:35.000Z</time>
      </trkpt>
      <trkpt lat="43.55405" lon="2.92632">
        <ele>136.8</ele>
        <time>2017-04-16T06:33:38.000Z</time>
      </trkpt>
      <trkpt lat="43.55411" lon="2.92638">
        <ele>136.2</ele>
        <time>2017-04-16T06:33:39.000Z</time>
      </trkpt>
      <trkpt lat="43.55423" lon="2.92649">
        <ele>135.2</ele>
        <time>2017-04-16T06:33:41.000Z</time>
      </trkpt>
      <trkpt lat="43.55429" lon="2.92656">
        <ele>134.6</ele>
        <time>2017-04-16T06:33:42.000Z</time>
      </trkpt>
      <trkpt lat="43.5544" lon="2.92669">
        <ele>133.2</ele>
        <time>2017-04-16T06:33:44.000Z</time>
      </trkpt>
      <trkpt lat="43.55449" lon="2.92671">
        <ele>132.4</ele>
        <time>2017-04-16T06:33:45.000Z</time>
      </trkpt>
      <trkpt lat="43.55459" lon="2.92673">
        <ele>131.6</ele>
        <time>2017-04-16T06:33:46.000Z</time>
      </trkpt>
      <trkpt lat="43.55469" lon="2.92674">
        <ele>130.8</ele>
        <time>2017-04-16T06:33:47.000Z</time>
      </trkpt>
      <trkpt lat="43.55502" lon="2.92676">
        <ele>128</ele>
        <time>2017-04-16T06:33:50.000Z</time>
      </trkpt>
      <trkpt lat="43.55513" lon="2.92679">
        <ele>127.2</ele>
        <time>2017-04-16T06:33:51.000Z</time>
      </trkpt>
      <trkpt lat="43.55545" lon="2.9269">
        <ele>124</ele>
        <time>2017-04-16T06:33:54.000Z</time>
      </trkpt>
      <trkpt lat="43.55555" lon="2.92694">
        <ele>123</ele>
        <time>2017-04-16T06:33:55.000Z</time>
      </trkpt>
      <trkpt lat="43.55576" lon="2.92703">
        <ele>121.2</ele>
        <time>2017-04-16T06:33:57.000Z</time>
      </trkpt>
      <trkpt lat="43.55598" lon="2.92701">
        <ele>119.2</ele>
        <time>2017-04-16T06:33:59.000Z</time>
      </trkpt>
      <trkpt lat="43.5561" lon="2.92697">
        <ele>118.2</ele>
        <time>2017-04-16T06:34:00.000Z</time>
      </trkpt>
      <trkpt lat="43.5563" lon="2.92686">
        <ele>116.4</ele>
        <time>2017-04-16T06:34:02.000Z</time>
      </trkpt>
      <trkpt lat="43.5564" lon="2.9268">
        <ele>115.2</ele>
        <time>2017-04-16T06:34:03.000Z</time>
      </trkpt>
      <trkpt lat="43.55653" lon="2.9267">
        <ele>113.4</ele>
        <time>2017-04-16T06:34:05.000Z</time>
      </trkpt>
      <trkpt lat="43.55654" lon="2.92666">
        <ele>112.8</ele>
        <time>2017-04-16T06:34:06.000Z</time>
      </trkpt>
      <trkpt lat="43.55653" lon="2.92655">
        <ele>110.8</ele>
        <time>2017-04-16T06:34:09.000Z</time>
      </trkpt>
      <trkpt lat="43.55651" lon="2.92649">
        <ele>110</ele>
        <time>2017-04-16T06:34:11.000Z</time>
      </trkpt>
      <trkpt lat="43.55649" lon="2.92643">
        <ele>109.2</ele>
        <time>2017-04-16T06:34:13.000Z</time>
      </trkpt>
      <trkpt lat="43.55649" lon="2.92639">
        <ele>108.6</ele>
        <time>2017-04-16T06:34:15.000Z</time>
      </trkpt>
      <trkpt lat="43.55643" lon="2.92625">
        <ele>107.2</ele>
        <time>2017-04-16T06:34:21.000Z</time>
      </trkpt>
      <trkpt lat="43.5564" lon="2.9261">
        <ele>106.6</ele>
        <time>2017-04-16T06:34:26.000Z</time>
      </trkpt>
      <trkpt lat="43.55639" lon="2.92603">
        <ele>106.6</ele>
        <time>2017-04-16T06:34:28.000Z</time>
      </trkpt>
      <trkpt lat="43.55637" lon="2.92597">
        <ele>106.4</ele>
        <time>2017-04-16T06:34:30.000Z</time>
      </trkpt>
      <trkpt lat="43.55636" lon="2.92594">
        <ele>106.4</ele>
        <time>2017-04-16T06:34:31.000Z</time>
      </trkpt>
      <trkpt lat="43.55631" lon="2.92576">
        <ele>106.2</ele>
        <time>2017-04-16T06:34:36.000Z</time>
      </trkpt>
      <trkpt lat="43.5563" lon="2.92567">
        <ele>106</ele>
        <time>2017-04-16T06:34:40.000Z</time>
      </trkpt>
      <trkpt lat="43.55632" lon="2.92546">
        <ele>106</ele>
        <time>2017-04-16T06:34:46.000Z</time>
      </trkpt>
      <trkpt lat="43.55631" lon="2.92534">
        <ele>105.8</ele>
        <time>2017-04-16T06:34:48.000Z</time>
      </trkpt>
      <trkpt lat="43.55629" lon="2.92524">
        <ele>105.4</ele>
        <time>2017-04-16T06:34:50.000Z</time>
      </trkpt>
      <trkpt lat="43.55626" lon="2.92515">
        <ele>105</ele>
        <time>2017-04-16T06:34:52.000Z</time>
      </trkpt>
      <trkpt lat="43.55622" lon="2.92505">
        <ele>104.8</ele>
        <time>2017-04-16T06:34:54.000Z</time>
      </trkpt>
      <trkpt lat="43.55618" lon="2.92495">
        <ele>104.6</ele>
        <time>2017-04-16T06:34:56.000Z</time>
      </trkpt>
      <trkpt lat="43.55612" lon="2.92478">
        <ele>104.4</ele>
        <time>2017-04-16T06:35:00.000Z</time>
      </trkpt>
      <trkpt lat="43.5561" lon="2.92468">
        <ele>104.4</ele>
        <time>2017-04-16T06:35:02.000Z</time>
      </trkpt>
      <trkpt lat="43.55607" lon="2.92465">
        <ele>104.6</ele>
        <time>2017-04-16T06:35:04.000Z</time>
      </trkpt>
      <trkpt lat="43.55605" lon="2.92461">
        <ele>104.6</ele>
        <time>2017-04-16T06:35:05.000Z</time>
      </trkpt>
      <trkpt lat="43.55602" lon="2.92456">
        <ele>105</ele>
        <time>2017-04-16T06:35:06.000Z</time>
      </trkpt>
      <trkpt lat="43.556" lon="2.92449">
        <ele>105</ele>
        <time>2017-04-16T06:35:09.000Z</time>
      </trkpt>
      <trkpt lat="43.55599" lon="2.92444">
        <ele>105.2</ele>
        <time>2017-04-16T06:35:10.000Z</time>
      </trkpt>
      <trkpt lat="43.55598" lon="2.92439">
        <ele>105.4</ele>
        <time>2017-04-16T06:35:12.000Z</time>
      </trkpt>
      <trkpt lat="43.5559" lon="2.92427">
        <ele>105.6</ele>
        <time>2017-04-16T06:35:19.000Z</time>
      </trkpt>
      <trkpt lat="43.55589" lon="2.92424">
        <ele>105.8</ele>
        <time>2017-04-16T06:35:20.000Z</time>
      </trkpt>
      <trkpt lat="43.55587" lon="2.92416">
        <ele>106.2</ele>
        <time>2017-04-16T06:35:22.000Z</time>
      </trkpt>
      <trkpt lat="43.55586" lon="2.92408">
        <ele>106.6</ele>
        <time>2017-04-16T06:35:24.000Z</time>
      </trkpt>
      <trkpt lat="43.55585" lon="2.92401">
        <ele>106.8</ele>
        <time>2017-04-16T06:35:26.000Z</time>
      </trkpt>
      <trkpt lat="43.55582" lon="2.92394">
        <ele>107</ele>
        <time>2017-04-16T06:35:28.000Z</time>
      </trkpt>
      <trkpt lat="43.55579" lon="2.92374">
        <ele>107.4</ele>
        <time>2017-04-16T06:35:34.000Z</time>
      </trkpt>
      <trkpt lat="43.55571" lon="2.92354">
        <ele>107.6</ele>
        <time>2017-04-16T06:35:39.000Z</time>
      </trkpt>
      <trkpt lat="43.55567" lon="2.92344">
        <ele>107.8</ele>
        <time>2017-04-16T06:35:43.000Z</time>
      </trkpt>
      <trkpt lat="43.55566" lon="2.92337">
        <ele>107.8</ele>
        <time>2017-04-16T06:35:45.000Z</time>
      </trkpt>
      <trkpt lat="43.5556" lon="2.92326">
        <ele>107.8</ele>
        <time>2017-04-16T06:35:48.000Z</time>
      </trkpt>
      <trkpt lat="43.55559" lon="2.92319">
        <ele>108</ele>
        <time>2017-04-16T06:35:50.000Z</time>
      </trkpt>
      <trkpt lat="43.55559" lon="2.92312">
        <ele>108.4</ele>
        <time>2017-04-16T06:35:52.000Z</time>
      </trkpt>
      <trkpt lat="43.55559" lon="2.92308">
        <ele>108.6</ele>
        <time>2017-04-16T06:35:53.000Z</time>
      </trkpt>
      <trkpt lat="43.55563" lon="2.9229">
        <ele>109</ele>
        <time>2017-04-16T06:35:56.000Z</time>
      </trkpt>
      <trkpt lat="43.55565" lon="2.92281">
        <ele>109.2</ele>
        <time>2017-04-16T06:35:57.000Z</time>
      </trkpt>
      <trkpt lat="43.55567" lon="2.92272">
        <ele>109.2</ele>
        <time>2017-04-16T06:35:58.000Z</time>
      </trkpt>
      <trkpt lat="43.5557" lon="2.92253">
        <ele>109.2</ele>
        <time>2017-04-16T06:36:00.000Z</time>
      </trkpt>
      <trkpt lat="43.55571" lon="2.92245">
        <ele>109.2</ele>
        <time>2017-04-16T06:36:01.000Z</time>
      </trkpt>
      <trkpt lat="43.55572" lon="2.92236">
        <ele>109</ele>
        <time>2017-04-16T06:36:02.000Z</time>
      </trkpt>
      <trkpt lat="43.5557" lon="2.92217">
        <ele>108.8</ele>
        <time>2017-04-16T06:36:04.000Z</time>
      </trkpt>
      <trkpt lat="43.55568" lon="2.92208">
        <ele>108.8</ele>
        <time>2017-04-16T06:36:05.000Z</time>
      </trkpt>
      <trkpt lat="43.55566" lon="2.92199">
        <ele>108.8</ele>
        <time>2017-04-16T06:36:06.000Z</time>
      </trkpt>
      <trkpt lat="43.55562" lon="2.92183">
        <ele>108.6</ele>
        <time>2017-04-16T06:36:08.000Z</time>
      </trkpt>
      <trkpt lat="43.55563" lon="2.92169">
        <ele>108.4</ele>
        <time>2017-04-16T06:36:11.000Z</time>
      </trkpt>
      <trkpt lat="43.5557" lon="2.92141">
        <ele>108.4</ele>
        <time>2017-04-16T06:36:18.000Z</time>
      </trkpt>
      <trkpt lat="43.55572" lon="2.92135">
        <ele>108.8</ele>
        <time>2017-04-16T06:36:20.000Z</time>
      </trkpt>
      <trkpt lat="43.55573" lon="2.92132">
        <ele>109</ele>
        <time>2017-04-16T06:36:21.000Z</time>
      </trkpt>
      <trkpt lat="43.55575" lon="2.92121">
        <ele>109.2</ele>
        <time>2017-04-16T06:36:24.000Z</time>
      </trkpt>
      <trkpt lat="43.55577" lon="2.92116">
        <ele>109.4</ele>
        <time>2017-04-16T06:36:25.000Z</time>
      </trkpt>
      <trkpt lat="43.55591" lon="2.92089">
        <ele>109.6</ele>
        <time>2017-04-16T06:36:30.000Z</time>
      </trkpt>
      <trkpt lat="43.55605" lon="2.92064">
        <ele>109.8</ele>
        <time>2017-04-16T06:36:36.000Z</time>
      </trkpt>
      <trkpt lat="43.55623" lon="2.9205">
        <ele>110</ele>
        <time>2017-04-16T06:36:41.000Z</time>
      </trkpt>
      <trkpt lat="43.55638" lon="2.92037">
        <ele>110</ele>
        <time>2017-04-16T06:36:44.000Z</time>
      </trkpt>
      <trkpt lat="43.55655" lon="2.92002">
        <ele>110</ele>
        <time>2017-04-16T06:36:50.000Z</time>
      </trkpt>
      <trkpt lat="43.55668" lon="2.91983">
        <ele>110.2</ele>
        <time>2017-04-16T06:36:54.000Z</time>
      </trkpt>
      <trkpt lat="43.55676" lon="2.91972">
        <ele>110.2</ele>
        <time>2017-04-16T06:36:56.000Z</time>
      </trkpt>
      <trkpt lat="43.55697" lon="2.91955">
        <ele>110.2</ele>
        <time>2017-04-16T06:37:01.000Z</time>
      </trkpt>
      <trkpt lat="43.55703" lon="2.91948">
        <ele>110</ele>
        <time>2017-04-16T06:37:03.000Z</time>
      </trkpt>
      <trkpt lat="43.55706" lon="2.91939">
        <ele>109.6</ele>
        <time>2017-04-16T06:37:05.000Z</time>
      </trkpt>
      <trkpt lat="43.55707" lon="2.9193">
        <ele>109.4</ele>
        <time>2017-04-16T06:37:07.000Z</time>
      </trkpt>
      <trkpt lat="43.55707" lon="2.91924">
        <ele>109</ele>
        <time>2017-04-16T06:37:09.000Z</time>
      </trkpt>
      <trkpt lat="43.55708" lon="2.91917">
        <ele>108.8</ele>
        <time>2017-04-16T06:37:11.000Z</time>
      </trkpt>
      <trkpt lat="43.55708" lon="2.91911">
        <ele>108.8</ele>
        <time>2017-04-16T06:37:13.000Z</time>
      </trkpt>
      <trkpt lat="43.55705" lon="2.91905">
        <ele>108.6</ele>
        <time>2017-04-16T06:37:16.000Z</time>
      </trkpt>
      <trkpt lat="43.557" lon="2.91912">
        <ele>108.4</ele>
        <time>2017-04-16T06:37:20.000Z</time>
      </trkpt>
      <trkpt lat="43.55703" lon="2.91909">
        <ele>108.4</ele>
        <time>2017-04-16T06:37:22.000Z</time>
      </trkpt>
      <trkpt lat="43.55708" lon="2.919">
        <ele>108.4</ele>
        <time>2017-04-16T06:37:24.000Z</time>
      </trkpt>
      <trkpt lat="43.55711" lon="2.91896">
        <ele>108.2</ele>
        <time>2017-04-16T06:37:25.000Z</time>
      </trkpt>
      <trkpt lat="43.55721" lon="2.91872">
        <ele>108.2</ele>
        <time>2017-04-16T06:37:29.000Z</time>
      </trkpt>
      <trkpt lat="43.55726" lon="2.91843">
        <ele>108.2</ele>
        <time>2017-04-16T06:37:34.000Z</time>
      </trkpt>
      <trkpt lat="43.55724" lon="2.91839">
        <ele>108.4</ele>
        <time>2017-04-16T06:37:35.000Z</time>
      </trkpt>
      <trkpt lat="43.55722" lon="2.91837">
        <ele>108.6</ele>
        <time>2017-04-16T06:37:36.000Z</time>
      </trkpt>
      <trkpt lat="43.55719" lon="2.91835">
        <ele>108.8</ele>
        <time>2017-04-16T06:37:37.000Z</time>
      </trkpt>
      <trkpt lat="43.55715" lon="2.91831">
        <ele>109</ele>
        <time>2017-04-16T06:37:39.000Z</time>
      </trkpt>
      <trkpt lat="43.55711" lon="2.91826">
        <ele>109.4</ele>
        <time>2017-04-16T06:37:41.000Z</time>
      </trkpt>
      <trkpt lat="43.55709" lon="2.91824">
        <ele>109.6</ele>
        <time>2017-04-16T06:37:42.000Z</time>
      </trkpt>
      <trkpt lat="43.55708" lon="2.91821">
        <ele>110</ele>
        <time>2017-04-16T06:37:43.000Z</time>
      </trkpt>
      <trkpt lat="43.55707" lon="2.91819">
        <ele>110.2</ele>
        <time>2017-04-16T06:37:44.000Z</time>
      </trkpt>
      <trkpt lat="43.55705" lon="2.91814">
        <ele>110.6</ele>
        <time>2017-04-16T06:37:46.000Z</time>
      </trkpt>
      <trkpt lat="43.55702" lon="2.91808">
        <ele>111</ele>
        <time>2017-04-16T06:37:48.000Z</time>
      </trkpt>
      <trkpt lat="43.55699" lon="2.91801">
        <ele>111.4</ele>
        <time>2017-04-16T06:37:50.000Z</time>
      </trkpt>
      <trkpt lat="43.55699" lon="2.91798">
        <ele>111.4</ele>
        <time>2017-04-16T06:37:51.000Z</time>
      </trkpt>
      <trkpt lat="43.55696" lon="2.91783">
        <ele>112</ele>
        <time>2017-04-16T06:37:56.000Z</time>
      </trkpt>
      <trkpt lat="43.55696" lon="2.91764">
        <ele>112.4</ele>
        <time>2017-04-16T06:38:01.000Z</time>
      </trkpt>
      <trkpt lat="43.55695" lon="2.91762">
        <ele>112.6</ele>
        <time>2017-04-16T06:38:02.000Z</time>
      </trkpt>
      <trkpt lat="43.5569" lon="2.91756">
        <ele>113.2</ele>
        <time>2017-04-16T06:38:05.000Z</time>
      </trkpt>
      <trkpt lat="43.55686" lon="2.91751">
        <ele>113.8</ele>
        <time>2017-04-16T06:38:07.000Z</time>
      </trkpt>
      <trkpt lat="43.55683" lon="2.91746">
        <ele>114.4</ele>
        <time>2017-04-16T06:38:09.000Z</time>
      </trkpt>
      <trkpt lat="43.55683" lon="2.91741">
        <ele>115</ele>
        <time>2017-04-16T06:38:11.000Z</time>
      </trkpt>
      <trkpt lat="43.55683" lon="2.91738">
        <ele>115.4</ele>
        <time>2017-04-16T06:38:12.000Z</time>
      </trkpt>
      <trkpt lat="43.55684" lon="2.91735">
        <ele>115.8</ele>
        <time>2017-04-16T06:38:13.000Z</time>
      </trkpt>
      <trkpt lat="43.55686" lon="2.91728">
        <ele>116.4</ele>
        <time>2017-04-16T06:38:15.000Z</time>
      </trkpt>
      <trkpt lat="43.55687" lon="2.91723">
        <ele>117.2</ele>
        <time>2017-04-16T06:38:17.000Z</time>
      </trkpt>
      <trkpt lat="43.55688" lon="2.9172">
        <ele>117.6</ele>
        <time>2017-04-16T06:38:18.000Z</time>
      </trkpt>
      <trkpt lat="43.55689" lon="2.91713">
        <ele>118.6</ele>
        <time>2017-04-16T06:38:21.000Z</time>
      </trkpt>
      <trkpt lat="43.5569" lon="2.9171">
        <ele>119</ele>
        <time>2017-04-16T06:38:22.000Z</time>
      </trkpt>
      <trkpt lat="43.55693" lon="2.91704">
        <ele>119.6</ele>
        <time>2017-04-16T06:38:25.000Z</time>
      </trkpt>
      <trkpt lat="43.55693" lon="2.91696">
        <ele>120.2</ele>
        <time>2017-04-16T06:38:29.000Z</time>
      </trkpt>
      <trkpt lat="43.5569" lon="2.91694">
        <ele>120.6</ele>
        <time>2017-04-16T06:38:31.000Z</time>
      </trkpt>
      <trkpt lat="43.55685" lon="2.91694">
        <ele>121.2</ele>
        <time>2017-04-16T06:38:33.000Z</time>
      </trkpt>
      <trkpt lat="43.55683" lon="2.91694">
        <ele>121.4</ele>
        <time>2017-04-16T06:38:34.000Z</time>
      </trkpt>
      <trkpt lat="43.55682" lon="2.91694">
        <ele>121.6</ele>
        <time>2017-04-16T06:38:35.000Z</time>
      </trkpt>
      <trkpt lat="43.5568" lon="2.91693">
        <ele>122</ele>
        <time>2017-04-16T06:38:37.000Z</time>
      </trkpt>
      <trkpt lat="43.55678" lon="2.91691">
        <ele>122.2</ele>
        <time>2017-04-16T06:38:39.000Z</time>
      </trkpt>
      <trkpt lat="43.55677" lon="2.9169">
        <ele>122.4</ele>
        <time>2017-04-16T06:38:40.000Z</time>
      </trkpt>
      <trkpt lat="43.55678" lon="2.91688">
        <ele>122.6</ele>
        <time>2017-04-16T06:38:42.000Z</time>
      </trkpt>
      <trkpt lat="43.55679" lon="2.91686">
        <ele>123</ele>
        <time>2017-04-16T06:38:44.000Z</time>
      </trkpt>
      <trkpt lat="43.5568" lon="2.91684">
        <ele>123.4</ele>
        <time>2017-04-16T06:38:46.000Z</time>
      </trkpt>
      <trkpt lat="43.5568" lon="2.91683">
        <ele>123.8</ele>
        <time>2017-04-16T06:38:48.000Z</time>
      </trkpt>
      <trkpt lat="43.5568" lon="2.91682">
        <ele>124</ele>
        <time>2017-04-16T06:38:49.000Z</time>
      </trkpt>
      <trkpt lat="43.55682" lon="2.9168">
        <ele>124.6</ele>
        <time>2017-04-16T06:38:51.000Z</time>
      </trkpt>
      <trkpt lat="43.55683" lon="2.91678">
        <ele>124.8</ele>
        <time>2017-04-16T06:38:52.000Z</time>
      </trkpt>
      <trkpt lat="43.55682" lon="2.91677">
        <ele>125.2</ele>
        <time>2017-04-16T06:38:53.000Z</time>
      </trkpt>
      <trkpt lat="43.55679" lon="2.91672">
        <ele>125.8</ele>
        <time>2017-04-16T06:38:55.000Z</time>
      </trkpt>
      <trkpt lat="43.55674" lon="2.91665">
        <ele>126.6</ele>
        <time>2017-04-16T06:38:57.000Z</time>
      </trkpt>
      <trkpt lat="43.5567" lon="2.91659">
        <ele>127.2</ele>
        <time>2017-04-16T06:38:59.000Z</time>
      </trkpt>
      <trkpt lat="43.55668" lon="2.91657">
        <ele>127.8</ele>
        <time>2017-04-16T06:39:00.000Z</time>
      </trkpt>
      <trkpt lat="43.55665" lon="2.91654">
        <ele>128.6</ele>
        <time>2017-04-16T06:39:02.000Z</time>
      </trkpt>
      <trkpt lat="43.55664" lon="2.91653">
        <ele>128.8</ele>
        <time>2017-04-16T06:39:03.000Z</time>
      </trkpt>
      <trkpt lat="43.55663" lon="2.91651">
        <ele>129.2</ele>
        <time>2017-04-16T06:39:04.000Z</time>
      </trkpt>
      <trkpt lat="43.55663" lon="2.91646">
        <ele>129.8</ele>
        <time>2017-04-16T06:39:06.000Z</time>
      </trkpt>
      <trkpt lat="43.55663" lon="2.91641">
        <ele>130.2</ele>
        <time>2017-04-16T06:39:08.000Z</time>
      </trkpt>
      <trkpt lat="43.55662" lon="2.91628">
        <ele>130.6</ele>
        <time>2017-04-16T06:39:12.000Z</time>
      </trkpt>
      <trkpt lat="43.55662" lon="2.91622">
        <ele>130.4</ele>
        <time>2017-04-16T06:39:14.000Z</time>
      </trkpt>
      <trkpt lat="43.55661" lon="2.91617">
        <ele>130.2</ele>
        <time>2017-04-16T06:39:16.000Z</time>
      </trkpt>
      <trkpt lat="43.55659" lon="2.9161">
        <ele>130.2</ele>
        <time>2017-04-16T06:39:18.000Z</time>
      </trkpt>
      <trkpt lat="43.55657" lon="2.91604">
        <ele>130</ele>
        <time>2017-04-16T06:39:20.000Z</time>
      </trkpt>
      <trkpt lat="43.55654" lon="2.91596">
        <ele>129.8</ele>
        <time>2017-04-16T06:39:25.000Z</time>
      </trkpt>
      <trkpt lat="43.55654" lon="2.91596">
        <ele>129.4</ele>
        <time>2017-04-16T06:39:26.000Z</time>
      </trkpt>
      <trkpt lat="43.55651" lon="2.91597">
        <ele>128.6</ele>
        <time>2017-04-16T06:39:32.000Z</time>
      </trkpt>
      <trkpt lat="43.55652" lon="2.91595">
        <ele>128.4</ele>
        <time>2017-04-16T06:39:34.000Z</time>
      </trkpt>
      <trkpt lat="43.55652" lon="2.91595">
        <ele>128</ele>
        <time>2017-04-16T06:39:39.000Z</time>
      </trkpt>
      <trkpt lat="43.5565" lon="2.91594">
        <ele>128</ele>
        <time>2017-04-16T06:39:41.000Z</time>
      </trkpt>
      <trkpt lat="43.55648" lon="2.91593">
        <ele>128</ele>
        <time>2017-04-16T06:39:43.000Z</time>
      </trkpt>
      <trkpt lat="43.55645" lon="2.91594">
        <ele>127.8</ele>
        <time>2017-04-16T06:39:46.000Z</time>
      </trkpt>
      <trkpt lat="43.55639" lon="2.91592">
        <ele>129.4</ele>
        <time>2017-04-16T06:40:38.000Z</time>
      </trkpt>
      <trkpt lat="43.55639" lon="2.91592">
        <ele>129.4</ele>
        <time>2017-04-16T06:40:39.000Z</time>
      </trkpt>
      <trkpt lat="43.55638" lon="2.91592">
        <ele>129.6</ele>
        <time>2017-04-16T06:40:40.000Z</time>
      </trkpt>
      <trkpt lat="43.55637" lon="2.91592">
        <ele>129.6</ele>
        <time>2017-04-16T06:40:41.000Z</time>
      </trkpt>
      <trkpt lat="43.55636" lon="2.91591">
        <ele>129.6</ele>
        <time>2017-04-16T06:40:42.000Z</time>
      </trkpt>
      <trkpt lat="43.55636" lon="2.91589">
        <ele>129.6</ele>
        <time>2017-04-16T06:40:43.000Z</time>
      </trkpt>
      <trkpt lat="43.55634" lon="2.91586">
        <ele>129.6</ele>
        <time>2017-04-16T06:40:45.000Z</time>
      </trkpt>
      <trkpt lat="43.55632" lon="2.91582">
        <ele>129.6</ele>
        <time>2017-04-16T06:40:47.000Z</time>
      </trkpt>
      <trkpt lat="43.55632" lon="2.91579">
        <ele>129.6</ele>
        <time>2017-04-16T06:40:50.000Z</time>
      </trkpt>
      <trkpt lat="43.5564" lon="2.91578">
        <ele>129.6</ele>
        <time>2017-04-16T06:41:16.000Z</time>
      </trkpt>
      <trkpt lat="43.55639" lon="2.91578">
        <ele>129.6</ele>
        <time>2017-04-16T06:41:17.000Z</time>
      </trkpt>
      <trkpt lat="43.55638" lon="2.91577">
        <ele>129.6</ele>
        <time>2017-04-16T06:41:18.000Z</time>
      </trkpt>
      <trkpt lat="43.55637" lon="2.91562">
        <ele>129.6</ele>
        <time>2017-04-16T06:41:29.000Z</time>
      </trkpt>
      <trkpt lat="43.55636" lon="2.91551">
        <ele>129.6</ele>
        <time>2017-04-16T06:41:32.000Z</time>
      </trkpt>
      <trkpt lat="43.55634" lon="2.91548">
        <ele>129.6</ele>
        <time>2017-04-16T06:41:34.000Z</time>
      </trkpt>
      <trkpt lat="43.55629" lon="2.91545">
        <ele>129.6</ele>
        <time>2017-04-16T06:41:39.000Z</time>
      </trkpt>
      <trkpt lat="43.55626" lon="2.91544">
        <ele>129.6</ele>
        <time>2017-04-16T06:41:45.000Z</time>
      </trkpt>
      <trkpt lat="43.55626" lon="2.91544">
        <ele>129.6</ele>
        <time>2017-04-16T06:42:03.000Z</time>
      </trkpt>
      <trkpt lat="43.55625" lon="2.91544">
        <ele>129.6</ele>
        <time>2017-04-16T06:42:05.000Z</time>
      </trkpt>
      <trkpt lat="43.55622" lon="2.91543">
        <ele>129.6</ele>
        <time>2017-04-16T06:42:09.000Z</time>
      </trkpt>
      <trkpt lat="43.55621" lon="2.91543">
        <ele>129.6</ele>
        <time>2017-04-16T06:42:10.000Z</time>
      </trkpt>
      <trkpt lat="43.55619" lon="2.91543">
        <ele>129.4</ele>
        <time>2017-04-16T06:42:12.000Z</time>
      </trkpt>
      <trkpt lat="43.55619" lon="2.91542">
        <ele>129.2</ele>
        <time>2017-04-16T06:42:13.000Z</time>
      </trkpt>
      <trkpt lat="43.55616" lon="2.91539">
        <ele>128.4</ele>
        <time>2017-04-16T06:42:21.000Z</time>
      </trkpt>
      <trkpt lat="43.55616" lon="2.91538">
        <ele>128.2</ele>
        <time>2017-04-16T06:42:22.000Z</time>
      </trkpt>
      <trkpt lat="43.55615" lon="2.91537">
        <ele>128.2</ele>
        <time>2017-04-16T06:42:23.000Z</time>
      </trkpt>
      <trkpt lat="43.55615" lon="2.91537">
        <ele>128.2</ele>
        <time>2017-04-16T06:42:24.000Z</time>
      </trkpt>
      <trkpt lat="43.55615" lon="2.91536">
        <ele>128</ele>
        <time>2017-04-16T06:42:25.000Z</time>
      </trkpt>
      <trkpt lat="43.55617" lon="2.91545">
        <ele>127.6</ele>
        <time>2017-04-16T06:43:01.000Z</time>
      </trkpt>
      <trkpt lat="43.55618" lon="2.91545">
        <ele>127.6</ele>
        <time>2017-04-16T06:43:02.000Z</time>
      </trkpt>
      <trkpt lat="43.5562" lon="2.91545">
        <ele>127.6</ele>
        <time>2017-04-16T06:43:04.000Z</time>
      </trkpt>
      <trkpt lat="43.55621" lon="2.91545">
        <ele>127.6</ele>
        <time>2017-04-16T06:43:05.000Z</time>
      </trkpt>
      <trkpt lat="43.55626" lon="2.91542">
        <ele>129.4</ele>
        <time>2017-04-16T06:43:33.000Z</time>
      </trkpt>
      <trkpt lat="43.55626" lon="2.91543">
        <ele>129.6</ele>
        <time>2017-04-16T06:43:34.000Z</time>
      </trkpt>
      <trkpt lat="43.55625" lon="2.91544">
        <ele>129.8</ele>
        <time>2017-04-16T06:43:35.000Z</time>
      </trkpt>
      <trkpt lat="43.55625" lon="2.91545">
        <ele>130</ele>
        <time>2017-04-16T06:43:36.000Z</time>
      </trkpt>
      <trkpt lat="43.55623" lon="2.9155">
        <ele>130.4</ele>
        <time>2017-04-16T06:43:38.000Z</time>
      </trkpt>
      <trkpt lat="43.55624" lon="2.91557">
        <ele>130.8</ele>
        <time>2017-04-16T06:43:40.000Z</time>
      </trkpt>
      <trkpt lat="43.55625" lon="2.91566">
        <ele>131</ele>
        <time>2017-04-16T06:43:42.000Z</time>
      </trkpt>
      <trkpt lat="43.55629" lon="2.91588">
        <ele>131.4</ele>
        <time>2017-04-16T06:43:48.000Z</time>
      </trkpt>
      <trkpt lat="43.55628" lon="2.91591">
        <ele>131.4</ele>
        <time>2017-04-16T06:43:49.000Z</time>
      </trkpt>
      <trkpt lat="43.55623" lon="2.91596">
        <ele>131.6</ele>
        <time>2017-04-16T06:43:53.000Z</time>
      </trkpt>
      <trkpt lat="43.55621" lon="2.91597">
        <ele>131.6</ele>
        <time>2017-04-16T06:43:54.000Z</time>
      </trkpt>
      <trkpt lat="43.55611" lon="2.916">
        <ele>131.8</ele>
        <time>2017-04-16T06:43:58.000Z</time>
      </trkpt>
      <trkpt lat="43.55607" lon="2.91608">
        <ele>131.8</ele>
        <time>2017-04-16T06:44:02.000Z</time>
      </trkpt>
      <trkpt lat="43.55609" lon="2.91615">
        <ele>131.6</ele>
        <time>2017-04-16T06:44:04.000Z</time>
      </trkpt>
      <trkpt lat="43.55611" lon="2.91627">
        <ele>131.2</ele>
        <time>2017-04-16T06:44:06.000Z</time>
      </trkpt>
      <trkpt lat="43.55614" lon="2.9164">
        <ele>131</ele>
        <time>2017-04-16T06:44:08.000Z</time>
      </trkpt>
      <trkpt lat="43.55617" lon="2.91653">
        <ele>130.8</ele>
        <time>2017-04-16T06:44:10.000Z</time>
      </trkpt>
      <trkpt lat="43.55619" lon="2.91659">
        <ele>130.6</ele>
        <time>2017-04-16T06:44:11.000Z</time>
      </trkpt>
      <trkpt lat="43.55623" lon="2.91671">
        <ele>130.6</ele>
        <time>2017-04-16T06:44:12.000Z</time>
      </trkpt>
      <trkpt lat="43.55627" lon="2.91689">
        <ele>130.2</ele>
        <time>2017-04-16T06:44:14.000Z</time>
      </trkpt>
      <trkpt lat="43.55628" lon="2.91695">
        <ele>130</ele>
        <time>2017-04-16T06:44:15.000Z</time>
      </trkpt>
      <trkpt lat="43.55617" lon="2.91696">
        <ele>129.4</ele>
        <time>2017-04-16T06:44:18.000Z</time>
      </trkpt>
      <trkpt lat="43.55611" lon="2.91689">
        <ele>129</ele>
        <time>2017-04-16T06:44:20.000Z</time>
      </trkpt>
      <trkpt lat="43.55607" lon="2.91686">
        <ele>128.8</ele>
        <time>2017-04-16T06:44:22.000Z</time>
      </trkpt>
      <trkpt lat="43.55601" lon="2.91686">
        <ele>128.4</ele>
        <time>2017-04-16T06:44:24.000Z</time>
      </trkpt>
      <trkpt lat="43.55596" lon="2.91682">
        <ele>127.8</ele>
        <time>2017-04-16T06:44:26.000Z</time>
      </trkpt>
      <trkpt lat="43.55594" lon="2.91679">
        <ele>127.6</ele>
        <time>2017-04-16T06:44:27.000Z</time>
      </trkpt>
      <trkpt lat="43.55589" lon="2.91669">
        <ele>127.2</ele>
        <time>2017-04-16T06:44:30.000Z</time>
      </trkpt>
      <trkpt lat="43.55587" lon="2.91664">
        <ele>126.8</ele>
        <time>2017-04-16T06:44:32.000Z</time>
      </trkpt>
      <trkpt lat="43.55585" lon="2.91663">
        <ele>126.6</ele>
        <time>2017-04-16T06:44:35.000Z</time>
      </trkpt>
      <trkpt lat="43.55583" lon="2.91665">
        <ele>125.6</ele>
        <time>2017-04-16T06:45:11.000Z</time>
      </trkpt>
      <trkpt lat="43.55581" lon="2.91666">
        <ele>125.6</ele>
        <time>2017-04-16T06:45:16.000Z</time>
      </trkpt>
      <trkpt lat="43.55586" lon="2.91662">
        <ele>125.6</ele>
        <time>2017-04-16T06:46:00.000Z</time>
      </trkpt>
      <trkpt lat="43.55586" lon="2.91662">
        <ele>125.6</ele>
        <time>2017-04-16T06:46:02.000Z</time>
      </trkpt>
      <trkpt lat="43.55587" lon="2.9166">
        <ele>125.6</ele>
        <time>2017-04-16T06:46:05.000Z</time>
      </trkpt>
      <trkpt lat="43.5559" lon="2.91658">
        <ele>125.6</ele>
        <time>2017-04-16T06:46:10.000Z</time>
      </trkpt>
      <trkpt lat="43.55588" lon="2.91658">
        <ele>125.6</ele>
        <time>2017-04-16T06:46:35.000Z</time>
      </trkpt>
      <trkpt lat="43.55588" lon="2.91658">
        <ele>125.6</ele>
        <time>2017-04-16T06:46:36.000Z</time>
      </trkpt>
      <trkpt lat="43.55588" lon="2.91658">
        <ele>125.6</ele>
        <time>2017-04-16T06:46:37.000Z</time>
      </trkpt>
      <trkpt lat="43.55591" lon="2.91667">
        <ele>125.6</ele>
        <time>2017-04-16T06:48:49.000Z</time>
      </trkpt>
      <trkpt lat="43.55597" lon="2.91668">
        <ele>125.6</ele>
        <time>2017-04-16T06:48:53.000Z</time>
      </trkpt>
      <trkpt lat="43.55588" lon="2.91669">
        <ele>125.6</ele>
        <time>2017-04-16T06:49:54.000Z</time>
      </trkpt>
      <trkpt lat="43.55582" lon="2.91668">
        <ele>125.6</ele>
        <time>2017-04-16T06:49:59.000Z</time>
      </trkpt>
      <trkpt lat="43.55581" lon="2.91669">
        <ele>125.6</ele>
        <time>2017-04-16T06:50:01.000Z</time>
      </trkpt>
      <trkpt lat="43.55582" lon="2.91668">
        <ele>125.6</ele>
        <time>2017-04-16T07:07:39.000Z</time>
      </trkpt>
      <trkpt lat="43.55583" lon="2.91667">
        <ele>125.6</ele>
        <time>2017-04-16T07:07:40.000Z</time>
      </trkpt>
      <trkpt lat="43.55583" lon="2.91668">
        <ele>125.8</ele>
        <time>2017-04-16T07:07:41.000Z</time>
      </trkpt>
      <trkpt lat="43.55584" lon="2.91669">
        <ele>125.8</ele>
        <time>2017-04-16T07:07:42.000Z</time>
      </trkpt>
      <trkpt lat="43.55585" lon="2.91672">
        <ele>125.8</ele>
        <time>2017-04-16T07:07:44.000Z</time>
      </trkpt>
      <trkpt lat="43.55586" lon="2.91675">
        <ele>125.8</ele>
        <time>2017-04-16T07:07:46.000Z</time>
      </trkpt>
      <trkpt lat="43.55588" lon="2.9168">
        <ele>126</ele>
        <time>2017-04-16T07:07:49.000Z</time>
      </trkpt>
      <trkpt lat="43.55591" lon="2.91683">
        <ele>126</ele>
        <time>2017-04-16T07:07:50.000Z</time>
      </trkpt>
      <trkpt lat="43.55592" lon="2.91685">
        <ele>126</ele>
        <time>2017-04-16T07:07:54.000Z</time>
      </trkpt>
      <trkpt lat="43.55589" lon="2.91681">
        <ele>126</ele>
        <time>2017-04-16T07:07:56.000Z</time>
      </trkpt>
      <trkpt lat="43.55583" lon="2.91671">
        <ele>126</ele>
        <time>2017-04-16T07:08:01.000Z</time>
      </trkpt>
      <trkpt lat="43.55583" lon="2.91669">
        <ele>126.2</ele>
        <time>2017-04-16T07:08:13.000Z</time>
      </trkpt>
      <trkpt lat="43.55584" lon="2.91669">
        <ele>126.2</ele>
        <time>2017-04-16T07:08:14.000Z</time>
      </trkpt>
      <trkpt lat="43.55585" lon="2.91669">
        <ele>126.2</ele>
        <time>2017-04-16T07:08:15.000Z</time>
      </trkpt>
      <trkpt lat="43.5559" lon="2.91676">
        <ele>126.2</ele>
        <time>2017-04-16T07:08:24.000Z</time>
      </trkpt>
      <trkpt lat="43.5559" lon="2.91676">
        <ele>126.2</ele>
        <time>2017-04-16T07:08:25.000Z</time>
      </trkpt>
      <trkpt lat="43.5559" lon="2.91678">
        <ele>126.2</ele>
        <time>2017-04-16T07:08:27.000Z</time>
      </trkpt>
      <trkpt lat="43.5559" lon="2.91684">
        <ele>126.2</ele>
        <time>2017-04-16T07:08:32.000Z</time>
      </trkpt>
      <trkpt lat="43.55594" lon="2.91691">
        <ele>126.2</ele>
        <time>2017-04-16T07:08:34.000Z</time>
      </trkpt>
      <trkpt lat="43.55605" lon="2.91694">
        <ele>126.2</ele>
        <time>2017-04-16T07:08:38.000Z</time>
      </trkpt>
      <trkpt lat="43.55612" lon="2.917">
        <ele>126.2</ele>
        <time>2017-04-16T07:08:41.000Z</time>
      </trkpt>
      <trkpt lat="43.55616" lon="2.91699">
        <ele>126.2</ele>
        <time>2017-04-16T07:08:43.000Z</time>
      </trkpt>
      <trkpt lat="43.55618" lon="2.91686">
        <ele>126.2</ele>
        <time>2017-04-16T07:08:48.000Z</time>
      </trkpt>
      <trkpt lat="43.55617" lon="2.91682">
        <ele>126.2</ele>
        <time>2017-04-16T07:08:49.000Z</time>
      </trkpt>
      <trkpt lat="43.55611" lon="2.9166">
        <ele>126.2</ele>
        <time>2017-04-16T07:08:55.000Z</time>
      </trkpt>
      <trkpt lat="43.55607" lon="2.91644">
        <ele>126.4</ele>
        <time>2017-04-16T07:08:59.000Z</time>
      </trkpt>
      <trkpt lat="43.55606" lon="2.91638">
        <ele>126.8</ele>
        <time>2017-04-16T07:09:01.000Z</time>
      </trkpt>
      <trkpt lat="43.55605" lon="2.91633">
        <ele>127</ele>
        <time>2017-04-16T07:09:03.000Z</time>
      </trkpt>
      <trkpt lat="43.55603" lon="2.91627">
        <ele>127.2</ele>
        <time>2017-04-16T07:09:05.000Z</time>
      </trkpt>
      <trkpt lat="43.55602" lon="2.91621">
        <ele>127.4</ele>
        <time>2017-04-16T07:09:07.000Z</time>
      </trkpt>
      <trkpt lat="43.55601" lon="2.91618">
        <ele>127.6</ele>
        <time>2017-04-16T07:09:09.000Z</time>
      </trkpt>
      <trkpt lat="43.55602" lon="2.9161">
        <ele>128.4</ele>
        <time>2017-04-16T07:09:11.000Z</time>
      </trkpt>
      <trkpt lat="43.55603" lon="2.91606">
        <ele>128.8</ele>
        <time>2017-04-16T07:09:13.000Z</time>
      </trkpt>
      <trkpt lat="43.55606" lon="2.91602">
        <ele>129.2</ele>
        <time>2017-04-16T07:09:15.000Z</time>
      </trkpt>
      <trkpt lat="43.55608" lon="2.916">
        <ele>129.2</ele>
        <time>2017-04-16T07:09:16.000Z</time>
      </trkpt>
      <trkpt lat="43.5561" lon="2.91599">
        <ele>129.4</ele>
        <time>2017-04-16T07:09:17.000Z</time>
      </trkpt>
      <trkpt lat="43.5562" lon="2.91595">
        <ele>129.8</ele>
        <time>2017-04-16T07:09:22.000Z</time>
      </trkpt>
      <trkpt lat="43.55622" lon="2.91594">
        <ele>130</ele>
        <time>2017-04-16T07:09:23.000Z</time>
      </trkpt>
      <trkpt lat="43.55627" lon="2.91593">
        <ele>130.2</ele>
        <time>2017-04-16T07:09:26.000Z</time>
      </trkpt>
      <trkpt lat="43.55637" lon="2.9159">
        <ele>130.4</ele>
        <time>2017-04-16T07:09:32.000Z</time>
      </trkpt>
      <trkpt lat="43.55639" lon="2.9159">
        <ele>130.4</ele>
        <time>2017-04-16T07:09:33.000Z</time>
      </trkpt>
      <trkpt lat="43.55643" lon="2.9159">
        <ele>130.4</ele>
        <time>2017-04-16T07:09:36.000Z</time>
      </trkpt>
      <trkpt lat="43.55641" lon="2.91594">
        <ele>132</ele>
        <time>2017-04-16T07:09:49.000Z</time>
      </trkpt>
      <trkpt lat="43.5564" lon="2.91594">
        <ele>132</ele>
        <time>2017-04-16T07:09:50.000Z</time>
      </trkpt>
      <trkpt lat="43.55639" lon="2.91595">
        <ele>132</ele>
        <time>2017-04-16T07:09:51.000Z</time>
      </trkpt>
      <trkpt lat="43.55638" lon="2.91595">
        <ele>132.2</ele>
        <time>2017-04-16T07:09:52.000Z</time>
      </trkpt>
      <trkpt lat="43.55637" lon="2.91595">
        <ele>132.2</ele>
        <time>2017-04-16T07:09:53.000Z</time>
      </trkpt>
      <trkpt lat="43.55633" lon="2.91595">
        <ele>132.2</ele>
        <time>2017-04-16T07:09:55.000Z</time>
      </trkpt>
      <trkpt lat="43.55628" lon="2.91595">
        <ele>132.4</ele>
        <time>2017-04-16T07:09:57.000Z</time>
      </trkpt>
      <trkpt lat="43.55608" lon="2.91601">
        <ele>132.4</ele>
        <time>2017-04-16T07:10:03.000Z</time>
      </trkpt>
      <trkpt lat="43.55605" lon="2.91604">
        <ele>132.4</ele>
        <time>2017-04-16T07:10:04.000Z</time>
      </trkpt>
      <trkpt lat="43.55593" lon="2.91616">
        <ele>132.2</ele>
        <time>2017-04-16T07:10:07.000Z</time>
      </trkpt>
      <trkpt lat="43.55586" lon="2.91625">
        <ele>132</ele>
        <time>2017-04-16T07:10:09.000Z</time>
      </trkpt>
      <trkpt lat="43.55576" lon="2.91638">
        <ele>131.6</ele>
        <time>2017-04-16T07:10:12.000Z</time>
      </trkpt>
      <trkpt lat="43.55569" lon="2.91651">
        <ele>131.4</ele>
        <time>2017-04-16T07:10:13.000Z</time>
      </trkpt>
      <trkpt lat="43.55563" lon="2.9166">
        <ele>131.2</ele>
        <time>2017-04-16T07:10:15.000Z</time>
      </trkpt>
      <trkpt lat="43.5556" lon="2.91663">
        <ele>131.2</ele>
        <time>2017-04-16T07:10:16.000Z</time>
      </trkpt>
      <trkpt lat="43.55553" lon="2.91671">
        <ele>131</ele>
        <time>2017-04-16T07:10:18.000Z</time>
      </trkpt>
      <trkpt lat="43.55527" lon="2.91683">
        <ele>130.8</ele>
        <time>2017-04-16T07:10:24.000Z</time>
      </trkpt>
      <trkpt lat="43.55509" lon="2.91695">
        <ele>130.6</ele>
        <time>2017-04-16T07:10:29.000Z</time>
      </trkpt>
      <trkpt lat="43.55493" lon="2.91709">
        <ele>130.6</ele>
        <time>2017-04-16T07:10:34.000Z</time>
      </trkpt>
      <trkpt lat="43.55475" lon="2.91722">
        <ele>130.6</ele>
        <time>2017-04-16T07:10:40.000Z</time>
      </trkpt>
      <trkpt lat="43.55461" lon="2.91739">
        <ele>130.6</ele>
        <time>2017-04-16T07:10:46.000Z</time>
      </trkpt>
      <trkpt lat="43.55459" lon="2.91742">
        <ele>130.8</ele>
        <time>2017-04-16T07:10:47.000Z</time>
      </trkpt>
      <trkpt lat="43.55455" lon="2.91748">
        <ele>131</ele>
        <time>2017-04-16T07:10:49.000Z</time>
      </trkpt>
      <trkpt lat="43.55453" lon="2.91751">
        <ele>131.2</ele>
        <time>2017-04-16T07:10:50.000Z</time>
      </trkpt>
      <trkpt lat="43.55445" lon="2.91754">
        <ele>131.6</ele>
        <time>2017-04-16T07:10:53.000Z</time>
      </trkpt>
      <trkpt lat="43.55439" lon="2.91755">
        <ele>131.8</ele>
        <time>2017-04-16T07:10:55.000Z</time>
      </trkpt>
      <trkpt lat="43.55427" lon="2.91758">
        <ele>132.2</ele>
        <time>2017-04-16T07:10:59.000Z</time>
      </trkpt>
      <trkpt lat="43.55422" lon="2.9176">
        <ele>132.6</ele>
        <time>2017-04-16T07:11:01.000Z</time>
      </trkpt>
      <trkpt lat="43.55417" lon="2.91762">
        <ele>133</ele>
        <time>2017-04-16T07:11:03.000Z</time>
      </trkpt>
      <trkpt lat="43.55412" lon="2.91762">
        <ele>133.4</ele>
        <time>2017-04-16T07:11:05.000Z</time>
      </trkpt>
      <trkpt lat="43.55406" lon="2.91762">
        <ele>133.6</ele>
        <time>2017-04-16T07:11:07.000Z</time>
      </trkpt>
      <trkpt lat="43.55393" lon="2.91757">
        <ele>134.2</ele>
        <time>2017-04-16T07:11:12.000Z</time>
      </trkpt>
      <trkpt lat="43.55387" lon="2.91755">
        <ele>134.6</ele>
        <time>2017-04-16T07:11:14.000Z</time>
      </trkpt>
      <trkpt lat="43.5538" lon="2.91751">
        <ele>135</ele>
        <time>2017-04-16T07:11:16.000Z</time>
      </trkpt>
      <trkpt lat="43.55376" lon="2.91748">
        <ele>135.2</ele>
        <time>2017-04-16T07:11:17.000Z</time>
      </trkpt>
      <trkpt lat="43.55366" lon="2.91741">
        <ele>135.6</ele>
        <time>2017-04-16T07:11:19.000Z</time>
      </trkpt>
      <trkpt lat="43.55351" lon="2.91741">
        <ele>136</ele>
        <time>2017-04-16T07:11:23.000Z</time>
      </trkpt>
      <trkpt lat="43.55351" lon="2.91755">
        <ele>136.2</ele>
        <time>2017-04-16T07:11:26.000Z</time>
      </trkpt>
      <trkpt lat="43.55353" lon="2.91767">
        <ele>136.2</ele>
        <time>2017-04-16T07:11:29.000Z</time>
      </trkpt>
      <trkpt lat="43.55358" lon="2.91788">
        <ele>136.4</ele>
        <time>2017-04-16T07:11:34.000Z</time>
      </trkpt>
      <trkpt lat="43.55362" lon="2.91803">
        <ele>136.6</ele>
        <time>2017-04-16T07:11:39.000Z</time>
      </trkpt>
      <trkpt lat="43.55362" lon="2.91811">
        <ele>136.8</ele>
        <time>2017-04-16T07:11:42.000Z</time>
      </trkpt>
      <trkpt lat="43.55362" lon="2.91814">
        <ele>137</ele>
        <time>2017-04-16T07:11:43.000Z</time>
      </trkpt>
      <trkpt lat="43.55362" lon="2.91817">
        <ele>137.2</ele>
        <time>2017-04-16T07:11:44.000Z</time>
      </trkpt>
      <trkpt lat="43.55363" lon="2.91819">
        <ele>137.4</ele>
        <time>2017-04-16T07:11:45.000Z</time>
      </trkpt>
      <trkpt lat="43.55364" lon="2.91829">
        <ele>137.8</ele>
        <time>2017-04-16T07:11:49.000Z</time>
      </trkpt>
      <trkpt lat="43.55363" lon="2.91835">
        <ele>138</ele>
        <time>2017-04-16T07:11:50.000Z</time>
      </trkpt>
      <trkpt lat="43.55362" lon="2.91839">
        <ele>138</ele>
        <time>2017-04-16T07:11:51.000Z</time>
      </trkpt>
      <trkpt lat="43.55359" lon="2.91847">
        <ele>138.4</ele>
        <time>2017-04-16T07:11:54.000Z</time>
      </trkpt>
      <trkpt lat="43.55358" lon="2.91851">
        <ele>139</ele>
        <time>2017-04-16T07:11:56.000Z</time>
      </trkpt>
      <trkpt lat="43.55355" lon="2.91857">
        <ele>139.2</ele>
        <time>2017-04-16T07:11:58.000Z</time>
      </trkpt>
      <trkpt lat="43.55353" lon="2.91863">
        <ele>139.6</ele>
        <time>2017-04-16T07:12:00.000Z</time>
      </trkpt>
      <trkpt lat="43.55352" lon="2.9187">
        <ele>139.8</ele>
        <time>2017-04-16T07:12:02.000Z</time>
      </trkpt>
      <trkpt lat="43.5534" lon="2.91898">
        <ele>140.2</ele>
        <time>2017-04-16T07:12:09.000Z</time>
      </trkpt>
      <trkpt lat="43.5533" lon="2.91914">
        <ele>140.4</ele>
        <time>2017-04-16T07:12:11.000Z</time>
      </trkpt>
      <trkpt lat="43.55328" lon="2.91937">
        <ele>140.6</ele>
        <time>2017-04-16T07:12:15.000Z</time>
      </trkpt>
      <trkpt lat="43.55323" lon="2.91947">
        <ele>140.6</ele>
        <time>2017-04-16T07:12:19.000Z</time>
      </trkpt>
      <trkpt lat="43.55319" lon="2.91946">
        <ele>140.8</ele>
        <time>2017-04-16T07:12:24.000Z</time>
      </trkpt>
      <trkpt lat="43.55317" lon="2.91945">
        <ele>140.8</ele>
        <time>2017-04-16T07:12:27.000Z</time>
      </trkpt>
      <trkpt lat="43.55317" lon="2.91945">
        <ele>140.8</ele>
        <time>2017-04-16T07:12:29.000Z</time>
      </trkpt>
      <trkpt lat="43.55317" lon="2.91945">
        <ele>140.8</ele>
        <time>2017-04-16T07:12:31.000Z</time>
      </trkpt>
      <trkpt lat="43.55318" lon="2.91957">
        <ele>141</ele>
        <time>2017-04-16T07:12:35.000Z</time>
      </trkpt>
      <trkpt lat="43.5532" lon="2.91962">
        <ele>141.4</ele>
        <time>2017-04-16T07:12:37.000Z</time>
      </trkpt>
      <trkpt lat="43.55321" lon="2.91965">
        <ele>141.6</ele>
        <time>2017-04-16T07:12:38.000Z</time>
      </trkpt>
      <trkpt lat="43.55322" lon="2.91966">
        <ele>141.8</ele>
        <time>2017-04-16T07:12:39.000Z</time>
      </trkpt>
      <trkpt lat="43.5532" lon="2.91967">
        <ele>142.2</ele>
        <time>2017-04-16T07:12:41.000Z</time>
      </trkpt>
      <trkpt lat="43.55321" lon="2.91969">
        <ele>142.6</ele>
        <time>2017-04-16T07:12:42.000Z</time>
      </trkpt>
      <trkpt lat="43.55321" lon="2.9197">
        <ele>142.8</ele>
        <time>2017-04-16T07:12:43.000Z</time>
      </trkpt>
      <trkpt lat="43.55323" lon="2.91972">
        <ele>143.2</ele>
        <time>2017-04-16T07:12:44.000Z</time>
      </trkpt>
      <trkpt lat="43.55326" lon="2.91977">
        <ele>143.6</ele>
        <time>2017-04-16T07:12:46.000Z</time>
      </trkpt>
      <trkpt lat="43.55331" lon="2.91983">
        <ele>144.6</ele>
        <time>2017-04-16T07:12:49.000Z</time>
      </trkpt>
      <trkpt lat="43.55334" lon="2.91985">
        <ele>145.2</ele>
        <time>2017-04-16T07:12:51.000Z</time>
      </trkpt>
      <trkpt lat="43.55335" lon="2.91986">
        <ele>145.4</ele>
        <time>2017-04-16T07:12:53.000Z</time>
      </trkpt>
      <trkpt lat="43.55339" lon="2.91988">
        <ele>146</ele>
        <time>2017-04-16T07:12:54.000Z</time>
      </trkpt>
      <trkpt lat="43.55342" lon="2.9199">
        <ele>146.8</ele>
        <time>2017-04-16T07:12:56.000Z</time>
      </trkpt>
      <trkpt lat="43.55344" lon="2.91994">
        <ele>147.2</ele>
        <time>2017-04-16T07:12:58.000Z</time>
      </trkpt>
      <trkpt lat="43.55344" lon="2.91999">
        <ele>147.8</ele>
        <time>2017-04-16T07:13:00.000Z</time>
      </trkpt>
      <trkpt lat="43.55344" lon="2.92001">
        <ele>148</ele>
        <time>2017-04-16T07:13:01.000Z</time>
      </trkpt>
      <trkpt lat="43.55345" lon="2.92003">
        <ele>148</ele>
        <time>2017-04-16T07:13:03.000Z</time>
      </trkpt>
      <trkpt lat="43.5535" lon="2.92007">
        <ele>148.8</ele>
        <time>2017-04-16T07:13:07.000Z</time>
      </trkpt>
      <trkpt lat="43.55351" lon="2.92009">
        <ele>149</ele>
        <time>2017-04-16T07:13:10.000Z</time>
      </trkpt>
      <trkpt lat="43.55353" lon="2.92011">
        <ele>149.4</ele>
        <time>2017-04-16T07:13:12.000Z</time>
      </trkpt>
      <trkpt lat="43.55354" lon="2.92013">
        <ele>149.8</ele>
        <time>2017-04-16T07:13:14.000Z</time>
      </trkpt>
      <trkpt lat="43.55355" lon="2.92015">
        <ele>150.2</ele>
        <time>2017-04-16T07:13:16.000Z</time>
      </trkpt>
      <trkpt lat="43.55356" lon="2.92017">
        <ele>150.4</ele>
        <time>2017-04-16T07:13:18.000Z</time>
      </trkpt>
      <trkpt lat="43.55357" lon="2.92019">
        <ele>150.8</ele>
        <time>2017-04-16T07:13:20.000Z</time>
      </trkpt>
      <trkpt lat="43.55358" lon="2.9202">
        <ele>150.8</ele>
        <time>2017-04-16T07:13:21.000Z</time>
      </trkpt>
      <trkpt lat="43.55359" lon="2.92022">
        <ele>151.2</ele>
        <time>2017-04-16T07:13:22.000Z</time>
      </trkpt>
      <trkpt lat="43.55359" lon="2.92024">
        <ele>151.4</ele>
        <time>2017-04-16T07:13:23.000Z</time>
      </trkpt>
      <trkpt lat="43.55361" lon="2.9203">
        <ele>152.2</ele>
        <time>2017-04-16T07:13:26.000Z</time>
      </trkpt>
      <trkpt lat="43.55364" lon="2.92034">
        <ele>152.6</ele>
        <time>2017-04-16T07:13:29.000Z</time>
      </trkpt>
      <trkpt lat="43.55364" lon="2.92036">
        <ele>152.8</ele>
        <time>2017-04-16T07:13:30.000Z</time>
      </trkpt>
      <trkpt lat="43.55361" lon="2.9205">
        <ele>153.4</ele>
        <time>2017-04-16T07:13:36.000Z</time>
      </trkpt>
      <trkpt lat="43.55365" lon="2.92057">
        <ele>153.6</ele>
        <time>2017-04-16T07:13:40.000Z</time>
      </trkpt>
      <trkpt lat="43.55366" lon="2.92059">
        <ele>153.8</ele>
        <time>2017-04-16T07:13:41.000Z</time>
      </trkpt>
      <trkpt lat="43.55365" lon="2.92063">
        <ele>154.2</ele>
        <time>2017-04-16T07:13:43.000Z</time>
      </trkpt>
      <trkpt lat="43.55365" lon="2.92066">
        <ele>154.6</ele>
        <time>2017-04-16T07:13:45.000Z</time>
      </trkpt>
      <trkpt lat="43.55365" lon="2.92069">
        <ele>154.8</ele>
        <time>2017-04-16T07:13:47.000Z</time>
      </trkpt>
      <trkpt lat="43.55365" lon="2.92072">
        <ele>155</ele>
        <time>2017-04-16T07:13:49.000Z</time>
      </trkpt>
      <trkpt lat="43.55365" lon="2.9208">
        <ele>155.4</ele>
        <time>2017-04-16T07:13:54.000Z</time>
      </trkpt>
      <trkpt lat="43.55365" lon="2.92087">
        <ele>155.8</ele>
        <time>2017-04-16T07:13:57.000Z</time>
      </trkpt>
      <trkpt lat="43.55366" lon="2.9209">
        <ele>156.2</ele>
        <time>2017-04-16T07:13:59.000Z</time>
      </trkpt>
      <trkpt lat="43.55366" lon="2.92092">
        <ele>156.4</ele>
        <time>2017-04-16T07:14:00.000Z</time>
      </trkpt>
      <trkpt lat="43.55365" lon="2.92094">
        <ele>156.6</ele>
        <time>2017-04-16T07:14:01.000Z</time>
      </trkpt>
      <trkpt lat="43.55364" lon="2.92095">
        <ele>156.8</ele>
        <time>2017-04-16T07:14:02.000Z</time>
      </trkpt>
      <trkpt lat="43.55362" lon="2.92096">
        <ele>157</ele>
        <time>2017-04-16T07:14:03.000Z</time>
      </trkpt>
      <trkpt lat="43.5536" lon="2.92098">
        <ele>157.2</ele>
        <time>2017-04-16T07:14:05.000Z</time>
      </trkpt>
      <trkpt lat="43.55355" lon="2.92101">
        <ele>157.6</ele>
        <time>2017-04-16T07:14:09.000Z</time>
      </trkpt>
      <trkpt lat="43.55354" lon="2.92101">
        <ele>157.8</ele>
        <time>2017-04-16T07:14:10.000Z</time>
      </trkpt>
      <trkpt lat="43.55353" lon="2.92102">
        <ele>158</ele>
        <time>2017-04-16T07:14:11.000Z</time>
      </trkpt>
      <trkpt lat="43.5535" lon="2.92105">
        <ele>158.8</ele>
        <time>2017-04-16T07:14:14.000Z</time>
      </trkpt>
      <trkpt lat="43.55349" lon="2.92106">
        <ele>158.8</ele>
        <time>2017-04-16T07:14:15.000Z</time>
      </trkpt>
      <trkpt lat="43.55344" lon="2.92109">
        <ele>159.4</ele>
        <time>2017-04-16T07:14:18.000Z</time>
      </trkpt>
      <trkpt lat="43.55341" lon="2.92113">
        <ele>159.6</ele>
        <time>2017-04-16T07:14:22.000Z</time>
      </trkpt>
      <trkpt lat="43.55338" lon="2.92118">
        <ele>160</ele>
        <time>2017-04-16T07:14:26.000Z</time>
      </trkpt>
      <trkpt lat="43.55337" lon="2.9212">
        <ele>160.6</ele>
        <time>2017-04-16T07:14:27.000Z</time>
      </trkpt>
      <trkpt lat="43.55336" lon="2.92123">
        <ele>161</ele>
        <time>2017-04-16T07:14:29.000Z</time>
      </trkpt>
      <trkpt lat="43.55333" lon="2.92124">
        <ele>161.2</ele>
        <time>2017-04-16T07:14:31.000Z</time>
      </trkpt>
      <trkpt lat="43.55331" lon="2.92125">
        <ele>161.4</ele>
        <time>2017-04-16T07:14:34.000Z</time>
      </trkpt>
      <trkpt lat="43.55325" lon="2.9213">
        <ele>161.8</ele>
        <time>2017-04-16T07:14:37.000Z</time>
      </trkpt>
      <trkpt lat="43.55321" lon="2.92133">
        <ele>162.2</ele>
        <time>2017-04-16T07:14:41.000Z</time>
      </trkpt>
      <trkpt lat="43.55319" lon="2.92136">
        <ele>162.6</ele>
        <time>2017-04-16T07:14:43.000Z</time>
      </trkpt>
      <trkpt lat="43.55317" lon="2.92138">
        <ele>163</ele>
        <time>2017-04-16T07:14:45.000Z</time>
      </trkpt>
      <trkpt lat="43.55315" lon="2.92139">
        <ele>163.4</ele>
        <time>2017-04-16T07:14:47.000Z</time>
      </trkpt>
      <trkpt lat="43.55315" lon="2.92141">
        <ele>163.6</ele>
        <time>2017-04-16T07:14:49.000Z</time>
      </trkpt>
      <trkpt lat="43.55314" lon="2.92142">
        <ele>163.6</ele>
        <time>2017-04-16T07:14:50.000Z</time>
      </trkpt>
      <trkpt lat="43.5531" lon="2.92146">
        <ele>164</ele>
        <time>2017-04-16T07:14:55.000Z</time>
      </trkpt>
      <trkpt lat="43.55307" lon="2.92146">
        <ele>164.8</ele>
        <time>2017-04-16T07:14:58.000Z</time>
      </trkpt>
      <trkpt lat="43.55305" lon="2.92147">
        <ele>165.2</ele>
        <time>2017-04-16T07:15:01.000Z</time>
      </trkpt>
      <trkpt lat="43.55304" lon="2.92149">
        <ele>165.4</ele>
        <time>2017-04-16T07:15:02.000Z</time>
      </trkpt>
      <trkpt lat="43.55302" lon="2.92151">
        <ele>165.8</ele>
        <time>2017-04-16T07:15:04.000Z</time>
      </trkpt>
      <trkpt lat="43.55302" lon="2.92153">
        <ele>166.4</ele>
        <time>2017-04-16T07:15:06.000Z</time>
      </trkpt>
      <trkpt lat="43.553" lon="2.92156">
        <ele>166.8</ele>
        <time>2017-04-16T07:15:09.000Z</time>
      </trkpt>
      <trkpt lat="43.55299" lon="2.92158">
        <ele>167.2</ele>
        <time>2017-04-16T07:15:10.000Z</time>
      </trkpt>
      <trkpt lat="43.55298" lon="2.9216">
        <ele>167.4</ele>
        <time>2017-04-16T07:15:12.000Z</time>
      </trkpt>
      <trkpt lat="43.55295" lon="2.92165">
        <ele>168</ele>
        <time>2017-04-16T07:15:19.000Z</time>
      </trkpt>
      <trkpt lat="43.55294" lon="2.92166">
        <ele>168.4</ele>
        <time>2017-04-16T07:15:20.000Z</time>
      </trkpt>
      <trkpt lat="43.55293" lon="2.92168">
        <ele>168.8</ele>
        <time>2017-04-16T07:15:22.000Z</time>
      </trkpt>
      <trkpt lat="43.55291" lon="2.92168">
        <ele>169.2</ele>
        <time>2017-04-16T07:15:24.000Z</time>
      </trkpt>
      <trkpt lat="43.55289" lon="2.92168">
        <ele>169.4</ele>
        <time>2017-04-16T07:15:26.000Z</time>
      </trkpt>
      <trkpt lat="43.55288" lon="2.92168">
        <ele>169.8</ele>
        <time>2017-04-16T07:15:29.000Z</time>
      </trkpt>
      <trkpt lat="43.55283" lon="2.92169">
        <ele>170.4</ele>
        <time>2017-04-16T07:15:32.000Z</time>
      </trkpt>
      <trkpt lat="43.55281" lon="2.92169">
        <ele>170.8</ele>
        <time>2017-04-16T07:15:34.000Z</time>
      </trkpt>
      <trkpt lat="43.55279" lon="2.92169">
        <ele>171.2</ele>
        <time>2017-04-16T07:15:36.000Z</time>
      </trkpt>
      <trkpt lat="43.55278" lon="2.92169">
        <ele>171.6</ele>
        <time>2017-04-16T07:15:39.000Z</time>
      </trkpt>
      <trkpt lat="43.55276" lon="2.92168">
        <ele>171.8</ele>
        <time>2017-04-16T07:15:40.000Z</time>
      </trkpt>
      <trkpt lat="43.55276" lon="2.92168">
        <ele>172.2</ele>
        <time>2017-04-16T07:15:41.000Z</time>
      </trkpt>
      <trkpt lat="43.55275" lon="2.9217">
        <ele>172.6</ele>
        <time>2017-04-16T07:15:43.000Z</time>
      </trkpt>
      <trkpt lat="43.55274" lon="2.92172">
        <ele>173.2</ele>
        <time>2017-04-16T07:15:46.000Z</time>
      </trkpt>
      <trkpt lat="43.55272" lon="2.92174">
        <ele>173.4</ele>
        <time>2017-04-16T07:15:47.000Z</time>
      </trkpt>
      <trkpt lat="43.55272" lon="2.92177">
        <ele>173.8</ele>
        <time>2017-04-16T07:15:49.000Z</time>
      </trkpt>
      <trkpt lat="43.55276" lon="2.92184">
        <ele>174.4</ele>
        <time>2017-04-16T07:15:52.000Z</time>
      </trkpt>
      <trkpt lat="43.55277" lon="2.92185">
        <ele>174.8</ele>
        <time>2017-04-16T07:15:54.000Z</time>
      </trkpt>
      <trkpt lat="43.55278" lon="2.92186">
        <ele>175.4</ele>
        <time>2017-04-16T07:15:56.000Z</time>
      </trkpt>
      <trkpt lat="43.55281" lon="2.92187">
        <ele>175.6</ele>
        <time>2017-04-16T07:15:59.000Z</time>
      </trkpt>
      <trkpt lat="43.55283" lon="2.92188">
        <ele>176</ele>
        <time>2017-04-16T07:16:00.000Z</time>
      </trkpt>
      <trkpt lat="43.55286" lon="2.92191">
        <ele>176.6</ele>
        <time>2017-04-16T07:16:04.000Z</time>
      </trkpt>
      <trkpt lat="43.55289" lon="2.92193">
        <ele>177.2</ele>
        <time>2017-04-16T07:16:06.000Z</time>
      </trkpt>
      <trkpt lat="43.55291" lon="2.92194">
        <ele>177.6</ele>
        <time>2017-04-16T07:16:09.000Z</time>
      </trkpt>
      <trkpt lat="43.55293" lon="2.92195">
        <ele>178</ele>
        <time>2017-04-16T07:16:10.000Z</time>
      </trkpt>
      <trkpt lat="43.55295" lon="2.92197">
        <ele>178.2</ele>
        <time>2017-04-16T07:16:12.000Z</time>
      </trkpt>
      <trkpt lat="43.55301" lon="2.92203">
        <ele>178.8</ele>
        <time>2017-04-16T07:16:18.000Z</time>
      </trkpt>
      <trkpt lat="43.55303" lon="2.92203">
        <ele>179.2</ele>
        <time>2017-04-16T07:16:20.000Z</time>
      </trkpt>
      <trkpt lat="43.55305" lon="2.92204">
        <ele>179.4</ele>
        <time>2017-04-16T07:16:21.000Z</time>
      </trkpt>
      <trkpt lat="43.55308" lon="2.92205">
        <ele>180</ele>
        <time>2017-04-16T07:16:24.000Z</time>
      </trkpt>
      <trkpt lat="43.55309" lon="2.92206">
        <ele>180.2</ele>
        <time>2017-04-16T07:16:26.000Z</time>
      </trkpt>
      <trkpt lat="43.5531" lon="2.92207">
        <ele>180.4</ele>
        <time>2017-04-16T07:16:27.000Z</time>
      </trkpt>
      <trkpt lat="43.55314" lon="2.92209">
        <ele>181</ele>
        <time>2017-04-16T07:16:30.000Z</time>
      </trkpt>
      <trkpt lat="43.55315" lon="2.92209">
        <ele>181.2</ele>
        <time>2017-04-16T07:16:31.000Z</time>
      </trkpt>
      <trkpt lat="43.55318" lon="2.9221">
        <ele>181.8</ele>
        <time>2017-04-16T07:16:34.000Z</time>
      </trkpt>
      <trkpt lat="43.55319" lon="2.9221">
        <ele>182</ele>
        <time>2017-04-16T07:16:35.000Z</time>
      </trkpt>
      <trkpt lat="43.55321" lon="2.92214">
        <ele>182.6</ele>
        <time>2017-04-16T07:16:39.000Z</time>
      </trkpt>
      <trkpt lat="43.55325" lon="2.92218">
        <ele>183.2</ele>
        <time>2017-04-16T07:16:43.000Z</time>
      </trkpt>
      <trkpt lat="43.55328" lon="2.92219">
        <ele>183.6</ele>
        <time>2017-04-16T07:16:45.000Z</time>
      </trkpt>
      <trkpt lat="43.5533" lon="2.92221">
        <ele>184</ele>
        <time>2017-04-16T07:16:46.000Z</time>
      </trkpt>
      <trkpt lat="43.55332" lon="2.92224">
        <ele>184.4</ele>
        <time>2017-04-16T07:16:49.000Z</time>
      </trkpt>
      <trkpt lat="43.55334" lon="2.92226">
        <ele>184.6</ele>
        <time>2017-04-16T07:16:51.000Z</time>
      </trkpt>
      <trkpt lat="43.55335" lon="2.92228">
        <ele>184.8</ele>
        <time>2017-04-16T07:16:52.000Z</time>
      </trkpt>
      <trkpt lat="43.55337" lon="2.92234">
        <ele>185</ele>
        <time>2017-04-16T07:16:55.000Z</time>
      </trkpt>
      <trkpt lat="43.55337" lon="2.92238">
        <ele>185.4</ele>
        <time>2017-04-16T07:16:58.000Z</time>
      </trkpt>
      <trkpt lat="43.55338" lon="2.9224">
        <ele>185.8</ele>
        <time>2017-04-16T07:17:00.000Z</time>
      </trkpt>
      <trkpt lat="43.55338" lon="2.92243">
        <ele>186.2</ele>
        <time>2017-04-16T07:17:01.000Z</time>
      </trkpt>
      <trkpt lat="43.55338" lon="2.92245">
        <ele>186.4</ele>
        <time>2017-04-16T07:17:03.000Z</time>
      </trkpt>
      <trkpt lat="43.55339" lon="2.92246">
        <ele>186.6</ele>
        <time>2017-04-16T07:17:04.000Z</time>
      </trkpt>
      <trkpt lat="43.5534" lon="2.92249">
        <ele>186.8</ele>
        <time>2017-04-16T07:17:06.000Z</time>
      </trkpt>
      <trkpt lat="43.55341" lon="2.9225">
        <ele>187</ele>
        <time>2017-04-16T07:17:07.000Z</time>
      </trkpt>
      <trkpt lat="43.55342" lon="2.92253">
        <ele>187.6</ele>
        <time>2017-04-16T07:17:09.000Z</time>
      </trkpt>
      <trkpt lat="43.55342" lon="2.92254">
        <ele>187.8</ele>
        <time>2017-04-16T07:17:10.000Z</time>
      </trkpt>
      <trkpt lat="43.55343" lon="2.92256">
        <ele>188</ele>
        <time>2017-04-16T07:17:11.000Z</time>
      </trkpt>
      <trkpt lat="43.55344" lon="2.9226">
        <ele>188.4</ele>
        <time>2017-04-16T07:17:13.000Z</time>
      </trkpt>
      <trkpt lat="43.55344" lon="2.92263">
        <ele>188.6</ele>
        <time>2017-04-16T07:17:15.000Z</time>
      </trkpt>
      <trkpt lat="43.55345" lon="2.92264">
        <ele>188.8</ele>
        <time>2017-04-16T07:17:16.000Z</time>
      </trkpt>
      <trkpt lat="43.55346" lon="2.92269">
        <ele>189.6</ele>
        <time>2017-04-16T07:17:19.000Z</time>
      </trkpt>
      <trkpt lat="43.55345" lon="2.92275">
        <ele>190.2</ele>
        <time>2017-04-16T07:17:23.000Z</time>
      </trkpt>
      <trkpt lat="43.55344" lon="2.92279">
        <ele>190.6</ele>
        <time>2017-04-16T07:17:25.000Z</time>
      </trkpt>
      <trkpt lat="43.55343" lon="2.92283">
        <ele>190.8</ele>
        <time>2017-04-16T07:17:27.000Z</time>
      </trkpt>
      <trkpt lat="43.55342" lon="2.92293">
        <ele>191.6</ele>
        <time>2017-04-16T07:17:33.000Z</time>
      </trkpt>
      <trkpt lat="43.55342" lon="2.92296">
        <ele>192</ele>
        <time>2017-04-16T07:17:35.000Z</time>
      </trkpt>
      <trkpt lat="43.55341" lon="2.92301">
        <ele>192.6</ele>
        <time>2017-04-16T07:17:37.000Z</time>
      </trkpt>
      <trkpt lat="43.55341" lon="2.92302">
        <ele>192.8</ele>
        <time>2017-04-16T07:17:39.000Z</time>
      </trkpt>
      <trkpt lat="43.5534" lon="2.92305">
        <ele>193.4</ele>
        <time>2017-04-16T07:17:41.000Z</time>
      </trkpt>
      <trkpt lat="43.55339" lon="2.92307">
        <ele>194</ele>
        <time>2017-04-16T07:17:43.000Z</time>
      </trkpt>
      <trkpt lat="43.55339" lon="2.9231">
        <ele>194.4</ele>
        <time>2017-04-16T07:17:45.000Z</time>
      </trkpt>
      <trkpt lat="43.55338" lon="2.92311">
        <ele>194.6</ele>
        <time>2017-04-16T07:17:46.000Z</time>
      </trkpt>
      <trkpt lat="43.55338" lon="2.92317">
        <ele>195.4</ele>
        <time>2017-04-16T07:17:49.000Z</time>
      </trkpt>
      <trkpt lat="43.55338" lon="2.92319">
        <ele>196</ele>
        <time>2017-04-16T07:17:52.000Z</time>
      </trkpt>
      <trkpt lat="43.55338" lon="2.92322">
        <ele>196.6</ele>
        <time>2017-04-16T07:17:54.000Z</time>
      </trkpt>
      <trkpt lat="43.55338" lon="2.92326">
        <ele>197</ele>
        <time>2017-04-16T07:17:55.000Z</time>
      </trkpt>
      <trkpt lat="43.55337" lon="2.92327">
        <ele>197.2</ele>
        <time>2017-04-16T07:17:57.000Z</time>
      </trkpt>
      <trkpt lat="43.55337" lon="2.92329">
        <ele>197.2</ele>
        <time>2017-04-16T07:17:58.000Z</time>
      </trkpt>
      <trkpt lat="43.55335" lon="2.92336">
        <ele>198</ele>
        <time>2017-04-16T07:18:01.000Z</time>
      </trkpt>
      <trkpt lat="43.55335" lon="2.92337">
        <ele>198.2</ele>
        <time>2017-04-16T07:18:03.000Z</time>
      </trkpt>
      <trkpt lat="43.55335" lon="2.92342">
        <ele>198.8</ele>
        <time>2017-04-16T07:18:06.000Z</time>
      </trkpt>
      <trkpt lat="43.55334" lon="2.92346">
        <ele>199.2</ele>
        <time>2017-04-16T07:18:07.000Z</time>
      </trkpt>
      <trkpt lat="43.55333" lon="2.92349">
        <ele>199.4</ele>
        <time>2017-04-16T07:18:10.000Z</time>
      </trkpt>
      <trkpt lat="43.55331" lon="2.92352">
        <ele>200</ele>
        <time>2017-04-16T07:18:12.000Z</time>
      </trkpt>
      <trkpt lat="43.5533" lon="2.92355">
        <ele>200.4</ele>
        <time>2017-04-16T07:18:13.000Z</time>
      </trkpt>
      <trkpt lat="43.55328" lon="2.92358">
        <ele>200.8</ele>
        <time>2017-04-16T07:18:16.000Z</time>
      </trkpt>
      <trkpt lat="43.55327" lon="2.9236">
        <ele>201.2</ele>
        <time>2017-04-16T07:18:18.000Z</time>
      </trkpt>
      <trkpt lat="43.55325" lon="2.92362">
        <ele>201.4</ele>
        <time>2017-04-16T07:18:19.000Z</time>
      </trkpt>
      <trkpt lat="43.5532" lon="2.92367">
        <ele>202.2</ele>
        <time>2017-04-16T07:18:25.000Z</time>
      </trkpt>
      <trkpt lat="43.55318" lon="2.92369">
        <ele>202.6</ele>
        <time>2017-04-16T07:18:27.000Z</time>
      </trkpt>
      <trkpt lat="43.55316" lon="2.9237">
        <ele>203</ele>
        <time>2017-04-16T07:18:29.000Z</time>
      </trkpt>
      <trkpt lat="43.55314" lon="2.92372">
        <ele>203.6</ele>
        <time>2017-04-16T07:18:31.000Z</time>
      </trkpt>
      <trkpt lat="43.55313" lon="2.92372">
        <ele>204</ele>
        <time>2017-04-16T07:18:32.000Z</time>
      </trkpt>
      <trkpt lat="43.55312" lon="2.92372">
        <ele>204.2</ele>
        <time>2017-04-16T07:18:33.000Z</time>
      </trkpt>
      <trkpt lat="43.55311" lon="2.92372">
        <ele>204.8</ele>
        <time>2017-04-16T07:18:35.000Z</time>
      </trkpt>
      <trkpt lat="43.55311" lon="2.92371">
        <ele>205.2</ele>
        <time>2017-04-16T07:18:37.000Z</time>
      </trkpt>
      <trkpt lat="43.55311" lon="2.92368">
        <ele>205.4</ele>
        <time>2017-04-16T07:18:39.000Z</time>
      </trkpt>
      <trkpt lat="43.55309" lon="2.92358">
        <ele>206</ele>
        <time>2017-04-16T07:18:43.000Z</time>
      </trkpt>
      <trkpt lat="43.55308" lon="2.92353">
        <ele>206.8</ele>
        <time>2017-04-16T07:18:47.000Z</time>
      </trkpt>
      <trkpt lat="43.55308" lon="2.92349">
        <ele>207.2</ele>
        <time>2017-04-16T07:18:49.000Z</time>
      </trkpt>
      <trkpt lat="43.55307" lon="2.92346">
        <ele>207.6</ele>
        <time>2017-04-16T07:18:51.000Z</time>
      </trkpt>
      <trkpt lat="43.55306" lon="2.92344">
        <ele>207.8</ele>
        <time>2017-04-16T07:18:53.000Z</time>
      </trkpt>
      <trkpt lat="43.55305" lon="2.92342">
        <ele>208.2</ele>
        <time>2017-04-16T07:18:54.000Z</time>
      </trkpt>
      <trkpt lat="43.55304" lon="2.9234">
        <ele>208.6</ele>
        <time>2017-04-16T07:18:55.000Z</time>
      </trkpt>
      <trkpt lat="43.55303" lon="2.92337">
        <ele>209.2</ele>
        <time>2017-04-16T07:18:58.000Z</time>
      </trkpt>
      <trkpt lat="43.55301" lon="2.92334">
        <ele>209.6</ele>
        <time>2017-04-16T07:19:00.000Z</time>
      </trkpt>
      <trkpt lat="43.553" lon="2.92331">
        <ele>209.8</ele>
        <time>2017-04-16T07:19:01.000Z</time>
      </trkpt>
      <trkpt lat="43.55299" lon="2.92329">
        <ele>210.4</ele>
        <time>2017-04-16T07:19:05.000Z</time>
      </trkpt>
      <trkpt lat="43.55298" lon="2.92327">
        <ele>211</ele>
        <time>2017-04-16T07:19:07.000Z</time>
      </trkpt>
      <trkpt lat="43.55297" lon="2.92327">
        <ele>211.4</ele>
        <time>2017-04-16T07:19:09.000Z</time>
      </trkpt>
      <trkpt lat="43.55295" lon="2.92329">
        <ele>211.8</ele>
        <time>2017-04-16T07:19:11.000Z</time>
      </trkpt>
      <trkpt lat="43.55294" lon="2.92331">
        <ele>212</ele>
        <time>2017-04-16T07:19:13.000Z</time>
      </trkpt>
      <trkpt lat="43.55292" lon="2.92335">
        <ele>212.6</ele>
        <time>2017-04-16T07:19:16.000Z</time>
      </trkpt>
      <trkpt lat="43.55292" lon="2.92338">
        <ele>213</ele>
        <time>2017-04-16T07:19:18.000Z</time>
      </trkpt>
      <trkpt lat="43.55291" lon="2.9234">
        <ele>213.6</ele>
        <time>2017-04-16T07:19:19.000Z</time>
      </trkpt>
      <trkpt lat="43.5529" lon="2.92342">
        <ele>213.6</ele>
        <time>2017-04-16T07:19:21.000Z</time>
      </trkpt>
      <trkpt lat="43.55289" lon="2.92343">
        <ele>213.8</ele>
        <time>2017-04-16T07:19:22.000Z</time>
      </trkpt>
      <trkpt lat="43.55287" lon="2.92345">
        <ele>214.2</ele>
        <time>2017-04-16T07:19:24.000Z</time>
      </trkpt>
      <trkpt lat="43.55284" lon="2.92347">
        <ele>214.4</ele>
        <time>2017-04-16T07:19:27.000Z</time>
      </trkpt>
      <trkpt lat="43.5528" lon="2.92347">
        <ele>215</ele>
        <time>2017-04-16T07:19:30.000Z</time>
      </trkpt>
      <trkpt lat="43.55278" lon="2.92346">
        <ele>215.4</ele>
        <time>2017-04-16T07:19:31.000Z</time>
      </trkpt>
      <trkpt lat="43.55275" lon="2.92345">
        <ele>216</ele>
        <time>2017-04-16T07:19:34.000Z</time>
      </trkpt>
      <trkpt lat="43.55274" lon="2.92344">
        <ele>216</ele>
        <time>2017-04-16T07:19:35.000Z</time>
      </trkpt>
      <trkpt lat="43.55272" lon="2.92341">
        <ele>216.8</ele>
        <time>2017-04-16T07:19:37.000Z</time>
      </trkpt>
      <trkpt lat="43.55272" lon="2.9234">
        <ele>217</ele>
        <time>2017-04-16T07:19:39.000Z</time>
      </trkpt>
      <trkpt lat="43.55271" lon="2.92336">
        <ele>217.8</ele>
        <time>2017-04-16T07:19:42.000Z</time>
      </trkpt>
      <trkpt lat="43.55271" lon="2.92334">
        <ele>218</ele>
        <time>2017-04-16T07:19:43.000Z</time>
      </trkpt>
      <trkpt lat="43.55271" lon="2.9233">
        <ele>218.6</ele>
        <time>2017-04-16T07:19:46.000Z</time>
      </trkpt>
      <trkpt lat="43.55268" lon="2.92323">
        <ele>219.4</ele>
        <time>2017-04-16T07:19:52.000Z</time>
      </trkpt>
      <trkpt lat="43.55267" lon="2.92322">
        <ele>219.6</ele>
        <time>2017-04-16T07:19:53.000Z</time>
      </trkpt>
      <trkpt lat="43.55265" lon="2.92318">
        <ele>220.4</ele>
        <time>2017-04-16T07:19:55.000Z</time>
      </trkpt>
      <trkpt lat="43.55263" lon="2.92318">
        <ele>220.4</ele>
        <time>2017-04-16T07:19:57.000Z</time>
      </trkpt>
      <trkpt lat="43.55262" lon="2.92317">
        <ele>220.6</ele>
        <time>2017-04-16T07:19:58.000Z</time>
      </trkpt>
      <trkpt lat="43.5526" lon="2.92315">
        <ele>221</ele>
        <time>2017-04-16T07:20:00.000Z</time>
      </trkpt>
      <trkpt lat="43.55253" lon="2.9231">
        <ele>221.6</ele>
        <time>2017-04-16T07:20:06.000Z</time>
      </trkpt>
      <trkpt lat="43.55251" lon="2.92308">
        <ele>222.2</ele>
        <time>2017-04-16T07:20:07.000Z</time>
      </trkpt>
      <trkpt lat="43.55248" lon="2.92307">
        <ele>222.6</ele>
        <time>2017-04-16T07:20:10.000Z</time>
      </trkpt>
      <trkpt lat="43.55246" lon="2.92306">
        <ele>222.8</ele>
        <time>2017-04-16T07:20:12.000Z</time>
      </trkpt>
      <trkpt lat="43.55244" lon="2.92305">
        <ele>223</ele>
        <time>2017-04-16T07:20:13.000Z</time>
      </trkpt>
      <trkpt lat="43.55238" lon="2.92302">
        <ele>223.6</ele>
        <time>2017-04-16T07:20:19.000Z</time>
      </trkpt>
      <trkpt lat="43.55236" lon="2.92301">
        <ele>224.2</ele>
        <time>2017-04-16T07:20:21.000Z</time>
      </trkpt>
      <trkpt lat="43.55233" lon="2.923">
        <ele>224.6</ele>
        <time>2017-04-16T07:20:23.000Z</time>
      </trkpt>
      <trkpt lat="43.55232" lon="2.92299">
        <ele>224.6</ele>
        <time>2017-04-16T07:20:24.000Z</time>
      </trkpt>
      <trkpt lat="43.5523" lon="2.92299">
        <ele>224.8</ele>
        <time>2017-04-16T07:20:25.000Z</time>
      </trkpt>
      <trkpt lat="43.55228" lon="2.92297">
        <ele>225</ele>
        <time>2017-04-16T07:20:27.000Z</time>
      </trkpt>
      <trkpt lat="43.55226" lon="2.92296">
        <ele>225.2</ele>
        <time>2017-04-16T07:20:29.000Z</time>
      </trkpt>
      <trkpt lat="43.55216" lon="2.92289">
        <ele>225.8</ele>
        <time>2017-04-16T07:20:37.000Z</time>
      </trkpt>
      <trkpt lat="43.55215" lon="2.92289">
        <ele>226</ele>
        <time>2017-04-16T07:20:39.000Z</time>
      </trkpt>
      <trkpt lat="43.55213" lon="2.92288">
        <ele>226.4</ele>
        <time>2017-04-16T07:20:41.000Z</time>
      </trkpt>
      <trkpt lat="43.5521" lon="2.92287">
        <ele>226.8</ele>
        <time>2017-04-16T07:20:43.000Z</time>
      </trkpt>
      <trkpt lat="43.55207" lon="2.92285">
        <ele>227</ele>
        <time>2017-04-16T07:20:45.000Z</time>
      </trkpt>
      <trkpt lat="43.55206" lon="2.92284">
        <ele>227.2</ele>
        <time>2017-04-16T07:20:46.000Z</time>
      </trkpt>
      <trkpt lat="43.552" lon="2.92278">
        <ele>227.8</ele>
        <time>2017-04-16T07:20:52.000Z</time>
      </trkpt>
      <trkpt lat="43.55198" lon="2.92277">
        <ele>228</ele>
        <time>2017-04-16T07:20:54.000Z</time>
      </trkpt>
      <trkpt lat="43.55195" lon="2.92276">
        <ele>228.4</ele>
        <time>2017-04-16T07:20:55.000Z</time>
      </trkpt>
      <trkpt lat="43.55192" lon="2.92276">
        <ele>228.8</ele>
        <time>2017-04-16T07:20:57.000Z</time>
      </trkpt>
      <trkpt lat="43.5519" lon="2.92275">
        <ele>229.2</ele>
        <time>2017-04-16T07:20:59.000Z</time>
      </trkpt>
      <trkpt lat="43.55187" lon="2.92274">
        <ele>229.4</ele>
        <time>2017-04-16T07:21:01.000Z</time>
      </trkpt>
      <trkpt lat="43.55184" lon="2.92269">
        <ele>229.8</ele>
        <time>2017-04-16T07:21:06.000Z</time>
      </trkpt>
      <trkpt lat="43.55182" lon="2.92269">
        <ele>230</ele>
        <time>2017-04-16T07:21:07.000Z</time>
      </trkpt>
      <trkpt lat="43.55181" lon="2.92267">
        <ele>230.6</ele>
        <time>2017-04-16T07:21:09.000Z</time>
      </trkpt>
      <trkpt lat="43.55179" lon="2.92266">
        <ele>231</ele>
        <time>2017-04-16T07:21:11.000Z</time>
      </trkpt>
      <trkpt lat="43.55178" lon="2.92266">
        <ele>231.4</ele>
        <time>2017-04-16T07:21:13.000Z</time>
      </trkpt>
      <trkpt lat="43.55178" lon="2.92265">
        <ele>231.6</ele>
        <time>2017-04-16T07:21:16.000Z</time>
      </trkpt>
      <trkpt lat="43.55173" lon="2.92264">
        <ele>232.2</ele>
        <time>2017-04-16T07:21:20.000Z</time>
      </trkpt>
      <trkpt lat="43.55171" lon="2.92264">
        <ele>232.8</ele>
        <time>2017-04-16T07:21:22.000Z</time>
      </trkpt>
      <trkpt lat="43.55169" lon="2.92263">
        <ele>233.2</ele>
        <time>2017-04-16T07:21:25.000Z</time>
      </trkpt>
      <trkpt lat="43.55168" lon="2.92262">
        <ele>233.6</ele>
        <time>2017-04-16T07:21:26.000Z</time>
      </trkpt>
      <trkpt lat="43.55166" lon="2.92261">
        <ele>233.8</ele>
        <time>2017-04-16T07:21:29.000Z</time>
      </trkpt>
      <trkpt lat="43.55164" lon="2.92257">
        <ele>234.4</ele>
        <time>2017-04-16T07:21:33.000Z</time>
      </trkpt>
      <trkpt lat="43.55162" lon="2.92256">
        <ele>235</ele>
        <time>2017-04-16T07:21:34.000Z</time>
      </trkpt>
      <trkpt lat="43.55161" lon="2.92255">
        <ele>235.4</ele>
        <time>2017-04-16T07:21:37.000Z</time>
      </trkpt>
      <trkpt lat="43.55159" lon="2.92256">
        <ele>235.6</ele>
        <time>2017-04-16T07:21:38.000Z</time>
      </trkpt>
      <trkpt lat="43.55158" lon="2.92258">
        <ele>235.8</ele>
        <time>2017-04-16T07:21:40.000Z</time>
      </trkpt>
      <trkpt lat="43.55158" lon="2.92259">
        <ele>236.2</ele>
        <time>2017-04-16T07:21:41.000Z</time>
      </trkpt>
      <trkpt lat="43.55159" lon="2.92262">
        <ele>236.8</ele>
        <time>2017-04-16T07:21:43.000Z</time>
      </trkpt>
      <trkpt lat="43.5516" lon="2.92265">
        <ele>237.4</ele>
        <time>2017-04-16T07:21:46.000Z</time>
      </trkpt>
      <trkpt lat="43.5516" lon="2.92266">
        <ele>237.6</ele>
        <time>2017-04-16T07:21:47.000Z</time>
      </trkpt>
      <trkpt lat="43.55161" lon="2.92267">
        <ele>237.8</ele>
        <time>2017-04-16T07:21:48.000Z</time>
      </trkpt>
      <trkpt lat="43.55163" lon="2.92271">
        <ele>238</ele>
        <time>2017-04-16T07:21:51.000Z</time>
      </trkpt>
      <trkpt lat="43.55163" lon="2.92273">
        <ele>238.2</ele>
        <time>2017-04-16T07:21:52.000Z</time>
      </trkpt>
      <trkpt lat="43.55164" lon="2.92277">
        <ele>238.8</ele>
        <time>2017-04-16T07:21:55.000Z</time>
      </trkpt>
      <trkpt lat="43.55164" lon="2.92279">
        <ele>239.4</ele>
        <time>2017-04-16T07:21:57.000Z</time>
      </trkpt>
      <trkpt lat="43.55163" lon="2.9228">
        <ele>239.8</ele>
        <time>2017-04-16T07:21:59.000Z</time>
      </trkpt>
      <trkpt lat="43.55162" lon="2.92281">
        <ele>240.2</ele>
        <time>2017-04-16T07:22:01.000Z</time>
      </trkpt>
      <trkpt lat="43.55159" lon="2.92281">
        <ele>240.6</ele>
        <time>2017-04-16T07:22:03.000Z</time>
      </trkpt>
      <trkpt lat="43.55158" lon="2.9228">
        <ele>241</ele>
        <time>2017-04-16T07:22:04.000Z</time>
      </trkpt>
      <trkpt lat="43.55158" lon="2.92279">
        <ele>241.2</ele>
        <time>2017-04-16T07:22:05.000Z</time>
      </trkpt>
      <trkpt lat="43.55157" lon="2.92278">
        <ele>241.4</ele>
        <time>2017-04-16T07:22:06.000Z</time>
      </trkpt>
      <trkpt lat="43.55155" lon="2.92275">
        <ele>242</ele>
        <time>2017-04-16T07:22:08.000Z</time>
      </trkpt>
      <trkpt lat="43.55154" lon="2.92272">
        <ele>242.4</ele>
        <time>2017-04-16T07:22:10.000Z</time>
      </trkpt>
      <trkpt lat="43.55151" lon="2.9227">
        <ele>242.6</ele>
        <time>2017-04-16T07:22:12.000Z</time>
      </trkpt>
      <trkpt lat="43.55146" lon="2.92264">
        <ele>243.2</ele>
        <time>2017-04-16T07:22:17.000Z</time>
      </trkpt>
      <trkpt lat="43.55143" lon="2.9226">
        <ele>243.6</ele>
        <time>2017-04-16T07:22:19.000Z</time>
      </trkpt>
      <trkpt lat="43.55142" lon="2.9226">
        <ele>243.8</ele>
        <time>2017-04-16T07:22:21.000Z</time>
      </trkpt>
      <trkpt lat="43.55139" lon="2.92258">
        <ele>244.4</ele>
        <time>2017-04-16T07:22:24.000Z</time>
      </trkpt>
      <trkpt lat="43.55136" lon="2.92256">
        <ele>244.8</ele>
        <time>2017-04-16T07:22:25.000Z</time>
      </trkpt>
      <trkpt lat="43.55135" lon="2.92255">
        <ele>244.8</ele>
        <time>2017-04-16T07:22:27.000Z</time>
      </trkpt>
      <trkpt lat="43.55132" lon="2.92253">
        <ele>245.8</ele>
        <time>2017-04-16T07:22:30.000Z</time>
      </trkpt>
      <trkpt lat="43.55131" lon="2.92253">
        <ele>246</ele>
        <time>2017-04-16T07:22:31.000Z</time>
      </trkpt>
      <trkpt lat="43.55129" lon="2.92252">
        <ele>246.6</ele>
        <time>2017-04-16T07:22:34.000Z</time>
      </trkpt>
      <trkpt lat="43.55127" lon="2.92255">
        <ele>247.2</ele>
        <time>2017-04-16T07:22:36.000Z</time>
      </trkpt>
      <trkpt lat="43.55127" lon="2.92256">
        <ele>247.4</ele>
        <time>2017-04-16T07:22:37.000Z</time>
      </trkpt>
      <trkpt lat="43.55127" lon="2.92258">
        <ele>247.8</ele>
        <time>2017-04-16T07:22:38.000Z</time>
      </trkpt>
      <trkpt lat="43.55126" lon="2.92261">
        <ele>248.2</ele>
        <time>2017-04-16T07:22:40.000Z</time>
      </trkpt>
      <trkpt lat="43.55127" lon="2.92264">
        <ele>248.6</ele>
        <time>2017-04-16T07:22:42.000Z</time>
      </trkpt>
      <trkpt lat="43.55127" lon="2.92265">
        <ele>248.8</ele>
        <time>2017-04-16T07:22:43.000Z</time>
      </trkpt>
      <trkpt lat="43.55128" lon="2.92267">
        <ele>249</ele>
        <time>2017-04-16T07:22:44.000Z</time>
      </trkpt>
      <trkpt lat="43.55131" lon="2.92269">
        <ele>249.4</ele>
        <time>2017-04-16T07:22:46.000Z</time>
      </trkpt>
      <trkpt lat="43.55132" lon="2.92272">
        <ele>250</ele>
        <time>2017-04-16T07:22:48.000Z</time>
      </trkpt>
      <trkpt lat="43.55133" lon="2.92273">
        <ele>250.2</ele>
        <time>2017-04-16T07:22:49.000Z</time>
      </trkpt>
      <trkpt lat="43.55133" lon="2.92275">
        <ele>250.4</ele>
        <time>2017-04-16T07:22:50.000Z</time>
      </trkpt>
      <trkpt lat="43.55133" lon="2.92278">
        <ele>250.8</ele>
        <time>2017-04-16T07:22:52.000Z</time>
      </trkpt>
      <trkpt lat="43.55133" lon="2.9228">
        <ele>251.2</ele>
        <time>2017-04-16T07:22:54.000Z</time>
      </trkpt>
      <trkpt lat="43.55134" lon="2.92282">
        <ele>251.4</ele>
        <time>2017-04-16T07:22:55.000Z</time>
      </trkpt>
      <trkpt lat="43.55136" lon="2.92285">
        <ele>251.8</ele>
        <time>2017-04-16T07:22:59.000Z</time>
      </trkpt>
      <trkpt lat="43.55138" lon="2.92287">
        <ele>252.4</ele>
        <time>2017-04-16T07:23:01.000Z</time>
      </trkpt>
      <trkpt lat="43.55139" lon="2.92288">
        <ele>252.6</ele>
        <time>2017-04-16T07:23:02.000Z</time>
      </trkpt>
      <trkpt lat="43.5514" lon="2.9229">
        <ele>253</ele>
        <time>2017-04-16T07:23:04.000Z</time>
      </trkpt>
      <trkpt lat="43.55142" lon="2.92292">
        <ele>253.4</ele>
        <time>2017-04-16T07:23:07.000Z</time>
      </trkpt>
      <trkpt lat="43.55142" lon="2.92293">
        <ele>253.4</ele>
        <time>2017-04-16T07:23:08.000Z</time>
      </trkpt>
      <trkpt lat="43.55143" lon="2.92294">
        <ele>253.8</ele>
        <time>2017-04-16T07:23:10.000Z</time>
      </trkpt>
      <trkpt lat="43.55144" lon="2.92295">
        <ele>254.2</ele>
        <time>2017-04-16T07:23:11.000Z</time>
      </trkpt>
      <trkpt lat="43.55144" lon="2.92296">
        <ele>254.4</ele>
        <time>2017-04-16T07:23:12.000Z</time>
      </trkpt>
      <trkpt lat="43.55144" lon="2.92298">
        <ele>254.8</ele>
        <time>2017-04-16T07:23:14.000Z</time>
      </trkpt>
      <trkpt lat="43.55143" lon="2.92302">
        <ele>255.2</ele>
        <time>2017-04-16T07:23:16.000Z</time>
      </trkpt>
      <trkpt lat="43.55141" lon="2.92306">
        <ele>255.4</ele>
        <time>2017-04-16T07:23:18.000Z</time>
      </trkpt>
      <trkpt lat="43.5514" lon="2.92308">
        <ele>255.6</ele>
        <time>2017-04-16T07:23:19.000Z</time>
      </trkpt>
      <trkpt lat="43.55138" lon="2.9231">
        <ele>256.2</ele>
        <time>2017-04-16T07:23:21.000Z</time>
      </trkpt>
      <trkpt lat="43.55135" lon="2.9231">
        <ele>256.8</ele>
        <time>2017-04-16T07:23:24.000Z</time>
      </trkpt>
      <trkpt lat="43.55133" lon="2.92308">
        <ele>257.2</ele>
        <time>2017-04-16T07:23:26.000Z</time>
      </trkpt>
      <trkpt lat="43.55131" lon="2.92305">
        <ele>257.4</ele>
        <time>2017-04-16T07:23:28.000Z</time>
      </trkpt>
      <trkpt lat="43.5513" lon="2.92302">
        <ele>257.6</ele>
        <time>2017-04-16T07:23:29.000Z</time>
      </trkpt>
      <trkpt lat="43.55126" lon="2.92292">
        <ele>258.2</ele>
        <time>2017-04-16T07:23:35.000Z</time>
      </trkpt>
      <trkpt lat="43.55125" lon="2.92289">
        <ele>258.8</ele>
        <time>2017-04-16T07:23:37.000Z</time>
      </trkpt>
      <trkpt lat="43.55124" lon="2.92287">
        <ele>259</ele>
        <time>2017-04-16T07:23:38.000Z</time>
      </trkpt>
      <trkpt lat="43.5512" lon="2.92284">
        <ele>259.4</ele>
        <time>2017-04-16T07:23:41.000Z</time>
      </trkpt>
      <trkpt lat="43.55119" lon="2.92282">
        <ele>259.6</ele>
        <time>2017-04-16T07:23:42.000Z</time>
      </trkpt>
      <trkpt lat="43.55115" lon="2.92278">
        <ele>259.8</ele>
        <time>2017-04-16T07:23:45.000Z</time>
      </trkpt>
      <trkpt lat="43.55112" lon="2.92276">
        <ele>260.2</ele>
        <time>2017-04-16T07:23:48.000Z</time>
      </trkpt>
      <trkpt lat="43.5511" lon="2.92277">
        <ele>260.8</ele>
        <time>2017-04-16T07:23:50.000Z</time>
      </trkpt>
      <trkpt lat="43.55109" lon="2.92279">
        <ele>261.2</ele>
        <time>2017-04-16T07:23:52.000Z</time>
      </trkpt>
      <trkpt lat="43.55109" lon="2.9228">
        <ele>261.6</ele>
        <time>2017-04-16T07:23:53.000Z</time>
      </trkpt>
      <trkpt lat="43.55108" lon="2.92284">
        <ele>262.2</ele>
        <time>2017-04-16T07:23:55.000Z</time>
      </trkpt>
      <trkpt lat="43.55109" lon="2.92286">
        <ele>262.6</ele>
        <time>2017-04-16T07:23:56.000Z</time>
      </trkpt>
      <trkpt lat="43.55111" lon="2.92291">
        <ele>263.2</ele>
        <time>2017-04-16T07:23:59.000Z</time>
      </trkpt>
      <trkpt lat="43.55111" lon="2.92292">
        <ele>263.4</ele>
        <time>2017-04-16T07:24:00.000Z</time>
      </trkpt>
      <trkpt lat="43.55112" lon="2.92296">
        <ele>264</ele>
        <time>2017-04-16T07:24:01.000Z</time>
      </trkpt>
      <trkpt lat="43.55113" lon="2.92299">
        <ele>264.6</ele>
        <time>2017-04-16T07:24:04.000Z</time>
      </trkpt>
      <trkpt lat="43.55114" lon="2.92303">
        <ele>265</ele>
        <time>2017-04-16T07:24:06.000Z</time>
      </trkpt>
      <trkpt lat="43.55114" lon="2.92306">
        <ele>265.4</ele>
        <time>2017-04-16T07:24:07.000Z</time>
      </trkpt>
      <trkpt lat="43.55115" lon="2.92309">
        <ele>265.8</ele>
        <time>2017-04-16T07:24:10.000Z</time>
      </trkpt>
      <trkpt lat="43.55116" lon="2.92316">
        <ele>266.4</ele>
        <time>2017-04-16T07:24:14.000Z</time>
      </trkpt>
      <trkpt lat="43.55116" lon="2.92318">
        <ele>266.8</ele>
        <time>2017-04-16T07:24:15.000Z</time>
      </trkpt>
      <trkpt lat="43.55117" lon="2.92324">
        <ele>267.4</ele>
        <time>2017-04-16T07:24:18.000Z</time>
      </trkpt>
      <trkpt lat="43.55116" lon="2.92328">
        <ele>267.8</ele>
        <time>2017-04-16T07:24:19.000Z</time>
      </trkpt>
      <trkpt lat="43.55116" lon="2.92331">
        <ele>268</ele>
        <time>2017-04-16T07:24:22.000Z</time>
      </trkpt>
      <trkpt lat="43.55115" lon="2.92333">
        <ele>268.4</ele>
        <time>2017-04-16T07:24:23.000Z</time>
      </trkpt>
      <trkpt lat="43.55114" lon="2.92336">
        <ele>269</ele>
        <time>2017-04-16T07:24:25.000Z</time>
      </trkpt>
      <trkpt lat="43.55113" lon="2.92339">
        <ele>269.4</ele>
        <time>2017-04-16T07:24:27.000Z</time>
      </trkpt>
      <trkpt lat="43.55112" lon="2.9234">
        <ele>269.6</ele>
        <time>2017-04-16T07:24:28.000Z</time>
      </trkpt>
      <trkpt lat="43.55111" lon="2.92341">
        <ele>269.8</ele>
        <time>2017-04-16T07:24:29.000Z</time>
      </trkpt>
      <trkpt lat="43.55109" lon="2.92344">
        <ele>270.2</ele>
        <time>2017-04-16T07:24:31.000Z</time>
      </trkpt>
      <trkpt lat="43.55103" lon="2.92348">
        <ele>270.8</ele>
        <time>2017-04-16T07:24:35.000Z</time>
      </trkpt>
      <trkpt lat="43.551" lon="2.9235">
        <ele>271.4</ele>
        <time>2017-04-16T07:24:37.000Z</time>
      </trkpt>
      <trkpt lat="43.55099" lon="2.92351">
        <ele>271.6</ele>
        <time>2017-04-16T07:24:38.000Z</time>
      </trkpt>
      <trkpt lat="43.55098" lon="2.92353">
        <ele>271.8</ele>
        <time>2017-04-16T07:24:39.000Z</time>
      </trkpt>
      <trkpt lat="43.55096" lon="2.92354">
        <ele>272</ele>
        <time>2017-04-16T07:24:40.000Z</time>
      </trkpt>
      <trkpt lat="43.55094" lon="2.92356">
        <ele>272.2</ele>
        <time>2017-04-16T07:24:42.000Z</time>
      </trkpt>
      <trkpt lat="43.55093" lon="2.92358">
        <ele>272.6</ele>
        <time>2017-04-16T07:24:44.000Z</time>
      </trkpt>
      <trkpt lat="43.55091" lon="2.9236">
        <ele>273</ele>
        <time>2017-04-16T07:24:46.000Z</time>
      </trkpt>
      <trkpt lat="43.55091" lon="2.9236">
        <ele>273.2</ele>
        <time>2017-04-16T07:24:47.000Z</time>
      </trkpt>
      <trkpt lat="43.55088" lon="2.92362">
        <ele>273.8</ele>
        <time>2017-04-16T07:24:50.000Z</time>
      </trkpt>
      <trkpt lat="43.55087" lon="2.92363">
        <ele>274</ele>
        <time>2017-04-16T07:24:51.000Z</time>
      </trkpt>
      <trkpt lat="43.55082" lon="2.92367">
        <ele>274.4</ele>
        <time>2017-04-16T07:24:54.000Z</time>
      </trkpt>
      <trkpt lat="43.55075" lon="2.92371">
        <ele>275</ele>
        <time>2017-04-16T07:24:57.000Z</time>
      </trkpt>
      <trkpt lat="43.55072" lon="2.92373">
        <ele>275.6</ele>
        <time>2017-04-16T07:24:59.000Z</time>
      </trkpt>
      <trkpt lat="43.55068" lon="2.92374">
        <ele>276</ele>
        <time>2017-04-16T07:25:01.000Z</time>
      </trkpt>
      <trkpt lat="43.55066" lon="2.92376">
        <ele>276.4</ele>
        <time>2017-04-16T07:25:03.000Z</time>
      </trkpt>
      <trkpt lat="43.55063" lon="2.92378">
        <ele>276.8</ele>
        <time>2017-04-16T07:25:05.000Z</time>
      </trkpt>
      <trkpt lat="43.55061" lon="2.92379">
        <ele>277.4</ele>
        <time>2017-04-16T07:25:07.000Z</time>
      </trkpt>
      <trkpt lat="43.55059" lon="2.92381">
        <ele>277.8</ele>
        <time>2017-04-16T07:25:09.000Z</time>
      </trkpt>
      <trkpt lat="43.55058" lon="2.92382">
        <ele>278.2</ele>
        <time>2017-04-16T07:25:10.000Z</time>
      </trkpt>
      <trkpt lat="43.55055" lon="2.92383">
        <ele>278.6</ele>
        <time>2017-04-16T07:25:13.000Z</time>
      </trkpt>
      <trkpt lat="43.55053" lon="2.92384">
        <ele>279</ele>
        <time>2017-04-16T07:25:15.000Z</time>
      </trkpt>
      <trkpt lat="43.5505" lon="2.92383">
        <ele>279.8</ele>
        <time>2017-04-16T07:25:17.000Z</time>
      </trkpt>
      <trkpt lat="43.55047" lon="2.92383">
        <ele>280.2</ele>
        <time>2017-04-16T07:25:19.000Z</time>
      </trkpt>
      <trkpt lat="43.55046" lon="2.92382">
        <ele>280.4</ele>
        <time>2017-04-16T07:25:20.000Z</time>
      </trkpt>
      <trkpt lat="43.55042" lon="2.92379">
        <ele>281.2</ele>
        <time>2017-04-16T07:25:23.000Z</time>
      </trkpt>
      <trkpt lat="43.55042" lon="2.92376">
        <ele>281.8</ele>
        <time>2017-04-16T07:25:25.000Z</time>
      </trkpt>
      <trkpt lat="43.55043" lon="2.92372">
        <ele>282.2</ele>
        <time>2017-04-16T07:25:27.000Z</time>
      </trkpt>
      <trkpt lat="43.55044" lon="2.9237">
        <ele>282.4</ele>
        <time>2017-04-16T07:25:28.000Z</time>
      </trkpt>
      <trkpt lat="43.55045" lon="2.92369">
        <ele>282.6</ele>
        <time>2017-04-16T07:25:29.000Z</time>
      </trkpt>
      <trkpt lat="43.55046" lon="2.92367">
        <ele>283</ele>
        <time>2017-04-16T07:25:30.000Z</time>
      </trkpt>
      <trkpt lat="43.55048" lon="2.92364">
        <ele>283.6</ele>
        <time>2017-04-16T07:25:32.000Z</time>
      </trkpt>
      <trkpt lat="43.55051" lon="2.92362">
        <ele>284.2</ele>
        <time>2017-04-16T07:25:34.000Z</time>
      </trkpt>
      <trkpt lat="43.55051" lon="2.9236">
        <ele>284.4</ele>
        <time>2017-04-16T07:25:35.000Z</time>
      </trkpt>
      <trkpt lat="43.55052" lon="2.92355">
        <ele>285</ele>
        <time>2017-04-16T07:25:38.000Z</time>
      </trkpt>
      <trkpt lat="43.55048" lon="2.92351">
        <ele>285.4</ele>
        <time>2017-04-16T07:25:42.000Z</time>
      </trkpt>
      <trkpt lat="43.55046" lon="2.92351">
        <ele>285.8</ele>
        <time>2017-04-16T07:25:43.000Z</time>
      </trkpt>
      <trkpt lat="43.55045" lon="2.92351">
        <ele>286</ele>
        <time>2017-04-16T07:25:44.000Z</time>
      </trkpt>
      <trkpt lat="43.5504" lon="2.92352">
        <ele>286.8</ele>
        <time>2017-04-16T07:25:47.000Z</time>
      </trkpt>
      <trkpt lat="43.5504" lon="2.92352">
        <ele>287</ele>
        <time>2017-04-16T07:25:48.000Z</time>
      </trkpt>
      <trkpt lat="43.55036" lon="2.92353">
        <ele>287.4</ele>
        <time>2017-04-16T07:25:51.000Z</time>
      </trkpt>
      <trkpt lat="43.55034" lon="2.92353">
        <ele>287.6</ele>
        <time>2017-04-16T07:25:53.000Z</time>
      </trkpt>
      <trkpt lat="43.55032" lon="2.92354">
        <ele>288</ele>
        <time>2017-04-16T07:25:55.000Z</time>
      </trkpt>
      <trkpt lat="43.55029" lon="2.92354">
        <ele>288.6</ele>
        <time>2017-04-16T07:25:57.000Z</time>
      </trkpt>
      <trkpt lat="43.55027" lon="2.92354">
        <ele>289</ele>
        <time>2017-04-16T07:25:59.000Z</time>
      </trkpt>
      <trkpt lat="43.55026" lon="2.92353">
        <ele>289.2</ele>
        <time>2017-04-16T07:26:00.000Z</time>
      </trkpt>
      <trkpt lat="43.55025" lon="2.92352">
        <ele>289.2</ele>
        <time>2017-04-16T07:26:01.000Z</time>
      </trkpt>
      <trkpt lat="43.55022" lon="2.92349">
        <ele>289.8</ele>
        <time>2017-04-16T07:26:03.000Z</time>
      </trkpt>
      <trkpt lat="43.55021" lon="2.92345">
        <ele>290.2</ele>
        <time>2017-04-16T07:26:05.000Z</time>
      </trkpt>
      <trkpt lat="43.55021" lon="2.92342">
        <ele>290.8</ele>
        <time>2017-04-16T07:26:07.000Z</time>
      </trkpt>
      <trkpt lat="43.55021" lon="2.9234">
        <ele>291</ele>
        <time>2017-04-16T07:26:08.000Z</time>
      </trkpt>
      <trkpt lat="43.55021" lon="2.92339">
        <ele>291.2</ele>
        <time>2017-04-16T07:26:09.000Z</time>
      </trkpt>
      <trkpt lat="43.55021" lon="2.92337">
        <ele>291.2</ele>
        <time>2017-04-16T07:26:10.000Z</time>
      </trkpt>
      <trkpt lat="43.55022" lon="2.9233">
        <ele>292</ele>
        <time>2017-04-16T07:26:15.000Z</time>
      </trkpt>
      <trkpt lat="43.55023" lon="2.92327">
        <ele>292.6</ele>
        <time>2017-04-16T07:26:17.000Z</time>
      </trkpt>
      <trkpt lat="43.55023" lon="2.92323">
        <ele>293</ele>
        <time>2017-04-16T07:26:19.000Z</time>
      </trkpt>
      <trkpt lat="43.55023" lon="2.92319">
        <ele>293.4</ele>
        <time>2017-04-16T07:26:21.000Z</time>
      </trkpt>
      <trkpt lat="43.55022" lon="2.92315">
        <ele>294</ele>
        <time>2017-04-16T07:26:23.000Z</time>
      </trkpt>
      <trkpt lat="43.55023" lon="2.92313">
        <ele>294.2</ele>
        <time>2017-04-16T07:26:24.000Z</time>
      </trkpt>
      <trkpt lat="43.55023" lon="2.9231">
        <ele>294.8</ele>
        <time>2017-04-16T07:26:26.000Z</time>
      </trkpt>
      <trkpt lat="43.55021" lon="2.92304">
        <ele>295.4</ele>
        <time>2017-04-16T07:26:29.000Z</time>
      </trkpt>
      <trkpt lat="43.55019" lon="2.923">
        <ele>295.8</ele>
        <time>2017-04-16T07:26:31.000Z</time>
      </trkpt>
      <trkpt lat="43.55018" lon="2.92297">
        <ele>296.4</ele>
        <time>2017-04-16T07:26:33.000Z</time>
      </trkpt>
      <trkpt lat="43.55019" lon="2.92293">
        <ele>297</ele>
        <time>2017-04-16T07:26:35.000Z</time>
      </trkpt>
      <trkpt lat="43.5502" lon="2.92289">
        <ele>297.4</ele>
        <time>2017-04-16T07:26:37.000Z</time>
      </trkpt>
      <trkpt lat="43.5502" lon="2.92285">
        <ele>297.8</ele>
        <time>2017-04-16T07:26:39.000Z</time>
      </trkpt>
      <trkpt lat="43.55017" lon="2.92278">
        <ele>298.6</ele>
        <time>2017-04-16T07:26:44.000Z</time>
      </trkpt>
      <trkpt lat="43.55014" lon="2.92275">
        <ele>299</ele>
        <time>2017-04-16T07:26:46.000Z</time>
      </trkpt>
      <trkpt lat="43.55012" lon="2.92272">
        <ele>299.4</ele>
        <time>2017-04-16T07:26:48.000Z</time>
      </trkpt>
      <trkpt lat="43.5501" lon="2.92269">
        <ele>299.8</ele>
        <time>2017-04-16T07:26:50.000Z</time>
      </trkpt>
      <trkpt lat="43.55008" lon="2.92268">
        <ele>300</ele>
        <time>2017-04-16T07:26:52.000Z</time>
      </trkpt>
      <trkpt lat="43.55006" lon="2.92268">
        <ele>300.4</ele>
        <time>2017-04-16T07:26:53.000Z</time>
      </trkpt>
      <trkpt lat="43.55005" lon="2.9227">
        <ele>301</ele>
        <time>2017-04-16T07:26:55.000Z</time>
      </trkpt>
      <trkpt lat="43.55003" lon="2.92275">
        <ele>301.6</ele>
        <time>2017-04-16T07:26:57.000Z</time>
      </trkpt>
      <trkpt lat="43.55002" lon="2.92277">
        <ele>301.8</ele>
        <time>2017-04-16T07:26:58.000Z</time>
      </trkpt>
      <trkpt lat="43.55001" lon="2.92279">
        <ele>301.8</ele>
        <time>2017-04-16T07:26:59.000Z</time>
      </trkpt>
      <trkpt lat="43.55" lon="2.92281">
        <ele>302</ele>
        <time>2017-04-16T07:27:00.000Z</time>
      </trkpt>
      <trkpt lat="43.54999" lon="2.92283">
        <ele>302.2</ele>
        <time>2017-04-16T07:27:01.000Z</time>
      </trkpt>
      <trkpt lat="43.54995" lon="2.92289">
        <ele>303</ele>
        <time>2017-04-16T07:27:05.000Z</time>
      </trkpt>
      <trkpt lat="43.54992" lon="2.9229">
        <ele>303.4</ele>
        <time>2017-04-16T07:27:07.000Z</time>
      </trkpt>
      <trkpt lat="43.54989" lon="2.92292">
        <ele>304</ele>
        <time>2017-04-16T07:27:09.000Z</time>
      </trkpt>
      <trkpt lat="43.54987" lon="2.92292">
        <ele>304</ele>
        <time>2017-04-16T07:27:10.000Z</time>
      </trkpt>
      <trkpt lat="43.54986" lon="2.92292">
        <ele>304.2</ele>
        <time>2017-04-16T07:27:11.000Z</time>
      </trkpt>
      <trkpt lat="43.54983" lon="2.92293">
        <ele>304.6</ele>
        <time>2017-04-16T07:27:13.000Z</time>
      </trkpt>
      <trkpt lat="43.54981" lon="2.92294">
        <ele>304.6</ele>
        <time>2017-04-16T07:27:14.000Z</time>
      </trkpt>
      <trkpt lat="43.54978" lon="2.92296">
        <ele>305.2</ele>
        <time>2017-04-16T07:27:16.000Z</time>
      </trkpt>
      <trkpt lat="43.54977" lon="2.92296">
        <ele>305.4</ele>
        <time>2017-04-16T07:27:17.000Z</time>
      </trkpt>
      <trkpt lat="43.54975" lon="2.92297">
        <ele>305.6</ele>
        <time>2017-04-16T07:27:18.000Z</time>
      </trkpt>
      <trkpt lat="43.54972" lon="2.92299">
        <ele>306</ele>
        <time>2017-04-16T07:27:20.000Z</time>
      </trkpt>
      <trkpt lat="43.54969" lon="2.92301">
        <ele>306.4</ele>
        <time>2017-04-16T07:27:22.000Z</time>
      </trkpt>
      <trkpt lat="43.54965" lon="2.92302">
        <ele>306.6</ele>
        <time>2017-04-16T07:27:24.000Z</time>
      </trkpt>
      <trkpt lat="43.54963" lon="2.92302">
        <ele>306.8</ele>
        <time>2017-04-16T07:27:25.000Z</time>
      </trkpt>
      <trkpt lat="43.54958" lon="2.92302">
        <ele>307.6</ele>
        <time>2017-04-16T07:27:28.000Z</time>
      </trkpt>
      <trkpt lat="43.54956" lon="2.923">
        <ele>308.2</ele>
        <time>2017-04-16T07:27:30.000Z</time>
      </trkpt>
      <trkpt lat="43.54954" lon="2.92298">
        <ele>308.4</ele>
        <time>2017-04-16T07:27:32.000Z</time>
      </trkpt>
      <trkpt lat="43.54954" lon="2.92296">
        <ele>308.6</ele>
        <time>2017-04-16T07:27:33.000Z</time>
      </trkpt>
      <trkpt lat="43.54954" lon="2.92295">
        <ele>308.8</ele>
        <time>2017-04-16T07:27:34.000Z</time>
      </trkpt>
      <trkpt lat="43.54953" lon="2.9229">
        <ele>309.4</ele>
        <time>2017-04-16T07:27:37.000Z</time>
      </trkpt>
      <trkpt lat="43.54954" lon="2.92286">
        <ele>310</ele>
        <time>2017-04-16T07:27:39.000Z</time>
      </trkpt>
      <trkpt lat="43.54954" lon="2.92282">
        <ele>310.4</ele>
        <time>2017-04-16T07:27:41.000Z</time>
      </trkpt>
      <trkpt lat="43.54954" lon="2.92279">
        <ele>310.8</ele>
        <time>2017-04-16T07:27:43.000Z</time>
      </trkpt>
      <trkpt lat="43.54954" lon="2.92277">
        <ele>311</ele>
        <time>2017-04-16T07:27:44.000Z</time>
      </trkpt>
      <trkpt lat="43.54954" lon="2.92276">
        <ele>311</ele>
        <time>2017-04-16T07:27:45.000Z</time>
      </trkpt>
      <trkpt lat="43.54955" lon="2.92274">
        <ele>311.6</ele>
        <time>2017-04-16T07:27:48.000Z</time>
      </trkpt>
      <trkpt lat="43.54956" lon="2.92273">
        <ele>312.2</ele>
        <time>2017-04-16T07:27:50.000Z</time>
      </trkpt>
      <trkpt lat="43.54955" lon="2.92271">
        <ele>312.6</ele>
        <time>2017-04-16T07:27:52.000Z</time>
      </trkpt>
      <trkpt lat="43.54953" lon="2.92268">
        <ele>313</ele>
        <time>2017-04-16T07:27:54.000Z</time>
      </trkpt>
      <trkpt lat="43.5495" lon="2.92265">
        <ele>313.2</ele>
        <time>2017-04-16T07:27:56.000Z</time>
      </trkpt>
      <trkpt lat="43.54948" lon="2.9226">
        <ele>313.8</ele>
        <time>2017-04-16T07:27:59.000Z</time>
      </trkpt>
      <trkpt lat="43.54946" lon="2.92256">
        <ele>314.2</ele>
        <time>2017-04-16T07:28:01.000Z</time>
      </trkpt>
      <trkpt lat="43.54944" lon="2.92253">
        <ele>314.6</ele>
        <time>2017-04-16T07:28:03.000Z</time>
      </trkpt>
      <trkpt lat="43.54943" lon="2.92251">
        <ele>314.8</ele>
        <time>2017-04-16T07:28:04.000Z</time>
      </trkpt>
      <trkpt lat="43.54942" lon="2.92249">
        <ele>315</ele>
        <time>2017-04-16T07:28:05.000Z</time>
      </trkpt>
      <trkpt lat="43.5494" lon="2.92245">
        <ele>315.2</ele>
        <time>2017-04-16T07:28:07.000Z</time>
      </trkpt>
      <trkpt lat="43.54939" lon="2.92243">
        <ele>315.4</ele>
        <time>2017-04-16T07:28:08.000Z</time>
      </trkpt>
      <trkpt lat="43.54937" lon="2.92239">
        <ele>315.8</ele>
        <time>2017-04-16T07:28:10.000Z</time>
      </trkpt>
      <trkpt lat="43.54936" lon="2.92237">
        <ele>316</ele>
        <time>2017-04-16T07:28:11.000Z</time>
      </trkpt>
      <trkpt lat="43.54934" lon="2.92234">
        <ele>316.8</ele>
        <time>2017-04-16T07:28:14.000Z</time>
      </trkpt>
      <trkpt lat="43.54933" lon="2.92233">
        <ele>317.2</ele>
        <time>2017-04-16T07:28:16.000Z</time>
      </trkpt>
      <trkpt lat="43.54931" lon="2.92232">
        <ele>317.4</ele>
        <time>2017-04-16T07:28:18.000Z</time>
      </trkpt>
      <trkpt lat="43.54927" lon="2.92231">
        <ele>318</ele>
        <time>2017-04-16T07:28:22.000Z</time>
      </trkpt>
      <trkpt lat="43.54925" lon="2.9223">
        <ele>318.6</ele>
        <time>2017-04-16T07:28:24.000Z</time>
      </trkpt>
      <trkpt lat="43.54923" lon="2.9223">
        <ele>319</ele>
        <time>2017-04-16T07:28:26.000Z</time>
      </trkpt>
      <trkpt lat="43.54921" lon="2.92231">
        <ele>319.2</ele>
        <time>2017-04-16T07:28:28.000Z</time>
      </trkpt>
      <trkpt lat="43.54919" lon="2.92231">
        <ele>319.6</ele>
        <time>2017-04-16T07:28:30.000Z</time>
      </trkpt>
      <trkpt lat="43.54915" lon="2.92231">
        <ele>320</ele>
        <time>2017-04-16T07:28:33.000Z</time>
      </trkpt>
      <trkpt lat="43.54913" lon="2.92232">
        <ele>320.6</ele>
        <time>2017-04-16T07:28:35.000Z</time>
      </trkpt>
      <trkpt lat="43.54913" lon="2.92232">
        <ele>320.8</ele>
        <time>2017-04-16T07:28:36.000Z</time>
      </trkpt>
      <trkpt lat="43.5491" lon="2.92231">
        <ele>321.4</ele>
        <time>2017-04-16T07:28:39.000Z</time>
      </trkpt>
      <trkpt lat="43.54909" lon="2.92231">
        <ele>321.6</ele>
        <time>2017-04-16T07:28:41.000Z</time>
      </trkpt>
      <trkpt lat="43.54908" lon="2.92233">
        <ele>322.2</ele>
        <time>2017-04-16T07:28:45.000Z</time>
      </trkpt>
      <trkpt lat="43.54908" lon="2.92233">
        <ele>322.4</ele>
        <time>2017-04-16T07:28:46.000Z</time>
      </trkpt>
      <trkpt lat="43.54907" lon="2.92232">
        <ele>323</ele>
        <time>2017-04-16T07:28:48.000Z</time>
      </trkpt>
      <trkpt lat="43.54907" lon="2.92232">
        <ele>323.2</ele>
        <time>2017-04-16T07:28:49.000Z</time>
      </trkpt>
      <trkpt lat="43.54906" lon="2.92231">
        <ele>323.4</ele>
        <time>2017-04-16T07:28:51.000Z</time>
      </trkpt>
      <trkpt lat="43.54905" lon="2.9223">
        <ele>323.8</ele>
        <time>2017-04-16T07:28:53.000Z</time>
      </trkpt>
      <trkpt lat="43.54903" lon="2.9223">
        <ele>324</ele>
        <time>2017-04-16T07:28:55.000Z</time>
      </trkpt>
      <trkpt lat="43.549" lon="2.9223">
        <ele>324.4</ele>
        <time>2017-04-16T07:28:57.000Z</time>
      </trkpt>
      <trkpt lat="43.54898" lon="2.92229">
        <ele>324.8</ele>
        <time>2017-04-16T07:28:59.000Z</time>
      </trkpt>
      <trkpt lat="43.549" lon="2.9223">
        <ele>325.4</ele>
        <time>2017-04-16T07:29:01.000Z</time>
      </trkpt>
      <trkpt lat="43.54902" lon="2.92231">
        <ele>325.6</ele>
        <time>2017-04-16T07:29:03.000Z</time>
      </trkpt>
      <trkpt lat="43.54901" lon="2.92229">
        <ele>326</ele>
        <time>2017-04-16T07:29:05.000Z</time>
      </trkpt>
      <trkpt lat="43.54898" lon="2.92229">
        <ele>326.4</ele>
        <time>2017-04-16T07:29:07.000Z</time>
      </trkpt>
      <trkpt lat="43.54893" lon="2.92229">
        <ele>327</ele>
        <time>2017-04-16T07:29:09.000Z</time>
      </trkpt>
      <trkpt lat="43.54889" lon="2.9223">
        <ele>327.4</ele>
        <time>2017-04-16T07:29:11.000Z</time>
      </trkpt>
      <trkpt lat="43.54886" lon="2.92233">
        <ele>327.8</ele>
        <time>2017-04-16T07:29:13.000Z</time>
      </trkpt>
      <trkpt lat="43.54884" lon="2.92235">
        <ele>328</ele>
        <time>2017-04-16T07:29:15.000Z</time>
      </trkpt>
      <trkpt lat="43.54876" lon="2.92243">
        <ele>328.8</ele>
        <time>2017-04-16T07:29:23.000Z</time>
      </trkpt>
      <trkpt lat="43.54871" lon="2.92249">
        <ele>329.2</ele>
        <time>2017-04-16T07:29:29.000Z</time>
      </trkpt>
      <trkpt lat="43.54869" lon="2.92251">
        <ele>329.6</ele>
        <time>2017-04-16T07:29:31.000Z</time>
      </trkpt>
      <trkpt lat="43.54867" lon="2.92252">
        <ele>330</ele>
        <time>2017-04-16T07:29:33.000Z</time>
      </trkpt>
      <trkpt lat="43.54865" lon="2.92252">
        <ele>330.2</ele>
        <time>2017-04-16T07:29:35.000Z</time>
      </trkpt>
      <trkpt lat="43.54863" lon="2.92253">
        <ele>330.4</ele>
        <time>2017-04-16T07:29:36.000Z</time>
      </trkpt>
      <trkpt lat="43.54863" lon="2.92253">
        <ele>330.4</ele>
        <time>2017-04-16T07:29:37.000Z</time>
      </trkpt>
      <trkpt lat="43.54862" lon="2.92253">
        <ele>330.6</ele>
        <time>2017-04-16T07:29:38.000Z</time>
      </trkpt>
      <trkpt lat="43.54859" lon="2.92254">
        <ele>330.8</ele>
        <time>2017-04-16T07:29:41.000Z</time>
      </trkpt>
      <trkpt lat="43.54855" lon="2.92255">
        <ele>331.2</ele>
        <time>2017-04-16T07:29:47.000Z</time>
      </trkpt>
      <trkpt lat="43.54853" lon="2.92256">
        <ele>331.6</ele>
        <time>2017-04-16T07:29:49.000Z</time>
      </trkpt>
      <trkpt lat="43.54851" lon="2.92257">
        <ele>332</ele>
        <time>2017-04-16T07:29:51.000Z</time>
      </trkpt>
      <trkpt lat="43.54848" lon="2.92257">
        <ele>332.2</ele>
        <time>2017-04-16T07:29:53.000Z</time>
      </trkpt>
      <trkpt lat="43.54845" lon="2.92258">
        <ele>332.4</ele>
        <time>2017-04-16T07:29:55.000Z</time>
      </trkpt>
      <trkpt lat="43.54839" lon="2.92261">
        <ele>332.8</ele>
        <time>2017-04-16T07:30:01.000Z</time>
      </trkpt>
      <trkpt lat="43.54834" lon="2.92263">
        <ele>333.2</ele>
        <time>2017-04-16T07:30:03.000Z</time>
      </trkpt>
      <trkpt lat="43.54831" lon="2.92263">
        <ele>333.4</ele>
        <time>2017-04-16T07:30:04.000Z</time>
      </trkpt>
      <trkpt lat="43.54824" lon="2.92262">
        <ele>334</ele>
        <time>2017-04-16T07:30:07.000Z</time>
      </trkpt>
      <trkpt lat="43.5482" lon="2.92262">
        <ele>334.2</ele>
        <time>2017-04-16T07:30:09.000Z</time>
      </trkpt>
      <trkpt lat="43.54818" lon="2.92262">
        <ele>334.4</ele>
        <time>2017-04-16T07:30:10.000Z</time>
      </trkpt>
      <trkpt lat="43.54816" lon="2.92262">
        <ele>334.4</ele>
        <time>2017-04-16T07:30:11.000Z</time>
      </trkpt>
      <trkpt lat="43.5481" lon="2.92261">
        <ele>335</ele>
        <time>2017-04-16T07:30:15.000Z</time>
      </trkpt>
      <trkpt lat="43.54808" lon="2.92261">
        <ele>335.2</ele>
        <time>2017-04-16T07:30:16.000Z</time>
      </trkpt>
      <trkpt lat="43.54807" lon="2.92261">
        <ele>335.6</ele>
        <time>2017-04-16T07:30:18.000Z</time>
      </trkpt>
      <trkpt lat="43.54805" lon="2.92262">
        <ele>336.2</ele>
        <time>2017-04-16T07:30:21.000Z</time>
      </trkpt>
      <trkpt lat="43.54804" lon="2.92262">
        <ele>336.2</ele>
        <time>2017-04-16T07:30:22.000Z</time>
      </trkpt>
      <trkpt lat="43.54802" lon="2.92262">
        <ele>336.4</ele>
        <time>2017-04-16T07:30:24.000Z</time>
      </trkpt>
      <trkpt lat="43.54799" lon="2.92262">
        <ele>336.6</ele>
        <time>2017-04-16T07:30:26.000Z</time>
      </trkpt>
      <trkpt lat="43.54794" lon="2.92261">
        <ele>337</ele>
        <time>2017-04-16T07:30:29.000Z</time>
      </trkpt>
      <trkpt lat="43.54791" lon="2.92261">
        <ele>337.6</ele>
        <time>2017-04-16T07:30:31.000Z</time>
      </trkpt>
      <trkpt lat="43.54786" lon="2.92262">
        <ele>338</ele>
        <time>2017-04-16T07:30:33.000Z</time>
      </trkpt>
      <trkpt lat="43.54784" lon="2.92262">
        <ele>338</ele>
        <time>2017-04-16T07:30:34.000Z</time>
      </trkpt>
      <trkpt lat="43.54777" lon="2.92263">
        <ele>338.4</ele>
        <time>2017-04-16T07:30:37.000Z</time>
      </trkpt>
      <trkpt lat="43.54771" lon="2.92265">
        <ele>338.8</ele>
        <time>2017-04-16T07:30:40.000Z</time>
      </trkpt>
      <trkpt lat="43.54767" lon="2.92265">
        <ele>339.2</ele>
        <time>2017-04-16T07:30:42.000Z</time>
      </trkpt>
      <trkpt lat="43.54764" lon="2.92266">
        <ele>339.6</ele>
        <time>2017-04-16T07:30:44.000Z</time>
      </trkpt>
      <trkpt lat="43.54759" lon="2.92267">
        <ele>340</ele>
        <time>2017-04-16T07:30:46.000Z</time>
      </trkpt>
      <trkpt lat="43.54757" lon="2.92267">
        <ele>340.2</ele>
        <time>2017-04-16T07:30:47.000Z</time>
      </trkpt>
      <trkpt lat="43.54749" lon="2.92269">
        <ele>340.6</ele>
        <time>2017-04-16T07:30:50.000Z</time>
      </trkpt>
      <trkpt lat="43.54745" lon="2.9227">
        <ele>341</ele>
        <time>2017-04-16T07:30:52.000Z</time>
      </trkpt>
      <trkpt lat="43.54741" lon="2.9227">
        <ele>341.4</ele>
        <time>2017-04-16T07:30:54.000Z</time>
      </trkpt>
      <trkpt lat="43.54736" lon="2.9227">
        <ele>341.8</ele>
        <time>2017-04-16T07:30:56.000Z</time>
      </trkpt>
      <trkpt lat="43.54733" lon="2.9227">
        <ele>342.2</ele>
        <time>2017-04-16T07:30:58.000Z</time>
      </trkpt>
      <trkpt lat="43.5473" lon="2.9227">
        <ele>342.4</ele>
        <time>2017-04-16T07:31:00.000Z</time>
      </trkpt>
      <trkpt lat="43.54723" lon="2.92272">
        <ele>342.8</ele>
        <time>2017-04-16T07:31:04.000Z</time>
      </trkpt>
      <trkpt lat="43.54721" lon="2.92273">
        <ele>343.2</ele>
        <time>2017-04-16T07:31:05.000Z</time>
      </trkpt>
      <trkpt lat="43.54716" lon="2.92274">
        <ele>343.6</ele>
        <time>2017-04-16T07:31:07.000Z</time>
      </trkpt>
      <trkpt lat="43.54711" lon="2.92274">
        <ele>344</ele>
        <time>2017-04-16T07:31:09.000Z</time>
      </trkpt>
      <trkpt lat="43.54707" lon="2.92273">
        <ele>344.4</ele>
        <time>2017-04-16T07:31:11.000Z</time>
      </trkpt>
      <trkpt lat="43.54702" lon="2.92271">
        <ele>344.6</ele>
        <time>2017-04-16T07:31:13.000Z</time>
      </trkpt>
      <trkpt lat="43.54691" lon="2.92265">
        <ele>345.2</ele>
        <time>2017-04-16T07:31:19.000Z</time>
      </trkpt>
      <trkpt lat="43.54687" lon="2.92263">
        <ele>345.6</ele>
        <time>2017-04-16T07:31:21.000Z</time>
      </trkpt>
      <trkpt lat="43.54683" lon="2.92262">
        <ele>346</ele>
        <time>2017-04-16T07:31:23.000Z</time>
      </trkpt>
      <trkpt lat="43.54679" lon="2.92262">
        <ele>346.4</ele>
        <time>2017-04-16T07:31:25.000Z</time>
      </trkpt>
      <trkpt lat="43.54675" lon="2.92261">
        <ele>346.6</ele>
        <time>2017-04-16T07:31:27.000Z</time>
      </trkpt>
      <trkpt lat="43.5467" lon="2.92261">
        <ele>346.8</ele>
        <time>2017-04-16T07:31:29.000Z</time>
      </trkpt>
      <trkpt lat="43.54667" lon="2.92261">
        <ele>347.2</ele>
        <time>2017-04-16T07:31:31.000Z</time>
      </trkpt>
      <trkpt lat="43.54664" lon="2.92261">
        <ele>347.8</ele>
        <time>2017-04-16T07:31:33.000Z</time>
      </trkpt>
      <trkpt lat="43.54661" lon="2.9226">
        <ele>348.2</ele>
        <time>2017-04-16T07:31:35.000Z</time>
      </trkpt>
      <trkpt lat="43.54657" lon="2.9226">
        <ele>348.6</ele>
        <time>2017-04-16T07:31:37.000Z</time>
      </trkpt>
      <trkpt lat="43.54654" lon="2.92259">
        <ele>348.8</ele>
        <time>2017-04-16T07:31:39.000Z</time>
      </trkpt>
      <trkpt lat="43.54651" lon="2.92259">
        <ele>349.2</ele>
        <time>2017-04-16T07:31:41.000Z</time>
      </trkpt>
      <trkpt lat="43.54647" lon="2.92259">
        <ele>349.8</ele>
        <time>2017-04-16T07:31:43.000Z</time>
      </trkpt>
      <trkpt lat="43.54644" lon="2.92259">
        <ele>350.2</ele>
        <time>2017-04-16T07:31:45.000Z</time>
      </trkpt>
      <trkpt lat="43.5464" lon="2.92259">
        <ele>350.6</ele>
        <time>2017-04-16T07:31:47.000Z</time>
      </trkpt>
      <trkpt lat="43.54637" lon="2.92258">
        <ele>351</ele>
        <time>2017-04-16T07:31:49.000Z</time>
      </trkpt>
      <trkpt lat="43.54633" lon="2.92258">
        <ele>351.4</ele>
        <time>2017-04-16T07:31:52.000Z</time>
      </trkpt>
      <trkpt lat="43.54631" lon="2.92258">
        <ele>351.8</ele>
        <time>2017-04-16T07:31:53.000Z</time>
      </trkpt>
      <trkpt lat="43.54627" lon="2.92256">
        <ele>352.4</ele>
        <time>2017-04-16T07:31:56.000Z</time>
      </trkpt>
      <trkpt lat="43.54625" lon="2.92255">
        <ele>352.6</ele>
        <time>2017-04-16T07:31:57.000Z</time>
      </trkpt>
      <trkpt lat="43.5462" lon="2.92253">
        <ele>353</ele>
        <time>2017-04-16T07:32:00.000Z</time>
      </trkpt>
      <trkpt lat="43.54614" lon="2.92254">
        <ele>353.4</ele>
        <time>2017-04-16T07:32:04.000Z</time>
      </trkpt>
      <trkpt lat="43.54606" lon="2.92259">
        <ele>353.8</ele>
        <time>2017-04-16T07:32:08.000Z</time>
      </trkpt>
      <trkpt lat="43.54603" lon="2.92262">
        <ele>353.8</ele>
        <time>2017-04-16T07:32:09.000Z</time>
      </trkpt>
      <trkpt lat="43.54596" lon="2.9227">
        <ele>354.2</ele>
        <time>2017-04-16T07:32:12.000Z</time>
      </trkpt>
      <trkpt lat="43.54592" lon="2.92275">
        <ele>354.6</ele>
        <time>2017-04-16T07:32:14.000Z</time>
      </trkpt>
      <trkpt lat="43.54589" lon="2.92282">
        <ele>354.8</ele>
        <time>2017-04-16T07:32:16.000Z</time>
      </trkpt>
      <trkpt lat="43.54586" lon="2.92289">
        <ele>355.2</ele>
        <time>2017-04-16T07:32:18.000Z</time>
      </trkpt>
      <trkpt lat="43.54584" lon="2.92293">
        <ele>355.4</ele>
        <time>2017-04-16T07:32:20.000Z</time>
      </trkpt>
      <trkpt lat="43.54582" lon="2.92298">
        <ele>355.8</ele>
        <time>2017-04-16T07:32:22.000Z</time>
      </trkpt>
      <trkpt lat="43.5458" lon="2.92301">
        <ele>356.2</ele>
        <time>2017-04-16T07:32:24.000Z</time>
      </trkpt>
      <trkpt lat="43.54578" lon="2.92305">
        <ele>356.6</ele>
        <time>2017-04-16T07:32:26.000Z</time>
      </trkpt>
      <trkpt lat="43.54576" lon="2.9231">
        <ele>357</ele>
        <time>2017-04-16T07:32:28.000Z</time>
      </trkpt>
      <trkpt lat="43.54575" lon="2.92314">
        <ele>357.2</ele>
        <time>2017-04-16T07:32:30.000Z</time>
      </trkpt>
      <trkpt lat="43.54573" lon="2.92318">
        <ele>357.6</ele>
        <time>2017-04-16T07:32:32.000Z</time>
      </trkpt>
      <trkpt lat="43.54571" lon="2.92322">
        <ele>358.2</ele>
        <time>2017-04-16T07:32:34.000Z</time>
      </trkpt>
      <trkpt lat="43.5457" lon="2.92327">
        <ele>358.6</ele>
        <time>2017-04-16T07:32:36.000Z</time>
      </trkpt>
      <trkpt lat="43.5457" lon="2.92333">
        <ele>358.8</ele>
        <time>2017-04-16T07:32:38.000Z</time>
      </trkpt>
      <trkpt lat="43.5457" lon="2.92338">
        <ele>359.2</ele>
        <time>2017-04-16T07:32:40.000Z</time>
      </trkpt>
      <trkpt lat="43.54568" lon="2.92351">
        <ele>359.8</ele>
        <time>2017-04-16T07:32:45.000Z</time>
      </trkpt>
      <trkpt lat="43.54567" lon="2.92357">
        <ele>360.4</ele>
        <time>2017-04-16T07:32:47.000Z</time>
      </trkpt>
      <trkpt lat="43.54566" lon="2.92363">
        <ele>360.8</ele>
        <time>2017-04-16T07:32:49.000Z</time>
      </trkpt>
      <trkpt lat="43.54566" lon="2.92369">
        <ele>361</ele>
        <time>2017-04-16T07:32:51.000Z</time>
      </trkpt>
      <trkpt lat="43.54565" lon="2.92375">
        <ele>361.4</ele>
        <time>2017-04-16T07:32:53.000Z</time>
      </trkpt>
      <trkpt lat="43.54564" lon="2.92395">
        <ele>361.8</ele>
        <time>2017-04-16T07:32:59.000Z</time>
      </trkpt>
      <trkpt lat="43.54565" lon="2.92398">
        <ele>362</ele>
        <time>2017-04-16T07:33:00.000Z</time>
      </trkpt>
      <trkpt lat="43.54566" lon="2.92406">
        <ele>362.6</ele>
        <time>2017-04-16T07:33:02.000Z</time>
      </trkpt>
      <trkpt lat="43.54568" lon="2.92413">
        <ele>362.8</ele>
        <time>2017-04-16T07:33:04.000Z</time>
      </trkpt>
      <trkpt lat="43.54569" lon="2.9242">
        <ele>363.2</ele>
        <time>2017-04-16T07:33:06.000Z</time>
      </trkpt>
      <trkpt lat="43.54569" lon="2.92426">
        <ele>363.4</ele>
        <time>2017-04-16T07:33:08.000Z</time>
      </trkpt>
      <trkpt lat="43.54567" lon="2.92438">
        <ele>364</ele>
        <time>2017-04-16T07:33:12.000Z</time>
      </trkpt>
      <trkpt lat="43.54565" lon="2.92444">
        <ele>364.4</ele>
        <time>2017-04-16T07:33:14.000Z</time>
      </trkpt>
      <trkpt lat="43.54564" lon="2.92449">
        <ele>364.8</ele>
        <time>2017-04-16T07:33:16.000Z</time>
      </trkpt>
      <trkpt lat="43.54563" lon="2.92454">
        <ele>365.2</ele>
        <time>2017-04-16T07:33:18.000Z</time>
      </trkpt>
      <trkpt lat="43.54563" lon="2.9246">
        <ele>365.4</ele>
        <time>2017-04-16T07:33:20.000Z</time>
      </trkpt>
      <trkpt lat="43.54563" lon="2.92463">
        <ele>365.6</ele>
        <time>2017-04-16T07:33:21.000Z</time>
      </trkpt>
      <trkpt lat="43.54565" lon="2.92474">
        <ele>366.2</ele>
        <time>2017-04-16T07:33:25.000Z</time>
      </trkpt>
      <trkpt lat="43.54566" lon="2.92479">
        <ele>366.6</ele>
        <time>2017-04-16T07:33:27.000Z</time>
      </trkpt>
      <trkpt lat="43.54568" lon="2.92485">
        <ele>367</ele>
        <time>2017-04-16T07:33:29.000Z</time>
      </trkpt>
      <trkpt lat="43.54568" lon="2.92489">
        <ele>367.4</ele>
        <time>2017-04-16T07:33:31.000Z</time>
      </trkpt>
      <trkpt lat="43.54569" lon="2.92494">
        <ele>367.6</ele>
        <time>2017-04-16T07:33:33.000Z</time>
      </trkpt>
      <trkpt lat="43.54571" lon="2.92502">
        <ele>368</ele>
        <time>2017-04-16T07:33:36.000Z</time>
      </trkpt>
      <trkpt lat="43.54571" lon="2.92508">
        <ele>368.6</ele>
        <time>2017-04-16T07:33:38.000Z</time>
      </trkpt>
      <trkpt lat="43.54571" lon="2.92512">
        <ele>369</ele>
        <time>2017-04-16T07:33:40.000Z</time>
      </trkpt>
      <trkpt lat="43.54571" lon="2.92517">
        <ele>369.2</ele>
        <time>2017-04-16T07:33:42.000Z</time>
      </trkpt>
      <trkpt lat="43.54568" lon="2.92523">
        <ele>369.6</ele>
        <time>2017-04-16T07:33:44.000Z</time>
      </trkpt>
      <trkpt lat="43.54564" lon="2.92532">
        <ele>370</ele>
        <time>2017-04-16T07:33:47.000Z</time>
      </trkpt>
      <trkpt lat="43.54561" lon="2.92537">
        <ele>370.6</ele>
        <time>2017-04-16T07:33:49.000Z</time>
      </trkpt>
      <trkpt lat="43.54557" lon="2.92542">
        <ele>371</ele>
        <time>2017-04-16T07:33:51.000Z</time>
      </trkpt>
      <trkpt lat="43.54553" lon="2.92546">
        <ele>371.4</ele>
        <time>2017-04-16T07:33:53.000Z</time>
      </trkpt>
      <trkpt lat="43.54548" lon="2.9255">
        <ele>371.6</ele>
        <time>2017-04-16T07:33:55.000Z</time>
      </trkpt>
      <trkpt lat="43.54536" lon="2.92566">
        <ele>372.4</ele>
        <time>2017-04-16T07:34:02.000Z</time>
      </trkpt>
      <trkpt lat="43.54533" lon="2.92571">
        <ele>373</ele>
        <time>2017-04-16T07:34:04.000Z</time>
      </trkpt>
      <trkpt lat="43.54531" lon="2.92575">
        <ele>373.2</ele>
        <time>2017-04-16T07:34:06.000Z</time>
      </trkpt>
      <trkpt lat="43.54527" lon="2.9258">
        <ele>373.6</ele>
        <time>2017-04-16T07:34:08.000Z</time>
      </trkpt>
      <trkpt lat="43.54524" lon="2.92583">
        <ele>373.8</ele>
        <time>2017-04-16T07:34:10.000Z</time>
      </trkpt>
      <trkpt lat="43.5452" lon="2.92587">
        <ele>374.2</ele>
        <time>2017-04-16T07:34:12.000Z</time>
      </trkpt>
      <trkpt lat="43.54516" lon="2.9259">
        <ele>374.8</ele>
        <time>2017-04-16T07:34:14.000Z</time>
      </trkpt>
      <trkpt lat="43.54513" lon="2.92594">
        <ele>375.2</ele>
        <time>2017-04-16T07:34:16.000Z</time>
      </trkpt>
      <trkpt lat="43.54509" lon="2.92599">
        <ele>375.6</ele>
        <time>2017-04-16T07:34:18.000Z</time>
      </trkpt>
      <trkpt lat="43.54505" lon="2.92604">
        <ele>375.8</ele>
        <time>2017-04-16T07:34:20.000Z</time>
      </trkpt>
      <trkpt lat="43.54499" lon="2.92613">
        <ele>376.4</ele>
        <time>2017-04-16T07:34:24.000Z</time>
      </trkpt>
      <trkpt lat="43.54496" lon="2.92618">
        <ele>377</ele>
        <time>2017-04-16T07:34:26.000Z</time>
      </trkpt>
      <trkpt lat="43.54493" lon="2.92623">
        <ele>377.4</ele>
        <time>2017-04-16T07:34:28.000Z</time>
      </trkpt>
      <trkpt lat="43.5449" lon="2.92628">
        <ele>377.8</ele>
        <time>2017-04-16T07:34:30.000Z</time>
      </trkpt>
      <trkpt lat="43.54487" lon="2.92632">
        <ele>378</ele>
        <time>2017-04-16T07:34:32.000Z</time>
      </trkpt>
      <trkpt lat="43.54482" lon="2.92643">
        <ele>378.6</ele>
        <time>2017-04-16T07:34:36.000Z</time>
      </trkpt>
      <trkpt lat="43.5448" lon="2.92648">
        <ele>379</ele>
        <time>2017-04-16T07:34:38.000Z</time>
      </trkpt>
      <trkpt lat="43.54476" lon="2.92654">
        <ele>379.4</ele>
        <time>2017-04-16T07:34:40.000Z</time>
      </trkpt>
      <trkpt lat="43.54473" lon="2.92659">
        <ele>379.8</ele>
        <time>2017-04-16T07:34:42.000Z</time>
      </trkpt>
      <trkpt lat="43.54469" lon="2.92664">
        <ele>380</ele>
        <time>2017-04-16T07:34:44.000Z</time>
      </trkpt>
      <trkpt lat="43.54463" lon="2.92679">
        <ele>380.6</ele>
        <time>2017-04-16T07:34:49.000Z</time>
      </trkpt>
      <trkpt lat="43.5446" lon="2.92697">
        <ele>381</ele>
        <time>2017-04-16T07:34:54.000Z</time>
      </trkpt>
      <trkpt lat="43.54459" lon="2.92701">
        <ele>381.2</ele>
        <time>2017-04-16T07:34:55.000Z</time>
      </trkpt>
      <trkpt lat="43.54459" lon="2.92704">
        <ele>381.4</ele>
        <time>2017-04-16T07:34:56.000Z</time>
      </trkpt>
      <trkpt lat="43.54459" lon="2.9271">
        <ele>381.8</ele>
        <time>2017-04-16T07:34:58.000Z</time>
      </trkpt>
      <trkpt lat="43.54459" lon="2.92717">
        <ele>382.2</ele>
        <time>2017-04-16T07:35:00.000Z</time>
      </trkpt>
      <trkpt lat="43.54459" lon="2.92723">
        <ele>382.4</ele>
        <time>2017-04-16T07:35:02.000Z</time>
      </trkpt>
      <trkpt lat="43.54459" lon="2.92732">
        <ele>382.8</ele>
        <time>2017-04-16T07:35:05.000Z</time>
      </trkpt>
      <trkpt lat="43.54458" lon="2.92737">
        <ele>383.4</ele>
        <time>2017-04-16T07:35:07.000Z</time>
      </trkpt>
      <trkpt lat="43.54457" lon="2.92743">
        <ele>384</ele>
        <time>2017-04-16T07:35:09.000Z</time>
      </trkpt>
      <trkpt lat="43.54456" lon="2.92749">
        <ele>384.8</ele>
        <time>2017-04-16T07:35:11.000Z</time>
      </trkpt>
      <trkpt lat="43.54454" lon="2.92754">
        <ele>385.2</ele>
        <time>2017-04-16T07:35:13.000Z</time>
      </trkpt>
      <trkpt lat="43.54453" lon="2.92758">
        <ele>385.8</ele>
        <time>2017-04-16T07:35:15.000Z</time>
      </trkpt>
      <trkpt lat="43.54451" lon="2.92763">
        <ele>386.2</ele>
        <time>2017-04-16T07:35:17.000Z</time>
      </trkpt>
      <trkpt lat="43.54445" lon="2.92778">
        <ele>387</ele>
        <time>2017-04-16T07:35:24.000Z</time>
      </trkpt>
      <trkpt lat="43.54445" lon="2.9278">
        <ele>387.2</ele>
        <time>2017-04-16T07:35:25.000Z</time>
      </trkpt>
      <trkpt lat="43.54444" lon="2.92785">
        <ele>387.8</ele>
        <time>2017-04-16T07:35:27.000Z</time>
      </trkpt>
      <trkpt lat="43.54443" lon="2.9279">
        <ele>388.2</ele>
        <time>2017-04-16T07:35:29.000Z</time>
      </trkpt>
      <trkpt lat="43.54442" lon="2.92794">
        <ele>388.4</ele>
        <time>2017-04-16T07:35:31.000Z</time>
      </trkpt>
      <trkpt lat="43.54441" lon="2.92799">
        <ele>388.8</ele>
        <time>2017-04-16T07:35:33.000Z</time>
      </trkpt>
      <trkpt lat="43.54439" lon="2.92816">
        <ele>389.6</ele>
        <time>2017-04-16T07:35:40.000Z</time>
      </trkpt>
      <trkpt lat="43.54438" lon="2.92821">
        <ele>390</ele>
        <time>2017-04-16T07:35:42.000Z</time>
      </trkpt>
      <trkpt lat="43.54437" lon="2.92825">
        <ele>390.4</ele>
        <time>2017-04-16T07:35:44.000Z</time>
      </trkpt>
      <trkpt lat="43.54436" lon="2.92829">
        <ele>390.8</ele>
        <time>2017-04-16T07:35:46.000Z</time>
      </trkpt>
      <trkpt lat="43.54435" lon="2.92834">
        <ele>391</ele>
        <time>2017-04-16T07:35:48.000Z</time>
      </trkpt>
      <trkpt lat="43.54434" lon="2.92838">
        <ele>391.4</ele>
        <time>2017-04-16T07:35:50.000Z</time>
      </trkpt>
      <trkpt lat="43.54432" lon="2.92843">
        <ele>392</ele>
        <time>2017-04-16T07:35:52.000Z</time>
      </trkpt>
      <trkpt lat="43.5443" lon="2.92847">
        <ele>392.4</ele>
        <time>2017-04-16T07:35:54.000Z</time>
      </trkpt>
      <trkpt lat="43.54428" lon="2.92851">
        <ele>392.8</ele>
        <time>2017-04-16T07:35:56.000Z</time>
      </trkpt>
      <trkpt lat="43.54427" lon="2.92853">
        <ele>393</ele>
        <time>2017-04-16T07:35:57.000Z</time>
      </trkpt>
      <trkpt lat="43.54425" lon="2.92855">
        <ele>393</ele>
        <time>2017-04-16T07:35:58.000Z</time>
      </trkpt>
      <trkpt lat="43.54422" lon="2.92862">
        <ele>393.4</ele>
        <time>2017-04-16T07:36:01.000Z</time>
      </trkpt>
      <trkpt lat="43.54419" lon="2.92868">
        <ele>393.8</ele>
        <time>2017-04-16T07:36:04.000Z</time>
      </trkpt>
      <trkpt lat="43.54419" lon="2.92871">
        <ele>394</ele>
        <time>2017-04-16T07:36:05.000Z</time>
      </trkpt>
      <trkpt lat="43.54418" lon="2.92873">
        <ele>394.4</ele>
        <time>2017-04-16T07:36:06.000Z</time>
      </trkpt>
      <trkpt lat="43.54417" lon="2.92877">
        <ele>394.8</ele>
        <time>2017-04-16T07:36:08.000Z</time>
      </trkpt>
      <trkpt lat="43.54415" lon="2.92881">
        <ele>395</ele>
        <time>2017-04-16T07:36:10.000Z</time>
      </trkpt>
      <trkpt lat="43.54413" lon="2.92885">
        <ele>395.2</ele>
        <time>2017-04-16T07:36:12.000Z</time>
      </trkpt>
      <trkpt lat="43.54412" lon="2.92887">
        <ele>395.4</ele>
        <time>2017-04-16T07:36:13.000Z</time>
      </trkpt>
      <trkpt lat="43.54411" lon="2.92893">
        <ele>396.2</ele>
        <time>2017-04-16T07:36:16.000Z</time>
      </trkpt>
      <trkpt lat="43.5441" lon="2.92897">
        <ele>396.8</ele>
        <time>2017-04-16T07:36:18.000Z</time>
      </trkpt>
      <trkpt lat="43.5441" lon="2.92899">
        <ele>397</ele>
        <time>2017-04-16T07:36:19.000Z</time>
      </trkpt>
      <trkpt lat="43.54409" lon="2.92901">
        <ele>397.2</ele>
        <time>2017-04-16T07:36:20.000Z</time>
      </trkpt>
      <trkpt lat="43.54409" lon="2.92906">
        <ele>397.4</ele>
        <time>2017-04-16T07:36:22.000Z</time>
      </trkpt>
      <trkpt lat="43.54405" lon="2.92917">
        <ele>398.2</ele>
        <time>2017-04-16T07:36:27.000Z</time>
      </trkpt>
      <trkpt lat="43.54404" lon="2.92923">
        <ele>398.6</ele>
        <time>2017-04-16T07:36:29.000Z</time>
      </trkpt>
      <trkpt lat="43.54404" lon="2.92928">
        <ele>399</ele>
        <time>2017-04-16T07:36:31.000Z</time>
      </trkpt>
      <trkpt lat="43.54403" lon="2.92933">
        <ele>399.4</ele>
        <time>2017-04-16T07:36:33.000Z</time>
      </trkpt>
      <trkpt lat="43.54402" lon="2.92938">
        <ele>399.6</ele>
        <time>2017-04-16T07:36:35.000Z</time>
      </trkpt>
      <trkpt lat="43.54401" lon="2.9294">
        <ele>400</ele>
        <time>2017-04-16T07:36:36.000Z</time>
      </trkpt>
      <trkpt lat="43.544" lon="2.92944">
        <ele>400.6</ele>
        <time>2017-04-16T07:36:38.000Z</time>
      </trkpt>
      <trkpt lat="43.54398" lon="2.92946">
        <ele>400.8</ele>
        <time>2017-04-16T07:36:39.000Z</time>
      </trkpt>
      <trkpt lat="43.54398" lon="2.92948">
        <ele>401</ele>
        <time>2017-04-16T07:36:40.000Z</time>
      </trkpt>
      <trkpt lat="43.54396" lon="2.92951">
        <ele>401.4</ele>
        <time>2017-04-16T07:36:42.000Z</time>
      </trkpt>
      <trkpt lat="43.54396" lon="2.92953">
        <ele>401.4</ele>
        <time>2017-04-16T07:36:43.000Z</time>
      </trkpt>
      <trkpt lat="43.54395" lon="2.92955">
        <ele>401.6</ele>
        <time>2017-04-16T07:36:44.000Z</time>
      </trkpt>
      <trkpt lat="43.54394" lon="2.92962">
        <ele>402.2</ele>
        <time>2017-04-16T07:36:47.000Z</time>
      </trkpt>
      <trkpt lat="43.54393" lon="2.92964">
        <ele>402.4</ele>
        <time>2017-04-16T07:36:48.000Z</time>
      </trkpt>
      <trkpt lat="43.5439" lon="2.92969">
        <ele>403</ele>
        <time>2017-04-16T07:36:51.000Z</time>
      </trkpt>
      <trkpt lat="43.54388" lon="2.92973">
        <ele>403.4</ele>
        <time>2017-04-16T07:36:53.000Z</time>
      </trkpt>
      <trkpt lat="43.54387" lon="2.92975">
        <ele>403.6</ele>
        <time>2017-04-16T07:36:54.000Z</time>
      </trkpt>
      <trkpt lat="43.54386" lon="2.92976">
        <ele>403.6</ele>
        <time>2017-04-16T07:36:55.000Z</time>
      </trkpt>
      <trkpt lat="43.54381" lon="2.92985">
        <ele>404.4</ele>
        <time>2017-04-16T07:37:00.000Z</time>
      </trkpt>
      <trkpt lat="43.5438" lon="2.92987">
        <ele>404.6</ele>
        <time>2017-04-16T07:37:01.000Z</time>
      </trkpt>
      <trkpt lat="43.54378" lon="2.92988">
        <ele>404.8</ele>
        <time>2017-04-16T07:37:02.000Z</time>
      </trkpt>
      <trkpt lat="43.54376" lon="2.92992">
        <ele>405.2</ele>
        <time>2017-04-16T07:37:04.000Z</time>
      </trkpt>
      <trkpt lat="43.54374" lon="2.92995">
        <ele>405.6</ele>
        <time>2017-04-16T07:37:06.000Z</time>
      </trkpt>
      <trkpt lat="43.54372" lon="2.92998">
        <ele>405.8</ele>
        <time>2017-04-16T07:37:08.000Z</time>
      </trkpt>
      <trkpt lat="43.54367" lon="2.93006">
        <ele>406.6</ele>
        <time>2017-04-16T07:37:13.000Z</time>
      </trkpt>
      <trkpt lat="43.54365" lon="2.9301">
        <ele>407</ele>
        <time>2017-04-16T07:37:15.000Z</time>
      </trkpt>
      <trkpt lat="43.54364" lon="2.93014">
        <ele>407.4</ele>
        <time>2017-04-16T07:37:17.000Z</time>
      </trkpt>
      <trkpt lat="43.54361" lon="2.93018">
        <ele>407.8</ele>
        <time>2017-04-16T07:37:19.000Z</time>
      </trkpt>
      <trkpt lat="43.54358" lon="2.93022">
        <ele>408</ele>
        <time>2017-04-16T07:37:21.000Z</time>
      </trkpt>
      <trkpt lat="43.5435" lon="2.93034">
        <ele>408.8</ele>
        <time>2017-04-16T07:37:26.000Z</time>
      </trkpt>
      <trkpt lat="43.5435" lon="2.93036">
        <ele>409</ele>
        <time>2017-04-16T07:37:27.000Z</time>
      </trkpt>
      <trkpt lat="43.5435" lon="2.93039">
        <ele>409.2</ele>
        <time>2017-04-16T07:37:28.000Z</time>
      </trkpt>
      <trkpt lat="43.54349" lon="2.93043">
        <ele>409.6</ele>
        <time>2017-04-16T07:37:30.000Z</time>
      </trkpt>
      <trkpt lat="43.54349" lon="2.93048">
        <ele>410</ele>
        <time>2017-04-16T07:37:32.000Z</time>
      </trkpt>
      <trkpt lat="43.54349" lon="2.9305">
        <ele>410.2</ele>
        <time>2017-04-16T07:37:33.000Z</time>
      </trkpt>
      <trkpt lat="43.54349" lon="2.93052">
        <ele>410.2</ele>
        <time>2017-04-16T07:37:34.000Z</time>
      </trkpt>
      <trkpt lat="43.54344" lon="2.93066">
        <ele>411</ele>
        <time>2017-04-16T07:37:40.000Z</time>
      </trkpt>
      <trkpt lat="43.54342" lon="2.93071">
        <ele>411.4</ele>
        <time>2017-04-16T07:37:42.000Z</time>
      </trkpt>
      <trkpt lat="43.5434" lon="2.93075">
        <ele>412</ele>
        <time>2017-04-16T07:37:44.000Z</time>
      </trkpt>
      <trkpt lat="43.54338" lon="2.93079">
        <ele>412.2</ele>
        <time>2017-04-16T07:37:46.000Z</time>
      </trkpt>
      <trkpt lat="43.54336" lon="2.93084">
        <ele>412.4</ele>
        <time>2017-04-16T07:37:48.000Z</time>
      </trkpt>
      <trkpt lat="43.54334" lon="2.93086">
        <ele>412.8</ele>
        <time>2017-04-16T07:37:49.000Z</time>
      </trkpt>
      <trkpt lat="43.54333" lon="2.93089">
        <ele>413.4</ele>
        <time>2017-04-16T07:37:51.000Z</time>
      </trkpt>
      <trkpt lat="43.54331" lon="2.93093">
        <ele>413.8</ele>
        <time>2017-04-16T07:37:53.000Z</time>
      </trkpt>
      <trkpt lat="43.5433" lon="2.93097">
        <ele>414.2</ele>
        <time>2017-04-16T07:37:55.000Z</time>
      </trkpt>
      <trkpt lat="43.54328" lon="2.93101">
        <ele>414.4</ele>
        <time>2017-04-16T07:37:57.000Z</time>
      </trkpt>
      <trkpt lat="43.54323" lon="2.93111">
        <ele>415.2</ele>
        <time>2017-04-16T07:38:02.000Z</time>
      </trkpt>
      <trkpt lat="43.54321" lon="2.93115">
        <ele>415.6</ele>
        <time>2017-04-16T07:38:04.000Z</time>
      </trkpt>
      <trkpt lat="43.54319" lon="2.93119">
        <ele>416</ele>
        <time>2017-04-16T07:38:06.000Z</time>
      </trkpt>
      <trkpt lat="43.54318" lon="2.93124">
        <ele>416.4</ele>
        <time>2017-04-16T07:38:08.000Z</time>
      </trkpt>
      <trkpt lat="43.54317" lon="2.93128">
        <ele>416.6</ele>
        <time>2017-04-16T07:38:10.000Z</time>
      </trkpt>
      <trkpt lat="43.54315" lon="2.93133">
        <ele>417</ele>
        <time>2017-04-16T07:38:12.000Z</time>
      </trkpt>
      <trkpt lat="43.54314" lon="2.93137">
        <ele>417.6</ele>
        <time>2017-04-16T07:38:14.000Z</time>
      </trkpt>
      <trkpt lat="43.54313" lon="2.93141">
        <ele>418</ele>
        <time>2017-04-16T07:38:16.000Z</time>
      </trkpt>
      <trkpt lat="43.54313" lon="2.93146">
        <ele>418.4</ele>
        <time>2017-04-16T07:38:18.000Z</time>
      </trkpt>
      <trkpt lat="43.54312" lon="2.9315">
        <ele>418.6</ele>
        <time>2017-04-16T07:38:20.000Z</time>
      </trkpt>
      <trkpt lat="43.54312" lon="2.93152">
        <ele>419</ele>
        <time>2017-04-16T07:38:21.000Z</time>
      </trkpt>
      <trkpt lat="43.54311" lon="2.93157">
        <ele>419.4</ele>
        <time>2017-04-16T07:38:23.000Z</time>
      </trkpt>
      <trkpt lat="43.5431" lon="2.93161">
        <ele>420</ele>
        <time>2017-04-16T07:38:25.000Z</time>
      </trkpt>
      <trkpt lat="43.5431" lon="2.93166">
        <ele>420.2</ele>
        <time>2017-04-16T07:38:27.000Z</time>
      </trkpt>
      <trkpt lat="43.54309" lon="2.93171">
        <ele>420.6</ele>
        <time>2017-04-16T07:38:29.000Z</time>
      </trkpt>
      <trkpt lat="43.54308" lon="2.93183">
        <ele>421.2</ele>
        <time>2017-04-16T07:38:34.000Z</time>
      </trkpt>
      <trkpt lat="43.54308" lon="2.93188">
        <ele>421.8</ele>
        <time>2017-04-16T07:38:36.000Z</time>
      </trkpt>
      <trkpt lat="43.54308" lon="2.93193">
        <ele>422.2</ele>
        <time>2017-04-16T07:38:38.000Z</time>
      </trkpt>
      <trkpt lat="43.54308" lon="2.93198">
        <ele>422.6</ele>
        <time>2017-04-16T07:38:40.000Z</time>
      </trkpt>
      <trkpt lat="43.54308" lon="2.93203">
        <ele>422.8</ele>
        <time>2017-04-16T07:38:42.000Z</time>
      </trkpt>
      <trkpt lat="43.54309" lon="2.93213">
        <ele>423.4</ele>
        <time>2017-04-16T07:38:46.000Z</time>
      </trkpt>
      <trkpt lat="43.54309" lon="2.93218">
        <ele>423.8</ele>
        <time>2017-04-16T07:38:48.000Z</time>
      </trkpt>
      <trkpt lat="43.54309" lon="2.93222">
        <ele>424.2</ele>
        <time>2017-04-16T07:38:50.000Z</time>
      </trkpt>
      <trkpt lat="43.54309" lon="2.93227">
        <ele>424.6</ele>
        <time>2017-04-16T07:38:52.000Z</time>
      </trkpt>
      <trkpt lat="43.54309" lon="2.93231">
        <ele>424.8</ele>
        <time>2017-04-16T07:38:54.000Z</time>
      </trkpt>
      <trkpt lat="43.5431" lon="2.93254">
        <ele>425.4</ele>
        <time>2017-04-16T07:39:02.000Z</time>
      </trkpt>
      <trkpt lat="43.5431" lon="2.93259">
        <ele>425.8</ele>
        <time>2017-04-16T07:39:04.000Z</time>
      </trkpt>
      <trkpt lat="43.54309" lon="2.93265">
        <ele>426.2</ele>
        <time>2017-04-16T07:39:06.000Z</time>
      </trkpt>
      <trkpt lat="43.54308" lon="2.9327">
        <ele>426.6</ele>
        <time>2017-04-16T07:39:08.000Z</time>
      </trkpt>
      <trkpt lat="43.54308" lon="2.93274">
        <ele>426.8</ele>
        <time>2017-04-16T07:39:10.000Z</time>
      </trkpt>
      <trkpt lat="43.54307" lon="2.93279">
        <ele>427</ele>
        <time>2017-04-16T07:39:12.000Z</time>
      </trkpt>
      <trkpt lat="43.54307" lon="2.93281">
        <ele>427.4</ele>
        <time>2017-04-16T07:39:13.000Z</time>
      </trkpt>
      <trkpt lat="43.54306" lon="2.93286">
        <ele>428</ele>
        <time>2017-04-16T07:39:15.000Z</time>
      </trkpt>
      <trkpt lat="43.54306" lon="2.93291">
        <ele>428.4</ele>
        <time>2017-04-16T07:39:17.000Z</time>
      </trkpt>
      <trkpt lat="43.54304" lon="2.93296">
        <ele>428.6</ele>
        <time>2017-04-16T07:39:19.000Z</time>
      </trkpt>
      <trkpt lat="43.54303" lon="2.93301">
        <ele>429</ele>
        <time>2017-04-16T07:39:21.000Z</time>
      </trkpt>
      <trkpt lat="43.543" lon="2.9331">
        <ele>429.6</ele>
        <time>2017-04-16T07:39:25.000Z</time>
      </trkpt>
      <trkpt lat="43.54299" lon="2.93314">
        <ele>430</ele>
        <time>2017-04-16T07:39:27.000Z</time>
      </trkpt>
      <trkpt lat="43.54298" lon="2.93319">
        <ele>430.4</ele>
        <time>2017-04-16T07:39:29.000Z</time>
      </trkpt>
      <trkpt lat="43.54297" lon="2.93323">
        <ele>430.8</ele>
        <time>2017-04-16T07:39:31.000Z</time>
      </trkpt>
      <trkpt lat="43.54295" lon="2.93328">
        <ele>431</ele>
        <time>2017-04-16T07:39:33.000Z</time>
      </trkpt>
      <trkpt lat="43.54295" lon="2.93335">
        <ele>431.6</ele>
        <time>2017-04-16T07:39:36.000Z</time>
      </trkpt>
      <trkpt lat="43.54294" lon="2.93339">
        <ele>432.2</ele>
        <time>2017-04-16T07:39:38.000Z</time>
      </trkpt>
      <trkpt lat="43.54293" lon="2.93344">
        <ele>432.6</ele>
        <time>2017-04-16T07:39:40.000Z</time>
      </trkpt>
      <trkpt lat="43.54291" lon="2.93348">
        <ele>433</ele>
        <time>2017-04-16T07:39:42.000Z</time>
      </trkpt>
      <trkpt lat="43.54288" lon="2.93352">
        <ele>433.2</ele>
        <time>2017-04-16T07:39:44.000Z</time>
      </trkpt>
      <trkpt lat="43.54285" lon="2.93357">
        <ele>433.8</ele>
        <time>2017-04-16T07:39:47.000Z</time>
      </trkpt>
      <trkpt lat="43.54282" lon="2.93361">
        <ele>434.4</ele>
        <time>2017-04-16T07:39:49.000Z</time>
      </trkpt>
      <trkpt lat="43.5428" lon="2.93363">
        <ele>434.8</ele>
        <time>2017-04-16T07:39:51.000Z</time>
      </trkpt>
      <trkpt lat="43.54277" lon="2.93366">
        <ele>435.2</ele>
        <time>2017-04-16T07:39:53.000Z</time>
      </trkpt>
      <trkpt lat="43.54274" lon="2.93368">
        <ele>435.4</ele>
        <time>2017-04-16T07:39:55.000Z</time>
      </trkpt>
      <trkpt lat="43.54268" lon="2.93372">
        <ele>436</ele>
        <time>2017-04-16T07:39:59.000Z</time>
      </trkpt>
      <trkpt lat="43.54266" lon="2.93375">
        <ele>436.6</ele>
        <time>2017-04-16T07:40:01.000Z</time>
      </trkpt>
      <trkpt lat="43.54264" lon="2.93378">
        <ele>437</ele>
        <time>2017-04-16T07:40:03.000Z</time>
      </trkpt>
      <trkpt lat="43.54261" lon="2.93381">
        <ele>437.4</ele>
        <time>2017-04-16T07:40:05.000Z</time>
      </trkpt>
      <trkpt lat="43.54257" lon="2.93383">
        <ele>437.6</ele>
        <time>2017-04-16T07:40:07.000Z</time>
      </trkpt>
      <trkpt lat="43.54252" lon="2.93387">
        <ele>438.2</ele>
        <time>2017-04-16T07:40:10.000Z</time>
      </trkpt>
      <trkpt lat="43.54249" lon="2.93389">
        <ele>438.8</ele>
        <time>2017-04-16T07:40:12.000Z</time>
      </trkpt>
      <trkpt lat="43.54246" lon="2.9339">
        <ele>439.2</ele>
        <time>2017-04-16T07:40:14.000Z</time>
      </trkpt>
      <trkpt lat="43.54243" lon="2.93392">
        <ele>439.6</ele>
        <time>2017-04-16T07:40:16.000Z</time>
      </trkpt>
      <trkpt lat="43.5424" lon="2.93395">
        <ele>439.8</ele>
        <time>2017-04-16T07:40:18.000Z</time>
      </trkpt>
      <trkpt lat="43.54238" lon="2.93398">
        <ele>440.2</ele>
        <time>2017-04-16T07:40:20.000Z</time>
      </trkpt>
      <trkpt lat="43.54235" lon="2.93401">
        <ele>440.8</ele>
        <time>2017-04-16T07:40:22.000Z</time>
      </trkpt>
      <trkpt lat="43.54233" lon="2.93405">
        <ele>441.2</ele>
        <time>2017-04-16T07:40:24.000Z</time>
      </trkpt>
      <trkpt lat="43.54231" lon="2.93409">
        <ele>441.6</ele>
        <time>2017-04-16T07:40:26.000Z</time>
      </trkpt>
      <trkpt lat="43.54229" lon="2.93413">
        <ele>441.8</ele>
        <time>2017-04-16T07:40:28.000Z</time>
      </trkpt>
      <trkpt lat="43.54222" lon="2.93419">
        <ele>442.6</ele>
        <time>2017-04-16T07:40:32.000Z</time>
      </trkpt>
      <trkpt lat="43.54218" lon="2.93422">
        <ele>443</ele>
        <time>2017-04-16T07:40:34.000Z</time>
      </trkpt>
      <trkpt lat="43.54215" lon="2.93425">
        <ele>443.4</ele>
        <time>2017-04-16T07:40:36.000Z</time>
      </trkpt>
      <trkpt lat="43.54214" lon="2.93429">
        <ele>443.8</ele>
        <time>2017-04-16T07:40:38.000Z</time>
      </trkpt>
      <trkpt lat="43.54212" lon="2.9343">
        <ele>443.8</ele>
        <time>2017-04-16T07:40:39.000Z</time>
      </trkpt>
      <trkpt lat="43.54211" lon="2.93432">
        <ele>444</ele>
        <time>2017-04-16T07:40:40.000Z</time>
      </trkpt>
      <trkpt lat="43.54208" lon="2.93434">
        <ele>444.2</ele>
        <time>2017-04-16T07:40:42.000Z</time>
      </trkpt>
      <trkpt lat="43.54202" lon="2.93436">
        <ele>445</ele>
        <time>2017-04-16T07:40:45.000Z</time>
      </trkpt>
      <trkpt lat="43.54198" lon="2.93437">
        <ele>445.4</ele>
        <time>2017-04-16T07:40:47.000Z</time>
      </trkpt>
      <trkpt lat="43.54196" lon="2.93437">
        <ele>445.8</ele>
        <time>2017-04-16T07:40:49.000Z</time>
      </trkpt>
      <trkpt lat="43.54194" lon="2.93436">
        <ele>446</ele>
        <time>2017-04-16T07:40:51.000Z</time>
      </trkpt>
      <trkpt lat="43.54191" lon="2.93428">
        <ele>446.8</ele>
        <time>2017-04-16T07:40:56.000Z</time>
      </trkpt>
      <trkpt lat="43.5419" lon="2.93423">
        <ele>447.2</ele>
        <time>2017-04-16T07:40:58.000Z</time>
      </trkpt>
      <trkpt lat="43.54189" lon="2.93419">
        <ele>447.6</ele>
        <time>2017-04-16T07:41:00.000Z</time>
      </trkpt>
      <trkpt lat="43.54189" lon="2.93417">
        <ele>447.8</ele>
        <time>2017-04-16T07:41:01.000Z</time>
      </trkpt>
      <trkpt lat="43.54189" lon="2.93414">
        <ele>448</ele>
        <time>2017-04-16T07:41:02.000Z</time>
      </trkpt>
      <trkpt lat="43.54188" lon="2.9341">
        <ele>448.2</ele>
        <time>2017-04-16T07:41:04.000Z</time>
      </trkpt>
      <trkpt lat="43.54187" lon="2.934">
        <ele>448.6</ele>
        <time>2017-04-16T07:41:08.000Z</time>
      </trkpt>
      <trkpt lat="43.54187" lon="2.93389">
        <ele>449</ele>
        <time>2017-04-16T07:41:12.000Z</time>
      </trkpt>
      <trkpt lat="43.54188" lon="2.93384">
        <ele>449.4</ele>
        <time>2017-04-16T07:41:14.000Z</time>
      </trkpt>
      <trkpt lat="43.54187" lon="2.93379">
        <ele>449.8</ele>
        <time>2017-04-16T07:41:16.000Z</time>
      </trkpt>
      <trkpt lat="43.54185" lon="2.93375">
        <ele>450.2</ele>
        <time>2017-04-16T07:41:18.000Z</time>
      </trkpt>
      <trkpt lat="43.54184" lon="2.9337">
        <ele>450.4</ele>
        <time>2017-04-16T07:41:20.000Z</time>
      </trkpt>
      <trkpt lat="43.5418" lon="2.93353">
        <ele>451.2</ele>
        <time>2017-04-16T07:41:27.000Z</time>
      </trkpt>
      <trkpt lat="43.54178" lon="2.9335">
        <ele>451.6</ele>
        <time>2017-04-16T07:41:29.000Z</time>
      </trkpt>
      <trkpt lat="43.54176" lon="2.93347">
        <ele>452</ele>
        <time>2017-04-16T07:41:31.000Z</time>
      </trkpt>
      <trkpt lat="43.54173" lon="2.93345">
        <ele>452.2</ele>
        <time>2017-04-16T07:41:33.000Z</time>
      </trkpt>
      <trkpt lat="43.54171" lon="2.93344">
        <ele>452.4</ele>
        <time>2017-04-16T07:41:34.000Z</time>
      </trkpt>
      <trkpt lat="43.54169" lon="2.93343">
        <ele>452.6</ele>
        <time>2017-04-16T07:41:35.000Z</time>
      </trkpt>
      <trkpt lat="43.54164" lon="2.93338">
        <ele>453</ele>
        <time>2017-04-16T07:41:39.000Z</time>
      </trkpt>
      <trkpt lat="43.54152" lon="2.93327">
        <ele>453.2</ele>
        <time>2017-04-16T07:41:46.000Z</time>
      </trkpt>
      <trkpt lat="43.5415" lon="2.93326">
        <ele>453.6</ele>
        <time>2017-04-16T07:41:47.000Z</time>
      </trkpt>
      <trkpt lat="43.54147" lon="2.93323">
        <ele>454</ele>
        <time>2017-04-16T07:41:49.000Z</time>
      </trkpt>
      <trkpt lat="43.54143" lon="2.9332">
        <ele>454.4</ele>
        <time>2017-04-16T07:41:51.000Z</time>
      </trkpt>
      <trkpt lat="43.54139" lon="2.93318">
        <ele>454.6</ele>
        <time>2017-04-16T07:41:53.000Z</time>
      </trkpt>
      <trkpt lat="43.54136" lon="2.93316">
        <ele>454.8</ele>
        <time>2017-04-16T07:41:55.000Z</time>
      </trkpt>
      <trkpt lat="43.5413" lon="2.93316">
        <ele>455.4</ele>
        <time>2017-04-16T07:41:58.000Z</time>
      </trkpt>
      <trkpt lat="43.54126" lon="2.93317">
        <ele>455.8</ele>
        <time>2017-04-16T07:42:00.000Z</time>
      </trkpt>
      <trkpt lat="43.54122" lon="2.93318">
        <ele>456.2</ele>
        <time>2017-04-16T07:42:02.000Z</time>
      </trkpt>
      <trkpt lat="43.54119" lon="2.93318">
        <ele>456.6</ele>
        <time>2017-04-16T07:42:04.000Z</time>
      </trkpt>
      <trkpt lat="43.54115" lon="2.9332">
        <ele>456.8</ele>
        <time>2017-04-16T07:42:06.000Z</time>
      </trkpt>
      <trkpt lat="43.5411" lon="2.93322">
        <ele>457.4</ele>
        <time>2017-04-16T07:42:09.000Z</time>
      </trkpt>
      <trkpt lat="43.54106" lon="2.93323">
        <ele>458</ele>
        <time>2017-04-16T07:42:11.000Z</time>
      </trkpt>
      <trkpt lat="43.54101" lon="2.93326">
        <ele>458.4</ele>
        <time>2017-04-16T07:42:13.000Z</time>
      </trkpt>
      <trkpt lat="43.54097" lon="2.93329">
        <ele>458.8</ele>
        <time>2017-04-16T07:42:15.000Z</time>
      </trkpt>
      <trkpt lat="43.54093" lon="2.93332">
        <ele>459</ele>
        <time>2017-04-16T07:42:17.000Z</time>
      </trkpt>
      <trkpt lat="43.54085" lon="2.93338">
        <ele>459.8</ele>
        <time>2017-04-16T07:42:21.000Z</time>
      </trkpt>
      <trkpt lat="43.54082" lon="2.93341">
        <ele>460.2</ele>
        <time>2017-04-16T07:42:23.000Z</time>
      </trkpt>
      <trkpt lat="43.5408" lon="2.93344">
        <ele>460.8</ele>
        <time>2017-04-16T07:42:25.000Z</time>
      </trkpt>
      <trkpt lat="43.54077" lon="2.93347">
        <ele>461</ele>
        <time>2017-04-16T07:42:28.000Z</time>
      </trkpt>
      <trkpt lat="43.54075" lon="2.93348">
        <ele>461.2</ele>
        <time>2017-04-16T07:42:29.000Z</time>
      </trkpt>
      <trkpt lat="43.54074" lon="2.93349">
        <ele>461.4</ele>
        <time>2017-04-16T07:42:30.000Z</time>
      </trkpt>
      <trkpt lat="43.54067" lon="2.93353">
        <ele>462</ele>
        <time>2017-04-16T07:42:34.000Z</time>
      </trkpt>
      <trkpt lat="43.54065" lon="2.93354">
        <ele>462.2</ele>
        <time>2017-04-16T07:42:35.000Z</time>
      </trkpt>
      <trkpt lat="43.54064" lon="2.93355">
        <ele>462.6</ele>
        <time>2017-04-16T07:42:36.000Z</time>
      </trkpt>
      <trkpt lat="43.54061" lon="2.93357">
        <ele>463</ele>
        <time>2017-04-16T07:42:38.000Z</time>
      </trkpt>
      <trkpt lat="43.5406" lon="2.93358">
        <ele>463.2</ele>
        <time>2017-04-16T07:42:39.000Z</time>
      </trkpt>
      <trkpt lat="43.54058" lon="2.93359">
        <ele>463.4</ele>
        <time>2017-04-16T07:42:40.000Z</time>
      </trkpt>
      <trkpt lat="43.54056" lon="2.9336">
        <ele>463.6</ele>
        <time>2017-04-16T07:42:42.000Z</time>
      </trkpt>
      <trkpt lat="43.54053" lon="2.93361">
        <ele>464</ele>
        <time>2017-04-16T07:42:44.000Z</time>
      </trkpt>
      <trkpt lat="43.54049" lon="2.93363">
        <ele>464.6</ele>
        <time>2017-04-16T07:42:46.000Z</time>
      </trkpt>
      <trkpt lat="43.54045" lon="2.93364">
        <ele>465</ele>
        <time>2017-04-16T07:42:48.000Z</time>
      </trkpt>
      <trkpt lat="43.54041" lon="2.93365">
        <ele>465.4</ele>
        <time>2017-04-16T07:42:50.000Z</time>
      </trkpt>
      <trkpt lat="43.54037" lon="2.93366">
        <ele>465.6</ele>
        <time>2017-04-16T07:42:52.000Z</time>
      </trkpt>
      <trkpt lat="43.54032" lon="2.93369">
        <ele>466.2</ele>
        <time>2017-04-16T07:42:55.000Z</time>
      </trkpt>
      <trkpt lat="43.54029" lon="2.93371">
        <ele>466.8</ele>
        <time>2017-04-16T07:42:57.000Z</time>
      </trkpt>
      <trkpt lat="43.54027" lon="2.93371">
        <ele>467</ele>
        <time>2017-04-16T07:42:58.000Z</time>
      </trkpt>
      <trkpt lat="43.54026" lon="2.93372">
        <ele>467.2</ele>
        <time>2017-04-16T07:42:59.000Z</time>
      </trkpt>
      <trkpt lat="43.54023" lon="2.93372">
        <ele>467.6</ele>
        <time>2017-04-16T07:43:01.000Z</time>
      </trkpt>
      <trkpt lat="43.54021" lon="2.93373">
        <ele>467.8</ele>
        <time>2017-04-16T07:43:02.000Z</time>
      </trkpt>
      <trkpt lat="43.54015" lon="2.93375">
        <ele>468.4</ele>
        <time>2017-04-16T07:43:07.000Z</time>
      </trkpt>
      <trkpt lat="43.54011" lon="2.93376">
        <ele>469</ele>
        <time>2017-04-16T07:43:09.000Z</time>
      </trkpt>
      <trkpt lat="43.54008" lon="2.93378">
        <ele>469.4</ele>
        <time>2017-04-16T07:43:11.000Z</time>
      </trkpt>
      <trkpt lat="43.54005" lon="2.93379">
        <ele>469.8</ele>
        <time>2017-04-16T07:43:13.000Z</time>
      </trkpt>
      <trkpt lat="43.54002" lon="2.93381">
        <ele>470</ele>
        <time>2017-04-16T07:43:15.000Z</time>
      </trkpt>
      <trkpt lat="43.54" lon="2.93382">
        <ele>470.4</ele>
        <time>2017-04-16T07:43:16.000Z</time>
      </trkpt>
      <trkpt lat="43.53997" lon="2.93385">
        <ele>471</ele>
        <time>2017-04-16T07:43:18.000Z</time>
      </trkpt>
      <trkpt lat="43.53994" lon="2.93388">
        <ele>471.4</ele>
        <time>2017-04-16T07:43:20.000Z</time>
      </trkpt>
      <trkpt lat="43.53991" lon="2.93391">
        <ele>471.8</ele>
        <time>2017-04-16T07:43:22.000Z</time>
      </trkpt>
      <trkpt lat="43.53988" lon="2.93395">
        <ele>472</ele>
        <time>2017-04-16T07:43:24.000Z</time>
      </trkpt>
      <trkpt lat="43.53984" lon="2.934">
        <ele>472.6</ele>
        <time>2017-04-16T07:43:27.000Z</time>
      </trkpt>
      <trkpt lat="43.53982" lon="2.93403">
        <ele>473.2</ele>
        <time>2017-04-16T07:43:29.000Z</time>
      </trkpt>
      <trkpt lat="43.5398" lon="2.93405">
        <ele>473.4</ele>
        <time>2017-04-16T07:43:30.000Z</time>
      </trkpt>
      <trkpt lat="43.53976" lon="2.93411">
        <ele>474</ele>
        <time>2017-04-16T07:43:33.000Z</time>
      </trkpt>
      <trkpt lat="43.53974" lon="2.93415">
        <ele>474.2</ele>
        <time>2017-04-16T07:43:35.000Z</time>
      </trkpt>
      <trkpt lat="43.5397" lon="2.93423">
        <ele>475</ele>
        <time>2017-04-16T07:43:39.000Z</time>
      </trkpt>
      <trkpt lat="43.53967" lon="2.93426">
        <ele>475.4</ele>
        <time>2017-04-16T07:43:41.000Z</time>
      </trkpt>
      <trkpt lat="43.53966" lon="2.9343">
        <ele>475.8</ele>
        <time>2017-04-16T07:43:43.000Z</time>
      </trkpt>
      <trkpt lat="43.53963" lon="2.93434">
        <ele>476.2</ele>
        <time>2017-04-16T07:43:45.000Z</time>
      </trkpt>
      <trkpt lat="43.53961" lon="2.93438">
        <ele>476.6</ele>
        <time>2017-04-16T07:43:47.000Z</time>
      </trkpt>
      <trkpt lat="43.53954" lon="2.93453">
        <ele>477.4</ele>
        <time>2017-04-16T07:43:54.000Z</time>
      </trkpt>
      <trkpt lat="43.53952" lon="2.93458">
        <ele>477.8</ele>
        <time>2017-04-16T07:43:56.000Z</time>
      </trkpt>
      <trkpt lat="43.5395" lon="2.93462">
        <ele>478.2</ele>
        <time>2017-04-16T07:43:58.000Z</time>
      </trkpt>
      <trkpt lat="43.53949" lon="2.93466">
        <ele>478.6</ele>
        <time>2017-04-16T07:44:00.000Z</time>
      </trkpt>
      <trkpt lat="43.53947" lon="2.9347">
        <ele>478.8</ele>
        <time>2017-04-16T07:44:02.000Z</time>
      </trkpt>
      <trkpt lat="43.53946" lon="2.93472">
        <ele>479</ele>
        <time>2017-04-16T07:44:03.000Z</time>
      </trkpt>
      <trkpt lat="43.53944" lon="2.93476">
        <ele>479.6</ele>
        <time>2017-04-16T07:44:05.000Z</time>
      </trkpt>
      <trkpt lat="43.53942" lon="2.9348">
        <ele>480</ele>
        <time>2017-04-16T07:44:07.000Z</time>
      </trkpt>
      <trkpt lat="43.53939" lon="2.93485">
        <ele>480.4</ele>
        <time>2017-04-16T07:44:09.000Z</time>
      </trkpt>
      <trkpt lat="43.53938" lon="2.93487">
        <ele>480.8</ele>
        <time>2017-04-16T07:44:10.000Z</time>
      </trkpt>
      <trkpt lat="43.53935" lon="2.9349">
        <ele>481.4</ele>
        <time>2017-04-16T07:44:12.000Z</time>
      </trkpt>
      <trkpt lat="43.53933" lon="2.93493">
        <ele>481.8</ele>
        <time>2017-04-16T07:44:14.000Z</time>
      </trkpt>
      <trkpt lat="43.5393" lon="2.93496">
        <ele>482.2</ele>
        <time>2017-04-16T07:44:16.000Z</time>
      </trkpt>
      <trkpt lat="43.53928" lon="2.93499">
        <ele>482.6</ele>
        <time>2017-04-16T07:44:18.000Z</time>
      </trkpt>
      <trkpt lat="43.53919" lon="2.93512">
        <ele>483.4</ele>
        <time>2017-04-16T07:44:25.000Z</time>
      </trkpt>
      <trkpt lat="43.53913" lon="2.93523">
        <ele>483.8</ele>
        <time>2017-04-16T07:44:30.000Z</time>
      </trkpt>
      <trkpt lat="43.53912" lon="2.93525">
        <ele>484</ele>
        <time>2017-04-16T07:44:31.000Z</time>
      </trkpt>
      <trkpt lat="43.53911" lon="2.93527">
        <ele>484.4</ele>
        <time>2017-04-16T07:44:32.000Z</time>
      </trkpt>
      <trkpt lat="43.53908" lon="2.93531">
        <ele>484.6</ele>
        <time>2017-04-16T07:44:34.000Z</time>
      </trkpt>
      <trkpt lat="43.53906" lon="2.93535">
        <ele>485</ele>
        <time>2017-04-16T07:44:36.000Z</time>
      </trkpt>
      <trkpt lat="43.53904" lon="2.93538">
        <ele>485.4</ele>
        <time>2017-04-16T07:44:38.000Z</time>
      </trkpt>
      <trkpt lat="43.53902" lon="2.93542">
        <ele>486</ele>
        <time>2017-04-16T07:44:40.000Z</time>
      </trkpt>
      <trkpt lat="43.539" lon="2.93546">
        <ele>486.4</ele>
        <time>2017-04-16T07:44:42.000Z</time>
      </trkpt>
      <trkpt lat="43.53898" lon="2.9355">
        <ele>486.8</ele>
        <time>2017-04-16T07:44:44.000Z</time>
      </trkpt>
      <trkpt lat="43.53896" lon="2.93555">
        <ele>487.4</ele>
        <time>2017-04-16T07:44:46.000Z</time>
      </trkpt>
      <trkpt lat="43.53894" lon="2.93559">
        <ele>488</ele>
        <time>2017-04-16T07:44:48.000Z</time>
      </trkpt>
      <trkpt lat="43.53893" lon="2.93563">
        <ele>488.4</ele>
        <time>2017-04-16T07:44:50.000Z</time>
      </trkpt>
      <trkpt lat="43.53892" lon="2.93568">
        <ele>488.8</ele>
        <time>2017-04-16T07:44:52.000Z</time>
      </trkpt>
      <trkpt lat="43.53891" lon="2.93573">
        <ele>489.2</ele>
        <time>2017-04-16T07:44:54.000Z</time>
      </trkpt>
      <trkpt lat="43.53889" lon="2.93577">
        <ele>489.6</ele>
        <time>2017-04-16T07:44:56.000Z</time>
      </trkpt>
      <trkpt lat="43.53888" lon="2.93582">
        <ele>490.2</ele>
        <time>2017-04-16T07:44:58.000Z</time>
      </trkpt>
      <trkpt lat="43.53886" lon="2.93587">
        <ele>490.6</ele>
        <time>2017-04-16T07:45:00.000Z</time>
      </trkpt>
      <trkpt lat="43.53884" lon="2.93592">
        <ele>491</ele>
        <time>2017-04-16T07:45:02.000Z</time>
      </trkpt>
      <trkpt lat="43.53882" lon="2.93597">
        <ele>491.2</ele>
        <time>2017-04-16T07:45:04.000Z</time>
      </trkpt>
      <trkpt lat="43.53879" lon="2.93611">
        <ele>492</ele>
        <time>2017-04-16T07:45:10.000Z</time>
      </trkpt>
      <trkpt lat="43.53879" lon="2.93616">
        <ele>492.6</ele>
        <time>2017-04-16T07:45:12.000Z</time>
      </trkpt>
      <trkpt lat="43.53878" lon="2.93621">
        <ele>493</ele>
        <time>2017-04-16T07:45:14.000Z</time>
      </trkpt>
      <trkpt lat="43.53878" lon="2.93626">
        <ele>493.4</ele>
        <time>2017-04-16T07:45:16.000Z</time>
      </trkpt>
      <trkpt lat="43.53877" lon="2.93631">
        <ele>493.6</ele>
        <time>2017-04-16T07:45:18.000Z</time>
      </trkpt>
      <trkpt lat="43.53876" lon="2.93645">
        <ele>494.4</ele>
        <time>2017-04-16T07:45:23.000Z</time>
      </trkpt>
      <trkpt lat="43.53876" lon="2.9365">
        <ele>495</ele>
        <time>2017-04-16T07:45:25.000Z</time>
      </trkpt>
      <trkpt lat="43.53875" lon="2.93655">
        <ele>495.4</ele>
        <time>2017-04-16T07:45:27.000Z</time>
      </trkpt>
      <trkpt lat="43.53874" lon="2.93659">
        <ele>495.6</ele>
        <time>2017-04-16T07:45:29.000Z</time>
      </trkpt>
      <trkpt lat="43.53873" lon="2.93664">
        <ele>496</ele>
        <time>2017-04-16T07:45:31.000Z</time>
      </trkpt>
      <trkpt lat="43.53871" lon="2.93673">
        <ele>496.6</ele>
        <time>2017-04-16T07:45:35.000Z</time>
      </trkpt>
      <trkpt lat="43.53871" lon="2.93678">
        <ele>497.2</ele>
        <time>2017-04-16T07:45:37.000Z</time>
      </trkpt>
      <trkpt lat="43.5387" lon="2.93683">
        <ele>497.6</ele>
        <time>2017-04-16T07:45:39.000Z</time>
      </trkpt>
      <trkpt lat="43.53869" lon="2.93688">
        <ele>497.8</ele>
        <time>2017-04-16T07:45:41.000Z</time>
      </trkpt>
      <trkpt lat="43.53868" lon="2.93692">
        <ele>498.2</ele>
        <time>2017-04-16T07:45:43.000Z</time>
      </trkpt>
      <trkpt lat="43.53863" lon="2.93712">
        <ele>499</ele>
        <time>2017-04-16T07:45:51.000Z</time>
      </trkpt>
      <trkpt lat="43.53862" lon="2.93718">
        <ele>499.4</ele>
        <time>2017-04-16T07:45:53.000Z</time>
      </trkpt>
      <trkpt lat="43.53861" lon="2.93723">
        <ele>499.8</ele>
        <time>2017-04-16T07:45:55.000Z</time>
      </trkpt>
      <trkpt lat="43.5386" lon="2.93728">
        <ele>500.2</ele>
        <time>2017-04-16T07:45:57.000Z</time>
      </trkpt>
      <trkpt lat="43.53859" lon="2.93733">
        <ele>500.6</ele>
        <time>2017-04-16T07:45:59.000Z</time>
      </trkpt>
      <trkpt lat="43.53858" lon="2.93738">
        <ele>501.2</ele>
        <time>2017-04-16T07:46:01.000Z</time>
      </trkpt>
      <trkpt lat="43.53857" lon="2.93742">
        <ele>501.6</ele>
        <time>2017-04-16T07:46:03.000Z</time>
      </trkpt>
      <trkpt lat="43.53857" lon="2.93747">
        <ele>502</ele>
        <time>2017-04-16T07:46:05.000Z</time>
      </trkpt>
      <trkpt lat="43.53857" lon="2.93749">
        <ele>502.4</ele>
        <time>2017-04-16T07:46:06.000Z</time>
      </trkpt>
      <trkpt lat="43.53857" lon="2.93754">
        <ele>503</ele>
        <time>2017-04-16T07:46:08.000Z</time>
      </trkpt>
      <trkpt lat="43.53856" lon="2.93758">
        <ele>503.6</ele>
        <time>2017-04-16T07:46:10.000Z</time>
      </trkpt>
      <trkpt lat="43.53855" lon="2.93763">
        <ele>504</ele>
        <time>2017-04-16T07:46:12.000Z</time>
      </trkpt>
      <trkpt lat="43.53854" lon="2.93768">
        <ele>504.2</ele>
        <time>2017-04-16T07:46:14.000Z</time>
      </trkpt>
      <trkpt lat="43.53853" lon="2.93775">
        <ele>504.8</ele>
        <time>2017-04-16T07:46:17.000Z</time>
      </trkpt>
      <trkpt lat="43.53852" lon="2.9378">
        <ele>505.4</ele>
        <time>2017-04-16T07:46:19.000Z</time>
      </trkpt>
      <trkpt lat="43.53851" lon="2.93785">
        <ele>505.8</ele>
        <time>2017-04-16T07:46:21.000Z</time>
      </trkpt>
      <trkpt lat="43.53851" lon="2.93789">
        <ele>506.2</ele>
        <time>2017-04-16T07:46:23.000Z</time>
      </trkpt>
      <trkpt lat="43.5385" lon="2.93794">
        <ele>506.4</ele>
        <time>2017-04-16T07:46:25.000Z</time>
      </trkpt>
      <trkpt lat="43.53849" lon="2.93814">
        <ele>507.2</ele>
        <time>2017-04-16T07:46:33.000Z</time>
      </trkpt>
      <trkpt lat="43.53849" lon="2.93819">
        <ele>507.4</ele>
        <time>2017-04-16T07:46:35.000Z</time>
      </trkpt>
      <trkpt lat="43.53849" lon="2.93823">
        <ele>508</ele>
        <time>2017-04-16T07:46:37.000Z</time>
      </trkpt>
      <trkpt lat="43.53849" lon="2.93828">
        <ele>508.4</ele>
        <time>2017-04-16T07:46:39.000Z</time>
      </trkpt>
      <trkpt lat="43.5385" lon="2.93833">
        <ele>508.6</ele>
        <time>2017-04-16T07:46:41.000Z</time>
      </trkpt>
      <trkpt lat="43.5385" lon="2.93839">
        <ele>508.8</ele>
        <time>2017-04-16T07:46:43.000Z</time>
      </trkpt>
      <trkpt lat="43.53851" lon="2.93847">
        <ele>509.4</ele>
        <time>2017-04-16T07:46:46.000Z</time>
      </trkpt>
      <trkpt lat="43.53852" lon="2.93852">
        <ele>509.8</ele>
        <time>2017-04-16T07:46:48.000Z</time>
      </trkpt>
      <trkpt lat="43.53852" lon="2.93857">
        <ele>510.2</ele>
        <time>2017-04-16T07:46:50.000Z</time>
      </trkpt>
      <trkpt lat="43.53853" lon="2.93862">
        <ele>510.6</ele>
        <time>2017-04-16T07:46:52.000Z</time>
      </trkpt>
      <trkpt lat="43.53854" lon="2.93867">
        <ele>511</ele>
        <time>2017-04-16T07:46:54.000Z</time>
      </trkpt>
      <trkpt lat="43.53855" lon="2.93872">
        <ele>511.6</ele>
        <time>2017-04-16T07:46:56.000Z</time>
      </trkpt>
      <trkpt lat="43.53856" lon="2.93877">
        <ele>512</ele>
        <time>2017-04-16T07:46:58.000Z</time>
      </trkpt>
      <trkpt lat="43.53857" lon="2.93882">
        <ele>512.4</ele>
        <time>2017-04-16T07:47:00.000Z</time>
      </trkpt>
      <trkpt lat="43.53858" lon="2.93887">
        <ele>512.8</ele>
        <time>2017-04-16T07:47:02.000Z</time>
      </trkpt>
      <trkpt lat="43.5386" lon="2.93894">
        <ele>513.4</ele>
        <time>2017-04-16T07:47:05.000Z</time>
      </trkpt>
      <trkpt lat="43.53861" lon="2.93899">
        <ele>513.8</ele>
        <time>2017-04-16T07:47:07.000Z</time>
      </trkpt>
      <trkpt lat="43.53862" lon="2.93904">
        <ele>514.2</ele>
        <time>2017-04-16T07:47:09.000Z</time>
      </trkpt>
      <trkpt lat="43.53863" lon="2.93909">
        <ele>514.6</ele>
        <time>2017-04-16T07:47:11.000Z</time>
      </trkpt>
      <trkpt lat="43.53864" lon="2.93914">
        <ele>515</ele>
        <time>2017-04-16T07:47:13.000Z</time>
      </trkpt>
      <trkpt lat="43.53863" lon="2.93937">
        <ele>515.6</ele>
        <time>2017-04-16T07:47:22.000Z</time>
      </trkpt>
      <trkpt lat="43.53863" lon="2.93954">
        <ele>516.2</ele>
        <time>2017-04-16T07:47:29.000Z</time>
      </trkpt>
      <trkpt lat="43.53863" lon="2.93959">
        <ele>516.6</ele>
        <time>2017-04-16T07:47:31.000Z</time>
      </trkpt>
      <trkpt lat="43.53864" lon="2.93965">
        <ele>516.8</ele>
        <time>2017-04-16T07:47:33.000Z</time>
      </trkpt>
      <trkpt lat="43.53865" lon="2.9397">
        <ele>517.2</ele>
        <time>2017-04-16T07:47:35.000Z</time>
      </trkpt>
      <trkpt lat="43.53866" lon="2.93976">
        <ele>517.4</ele>
        <time>2017-04-16T07:47:37.000Z</time>
      </trkpt>
      <trkpt lat="43.53866" lon="2.93978">
        <ele>517.8</ele>
        <time>2017-04-16T07:47:38.000Z</time>
      </trkpt>
      <trkpt lat="43.53866" lon="2.93983">
        <ele>518.2</ele>
        <time>2017-04-16T07:47:40.000Z</time>
      </trkpt>
      <trkpt lat="43.53865" lon="2.93988">
        <ele>518.8</ele>
        <time>2017-04-16T07:47:42.000Z</time>
      </trkpt>
      <trkpt lat="43.53863" lon="2.93993">
        <ele>519</ele>
        <time>2017-04-16T07:47:44.000Z</time>
      </trkpt>
      <trkpt lat="43.53862" lon="2.93996">
        <ele>519.4</ele>
        <time>2017-04-16T07:47:45.000Z</time>
      </trkpt>
      <trkpt lat="43.5386" lon="2.94001">
        <ele>520</ele>
        <time>2017-04-16T07:47:47.000Z</time>
      </trkpt>
      <trkpt lat="43.53857" lon="2.94005">
        <ele>520.6</ele>
        <time>2017-04-16T07:47:49.000Z</time>
      </trkpt>
      <trkpt lat="43.53853" lon="2.94009">
        <ele>521</ele>
        <time>2017-04-16T07:47:51.000Z</time>
      </trkpt>
      <trkpt lat="43.5385" lon="2.94012">
        <ele>521.2</ele>
        <time>2017-04-16T07:47:53.000Z</time>
      </trkpt>
      <trkpt lat="43.53838" lon="2.94022">
        <ele>522</ele>
        <time>2017-04-16T07:48:01.000Z</time>
      </trkpt>
      <trkpt lat="43.53832" lon="2.94025">
        <ele>522.4</ele>
        <time>2017-04-16T07:48:04.000Z</time>
      </trkpt>
      <trkpt lat="43.53829" lon="2.94028">
        <ele>522.8</ele>
        <time>2017-04-16T07:48:06.000Z</time>
      </trkpt>
      <trkpt lat="43.53827" lon="2.94031">
        <ele>523.2</ele>
        <time>2017-04-16T07:48:08.000Z</time>
      </trkpt>
      <trkpt lat="43.53824" lon="2.94033">
        <ele>523.6</ele>
        <time>2017-04-16T07:48:10.000Z</time>
      </trkpt>
      <trkpt lat="43.53821" lon="2.94036">
        <ele>523.8</ele>
        <time>2017-04-16T07:48:12.000Z</time>
      </trkpt>
      <trkpt lat="43.53815" lon="2.94038">
        <ele>524.2</ele>
        <time>2017-04-16T07:48:15.000Z</time>
      </trkpt>
      <trkpt lat="43.53811" lon="2.9404">
        <ele>524.8</ele>
        <time>2017-04-16T07:48:17.000Z</time>
      </trkpt>
      <trkpt lat="43.53807" lon="2.94042">
        <ele>525.2</ele>
        <time>2017-04-16T07:48:19.000Z</time>
      </trkpt>
      <trkpt lat="43.53804" lon="2.94045">
        <ele>525.4</ele>
        <time>2017-04-16T07:48:21.000Z</time>
      </trkpt>
      <trkpt lat="43.538" lon="2.94046">
        <ele>525.8</ele>
        <time>2017-04-16T07:48:23.000Z</time>
      </trkpt>
      <trkpt lat="43.53798" lon="2.94048">
        <ele>526</ele>
        <time>2017-04-16T07:48:25.000Z</time>
      </trkpt>
      <trkpt lat="43.53794" lon="2.9405">
        <ele>526.2</ele>
        <time>2017-04-16T07:48:27.000Z</time>
      </trkpt>
      <trkpt lat="43.53791" lon="2.94051">
        <ele>526.8</ele>
        <time>2017-04-16T07:48:29.000Z</time>
      </trkpt>
      <trkpt lat="43.53788" lon="2.94053">
        <ele>527.2</ele>
        <time>2017-04-16T07:48:31.000Z</time>
      </trkpt>
      <trkpt lat="43.53785" lon="2.94055">
        <ele>527.4</ele>
        <time>2017-04-16T07:48:33.000Z</time>
      </trkpt>
      <trkpt lat="43.53781" lon="2.94057">
        <ele>527.8</ele>
        <time>2017-04-16T07:48:35.000Z</time>
      </trkpt>
      <trkpt lat="43.5378" lon="2.94058">
        <ele>528.2</ele>
        <time>2017-04-16T07:48:36.000Z</time>
      </trkpt>
      <trkpt lat="43.53776" lon="2.94059">
        <ele>528.6</ele>
        <time>2017-04-16T07:48:38.000Z</time>
      </trkpt>
      <trkpt lat="43.53775" lon="2.9406">
        <ele>529</ele>
        <time>2017-04-16T07:48:39.000Z</time>
      </trkpt>
      <trkpt lat="43.53771" lon="2.94063">
        <ele>529.8</ele>
        <time>2017-04-16T07:48:42.000Z</time>
      </trkpt>
      <trkpt lat="43.53768" lon="2.94066">
        <ele>530.4</ele>
        <time>2017-04-16T07:48:44.000Z</time>
      </trkpt>
      <trkpt lat="43.53766" lon="2.94068">
        <ele>531</ele>
        <time>2017-04-16T07:48:46.000Z</time>
      </trkpt>
      <trkpt lat="43.53764" lon="2.94069">
        <ele>531.2</ele>
        <time>2017-04-16T07:48:47.000Z</time>
      </trkpt>
      <trkpt lat="43.53762" lon="2.9407">
        <ele>531.4</ele>
        <time>2017-04-16T07:48:48.000Z</time>
      </trkpt>
      <trkpt lat="43.53759" lon="2.94073">
        <ele>531.8</ele>
        <time>2017-04-16T07:48:50.000Z</time>
      </trkpt>
      <trkpt lat="43.53755" lon="2.94076">
        <ele>532.2</ele>
        <time>2017-04-16T07:48:52.000Z</time>
      </trkpt>
      <trkpt lat="43.53752" lon="2.9408">
        <ele>532.8</ele>
        <time>2017-04-16T07:48:54.000Z</time>
      </trkpt>
      <trkpt lat="43.53749" lon="2.94084">
        <ele>533.4</ele>
        <time>2017-04-16T07:48:56.000Z</time>
      </trkpt>
      <trkpt lat="43.53747" lon="2.94088">
        <ele>533.8</ele>
        <time>2017-04-16T07:48:58.000Z</time>
      </trkpt>
      <trkpt lat="43.53745" lon="2.94092">
        <ele>534</ele>
        <time>2017-04-16T07:49:00.000Z</time>
      </trkpt>
      <trkpt lat="43.53743" lon="2.94098">
        <ele>534.6</ele>
        <time>2017-04-16T07:49:03.000Z</time>
      </trkpt>
      <trkpt lat="43.53741" lon="2.94102">
        <ele>535.2</ele>
        <time>2017-04-16T07:49:05.000Z</time>
      </trkpt>
      <trkpt lat="43.5374" lon="2.94106">
        <ele>535.6</ele>
        <time>2017-04-16T07:49:07.000Z</time>
      </trkpt>
      <trkpt lat="43.5374" lon="2.94111">
        <ele>536</ele>
        <time>2017-04-16T07:49:09.000Z</time>
      </trkpt>
      <trkpt lat="43.53739" lon="2.94115">
        <ele>536.4</ele>
        <time>2017-04-16T07:49:11.000Z</time>
      </trkpt>
      <trkpt lat="43.53738" lon="2.94126">
        <ele>537.2</ele>
        <time>2017-04-16T07:49:16.000Z</time>
      </trkpt>
      <trkpt lat="43.53737" lon="2.94131">
        <ele>537.6</ele>
        <time>2017-04-16T07:49:18.000Z</time>
      </trkpt>
      <trkpt lat="43.53735" lon="2.94135">
        <ele>538</ele>
        <time>2017-04-16T07:49:20.000Z</time>
      </trkpt>
      <trkpt lat="43.53732" lon="2.94138">
        <ele>538.4</ele>
        <time>2017-04-16T07:49:22.000Z</time>
      </trkpt>
      <trkpt lat="43.53728" lon="2.94141">
        <ele>538.6</ele>
        <time>2017-04-16T07:49:24.000Z</time>
      </trkpt>
      <trkpt lat="43.53725" lon="2.94142">
        <ele>539</ele>
        <time>2017-04-16T07:49:26.000Z</time>
      </trkpt>
      <trkpt lat="43.53722" lon="2.94143">
        <ele>539.6</ele>
        <time>2017-04-16T07:49:28.000Z</time>
      </trkpt>
      <trkpt lat="43.53719" lon="2.94144">
        <ele>540</ele>
        <time>2017-04-16T07:49:30.000Z</time>
      </trkpt>
      <trkpt lat="43.53718" lon="2.94143">
        <ele>540.4</ele>
        <time>2017-04-16T07:49:32.000Z</time>
      </trkpt>
      <trkpt lat="43.53715" lon="2.94143">
        <ele>541</ele>
        <time>2017-04-16T07:49:34.000Z</time>
      </trkpt>
      <trkpt lat="43.53712" lon="2.94143">
        <ele>541.6</ele>
        <time>2017-04-16T07:49:36.000Z</time>
      </trkpt>
      <trkpt lat="43.53708" lon="2.94142">
        <ele>542</ele>
        <time>2017-04-16T07:49:38.000Z</time>
      </trkpt>
      <trkpt lat="43.53704" lon="2.94142">
        <ele>542.4</ele>
        <time>2017-04-16T07:49:40.000Z</time>
      </trkpt>
      <trkpt lat="43.537" lon="2.94141">
        <ele>543</ele>
        <time>2017-04-16T07:49:42.000Z</time>
      </trkpt>
      <trkpt lat="43.53696" lon="2.9414">
        <ele>543.6</ele>
        <time>2017-04-16T07:49:44.000Z</time>
      </trkpt>
      <trkpt lat="43.53692" lon="2.94141">
        <ele>544.2</ele>
        <time>2017-04-16T07:49:46.000Z</time>
      </trkpt>
      <trkpt lat="43.53688" lon="2.94141">
        <ele>544.6</ele>
        <time>2017-04-16T07:49:48.000Z</time>
      </trkpt>
      <trkpt lat="43.53684" lon="2.9414">
        <ele>544.8</ele>
        <time>2017-04-16T07:49:50.000Z</time>
      </trkpt>
      <trkpt lat="43.53674" lon="2.94132">
        <ele>545.8</ele>
        <time>2017-04-16T07:49:57.000Z</time>
      </trkpt>
      <trkpt lat="43.53672" lon="2.94128">
        <ele>546.4</ele>
        <time>2017-04-16T07:49:59.000Z</time>
      </trkpt>
      <trkpt lat="43.5367" lon="2.94123">
        <ele>546.8</ele>
        <time>2017-04-16T07:50:01.000Z</time>
      </trkpt>
      <trkpt lat="43.53668" lon="2.94119">
        <ele>547</ele>
        <time>2017-04-16T07:50:03.000Z</time>
      </trkpt>
      <trkpt lat="43.53665" lon="2.94115">
        <ele>547.4</ele>
        <time>2017-04-16T07:50:05.000Z</time>
      </trkpt>
      <trkpt lat="43.53664" lon="2.94113">
        <ele>547.6</ele>
        <time>2017-04-16T07:50:06.000Z</time>
      </trkpt>
      <trkpt lat="43.53661" lon="2.94109">
        <ele>548.2</ele>
        <time>2017-04-16T07:50:08.000Z</time>
      </trkpt>
      <trkpt lat="43.53658" lon="2.94106">
        <ele>548.6</ele>
        <time>2017-04-16T07:50:10.000Z</time>
      </trkpt>
      <trkpt lat="43.53655" lon="2.94102">
        <ele>549</ele>
        <time>2017-04-16T07:50:12.000Z</time>
      </trkpt>
      <trkpt lat="43.53652" lon="2.94098">
        <ele>549.2</ele>
        <time>2017-04-16T07:50:14.000Z</time>
      </trkpt>
      <trkpt lat="43.53645" lon="2.94089">
        <ele>550</ele>
        <time>2017-04-16T07:50:19.000Z</time>
      </trkpt>
      <trkpt lat="43.53643" lon="2.94086">
        <ele>550.6</ele>
        <time>2017-04-16T07:50:21.000Z</time>
      </trkpt>
      <trkpt lat="43.5364" lon="2.94083">
        <ele>551</ele>
        <time>2017-04-16T07:50:23.000Z</time>
      </trkpt>
      <trkpt lat="43.53638" lon="2.9408">
        <ele>551.2</ele>
        <time>2017-04-16T07:50:25.000Z</time>
      </trkpt>
      <trkpt lat="43.53635" lon="2.94077">
        <ele>551.4</ele>
        <time>2017-04-16T07:50:27.000Z</time>
      </trkpt>
      <trkpt lat="43.53626" lon="2.94072">
        <ele>552.2</ele>
        <time>2017-04-16T07:50:32.000Z</time>
      </trkpt>
      <trkpt lat="43.53622" lon="2.94069">
        <ele>552.6</ele>
        <time>2017-04-16T07:50:34.000Z</time>
      </trkpt>
      <trkpt lat="43.53618" lon="2.94067">
        <ele>553</ele>
        <time>2017-04-16T07:50:36.000Z</time>
      </trkpt>
      <trkpt lat="43.53615" lon="2.94064">
        <ele>553.4</ele>
        <time>2017-04-16T07:50:38.000Z</time>
      </trkpt>
      <trkpt lat="43.53611" lon="2.94062">
        <ele>553.6</ele>
        <time>2017-04-16T07:50:40.000Z</time>
      </trkpt>
      <trkpt lat="43.53598" lon="2.94051">
        <ele>554.2</ele>
        <time>2017-04-16T07:50:49.000Z</time>
      </trkpt>
      <trkpt lat="43.53597" lon="2.9405">
        <ele>554.6</ele>
        <time>2017-04-16T07:50:50.000Z</time>
      </trkpt>
      <trkpt lat="43.53594" lon="2.94048">
        <ele>555</ele>
        <time>2017-04-16T07:50:52.000Z</time>
      </trkpt>
      <trkpt lat="43.53591" lon="2.94047">
        <ele>555.4</ele>
        <time>2017-04-16T07:50:54.000Z</time>
      </trkpt>
      <trkpt lat="43.5359" lon="2.94046">
        <ele>555.8</ele>
        <time>2017-04-16T07:50:55.000Z</time>
      </trkpt>
      <trkpt lat="43.53587" lon="2.94043">
        <ele>556.4</ele>
        <time>2017-04-16T07:50:57.000Z</time>
      </trkpt>
      <trkpt lat="43.53583" lon="2.94042">
        <ele>557</ele>
        <time>2017-04-16T07:50:59.000Z</time>
      </trkpt>
      <trkpt lat="43.5358" lon="2.94041">
        <ele>557.4</ele>
        <time>2017-04-16T07:51:01.000Z</time>
      </trkpt>
      <trkpt lat="43.53578" lon="2.9404">
        <ele>557.8</ele>
        <time>2017-04-16T07:51:02.000Z</time>
      </trkpt>
      <trkpt lat="43.53575" lon="2.94038">
        <ele>558.6</ele>
        <time>2017-04-16T07:51:04.000Z</time>
      </trkpt>
      <trkpt lat="43.53572" lon="2.94037">
        <ele>559</ele>
        <time>2017-04-16T07:51:06.000Z</time>
      </trkpt>
      <trkpt lat="43.53569" lon="2.94035">
        <ele>559.6</ele>
        <time>2017-04-16T07:51:08.000Z</time>
      </trkpt>
      <trkpt lat="43.53566" lon="2.94032">
        <ele>560.2</ele>
        <time>2017-04-16T07:51:10.000Z</time>
      </trkpt>
      <trkpt lat="43.53563" lon="2.9403">
        <ele>560.8</ele>
        <time>2017-04-16T07:51:12.000Z</time>
      </trkpt>
      <trkpt lat="43.53559" lon="2.94028">
        <ele>561.4</ele>
        <time>2017-04-16T07:51:14.000Z</time>
      </trkpt>
      <trkpt lat="43.53557" lon="2.94027">
        <ele>561.8</ele>
        <time>2017-04-16T07:51:16.000Z</time>
      </trkpt>
      <trkpt lat="43.53553" lon="2.94024">
        <ele>562.2</ele>
        <time>2017-04-16T07:51:18.000Z</time>
      </trkpt>
      <trkpt lat="43.53547" lon="2.9402">
        <ele>562.8</ele>
        <time>2017-04-16T07:51:21.000Z</time>
      </trkpt>
      <trkpt lat="43.53543" lon="2.94018">
        <ele>563.4</ele>
        <time>2017-04-16T07:51:23.000Z</time>
      </trkpt>
      <trkpt lat="43.5354" lon="2.94017">
        <ele>563.8</ele>
        <time>2017-04-16T07:51:25.000Z</time>
      </trkpt>
      <trkpt lat="43.53537" lon="2.94016">
        <ele>564.2</ele>
        <time>2017-04-16T07:51:27.000Z</time>
      </trkpt>
      <trkpt lat="43.53533" lon="2.94015">
        <ele>564.8</ele>
        <time>2017-04-16T07:51:29.000Z</time>
      </trkpt>
      <trkpt lat="43.53531" lon="2.94014">
        <ele>565.6</ele>
        <time>2017-04-16T07:51:31.000Z</time>
      </trkpt>
      <trkpt lat="43.5353" lon="2.94013">
        <ele>566</ele>
        <time>2017-04-16T07:51:32.000Z</time>
      </trkpt>
      <trkpt lat="43.53527" lon="2.94012">
        <ele>567</ele>
        <time>2017-04-16T07:51:34.000Z</time>
      </trkpt>
      <trkpt lat="43.53524" lon="2.94011">
        <ele>567.6</ele>
        <time>2017-04-16T07:51:36.000Z</time>
      </trkpt>
      <trkpt lat="43.53522" lon="2.94009">
        <ele>568.2</ele>
        <time>2017-04-16T07:51:38.000Z</time>
      </trkpt>
      <trkpt lat="43.53519" lon="2.94006">
        <ele>568.8</ele>
        <time>2017-04-16T07:51:40.000Z</time>
      </trkpt>
      <trkpt lat="43.53518" lon="2.94005">
        <ele>569</ele>
        <time>2017-04-16T07:51:41.000Z</time>
      </trkpt>
      <trkpt lat="43.5351" lon="2.93993">
        <ele>569.8</ele>
        <time>2017-04-16T07:51:47.000Z</time>
      </trkpt>
      <trkpt lat="43.53498" lon="2.93979">
        <ele>570.4</ele>
        <time>2017-04-16T07:51:55.000Z</time>
      </trkpt>
      <trkpt lat="43.53496" lon="2.93978">
        <ele>570.6</ele>
        <time>2017-04-16T07:51:56.000Z</time>
      </trkpt>
      <trkpt lat="43.53493" lon="2.93977">
        <ele>571</ele>
        <time>2017-04-16T07:51:58.000Z</time>
      </trkpt>
      <trkpt lat="43.5349" lon="2.93975">
        <ele>571.4</ele>
        <time>2017-04-16T07:52:00.000Z</time>
      </trkpt>
      <trkpt lat="43.53488" lon="2.93973">
        <ele>571.8</ele>
        <time>2017-04-16T07:52:02.000Z</time>
      </trkpt>
      <trkpt lat="43.53487" lon="2.93973">
        <ele>571.8</ele>
        <time>2017-04-16T07:52:03.000Z</time>
      </trkpt>
      <trkpt lat="43.53486" lon="2.93973">
        <ele>572</ele>
        <time>2017-04-16T07:52:04.000Z</time>
      </trkpt>
      <trkpt lat="43.53481" lon="2.93974">
        <ele>572.4</ele>
        <time>2017-04-16T07:52:09.000Z</time>
      </trkpt>
      <trkpt lat="43.53478" lon="2.93977">
        <ele>572.6</ele>
        <time>2017-04-16T07:52:11.000Z</time>
      </trkpt>
      <trkpt lat="43.53473" lon="2.9399">
        <ele>572.8</ele>
        <time>2017-04-16T07:52:17.000Z</time>
      </trkpt>
      <trkpt lat="43.53473" lon="2.93992">
        <ele>572.8</ele>
        <time>2017-04-16T07:52:18.000Z</time>
      </trkpt>
      <trkpt lat="43.53473" lon="2.94001">
        <ele>573</ele>
        <time>2017-04-16T07:52:22.000Z</time>
      </trkpt>
      <trkpt lat="43.53474" lon="2.94005">
        <ele>573.4</ele>
        <time>2017-04-16T07:52:24.000Z</time>
      </trkpt>
      <trkpt lat="43.53475" lon="2.9401">
        <ele>573.8</ele>
        <time>2017-04-16T07:52:26.000Z</time>
      </trkpt>
      <trkpt lat="43.53476" lon="2.94012">
        <ele>574</ele>
        <time>2017-04-16T07:52:27.000Z</time>
      </trkpt>
      <trkpt lat="43.53477" lon="2.94016">
        <ele>574.6</ele>
        <time>2017-04-16T07:52:29.000Z</time>
      </trkpt>
      <trkpt lat="43.53479" lon="2.9402">
        <ele>575.2</ele>
        <time>2017-04-16T07:52:31.000Z</time>
      </trkpt>
      <trkpt lat="43.5348" lon="2.94023">
        <ele>575.6</ele>
        <time>2017-04-16T07:52:33.000Z</time>
      </trkpt>
      <trkpt lat="43.53482" lon="2.94027">
        <ele>575.8</ele>
        <time>2017-04-16T07:52:35.000Z</time>
      </trkpt>
      <trkpt lat="43.53488" lon="2.94041">
        <ele>576.8</ele>
        <time>2017-04-16T07:52:42.000Z</time>
      </trkpt>
      <trkpt lat="43.5349" lon="2.94044">
        <ele>577.4</ele>
        <time>2017-04-16T07:52:44.000Z</time>
      </trkpt>
      <trkpt lat="43.53492" lon="2.94048">
        <ele>577.8</ele>
        <time>2017-04-16T07:52:46.000Z</time>
      </trkpt>
      <trkpt lat="43.53494" lon="2.94051">
        <ele>578.2</ele>
        <time>2017-04-16T07:52:48.000Z</time>
      </trkpt>
      <trkpt lat="43.53495" lon="2.94054">
        <ele>578.8</ele>
        <time>2017-04-16T07:52:50.000Z</time>
      </trkpt>
      <trkpt lat="43.53497" lon="2.94058">
        <ele>579.4</ele>
        <time>2017-04-16T07:52:52.000Z</time>
      </trkpt>
      <trkpt lat="43.53498" lon="2.94059">
        <ele>579.6</ele>
        <time>2017-04-16T07:52:53.000Z</time>
      </trkpt>
      <trkpt lat="43.53501" lon="2.94063">
        <ele>580.2</ele>
        <time>2017-04-16T07:52:56.000Z</time>
      </trkpt>
      <trkpt lat="43.53503" lon="2.94066">
        <ele>580.6</ele>
        <time>2017-04-16T07:52:58.000Z</time>
      </trkpt>
      <trkpt lat="43.53511" lon="2.94076">
        <ele>581.4</ele>
        <time>2017-04-16T07:53:05.000Z</time>
      </trkpt>
      <trkpt lat="43.53512" lon="2.94077">
        <ele>581.8</ele>
        <time>2017-04-16T07:53:06.000Z</time>
      </trkpt>
      <trkpt lat="43.53513" lon="2.94079">
        <ele>582</ele>
        <time>2017-04-16T07:53:07.000Z</time>
      </trkpt>
      <trkpt lat="43.53516" lon="2.94081">
        <ele>582.4</ele>
        <time>2017-04-16T07:53:09.000Z</time>
      </trkpt>
      <trkpt lat="43.53517" lon="2.94083">
        <ele>582.4</ele>
        <time>2017-04-16T07:53:10.000Z</time>
      </trkpt>
      <trkpt lat="43.53518" lon="2.94084">
        <ele>582.6</ele>
        <time>2017-04-16T07:53:11.000Z</time>
      </trkpt>
      <trkpt lat="43.53519" lon="2.94086">
        <ele>582.8</ele>
        <time>2017-04-16T07:53:12.000Z</time>
      </trkpt>
      <trkpt lat="43.53525" lon="2.94092">
        <ele>583.4</ele>
        <time>2017-04-16T07:53:18.000Z</time>
      </trkpt>
      <trkpt lat="43.53529" lon="2.94096">
        <ele>584</ele>
        <time>2017-04-16T07:53:21.000Z</time>
      </trkpt>
      <trkpt lat="43.53531" lon="2.94099">
        <ele>584.4</ele>
        <time>2017-04-16T07:53:23.000Z</time>
      </trkpt>
      <trkpt lat="43.53532" lon="2.941">
        <ele>584.6</ele>
        <time>2017-04-16T07:53:24.000Z</time>
      </trkpt>
      <trkpt lat="43.53535" lon="2.94102">
        <ele>584.8</ele>
        <time>2017-04-16T07:53:26.000Z</time>
      </trkpt>
      <trkpt lat="43.53538" lon="2.94106">
        <ele>585.2</ele>
        <time>2017-04-16T07:53:29.000Z</time>
      </trkpt>
      <trkpt lat="43.53542" lon="2.9411">
        <ele>585.6</ele>
        <time>2017-04-16T07:53:33.000Z</time>
      </trkpt>
      <trkpt lat="43.53548" lon="2.94122">
        <ele>586</ele>
        <time>2017-04-16T07:53:41.000Z</time>
      </trkpt>
      <trkpt lat="43.5355" lon="2.94126">
        <ele>586.4</ele>
        <time>2017-04-16T07:53:43.000Z</time>
      </trkpt>
      <trkpt lat="43.53551" lon="2.94129">
        <ele>586.8</ele>
        <time>2017-04-16T07:53:45.000Z</time>
      </trkpt>
      <trkpt lat="43.53553" lon="2.94131">
        <ele>587</ele>
        <time>2017-04-16T07:53:47.000Z</time>
      </trkpt>
      <trkpt lat="43.53554" lon="2.94134">
        <ele>587.2</ele>
        <time>2017-04-16T07:53:49.000Z</time>
      </trkpt>
      <trkpt lat="43.53558" lon="2.94143">
        <ele>587.6</ele>
        <time>2017-04-16T07:53:55.000Z</time>
      </trkpt>
      <trkpt lat="43.53559" lon="2.94146">
        <ele>588</ele>
        <time>2017-04-16T07:53:57.000Z</time>
      </trkpt>
      <trkpt lat="43.53561" lon="2.94148">
        <ele>588.4</ele>
        <time>2017-04-16T07:53:59.000Z</time>
      </trkpt>
      <trkpt lat="43.53562" lon="2.94151">
        <ele>588.8</ele>
        <time>2017-04-16T07:54:01.000Z</time>
      </trkpt>
      <trkpt lat="43.53563" lon="2.94153">
        <ele>588.8</ele>
        <time>2017-04-16T07:54:02.000Z</time>
      </trkpt>
      <trkpt lat="43.53565" lon="2.94158">
        <ele>589.2</ele>
        <time>2017-04-16T07:54:05.000Z</time>
      </trkpt>
      <trkpt lat="43.53567" lon="2.94163">
        <ele>589.4</ele>
        <time>2017-04-16T07:54:08.000Z</time>
      </trkpt>
      <trkpt lat="43.53568" lon="2.94166">
        <ele>589.6</ele>
        <time>2017-04-16T07:54:10.000Z</time>
      </trkpt>
      <trkpt lat="43.5357" lon="2.94169">
        <ele>590</ele>
        <time>2017-04-16T07:54:12.000Z</time>
      </trkpt>
      <trkpt lat="43.53571" lon="2.94172">
        <ele>590.4</ele>
        <time>2017-04-16T07:54:14.000Z</time>
      </trkpt>
      <trkpt lat="43.53572" lon="2.94173">
        <ele>590.6</ele>
        <time>2017-04-16T07:54:15.000Z</time>
      </trkpt>
      <trkpt lat="43.53573" lon="2.94175">
        <ele>590.8</ele>
        <time>2017-04-16T07:54:16.000Z</time>
      </trkpt>
      <trkpt lat="43.53574" lon="2.94177">
        <ele>591</ele>
        <time>2017-04-16T07:54:18.000Z</time>
      </trkpt>
      <trkpt lat="43.53576" lon="2.9418">
        <ele>591.4</ele>
        <time>2017-04-16T07:54:20.000Z</time>
      </trkpt>
      <trkpt lat="43.53581" lon="2.94189">
        <ele>592</ele>
        <time>2017-04-16T07:54:26.000Z</time>
      </trkpt>
      <trkpt lat="43.53583" lon="2.94191">
        <ele>592.4</ele>
        <time>2017-04-16T07:54:28.000Z</time>
      </trkpt>
      <trkpt lat="43.53584" lon="2.94194">
        <ele>592.8</ele>
        <time>2017-04-16T07:54:30.000Z</time>
      </trkpt>
      <trkpt lat="43.53584" lon="2.94197">
        <ele>593.2</ele>
        <time>2017-04-16T07:54:32.000Z</time>
      </trkpt>
      <trkpt lat="43.53585" lon="2.942">
        <ele>593.4</ele>
        <time>2017-04-16T07:54:34.000Z</time>
      </trkpt>
      <trkpt lat="43.53586" lon="2.94203">
        <ele>593.8</ele>
        <time>2017-04-16T07:54:36.000Z</time>
      </trkpt>
      <trkpt lat="43.53587" lon="2.94205">
        <ele>594.4</ele>
        <time>2017-04-16T07:54:38.000Z</time>
      </trkpt>
      <trkpt lat="43.53588" lon="2.94208">
        <ele>594.8</ele>
        <time>2017-04-16T07:54:40.000Z</time>
      </trkpt>
      <trkpt lat="43.53589" lon="2.94211">
        <ele>595.2</ele>
        <time>2017-04-16T07:54:42.000Z</time>
      </trkpt>
      <trkpt lat="43.5359" lon="2.94215">
        <ele>595.4</ele>
        <time>2017-04-16T07:54:44.000Z</time>
      </trkpt>
      <trkpt lat="43.53595" lon="2.94225">
        <ele>596</ele>
        <time>2017-04-16T07:54:50.000Z</time>
      </trkpt>
      <trkpt lat="43.53598" lon="2.94235">
        <ele>596.4</ele>
        <time>2017-04-16T07:54:56.000Z</time>
      </trkpt>
      <trkpt lat="43.536" lon="2.94238">
        <ele>596.8</ele>
        <time>2017-04-16T07:54:58.000Z</time>
      </trkpt>
      <trkpt lat="43.53601" lon="2.94242">
        <ele>597.2</ele>
        <time>2017-04-16T07:55:00.000Z</time>
      </trkpt>
      <trkpt lat="43.53602" lon="2.94245">
        <ele>597.6</ele>
        <time>2017-04-16T07:55:02.000Z</time>
      </trkpt>
      <trkpt lat="43.53603" lon="2.94247">
        <ele>597.6</ele>
        <time>2017-04-16T07:55:03.000Z</time>
      </trkpt>
      <trkpt lat="43.53603" lon="2.94249">
        <ele>597.8</ele>
        <time>2017-04-16T07:55:04.000Z</time>
      </trkpt>
      <trkpt lat="43.53605" lon="2.94253">
        <ele>598.2</ele>
        <time>2017-04-16T07:55:06.000Z</time>
      </trkpt>
      <trkpt lat="43.53606" lon="2.94257">
        <ele>598.8</ele>
        <time>2017-04-16T07:55:08.000Z</time>
      </trkpt>
      <trkpt lat="43.53608" lon="2.9426">
        <ele>599.2</ele>
        <time>2017-04-16T07:55:10.000Z</time>
      </trkpt>
      <trkpt lat="43.5361" lon="2.94263">
        <ele>599.4</ele>
        <time>2017-04-16T07:55:12.000Z</time>
      </trkpt>
      <trkpt lat="43.53612" lon="2.94264">
        <ele>599.8</ele>
        <time>2017-04-16T07:55:13.000Z</time>
      </trkpt>
      <trkpt lat="43.53614" lon="2.94266">
        <ele>600.4</ele>
        <time>2017-04-16T07:55:15.000Z</time>
      </trkpt>
      <trkpt lat="43.53615" lon="2.94267">
        <ele>600.6</ele>
        <time>2017-04-16T07:55:16.000Z</time>
      </trkpt>
      <trkpt lat="43.53616" lon="2.94269">
        <ele>601</ele>
        <time>2017-04-16T07:55:17.000Z</time>
      </trkpt>
      <trkpt lat="43.53618" lon="2.94271">
        <ele>601.4</ele>
        <time>2017-04-16T07:55:19.000Z</time>
      </trkpt>
      <trkpt lat="43.53619" lon="2.94272">
        <ele>601.4</ele>
        <time>2017-04-16T07:55:20.000Z</time>
      </trkpt>
      <trkpt lat="43.5362" lon="2.94274">
        <ele>601.6</ele>
        <time>2017-04-16T07:55:21.000Z</time>
      </trkpt>
      <trkpt lat="43.53623" lon="2.94281">
        <ele>602.4</ele>
        <time>2017-04-16T07:55:26.000Z</time>
      </trkpt>
      <trkpt lat="43.53625" lon="2.94284">
        <ele>603</ele>
        <time>2017-04-16T07:55:28.000Z</time>
      </trkpt>
      <trkpt lat="43.53627" lon="2.94286">
        <ele>603.4</ele>
        <time>2017-04-16T07:55:30.000Z</time>
      </trkpt>
      <trkpt lat="43.53629" lon="2.94289">
        <ele>603.8</ele>
        <time>2017-04-16T07:55:32.000Z</time>
      </trkpt>
      <trkpt lat="43.53632" lon="2.94291">
        <ele>604</ele>
        <time>2017-04-16T07:55:34.000Z</time>
      </trkpt>
      <trkpt lat="43.53633" lon="2.94294">
        <ele>604.4</ele>
        <time>2017-04-16T07:55:36.000Z</time>
      </trkpt>
      <trkpt lat="43.53633" lon="2.94295">
        <ele>604.8</ele>
        <time>2017-04-16T07:55:37.000Z</time>
      </trkpt>
      <trkpt lat="43.53635" lon="2.94299">
        <ele>605.4</ele>
        <time>2017-04-16T07:55:40.000Z</time>
      </trkpt>
      <trkpt lat="43.53637" lon="2.94301">
        <ele>605.8</ele>
        <time>2017-04-16T07:55:42.000Z</time>
      </trkpt>
      <trkpt lat="43.53638" lon="2.94304">
        <ele>606</ele>
        <time>2017-04-16T07:55:44.000Z</time>
      </trkpt>
      <trkpt lat="43.53642" lon="2.94308">
        <ele>606.6</ele>
        <time>2017-04-16T07:55:47.000Z</time>
      </trkpt>
      <trkpt lat="43.53644" lon="2.9431">
        <ele>607.2</ele>
        <time>2017-04-16T07:55:49.000Z</time>
      </trkpt>
      <trkpt lat="43.53646" lon="2.94313">
        <ele>607.6</ele>
        <time>2017-04-16T07:55:51.000Z</time>
      </trkpt>
      <trkpt lat="43.53648" lon="2.94317">
        <ele>608</ele>
        <time>2017-04-16T07:55:53.000Z</time>
      </trkpt>
      <trkpt lat="43.5365" lon="2.9432">
        <ele>608.4</ele>
        <time>2017-04-16T07:55:55.000Z</time>
      </trkpt>
      <trkpt lat="43.53657" lon="2.94332">
        <ele>609</ele>
        <time>2017-04-16T07:56:03.000Z</time>
      </trkpt>
      <trkpt lat="43.53659" lon="2.94334">
        <ele>609.4</ele>
        <time>2017-04-16T07:56:05.000Z</time>
      </trkpt>
      <trkpt lat="43.53661" lon="2.94336">
        <ele>609.8</ele>
        <time>2017-04-16T07:56:07.000Z</time>
      </trkpt>
      <trkpt lat="43.53664" lon="2.94339">
        <ele>610.2</ele>
        <time>2017-04-16T07:56:09.000Z</time>
      </trkpt>
      <trkpt lat="43.53666" lon="2.94341">
        <ele>610.6</ele>
        <time>2017-04-16T07:56:11.000Z</time>
      </trkpt>
      <trkpt lat="43.53667" lon="2.94342">
        <ele>610.8</ele>
        <time>2017-04-16T07:56:12.000Z</time>
      </trkpt>
      <trkpt lat="43.53669" lon="2.94345">
        <ele>611.4</ele>
        <time>2017-04-16T07:56:14.000Z</time>
      </trkpt>
      <trkpt lat="43.53671" lon="2.94348">
        <ele>611.8</ele>
        <time>2017-04-16T07:56:16.000Z</time>
      </trkpt>
      <trkpt lat="43.53673" lon="2.9435">
        <ele>612.2</ele>
        <time>2017-04-16T07:56:18.000Z</time>
      </trkpt>
      <trkpt lat="43.53675" lon="2.94353">
        <ele>612.6</ele>
        <time>2017-04-16T07:56:20.000Z</time>
      </trkpt>
      <trkpt lat="43.5368" lon="2.94359">
        <ele>613.4</ele>
        <time>2017-04-16T07:56:25.000Z</time>
      </trkpt>
      <trkpt lat="43.53682" lon="2.94362">
        <ele>613.8</ele>
        <time>2017-04-16T07:56:27.000Z</time>
      </trkpt>
      <trkpt lat="43.53684" lon="2.94365">
        <ele>614.4</ele>
        <time>2017-04-16T07:56:29.000Z</time>
      </trkpt>
      <trkpt lat="43.53685" lon="2.94367">
        <ele>614.6</ele>
        <time>2017-04-16T07:56:31.000Z</time>
      </trkpt>
      <trkpt lat="43.53687" lon="2.9437">
        <ele>615.2</ele>
        <time>2017-04-16T07:56:33.000Z</time>
      </trkpt>
      <trkpt lat="43.53689" lon="2.94372">
        <ele>615.8</ele>
        <time>2017-04-16T07:56:35.000Z</time>
      </trkpt>
      <trkpt lat="43.5369" lon="2.94375">
        <ele>616.2</ele>
        <time>2017-04-16T07:56:37.000Z</time>
      </trkpt>
      <trkpt lat="43.53692" lon="2.94378">
        <ele>616.6</ele>
        <time>2017-04-16T07:56:39.000Z</time>
      </trkpt>
      <trkpt lat="43.53694" lon="2.9438">
        <ele>617</ele>
        <time>2017-04-16T07:56:41.000Z</time>
      </trkpt>
      <trkpt lat="43.53697" lon="2.94384">
        <ele>617.6</ele>
        <time>2017-04-16T07:56:44.000Z</time>
      </trkpt>
      <trkpt lat="43.53699" lon="2.94386">
        <ele>618.2</ele>
        <time>2017-04-16T07:56:46.000Z</time>
      </trkpt>
      <trkpt lat="43.537" lon="2.94389">
        <ele>618.6</ele>
        <time>2017-04-16T07:56:48.000Z</time>
      </trkpt>
      <trkpt lat="43.53702" lon="2.94391">
        <ele>619</ele>
        <time>2017-04-16T07:56:50.000Z</time>
      </trkpt>
      <trkpt lat="43.53704" lon="2.94393">
        <ele>619.2</ele>
        <time>2017-04-16T07:56:52.000Z</time>
      </trkpt>
      <trkpt lat="43.53706" lon="2.94395">
        <ele>619.4</ele>
        <time>2017-04-16T07:56:54.000Z</time>
      </trkpt>
      <trkpt lat="43.53709" lon="2.94399">
        <ele>619.8</ele>
        <time>2017-04-16T07:56:58.000Z</time>
      </trkpt>
      <trkpt lat="43.53712" lon="2.94405">
        <ele>620.4</ele>
        <time>2017-04-16T07:57:03.000Z</time>
      </trkpt>
      <trkpt lat="43.53714" lon="2.94408">
        <ele>620.8</ele>
        <time>2017-04-16T07:57:05.000Z</time>
      </trkpt>
      <trkpt lat="43.53715" lon="2.94409">
        <ele>621.2</ele>
        <time>2017-04-16T07:57:07.000Z</time>
      </trkpt>
      <trkpt lat="43.53716" lon="2.94411">
        <ele>621.4</ele>
        <time>2017-04-16T07:57:08.000Z</time>
      </trkpt>
      <trkpt lat="43.53717" lon="2.94412">
        <ele>621.4</ele>
        <time>2017-04-16T07:57:09.000Z</time>
      </trkpt>
      <trkpt lat="43.53719" lon="2.94414">
        <ele>621.8</ele>
        <time>2017-04-16T07:57:11.000Z</time>
      </trkpt>
      <trkpt lat="43.53721" lon="2.94417">
        <ele>622.2</ele>
        <time>2017-04-16T07:57:13.000Z</time>
      </trkpt>
      <trkpt lat="43.53724" lon="2.94419">
        <ele>622.6</ele>
        <time>2017-04-16T07:57:15.000Z</time>
      </trkpt>
      <trkpt lat="43.53725" lon="2.94422">
        <ele>623</ele>
        <time>2017-04-16T07:57:17.000Z</time>
      </trkpt>
      <trkpt lat="43.53726" lon="2.94423">
        <ele>623.2</ele>
        <time>2017-04-16T07:57:18.000Z</time>
      </trkpt>
      <trkpt lat="43.53727" lon="2.94424">
        <ele>623.4</ele>
        <time>2017-04-16T07:57:19.000Z</time>
      </trkpt>
      <trkpt lat="43.53729" lon="2.94426">
        <ele>623.6</ele>
        <time>2017-04-16T07:57:21.000Z</time>
      </trkpt>
      <trkpt lat="43.53733" lon="2.9443">
        <ele>624.2</ele>
        <time>2017-04-16T07:57:24.000Z</time>
      </trkpt>
      <trkpt lat="43.53736" lon="2.94433">
        <ele>624.6</ele>
        <time>2017-04-16T07:57:26.000Z</time>
      </trkpt>
      <trkpt lat="43.53737" lon="2.94434">
        <ele>624.8</ele>
        <time>2017-04-16T07:57:27.000Z</time>
      </trkpt>
      <trkpt lat="43.5374" lon="2.94438">
        <ele>625.4</ele>
        <time>2017-04-16T07:57:30.000Z</time>
      </trkpt>
      <trkpt lat="43.53742" lon="2.94441">
        <ele>625.6</ele>
        <time>2017-04-16T07:57:32.000Z</time>
      </trkpt>
      <trkpt lat="43.53743" lon="2.94442">
        <ele>625.8</ele>
        <time>2017-04-16T07:57:33.000Z</time>
      </trkpt>
      <trkpt lat="43.53745" lon="2.94445">
        <ele>626</ele>
        <time>2017-04-16T07:57:35.000Z</time>
      </trkpt>
      <trkpt lat="43.5375" lon="2.94452">
        <ele>626.6</ele>
        <time>2017-04-16T07:57:40.000Z</time>
      </trkpt>
      <trkpt lat="43.53751" lon="2.94455">
        <ele>627</ele>
        <time>2017-04-16T07:57:42.000Z</time>
      </trkpt>
      <trkpt lat="43.53753" lon="2.94458">
        <ele>627.4</ele>
        <time>2017-04-16T07:57:44.000Z</time>
      </trkpt>
      <trkpt lat="43.53754" lon="2.9446">
        <ele>627.6</ele>
        <time>2017-04-16T07:57:45.000Z</time>
      </trkpt>
      <trkpt lat="43.53755" lon="2.94461">
        <ele>627.6</ele>
        <time>2017-04-16T07:57:46.000Z</time>
      </trkpt>
      <trkpt lat="43.53757" lon="2.94464">
        <ele>628.2</ele>
        <time>2017-04-16T07:57:48.000Z</time>
      </trkpt>
      <trkpt lat="43.5376" lon="2.94466">
        <ele>628.6</ele>
        <time>2017-04-16T07:57:50.000Z</time>
      </trkpt>
      <trkpt lat="43.53761" lon="2.94467">
        <ele>629</ele>
        <time>2017-04-16T07:57:51.000Z</time>
      </trkpt>
      <trkpt lat="43.53762" lon="2.94469">
        <ele>629.2</ele>
        <time>2017-04-16T07:57:52.000Z</time>
      </trkpt>
      <trkpt lat="43.53764" lon="2.94471">
        <ele>629.4</ele>
        <time>2017-04-16T07:57:54.000Z</time>
      </trkpt>
      <trkpt lat="43.53766" lon="2.94473">
        <ele>629.8</ele>
        <time>2017-04-16T07:57:56.000Z</time>
      </trkpt>
      <trkpt lat="43.53771" lon="2.94478">
        <ele>630.4</ele>
        <time>2017-04-16T07:58:00.000Z</time>
      </trkpt>
      <trkpt lat="43.53773" lon="2.9448">
        <ele>631</ele>
        <time>2017-04-16T07:58:02.000Z</time>
      </trkpt>
      <trkpt lat="43.53775" lon="2.94482">
        <ele>631.4</ele>
        <time>2017-04-16T07:58:04.000Z</time>
      </trkpt>
      <trkpt lat="43.53777" lon="2.94485">
        <ele>631.8</ele>
        <time>2017-04-16T07:58:06.000Z</time>
      </trkpt>
      <trkpt lat="43.53779" lon="2.94488">
        <ele>632</ele>
        <time>2017-04-16T07:58:08.000Z</time>
      </trkpt>
      <trkpt lat="43.53782" lon="2.94492">
        <ele>632.6</ele>
        <time>2017-04-16T07:58:11.000Z</time>
      </trkpt>
      <trkpt lat="43.53784" lon="2.94494">
        <ele>633</ele>
        <time>2017-04-16T07:58:13.000Z</time>
      </trkpt>
      <trkpt lat="43.53786" lon="2.94497">
        <ele>633.4</ele>
        <time>2017-04-16T07:58:15.000Z</time>
      </trkpt>
      <trkpt lat="43.53788" lon="2.94499">
        <ele>633.8</ele>
        <time>2017-04-16T07:58:17.000Z</time>
      </trkpt>
      <trkpt lat="43.53789" lon="2.94501">
        <ele>634.2</ele>
        <time>2017-04-16T07:58:18.000Z</time>
      </trkpt>
      <trkpt lat="43.53791" lon="2.94504">
        <ele>634.8</ele>
        <time>2017-04-16T07:58:20.000Z</time>
      </trkpt>
      <trkpt lat="43.53793" lon="2.94506">
        <ele>635.2</ele>
        <time>2017-04-16T07:58:22.000Z</time>
      </trkpt>
      <trkpt lat="43.53795" lon="2.94509">
        <ele>635.6</ele>
        <time>2017-04-16T07:58:24.000Z</time>
      </trkpt>
      <trkpt lat="43.53796" lon="2.94512">
        <ele>636</ele>
        <time>2017-04-16T07:58:26.000Z</time>
      </trkpt>
      <trkpt lat="43.53808" lon="2.94527">
        <ele>637</ele>
        <time>2017-04-16T07:58:37.000Z</time>
      </trkpt>
      <trkpt lat="43.5381" lon="2.94529">
        <ele>637.2</ele>
        <time>2017-04-16T07:58:39.000Z</time>
      </trkpt>
      <trkpt lat="43.53811" lon="2.94532">
        <ele>637.6</ele>
        <time>2017-04-16T07:58:41.000Z</time>
      </trkpt>
      <trkpt lat="43.53813" lon="2.94535">
        <ele>638</ele>
        <time>2017-04-16T07:58:43.000Z</time>
      </trkpt>
      <trkpt lat="43.53815" lon="2.94537">
        <ele>638.2</ele>
        <time>2017-04-16T07:58:45.000Z</time>
      </trkpt>
      <trkpt lat="43.53817" lon="2.94541">
        <ele>638.4</ele>
        <time>2017-04-16T07:58:47.000Z</time>
      </trkpt>
      <trkpt lat="43.5382" lon="2.94545">
        <ele>639</ele>
        <time>2017-04-16T07:58:50.000Z</time>
      </trkpt>
      <trkpt lat="43.53823" lon="2.94547">
        <ele>639.4</ele>
        <time>2017-04-16T07:58:52.000Z</time>
      </trkpt>
      <trkpt lat="43.53825" lon="2.9455">
        <ele>639.8</ele>
        <time>2017-04-16T07:58:54.000Z</time>
      </trkpt>
      <trkpt lat="43.53827" lon="2.94553">
        <ele>640.2</ele>
        <time>2017-04-16T07:58:56.000Z</time>
      </trkpt>
      <trkpt lat="43.53829" lon="2.94555">
        <ele>640.4</ele>
        <time>2017-04-16T07:58:58.000Z</time>
      </trkpt>
      <trkpt lat="43.53833" lon="2.94561">
        <ele>641</ele>
        <time>2017-04-16T07:59:02.000Z</time>
      </trkpt>
      <trkpt lat="43.53835" lon="2.94564">
        <ele>641.6</ele>
        <time>2017-04-16T07:59:04.000Z</time>
      </trkpt>
      <trkpt lat="43.53837" lon="2.94567">
        <ele>642</ele>
        <time>2017-04-16T07:59:06.000Z</time>
      </trkpt>
      <trkpt lat="43.5384" lon="2.9457">
        <ele>642.2</ele>
        <time>2017-04-16T07:59:08.000Z</time>
      </trkpt>
      <trkpt lat="43.53842" lon="2.94572">
        <ele>642.6</ele>
        <time>2017-04-16T07:59:10.000Z</time>
      </trkpt>
      <trkpt lat="43.53853" lon="2.94578">
        <ele>643</ele>
        <time>2017-04-16T07:59:16.000Z</time>
      </trkpt>
      <trkpt lat="43.53867" lon="2.94585">
        <ele>643.4</ele>
        <time>2017-04-16T07:59:23.000Z</time>
      </trkpt>
      <trkpt lat="43.5387" lon="2.94588">
        <ele>643.6</ele>
        <time>2017-04-16T07:59:25.000Z</time>
      </trkpt>
      <trkpt lat="43.5387" lon="2.9459">
        <ele>643.8</ele>
        <time>2017-04-16T07:59:26.000Z</time>
      </trkpt>
      <trkpt lat="43.53871" lon="2.94592">
        <ele>644.2</ele>
        <time>2017-04-16T07:59:27.000Z</time>
      </trkpt>
      <trkpt lat="43.53873" lon="2.94597">
        <ele>644.4</ele>
        <time>2017-04-16T07:59:29.000Z</time>
      </trkpt>
      <trkpt lat="43.53874" lon="2.94602">
        <ele>644.8</ele>
        <time>2017-04-16T07:59:31.000Z</time>
      </trkpt>
      <trkpt lat="43.53874" lon="2.94605">
        <ele>645</ele>
        <time>2017-04-16T07:59:32.000Z</time>
      </trkpt>
      <trkpt lat="43.53869" lon="2.94612">
        <ele>645.4</ele>
        <time>2017-04-16T07:59:38.000Z</time>
      </trkpt>
      <trkpt lat="43.53865" lon="2.9461">
        <ele>645.6</ele>
        <time>2017-04-16T07:59:40.000Z</time>
      </trkpt>
      <trkpt lat="43.53859" lon="2.94606">
        <ele>645.8</ele>
        <time>2017-04-16T07:59:43.000Z</time>
      </trkpt>
      <trkpt lat="43.53855" lon="2.94602">
        <ele>646.4</ele>
        <time>2017-04-16T07:59:45.000Z</time>
      </trkpt>
      <trkpt lat="43.53851" lon="2.946">
        <ele>646.6</ele>
        <time>2017-04-16T07:59:47.000Z</time>
      </trkpt>
      <trkpt lat="43.53847" lon="2.94598">
        <ele>647</ele>
        <time>2017-04-16T07:59:49.000Z</time>
      </trkpt>
      <trkpt lat="43.53843" lon="2.94597">
        <ele>647.2</ele>
        <time>2017-04-16T07:59:51.000Z</time>
      </trkpt>
      <trkpt lat="43.5384" lon="2.94595">
        <ele>647.6</ele>
        <time>2017-04-16T07:59:53.000Z</time>
      </trkpt>
      <trkpt lat="43.53837" lon="2.94594">
        <ele>648</ele>
        <time>2017-04-16T07:59:55.000Z</time>
      </trkpt>
      <trkpt lat="43.53833" lon="2.94592">
        <ele>648.4</ele>
        <time>2017-04-16T07:59:57.000Z</time>
      </trkpt>
      <trkpt lat="43.5383" lon="2.9459">
        <ele>648.8</ele>
        <time>2017-04-16T07:59:59.000Z</time>
      </trkpt>
      <trkpt lat="43.53827" lon="2.94588">
        <ele>649</ele>
        <time>2017-04-16T08:00:01.000Z</time>
      </trkpt>
      <trkpt lat="43.53821" lon="2.94586">
        <ele>649.6</ele>
        <time>2017-04-16T08:00:05.000Z</time>
      </trkpt>
      <trkpt lat="43.53818" lon="2.94584">
        <ele>650.2</ele>
        <time>2017-04-16T08:00:07.000Z</time>
      </trkpt>
      <trkpt lat="43.53815" lon="2.94582">
        <ele>650.6</ele>
        <time>2017-04-16T08:00:09.000Z</time>
      </trkpt>
      <trkpt lat="43.53812" lon="2.94581">
        <ele>650.8</ele>
        <time>2017-04-16T08:00:11.000Z</time>
      </trkpt>
      <trkpt lat="43.53809" lon="2.94579">
        <ele>651</ele>
        <time>2017-04-16T08:00:13.000Z</time>
      </trkpt>
      <trkpt lat="43.53806" lon="2.94578">
        <ele>651.6</ele>
        <time>2017-04-16T08:00:15.000Z</time>
      </trkpt>
      <trkpt lat="43.53803" lon="2.94576">
        <ele>652</ele>
        <time>2017-04-16T08:00:17.000Z</time>
      </trkpt>
      <trkpt lat="43.538" lon="2.94574">
        <ele>652.6</ele>
        <time>2017-04-16T08:00:19.000Z</time>
      </trkpt>
      <trkpt lat="43.53797" lon="2.94573">
        <ele>652.8</ele>
        <time>2017-04-16T08:00:21.000Z</time>
      </trkpt>
      <trkpt lat="43.53793" lon="2.94571">
        <ele>653.2</ele>
        <time>2017-04-16T08:00:23.000Z</time>
      </trkpt>
      <trkpt lat="43.53781" lon="2.94566">
        <ele>653.8</ele>
        <time>2017-04-16T08:00:30.000Z</time>
      </trkpt>
      <trkpt lat="43.53777" lon="2.94564">
        <ele>654.2</ele>
        <time>2017-04-16T08:00:33.000Z</time>
      </trkpt>
      <trkpt lat="43.53774" lon="2.94563">
        <ele>654.6</ele>
        <time>2017-04-16T08:00:35.000Z</time>
      </trkpt>
      <trkpt lat="43.53772" lon="2.94561">
        <ele>655</ele>
        <time>2017-04-16T08:00:37.000Z</time>
      </trkpt>
      <trkpt lat="43.53769" lon="2.9456">
        <ele>655.2</ele>
        <time>2017-04-16T08:00:39.000Z</time>
      </trkpt>
      <trkpt lat="43.53766" lon="2.94559">
        <ele>655.4</ele>
        <time>2017-04-16T08:00:41.000Z</time>
      </trkpt>
      <trkpt lat="43.53754" lon="2.94556">
        <ele>656</ele>
        <time>2017-04-16T08:00:49.000Z</time>
      </trkpt>
      <trkpt lat="43.53748" lon="2.94553">
        <ele>656.4</ele>
        <time>2017-04-16T08:00:53.000Z</time>
      </trkpt>
      <trkpt lat="43.53745" lon="2.94551">
        <ele>656.8</ele>
        <time>2017-04-16T08:00:55.000Z</time>
      </trkpt>
      <trkpt lat="43.53742" lon="2.94549">
        <ele>657.2</ele>
        <time>2017-04-16T08:00:57.000Z</time>
      </trkpt>
      <trkpt lat="43.53738" lon="2.94548">
        <ele>657.4</ele>
        <time>2017-04-16T08:00:59.000Z</time>
      </trkpt>
      <trkpt lat="43.53735" lon="2.94547">
        <ele>657.6</ele>
        <time>2017-04-16T08:01:01.000Z</time>
      </trkpt>
      <trkpt lat="43.53734" lon="2.94546">
        <ele>658</ele>
        <time>2017-04-16T08:01:02.000Z</time>
      </trkpt>
      <trkpt lat="43.53731" lon="2.94546">
        <ele>658.4</ele>
        <time>2017-04-16T08:01:04.000Z</time>
      </trkpt>
      <trkpt lat="43.53729" lon="2.94544">
        <ele>658.8</ele>
        <time>2017-04-16T08:01:06.000Z</time>
      </trkpt>
      <trkpt lat="43.53728" lon="2.94544">
        <ele>659</ele>
        <time>2017-04-16T08:01:07.000Z</time>
      </trkpt>
      <trkpt lat="43.53726" lon="2.94543">
        <ele>659.2</ele>
        <time>2017-04-16T08:01:08.000Z</time>
      </trkpt>
      <trkpt lat="43.53723" lon="2.94541">
        <ele>659.4</ele>
        <time>2017-04-16T08:01:10.000Z</time>
      </trkpt>
      <trkpt lat="43.53711" lon="2.94537">
        <ele>660</ele>
        <time>2017-04-16T08:01:16.000Z</time>
      </trkpt>
      <trkpt lat="43.53708" lon="2.94536">
        <ele>660.2</ele>
        <time>2017-04-16T08:01:18.000Z</time>
      </trkpt>
      <trkpt lat="43.53703" lon="2.94534">
        <ele>660.8</ele>
        <time>2017-04-16T08:01:21.000Z</time>
      </trkpt>
      <trkpt lat="43.537" lon="2.94533">
        <ele>661.2</ele>
        <time>2017-04-16T08:01:23.000Z</time>
      </trkpt>
      <trkpt lat="43.53699" lon="2.94532">
        <ele>661.6</ele>
        <time>2017-04-16T08:01:25.000Z</time>
      </trkpt>
      <trkpt lat="43.53696" lon="2.94531">
        <ele>661.8</ele>
        <time>2017-04-16T08:01:27.000Z</time>
      </trkpt>
      <trkpt lat="43.53689" lon="2.94525">
        <ele>662.2</ele>
        <time>2017-04-16T08:01:32.000Z</time>
      </trkpt>
      <trkpt lat="43.5368" lon="2.94517">
        <ele>662.4</ele>
        <time>2017-04-16T08:01:38.000Z</time>
      </trkpt>
      <trkpt lat="43.53676" lon="2.94514">
        <ele>662.8</ele>
        <time>2017-04-16T08:01:40.000Z</time>
      </trkpt>
      <trkpt lat="43.53673" lon="2.9451">
        <ele>663.2</ele>
        <time>2017-04-16T08:01:42.000Z</time>
      </trkpt>
      <trkpt lat="43.53672" lon="2.94506">
        <ele>663.4</ele>
        <time>2017-04-16T08:01:44.000Z</time>
      </trkpt>
      <trkpt lat="43.5367" lon="2.94503">
        <ele>663.8</ele>
        <time>2017-04-16T08:01:46.000Z</time>
      </trkpt>
      <trkpt lat="43.53668" lon="2.94501">
        <ele>664</ele>
        <time>2017-04-16T08:01:48.000Z</time>
      </trkpt>
      <trkpt lat="43.53666" lon="2.94501">
        <ele>664.2</ele>
        <time>2017-04-16T08:01:49.000Z</time>
      </trkpt>
      <trkpt lat="43.53663" lon="2.945">
        <ele>664.8</ele>
        <time>2017-04-16T08:01:51.000Z</time>
      </trkpt>
      <trkpt lat="43.53659" lon="2.945">
        <ele>665.2</ele>
        <time>2017-04-16T08:01:53.000Z</time>
      </trkpt>
      <trkpt lat="43.53656" lon="2.94499">
        <ele>665.6</ele>
        <time>2017-04-16T08:01:55.000Z</time>
      </trkpt>
      <trkpt lat="43.53652" lon="2.94498">
        <ele>666</ele>
        <time>2017-04-16T08:01:57.000Z</time>
      </trkpt>
      <trkpt lat="43.53647" lon="2.94496">
        <ele>666.4</ele>
        <time>2017-04-16T08:02:00.000Z</time>
      </trkpt>
      <trkpt lat="43.53644" lon="2.94495">
        <ele>667</ele>
        <time>2017-04-16T08:02:02.000Z</time>
      </trkpt>
      <trkpt lat="43.53641" lon="2.94493">
        <ele>667.6</ele>
        <time>2017-04-16T08:02:04.000Z</time>
      </trkpt>
      <trkpt lat="43.53638" lon="2.94492">
        <ele>667.8</ele>
        <time>2017-04-16T08:02:06.000Z</time>
      </trkpt>
      <trkpt lat="43.53634" lon="2.94492">
        <ele>668.2</ele>
        <time>2017-04-16T08:02:08.000Z</time>
      </trkpt>
      <trkpt lat="43.53626" lon="2.94489">
        <ele>668.8</ele>
        <time>2017-04-16T08:02:14.000Z</time>
      </trkpt>
      <trkpt lat="43.53624" lon="2.94489">
        <ele>669</ele>
        <time>2017-04-16T08:02:15.000Z</time>
      </trkpt>
      <trkpt lat="43.53622" lon="2.94488">
        <ele>669.6</ele>
        <time>2017-04-16T08:02:17.000Z</time>
      </trkpt>
      <trkpt lat="43.5362" lon="2.94488">
        <ele>669.8</ele>
        <time>2017-04-16T08:02:18.000Z</time>
      </trkpt>
      <trkpt lat="43.53619" lon="2.94488">
        <ele>670.2</ele>
        <time>2017-04-16T08:02:19.000Z</time>
      </trkpt>
      <trkpt lat="43.53616" lon="2.94487">
        <ele>670.8</ele>
        <time>2017-04-16T08:02:21.000Z</time>
      </trkpt>
      <trkpt lat="43.53613" lon="2.94487">
        <ele>671.4</ele>
        <time>2017-04-16T08:02:23.000Z</time>
      </trkpt>
      <trkpt lat="43.5361" lon="2.94487">
        <ele>671.8</ele>
        <time>2017-04-16T08:02:25.000Z</time>
      </trkpt>
      <trkpt lat="43.53607" lon="2.94487">
        <ele>672.2</ele>
        <time>2017-04-16T08:02:27.000Z</time>
      </trkpt>
      <trkpt lat="43.53602" lon="2.94489">
        <ele>673</ele>
        <time>2017-04-16T08:02:30.000Z</time>
      </trkpt>
      <trkpt lat="43.536" lon="2.94489">
        <ele>673.2</ele>
        <time>2017-04-16T08:02:31.000Z</time>
      </trkpt>
      <trkpt lat="43.53595" lon="2.94491">
        <ele>674</ele>
        <time>2017-04-16T08:02:34.000Z</time>
      </trkpt>
      <trkpt lat="43.53594" lon="2.94492">
        <ele>674.4</ele>
        <time>2017-04-16T08:02:36.000Z</time>
      </trkpt>
      <trkpt lat="43.53591" lon="2.94493">
        <ele>674.6</ele>
        <time>2017-04-16T08:02:37.000Z</time>
      </trkpt>
      <trkpt lat="43.5359" lon="2.94494">
        <ele>674.8</ele>
        <time>2017-04-16T08:02:38.000Z</time>
      </trkpt>
      <trkpt lat="43.53583" lon="2.945">
        <ele>675.4</ele>
        <time>2017-04-16T08:02:42.000Z</time>
      </trkpt>
      <trkpt lat="43.5358" lon="2.94502">
        <ele>676</ele>
        <time>2017-04-16T08:02:44.000Z</time>
      </trkpt>
      <trkpt lat="43.53577" lon="2.94506">
        <ele>676.4</ele>
        <time>2017-04-16T08:02:46.000Z</time>
      </trkpt>
      <trkpt lat="43.53575" lon="2.94508">
        <ele>676.8</ele>
        <time>2017-04-16T08:02:48.000Z</time>
      </trkpt>
      <trkpt lat="43.53573" lon="2.94512">
        <ele>677.2</ele>
        <time>2017-04-16T08:02:50.000Z</time>
      </trkpt>
      <trkpt lat="43.53571" lon="2.94517">
        <ele>677.4</ele>
        <time>2017-04-16T08:02:53.000Z</time>
      </trkpt>
      <trkpt lat="43.53577" lon="2.94527">
        <ele>678.2</ele>
        <time>2017-04-16T08:03:00.000Z</time>
      </trkpt>
      <trkpt lat="43.53579" lon="2.94527">
        <ele>678.4</ele>
        <time>2017-04-16T08:03:01.000Z</time>
      </trkpt>
      <trkpt lat="43.53584" lon="2.94527">
        <ele>679</ele>
        <time>2017-04-16T08:03:04.000Z</time>
      </trkpt>
      <trkpt lat="43.53588" lon="2.94526">
        <ele>679.4</ele>
        <time>2017-04-16T08:03:06.000Z</time>
      </trkpt>
      <trkpt lat="43.53591" lon="2.94525">
        <ele>679.6</ele>
        <time>2017-04-16T08:03:08.000Z</time>
      </trkpt>
      <trkpt lat="43.53592" lon="2.94525">
        <ele>679.8</ele>
        <time>2017-04-16T08:03:09.000Z</time>
      </trkpt>
      <trkpt lat="43.53595" lon="2.94525">
        <ele>680.4</ele>
        <time>2017-04-16T08:03:11.000Z</time>
      </trkpt>
      <trkpt lat="43.53598" lon="2.94525">
        <ele>680.8</ele>
        <time>2017-04-16T08:03:13.000Z</time>
      </trkpt>
      <trkpt lat="43.536" lon="2.94525">
        <ele>681.2</ele>
        <time>2017-04-16T08:03:15.000Z</time>
      </trkpt>
      <trkpt lat="43.53603" lon="2.94525">
        <ele>681.4</ele>
        <time>2017-04-16T08:03:17.000Z</time>
      </trkpt>
      <trkpt lat="43.53619" lon="2.94526">
        <ele>682.2</ele>
        <time>2017-04-16T08:03:25.000Z</time>
      </trkpt>
      <trkpt lat="43.53628" lon="2.9453">
        <ele>682.6</ele>
        <time>2017-04-16T08:03:30.000Z</time>
      </trkpt>
      <trkpt lat="43.53631" lon="2.94533">
        <ele>683</ele>
        <time>2017-04-16T08:03:32.000Z</time>
      </trkpt>
      <trkpt lat="43.53634" lon="2.94537">
        <ele>683.4</ele>
        <time>2017-04-16T08:03:34.000Z</time>
      </trkpt>
      <trkpt lat="43.53636" lon="2.9454">
        <ele>683.6</ele>
        <time>2017-04-16T08:03:36.000Z</time>
      </trkpt>
      <trkpt lat="43.53641" lon="2.94545">
        <ele>683.8</ele>
        <time>2017-04-16T08:03:39.000Z</time>
      </trkpt>
      <trkpt lat="43.53646" lon="2.94549">
        <ele>684.2</ele>
        <time>2017-04-16T08:03:42.000Z</time>
      </trkpt>
      <trkpt lat="43.53649" lon="2.94552">
        <ele>684.8</ele>
        <time>2017-04-16T08:03:44.000Z</time>
      </trkpt>
      <trkpt lat="43.53652" lon="2.94555">
        <ele>685.2</ele>
        <time>2017-04-16T08:03:46.000Z</time>
      </trkpt>
      <trkpt lat="43.53655" lon="2.94557">
        <ele>685.4</ele>
        <time>2017-04-16T08:03:48.000Z</time>
      </trkpt>
      <trkpt lat="43.53658" lon="2.9456">
        <ele>685.6</ele>
        <time>2017-04-16T08:03:50.000Z</time>
      </trkpt>
      <trkpt lat="43.53663" lon="2.94568">
        <ele>686</ele>
        <time>2017-04-16T08:03:54.000Z</time>
      </trkpt>
      <trkpt lat="43.5367" lon="2.94578">
        <ele>686.6</ele>
        <time>2017-04-16T08:03:59.000Z</time>
      </trkpt>
      <trkpt lat="43.53671" lon="2.9458">
        <ele>686.8</ele>
        <time>2017-04-16T08:04:00.000Z</time>
      </trkpt>
      <trkpt lat="43.53672" lon="2.94582">
        <ele>687</ele>
        <time>2017-04-16T08:04:01.000Z</time>
      </trkpt>
      <trkpt lat="43.53674" lon="2.94587">
        <ele>687.4</ele>
        <time>2017-04-16T08:04:03.000Z</time>
      </trkpt>
      <trkpt lat="43.53675" lon="2.94591">
        <ele>687.6</ele>
        <time>2017-04-16T08:04:05.000Z</time>
      </trkpt>
      <trkpt lat="43.53676" lon="2.94595">
        <ele>688</ele>
        <time>2017-04-16T08:04:07.000Z</time>
      </trkpt>
      <trkpt lat="43.53677" lon="2.94599">
        <ele>688.6</ele>
        <time>2017-04-16T08:04:09.000Z</time>
      </trkpt>
      <trkpt lat="43.53678" lon="2.94602">
        <ele>689.2</ele>
        <time>2017-04-16T08:04:11.000Z</time>
      </trkpt>
      <trkpt lat="43.5368" lon="2.94606">
        <ele>689.4</ele>
        <time>2017-04-16T08:04:13.000Z</time>
      </trkpt>
      <trkpt lat="43.53682" lon="2.9461">
        <ele>689.8</ele>
        <time>2017-04-16T08:04:15.000Z</time>
      </trkpt>
      <trkpt lat="43.53691" lon="2.94622">
        <ele>690.4</ele>
        <time>2017-04-16T08:04:22.000Z</time>
      </trkpt>
      <trkpt lat="43.53698" lon="2.94637">
        <ele>690.8</ele>
        <time>2017-04-16T08:04:29.000Z</time>
      </trkpt>
      <trkpt lat="43.53704" lon="2.94659">
        <ele>690.8</ele>
        <time>2017-04-16T08:04:35.000Z</time>
      </trkpt>
      <trkpt lat="43.53706" lon="2.9467">
        <ele>691</ele>
        <time>2017-04-16T08:04:37.000Z</time>
      </trkpt>
      <trkpt lat="43.53705" lon="2.94693">
        <ele>691</ele>
        <time>2017-04-16T08:04:41.000Z</time>
      </trkpt>
      <trkpt lat="43.53692" lon="2.9472">
        <ele>691</ele>
        <time>2017-04-16T08:04:47.000Z</time>
      </trkpt>
      <trkpt lat="43.53679" lon="2.94741">
        <ele>691</ele>
        <time>2017-04-16T08:04:52.000Z</time>
      </trkpt>
      <trkpt lat="43.5367" lon="2.94756">
        <ele>691</ele>
        <time>2017-04-16T08:04:55.000Z</time>
      </trkpt>
      <trkpt lat="43.53661" lon="2.94785">
        <ele>691</ele>
        <time>2017-04-16T08:04:59.000Z</time>
      </trkpt>
      <trkpt lat="43.53657" lon="2.94823">
        <ele>690.2</ele>
        <time>2017-04-16T08:05:02.000Z</time>
      </trkpt>
      <trkpt lat="43.53657" lon="2.94835">
        <ele>690</ele>
        <time>2017-04-16T08:05:03.000Z</time>
      </trkpt>
      <trkpt lat="43.53658" lon="2.94846">
        <ele>689.6</ele>
        <time>2017-04-16T08:05:04.000Z</time>
      </trkpt>
      <trkpt lat="43.53655" lon="2.94868">
        <ele>689</ele>
        <time>2017-04-16T08:05:06.000Z</time>
      </trkpt>
      <trkpt lat="43.53654" lon="2.94879">
        <ele>688.4</ele>
        <time>2017-04-16T08:05:07.000Z</time>
      </trkpt>
      <trkpt lat="43.5365" lon="2.94901">
        <ele>687.6</ele>
        <time>2017-04-16T08:05:09.000Z</time>
      </trkpt>
      <trkpt lat="43.53646" lon="2.94923">
        <ele>686.6</ele>
        <time>2017-04-16T08:05:11.000Z</time>
      </trkpt>
      <trkpt lat="43.53645" lon="2.94947">
        <ele>685.6</ele>
        <time>2017-04-16T08:05:13.000Z</time>
      </trkpt>
      <trkpt lat="43.53646" lon="2.94959">
        <ele>685.2</ele>
        <time>2017-04-16T08:05:14.000Z</time>
      </trkpt>
      <trkpt lat="43.53645" lon="2.9497">
        <ele>684.6</ele>
        <time>2017-04-16T08:05:15.000Z</time>
      </trkpt>
      <trkpt lat="43.53645" lon="2.94981">
        <ele>684</ele>
        <time>2017-04-16T08:05:16.000Z</time>
      </trkpt>
      <trkpt lat="43.53646" lon="2.95014">
        <ele>682.4</ele>
        <time>2017-04-16T08:05:19.000Z</time>
      </trkpt>
      <trkpt lat="43.53646" lon="2.95035">
        <ele>681.4</ele>
        <time>2017-04-16T08:05:21.000Z</time>
      </trkpt>
      <trkpt lat="43.53646" lon="2.95045">
        <ele>681</ele>
        <time>2017-04-16T08:05:22.000Z</time>
      </trkpt>
      <trkpt lat="43.53652" lon="2.95075">
        <ele>679.2</ele>
        <time>2017-04-16T08:05:25.000Z</time>
      </trkpt>
      <trkpt lat="43.53658" lon="2.95094">
        <ele>678.2</ele>
        <time>2017-04-16T08:05:27.000Z</time>
      </trkpt>
      <trkpt lat="43.5366" lon="2.95103">
        <ele>677.6</ele>
        <time>2017-04-16T08:05:28.000Z</time>
      </trkpt>
      <trkpt lat="43.53661" lon="2.95113">
        <ele>677.2</ele>
        <time>2017-04-16T08:05:29.000Z</time>
      </trkpt>
      <trkpt lat="43.53661" lon="2.95121">
        <ele>676.6</ele>
        <time>2017-04-16T08:05:30.000Z</time>
      </trkpt>
      <trkpt lat="43.53658" lon="2.95139">
        <ele>675.8</ele>
        <time>2017-04-16T08:05:32.000Z</time>
      </trkpt>
      <trkpt lat="43.53655" lon="2.95147">
        <ele>675.4</ele>
        <time>2017-04-16T08:05:33.000Z</time>
      </trkpt>
      <trkpt lat="43.53646" lon="2.95166">
        <ele>674.6</ele>
        <time>2017-04-16T08:05:36.000Z</time>
      </trkpt>
      <trkpt lat="43.53644" lon="2.95172">
        <ele>674.4</ele>
        <time>2017-04-16T08:05:37.000Z</time>
      </trkpt>
      <trkpt lat="43.53635" lon="2.95188">
        <ele>673.6</ele>
        <time>2017-04-16T08:05:41.000Z</time>
      </trkpt>
      <trkpt lat="43.5362" lon="2.95196">
        <ele>672.8</ele>
        <time>2017-04-16T08:05:49.000Z</time>
      </trkpt>
      <trkpt lat="43.53618" lon="2.95198">
        <ele>672.8</ele>
        <time>2017-04-16T08:05:50.000Z</time>
      </trkpt>
      <trkpt lat="43.53616" lon="2.95207">
        <ele>672.6</ele>
        <time>2017-04-16T08:05:54.000Z</time>
      </trkpt>
      <trkpt lat="43.53616" lon="2.9521">
        <ele>672.8</ele>
        <time>2017-04-16T08:05:56.000Z</time>
      </trkpt>
      <trkpt lat="43.53617" lon="2.95214">
        <ele>673</ele>
        <time>2017-04-16T08:05:58.000Z</time>
      </trkpt>
      <trkpt lat="43.53617" lon="2.95215">
        <ele>673.2</ele>
        <time>2017-04-16T08:05:59.000Z</time>
      </trkpt>
      <trkpt lat="43.53618" lon="2.95217">
        <ele>673.4</ele>
        <time>2017-04-16T08:06:00.000Z</time>
      </trkpt>
      <trkpt lat="43.5362" lon="2.95218">
        <ele>673.4</ele>
        <time>2017-04-16T08:06:01.000Z</time>
      </trkpt>
      <trkpt lat="43.53621" lon="2.95221">
        <ele>673.6</ele>
        <time>2017-04-16T08:06:02.000Z</time>
      </trkpt>
      <trkpt lat="43.53624" lon="2.95226">
        <ele>673.6</ele>
        <time>2017-04-16T08:06:04.000Z</time>
      </trkpt>
      <trkpt lat="43.53626" lon="2.9523">
        <ele>673.8</ele>
        <time>2017-04-16T08:06:07.000Z</time>
      </trkpt>
      <trkpt lat="43.53627" lon="2.95231">
        <ele>674</ele>
        <time>2017-04-16T08:06:09.000Z</time>
      </trkpt>
      <trkpt lat="43.5363" lon="2.95219">
        <ele>674.4</ele>
        <time>2017-04-16T08:09:32.000Z</time>
      </trkpt>
      <trkpt lat="43.5363" lon="2.95219">
        <ele>674.4</ele>
        <time>2017-04-16T08:09:33.000Z</time>
      </trkpt>
      <trkpt lat="43.53634" lon="2.95218">
        <ele>674.4</ele>
        <time>2017-04-16T08:09:37.000Z</time>
      </trkpt>
      <trkpt lat="43.53637" lon="2.95208">
        <ele>674.4</ele>
        <time>2017-04-16T08:09:42.000Z</time>
      </trkpt>
      <trkpt lat="43.53634" lon="2.95198">
        <ele>674.4</ele>
        <time>2017-04-16T08:09:46.000Z</time>
      </trkpt>
      <trkpt lat="43.53638" lon="2.95193">
        <ele>674.4</ele>
        <time>2017-04-16T08:09:49.000Z</time>
      </trkpt>
      <trkpt lat="43.5364" lon="2.95189">
        <ele>674.4</ele>
        <time>2017-04-16T08:09:51.000Z</time>
      </trkpt>
      <trkpt lat="43.53642" lon="2.95183">
        <ele>673.6</ele>
        <time>2017-04-16T08:09:54.000Z</time>
      </trkpt>
      <trkpt lat="43.53646" lon="2.95178">
        <ele>673.4</ele>
        <time>2017-04-16T08:09:56.000Z</time>
      </trkpt>
      <trkpt lat="43.53652" lon="2.95178">
        <ele>672.6</ele>
        <time>2017-04-16T08:09:58.000Z</time>
      </trkpt>
      <trkpt lat="43.53656" lon="2.95178">
        <ele>672</ele>
        <time>2017-04-16T08:09:59.000Z</time>
      </trkpt>
      <trkpt lat="43.53665" lon="2.95175">
        <ele>670.6</ele>
        <time>2017-04-16T08:10:01.000Z</time>
      </trkpt>
      <trkpt lat="43.53672" lon="2.95173">
        <ele>668.6</ele>
        <time>2017-04-16T08:10:03.000Z</time>
      </trkpt>
      <trkpt lat="43.53681" lon="2.95172">
        <ele>666.8</ele>
        <time>2017-04-16T08:10:05.000Z</time>
      </trkpt>
      <trkpt lat="43.53683" lon="2.95172">
        <ele>665.8</ele>
        <time>2017-04-16T08:10:06.000Z</time>
      </trkpt>
      <trkpt lat="43.53685" lon="2.95174">
        <ele>664.4</ele>
        <time>2017-04-16T08:10:07.000Z</time>
      </trkpt>
      <trkpt lat="43.53687" lon="2.95176">
        <ele>663.2</ele>
        <time>2017-04-16T08:10:08.000Z</time>
      </trkpt>
      <trkpt lat="43.53688" lon="2.95178">
        <ele>661.6</ele>
        <time>2017-04-16T08:10:09.000Z</time>
      </trkpt>
      <trkpt lat="43.53692" lon="2.95182">
        <ele>658.8</ele>
        <time>2017-04-16T08:10:11.000Z</time>
      </trkpt>
      <trkpt lat="43.53696" lon="2.95183">
        <ele>656</ele>
        <time>2017-04-16T08:10:13.000Z</time>
      </trkpt>
      <trkpt lat="43.53702" lon="2.95183">
        <ele>653.2</ele>
        <time>2017-04-16T08:10:15.000Z</time>
      </trkpt>
      <trkpt lat="43.53708" lon="2.95184">
        <ele>650.2</ele>
        <time>2017-04-16T08:10:17.000Z</time>
      </trkpt>
      <trkpt lat="43.53719" lon="2.95181">
        <ele>648.8</ele>
        <time>2017-04-16T08:10:18.000Z</time>
      </trkpt>
      <trkpt lat="43.5374" lon="2.95177">
        <ele>645.8</ele>
        <time>2017-04-16T08:10:20.000Z</time>
      </trkpt>
      <trkpt lat="43.5375" lon="2.95177">
        <ele>644</ele>
        <time>2017-04-16T08:10:21.000Z</time>
      </trkpt>
      <trkpt lat="43.5376" lon="2.95182">
        <ele>642.6</ele>
        <time>2017-04-16T08:10:22.000Z</time>
      </trkpt>
      <trkpt lat="43.53766" lon="2.95189">
        <ele>640.8</ele>
        <time>2017-04-16T08:10:23.000Z</time>
      </trkpt>
      <trkpt lat="43.53771" lon="2.95192">
        <ele>639</ele>
        <time>2017-04-16T08:10:24.000Z</time>
      </trkpt>
      <trkpt lat="43.53769" lon="2.95195">
        <ele>637.2</ele>
        <time>2017-04-16T08:10:25.000Z</time>
      </trkpt>
      <trkpt lat="43.53779" lon="2.95203">
        <ele>633.8</ele>
        <time>2017-04-16T08:10:27.000Z</time>
      </trkpt>
      <trkpt lat="43.53783" lon="2.95205">
        <ele>632.2</ele>
        <time>2017-04-16T08:10:28.000Z</time>
      </trkpt>
      <trkpt lat="43.53784" lon="2.95207">
        <ele>630.4</ele>
        <time>2017-04-16T08:10:29.000Z</time>
      </trkpt>
      <trkpt lat="43.53791" lon="2.95217">
        <ele>626.8</ele>
        <time>2017-04-16T08:10:31.000Z</time>
      </trkpt>
      <trkpt lat="43.53792" lon="2.95221">
        <ele>625.2</ele>
        <time>2017-04-16T08:10:32.000Z</time>
      </trkpt>
      <trkpt lat="43.53797" lon="2.95221">
        <ele>622.2</ele>
        <time>2017-04-16T08:10:34.000Z</time>
      </trkpt>
      <trkpt lat="43.53805" lon="2.95219">
        <ele>619.6</ele>
        <time>2017-04-16T08:10:36.000Z</time>
      </trkpt>
      <trkpt lat="43.53812" lon="2.95217">
        <ele>617.4</ele>
        <time>2017-04-16T08:10:38.000Z</time>
      </trkpt>
      <trkpt lat="43.53815" lon="2.95219">
        <ele>616.4</ele>
        <time>2017-04-16T08:10:39.000Z</time>
      </trkpt>
      <trkpt lat="43.53823" lon="2.95222">
        <ele>614.4</ele>
        <time>2017-04-16T08:10:41.000Z</time>
      </trkpt>
      <trkpt lat="43.53827" lon="2.95224">
        <ele>613.4</ele>
        <time>2017-04-16T08:10:42.000Z</time>
      </trkpt>
      <trkpt lat="43.53831" lon="2.95228">
        <ele>612.8</ele>
        <time>2017-04-16T08:10:43.000Z</time>
      </trkpt>
      <trkpt lat="43.53835" lon="2.95232">
        <ele>612</ele>
        <time>2017-04-16T08:10:44.000Z</time>
      </trkpt>
      <trkpt lat="43.53845" lon="2.95254">
        <ele>610.2</ele>
        <time>2017-04-16T08:10:47.000Z</time>
      </trkpt>
      <trkpt lat="43.53849" lon="2.95262">
        <ele>609.4</ele>
        <time>2017-04-16T08:10:48.000Z</time>
      </trkpt>
      <trkpt lat="43.53854" lon="2.95281">
        <ele>607</ele>
        <time>2017-04-16T08:10:51.000Z</time>
      </trkpt>
      <trkpt lat="43.53852" lon="2.95287">
        <ele>606</ele>
        <time>2017-04-16T08:10:52.000Z</time>
      </trkpt>
      <trkpt lat="43.53849" lon="2.95298">
        <ele>604</ele>
        <time>2017-04-16T08:10:54.000Z</time>
      </trkpt>
      <trkpt lat="43.53856" lon="2.95319">
        <ele>600.6</ele>
        <time>2017-04-16T08:10:57.000Z</time>
      </trkpt>
      <trkpt lat="43.53861" lon="2.95326">
        <ele>599.4</ele>
        <time>2017-04-16T08:10:58.000Z</time>
      </trkpt>
      <trkpt lat="43.53866" lon="2.95332">
        <ele>598</ele>
        <time>2017-04-16T08:10:59.000Z</time>
      </trkpt>
      <trkpt lat="43.5387" lon="2.95339">
        <ele>596.8</ele>
        <time>2017-04-16T08:11:00.000Z</time>
      </trkpt>
      <trkpt lat="43.5388" lon="2.95362">
        <ele>592.4</ele>
        <time>2017-04-16T08:11:03.000Z</time>
      </trkpt>
      <trkpt lat="43.5389" lon="2.95372">
        <ele>589.4</ele>
        <time>2017-04-16T08:11:05.000Z</time>
      </trkpt>
      <trkpt lat="43.53897" lon="2.95375">
        <ele>588</ele>
        <time>2017-04-16T08:11:06.000Z</time>
      </trkpt>
      <trkpt lat="43.53899" lon="2.95381">
        <ele>586.4</ele>
        <time>2017-04-16T08:11:07.000Z</time>
      </trkpt>
      <trkpt lat="43.53903" lon="2.95397">
        <ele>583.2</ele>
        <time>2017-04-16T08:11:09.000Z</time>
      </trkpt>
      <trkpt lat="43.53905" lon="2.95412">
        <ele>580.4</ele>
        <time>2017-04-16T08:11:11.000Z</time>
      </trkpt>
      <trkpt lat="43.53909" lon="2.95423">
        <ele>577.6</ele>
        <time>2017-04-16T08:11:13.000Z</time>
      </trkpt>
      <trkpt lat="43.53912" lon="2.95424">
        <ele>576.4</ele>
        <time>2017-04-16T08:11:14.000Z</time>
      </trkpt>
      <trkpt lat="43.53919" lon="2.95426">
        <ele>574</ele>
        <time>2017-04-16T08:11:16.000Z</time>
      </trkpt>
      <trkpt lat="43.53926" lon="2.95428">
        <ele>571.6</ele>
        <time>2017-04-16T08:11:18.000Z</time>
      </trkpt>
      <trkpt lat="43.53929" lon="2.95433">
        <ele>570.6</ele>
        <time>2017-04-16T08:11:19.000Z</time>
      </trkpt>
      <trkpt lat="43.53938" lon="2.95445">
        <ele>568.2</ele>
        <time>2017-04-16T08:11:21.000Z</time>
      </trkpt>
      <trkpt lat="43.53943" lon="2.95453">
        <ele>567.2</ele>
        <time>2017-04-16T08:11:22.000Z</time>
      </trkpt>
      <trkpt lat="43.53946" lon="2.95458">
        <ele>565.8</ele>
        <time>2017-04-16T08:11:23.000Z</time>
      </trkpt>
      <trkpt lat="43.53948" lon="2.95468">
        <ele>563.2</ele>
        <time>2017-04-16T08:11:25.000Z</time>
      </trkpt>
      <trkpt lat="43.53948" lon="2.95469">
        <ele>560.2</ele>
        <time>2017-04-16T08:11:27.000Z</time>
      </trkpt>
      <trkpt lat="43.53952" lon="2.95467">
        <ele>557.8</ele>
        <time>2017-04-16T08:11:29.000Z</time>
      </trkpt>
      <trkpt lat="43.53953" lon="2.95467">
        <ele>556.4</ele>
        <time>2017-04-16T08:11:30.000Z</time>
      </trkpt>
      <trkpt lat="43.53956" lon="2.95473">
        <ele>554.2</ele>
        <time>2017-04-16T08:11:32.000Z</time>
      </trkpt>
      <trkpt lat="43.53958" lon="2.95476">
        <ele>553</ele>
        <time>2017-04-16T08:11:33.000Z</time>
      </trkpt>
      <trkpt lat="43.53958" lon="2.95483">
        <ele>550.6</ele>
        <time>2017-04-16T08:11:35.000Z</time>
      </trkpt>
      <trkpt lat="43.53961" lon="2.9549">
        <ele>548.2</ele>
        <time>2017-04-16T08:11:37.000Z</time>
      </trkpt>
      <trkpt lat="43.53967" lon="2.95497">
        <ele>545.8</ele>
        <time>2017-04-16T08:11:39.000Z</time>
      </trkpt>
      <trkpt lat="43.53971" lon="2.95501">
        <ele>544.6</ele>
        <time>2017-04-16T08:11:40.000Z</time>
      </trkpt>
      <trkpt lat="43.53975" lon="2.95505">
        <ele>543.6</ele>
        <time>2017-04-16T08:11:41.000Z</time>
      </trkpt>
      <trkpt lat="43.53978" lon="2.95508">
        <ele>542.4</ele>
        <time>2017-04-16T08:11:42.000Z</time>
      </trkpt>
      <trkpt lat="43.53986" lon="2.95516">
        <ele>540.4</ele>
        <time>2017-04-16T08:11:44.000Z</time>
      </trkpt>
      <trkpt lat="43.53987" lon="2.95518">
        <ele>539.2</ele>
        <time>2017-04-16T08:11:45.000Z</time>
      </trkpt>
      <trkpt lat="43.53992" lon="2.95522">
        <ele>536.8</ele>
        <time>2017-04-16T08:11:47.000Z</time>
      </trkpt>
      <trkpt lat="43.53994" lon="2.95524">
        <ele>535.8</ele>
        <time>2017-04-16T08:11:48.000Z</time>
      </trkpt>
      <trkpt lat="43.53998" lon="2.95531">
        <ele>532.2</ele>
        <time>2017-04-16T08:11:51.000Z</time>
      </trkpt>
      <trkpt lat="43.54002" lon="2.9554">
        <ele>529.8</ele>
        <time>2017-04-16T08:11:53.000Z</time>
      </trkpt>
      <trkpt lat="43.54002" lon="2.95545">
        <ele>528.6</ele>
        <time>2017-04-16T08:11:54.000Z</time>
      </trkpt>
      <trkpt lat="43.54004" lon="2.95558">
        <ele>524.8</ele>
        <time>2017-04-16T08:11:57.000Z</time>
      </trkpt>
      <trkpt lat="43.54009" lon="2.95566">
        <ele>522.2</ele>
        <time>2017-04-16T08:11:59.000Z</time>
      </trkpt>
      <trkpt lat="43.54009" lon="2.95569">
        <ele>520.8</ele>
        <time>2017-04-16T08:12:00.000Z</time>
      </trkpt>
      <trkpt lat="43.5401" lon="2.95572">
        <ele>519.4</ele>
        <time>2017-04-16T08:12:01.000Z</time>
      </trkpt>
      <trkpt lat="43.54013" lon="2.95573">
        <ele>516.8</ele>
        <time>2017-04-16T08:12:03.000Z</time>
      </trkpt>
      <trkpt lat="43.54016" lon="2.95573">
        <ele>515.6</ele>
        <time>2017-04-16T08:12:04.000Z</time>
      </trkpt>
      <trkpt lat="43.5402" lon="2.95575">
        <ele>513.2</ele>
        <time>2017-04-16T08:12:06.000Z</time>
      </trkpt>
      <trkpt lat="43.54023" lon="2.95581">
        <ele>510.8</ele>
        <time>2017-04-16T08:12:08.000Z</time>
      </trkpt>
      <trkpt lat="43.54025" lon="2.95585">
        <ele>509.6</ele>
        <time>2017-04-16T08:12:09.000Z</time>
      </trkpt>
      <trkpt lat="43.54027" lon="2.95588">
        <ele>507.2</ele>
        <time>2017-04-16T08:12:11.000Z</time>
      </trkpt>
      <trkpt lat="43.54028" lon="2.95591">
        <ele>505.8</ele>
        <time>2017-04-16T08:12:12.000Z</time>
      </trkpt>
      <trkpt lat="43.54033" lon="2.95599">
        <ele>503.4</ele>
        <time>2017-04-16T08:12:14.000Z</time>
      </trkpt>
      <trkpt lat="43.54036" lon="2.95605">
        <ele>502</ele>
        <time>2017-04-16T08:12:15.000Z</time>
      </trkpt>
      <trkpt lat="43.5404" lon="2.95611">
        <ele>500.6</ele>
        <time>2017-04-16T08:12:16.000Z</time>
      </trkpt>
      <trkpt lat="43.54046" lon="2.95614">
        <ele>499.4</ele>
        <time>2017-04-16T08:12:17.000Z</time>
      </trkpt>
      <trkpt lat="43.54049" lon="2.95619">
        <ele>498</ele>
        <time>2017-04-16T08:12:18.000Z</time>
      </trkpt>
      <trkpt lat="43.5405" lon="2.95623">
        <ele>495.2</ele>
        <time>2017-04-16T08:12:20.000Z</time>
      </trkpt>
      <trkpt lat="43.54049" lon="2.95628">
        <ele>492.6</ele>
        <time>2017-04-16T08:12:22.000Z</time>
      </trkpt>
      <trkpt lat="43.54049" lon="2.95631">
        <ele>491.4</ele>
        <time>2017-04-16T08:12:23.000Z</time>
      </trkpt>
      <trkpt lat="43.5405" lon="2.95633">
        <ele>490.2</ele>
        <time>2017-04-16T08:12:24.000Z</time>
      </trkpt>
      <trkpt lat="43.54053" lon="2.95636">
        <ele>488.8</ele>
        <time>2017-04-16T08:12:25.000Z</time>
      </trkpt>
      <trkpt lat="43.54054" lon="2.95638">
        <ele>487.6</ele>
        <time>2017-04-16T08:12:26.000Z</time>
      </trkpt>
      <trkpt lat="43.54053" lon="2.95641">
        <ele>486.2</ele>
        <time>2017-04-16T08:12:27.000Z</time>
      </trkpt>
      <trkpt lat="43.54054" lon="2.95645">
        <ele>483.8</ele>
        <time>2017-04-16T08:12:29.000Z</time>
      </trkpt>
      <trkpt lat="43.54062" lon="2.95644">
        <ele>481.4</ele>
        <time>2017-04-16T08:12:31.000Z</time>
      </trkpt>
      <trkpt lat="43.54071" lon="2.95644">
        <ele>479</ele>
        <time>2017-04-16T08:12:33.000Z</time>
      </trkpt>
      <trkpt lat="43.54076" lon="2.95646">
        <ele>477.4</ele>
        <time>2017-04-16T08:12:34.000Z</time>
      </trkpt>
      <trkpt lat="43.54079" lon="2.95649">
        <ele>476</ele>
        <time>2017-04-16T08:12:35.000Z</time>
      </trkpt>
      <trkpt lat="43.54082" lon="2.95655">
        <ele>474.4</ele>
        <time>2017-04-16T08:12:36.000Z</time>
      </trkpt>
      <trkpt lat="43.54085" lon="2.95659">
        <ele>472.8</ele>
        <time>2017-04-16T08:12:37.000Z</time>
      </trkpt>
      <trkpt lat="43.54091" lon="2.95665">
        <ele>469.6</ele>
        <time>2017-04-16T08:12:39.000Z</time>
      </trkpt>
      <trkpt lat="43.54096" lon="2.9567">
        <ele>466.4</ele>
        <time>2017-04-16T08:12:41.000Z</time>
      </trkpt>
      <trkpt lat="43.54102" lon="2.95677">
        <ele>463</ele>
        <time>2017-04-16T08:12:43.000Z</time>
      </trkpt>
      <trkpt lat="43.54105" lon="2.95688">
        <ele>459.8</ele>
        <time>2017-04-16T08:12:45.000Z</time>
      </trkpt>
      <trkpt lat="43.54104" lon="2.95699">
        <ele>456.6</ele>
        <time>2017-04-16T08:12:47.000Z</time>
      </trkpt>
      <trkpt lat="43.54106" lon="2.95705">
        <ele>453.2</ele>
        <time>2017-04-16T08:12:49.000Z</time>
      </trkpt>
      <trkpt lat="43.54114" lon="2.95708">
        <ele>450.2</ele>
        <time>2017-04-16T08:12:51.000Z</time>
      </trkpt>
      <trkpt lat="43.54118" lon="2.95715">
        <ele>447.2</ele>
        <time>2017-04-16T08:12:53.000Z</time>
      </trkpt>
      <trkpt lat="43.54125" lon="2.95723">
        <ele>444.2</ele>
        <time>2017-04-16T08:12:55.000Z</time>
      </trkpt>
      <trkpt lat="43.54129" lon="2.95726">
        <ele>442.6</ele>
        <time>2017-04-16T08:12:56.000Z</time>
      </trkpt>
      <trkpt lat="43.54133" lon="2.95728">
        <ele>441</ele>
        <time>2017-04-16T08:12:57.000Z</time>
      </trkpt>
      <trkpt lat="43.54135" lon="2.9573">
        <ele>439.6</ele>
        <time>2017-04-16T08:12:58.000Z</time>
      </trkpt>
      <trkpt lat="43.54138" lon="2.95734">
        <ele>438.2</ele>
        <time>2017-04-16T08:12:59.000Z</time>
      </trkpt>
      <trkpt lat="43.54143" lon="2.95742">
        <ele>435</ele>
        <time>2017-04-16T08:13:01.000Z</time>
      </trkpt>
      <trkpt lat="43.54148" lon="2.95749">
        <ele>431.8</ele>
        <time>2017-04-16T08:13:03.000Z</time>
      </trkpt>
      <trkpt lat="43.54151" lon="2.95753">
        <ele>430.2</ele>
        <time>2017-04-16T08:13:04.000Z</time>
      </trkpt>
      <trkpt lat="43.54161" lon="2.9576">
        <ele>427</ele>
        <time>2017-04-16T08:13:06.000Z</time>
      </trkpt>
      <trkpt lat="43.54169" lon="2.95772">
        <ele>421.8</ele>
        <time>2017-04-16T08:13:09.000Z</time>
      </trkpt>
      <trkpt lat="43.54178" lon="2.95778">
        <ele>418.4</ele>
        <time>2017-04-16T08:13:11.000Z</time>
      </trkpt>
      <trkpt lat="43.54184" lon="2.9578">
        <ele>416.8</ele>
        <time>2017-04-16T08:13:12.000Z</time>
      </trkpt>
      <trkpt lat="43.54191" lon="2.95785">
        <ele>415</ele>
        <time>2017-04-16T08:13:13.000Z</time>
      </trkpt>
      <trkpt lat="43.54206" lon="2.95797">
        <ele>411.8</ele>
        <time>2017-04-16T08:13:15.000Z</time>
      </trkpt>
      <trkpt lat="43.54218" lon="2.95813">
        <ele>408.4</ele>
        <time>2017-04-16T08:13:17.000Z</time>
      </trkpt>
      <trkpt lat="43.54226" lon="2.95823">
        <ele>406.4</ele>
        <time>2017-04-16T08:13:18.000Z</time>
      </trkpt>
      <trkpt lat="43.54242" lon="2.95844">
        <ele>402.8</ele>
        <time>2017-04-16T08:13:20.000Z</time>
      </trkpt>
      <trkpt lat="43.54257" lon="2.95859">
        <ele>399.2</ele>
        <time>2017-04-16T08:13:22.000Z</time>
      </trkpt>
      <trkpt lat="43.54265" lon="2.95867">
        <ele>397.6</ele>
        <time>2017-04-16T08:13:23.000Z</time>
      </trkpt>
      <trkpt lat="43.54273" lon="2.95886">
        <ele>392.4</ele>
        <time>2017-04-16T08:13:26.000Z</time>
      </trkpt>
      <trkpt lat="43.54266" lon="2.9589">
        <ele>389.2</ele>
        <time>2017-04-16T08:13:28.000Z</time>
      </trkpt>
      <trkpt lat="43.5426" lon="2.95891">
        <ele>387.6</ele>
        <time>2017-04-16T08:13:29.000Z</time>
      </trkpt>
      <trkpt lat="43.54253" lon="2.95893">
        <ele>386.4</ele>
        <time>2017-04-16T08:13:30.000Z</time>
      </trkpt>
      <trkpt lat="43.54247" lon="2.95898">
        <ele>385</ele>
        <time>2017-04-16T08:13:31.000Z</time>
      </trkpt>
      <trkpt lat="43.54232" lon="2.95911">
        <ele>382.2</ele>
        <time>2017-04-16T08:13:33.000Z</time>
      </trkpt>
      <trkpt lat="43.54215" lon="2.95924">
        <ele>379.4</ele>
        <time>2017-04-16T08:13:35.000Z</time>
      </trkpt>
      <trkpt lat="43.542" lon="2.95938">
        <ele>376.6</ele>
        <time>2017-04-16T08:13:37.000Z</time>
      </trkpt>
      <trkpt lat="43.54192" lon="2.95943">
        <ele>375.4</ele>
        <time>2017-04-16T08:13:38.000Z</time>
      </trkpt>
      <trkpt lat="43.54173" lon="2.95941">
        <ele>372.8</ele>
        <time>2017-04-16T08:13:40.000Z</time>
      </trkpt>
      <trkpt lat="43.54153" lon="2.95939">
        <ele>370.4</ele>
        <time>2017-04-16T08:13:42.000Z</time>
      </trkpt>
      <trkpt lat="43.54142" lon="2.95938">
        <ele>369</ele>
        <time>2017-04-16T08:13:43.000Z</time>
      </trkpt>
      <trkpt lat="43.54125" lon="2.95937">
        <ele>366.6</ele>
        <time>2017-04-16T08:13:45.000Z</time>
      </trkpt>
      <trkpt lat="43.5412" lon="2.95936">
        <ele>365.2</ele>
        <time>2017-04-16T08:13:46.000Z</time>
      </trkpt>
      <trkpt lat="43.54129" lon="2.95944">
        <ele>362.8</ele>
        <time>2017-04-16T08:13:48.000Z</time>
      </trkpt>
      <trkpt lat="43.54145" lon="2.95951">
        <ele>360.8</ele>
        <time>2017-04-16T08:13:50.000Z</time>
      </trkpt>
      <trkpt lat="43.54152" lon="2.95952">
        <ele>359.8</ele>
        <time>2017-04-16T08:13:51.000Z</time>
      </trkpt>
      <trkpt lat="43.54163" lon="2.95953">
        <ele>358.2</ele>
        <time>2017-04-16T08:13:53.000Z</time>
      </trkpt>
      <trkpt lat="43.54167" lon="2.95954">
        <ele>357.6</ele>
        <time>2017-04-16T08:13:54.000Z</time>
      </trkpt>
      <trkpt lat="43.54175" lon="2.95958">
        <ele>356.4</ele>
        <time>2017-04-16T08:13:56.000Z</time>
      </trkpt>
      <trkpt lat="43.54186" lon="2.95963">
        <ele>355.2</ele>
        <time>2017-04-16T08:13:59.000Z</time>
      </trkpt>
      <trkpt lat="43.54193" lon="2.95962">
        <ele>355</ele>
        <time>2017-04-16T08:14:01.000Z</time>
      </trkpt>
      <trkpt lat="43.54199" lon="2.95959">
        <ele>354.6</ele>
        <time>2017-04-16T08:14:03.000Z</time>
      </trkpt>
      <trkpt lat="43.54206" lon="2.95953">
        <ele>354.4</ele>
        <time>2017-04-16T08:14:05.000Z</time>
      </trkpt>
      <trkpt lat="43.54212" lon="2.95946">
        <ele>354.4</ele>
        <time>2017-04-16T08:14:07.000Z</time>
      </trkpt>
      <trkpt lat="43.54222" lon="2.95938">
        <ele>354.4</ele>
        <time>2017-04-16T08:14:10.000Z</time>
      </trkpt>
      <trkpt lat="43.5423" lon="2.95934">
        <ele>354.6</ele>
        <time>2017-04-16T08:14:12.000Z</time>
      </trkpt>
      <trkpt lat="43.54238" lon="2.95932">
        <ele>354.8</ele>
        <time>2017-04-16T08:14:14.000Z</time>
      </trkpt>
      <trkpt lat="43.5424" lon="2.95934">
        <ele>355.2</ele>
        <time>2017-04-16T08:14:15.000Z</time>
      </trkpt>
      <trkpt lat="43.54245" lon="2.95937">
        <ele>355.6</ele>
        <time>2017-04-16T08:14:17.000Z</time>
      </trkpt>
      <trkpt lat="43.54248" lon="2.95939">
        <ele>355.8</ele>
        <time>2017-04-16T08:14:18.000Z</time>
      </trkpt>
      <trkpt lat="43.54244" lon="2.95944">
        <ele>356.4</ele>
        <time>2017-04-16T08:14:21.000Z</time>
      </trkpt>
      <trkpt lat="43.54242" lon="2.95946">
        <ele>356.4</ele>
        <time>2017-04-16T08:14:22.000Z</time>
      </trkpt>
      <trkpt lat="43.5424" lon="2.95954">
        <ele>355.6</ele>
        <time>2017-04-16T08:14:24.000Z</time>
      </trkpt>
      <trkpt lat="43.54242" lon="2.9596">
        <ele>355.2</ele>
        <time>2017-04-16T08:14:25.000Z</time>
      </trkpt>
      <trkpt lat="43.54247" lon="2.9597">
        <ele>353.8</ele>
        <time>2017-04-16T08:14:27.000Z</time>
      </trkpt>
      <trkpt lat="43.5424" lon="2.9598">
        <ele>350.8</ele>
        <time>2017-04-16T08:14:30.000Z</time>
      </trkpt>
      <trkpt lat="43.54234" lon="2.95984">
        <ele>349.8</ele>
        <time>2017-04-16T08:14:31.000Z</time>
      </trkpt>
      <trkpt lat="43.54223" lon="2.96002">
        <ele>346.2</ele>
        <time>2017-04-16T08:14:34.000Z</time>
      </trkpt>
      <trkpt lat="43.54218" lon="2.96008">
        <ele>345</ele>
        <time>2017-04-16T08:14:35.000Z</time>
      </trkpt>
      <trkpt lat="43.54211" lon="2.96021">
        <ele>342</ele>
        <time>2017-04-16T08:14:37.000Z</time>
      </trkpt>
      <trkpt lat="43.54209" lon="2.96026">
        <ele>340.2</ele>
        <time>2017-04-16T08:14:38.000Z</time>
      </trkpt>
      <trkpt lat="43.54209" lon="2.96028">
        <ele>338.6</ele>
        <time>2017-04-16T08:14:39.000Z</time>
      </trkpt>
      <trkpt lat="43.54212" lon="2.9603">
        <ele>336.8</ele>
        <time>2017-04-16T08:14:40.000Z</time>
      </trkpt>
      <trkpt lat="43.54215" lon="2.96031">
        <ele>335.4</ele>
        <time>2017-04-16T08:14:41.000Z</time>
      </trkpt>
      <trkpt lat="43.54217" lon="2.96031">
        <ele>332</ele>
        <time>2017-04-16T08:14:43.000Z</time>
      </trkpt>
      <trkpt lat="43.54207" lon="2.96032">
        <ele>329.2</ele>
        <time>2017-04-16T08:14:45.000Z</time>
      </trkpt>
      <trkpt lat="43.54193" lon="2.9604">
        <ele>326.6</ele>
        <time>2017-04-16T08:14:47.000Z</time>
      </trkpt>
      <trkpt lat="43.54188" lon="2.96045">
        <ele>325.2</ele>
        <time>2017-04-16T08:14:48.000Z</time>
      </trkpt>
      <trkpt lat="43.54185" lon="2.96053">
        <ele>324</ele>
        <time>2017-04-16T08:14:49.000Z</time>
      </trkpt>
      <trkpt lat="43.54186" lon="2.96057">
        <ele>322.4</ele>
        <time>2017-04-16T08:14:50.000Z</time>
      </trkpt>
      <trkpt lat="43.54193" lon="2.96063">
        <ele>319.8</ele>
        <time>2017-04-16T08:14:52.000Z</time>
      </trkpt>
      <trkpt lat="43.54207" lon="2.96068">
        <ele>317.4</ele>
        <time>2017-04-16T08:14:54.000Z</time>
      </trkpt>
      <trkpt lat="43.54216" lon="2.96068">
        <ele>316.2</ele>
        <time>2017-04-16T08:14:55.000Z</time>
      </trkpt>
      <trkpt lat="43.54238" lon="2.96068">
        <ele>313.8</ele>
        <time>2017-04-16T08:14:57.000Z</time>
      </trkpt>
      <trkpt lat="43.54256" lon="2.96077">
        <ele>311.4</ele>
        <time>2017-04-16T08:14:59.000Z</time>
      </trkpt>
      <trkpt lat="43.54272" lon="2.96095">
        <ele>309</ele>
        <time>2017-04-16T08:15:01.000Z</time>
      </trkpt>
      <trkpt lat="43.54281" lon="2.96106">
        <ele>307.8</ele>
        <time>2017-04-16T08:15:02.000Z</time>
      </trkpt>
      <trkpt lat="43.54292" lon="2.96118">
        <ele>306.6</ele>
        <time>2017-04-16T08:15:03.000Z</time>
      </trkpt>
      <trkpt lat="43.54301" lon="2.96127">
        <ele>305.4</ele>
        <time>2017-04-16T08:15:04.000Z</time>
      </trkpt>
      <trkpt lat="43.54328" lon="2.96156">
        <ele>301.8</ele>
        <time>2017-04-16T08:15:07.000Z</time>
      </trkpt>
      <trkpt lat="43.54346" lon="2.96176">
        <ele>299.4</ele>
        <time>2017-04-16T08:15:09.000Z</time>
      </trkpt>
      <trkpt lat="43.5436" lon="2.96195">
        <ele>297.2</ele>
        <time>2017-04-16T08:15:11.000Z</time>
      </trkpt>
      <trkpt lat="43.54367" lon="2.96205">
        <ele>296</ele>
        <time>2017-04-16T08:15:12.000Z</time>
      </trkpt>
      <trkpt lat="43.54374" lon="2.96221">
        <ele>293.8</ele>
        <time>2017-04-16T08:15:14.000Z</time>
      </trkpt>
      <trkpt lat="43.54379" lon="2.96235">
        <ele>291.6</ele>
        <time>2017-04-16T08:15:16.000Z</time>
      </trkpt>
      <trkpt lat="43.54384" lon="2.96244">
        <ele>290.6</ele>
        <time>2017-04-16T08:15:17.000Z</time>
      </trkpt>
      <trkpt lat="43.544" lon="2.96272">
        <ele>287</ele>
        <time>2017-04-16T08:15:20.000Z</time>
      </trkpt>
      <trkpt lat="43.54404" lon="2.96278">
        <ele>286</ele>
        <time>2017-04-16T08:15:21.000Z</time>
      </trkpt>
      <trkpt lat="43.54414" lon="2.96295">
        <ele>282.2</ele>
        <time>2017-04-16T08:15:24.000Z</time>
      </trkpt>
      <trkpt lat="43.5442" lon="2.96298">
        <ele>281</ele>
        <time>2017-04-16T08:15:25.000Z</time>
      </trkpt>
      <trkpt lat="43.54425" lon="2.96302">
        <ele>279.4</ele>
        <time>2017-04-16T08:15:26.000Z</time>
      </trkpt>
      <trkpt lat="43.5443" lon="2.96305">
        <ele>278.2</ele>
        <time>2017-04-16T08:15:27.000Z</time>
      </trkpt>
      <trkpt lat="43.54446" lon="2.96321">
        <ele>273.8</ele>
        <time>2017-04-16T08:15:30.000Z</time>
      </trkpt>
      <trkpt lat="43.54462" lon="2.96345">
        <ele>271.2</ele>
        <time>2017-04-16T08:15:32.000Z</time>
      </trkpt>
      <trkpt lat="43.54476" lon="2.96356">
        <ele>268.4</ele>
        <time>2017-04-16T08:15:34.000Z</time>
      </trkpt>
      <trkpt lat="43.54482" lon="2.9636">
        <ele>266.6</ele>
        <time>2017-04-16T08:15:35.000Z</time>
      </trkpt>
      <trkpt lat="43.54485" lon="2.96364">
        <ele>265</ele>
        <time>2017-04-16T08:15:36.000Z</time>
      </trkpt>
      <trkpt lat="43.54486" lon="2.96378">
        <ele>261.8</ele>
        <time>2017-04-16T08:15:38.000Z</time>
      </trkpt>
      <trkpt lat="43.54484" lon="2.96386">
        <ele>260.2</ele>
        <time>2017-04-16T08:15:39.000Z</time>
      </trkpt>
      <trkpt lat="43.54479" lon="2.96418">
        <ele>255.8</ele>
        <time>2017-04-16T08:15:42.000Z</time>
      </trkpt>
      <trkpt lat="43.54477" lon="2.96429">
        <ele>254.6</ele>
        <time>2017-04-16T08:15:43.000Z</time>
      </trkpt>
      <trkpt lat="43.54469" lon="2.96463">
        <ele>251</ele>
        <time>2017-04-16T08:15:46.000Z</time>
      </trkpt>
      <trkpt lat="43.54467" lon="2.96473">
        <ele>249.8</ele>
        <time>2017-04-16T08:15:47.000Z</time>
      </trkpt>
      <trkpt lat="43.54463" lon="2.9649">
        <ele>247.8</ele>
        <time>2017-04-16T08:15:49.000Z</time>
      </trkpt>
      <trkpt lat="43.54466" lon="2.96498">
        <ele>247</ele>
        <time>2017-04-16T08:15:50.000Z</time>
      </trkpt>
      <trkpt lat="43.54467" lon="2.96507">
        <ele>246</ele>
        <time>2017-04-16T08:15:51.000Z</time>
      </trkpt>
      <trkpt lat="43.54471" lon="2.96512">
        <ele>245</ele>
        <time>2017-04-16T08:15:52.000Z</time>
      </trkpt>
      <trkpt lat="43.54476" lon="2.96518">
        <ele>244.2</ele>
        <time>2017-04-16T08:15:53.000Z</time>
      </trkpt>
      <trkpt lat="43.54482" lon="2.96522">
        <ele>243.2</ele>
        <time>2017-04-16T08:15:54.000Z</time>
      </trkpt>
      <trkpt lat="43.54486" lon="2.96529">
        <ele>242.2</ele>
        <time>2017-04-16T08:15:55.000Z</time>
      </trkpt>
      <trkpt lat="43.5449" lon="2.96536">
        <ele>241.4</ele>
        <time>2017-04-16T08:15:56.000Z</time>
      </trkpt>
      <trkpt lat="43.54494" lon="2.96553">
        <ele>240</ele>
        <time>2017-04-16T08:15:58.000Z</time>
      </trkpt>
      <trkpt lat="43.54493" lon="2.96561">
        <ele>239.6</ele>
        <time>2017-04-16T08:15:59.000Z</time>
      </trkpt>
      <trkpt lat="43.54493" lon="2.9657">
        <ele>239</ele>
        <time>2017-04-16T08:16:00.000Z</time>
      </trkpt>
      <trkpt lat="43.54494" lon="2.96578">
        <ele>238.2</ele>
        <time>2017-04-16T08:16:01.000Z</time>
      </trkpt>
      <trkpt lat="43.54497" lon="2.96593">
        <ele>237.2</ele>
        <time>2017-04-16T08:16:03.000Z</time>
      </trkpt>
      <trkpt lat="43.54496" lon="2.96603">
        <ele>236.6</ele>
        <time>2017-04-16T08:16:04.000Z</time>
      </trkpt>
      <trkpt lat="43.54495" lon="2.9661">
        <ele>236.2</ele>
        <time>2017-04-16T08:16:05.000Z</time>
      </trkpt>
      <trkpt lat="43.54493" lon="2.9663">
        <ele>235.2</ele>
        <time>2017-04-16T08:16:07.000Z</time>
      </trkpt>
      <trkpt lat="43.54493" lon="2.96642">
        <ele>234.6</ele>
        <time>2017-04-16T08:16:08.000Z</time>
      </trkpt>
      <trkpt lat="43.54494" lon="2.96655">
        <ele>234</ele>
        <time>2017-04-16T08:16:09.000Z</time>
      </trkpt>
      <trkpt lat="43.54494" lon="2.96667">
        <ele>233.2</ele>
        <time>2017-04-16T08:16:10.000Z</time>
      </trkpt>
      <trkpt lat="43.54497" lon="2.96702">
        <ele>231.8</ele>
        <time>2017-04-16T08:16:12.000Z</time>
      </trkpt>
      <trkpt lat="43.54494" lon="2.96717">
        <ele>230</ele>
        <time>2017-04-16T08:16:14.000Z</time>
      </trkpt>
      <trkpt lat="43.54494" lon="2.96741">
        <ele>228.4</ele>
        <time>2017-04-16T08:16:16.000Z</time>
      </trkpt>
      <trkpt lat="43.54491" lon="2.96747">
        <ele>227.4</ele>
        <time>2017-04-16T08:16:17.000Z</time>
      </trkpt>
      <trkpt lat="43.54489" lon="2.96766">
        <ele>225.8</ele>
        <time>2017-04-16T08:16:19.000Z</time>
      </trkpt>
      <trkpt lat="43.54488" lon="2.9678">
        <ele>224.4</ele>
        <time>2017-04-16T08:16:21.000Z</time>
      </trkpt>
      <trkpt lat="43.54491" lon="2.96782">
        <ele>224</ele>
        <time>2017-04-16T08:16:22.000Z</time>
      </trkpt>
      <trkpt lat="43.54496" lon="2.96783">
        <ele>223.2</ele>
        <time>2017-04-16T08:16:23.000Z</time>
      </trkpt>
      <trkpt lat="43.54507" lon="2.96784">
        <ele>222</ele>
        <time>2017-04-16T08:16:25.000Z</time>
      </trkpt>
      <trkpt lat="43.54512" lon="2.96781">
        <ele>221</ele>
        <time>2017-04-16T08:16:26.000Z</time>
      </trkpt>
      <trkpt lat="43.5452" lon="2.9678">
        <ele>219.4</ele>
        <time>2017-04-16T08:16:28.000Z</time>
      </trkpt>
      <trkpt lat="43.54517" lon="2.96786">
        <ele>217.4</ele>
        <time>2017-04-16T08:16:30.000Z</time>
      </trkpt>
      <trkpt lat="43.54512" lon="2.96794">
        <ele>216.4</ele>
        <time>2017-04-16T08:16:31.000Z</time>
      </trkpt>
      <trkpt lat="43.54508" lon="2.96801">
        <ele>215.6</ele>
        <time>2017-04-16T08:16:32.000Z</time>
      </trkpt>
      <trkpt lat="43.54505" lon="2.96809">
        <ele>214.6</ele>
        <time>2017-04-16T08:16:33.000Z</time>
      </trkpt>
      <trkpt lat="43.54503" lon="2.96813">
        <ele>212.8</ele>
        <time>2017-04-16T08:16:35.000Z</time>
      </trkpt>
      <trkpt lat="43.54505" lon="2.96805">
        <ele>211.8</ele>
        <time>2017-04-16T08:16:36.000Z</time>
      </trkpt>
      <trkpt lat="43.54509" lon="2.96791">
        <ele>210</ele>
        <time>2017-04-16T08:16:38.000Z</time>
      </trkpt>
      <trkpt lat="43.54513" lon="2.96788">
        <ele>209</ele>
        <time>2017-04-16T08:16:39.000Z</time>
      </trkpt>
      <trkpt lat="43.54514" lon="2.96796">
        <ele>206.8</ele>
        <time>2017-04-16T08:16:41.000Z</time>
      </trkpt>
      <trkpt lat="43.54513" lon="2.96806">
        <ele>205.8</ele>
        <time>2017-04-16T08:16:42.000Z</time>
      </trkpt>
      <trkpt lat="43.54512" lon="2.96816">
        <ele>204.8</ele>
        <time>2017-04-16T08:16:43.000Z</time>
      </trkpt>
      <trkpt lat="43.54513" lon="2.96825">
        <ele>203.6</ele>
        <time>2017-04-16T08:16:44.000Z</time>
      </trkpt>
      <trkpt lat="43.54515" lon="2.96852">
        <ele>200</ele>
        <time>2017-04-16T08:16:47.000Z</time>
      </trkpt>
      <trkpt lat="43.54524" lon="2.96844">
        <ele>197.2</ele>
        <time>2017-04-16T08:16:49.000Z</time>
      </trkpt>
      <trkpt lat="43.54528" lon="2.96845">
        <ele>196</ele>
        <time>2017-04-16T08:16:50.000Z</time>
      </trkpt>
      <trkpt lat="43.54533" lon="2.96837">
        <ele>194.4</ele>
        <time>2017-04-16T08:16:51.000Z</time>
      </trkpt>
      <trkpt lat="43.54542" lon="2.9683">
        <ele>193.2</ele>
        <time>2017-04-16T08:16:52.000Z</time>
      </trkpt>
      <trkpt lat="43.54549" lon="2.96825">
        <ele>191.6</ele>
        <time>2017-04-16T08:16:53.000Z</time>
      </trkpt>
      <trkpt lat="43.54552" lon="2.96825">
        <ele>190.4</ele>
        <time>2017-04-16T08:16:54.000Z</time>
      </trkpt>
      <trkpt lat="43.54556" lon="2.96828">
        <ele>188.8</ele>
        <time>2017-04-16T08:16:55.000Z</time>
      </trkpt>
      <trkpt lat="43.54557" lon="2.96837">
        <ele>186</ele>
        <time>2017-04-16T08:16:57.000Z</time>
      </trkpt>
      <trkpt lat="43.54554" lon="2.96839">
        <ele>183.4</ele>
        <time>2017-04-16T08:16:59.000Z</time>
      </trkpt>
      <trkpt lat="43.54553" lon="2.96838">
        <ele>181.2</ele>
        <time>2017-04-16T08:17:01.000Z</time>
      </trkpt>
      <trkpt lat="43.54552" lon="2.96838">
        <ele>179.2</ele>
        <time>2017-04-16T08:17:03.000Z</time>
      </trkpt>
      <trkpt lat="43.54551" lon="2.96839">
        <ele>178.2</ele>
        <time>2017-04-16T08:17:04.000Z</time>
      </trkpt>
      <trkpt lat="43.54551" lon="2.9684">
        <ele>177.4</ele>
        <time>2017-04-16T08:17:05.000Z</time>
      </trkpt>
      <trkpt lat="43.54551" lon="2.96842">
        <ele>176.2</ele>
        <time>2017-04-16T08:17:07.000Z</time>
      </trkpt>
      <trkpt lat="43.54551" lon="2.96842">
        <ele>175</ele>
        <time>2017-04-16T08:17:09.000Z</time>
      </trkpt>
      <trkpt lat="43.5455" lon="2.96843">
        <ele>174.6</ele>
        <time>2017-04-16T08:17:10.000Z</time>
      </trkpt>
      <trkpt lat="43.5455" lon="2.96844">
        <ele>173.2</ele>
        <time>2017-04-16T08:17:14.000Z</time>
      </trkpt>
      <trkpt lat="43.54551" lon="2.96846">
        <ele>172.6</ele>
        <time>2017-04-16T08:17:16.000Z</time>
      </trkpt>
      <trkpt lat="43.54552" lon="2.96847">
        <ele>172.4</ele>
        <time>2017-04-16T08:17:17.000Z</time>
      </trkpt>
      <trkpt lat="43.54552" lon="2.96846">
        <ele>172.2</ele>
        <time>2017-04-16T08:17:18.000Z</time>
      </trkpt>
      <trkpt lat="43.54551" lon="2.96845">
        <ele>171.4</ele>
        <time>2017-04-16T08:17:24.000Z</time>
      </trkpt>
      <trkpt lat="43.54551" lon="2.96846">
        <ele>171.4</ele>
        <time>2017-04-16T08:17:25.000Z</time>
      </trkpt>
      <trkpt lat="43.54553" lon="2.9685">
        <ele>171.2</ele>
        <time>2017-04-16T08:17:27.000Z</time>
      </trkpt>
      <trkpt lat="43.54555" lon="2.96863">
        <ele>170.6</ele>
        <time>2017-04-16T08:17:30.000Z</time>
      </trkpt>
      <trkpt lat="43.54553" lon="2.96877">
        <ele>169.8</ele>
        <time>2017-04-16T08:17:32.000Z</time>
      </trkpt>
      <trkpt lat="43.5455" lon="2.96888">
        <ele>168.8</ele>
        <time>2017-04-16T08:17:34.000Z</time>
      </trkpt>
      <trkpt lat="43.5455" lon="2.96893">
        <ele>168.2</ele>
        <time>2017-04-16T08:17:35.000Z</time>
      </trkpt>
      <trkpt lat="43.54551" lon="2.96896">
        <ele>167.6</ele>
        <time>2017-04-16T08:17:36.000Z</time>
      </trkpt>
      <trkpt lat="43.54552" lon="2.96896">
        <ele>166.8</ele>
        <time>2017-04-16T08:17:37.000Z</time>
      </trkpt>
      <trkpt lat="43.54551" lon="2.96897">
        <ele>165.6</ele>
        <time>2017-04-16T08:17:39.000Z</time>
      </trkpt>
      <trkpt lat="43.54551" lon="2.96895">
        <ele>161.2</ele>
        <time>2017-04-16T08:17:55.000Z</time>
      </trkpt>
      <trkpt lat="43.54552" lon="2.96895">
        <ele>161.2</ele>
        <time>2017-04-16T08:17:56.000Z</time>
      </trkpt>
      <trkpt lat="43.54551" lon="2.96894">
        <ele>161.2</ele>
        <time>2017-04-16T08:17:57.000Z</time>
      </trkpt>
      <trkpt lat="43.54551" lon="2.96894">
        <ele>161</ele>
        <time>2017-04-16T08:17:59.000Z</time>
      </trkpt>
      <trkpt lat="43.54551" lon="2.96895">
        <ele>160.8</ele>
        <time>2017-04-16T08:18:00.000Z</time>
      </trkpt>
      <trkpt lat="43.54548" lon="2.96895">
        <ele>160.6</ele>
        <time>2017-04-16T08:18:10.000Z</time>
      </trkpt>
      <trkpt lat="43.54548" lon="2.96895">
        <ele>160.4</ele>
        <time>2017-04-16T08:18:11.000Z</time>
      </trkpt>
      <trkpt lat="43.54547" lon="2.96896">
        <ele>160.4</ele>
        <time>2017-04-16T08:18:16.000Z</time>
      </trkpt>
      <trkpt lat="43.54548" lon="2.96895">
        <ele>160.4</ele>
        <time>2017-04-16T08:18:29.000Z</time>
      </trkpt>
      <trkpt lat="43.5455" lon="2.96894">
        <ele>160.4</ele>
        <time>2017-04-16T08:18:32.000Z</time>
      </trkpt>
      <trkpt lat="43.54546" lon="2.96896">
        <ele>160.4</ele>
        <time>2017-04-16T08:18:37.000Z</time>
      </trkpt>
      <trkpt lat="43.54548" lon="2.96907">
        <ele>160.4</ele>
        <time>2017-04-16T08:18:51.000Z</time>
      </trkpt>
      <trkpt lat="43.54548" lon="2.96909">
        <ele>160.4</ele>
        <time>2017-04-16T08:18:52.000Z</time>
      </trkpt>
      <trkpt lat="43.54547" lon="2.9691">
        <ele>160.4</ele>
        <time>2017-04-16T08:18:53.000Z</time>
      </trkpt>
      <trkpt lat="43.5454" lon="2.96924">
        <ele>160.4</ele>
        <time>2017-04-16T08:18:59.000Z</time>
      </trkpt>
      <trkpt lat="43.54537" lon="2.96926">
        <ele>160</ele>
        <time>2017-04-16T08:19:00.000Z</time>
      </trkpt>
      <trkpt lat="43.54534" lon="2.96933">
        <ele>159.6</ele>
        <time>2017-04-16T08:19:02.000Z</time>
      </trkpt>
      <trkpt lat="43.54531" lon="2.96936">
        <ele>159.6</ele>
        <time>2017-04-16T08:19:03.000Z</time>
      </trkpt>
      <trkpt lat="43.54521" lon="2.96948">
        <ele>159</ele>
        <time>2017-04-16T08:19:06.000Z</time>
      </trkpt>
      <trkpt lat="43.54519" lon="2.96952">
        <ele>158.8</ele>
        <time>2017-04-16T08:19:07.000Z</time>
      </trkpt>
      <trkpt lat="43.54513" lon="2.96962">
        <ele>158.2</ele>
        <time>2017-04-16T08:19:09.000Z</time>
      </trkpt>
      <trkpt lat="43.54508" lon="2.96967">
        <ele>157.6</ele>
        <time>2017-04-16T08:19:11.000Z</time>
      </trkpt>
      <trkpt lat="43.54503" lon="2.96973">
        <ele>157.2</ele>
        <time>2017-04-16T08:19:13.000Z</time>
      </trkpt>
      <trkpt lat="43.54501" lon="2.96975">
        <ele>156.8</ele>
        <time>2017-04-16T08:19:14.000Z</time>
      </trkpt>
      <trkpt lat="43.54496" lon="2.96983">
        <ele>156</ele>
        <time>2017-04-16T08:19:16.000Z</time>
      </trkpt>
      <trkpt lat="43.54491" lon="2.96989">
        <ele>155.4</ele>
        <time>2017-04-16T08:19:18.000Z</time>
      </trkpt>
      <trkpt lat="43.54485" lon="2.96996">
        <ele>154.8</ele>
        <time>2017-04-16T08:19:20.000Z</time>
      </trkpt>
      <trkpt lat="43.54482" lon="2.96999">
        <ele>154.4</ele>
        <time>2017-04-16T08:19:21.000Z</time>
      </trkpt>
      <trkpt lat="43.54474" lon="2.97005">
        <ele>153.8</ele>
        <time>2017-04-16T08:19:23.000Z</time>
      </trkpt>
      <trkpt lat="43.54469" lon="2.97008">
        <ele>153.2</ele>
        <time>2017-04-16T08:19:24.000Z</time>
      </trkpt>
      <trkpt lat="43.54463" lon="2.97009">
        <ele>152.8</ele>
        <time>2017-04-16T08:19:25.000Z</time>
      </trkpt>
      <trkpt lat="43.54457" lon="2.9701">
        <ele>152.4</ele>
        <time>2017-04-16T08:19:26.000Z</time>
      </trkpt>
      <trkpt lat="43.54446" lon="2.97009">
        <ele>151.6</ele>
        <time>2017-04-16T08:19:28.000Z</time>
      </trkpt>
      <trkpt lat="43.5444" lon="2.97011">
        <ele>151</ele>
        <time>2017-04-16T08:19:29.000Z</time>
      </trkpt>
      <trkpt lat="43.54437" lon="2.97015">
        <ele>150.6</ele>
        <time>2017-04-16T08:19:30.000Z</time>
      </trkpt>
      <trkpt lat="43.54437" lon="2.97022">
        <ele>150</ele>
        <time>2017-04-16T08:19:31.000Z</time>
      </trkpt>
      <trkpt lat="43.54444" lon="2.97032">
        <ele>148.8</ele>
        <time>2017-04-16T08:19:33.000Z</time>
      </trkpt>
      <trkpt lat="43.54456" lon="2.9704">
        <ele>147.8</ele>
        <time>2017-04-16T08:19:35.000Z</time>
      </trkpt>
      <trkpt lat="43.54462" lon="2.97042">
        <ele>147.2</ele>
        <time>2017-04-16T08:19:36.000Z</time>
      </trkpt>
      <trkpt lat="43.54468" lon="2.97046">
        <ele>146.6</ele>
        <time>2017-04-16T08:19:37.000Z</time>
      </trkpt>
      <trkpt lat="43.54484" lon="2.97039">
        <ele>145.4</ele>
        <time>2017-04-16T08:19:40.000Z</time>
      </trkpt>
      <trkpt lat="43.54496" lon="2.97028">
        <ele>144.4</ele>
        <time>2017-04-16T08:19:42.000Z</time>
      </trkpt>
      <trkpt lat="43.54502" lon="2.97021">
        <ele>144</ele>
        <time>2017-04-16T08:19:43.000Z</time>
      </trkpt>
      <trkpt lat="43.54509" lon="2.97015">
        <ele>143.4</ele>
        <time>2017-04-16T08:19:44.000Z</time>
      </trkpt>
      <trkpt lat="43.54523" lon="2.97003">
        <ele>142.6</ele>
        <time>2017-04-16T08:19:46.000Z</time>
      </trkpt>
      <trkpt lat="43.5453" lon="2.96999">
        <ele>142</ele>
        <time>2017-04-16T08:19:47.000Z</time>
      </trkpt>
      <trkpt lat="43.54535" lon="2.96999">
        <ele>141.4</ele>
        <time>2017-04-16T08:19:48.000Z</time>
      </trkpt>
      <trkpt lat="43.5454" lon="2.97004">
        <ele>140.4</ele>
        <time>2017-04-16T08:19:50.000Z</time>
      </trkpt>
      <trkpt lat="43.54535" lon="2.97017">
        <ele>139.4</ele>
        <time>2017-04-16T08:19:52.000Z</time>
      </trkpt>
      <trkpt lat="43.54528" lon="2.97023">
        <ele>138.6</ele>
        <time>2017-04-16T08:19:53.000Z</time>
      </trkpt>
      <trkpt lat="43.54523" lon="2.97029">
        <ele>138</ele>
        <time>2017-04-16T08:19:54.000Z</time>
      </trkpt>
      <trkpt lat="43.54517" lon="2.97035">
        <ele>137.6</ele>
        <time>2017-04-16T08:19:55.000Z</time>
      </trkpt>
      <trkpt lat="43.54511" lon="2.9704">
        <ele>137</ele>
        <time>2017-04-16T08:19:56.000Z</time>
      </trkpt>
      <trkpt lat="43.54507" lon="2.97047">
        <ele>136.4</ele>
        <time>2017-04-16T08:19:57.000Z</time>
      </trkpt>
      <trkpt lat="43.54498" lon="2.97064">
        <ele>135.2</ele>
        <time>2017-04-16T08:19:59.000Z</time>
      </trkpt>
      <trkpt lat="43.54495" lon="2.97074">
        <ele>134.8</ele>
        <time>2017-04-16T08:20:00.000Z</time>
      </trkpt>
      <trkpt lat="43.54492" lon="2.97085">
        <ele>134.2</ele>
        <time>2017-04-16T08:20:01.000Z</time>
      </trkpt>
      <trkpt lat="43.5449" lon="2.97095">
        <ele>133.6</ele>
        <time>2017-04-16T08:20:02.000Z</time>
      </trkpt>
      <trkpt lat="43.54484" lon="2.97115">
        <ele>132.6</ele>
        <time>2017-04-16T08:20:04.000Z</time>
      </trkpt>
      <trkpt lat="43.54481" lon="2.97126">
        <ele>132</ele>
        <time>2017-04-16T08:20:05.000Z</time>
      </trkpt>
      <trkpt lat="43.54479" lon="2.97137">
        <ele>131.4</ele>
        <time>2017-04-16T08:20:06.000Z</time>
      </trkpt>
      <trkpt lat="43.54478" lon="2.97149">
        <ele>130.4</ele>
        <time>2017-04-16T08:20:07.000Z</time>
      </trkpt>
      <trkpt lat="43.54476" lon="2.97174">
        <ele>129.2</ele>
        <time>2017-04-16T08:20:09.000Z</time>
      </trkpt>
      <trkpt lat="43.54475" lon="2.97187">
        <ele>128.4</ele>
        <time>2017-04-16T08:20:10.000Z</time>
      </trkpt>
      <trkpt lat="43.54474" lon="2.97216">
        <ele>127</ele>
        <time>2017-04-16T08:20:12.000Z</time>
      </trkpt>
      <trkpt lat="43.54472" lon="2.97246">
        <ele>125.8</ele>
        <time>2017-04-16T08:20:14.000Z</time>
      </trkpt>
      <trkpt lat="43.54472" lon="2.97259">
        <ele>125</ele>
        <time>2017-04-16T08:20:15.000Z</time>
      </trkpt>
      <trkpt lat="43.5447" lon="2.97274">
        <ele>124.4</ele>
        <time>2017-04-16T08:20:16.000Z</time>
      </trkpt>
      <trkpt lat="43.54462" lon="2.97306">
        <ele>122.2</ele>
        <time>2017-04-16T08:20:19.000Z</time>
      </trkpt>
      <trkpt lat="43.54457" lon="2.97317">
        <ele>121.2</ele>
        <time>2017-04-16T08:20:20.000Z</time>
      </trkpt>
      <trkpt lat="43.54449" lon="2.97341">
        <ele>119.8</ele>
        <time>2017-04-16T08:20:22.000Z</time>
      </trkpt>
      <trkpt lat="43.54451" lon="2.97355">
        <ele>118.8</ele>
        <time>2017-04-16T08:20:23.000Z</time>
      </trkpt>
      <trkpt lat="43.54456" lon="2.97381">
        <ele>117.2</ele>
        <time>2017-04-16T08:20:25.000Z</time>
      </trkpt>
      <trkpt lat="43.54465" lon="2.97406">
        <ele>115.4</ele>
        <time>2017-04-16T08:20:27.000Z</time>
      </trkpt>
      <trkpt lat="43.54468" lon="2.9742">
        <ele>114.6</ele>
        <time>2017-04-16T08:20:28.000Z</time>
      </trkpt>
      <trkpt lat="43.54468" lon="2.97431">
        <ele>113.6</ele>
        <time>2017-04-16T08:20:29.000Z</time>
      </trkpt>
      <trkpt lat="43.54468" lon="2.97442">
        <ele>112.8</ele>
        <time>2017-04-16T08:20:30.000Z</time>
      </trkpt>
      <trkpt lat="43.54468" lon="2.97455">
        <ele>111.8</ele>
        <time>2017-04-16T08:20:31.000Z</time>
      </trkpt>
      <trkpt lat="43.54466" lon="2.97479">
        <ele>110.2</ele>
        <time>2017-04-16T08:20:33.000Z</time>
      </trkpt>
      <trkpt lat="43.54463" lon="2.9749">
        <ele>109.2</ele>
        <time>2017-04-16T08:20:34.000Z</time>
      </trkpt>
      <trkpt lat="43.5446" lon="2.97501">
        <ele>108.4</ele>
        <time>2017-04-16T08:20:35.000Z</time>
      </trkpt>
      <trkpt lat="43.5445" lon="2.97533">
        <ele>106</ele>
        <time>2017-04-16T08:20:38.000Z</time>
      </trkpt>
      <trkpt lat="43.54445" lon="2.97553">
        <ele>104.4</ele>
        <time>2017-04-16T08:20:40.000Z</time>
      </trkpt>
      <trkpt lat="43.5444" lon="2.97574">
        <ele>103.2</ele>
        <time>2017-04-16T08:20:42.000Z</time>
      </trkpt>
      <trkpt lat="43.54439" lon="2.97585">
        <ele>102.4</ele>
        <time>2017-04-16T08:20:43.000Z</time>
      </trkpt>
      <trkpt lat="43.54443" lon="2.97608">
        <ele>101.2</ele>
        <time>2017-04-16T08:20:45.000Z</time>
      </trkpt>
      <trkpt lat="43.54448" lon="2.9762">
        <ele>100.4</ele>
        <time>2017-04-16T08:20:46.000Z</time>
      </trkpt>
      <trkpt lat="43.54453" lon="2.9763">
        <ele>99.8</ele>
        <time>2017-04-16T08:20:47.000Z</time>
      </trkpt>
      <trkpt lat="43.54467" lon="2.97649">
        <ele>98.2</ele>
        <time>2017-04-16T08:20:49.000Z</time>
      </trkpt>
      <trkpt lat="43.54483" lon="2.97664">
        <ele>96.8</ele>
        <time>2017-04-16T08:20:51.000Z</time>
      </trkpt>
      <trkpt lat="43.54491" lon="2.97671">
        <ele>95.8</ele>
        <time>2017-04-16T08:20:52.000Z</time>
      </trkpt>
      <trkpt lat="43.54508" lon="2.97685">
        <ele>94.4</ele>
        <time>2017-04-16T08:20:54.000Z</time>
      </trkpt>
      <trkpt lat="43.54517" lon="2.97691">
        <ele>93.6</ele>
        <time>2017-04-16T08:20:55.000Z</time>
      </trkpt>
      <trkpt lat="43.54525" lon="2.97698">
        <ele>92.8</ele>
        <time>2017-04-16T08:20:56.000Z</time>
      </trkpt>
      <trkpt lat="43.5454" lon="2.97712">
        <ele>91</ele>
        <time>2017-04-16T08:20:58.000Z</time>
      </trkpt>
      <trkpt lat="43.54555" lon="2.97728">
        <ele>89.2</ele>
        <time>2017-04-16T08:21:00.000Z</time>
      </trkpt>
      <trkpt lat="43.54562" lon="2.97736">
        <ele>88.2</ele>
        <time>2017-04-16T08:21:01.000Z</time>
      </trkpt>
      <trkpt lat="43.54573" lon="2.97757">
        <ele>86.4</ele>
        <time>2017-04-16T08:21:03.000Z</time>
      </trkpt>
      <trkpt lat="43.54583" lon="2.97778">
        <ele>84.8</ele>
        <time>2017-04-16T08:21:05.000Z</time>
      </trkpt>
      <trkpt lat="43.54589" lon="2.97787">
        <ele>83.8</ele>
        <time>2017-04-16T08:21:06.000Z</time>
      </trkpt>
      <trkpt lat="43.54599" lon="2.97806">
        <ele>81.8</ele>
        <time>2017-04-16T08:21:08.000Z</time>
      </trkpt>
      <trkpt lat="43.546" lon="2.97819">
        <ele>80.8</ele>
        <time>2017-04-16T08:21:09.000Z</time>
      </trkpt>
      <trkpt lat="43.54601" lon="2.97831">
        <ele>79.8</ele>
        <time>2017-04-16T08:21:10.000Z</time>
      </trkpt>
      <trkpt lat="43.54598" lon="2.97855">
        <ele>77.6</ele>
        <time>2017-04-16T08:21:12.000Z</time>
      </trkpt>
      <trkpt lat="43.54597" lon="2.97866">
        <ele>76.6</ele>
        <time>2017-04-16T08:21:13.000Z</time>
      </trkpt>
      <trkpt lat="43.54598" lon="2.97873">
        <ele>75.8</ele>
        <time>2017-04-16T08:21:14.000Z</time>
      </trkpt>
      <trkpt lat="43.54602" lon="2.97875">
        <ele>74.8</ele>
        <time>2017-04-16T08:21:15.000Z</time>
      </trkpt>
      <trkpt lat="43.54608" lon="2.97859">
        <ele>73</ele>
        <time>2017-04-16T08:21:17.000Z</time>
      </trkpt>
      <trkpt lat="43.54611" lon="2.97846">
        <ele>71.4</ele>
        <time>2017-04-16T08:21:19.000Z</time>
      </trkpt>
      <trkpt lat="43.54616" lon="2.97824">
        <ele>70</ele>
        <time>2017-04-16T08:21:21.000Z</time>
      </trkpt>
      <trkpt lat="43.54619" lon="2.97814">
        <ele>69.2</ele>
        <time>2017-04-16T08:21:22.000Z</time>
      </trkpt>
      <trkpt lat="43.5462" lon="2.97803">
        <ele>68.6</ele>
        <time>2017-04-16T08:21:23.000Z</time>
      </trkpt>
      <trkpt lat="43.54625" lon="2.97781">
        <ele>67.2</ele>
        <time>2017-04-16T08:21:25.000Z</time>
      </trkpt>
      <trkpt lat="43.54628" lon="2.97756">
        <ele>66</ele>
        <time>2017-04-16T08:21:27.000Z</time>
      </trkpt>
      <trkpt lat="43.5463" lon="2.97743">
        <ele>65.2</ele>
        <time>2017-04-16T08:21:28.000Z</time>
      </trkpt>
      <trkpt lat="43.54635" lon="2.9773">
        <ele>64.4</ele>
        <time>2017-04-16T08:21:29.000Z</time>
      </trkpt>
      <trkpt lat="43.54642" lon="2.97722">
        <ele>63.8</ele>
        <time>2017-04-16T08:21:30.000Z</time>
      </trkpt>
      <trkpt lat="43.54652" lon="2.97719">
        <ele>63</ele>
        <time>2017-04-16T08:21:31.000Z</time>
      </trkpt>
      <trkpt lat="43.54669" lon="2.97717">
        <ele>61.6</ele>
        <time>2017-04-16T08:21:33.000Z</time>
      </trkpt>
      <trkpt lat="43.54682" lon="2.97722">
        <ele>60.6</ele>
        <time>2017-04-16T08:21:35.000Z</time>
      </trkpt>
      <trkpt lat="43.54693" lon="2.97726">
        <ele>59.8</ele>
        <time>2017-04-16T08:21:37.000Z</time>
      </trkpt>
      <trkpt lat="43.54698" lon="2.97728">
        <ele>59.4</ele>
        <time>2017-04-16T08:21:38.000Z</time>
      </trkpt>
      <trkpt lat="43.54703" lon="2.9773">
        <ele>59</ele>
        <time>2017-04-16T08:21:39.000Z</time>
      </trkpt>
      <trkpt lat="43.54723" lon="2.9774">
        <ele>58</ele>
        <time>2017-04-16T08:21:43.000Z</time>
      </trkpt>
      <trkpt lat="43.5474" lon="2.97739">
        <ele>57.2</ele>
        <time>2017-04-16T08:21:47.000Z</time>
      </trkpt>
      <trkpt lat="43.54749" lon="2.9773">
        <ele>56.8</ele>
        <time>2017-04-16T08:21:51.000Z</time>
      </trkpt>
      <trkpt lat="43.54751" lon="2.97728">
        <ele>56.8</ele>
        <time>2017-04-16T08:21:52.000Z</time>
      </trkpt>
      <trkpt lat="43.54757" lon="2.97724">
        <ele>56.4</ele>
        <time>2017-04-16T08:21:56.000Z</time>
      </trkpt>
      <trkpt lat="43.54765" lon="2.97716">
        <ele>56.2</ele>
        <time>2017-04-16T08:22:01.000Z</time>
      </trkpt>
      <trkpt lat="43.54774" lon="2.97709">
        <ele>56.4</ele>
        <time>2017-04-16T08:22:05.000Z</time>
      </trkpt>
      <trkpt lat="43.54779" lon="2.97705">
        <ele>56.6</ele>
        <time>2017-04-16T08:22:07.000Z</time>
      </trkpt>
      <trkpt lat="43.54783" lon="2.977">
        <ele>57</ele>
        <time>2017-04-16T08:22:09.000Z</time>
      </trkpt>
      <trkpt lat="43.54785" lon="2.97696">
        <ele>57.2</ele>
        <time>2017-04-16T08:22:11.000Z</time>
      </trkpt>
      <trkpt lat="43.54787" lon="2.9769">
        <ele>57.4</ele>
        <time>2017-04-16T08:22:13.000Z</time>
      </trkpt>
      <trkpt lat="43.54792" lon="2.97681">
        <ele>57.8</ele>
        <time>2017-04-16T08:22:16.000Z</time>
      </trkpt>
      <trkpt lat="43.54795" lon="2.97674">
        <ele>58.2</ele>
        <time>2017-04-16T08:22:18.000Z</time>
      </trkpt>
      <trkpt lat="43.54798" lon="2.97666">
        <ele>58.6</ele>
        <time>2017-04-16T08:22:20.000Z</time>
      </trkpt>
      <trkpt lat="43.548" lon="2.97659">
        <ele>58.8</ele>
        <time>2017-04-16T08:22:22.000Z</time>
      </trkpt>
      <trkpt lat="43.54802" lon="2.97651">
        <ele>59</ele>
        <time>2017-04-16T08:22:24.000Z</time>
      </trkpt>
      <trkpt lat="43.5481" lon="2.97631">
        <ele>59.6</ele>
        <time>2017-04-16T08:22:29.000Z</time>
      </trkpt>
      <trkpt lat="43.54816" lon="2.9761">
        <ele>59.8</ele>
        <time>2017-04-16T08:22:35.000Z</time>
      </trkpt>
      <trkpt lat="43.5482" lon="2.97594">
        <ele>60</ele>
        <time>2017-04-16T08:22:39.000Z</time>
      </trkpt>
      <trkpt lat="43.54824" lon="2.97579">
        <ele>60.2</ele>
        <time>2017-04-16T08:22:43.000Z</time>
      </trkpt>
      <trkpt lat="43.54827" lon="2.97572">
        <ele>60.6</ele>
        <time>2017-04-16T08:22:45.000Z</time>
      </trkpt>
      <trkpt lat="43.54829" lon="2.97565">
        <ele>61</ele>
        <time>2017-04-16T08:22:47.000Z</time>
      </trkpt>
      <trkpt lat="43.5483" lon="2.97559">
        <ele>61.2</ele>
        <time>2017-04-16T08:22:49.000Z</time>
      </trkpt>
      <trkpt lat="43.54832" lon="2.97552">
        <ele>61.6</ele>
        <time>2017-04-16T08:22:51.000Z</time>
      </trkpt>
      <trkpt lat="43.54836" lon="2.9754">
        <ele>62.2</ele>
        <time>2017-04-16T08:22:55.000Z</time>
      </trkpt>
      <trkpt lat="43.54838" lon="2.97535">
        <ele>62.6</ele>
        <time>2017-04-16T08:22:57.000Z</time>
      </trkpt>
      <trkpt lat="43.5484" lon="2.97529">
        <ele>63</ele>
        <time>2017-04-16T08:22:59.000Z</time>
      </trkpt>
      <trkpt lat="43.54842" lon="2.97524">
        <ele>63.4</ele>
        <time>2017-04-16T08:23:01.000Z</time>
      </trkpt>
      <trkpt lat="43.54845" lon="2.97519">
        <ele>63.8</ele>
        <time>2017-04-16T08:23:03.000Z</time>
      </trkpt>
      <trkpt lat="43.54851" lon="2.97509">
        <ele>64.4</ele>
        <time>2017-04-16T08:23:07.000Z</time>
      </trkpt>
      <trkpt lat="43.54855" lon="2.97503">
        <ele>64.8</ele>
        <time>2017-04-16T08:23:09.000Z</time>
      </trkpt>
      <trkpt lat="43.54859" lon="2.975">
        <ele>65.4</ele>
        <time>2017-04-16T08:23:11.000Z</time>
      </trkpt>
      <trkpt lat="43.54863" lon="2.97496">
        <ele>65.8</ele>
        <time>2017-04-16T08:23:13.000Z</time>
      </trkpt>
      <trkpt lat="43.54868" lon="2.97494">
        <ele>66.4</ele>
        <time>2017-04-16T08:23:15.000Z</time>
      </trkpt>
      <trkpt lat="43.54872" lon="2.97492">
        <ele>67</ele>
        <time>2017-04-16T08:23:17.000Z</time>
      </trkpt>
      <trkpt lat="43.54876" lon="2.97491">
        <ele>67.4</ele>
        <time>2017-04-16T08:23:19.000Z</time>
      </trkpt>
      <trkpt lat="43.54881" lon="2.97492">
        <ele>67.8</ele>
        <time>2017-04-16T08:23:21.000Z</time>
      </trkpt>
      <trkpt lat="43.54886" lon="2.97494">
        <ele>68.2</ele>
        <time>2017-04-16T08:23:23.000Z</time>
      </trkpt>
      <trkpt lat="43.54891" lon="2.97496">
        <ele>68.8</ele>
        <time>2017-04-16T08:23:25.000Z</time>
      </trkpt>
      <trkpt lat="43.54895" lon="2.97498">
        <ele>69.2</ele>
        <time>2017-04-16T08:23:27.000Z</time>
      </trkpt>
      <trkpt lat="43.549" lon="2.97499">
        <ele>69.6</ele>
        <time>2017-04-16T08:23:29.000Z</time>
      </trkpt>
      <trkpt lat="43.54905" lon="2.975">
        <ele>70</ele>
        <time>2017-04-16T08:23:31.000Z</time>
      </trkpt>
      <trkpt lat="43.54921" lon="2.97498">
        <ele>70.4</ele>
        <time>2017-04-16T08:23:36.000Z</time>
      </trkpt>
      <trkpt lat="43.54939" lon="2.97491">
        <ele>70.8</ele>
        <time>2017-04-16T08:23:41.000Z</time>
      </trkpt>
      <trkpt lat="43.54952" lon="2.9748">
        <ele>71</ele>
        <time>2017-04-16T08:23:45.000Z</time>
      </trkpt>
      <trkpt lat="43.54968" lon="2.97469">
        <ele>71.2</ele>
        <time>2017-04-16T08:23:50.000Z</time>
      </trkpt>
      <trkpt lat="43.54975" lon="2.97467">
        <ele>71.6</ele>
        <time>2017-04-16T08:23:52.000Z</time>
      </trkpt>
      <trkpt lat="43.54979" lon="2.97467">
        <ele>71.8</ele>
        <time>2017-04-16T08:23:53.000Z</time>
      </trkpt>
      <trkpt lat="43.5499" lon="2.97474">
        <ele>72.2</ele>
        <time>2017-04-16T08:23:56.000Z</time>
      </trkpt>
      <trkpt lat="43.54996" lon="2.97481">
        <ele>72.4</ele>
        <time>2017-04-16T08:23:58.000Z</time>
      </trkpt>
      <trkpt lat="43.55002" lon="2.97495">
        <ele>72.6</ele>
        <time>2017-04-16T08:24:01.000Z</time>
      </trkpt>
      <trkpt lat="43.54994" lon="2.97526">
        <ele>73</ele>
        <time>2017-04-16T08:24:07.000Z</time>
      </trkpt>
      <trkpt lat="43.54988" lon="2.97541">
        <ele>73</ele>
        <time>2017-04-16T08:24:11.000Z</time>
      </trkpt>
      <trkpt lat="43.54986" lon="2.97549">
        <ele>73.2</ele>
        <time>2017-04-16T08:24:13.000Z</time>
      </trkpt>
      <trkpt lat="43.54984" lon="2.97558">
        <ele>73.6</ele>
        <time>2017-04-16T08:24:15.000Z</time>
      </trkpt>
      <trkpt lat="43.54981" lon="2.97567">
        <ele>74</ele>
        <time>2017-04-16T08:24:17.000Z</time>
      </trkpt>
      <trkpt lat="43.54979" lon="2.97575">
        <ele>74.2</ele>
        <time>2017-04-16T08:24:19.000Z</time>
      </trkpt>
      <trkpt lat="43.54977" lon="2.97583">
        <ele>74.4</ele>
        <time>2017-04-16T08:24:21.000Z</time>
      </trkpt>
      <trkpt lat="43.54972" lon="2.97602">
        <ele>75</ele>
        <time>2017-04-16T08:24:26.000Z</time>
      </trkpt>
      <trkpt lat="43.54969" lon="2.97609">
        <ele>75.4</ele>
        <time>2017-04-16T08:24:28.000Z</time>
      </trkpt>
      <trkpt lat="43.54967" lon="2.97616">
        <ele>75.8</ele>
        <time>2017-04-16T08:24:30.000Z</time>
      </trkpt>
      <trkpt lat="43.54965" lon="2.97624">
        <ele>76</ele>
        <time>2017-04-16T08:24:32.000Z</time>
      </trkpt>
      <trkpt lat="43.54961" lon="2.97633">
        <ele>76.4</ele>
        <time>2017-04-16T08:24:34.000Z</time>
      </trkpt>
      <trkpt lat="43.54957" lon="2.97638">
        <ele>76.4</ele>
        <time>2017-04-16T08:24:35.000Z</time>
      </trkpt>
      <trkpt lat="43.5495" lon="2.97653">
        <ele>77</ele>
        <time>2017-04-16T08:24:39.000Z</time>
      </trkpt>
      <trkpt lat="43.54947" lon="2.9766">
        <ele>77.6</ele>
        <time>2017-04-16T08:24:41.000Z</time>
      </trkpt>
      <trkpt lat="43.54942" lon="2.97667">
        <ele>78</ele>
        <time>2017-04-16T08:24:43.000Z</time>
      </trkpt>
      <trkpt lat="43.54937" lon="2.97673">
        <ele>78.2</ele>
        <time>2017-04-16T08:24:45.000Z</time>
      </trkpt>
      <trkpt lat="43.54932" lon="2.9768">
        <ele>78.8</ele>
        <time>2017-04-16T08:24:47.000Z</time>
      </trkpt>
      <trkpt lat="43.54927" lon="2.97688">
        <ele>79.4</ele>
        <time>2017-04-16T08:24:49.000Z</time>
      </trkpt>
      <trkpt lat="43.54924" lon="2.97695">
        <ele>79.8</ele>
        <time>2017-04-16T08:24:51.000Z</time>
      </trkpt>
      <trkpt lat="43.54922" lon="2.97705">
        <ele>80.2</ele>
        <time>2017-04-16T08:24:53.000Z</time>
      </trkpt>
      <trkpt lat="43.54921" lon="2.97715">
        <ele>80.6</ele>
        <time>2017-04-16T08:24:55.000Z</time>
      </trkpt>
      <trkpt lat="43.54921" lon="2.97721">
        <ele>80.6</ele>
        <time>2017-04-16T08:24:56.000Z</time>
      </trkpt>
      <trkpt lat="43.54914" lon="2.97754">
        <ele>81.2</ele>
        <time>2017-04-16T08:25:01.000Z</time>
      </trkpt>
      <trkpt lat="43.54906" lon="2.9781">
        <ele>81.6</ele>
        <time>2017-04-16T08:25:08.000Z</time>
      </trkpt>
      <trkpt lat="43.54903" lon="2.9783">
        <ele>81.4</ele>
        <time>2017-04-16T08:25:10.000Z</time>
      </trkpt>
      <trkpt lat="43.54905" lon="2.97841">
        <ele>81.2</ele>
        <time>2017-04-16T08:25:11.000Z</time>
      </trkpt>
      <trkpt lat="43.54907" lon="2.97852">
        <ele>81</ele>
        <time>2017-04-16T08:25:12.000Z</time>
      </trkpt>
      <trkpt lat="43.54912" lon="2.97861">
        <ele>80.6</ele>
        <time>2017-04-16T08:25:13.000Z</time>
      </trkpt>
      <trkpt lat="43.54923" lon="2.97882">
        <ele>79.8</ele>
        <time>2017-04-16T08:25:15.000Z</time>
      </trkpt>
      <trkpt lat="43.54923" lon="2.97894">
        <ele>79.4</ele>
        <time>2017-04-16T08:25:16.000Z</time>
      </trkpt>
      <trkpt lat="43.54916" lon="2.97911">
        <ele>78.2</ele>
        <time>2017-04-16T08:25:18.000Z</time>
      </trkpt>
      <trkpt lat="43.54904" lon="2.97925">
        <ele>77</ele>
        <time>2017-04-16T08:25:20.000Z</time>
      </trkpt>
      <trkpt lat="43.54894" lon="2.97933">
        <ele>76.2</ele>
        <time>2017-04-16T08:25:22.000Z</time>
      </trkpt>
      <trkpt lat="43.54887" lon="2.9794">
        <ele>75.4</ele>
        <time>2017-04-16T08:25:24.000Z</time>
      </trkpt>
      <trkpt lat="43.54882" lon="2.97945">
        <ele>74.8</ele>
        <time>2017-04-16T08:25:26.000Z</time>
      </trkpt>
      <trkpt lat="43.54872" lon="2.97951">
        <ele>73.8</ele>
        <time>2017-04-16T08:25:31.000Z</time>
      </trkpt>
      <trkpt lat="43.54869" lon="2.97951">
        <ele>73.8</ele>
        <time>2017-04-16T08:25:32.000Z</time>
      </trkpt>
      <trkpt lat="43.54865" lon="2.97952">
        <ele>74</ele>
        <time>2017-04-16T08:25:34.000Z</time>
      </trkpt>
      <trkpt lat="43.54861" lon="2.97953">
        <ele>74</ele>
        <time>2017-04-16T08:25:36.000Z</time>
      </trkpt>
      <trkpt lat="43.54858" lon="2.97951">
        <ele>74.2</ele>
        <time>2017-04-16T08:25:38.000Z</time>
      </trkpt>
      <trkpt lat="43.54856" lon="2.97951">
        <ele>74.2</ele>
        <time>2017-04-16T08:25:39.000Z</time>
      </trkpt>
      <trkpt lat="43.54855" lon="2.9795">
        <ele>74.2</ele>
        <time>2017-04-16T08:25:40.000Z</time>
      </trkpt>
      <trkpt lat="43.5485" lon="2.97951">
        <ele>74.4</ele>
        <time>2017-04-16T08:25:42.000Z</time>
      </trkpt>
      <trkpt lat="43.54846" lon="2.97952">
        <ele>74.8</ele>
        <time>2017-04-16T08:25:44.000Z</time>
      </trkpt>
      <trkpt lat="43.54843" lon="2.97952">
        <ele>75.2</ele>
        <time>2017-04-16T08:25:46.000Z</time>
      </trkpt>
      <trkpt lat="43.5484" lon="2.97951">
        <ele>75.4</ele>
        <time>2017-04-16T08:25:48.000Z</time>
      </trkpt>
      <trkpt lat="43.54836" lon="2.97948">
        <ele>75.8</ele>
        <time>2017-04-16T08:25:50.000Z</time>
      </trkpt>
      <trkpt lat="43.54834" lon="2.97947">
        <ele>76</ele>
        <time>2017-04-16T08:25:51.000Z</time>
      </trkpt>
      <trkpt lat="43.5483" lon="2.97945">
        <ele>76.6</ele>
        <time>2017-04-16T08:25:53.000Z</time>
      </trkpt>
      <trkpt lat="43.54828" lon="2.97944">
        <ele>76.8</ele>
        <time>2017-04-16T08:25:54.000Z</time>
      </trkpt>
      <trkpt lat="43.54826" lon="2.97944">
        <ele>77</ele>
        <time>2017-04-16T08:25:55.000Z</time>
      </trkpt>
      <trkpt lat="43.54824" lon="2.97943">
        <ele>77.2</ele>
        <time>2017-04-16T08:25:56.000Z</time>
      </trkpt>
      <trkpt lat="43.5482" lon="2.97942">
        <ele>77.8</ele>
        <time>2017-04-16T08:25:59.000Z</time>
      </trkpt>
      <trkpt lat="43.54817" lon="2.97942">
        <ele>78.4</ele>
        <time>2017-04-16T08:26:01.000Z</time>
      </trkpt>
      <trkpt lat="43.54814" lon="2.97942">
        <ele>78.6</ele>
        <time>2017-04-16T08:26:02.000Z</time>
      </trkpt>
      <trkpt lat="43.54811" lon="2.97942">
        <ele>79.2</ele>
        <time>2017-04-16T08:26:05.000Z</time>
      </trkpt>
      <trkpt lat="43.54808" lon="2.97941">
        <ele>79.6</ele>
        <time>2017-04-16T08:26:07.000Z</time>
      </trkpt>
      <trkpt lat="43.54806" lon="2.9794">
        <ele>80</ele>
        <time>2017-04-16T08:26:08.000Z</time>
      </trkpt>
      <trkpt lat="43.54804" lon="2.97939">
        <ele>80.2</ele>
        <time>2017-04-16T08:26:09.000Z</time>
      </trkpt>
      <trkpt lat="43.54797" lon="2.97932">
        <ele>81</ele>
        <time>2017-04-16T08:26:12.000Z</time>
      </trkpt>
      <trkpt lat="43.54792" lon="2.9793">
        <ele>81.4</ele>
        <time>2017-04-16T08:26:14.000Z</time>
      </trkpt>
      <trkpt lat="43.54789" lon="2.97932">
        <ele>81.6</ele>
        <time>2017-04-16T08:26:15.000Z</time>
      </trkpt>
      <trkpt lat="43.54788" lon="2.97935">
        <ele>82</ele>
        <time>2017-04-16T08:26:16.000Z</time>
      </trkpt>
      <trkpt lat="43.54788" lon="2.9794">
        <ele>82.6</ele>
        <time>2017-04-16T08:26:18.000Z</time>
      </trkpt>
      <trkpt lat="43.54789" lon="2.97946">
        <ele>83.2</ele>
        <time>2017-04-16T08:26:20.000Z</time>
      </trkpt>
      <trkpt lat="43.54791" lon="2.97952">
        <ele>83.6</ele>
        <time>2017-04-16T08:26:22.000Z</time>
      </trkpt>
      <trkpt lat="43.54797" lon="2.97954">
        <ele>84</ele>
        <time>2017-04-16T08:26:24.000Z</time>
      </trkpt>
      <trkpt lat="43.54799" lon="2.97955">
        <ele>84</ele>
        <time>2017-04-16T08:26:25.000Z</time>
      </trkpt>
      <trkpt lat="43.54809" lon="2.97954">
        <ele>84.8</ele>
        <time>2017-04-16T08:26:29.000Z</time>
      </trkpt>
      <trkpt lat="43.54814" lon="2.97955">
        <ele>85.2</ele>
        <time>2017-04-16T08:26:31.000Z</time>
      </trkpt>
      <trkpt lat="43.54819" lon="2.97957">
        <ele>85.6</ele>
        <time>2017-04-16T08:26:33.000Z</time>
      </trkpt>
      <trkpt lat="43.54824" lon="2.97959">
        <ele>86</ele>
        <time>2017-04-16T08:26:35.000Z</time>
      </trkpt>
      <trkpt lat="43.5483" lon="2.97961">
        <ele>86.2</ele>
        <time>2017-04-16T08:26:37.000Z</time>
      </trkpt>
      <trkpt lat="43.54844" lon="2.97971">
        <ele>86.8</ele>
        <time>2017-04-16T08:26:43.000Z</time>
      </trkpt>
      <trkpt lat="43.54857" lon="2.97982">
        <ele>87.2</ele>
        <time>2017-04-16T08:26:49.000Z</time>
      </trkpt>
      <trkpt lat="43.54869" lon="2.97996">
        <ele>87.4</ele>
        <time>2017-04-16T08:26:55.000Z</time>
      </trkpt>
      <trkpt lat="43.54882" lon="2.98005">
        <ele>87.4</ele>
        <time>2017-04-16T08:26:59.000Z</time>
      </trkpt>
      <trkpt lat="43.54897" lon="2.98016">
        <ele>87.4</ele>
        <time>2017-04-16T08:27:05.000Z</time>
      </trkpt>
      <trkpt lat="43.54899" lon="2.98018">
        <ele>87.6</ele>
        <time>2017-04-16T08:27:06.000Z</time>
      </trkpt>
      <trkpt lat="43.54906" lon="2.98021">
        <ele>88</ele>
        <time>2017-04-16T08:27:08.000Z</time>
      </trkpt>
      <trkpt lat="43.54911" lon="2.98024">
        <ele>88.4</ele>
        <time>2017-04-16T08:27:10.000Z</time>
      </trkpt>
      <trkpt lat="43.54917" lon="2.98028">
        <ele>88.6</ele>
        <time>2017-04-16T08:27:12.000Z</time>
      </trkpt>
      <trkpt lat="43.54922" lon="2.98032">
        <ele>88.8</ele>
        <time>2017-04-16T08:27:14.000Z</time>
      </trkpt>
      <trkpt lat="43.54936" lon="2.98041">
        <ele>89.2</ele>
        <time>2017-04-16T08:27:19.000Z</time>
      </trkpt>
      <trkpt lat="43.5495" lon="2.9805">
        <ele>89.4</ele>
        <time>2017-04-16T08:27:24.000Z</time>
      </trkpt>
      <trkpt lat="43.54959" lon="2.98055">
        <ele>89.4</ele>
        <time>2017-04-16T08:27:27.000Z</time>
      </trkpt>
      <trkpt lat="43.54963" lon="2.98057">
        <ele>89.6</ele>
        <time>2017-04-16T08:27:28.000Z</time>
      </trkpt>
      <trkpt lat="43.54969" lon="2.9806">
        <ele>90.2</ele>
        <time>2017-04-16T08:27:30.000Z</time>
      </trkpt>
      <trkpt lat="43.54975" lon="2.98063">
        <ele>90.4</ele>
        <time>2017-04-16T08:27:32.000Z</time>
      </trkpt>
      <trkpt lat="43.5498" lon="2.98069">
        <ele>90.8</ele>
        <time>2017-04-16T08:27:34.000Z</time>
      </trkpt>
      <trkpt lat="43.54984" lon="2.98074">
        <ele>91</ele>
        <time>2017-04-16T08:27:36.000Z</time>
      </trkpt>
      <trkpt lat="43.55001" lon="2.98084">
        <ele>91.4</ele>
        <time>2017-04-16T08:27:42.000Z</time>
      </trkpt>
      <trkpt lat="43.55012" lon="2.98094">
        <ele>91.6</ele>
        <time>2017-04-16T08:27:46.000Z</time>
      </trkpt>
      <trkpt lat="43.55025" lon="2.98109">
        <ele>92</ele>
        <time>2017-04-16T08:27:51.000Z</time>
      </trkpt>
      <trkpt lat="43.5503" lon="2.98115">
        <ele>92.4</ele>
        <time>2017-04-16T08:27:53.000Z</time>
      </trkpt>
      <trkpt lat="43.55033" lon="2.9812">
        <ele>92.8</ele>
        <time>2017-04-16T08:27:55.000Z</time>
      </trkpt>
      <trkpt lat="43.55037" lon="2.98125">
        <ele>93.2</ele>
        <time>2017-04-16T08:27:57.000Z</time>
      </trkpt>
      <trkpt lat="43.5504" lon="2.98133">
        <ele>93.4</ele>
        <time>2017-04-16T08:27:59.000Z</time>
      </trkpt>
      <trkpt lat="43.55045" lon="2.98152">
        <ele>93.8</ele>
        <time>2017-04-16T08:28:04.000Z</time>
      </trkpt>
      <trkpt lat="43.55046" lon="2.98157">
        <ele>94</ele>
        <time>2017-04-16T08:28:05.000Z</time>
      </trkpt>
      <trkpt lat="43.55049" lon="2.98165">
        <ele>94.4</ele>
        <time>2017-04-16T08:28:07.000Z</time>
      </trkpt>
      <trkpt lat="43.55054" lon="2.98174">
        <ele>94.8</ele>
        <time>2017-04-16T08:28:09.000Z</time>
      </trkpt>
      <trkpt lat="43.55058" lon="2.98183">
        <ele>95</ele>
        <time>2017-04-16T08:28:11.000Z</time>
      </trkpt>
      <trkpt lat="43.5506" lon="2.98192">
        <ele>95.4</ele>
        <time>2017-04-16T08:28:13.000Z</time>
      </trkpt>
      <trkpt lat="43.55056" lon="2.98209">
        <ele>95.6</ele>
        <time>2017-04-16T08:28:17.000Z</time>
      </trkpt>
      <trkpt lat="43.55057" lon="2.98232">
        <ele>96.2</ele>
        <time>2017-04-16T08:28:22.000Z</time>
      </trkpt>
      <trkpt lat="43.55057" lon="2.98241">
        <ele>96.6</ele>
        <time>2017-04-16T08:28:24.000Z</time>
      </trkpt>
      <trkpt lat="43.55061" lon="2.98248">
        <ele>96.8</ele>
        <time>2017-04-16T08:28:26.000Z</time>
      </trkpt>
      <trkpt lat="43.55064" lon="2.98251">
        <ele>97</ele>
        <time>2017-04-16T08:28:27.000Z</time>
      </trkpt>
      <trkpt lat="43.55074" lon="2.98254">
        <ele>97.4</ele>
        <time>2017-04-16T08:28:30.000Z</time>
      </trkpt>
      <trkpt lat="43.55095" lon="2.98252">
        <ele>97.8</ele>
        <time>2017-04-16T08:28:36.000Z</time>
      </trkpt>
      <trkpt lat="43.55104" lon="2.98247">
        <ele>98.2</ele>
        <time>2017-04-16T08:28:39.000Z</time>
      </trkpt>
      <trkpt lat="43.55109" lon="2.98243">
        <ele>98.6</ele>
        <time>2017-04-16T08:28:41.000Z</time>
      </trkpt>
      <trkpt lat="43.55113" lon="2.98238">
        <ele>99</ele>
        <time>2017-04-16T08:28:43.000Z</time>
      </trkpt>
      <trkpt lat="43.55119" lon="2.98234">
        <ele>99.2</ele>
        <time>2017-04-16T08:28:45.000Z</time>
      </trkpt>
      <trkpt lat="43.55125" lon="2.9823">
        <ele>99.4</ele>
        <time>2017-04-16T08:28:47.000Z</time>
      </trkpt>
      <trkpt lat="43.55127" lon="2.98228">
        <ele>99.8</ele>
        <time>2017-04-16T08:28:48.000Z</time>
      </trkpt>
      <trkpt lat="43.55133" lon="2.98224">
        <ele>100.2</ele>
        <time>2017-04-16T08:28:50.000Z</time>
      </trkpt>
      <trkpt lat="43.55138" lon="2.9822">
        <ele>100.8</ele>
        <time>2017-04-16T08:28:52.000Z</time>
      </trkpt>
      <trkpt lat="43.55144" lon="2.98216">
        <ele>101</ele>
        <time>2017-04-16T08:28:54.000Z</time>
      </trkpt>
      <trkpt lat="43.55149" lon="2.98213">
        <ele>101.4</ele>
        <time>2017-04-16T08:28:56.000Z</time>
      </trkpt>
      <trkpt lat="43.55158" lon="2.98205">
        <ele>101.8</ele>
        <time>2017-04-16T08:28:59.000Z</time>
      </trkpt>
      <trkpt lat="43.55164" lon="2.98201">
        <ele>102.4</ele>
        <time>2017-04-16T08:29:01.000Z</time>
      </trkpt>
      <trkpt lat="43.55169" lon="2.98197">
        <ele>102.8</ele>
        <time>2017-04-16T08:29:03.000Z</time>
      </trkpt>
      <trkpt lat="43.55175" lon="2.98193">
        <ele>103.2</ele>
        <time>2017-04-16T08:29:05.000Z</time>
      </trkpt>
      <trkpt lat="43.55181" lon="2.98189">
        <ele>103.4</ele>
        <time>2017-04-16T08:29:07.000Z</time>
      </trkpt>
      <trkpt lat="43.552" lon="2.98182">
        <ele>104</ele>
        <time>2017-04-16T08:29:13.000Z</time>
      </trkpt>
      <trkpt lat="43.55214" lon="2.98178">
        <ele>104.2</ele>
        <time>2017-04-16T08:29:18.000Z</time>
      </trkpt>
      <trkpt lat="43.55222" lon="2.98175">
        <ele>104.6</ele>
        <time>2017-04-16T08:29:21.000Z</time>
      </trkpt>
      <trkpt lat="43.55228" lon="2.98173">
        <ele>105</ele>
        <time>2017-04-16T08:29:23.000Z</time>
      </trkpt>
      <trkpt lat="43.55235" lon="2.98171">
        <ele>105.2</ele>
        <time>2017-04-16T08:29:25.000Z</time>
      </trkpt>
      <trkpt lat="43.5524" lon="2.98168">
        <ele>105.6</ele>
        <time>2017-04-16T08:29:27.000Z</time>
      </trkpt>
      <trkpt lat="43.55245" lon="2.98163">
        <ele>105.8</ele>
        <time>2017-04-16T08:29:29.000Z</time>
      </trkpt>
      <trkpt lat="43.55255" lon="2.98152">
        <ele>106.4</ele>
        <time>2017-04-16T08:29:33.000Z</time>
      </trkpt>
      <trkpt lat="43.55259" lon="2.98147">
        <ele>106.8</ele>
        <time>2017-04-16T08:29:35.000Z</time>
      </trkpt>
      <trkpt lat="43.55263" lon="2.98142">
        <ele>107.2</ele>
        <time>2017-04-16T08:29:37.000Z</time>
      </trkpt>
      <trkpt lat="43.55267" lon="2.98136">
        <ele>107.6</ele>
        <time>2017-04-16T08:29:39.000Z</time>
      </trkpt>
      <trkpt lat="43.55272" lon="2.9813">
        <ele>107.8</ele>
        <time>2017-04-16T08:29:41.000Z</time>
      </trkpt>
      <trkpt lat="43.55285" lon="2.98114">
        <ele>108.2</ele>
        <time>2017-04-16T08:29:47.000Z</time>
      </trkpt>
      <trkpt lat="43.55297" lon="2.98111">
        <ele>108.6</ele>
        <time>2017-04-16T08:29:51.000Z</time>
      </trkpt>
      <trkpt lat="43.553" lon="2.98111">
        <ele>109</ele>
        <time>2017-04-16T08:29:52.000Z</time>
      </trkpt>
      <trkpt lat="43.55307" lon="2.98117">
        <ele>109.4</ele>
        <time>2017-04-16T08:29:55.000Z</time>
      </trkpt>
      <trkpt lat="43.55309" lon="2.98122">
        <ele>109.8</ele>
        <time>2017-04-16T08:29:57.000Z</time>
      </trkpt>
      <trkpt lat="43.55312" lon="2.98128">
        <ele>110</ele>
        <time>2017-04-16T08:29:59.000Z</time>
      </trkpt>
      <trkpt lat="43.55315" lon="2.98139">
        <ele>110.6</ele>
        <time>2017-04-16T08:30:04.000Z</time>
      </trkpt>
      <trkpt lat="43.55317" lon="2.98142">
        <ele>111</ele>
        <time>2017-04-16T08:30:06.000Z</time>
      </trkpt>
      <trkpt lat="43.55318" lon="2.98145">
        <ele>111.4</ele>
        <time>2017-04-16T08:30:08.000Z</time>
      </trkpt>
      <trkpt lat="43.5532" lon="2.98148">
        <ele>111.8</ele>
        <time>2017-04-16T08:30:10.000Z</time>
      </trkpt>
      <trkpt lat="43.55321" lon="2.98149">
        <ele>112.2</ele>
        <time>2017-04-16T08:30:11.000Z</time>
      </trkpt>
      <trkpt lat="43.55323" lon="2.98151">
        <ele>112.8</ele>
        <time>2017-04-16T08:30:13.000Z</time>
      </trkpt>
      <trkpt lat="43.55326" lon="2.98155">
        <ele>113.2</ele>
        <time>2017-04-16T08:30:15.000Z</time>
      </trkpt>
      <trkpt lat="43.55329" lon="2.98158">
        <ele>113.6</ele>
        <time>2017-04-16T08:30:17.000Z</time>
      </trkpt>
      <trkpt lat="43.5533" lon="2.98163">
        <ele>114</ele>
        <time>2017-04-16T08:30:19.000Z</time>
      </trkpt>
      <trkpt lat="43.55333" lon="2.98172">
        <ele>114.6</ele>
        <time>2017-04-16T08:30:23.000Z</time>
      </trkpt>
      <trkpt lat="43.55334" lon="2.98177">
        <ele>115.2</ele>
        <time>2017-04-16T08:30:25.000Z</time>
      </trkpt>
      <trkpt lat="43.55336" lon="2.98181">
        <ele>115.6</ele>
        <time>2017-04-16T08:30:27.000Z</time>
      </trkpt>
      <trkpt lat="43.55337" lon="2.98184">
        <ele>116</ele>
        <time>2017-04-16T08:30:29.000Z</time>
      </trkpt>
      <trkpt lat="43.55338" lon="2.98186">
        <ele>116.4</ele>
        <time>2017-04-16T08:30:31.000Z</time>
      </trkpt>
      <trkpt lat="43.55348" lon="2.98194">
        <ele>116.8</ele>
        <time>2017-04-16T08:30:36.000Z</time>
      </trkpt>
      <trkpt lat="43.5536" lon="2.98205">
        <ele>117.2</ele>
        <time>2017-04-16T08:30:42.000Z</time>
      </trkpt>
      <trkpt lat="43.55363" lon="2.9821">
        <ele>117.6</ele>
        <time>2017-04-16T08:30:45.000Z</time>
      </trkpt>
      <trkpt lat="43.55365" lon="2.98214">
        <ele>118</ele>
        <time>2017-04-16T08:30:47.000Z</time>
      </trkpt>
      <trkpt lat="43.55366" lon="2.98217">
        <ele>118.4</ele>
        <time>2017-04-16T08:30:49.000Z</time>
      </trkpt>
      <trkpt lat="43.55368" lon="2.98219">
        <ele>118.6</ele>
        <time>2017-04-16T08:30:51.000Z</time>
      </trkpt>
      <trkpt lat="43.55371" lon="2.98223">
        <ele>118.8</ele>
        <time>2017-04-16T08:30:53.000Z</time>
      </trkpt>
      <trkpt lat="43.55374" lon="2.98228">
        <ele>119.2</ele>
        <time>2017-04-16T08:30:55.000Z</time>
      </trkpt>
      <trkpt lat="43.55375" lon="2.98233">
        <ele>119.8</ele>
        <time>2017-04-16T08:30:57.000Z</time>
      </trkpt>
      <trkpt lat="43.55377" lon="2.98237">
        <ele>120.2</ele>
        <time>2017-04-16T08:30:59.000Z</time>
      </trkpt>
      <trkpt lat="43.55378" lon="2.98241">
        <ele>120.4</ele>
        <time>2017-04-16T08:31:01.000Z</time>
      </trkpt>
      <trkpt lat="43.5538" lon="2.98244">
        <ele>120.8</ele>
        <time>2017-04-16T08:31:03.000Z</time>
      </trkpt>
      <trkpt lat="43.55384" lon="2.9825">
        <ele>121.2</ele>
        <time>2017-04-16T08:31:08.000Z</time>
      </trkpt>
      <trkpt lat="43.55385" lon="2.98252">
        <ele>121.6</ele>
        <time>2017-04-16T08:31:09.000Z</time>
      </trkpt>
      <trkpt lat="43.55386" lon="2.98255">
        <ele>122</ele>
        <time>2017-04-16T08:31:11.000Z</time>
      </trkpt>
      <trkpt lat="43.55387" lon="2.98259">
        <ele>122.4</ele>
        <time>2017-04-16T08:31:13.000Z</time>
      </trkpt>
      <trkpt lat="43.55389" lon="2.98263">
        <ele>122.6</ele>
        <time>2017-04-16T08:31:15.000Z</time>
      </trkpt>
      <trkpt lat="43.55391" lon="2.98267">
        <ele>123</ele>
        <time>2017-04-16T08:31:17.000Z</time>
      </trkpt>
      <trkpt lat="43.55392" lon="2.98268">
        <ele>123</ele>
        <time>2017-04-16T08:31:18.000Z</time>
      </trkpt>
      <trkpt lat="43.55393" lon="2.98269">
        <ele>123.4</ele>
        <time>2017-04-16T08:31:19.000Z</time>
      </trkpt>
      <trkpt lat="43.55394" lon="2.98271">
        <ele>123.6</ele>
        <time>2017-04-16T08:31:20.000Z</time>
      </trkpt>
      <trkpt lat="43.55395" lon="2.98271">
        <ele>123.8</ele>
        <time>2017-04-16T08:31:21.000Z</time>
      </trkpt>
      <trkpt lat="43.55397" lon="2.98273">
        <ele>124.4</ele>
        <time>2017-04-16T08:31:23.000Z</time>
      </trkpt>
      <trkpt lat="43.55399" lon="2.98276">
        <ele>124.6</ele>
        <time>2017-04-16T08:31:25.000Z</time>
      </trkpt>
      <trkpt lat="43.55402" lon="2.98279">
        <ele>125.2</ele>
        <time>2017-04-16T08:31:27.000Z</time>
      </trkpt>
      <trkpt lat="43.55404" lon="2.98282">
        <ele>125.8</ele>
        <time>2017-04-16T08:31:29.000Z</time>
      </trkpt>
      <trkpt lat="43.55405" lon="2.98284">
        <ele>126.2</ele>
        <time>2017-04-16T08:31:31.000Z</time>
      </trkpt>
      <trkpt lat="43.55406" lon="2.98285">
        <ele>126.6</ele>
        <time>2017-04-16T08:31:33.000Z</time>
      </trkpt>
      <trkpt lat="43.55406" lon="2.98286">
        <ele>127</ele>
        <time>2017-04-16T08:31:35.000Z</time>
      </trkpt>
      <trkpt lat="43.55405" lon="2.98285">
        <ele>127.2</ele>
        <time>2017-04-16T08:31:36.000Z</time>
      </trkpt>
      <trkpt lat="43.55406" lon="2.98283">
        <ele>129.6</ele>
        <time>2017-04-16T08:32:03.000Z</time>
      </trkpt>
      <trkpt lat="43.55406" lon="2.98283">
        <ele>129.6</ele>
        <time>2017-04-16T08:32:04.000Z</time>
      </trkpt>
      <trkpt lat="43.55406" lon="2.98283">
        <ele>129.8</ele>
        <time>2017-04-16T08:32:05.000Z</time>
      </trkpt>
      <trkpt lat="43.55407" lon="2.98283">
        <ele>129.8</ele>
        <time>2017-04-16T08:32:06.000Z</time>
      </trkpt>
      <trkpt lat="43.55408" lon="2.98283">
        <ele>130</ele>
        <time>2017-04-16T08:32:08.000Z</time>
      </trkpt>
      <trkpt lat="43.55409" lon="2.98284">
        <ele>130</ele>
        <time>2017-04-16T08:32:10.000Z</time>
      </trkpt>
      <trkpt lat="43.5541" lon="2.98285">
        <ele>130</ele>
        <time>2017-04-16T08:32:12.000Z</time>
      </trkpt>
      <trkpt lat="43.55413" lon="2.9829">
        <ele>130.2</ele>
        <time>2017-04-16T08:32:18.000Z</time>
      </trkpt>
      <trkpt lat="43.55412" lon="2.98294">
        <ele>130.6</ele>
        <time>2017-04-16T08:32:25.000Z</time>
      </trkpt>
      <trkpt lat="43.55413" lon="2.98296">
        <ele>130.8</ele>
        <time>2017-04-16T08:32:26.000Z</time>
      </trkpt>
      <trkpt lat="43.55414" lon="2.98299">
        <ele>131</ele>
        <time>2017-04-16T08:32:28.000Z</time>
      </trkpt>
      <trkpt lat="43.55416" lon="2.98302">
        <ele>131.2</ele>
        <time>2017-04-16T08:32:30.000Z</time>
      </trkpt>
      <trkpt lat="43.55418" lon="2.98304">
        <ele>131.6</ele>
        <time>2017-04-16T08:32:32.000Z</time>
      </trkpt>
      <trkpt lat="43.5542" lon="2.98306">
        <ele>131.6</ele>
        <time>2017-04-16T08:32:34.000Z</time>
      </trkpt>
      <trkpt lat="43.55428" lon="2.9832">
        <ele>132.4</ele>
        <time>2017-04-16T08:32:44.000Z</time>
      </trkpt>
      <trkpt lat="43.55428" lon="2.98322">
        <ele>132.8</ele>
        <time>2017-04-16T08:32:46.000Z</time>
      </trkpt>
      <trkpt lat="43.55429" lon="2.98324">
        <ele>133</ele>
        <time>2017-04-16T08:32:48.000Z</time>
      </trkpt>
      <trkpt lat="43.55429" lon="2.98324">
        <ele>133.4</ele>
        <time>2017-04-16T08:32:50.000Z</time>
      </trkpt>
      <trkpt lat="43.5543" lon="2.98324">
        <ele>133.6</ele>
        <time>2017-04-16T08:32:52.000Z</time>
      </trkpt>
      <trkpt lat="43.5543" lon="2.98324">
        <ele>133.8</ele>
        <time>2017-04-16T08:32:54.000Z</time>
      </trkpt>
      <trkpt lat="43.55432" lon="2.98322">
        <ele>134</ele>
        <time>2017-04-16T08:32:58.000Z</time>
      </trkpt>
      <trkpt lat="43.55434" lon="2.98321">
        <ele>134.2</ele>
        <time>2017-04-16T08:33:02.000Z</time>
      </trkpt>
      <trkpt lat="43.55435" lon="2.98323">
        <ele>134.2</ele>
        <time>2017-04-16T08:33:06.000Z</time>
      </trkpt>
      <trkpt lat="43.55436" lon="2.98323">
        <ele>134.2</ele>
        <time>2017-04-16T08:33:07.000Z</time>
      </trkpt>
      <trkpt lat="43.55443" lon="2.9833">
        <ele>134.6</ele>
        <time>2017-04-16T08:33:14.000Z</time>
      </trkpt>
      <trkpt lat="43.55444" lon="2.9833">
        <ele>134.8</ele>
        <time>2017-04-16T08:33:15.000Z</time>
      </trkpt>
      <trkpt lat="43.55448" lon="2.98334">
        <ele>135.4</ele>
        <time>2017-04-16T08:33:18.000Z</time>
      </trkpt>
      <trkpt lat="43.5545" lon="2.98338">
        <ele>135.6</ele>
        <time>2017-04-16T08:33:20.000Z</time>
      </trkpt>
      <trkpt lat="43.5545" lon="2.9834">
        <ele>135.6</ele>
        <time>2017-04-16T08:33:21.000Z</time>
      </trkpt>
      <trkpt lat="43.55452" lon="2.98355">
        <ele>136.4</ele>
        <time>2017-04-16T08:33:29.000Z</time>
      </trkpt>
      <trkpt lat="43.55453" lon="2.98357">
        <ele>137</ele>
        <time>2017-04-16T08:33:31.000Z</time>
      </trkpt>
      <trkpt lat="43.55454" lon="2.98358">
        <ele>137.2</ele>
        <time>2017-04-16T08:33:33.000Z</time>
      </trkpt>
      <trkpt lat="43.55456" lon="2.98358">
        <ele>137.4</ele>
        <time>2017-04-16T08:33:34.000Z</time>
      </trkpt>
      <trkpt lat="43.55457" lon="2.98358">
        <ele>137.6</ele>
        <time>2017-04-16T08:33:35.000Z</time>
      </trkpt>
      <trkpt lat="43.5546" lon="2.98359">
        <ele>137.8</ele>
        <time>2017-04-16T08:33:37.000Z</time>
      </trkpt>
      <trkpt lat="43.55461" lon="2.98361">
        <ele>138</ele>
        <time>2017-04-16T08:33:38.000Z</time>
      </trkpt>
      <trkpt lat="43.55462" lon="2.98364">
        <ele>138.4</ele>
        <time>2017-04-16T08:33:40.000Z</time>
      </trkpt>
      <trkpt lat="43.55463" lon="2.98367">
        <ele>138.8</ele>
        <time>2017-04-16T08:33:42.000Z</time>
      </trkpt>
      <trkpt lat="43.55464" lon="2.9837">
        <ele>139.2</ele>
        <time>2017-04-16T08:33:44.000Z</time>
      </trkpt>
      <trkpt lat="43.55465" lon="2.98373">
        <ele>139.6</ele>
        <time>2017-04-16T08:33:46.000Z</time>
      </trkpt>
      <trkpt lat="43.55467" lon="2.98375">
        <ele>139.8</ele>
        <time>2017-04-16T08:33:48.000Z</time>
      </trkpt>
      <trkpt lat="43.55472" lon="2.98383">
        <ele>140.6</ele>
        <time>2017-04-16T08:33:55.000Z</time>
      </trkpt>
      <trkpt lat="43.55474" lon="2.98385">
        <ele>141.2</ele>
        <time>2017-04-16T08:33:57.000Z</time>
      </trkpt>
      <trkpt lat="43.55475" lon="2.98386">
        <ele>141.4</ele>
        <time>2017-04-16T08:33:58.000Z</time>
      </trkpt>
      <trkpt lat="43.55475" lon="2.98387">
        <ele>141.6</ele>
        <time>2017-04-16T08:33:59.000Z</time>
      </trkpt>
      <trkpt lat="43.55477" lon="2.9839">
        <ele>141.8</ele>
        <time>2017-04-16T08:34:01.000Z</time>
      </trkpt>
      <trkpt lat="43.5548" lon="2.98392">
        <ele>142</ele>
        <time>2017-04-16T08:34:03.000Z</time>
      </trkpt>
      <trkpt lat="43.55481" lon="2.98393">
        <ele>142.2</ele>
        <time>2017-04-16T08:34:04.000Z</time>
      </trkpt>
      <trkpt lat="43.55486" lon="2.98397">
        <ele>142.6</ele>
        <time>2017-04-16T08:34:08.000Z</time>
      </trkpt>
      <trkpt lat="43.55488" lon="2.98398">
        <ele>143.2</ele>
        <time>2017-04-16T08:34:10.000Z</time>
      </trkpt>
      <trkpt lat="43.5549" lon="2.98399">
        <ele>143.6</ele>
        <time>2017-04-16T08:34:12.000Z</time>
      </trkpt>
      <trkpt lat="43.55492" lon="2.984">
        <ele>144</ele>
        <time>2017-04-16T08:34:14.000Z</time>
      </trkpt>
      <trkpt lat="43.55493" lon="2.984">
        <ele>144.2</ele>
        <time>2017-04-16T08:34:16.000Z</time>
      </trkpt>
      <trkpt lat="43.55497" lon="2.98405">
        <ele>145</ele>
        <time>2017-04-16T08:34:22.000Z</time>
      </trkpt>
      <trkpt lat="43.55498" lon="2.98407">
        <ele>145.4</ele>
        <time>2017-04-16T08:34:24.000Z</time>
      </trkpt>
      <trkpt lat="43.55499" lon="2.98408">
        <ele>145.8</ele>
        <time>2017-04-16T08:34:26.000Z</time>
      </trkpt>
      <trkpt lat="43.555" lon="2.9841">
        <ele>146</ele>
        <time>2017-04-16T08:34:28.000Z</time>
      </trkpt>
      <trkpt lat="43.55501" lon="2.98413">
        <ele>146.4</ele>
        <time>2017-04-16T08:34:30.000Z</time>
      </trkpt>
      <trkpt lat="43.55507" lon="2.98419">
        <ele>147</ele>
        <time>2017-04-16T08:34:36.000Z</time>
      </trkpt>
      <trkpt lat="43.55509" lon="2.9842">
        <ele>147.4</ele>
        <time>2017-04-16T08:34:38.000Z</time>
      </trkpt>
      <trkpt lat="43.55511" lon="2.98421">
        <ele>147.8</ele>
        <time>2017-04-16T08:34:40.000Z</time>
      </trkpt>
      <trkpt lat="43.55512" lon="2.98424">
        <ele>148.2</ele>
        <time>2017-04-16T08:34:42.000Z</time>
      </trkpt>
      <trkpt lat="43.55513" lon="2.98427">
        <ele>148.4</ele>
        <time>2017-04-16T08:34:44.000Z</time>
      </trkpt>
      <trkpt lat="43.55513" lon="2.98429">
        <ele>148.6</ele>
        <time>2017-04-16T08:34:46.000Z</time>
      </trkpt>
      <trkpt lat="43.55512" lon="2.9843">
        <ele>149</ele>
        <time>2017-04-16T08:34:48.000Z</time>
      </trkpt>
      <trkpt lat="43.55511" lon="2.9843">
        <ele>149.2</ele>
        <time>2017-04-16T08:34:49.000Z</time>
      </trkpt>
      <trkpt lat="43.55509" lon="2.98428">
        <ele>149.8</ele>
        <time>2017-04-16T08:34:52.000Z</time>
      </trkpt>
      <trkpt lat="43.55506" lon="2.98426">
        <ele>150.2</ele>
        <time>2017-04-16T08:34:54.000Z</time>
      </trkpt>
      <trkpt lat="43.55505" lon="2.98424">
        <ele>150.2</ele>
        <time>2017-04-16T08:34:55.000Z</time>
      </trkpt>
      <trkpt lat="43.55504" lon="2.98423">
        <ele>150.4</ele>
        <time>2017-04-16T08:34:56.000Z</time>
      </trkpt>
      <trkpt lat="43.555" lon="2.9842">
        <ele>150.8</ele>
        <time>2017-04-16T08:35:01.000Z</time>
      </trkpt>
      <trkpt lat="43.55497" lon="2.98418">
        <ele>151.2</ele>
        <time>2017-04-16T08:35:04.000Z</time>
      </trkpt>
      <trkpt lat="43.55496" lon="2.98418">
        <ele>151.4</ele>
        <time>2017-04-16T08:35:05.000Z</time>
      </trkpt>
      <trkpt lat="43.55493" lon="2.98417">
        <ele>152</ele>
        <time>2017-04-16T08:35:08.000Z</time>
      </trkpt>
      <trkpt lat="43.55493" lon="2.98416">
        <ele>152.4</ele>
        <time>2017-04-16T08:35:10.000Z</time>
      </trkpt>
      <trkpt lat="43.55492" lon="2.98414">
        <ele>152.8</ele>
        <time>2017-04-16T08:35:13.000Z</time>
      </trkpt>
      <trkpt lat="43.55489" lon="2.98412">
        <ele>152.8</ele>
        <time>2017-04-16T08:35:15.000Z</time>
      </trkpt>
      <trkpt lat="43.55477" lon="2.9841">
        <ele>153.6</ele>
        <time>2017-04-16T08:35:23.000Z</time>
      </trkpt>
      <trkpt lat="43.55474" lon="2.98409">
        <ele>154</ele>
        <time>2017-04-16T08:35:25.000Z</time>
      </trkpt>
      <trkpt lat="43.55472" lon="2.98409">
        <ele>154.2</ele>
        <time>2017-04-16T08:35:26.000Z</time>
      </trkpt>
      <trkpt lat="43.55471" lon="2.98409">
        <ele>154.2</ele>
        <time>2017-04-16T08:35:27.000Z</time>
      </trkpt>
      <trkpt lat="43.5547" lon="2.98408">
        <ele>154.6</ele>
        <time>2017-04-16T08:35:29.000Z</time>
      </trkpt>
      <trkpt lat="43.55467" lon="2.98407">
        <ele>154.8</ele>
        <time>2017-04-16T08:35:31.000Z</time>
      </trkpt>
      <trkpt lat="43.5546" lon="2.98404">
        <ele>155.4</ele>
        <time>2017-04-16T08:35:37.000Z</time>
      </trkpt>
      <trkpt lat="43.55458" lon="2.98403">
        <ele>155.8</ele>
        <time>2017-04-16T08:35:39.000Z</time>
      </trkpt>
      <trkpt lat="43.55456" lon="2.98402">
        <ele>156.2</ele>
        <time>2017-04-16T08:35:41.000Z</time>
      </trkpt>
      <trkpt lat="43.55454" lon="2.98401">
        <ele>156.4</ele>
        <time>2017-04-16T08:35:43.000Z</time>
      </trkpt>
      <trkpt lat="43.55452" lon="2.984">
        <ele>156.8</ele>
        <time>2017-04-16T08:35:45.000Z</time>
      </trkpt>
      <trkpt lat="43.55447" lon="2.98399">
        <ele>157.2</ele>
        <time>2017-04-16T08:35:49.000Z</time>
      </trkpt>
      <trkpt lat="43.55445" lon="2.98398">
        <ele>157.8</ele>
        <time>2017-04-16T08:35:51.000Z</time>
      </trkpt>
      <trkpt lat="43.55444" lon="2.98397">
        <ele>158</ele>
        <time>2017-04-16T08:35:53.000Z</time>
      </trkpt>
      <trkpt lat="43.55442" lon="2.98397">
        <ele>158.2</ele>
        <time>2017-04-16T08:35:54.000Z</time>
      </trkpt>
      <trkpt lat="43.55441" lon="2.98397">
        <ele>158.4</ele>
        <time>2017-04-16T08:35:55.000Z</time>
      </trkpt>
      <trkpt lat="43.55439" lon="2.98396">
        <ele>158.6</ele>
        <time>2017-04-16T08:35:57.000Z</time>
      </trkpt>
      <trkpt lat="43.5543" lon="2.98388">
        <ele>159.2</ele>
        <time>2017-04-16T08:36:05.000Z</time>
      </trkpt>
      <trkpt lat="43.55429" lon="2.98389">
        <ele>159.6</ele>
        <time>2017-04-16T08:36:06.000Z</time>
      </trkpt>
      <trkpt lat="43.55428" lon="2.98389">
        <ele>159.8</ele>
        <time>2017-04-16T08:36:07.000Z</time>
      </trkpt>
      <trkpt lat="43.55427" lon="2.98388">
        <ele>160.2</ele>
        <time>2017-04-16T08:36:09.000Z</time>
      </trkpt>
      <trkpt lat="43.55423" lon="2.98387">
        <ele>160.6</ele>
        <time>2017-04-16T08:36:12.000Z</time>
      </trkpt>
      <trkpt lat="43.5542" lon="2.98385">
        <ele>160.8</ele>
        <time>2017-04-16T08:36:14.000Z</time>
      </trkpt>
      <trkpt lat="43.55418" lon="2.98383">
        <ele>161.2</ele>
        <time>2017-04-16T08:36:16.000Z</time>
      </trkpt>
      <trkpt lat="43.55416" lon="2.9838">
        <ele>161.8</ele>
        <time>2017-04-16T08:36:18.000Z</time>
      </trkpt>
      <trkpt lat="43.55414" lon="2.98378">
        <ele>162.2</ele>
        <time>2017-04-16T08:36:20.000Z</time>
      </trkpt>
      <trkpt lat="43.55411" lon="2.98377">
        <ele>162.4</ele>
        <time>2017-04-16T08:36:22.000Z</time>
      </trkpt>
      <trkpt lat="43.55409" lon="2.98376">
        <ele>162.8</ele>
        <time>2017-04-16T08:36:24.000Z</time>
      </trkpt>
      <trkpt lat="43.55404" lon="2.98373">
        <ele>163.2</ele>
        <time>2017-04-16T08:36:29.000Z</time>
      </trkpt>
      <trkpt lat="43.55401" lon="2.9837">
        <ele>163.6</ele>
        <time>2017-04-16T08:36:33.000Z</time>
      </trkpt>
      <trkpt lat="43.55399" lon="2.98371">
        <ele>164.2</ele>
        <time>2017-04-16T08:36:35.000Z</time>
      </trkpt>
      <trkpt lat="43.55397" lon="2.98373">
        <ele>164.4</ele>
        <time>2017-04-16T08:36:37.000Z</time>
      </trkpt>
      <trkpt lat="43.55395" lon="2.98375">
        <ele>164.8</ele>
        <time>2017-04-16T08:36:39.000Z</time>
      </trkpt>
      <trkpt lat="43.55393" lon="2.98379">
        <ele>165</ele>
        <time>2017-04-16T08:36:41.000Z</time>
      </trkpt>
      <trkpt lat="43.55389" lon="2.98384">
        <ele>165.4</ele>
        <time>2017-04-16T08:36:45.000Z</time>
      </trkpt>
      <trkpt lat="43.55391" lon="2.98386">
        <ele>166.2</ele>
        <time>2017-04-16T08:36:48.000Z</time>
      </trkpt>
      <trkpt lat="43.55394" lon="2.98387">
        <ele>166.6</ele>
        <time>2017-04-16T08:36:50.000Z</time>
      </trkpt>
      <trkpt lat="43.55397" lon="2.98388">
        <ele>167</ele>
        <time>2017-04-16T08:36:52.000Z</time>
      </trkpt>
      <trkpt lat="43.554" lon="2.98389">
        <ele>167.2</ele>
        <time>2017-04-16T08:36:54.000Z</time>
      </trkpt>
      <trkpt lat="43.55404" lon="2.98392">
        <ele>167.8</ele>
        <time>2017-04-16T08:36:58.000Z</time>
      </trkpt>
      <trkpt lat="43.55406" lon="2.98395">
        <ele>168.4</ele>
        <time>2017-04-16T08:37:00.000Z</time>
      </trkpt>
      <trkpt lat="43.55407" lon="2.98396">
        <ele>168.6</ele>
        <time>2017-04-16T08:37:01.000Z</time>
      </trkpt>
      <trkpt lat="43.5541" lon="2.98399">
        <ele>169.2</ele>
        <time>2017-04-16T08:37:04.000Z</time>
      </trkpt>
      <trkpt lat="43.55412" lon="2.98401">
        <ele>169.4</ele>
        <time>2017-04-16T08:37:06.000Z</time>
      </trkpt>
      <trkpt lat="43.55414" lon="2.98403">
        <ele>169.6</ele>
        <time>2017-04-16T08:37:08.000Z</time>
      </trkpt>
      <trkpt lat="43.55415" lon="2.98404">
        <ele>169.8</ele>
        <time>2017-04-16T08:37:10.000Z</time>
      </trkpt>
      <trkpt lat="43.55417" lon="2.98407">
        <ele>170.2</ele>
        <time>2017-04-16T08:37:12.000Z</time>
      </trkpt>
      <trkpt lat="43.55418" lon="2.98408">
        <ele>170.6</ele>
        <time>2017-04-16T08:37:14.000Z</time>
      </trkpt>
      <trkpt lat="43.55419" lon="2.98411">
        <ele>171</ele>
        <time>2017-04-16T08:37:16.000Z</time>
      </trkpt>
      <trkpt lat="43.55419" lon="2.98412">
        <ele>171.2</ele>
        <time>2017-04-16T08:37:17.000Z</time>
      </trkpt>
      <trkpt lat="43.55421" lon="2.98415">
        <ele>171.6</ele>
        <time>2017-04-16T08:37:20.000Z</time>
      </trkpt>
      <trkpt lat="43.55423" lon="2.98419">
        <ele>172.4</ele>
        <time>2017-04-16T08:37:26.000Z</time>
      </trkpt>
      <trkpt lat="43.55424" lon="2.9842">
        <ele>172.8</ele>
        <time>2017-04-16T08:37:28.000Z</time>
      </trkpt>
      <trkpt lat="43.55426" lon="2.98422">
        <ele>173.2</ele>
        <time>2017-04-16T08:37:30.000Z</time>
      </trkpt>
      <trkpt lat="43.55429" lon="2.98424">
        <ele>173.6</ele>
        <time>2017-04-16T08:37:32.000Z</time>
      </trkpt>
      <trkpt lat="43.55431" lon="2.98426">
        <ele>173.8</ele>
        <time>2017-04-16T08:37:34.000Z</time>
      </trkpt>
      <trkpt lat="43.55434" lon="2.98431">
        <ele>174.4</ele>
        <time>2017-04-16T08:37:38.000Z</time>
      </trkpt>
      <trkpt lat="43.55434" lon="2.98434">
        <ele>175</ele>
        <time>2017-04-16T08:37:40.000Z</time>
      </trkpt>
      <trkpt lat="43.55435" lon="2.98435">
        <ele>175.4</ele>
        <time>2017-04-16T08:37:42.000Z</time>
      </trkpt>
      <trkpt lat="43.55437" lon="2.98437">
        <ele>175.8</ele>
        <time>2017-04-16T08:37:44.000Z</time>
      </trkpt>
      <trkpt lat="43.55438" lon="2.9844">
        <ele>176</ele>
        <time>2017-04-16T08:37:46.000Z</time>
      </trkpt>
      <trkpt lat="43.5544" lon="2.98446">
        <ele>176.6</ele>
        <time>2017-04-16T08:37:50.000Z</time>
      </trkpt>
      <trkpt lat="43.55442" lon="2.98449">
        <ele>177.2</ele>
        <time>2017-04-16T08:37:52.000Z</time>
      </trkpt>
      <trkpt lat="43.55443" lon="2.98451">
        <ele>177.6</ele>
        <time>2017-04-16T08:37:54.000Z</time>
      </trkpt>
      <trkpt lat="43.55445" lon="2.98452">
        <ele>177.8</ele>
        <time>2017-04-16T08:37:56.000Z</time>
      </trkpt>
      <trkpt lat="43.55447" lon="2.98454">
        <ele>178.2</ele>
        <time>2017-04-16T08:37:58.000Z</time>
      </trkpt>
      <trkpt lat="43.55451" lon="2.98459">
        <ele>178.8</ele>
        <time>2017-04-16T08:38:02.000Z</time>
      </trkpt>
      <trkpt lat="43.55454" lon="2.98461">
        <ele>179.2</ele>
        <time>2017-04-16T08:38:04.000Z</time>
      </trkpt>
      <trkpt lat="43.55456" lon="2.98464">
        <ele>179.6</ele>
        <time>2017-04-16T08:38:06.000Z</time>
      </trkpt>
      <trkpt lat="43.55459" lon="2.98465">
        <ele>180</ele>
        <time>2017-04-16T08:38:08.000Z</time>
      </trkpt>
      <trkpt lat="43.55461" lon="2.98467">
        <ele>180.2</ele>
        <time>2017-04-16T08:38:10.000Z</time>
      </trkpt>
      <trkpt lat="43.55469" lon="2.98471">
        <ele>181</ele>
        <time>2017-04-16T08:38:17.000Z</time>
      </trkpt>
      <trkpt lat="43.5547" lon="2.98473">
        <ele>181.6</ele>
        <time>2017-04-16T08:38:19.000Z</time>
      </trkpt>
      <trkpt lat="43.55472" lon="2.98475">
        <ele>182</ele>
        <time>2017-04-16T08:38:21.000Z</time>
      </trkpt>
      <trkpt lat="43.55474" lon="2.98478">
        <ele>182.2</ele>
        <time>2017-04-16T08:38:23.000Z</time>
      </trkpt>
      <trkpt lat="43.55475" lon="2.9848">
        <ele>182.4</ele>
        <time>2017-04-16T08:38:25.000Z</time>
      </trkpt>
      <trkpt lat="43.55481" lon="2.98487">
        <ele>183</ele>
        <time>2017-04-16T08:38:32.000Z</time>
      </trkpt>
      <trkpt lat="43.55482" lon="2.98487">
        <ele>183.4</ele>
        <time>2017-04-16T08:38:33.000Z</time>
      </trkpt>
      <trkpt lat="43.55483" lon="2.98488">
        <ele>183.8</ele>
        <time>2017-04-16T08:38:35.000Z</time>
      </trkpt>
      <trkpt lat="43.55485" lon="2.98488">
        <ele>184.2</ele>
        <time>2017-04-16T08:38:37.000Z</time>
      </trkpt>
      <trkpt lat="43.55487" lon="2.9849">
        <ele>184.4</ele>
        <time>2017-04-16T08:38:39.000Z</time>
      </trkpt>
      <trkpt lat="43.55489" lon="2.98491">
        <ele>184.8</ele>
        <time>2017-04-16T08:38:41.000Z</time>
      </trkpt>
      <trkpt lat="43.55495" lon="2.98495">
        <ele>185.6</ele>
        <time>2017-04-16T08:38:49.000Z</time>
      </trkpt>
      <trkpt lat="43.55497" lon="2.98497">
        <ele>186</ele>
        <time>2017-04-16T08:38:51.000Z</time>
      </trkpt>
      <trkpt lat="43.55499" lon="2.98499">
        <ele>186.4</ele>
        <time>2017-04-16T08:38:53.000Z</time>
      </trkpt>
      <trkpt lat="43.55501" lon="2.98502">
        <ele>186.6</ele>
        <time>2017-04-16T08:38:55.000Z</time>
      </trkpt>
      <trkpt lat="43.55503" lon="2.98504">
        <ele>186.8</ele>
        <time>2017-04-16T08:38:57.000Z</time>
      </trkpt>
      <trkpt lat="43.55509" lon="2.98509">
        <ele>187.6</ele>
        <time>2017-04-16T08:39:03.000Z</time>
      </trkpt>
      <trkpt lat="43.55511" lon="2.98511">
        <ele>188</ele>
        <time>2017-04-16T08:39:05.000Z</time>
      </trkpt>
      <trkpt lat="43.55511" lon="2.98512">
        <ele>188.2</ele>
        <time>2017-04-16T08:39:06.000Z</time>
      </trkpt>
      <trkpt lat="43.55512" lon="2.98513">
        <ele>188.4</ele>
        <time>2017-04-16T08:39:07.000Z</time>
      </trkpt>
      <trkpt lat="43.55512" lon="2.98516">
        <ele>188.6</ele>
        <time>2017-04-16T08:39:09.000Z</time>
      </trkpt>
      <trkpt lat="43.55514" lon="2.98517">
        <ele>189</ele>
        <time>2017-04-16T08:39:11.000Z</time>
      </trkpt>
      <trkpt lat="43.55522" lon="2.98525">
        <ele>189.8</ele>
        <time>2017-04-16T08:39:20.000Z</time>
      </trkpt>
      <trkpt lat="43.55525" lon="2.98527">
        <ele>190.2</ele>
        <time>2017-04-16T08:39:22.000Z</time>
      </trkpt>
      <trkpt lat="43.55526" lon="2.9853">
        <ele>190.6</ele>
        <time>2017-04-16T08:39:24.000Z</time>
      </trkpt>
      <trkpt lat="43.55527" lon="2.98532">
        <ele>190.8</ele>
        <time>2017-04-16T08:39:26.000Z</time>
      </trkpt>
      <trkpt lat="43.55528" lon="2.98534">
        <ele>191</ele>
        <time>2017-04-16T08:39:28.000Z</time>
      </trkpt>
      <trkpt lat="43.55529" lon="2.98536">
        <ele>191.4</ele>
        <time>2017-04-16T08:39:31.000Z</time>
      </trkpt>
      <trkpt lat="43.55531" lon="2.9854">
        <ele>192</ele>
        <time>2017-04-16T08:39:37.000Z</time>
      </trkpt>
      <trkpt lat="43.55532" lon="2.98541">
        <ele>192.2</ele>
        <time>2017-04-16T08:39:38.000Z</time>
      </trkpt>
      <trkpt lat="43.55533" lon="2.98542">
        <ele>192.4</ele>
        <time>2017-04-16T08:39:39.000Z</time>
      </trkpt>
      <trkpt lat="43.55535" lon="2.98543">
        <ele>192.8</ele>
        <time>2017-04-16T08:39:41.000Z</time>
      </trkpt>
      <trkpt lat="43.55537" lon="2.98546">
        <ele>193</ele>
        <time>2017-04-16T08:39:43.000Z</time>
      </trkpt>
      <trkpt lat="43.55538" lon="2.98548">
        <ele>193.2</ele>
        <time>2017-04-16T08:39:45.000Z</time>
      </trkpt>
      <trkpt lat="43.55542" lon="2.98552">
        <ele>193.8</ele>
        <time>2017-04-16T08:39:49.000Z</time>
      </trkpt>
      <trkpt lat="43.55545" lon="2.98555">
        <ele>194.2</ele>
        <time>2017-04-16T08:39:51.000Z</time>
      </trkpt>
      <trkpt lat="43.55548" lon="2.98558">
        <ele>194.6</ele>
        <time>2017-04-16T08:39:53.000Z</time>
      </trkpt>
      <trkpt lat="43.55549" lon="2.98559">
        <ele>195</ele>
        <time>2017-04-16T08:39:55.000Z</time>
      </trkpt>
      <trkpt lat="43.55551" lon="2.98561">
        <ele>195.2</ele>
        <time>2017-04-16T08:39:57.000Z</time>
      </trkpt>
      <trkpt lat="43.55562" lon="2.98567">
        <ele>196</ele>
        <time>2017-04-16T08:40:05.000Z</time>
      </trkpt>
      <trkpt lat="43.55564" lon="2.98569">
        <ele>196.6</ele>
        <time>2017-04-16T08:40:07.000Z</time>
      </trkpt>
      <trkpt lat="43.55566" lon="2.9857">
        <ele>197</ele>
        <time>2017-04-16T08:40:09.000Z</time>
      </trkpt>
      <trkpt lat="43.55566" lon="2.9857">
        <ele>197</ele>
        <time>2017-04-16T08:40:10.000Z</time>
      </trkpt>
      <trkpt lat="43.55568" lon="2.98573">
        <ele>197.4</ele>
        <time>2017-04-16T08:40:13.000Z</time>
      </trkpt>
      <trkpt lat="43.55569" lon="2.98574">
        <ele>197.6</ele>
        <time>2017-04-16T08:40:14.000Z</time>
      </trkpt>
      <trkpt lat="43.55573" lon="2.98577">
        <ele>198.2</ele>
        <time>2017-04-16T08:40:18.000Z</time>
      </trkpt>
      <trkpt lat="43.55575" lon="2.98578">
        <ele>198.6</ele>
        <time>2017-04-16T08:40:20.000Z</time>
      </trkpt>
      <trkpt lat="43.55577" lon="2.9858">
        <ele>199</ele>
        <time>2017-04-16T08:40:22.000Z</time>
      </trkpt>
      <trkpt lat="43.55579" lon="2.98582">
        <ele>199.4</ele>
        <time>2017-04-16T08:40:24.000Z</time>
      </trkpt>
      <trkpt lat="43.55582" lon="2.98585">
        <ele>199.6</ele>
        <time>2017-04-16T08:40:26.000Z</time>
      </trkpt>
      <trkpt lat="43.55585" lon="2.98588">
        <ele>199.8</ele>
        <time>2017-04-16T08:40:29.000Z</time>
      </trkpt>
      <trkpt lat="43.5559" lon="2.98593">
        <ele>200.4</ele>
        <time>2017-04-16T08:40:34.000Z</time>
      </trkpt>
      <trkpt lat="43.55592" lon="2.98594">
        <ele>200.6</ele>
        <time>2017-04-16T08:40:35.000Z</time>
      </trkpt>
      <trkpt lat="43.55593" lon="2.98595">
        <ele>200.8</ele>
        <time>2017-04-16T08:40:36.000Z</time>
      </trkpt>
      <trkpt lat="43.55594" lon="2.98597">
        <ele>201.2</ele>
        <time>2017-04-16T08:40:38.000Z</time>
      </trkpt>
      <trkpt lat="43.55595" lon="2.98598">
        <ele>201.4</ele>
        <time>2017-04-16T08:40:40.000Z</time>
      </trkpt>
      <trkpt lat="43.55596" lon="2.98599">
        <ele>201.6</ele>
        <time>2017-04-16T08:40:41.000Z</time>
      </trkpt>
      <trkpt lat="43.55598" lon="2.98604">
        <ele>202.4</ele>
        <time>2017-04-16T08:40:47.000Z</time>
      </trkpt>
      <trkpt lat="43.55598" lon="2.98606">
        <ele>202.8</ele>
        <time>2017-04-16T08:40:49.000Z</time>
      </trkpt>
      <trkpt lat="43.55597" lon="2.98608">
        <ele>203.2</ele>
        <time>2017-04-16T08:40:51.000Z</time>
      </trkpt>
      <trkpt lat="43.55595" lon="2.98609">
        <ele>203.6</ele>
        <time>2017-04-16T08:40:53.000Z</time>
      </trkpt>
      <trkpt lat="43.55592" lon="2.9861">
        <ele>203.8</ele>
        <time>2017-04-16T08:40:55.000Z</time>
      </trkpt>
      <trkpt lat="43.55584" lon="2.98608">
        <ele>204.6</ele>
        <time>2017-04-16T08:41:04.000Z</time>
      </trkpt>
      <trkpt lat="43.55582" lon="2.98607">
        <ele>204.8</ele>
        <time>2017-04-16T08:41:06.000Z</time>
      </trkpt>
      <trkpt lat="43.55578" lon="2.98605">
        <ele>205.2</ele>
        <time>2017-04-16T08:41:08.000Z</time>
      </trkpt>
      <trkpt lat="43.55576" lon="2.98603">
        <ele>205.6</ele>
        <time>2017-04-16T08:41:10.000Z</time>
      </trkpt>
      <trkpt lat="43.55573" lon="2.98601">
        <ele>205.8</ele>
        <time>2017-04-16T08:41:12.000Z</time>
      </trkpt>
      <trkpt lat="43.5557" lon="2.98599">
        <ele>206</ele>
        <time>2017-04-16T08:41:14.000Z</time>
      </trkpt>
      <trkpt lat="43.55558" lon="2.98592">
        <ele>206.8</ele>
        <time>2017-04-16T08:41:21.000Z</time>
      </trkpt>
      <trkpt lat="43.55555" lon="2.98591">
        <ele>207.2</ele>
        <time>2017-04-16T08:41:23.000Z</time>
      </trkpt>
      <trkpt lat="43.55552" lon="2.9859">
        <ele>207.6</ele>
        <time>2017-04-16T08:41:25.000Z</time>
      </trkpt>
      <trkpt lat="43.55549" lon="2.98589">
        <ele>207.8</ele>
        <time>2017-04-16T08:41:27.000Z</time>
      </trkpt>
      <trkpt lat="43.55545" lon="2.98589">
        <ele>208</ele>
        <time>2017-04-16T08:41:29.000Z</time>
      </trkpt>
      <trkpt lat="43.55538" lon="2.98587">
        <ele>208.4</ele>
        <time>2017-04-16T08:41:32.000Z</time>
      </trkpt>
      <trkpt lat="43.55534" lon="2.98587">
        <ele>209</ele>
        <time>2017-04-16T08:41:34.000Z</time>
      </trkpt>
      <trkpt lat="43.5553" lon="2.98587">
        <ele>209.4</ele>
        <time>2017-04-16T08:41:36.000Z</time>
      </trkpt>
      <trkpt lat="43.55525" lon="2.98587">
        <ele>209.6</ele>
        <time>2017-04-16T08:41:38.000Z</time>
      </trkpt>
      <trkpt lat="43.55522" lon="2.98586">
        <ele>210</ele>
        <time>2017-04-16T08:41:40.000Z</time>
      </trkpt>
      <trkpt lat="43.55512" lon="2.98585">
        <ele>210.4</ele>
        <time>2017-04-16T08:41:46.000Z</time>
      </trkpt>
      <trkpt lat="43.5551" lon="2.98584">
        <ele>210.8</ele>
        <time>2017-04-16T08:41:47.000Z</time>
      </trkpt>
      <trkpt lat="43.55506" lon="2.98583">
        <ele>211.2</ele>
        <time>2017-04-16T08:41:49.000Z</time>
      </trkpt>
      <trkpt lat="43.55503" lon="2.98583">
        <ele>211.4</ele>
        <time>2017-04-16T08:41:50.000Z</time>
      </trkpt>
      <trkpt lat="43.55501" lon="2.98583">
        <ele>211.6</ele>
        <time>2017-04-16T08:41:51.000Z</time>
      </trkpt>
      <trkpt lat="43.55496" lon="2.98581">
        <ele>211.8</ele>
        <time>2017-04-16T08:41:53.000Z</time>
      </trkpt>
      <trkpt lat="43.55493" lon="2.98579">
        <ele>212</ele>
        <time>2017-04-16T08:41:55.000Z</time>
      </trkpt>
      <trkpt lat="43.55489" lon="2.98576">
        <ele>212.6</ele>
        <time>2017-04-16T08:41:58.000Z</time>
      </trkpt>
      <trkpt lat="43.55486" lon="2.98573">
        <ele>213.2</ele>
        <time>2017-04-16T08:42:00.000Z</time>
      </trkpt>
      <trkpt lat="43.55482" lon="2.9857">
        <ele>213.6</ele>
        <time>2017-04-16T08:42:02.000Z</time>
      </trkpt>
      <trkpt lat="43.55477" lon="2.98567">
        <ele>213.8</ele>
        <time>2017-04-16T08:42:04.000Z</time>
      </trkpt>
      <trkpt lat="43.55472" lon="2.98564">
        <ele>214.2</ele>
        <time>2017-04-16T08:42:06.000Z</time>
      </trkpt>
      <trkpt lat="43.5547" lon="2.98563">
        <ele>214.4</ele>
        <time>2017-04-16T08:42:07.000Z</time>
      </trkpt>
      <trkpt lat="43.55466" lon="2.98561">
        <ele>215</ele>
        <time>2017-04-16T08:42:09.000Z</time>
      </trkpt>
      <trkpt lat="43.55463" lon="2.98561">
        <ele>215.4</ele>
        <time>2017-04-16T08:42:11.000Z</time>
      </trkpt>
      <trkpt lat="43.55459" lon="2.98559">
        <ele>215.8</ele>
        <time>2017-04-16T08:42:13.000Z</time>
      </trkpt>
      <trkpt lat="43.55456" lon="2.98559">
        <ele>216.2</ele>
        <time>2017-04-16T08:42:15.000Z</time>
      </trkpt>
      <trkpt lat="43.55451" lon="2.9856">
        <ele>216.6</ele>
        <time>2017-04-16T08:42:18.000Z</time>
      </trkpt>
      <trkpt lat="43.55447" lon="2.9856">
        <ele>217.2</ele>
        <time>2017-04-16T08:42:20.000Z</time>
      </trkpt>
      <trkpt lat="43.55445" lon="2.98561">
        <ele>217.6</ele>
        <time>2017-04-16T08:42:22.000Z</time>
      </trkpt>
      <trkpt lat="43.55441" lon="2.98562">
        <ele>218</ele>
        <time>2017-04-16T08:42:24.000Z</time>
      </trkpt>
      <trkpt lat="43.55439" lon="2.98562">
        <ele>218.2</ele>
        <time>2017-04-16T08:42:25.000Z</time>
      </trkpt>
      <trkpt lat="43.5543" lon="2.98565">
        <ele>219</ele>
        <time>2017-04-16T08:42:30.000Z</time>
      </trkpt>
      <trkpt lat="43.55426" lon="2.98566">
        <ele>219.4</ele>
        <time>2017-04-16T08:42:32.000Z</time>
      </trkpt>
      <trkpt lat="43.55425" lon="2.98566">
        <ele>219.6</ele>
        <time>2017-04-16T08:42:33.000Z</time>
      </trkpt>
      <trkpt lat="43.55419" lon="2.98568">
        <ele>220.2</ele>
        <time>2017-04-16T08:42:36.000Z</time>
      </trkpt>
      <trkpt lat="43.55416" lon="2.9857">
        <ele>220.4</ele>
        <time>2017-04-16T08:42:38.000Z</time>
      </trkpt>
      <trkpt lat="43.55416" lon="2.98572">
        <ele>220.6</ele>
        <time>2017-04-16T08:42:39.000Z</time>
      </trkpt>
      <trkpt lat="43.55416" lon="2.98578">
        <ele>221</ele>
        <time>2017-04-16T08:42:42.000Z</time>
      </trkpt>
      <trkpt lat="43.55418" lon="2.9858">
        <ele>221.6</ele>
        <time>2017-04-16T08:42:44.000Z</time>
      </trkpt>
      <trkpt lat="43.55421" lon="2.98582">
        <ele>222</ele>
        <time>2017-04-16T08:42:46.000Z</time>
      </trkpt>
      <trkpt lat="43.55423" lon="2.98582">
        <ele>222.2</ele>
        <time>2017-04-16T08:42:47.000Z</time>
      </trkpt>
      <trkpt lat="43.55429" lon="2.98583">
        <ele>222.6</ele>
        <time>2017-04-16T08:42:50.000Z</time>
      </trkpt>
      <trkpt lat="43.55433" lon="2.98584">
        <ele>223</ele>
        <time>2017-04-16T08:42:52.000Z</time>
      </trkpt>
      <trkpt lat="43.55436" lon="2.98585">
        <ele>223.6</ele>
        <time>2017-04-16T08:42:54.000Z</time>
      </trkpt>
      <trkpt lat="43.55439" lon="2.98586">
        <ele>224</ele>
        <time>2017-04-16T08:42:56.000Z</time>
      </trkpt>
      <trkpt lat="43.55442" lon="2.98588">
        <ele>224.6</ele>
        <time>2017-04-16T08:42:58.000Z</time>
      </trkpt>
      <trkpt lat="43.55445" lon="2.9859">
        <ele>225.4</ele>
        <time>2017-04-16T08:43:00.000Z</time>
      </trkpt>
      <trkpt lat="43.55448" lon="2.98591">
        <ele>226</ele>
        <time>2017-04-16T08:43:02.000Z</time>
      </trkpt>
      <trkpt lat="43.5545" lon="2.98593">
        <ele>226.4</ele>
        <time>2017-04-16T08:43:04.000Z</time>
      </trkpt>
      <trkpt lat="43.55451" lon="2.98594">
        <ele>226.6</ele>
        <time>2017-04-16T08:43:05.000Z</time>
      </trkpt>
      <trkpt lat="43.55452" lon="2.98596">
        <ele>227.2</ele>
        <time>2017-04-16T08:43:07.000Z</time>
      </trkpt>
      <trkpt lat="43.55452" lon="2.98599">
        <ele>227.8</ele>
        <time>2017-04-16T08:43:09.000Z</time>
      </trkpt>
      <trkpt lat="43.55453" lon="2.98601">
        <ele>228</ele>
        <time>2017-04-16T08:43:10.000Z</time>
      </trkpt>
      <trkpt lat="43.55453" lon="2.98603">
        <ele>228.2</ele>
        <time>2017-04-16T08:43:11.000Z</time>
      </trkpt>
      <trkpt lat="43.55453" lon="2.98604">
        <ele>228.4</ele>
        <time>2017-04-16T08:43:12.000Z</time>
      </trkpt>
      <trkpt lat="43.5545" lon="2.98608">
        <ele>229</ele>
        <time>2017-04-16T08:43:15.000Z</time>
      </trkpt>
      <trkpt lat="43.55449" lon="2.98608">
        <ele>229.2</ele>
        <time>2017-04-16T08:43:16.000Z</time>
      </trkpt>
      <trkpt lat="43.55444" lon="2.98608">
        <ele>229.6</ele>
        <time>2017-04-16T08:43:19.000Z</time>
      </trkpt>
      <trkpt lat="43.55441" lon="2.98608">
        <ele>230.2</ele>
        <time>2017-04-16T08:43:21.000Z</time>
      </trkpt>
      <trkpt lat="43.55437" lon="2.98607">
        <ele>230.6</ele>
        <time>2017-04-16T08:43:23.000Z</time>
      </trkpt>
      <trkpt lat="43.55433" lon="2.98607">
        <ele>231</ele>
        <time>2017-04-16T08:43:25.000Z</time>
      </trkpt>
      <trkpt lat="43.55429" lon="2.98606">
        <ele>231.4</ele>
        <time>2017-04-16T08:43:27.000Z</time>
      </trkpt>
      <trkpt lat="43.55419" lon="2.98608">
        <ele>232</ele>
        <time>2017-04-16T08:43:32.000Z</time>
      </trkpt>
      <trkpt lat="43.55415" lon="2.98609">
        <ele>232.4</ele>
        <time>2017-04-16T08:43:34.000Z</time>
      </trkpt>
      <trkpt lat="43.55411" lon="2.9861">
        <ele>232.8</ele>
        <time>2017-04-16T08:43:36.000Z</time>
      </trkpt>
      <trkpt lat="43.55409" lon="2.98611">
        <ele>233.2</ele>
        <time>2017-04-16T08:43:38.000Z</time>
      </trkpt>
      <trkpt lat="43.55406" lon="2.98611">
        <ele>233.4</ele>
        <time>2017-04-16T08:43:40.000Z</time>
      </trkpt>
      <trkpt lat="43.55405" lon="2.98611">
        <ele>233.8</ele>
        <time>2017-04-16T08:43:41.000Z</time>
      </trkpt>
      <trkpt lat="43.55402" lon="2.98611">
        <ele>234.4</ele>
        <time>2017-04-16T08:43:43.000Z</time>
      </trkpt>
      <trkpt lat="43.55398" lon="2.98613">
        <ele>234.8</ele>
        <time>2017-04-16T08:43:45.000Z</time>
      </trkpt>
      <trkpt lat="43.55393" lon="2.98615">
        <ele>235.2</ele>
        <time>2017-04-16T08:43:47.000Z</time>
      </trkpt>
      <trkpt lat="43.55389" lon="2.98616">
        <ele>235.4</ele>
        <time>2017-04-16T08:43:49.000Z</time>
      </trkpt>
      <trkpt lat="43.55384" lon="2.98617">
        <ele>236</ele>
        <time>2017-04-16T08:43:52.000Z</time>
      </trkpt>
      <trkpt lat="43.5538" lon="2.98618">
        <ele>236.6</ele>
        <time>2017-04-16T08:43:54.000Z</time>
      </trkpt>
      <trkpt lat="43.55377" lon="2.9862">
        <ele>237</ele>
        <time>2017-04-16T08:43:56.000Z</time>
      </trkpt>
      <trkpt lat="43.55373" lon="2.98621">
        <ele>237.4</ele>
        <time>2017-04-16T08:43:58.000Z</time>
      </trkpt>
      <trkpt lat="43.55369" lon="2.98621">
        <ele>237.6</ele>
        <time>2017-04-16T08:44:00.000Z</time>
      </trkpt>
      <trkpt lat="43.55364" lon="2.98622">
        <ele>238.2</ele>
        <time>2017-04-16T08:44:03.000Z</time>
      </trkpt>
      <trkpt lat="43.55361" lon="2.98623">
        <ele>238.8</ele>
        <time>2017-04-16T08:44:05.000Z</time>
      </trkpt>
      <trkpt lat="43.55358" lon="2.98624">
        <ele>239.2</ele>
        <time>2017-04-16T08:44:07.000Z</time>
      </trkpt>
      <trkpt lat="43.55354" lon="2.98625">
        <ele>239.6</ele>
        <time>2017-04-16T08:44:09.000Z</time>
      </trkpt>
      <trkpt lat="43.55353" lon="2.98626">
        <ele>239.6</ele>
        <time>2017-04-16T08:44:10.000Z</time>
      </trkpt>
      <trkpt lat="43.55351" lon="2.98627">
        <ele>239.8</ele>
        <time>2017-04-16T08:44:11.000Z</time>
      </trkpt>
      <trkpt lat="43.55349" lon="2.98626">
        <ele>240.2</ele>
        <time>2017-04-16T08:44:12.000Z</time>
      </trkpt>
      <trkpt lat="43.55346" lon="2.98628">
        <ele>240.8</ele>
        <time>2017-04-16T08:44:14.000Z</time>
      </trkpt>
      <trkpt lat="43.55343" lon="2.98629">
        <ele>241.2</ele>
        <time>2017-04-16T08:44:16.000Z</time>
      </trkpt>
      <trkpt lat="43.5534" lon="2.98631">
        <ele>241.6</ele>
        <time>2017-04-16T08:44:18.000Z</time>
      </trkpt>
      <trkpt lat="43.55337" lon="2.98631">
        <ele>242</ele>
        <time>2017-04-16T08:44:20.000Z</time>
      </trkpt>
      <trkpt lat="43.55328" lon="2.98634">
        <ele>242.6</ele>
        <time>2017-04-16T08:44:25.000Z</time>
      </trkpt>
      <trkpt lat="43.55324" lon="2.98635">
        <ele>243.2</ele>
        <time>2017-04-16T08:44:27.000Z</time>
      </trkpt>
      <trkpt lat="43.55321" lon="2.98636">
        <ele>243.6</ele>
        <time>2017-04-16T08:44:29.000Z</time>
      </trkpt>
      <trkpt lat="43.55317" lon="2.98637">
        <ele>244</ele>
        <time>2017-04-16T08:44:31.000Z</time>
      </trkpt>
      <trkpt lat="43.55316" lon="2.98638">
        <ele>244.2</ele>
        <time>2017-04-16T08:44:32.000Z</time>
      </trkpt>
      <trkpt lat="43.55315" lon="2.9864">
        <ele>244.6</ele>
        <time>2017-04-16T08:44:33.000Z</time>
      </trkpt>
      <trkpt lat="43.5531" lon="2.98644">
        <ele>245.4</ele>
        <time>2017-04-16T08:44:36.000Z</time>
      </trkpt>
      <trkpt lat="43.55308" lon="2.98646">
        <ele>245.8</ele>
        <time>2017-04-16T08:44:38.000Z</time>
      </trkpt>
      <trkpt lat="43.55307" lon="2.98648">
        <ele>246.2</ele>
        <time>2017-04-16T08:44:40.000Z</time>
      </trkpt>
      <trkpt lat="43.55306" lon="2.98649">
        <ele>246.6</ele>
        <time>2017-04-16T08:44:41.000Z</time>
      </trkpt>
      <trkpt lat="43.55301" lon="2.98651">
        <ele>247.4</ele>
        <time>2017-04-16T08:44:44.000Z</time>
      </trkpt>
      <trkpt lat="43.55298" lon="2.98652">
        <ele>247.8</ele>
        <time>2017-04-16T08:44:46.000Z</time>
      </trkpt>
      <trkpt lat="43.55295" lon="2.98654">
        <ele>248.2</ele>
        <time>2017-04-16T08:44:48.000Z</time>
      </trkpt>
      <trkpt lat="43.55293" lon="2.98654">
        <ele>248.6</ele>
        <time>2017-04-16T08:44:49.000Z</time>
      </trkpt>
      <trkpt lat="43.5529" lon="2.98656">
        <ele>249.2</ele>
        <time>2017-04-16T08:44:51.000Z</time>
      </trkpt>
      <trkpt lat="43.55286" lon="2.98657">
        <ele>249.8</ele>
        <time>2017-04-16T08:44:53.000Z</time>
      </trkpt>
      <trkpt lat="43.55283" lon="2.98657">
        <ele>250.2</ele>
        <time>2017-04-16T08:44:55.000Z</time>
      </trkpt>
      <trkpt lat="43.55279" lon="2.98658">
        <ele>250.4</ele>
        <time>2017-04-16T08:44:57.000Z</time>
      </trkpt>
      <trkpt lat="43.55278" lon="2.9866">
        <ele>250.8</ele>
        <time>2017-04-16T08:44:58.000Z</time>
      </trkpt>
      <trkpt lat="43.55274" lon="2.98661">
        <ele>251.4</ele>
        <time>2017-04-16T08:45:00.000Z</time>
      </trkpt>
      <trkpt lat="43.55271" lon="2.98663">
        <ele>252</ele>
        <time>2017-04-16T08:45:02.000Z</time>
      </trkpt>
      <trkpt lat="43.55267" lon="2.98663">
        <ele>252.4</ele>
        <time>2017-04-16T08:45:04.000Z</time>
      </trkpt>
      <trkpt lat="43.55266" lon="2.98663">
        <ele>252.6</ele>
        <time>2017-04-16T08:45:05.000Z</time>
      </trkpt>
      <trkpt lat="43.55265" lon="2.98663">
        <ele>252.6</ele>
        <time>2017-04-16T08:45:06.000Z</time>
      </trkpt>
      <trkpt lat="43.55262" lon="2.98663">
        <ele>253.2</ele>
        <time>2017-04-16T08:45:08.000Z</time>
      </trkpt>
      <trkpt lat="43.55259" lon="2.98663">
        <ele>253.8</ele>
        <time>2017-04-16T08:45:10.000Z</time>
      </trkpt>
      <trkpt lat="43.55256" lon="2.98664">
        <ele>254.2</ele>
        <time>2017-04-16T08:45:12.000Z</time>
      </trkpt>
      <trkpt lat="43.55253" lon="2.98665">
        <ele>254.6</ele>
        <time>2017-04-16T08:45:14.000Z</time>
      </trkpt>
      <trkpt lat="43.5525" lon="2.98665">
        <ele>254.8</ele>
        <time>2017-04-16T08:45:16.000Z</time>
      </trkpt>
      <trkpt lat="43.55246" lon="2.98666">
        <ele>255.4</ele>
        <time>2017-04-16T08:45:18.000Z</time>
      </trkpt>
      <trkpt lat="43.55243" lon="2.98666">
        <ele>255.8</ele>
        <time>2017-04-16T08:45:20.000Z</time>
      </trkpt>
      <trkpt lat="43.5524" lon="2.98666">
        <ele>256.4</ele>
        <time>2017-04-16T08:45:22.000Z</time>
      </trkpt>
      <trkpt lat="43.55238" lon="2.98666">
        <ele>256.6</ele>
        <time>2017-04-16T08:45:24.000Z</time>
      </trkpt>
      <trkpt lat="43.55235" lon="2.98666">
        <ele>257.2</ele>
        <time>2017-04-16T08:45:26.000Z</time>
      </trkpt>
      <trkpt lat="43.55232" lon="2.98666">
        <ele>257.8</ele>
        <time>2017-04-16T08:45:28.000Z</time>
      </trkpt>
      <trkpt lat="43.55229" lon="2.98665">
        <ele>258.2</ele>
        <time>2017-04-16T08:45:30.000Z</time>
      </trkpt>
      <trkpt lat="43.55226" lon="2.98664">
        <ele>258.6</ele>
        <time>2017-04-16T08:45:32.000Z</time>
      </trkpt>
      <trkpt lat="43.55225" lon="2.98664">
        <ele>259</ele>
        <time>2017-04-16T08:45:33.000Z</time>
      </trkpt>
      <trkpt lat="43.55223" lon="2.98663">
        <ele>259.6</ele>
        <time>2017-04-16T08:45:35.000Z</time>
      </trkpt>
      <trkpt lat="43.55223" lon="2.98664">
        <ele>260</ele>
        <time>2017-04-16T08:45:36.000Z</time>
      </trkpt>
      <trkpt lat="43.5522" lon="2.98665">
        <ele>260.6</ele>
        <time>2017-04-16T08:45:39.000Z</time>
      </trkpt>
      <trkpt lat="43.55218" lon="2.98666">
        <ele>261</ele>
        <time>2017-04-16T08:45:41.000Z</time>
      </trkpt>
      <trkpt lat="43.55216" lon="2.98668">
        <ele>261.2</ele>
        <time>2017-04-16T08:45:43.000Z</time>
      </trkpt>
      <trkpt lat="43.55214" lon="2.98669">
        <ele>261.6</ele>
        <time>2017-04-16T08:45:45.000Z</time>
      </trkpt>
      <trkpt lat="43.55213" lon="2.98671">
        <ele>262</ele>
        <time>2017-04-16T08:45:46.000Z</time>
      </trkpt>
      <trkpt lat="43.55212" lon="2.98672">
        <ele>262.2</ele>
        <time>2017-04-16T08:45:47.000Z</time>
      </trkpt>
      <trkpt lat="43.55209" lon="2.98674">
        <ele>262.6</ele>
        <time>2017-04-16T08:45:49.000Z</time>
      </trkpt>
      <trkpt lat="43.55208" lon="2.98675">
        <ele>262.8</ele>
        <time>2017-04-16T08:45:50.000Z</time>
      </trkpt>
      <trkpt lat="43.55207" lon="2.98676">
        <ele>263</ele>
        <time>2017-04-16T08:45:51.000Z</time>
      </trkpt>
      <trkpt lat="43.55205" lon="2.98678">
        <ele>263.4</ele>
        <time>2017-04-16T08:45:53.000Z</time>
      </trkpt>
      <trkpt lat="43.55204" lon="2.98679">
        <ele>263.4</ele>
        <time>2017-04-16T08:45:54.000Z</time>
      </trkpt>
      <trkpt lat="43.55203" lon="2.98679">
        <ele>263.8</ele>
        <time>2017-04-16T08:45:55.000Z</time>
      </trkpt>
      <trkpt lat="43.552" lon="2.9868">
        <ele>264.4</ele>
        <time>2017-04-16T08:45:57.000Z</time>
      </trkpt>
      <trkpt lat="43.55198" lon="2.98681">
        <ele>264.8</ele>
        <time>2017-04-16T08:45:59.000Z</time>
      </trkpt>
      <trkpt lat="43.55196" lon="2.98683">
        <ele>265.2</ele>
        <time>2017-04-16T08:46:01.000Z</time>
      </trkpt>
      <trkpt lat="43.55194" lon="2.98683">
        <ele>265.4</ele>
        <time>2017-04-16T08:46:03.000Z</time>
      </trkpt>
      <trkpt lat="43.55193" lon="2.98684">
        <ele>265.8</ele>
        <time>2017-04-16T08:46:04.000Z</time>
      </trkpt>
      <trkpt lat="43.55192" lon="2.98684">
        <ele>266</ele>
        <time>2017-04-16T08:46:05.000Z</time>
      </trkpt>
      <trkpt lat="43.5519" lon="2.98687">
        <ele>266.8</ele>
        <time>2017-04-16T08:46:08.000Z</time>
      </trkpt>
      <trkpt lat="43.55188" lon="2.98691">
        <ele>267.2</ele>
        <time>2017-04-16T08:46:10.000Z</time>
      </trkpt>
      <trkpt lat="43.55188" lon="2.98692">
        <ele>267.4</ele>
        <time>2017-04-16T08:46:11.000Z</time>
      </trkpt>
      <trkpt lat="43.55186" lon="2.98694">
        <ele>267.4</ele>
        <time>2017-04-16T08:46:12.000Z</time>
      </trkpt>
      <trkpt lat="43.55182" lon="2.98699">
        <ele>268</ele>
        <time>2017-04-16T08:46:15.000Z</time>
      </trkpt>
      <trkpt lat="43.55179" lon="2.98701">
        <ele>268.6</ele>
        <time>2017-04-16T08:46:17.000Z</time>
      </trkpt>
      <trkpt lat="43.55177" lon="2.98703">
        <ele>269</ele>
        <time>2017-04-16T08:46:19.000Z</time>
      </trkpt>
      <trkpt lat="43.55175" lon="2.98705">
        <ele>269.4</ele>
        <time>2017-04-16T08:46:21.000Z</time>
      </trkpt>
      <trkpt lat="43.55174" lon="2.98708">
        <ele>269.6</ele>
        <time>2017-04-16T08:46:23.000Z</time>
      </trkpt>
      <trkpt lat="43.55174" lon="2.98711">
        <ele>270</ele>
        <time>2017-04-16T08:46:25.000Z</time>
      </trkpt>
      <trkpt lat="43.55175" lon="2.98712">
        <ele>270.2</ele>
        <time>2017-04-16T08:46:27.000Z</time>
      </trkpt>
      <trkpt lat="43.55176" lon="2.98713">
        <ele>270.8</ele>
        <time>2017-04-16T08:46:29.000Z</time>
      </trkpt>
      <trkpt lat="43.55179" lon="2.98711">
        <ele>271.2</ele>
        <time>2017-04-16T08:46:31.000Z</time>
      </trkpt>
      <trkpt lat="43.55182" lon="2.98708">
        <ele>271.6</ele>
        <time>2017-04-16T08:46:33.000Z</time>
      </trkpt>
      <trkpt lat="43.55187" lon="2.98705">
        <ele>271.8</ele>
        <time>2017-04-16T08:46:35.000Z</time>
      </trkpt>
      <trkpt lat="43.552" lon="2.987">
        <ele>272.6</ele>
        <time>2017-04-16T08:46:41.000Z</time>
      </trkpt>
      <trkpt lat="43.55203" lon="2.98699">
        <ele>273</ele>
        <time>2017-04-16T08:46:43.000Z</time>
      </trkpt>
      <trkpt lat="43.55204" lon="2.98699">
        <ele>273.2</ele>
        <time>2017-04-16T08:46:44.000Z</time>
      </trkpt>
      <trkpt lat="43.55206" lon="2.98699">
        <ele>273.4</ele>
        <time>2017-04-16T08:46:45.000Z</time>
      </trkpt>
      <trkpt lat="43.55208" lon="2.98699">
        <ele>273.8</ele>
        <time>2017-04-16T08:46:47.000Z</time>
      </trkpt>
      <trkpt lat="43.55209" lon="2.987">
        <ele>274</ele>
        <time>2017-04-16T08:46:48.000Z</time>
      </trkpt>
      <trkpt lat="43.55211" lon="2.987">
        <ele>274</ele>
        <time>2017-04-16T08:46:49.000Z</time>
      </trkpt>
      <trkpt lat="43.55228" lon="2.98705">
        <ele>274.6</ele>
        <time>2017-04-16T08:46:55.000Z</time>
      </trkpt>
      <trkpt lat="43.5523" lon="2.98706">
        <ele>274.8</ele>
        <time>2017-04-16T08:46:56.000Z</time>
      </trkpt>
      <trkpt lat="43.55233" lon="2.98707">
        <ele>275.4</ele>
        <time>2017-04-16T08:46:58.000Z</time>
      </trkpt>
      <trkpt lat="43.55237" lon="2.98709">
        <ele>275.6</ele>
        <time>2017-04-16T08:47:00.000Z</time>
      </trkpt>
      <trkpt lat="43.55238" lon="2.98709">
        <ele>275.8</ele>
        <time>2017-04-16T08:47:01.000Z</time>
      </trkpt>
      <trkpt lat="43.55241" lon="2.98709">
        <ele>276.2</ele>
        <time>2017-04-16T08:47:03.000Z</time>
      </trkpt>
      <trkpt lat="43.55248" lon="2.98713">
        <ele>277</ele>
        <time>2017-04-16T08:47:08.000Z</time>
      </trkpt>
      <trkpt lat="43.55249" lon="2.98714">
        <ele>277.4</ele>
        <time>2017-04-16T08:47:09.000Z</time>
      </trkpt>
      <trkpt lat="43.55251" lon="2.98714">
        <ele>277.8</ele>
        <time>2017-04-16T08:47:11.000Z</time>
      </trkpt>
      <trkpt lat="43.55254" lon="2.98715">
        <ele>278.2</ele>
        <time>2017-04-16T08:47:13.000Z</time>
      </trkpt>
      <trkpt lat="43.55257" lon="2.98717">
        <ele>278.4</ele>
        <time>2017-04-16T08:47:15.000Z</time>
      </trkpt>
      <trkpt lat="43.5526" lon="2.9872">
        <ele>278.6</ele>
        <time>2017-04-16T08:47:17.000Z</time>
      </trkpt>
      <trkpt lat="43.55265" lon="2.98725">
        <ele>279.2</ele>
        <time>2017-04-16T08:47:20.000Z</time>
      </trkpt>
      <trkpt lat="43.5527" lon="2.98728">
        <ele>279.6</ele>
        <time>2017-04-16T08:47:22.000Z</time>
      </trkpt>
      <trkpt lat="43.55273" lon="2.98729">
        <ele>280</ele>
        <time>2017-04-16T08:47:23.000Z</time>
      </trkpt>
      <trkpt lat="43.55275" lon="2.9873">
        <ele>280.2</ele>
        <time>2017-04-16T08:47:24.000Z</time>
      </trkpt>
      <trkpt lat="43.5528" lon="2.98732">
        <ele>280.4</ele>
        <time>2017-04-16T08:47:26.000Z</time>
      </trkpt>
      <trkpt lat="43.55283" lon="2.98733">
        <ele>280.8</ele>
        <time>2017-04-16T08:47:28.000Z</time>
      </trkpt>
      <trkpt lat="43.55291" lon="2.98735">
        <ele>281.6</ele>
        <time>2017-04-16T08:47:34.000Z</time>
      </trkpt>
      <trkpt lat="43.55294" lon="2.98735">
        <ele>282</ele>
        <time>2017-04-16T08:47:36.000Z</time>
      </trkpt>
      <trkpt lat="43.55296" lon="2.98736">
        <ele>282.4</ele>
        <time>2017-04-16T08:47:38.000Z</time>
      </trkpt>
      <trkpt lat="43.55298" lon="2.98735">
        <ele>282.8</ele>
        <time>2017-04-16T08:47:40.000Z</time>
      </trkpt>
      <trkpt lat="43.553" lon="2.98735">
        <ele>283</ele>
        <time>2017-04-16T08:47:42.000Z</time>
      </trkpt>
      <trkpt lat="43.55301" lon="2.98735">
        <ele>283.4</ele>
        <time>2017-04-16T08:47:43.000Z</time>
      </trkpt>
      <trkpt lat="43.55303" lon="2.98736">
        <ele>284</ele>
        <time>2017-04-16T08:47:45.000Z</time>
      </trkpt>
      <trkpt lat="43.55305" lon="2.98737">
        <ele>284.4</ele>
        <time>2017-04-16T08:47:47.000Z</time>
      </trkpt>
      <trkpt lat="43.55307" lon="2.98739">
        <ele>284.8</ele>
        <time>2017-04-16T08:47:49.000Z</time>
      </trkpt>
      <trkpt lat="43.55309" lon="2.98739">
        <ele>285</ele>
        <time>2017-04-16T08:47:51.000Z</time>
      </trkpt>
      <trkpt lat="43.5532" lon="2.9874">
        <ele>285.8</ele>
        <time>2017-04-16T08:47:57.000Z</time>
      </trkpt>
      <trkpt lat="43.55325" lon="2.9874">
        <ele>286.4</ele>
        <time>2017-04-16T08:47:59.000Z</time>
      </trkpt>
      <trkpt lat="43.55327" lon="2.98741">
        <ele>286.6</ele>
        <time>2017-04-16T08:48:00.000Z</time>
      </trkpt>
      <trkpt lat="43.5533" lon="2.98741">
        <ele>286.6</ele>
        <time>2017-04-16T08:48:01.000Z</time>
      </trkpt>
      <trkpt lat="43.55333" lon="2.98743">
        <ele>287</ele>
        <time>2017-04-16T08:48:03.000Z</time>
      </trkpt>
      <trkpt lat="43.55339" lon="2.98745">
        <ele>287.2</ele>
        <time>2017-04-16T08:48:05.000Z</time>
      </trkpt>
      <trkpt lat="43.55343" lon="2.98748">
        <ele>287.4</ele>
        <time>2017-04-16T08:48:06.000Z</time>
      </trkpt>
      <trkpt lat="43.55347" lon="2.9875">
        <ele>287.8</ele>
        <time>2017-04-16T08:48:08.000Z</time>
      </trkpt>
      <trkpt lat="43.5535" lon="2.98752">
        <ele>288.2</ele>
        <time>2017-04-16T08:48:10.000Z</time>
      </trkpt>
      <trkpt lat="43.55353" lon="2.98754">
        <ele>288.6</ele>
        <time>2017-04-16T08:48:12.000Z</time>
      </trkpt>
      <trkpt lat="43.55355" lon="2.98754">
        <ele>288.8</ele>
        <time>2017-04-16T08:48:13.000Z</time>
      </trkpt>
      <trkpt lat="43.55357" lon="2.98757">
        <ele>289.2</ele>
        <time>2017-04-16T08:48:16.000Z</time>
      </trkpt>
      <trkpt lat="43.55361" lon="2.98759">
        <ele>289.6</ele>
        <time>2017-04-16T08:48:19.000Z</time>
      </trkpt>
      <trkpt lat="43.55368" lon="2.98761">
        <ele>290.4</ele>
        <time>2017-04-16T08:48:22.000Z</time>
      </trkpt>
      <trkpt lat="43.55374" lon="2.9876">
        <ele>290.8</ele>
        <time>2017-04-16T08:48:24.000Z</time>
      </trkpt>
      <trkpt lat="43.55377" lon="2.9876">
        <ele>290.8</ele>
        <time>2017-04-16T08:48:25.000Z</time>
      </trkpt>
      <trkpt lat="43.55383" lon="2.98759">
        <ele>291.4</ele>
        <time>2017-04-16T08:48:28.000Z</time>
      </trkpt>
      <trkpt lat="43.55391" lon="2.9876">
        <ele>291.8</ele>
        <time>2017-04-16T08:48:32.000Z</time>
      </trkpt>
      <trkpt lat="43.55393" lon="2.9876">
        <ele>292.2</ele>
        <time>2017-04-16T08:48:33.000Z</time>
      </trkpt>
      <trkpt lat="43.55397" lon="2.98762">
        <ele>292.8</ele>
        <time>2017-04-16T08:48:36.000Z</time>
      </trkpt>
      <trkpt lat="43.554" lon="2.98763">
        <ele>293</ele>
        <time>2017-04-16T08:48:38.000Z</time>
      </trkpt>
      <trkpt lat="43.55403" lon="2.98764">
        <ele>293.4</ele>
        <time>2017-04-16T08:48:40.000Z</time>
      </trkpt>
      <trkpt lat="43.55408" lon="2.98764">
        <ele>294</ele>
        <time>2017-04-16T08:48:44.000Z</time>
      </trkpt>
      <trkpt lat="43.55411" lon="2.98763">
        <ele>294.4</ele>
        <time>2017-04-16T08:48:46.000Z</time>
      </trkpt>
      <trkpt lat="43.55414" lon="2.98763">
        <ele>294.8</ele>
        <time>2017-04-16T08:48:48.000Z</time>
      </trkpt>
      <trkpt lat="43.55418" lon="2.98763">
        <ele>295.2</ele>
        <time>2017-04-16T08:48:50.000Z</time>
      </trkpt>
      <trkpt lat="43.5542" lon="2.98765">
        <ele>295.2</ele>
        <time>2017-04-16T08:48:51.000Z</time>
      </trkpt>
      <trkpt lat="43.55422" lon="2.98766">
        <ele>295.4</ele>
        <time>2017-04-16T08:48:52.000Z</time>
      </trkpt>
      <trkpt lat="43.55424" lon="2.98769">
        <ele>295.6</ele>
        <time>2017-04-16T08:48:54.000Z</time>
      </trkpt>
      <trkpt lat="43.55429" lon="2.98772">
        <ele>296.4</ele>
        <time>2017-04-16T08:48:57.000Z</time>
      </trkpt>
      <trkpt lat="43.55433" lon="2.98773">
        <ele>296.8</ele>
        <time>2017-04-16T08:48:59.000Z</time>
      </trkpt>
      <trkpt lat="43.55436" lon="2.98774">
        <ele>297.2</ele>
        <time>2017-04-16T08:49:01.000Z</time>
      </trkpt>
      <trkpt lat="43.55438" lon="2.98775">
        <ele>297.4</ele>
        <time>2017-04-16T08:49:03.000Z</time>
      </trkpt>
      <trkpt lat="43.55446" lon="2.9878">
        <ele>298</ele>
        <time>2017-04-16T08:49:09.000Z</time>
      </trkpt>
      <trkpt lat="43.55448" lon="2.9878">
        <ele>298.4</ele>
        <time>2017-04-16T08:49:10.000Z</time>
      </trkpt>
      <trkpt lat="43.5545" lon="2.98781">
        <ele>298.8</ele>
        <time>2017-04-16T08:49:12.000Z</time>
      </trkpt>
      <trkpt lat="43.55453" lon="2.98781">
        <ele>299.2</ele>
        <time>2017-04-16T08:49:14.000Z</time>
      </trkpt>
      <trkpt lat="43.55455" lon="2.98781">
        <ele>299.6</ele>
        <time>2017-04-16T08:49:16.000Z</time>
      </trkpt>
      <trkpt lat="43.55458" lon="2.98782">
        <ele>299.8</ele>
        <time>2017-04-16T08:49:18.000Z</time>
      </trkpt>
      <trkpt lat="43.55465" lon="2.98786">
        <ele>300.4</ele>
        <time>2017-04-16T08:49:22.000Z</time>
      </trkpt>
      <trkpt lat="43.55468" lon="2.98787">
        <ele>301</ele>
        <time>2017-04-16T08:49:24.000Z</time>
      </trkpt>
      <trkpt lat="43.55472" lon="2.98788">
        <ele>301.4</ele>
        <time>2017-04-16T08:49:26.000Z</time>
      </trkpt>
      <trkpt lat="43.55475" lon="2.98789">
        <ele>301.6</ele>
        <time>2017-04-16T08:49:28.000Z</time>
      </trkpt>
      <trkpt lat="43.55476" lon="2.9879">
        <ele>301.8</ele>
        <time>2017-04-16T08:49:29.000Z</time>
      </trkpt>
      <trkpt lat="43.55479" lon="2.98792">
        <ele>302.2</ele>
        <time>2017-04-16T08:49:31.000Z</time>
      </trkpt>
      <trkpt lat="43.5548" lon="2.98793">
        <ele>302.8</ele>
        <time>2017-04-16T08:49:33.000Z</time>
      </trkpt>
      <trkpt lat="43.55481" lon="2.98794">
        <ele>303</ele>
        <time>2017-04-16T08:49:34.000Z</time>
      </trkpt>
      <trkpt lat="43.55482" lon="2.98798">
        <ele>303.6</ele>
        <time>2017-04-16T08:49:37.000Z</time>
      </trkpt>
      <trkpt lat="43.55481" lon="2.98799">
        <ele>304</ele>
        <time>2017-04-16T08:49:39.000Z</time>
      </trkpt>
      <trkpt lat="43.55476" lon="2.98797">
        <ele>304.6</ele>
        <time>2017-04-16T08:49:43.000Z</time>
      </trkpt>
      <trkpt lat="43.55474" lon="2.98796">
        <ele>305</ele>
        <time>2017-04-16T08:49:45.000Z</time>
      </trkpt>
      <trkpt lat="43.55473" lon="2.98796">
        <ele>305.4</ele>
        <time>2017-04-16T08:49:46.000Z</time>
      </trkpt>
      <trkpt lat="43.55471" lon="2.98796">
        <ele>305.4</ele>
        <time>2017-04-16T08:49:47.000Z</time>
      </trkpt>
      <trkpt lat="43.5547" lon="2.98795">
        <ele>305.8</ele>
        <time>2017-04-16T08:49:49.000Z</time>
      </trkpt>
      <trkpt lat="43.55468" lon="2.98796">
        <ele>306.2</ele>
        <time>2017-04-16T08:49:51.000Z</time>
      </trkpt>
      <trkpt lat="43.55466" lon="2.98797">
        <ele>306.4</ele>
        <time>2017-04-16T08:49:54.000Z</time>
      </trkpt>
      <trkpt lat="43.55465" lon="2.98799">
        <ele>308.2</ele>
        <time>2017-04-16T08:50:10.000Z</time>
      </trkpt>
      <trkpt lat="43.55464" lon="2.988">
        <ele>308.4</ele>
        <time>2017-04-16T08:50:11.000Z</time>
      </trkpt>
      <trkpt lat="43.55463" lon="2.988">
        <ele>308.4</ele>
        <time>2017-04-16T08:50:12.000Z</time>
      </trkpt>
      <trkpt lat="43.55463" lon="2.98801">
        <ele>308.6</ele>
        <time>2017-04-16T08:50:13.000Z</time>
      </trkpt>
      <trkpt lat="43.55461" lon="2.98802">
        <ele>308.6</ele>
        <time>2017-04-16T08:50:15.000Z</time>
      </trkpt>
      <trkpt lat="43.55459" lon="2.98804">
        <ele>308.8</ele>
        <time>2017-04-16T08:50:17.000Z</time>
      </trkpt>
      <trkpt lat="43.55458" lon="2.98806">
        <ele>308.8</ele>
        <time>2017-04-16T08:50:19.000Z</time>
      </trkpt>
      <trkpt lat="43.55458" lon="2.98807">
        <ele>309.2</ele>
        <time>2017-04-16T08:50:21.000Z</time>
      </trkpt>
      <trkpt lat="43.55458" lon="2.9881">
        <ele>309.6</ele>
        <time>2017-04-16T08:50:23.000Z</time>
      </trkpt>
      <trkpt lat="43.55458" lon="2.98811">
        <ele>310</ele>
        <time>2017-04-16T08:50:25.000Z</time>
      </trkpt>
      <trkpt lat="43.55458" lon="2.98813">
        <ele>310.2</ele>
        <time>2017-04-16T08:50:27.000Z</time>
      </trkpt>
      <trkpt lat="43.55459" lon="2.98814">
        <ele>310.6</ele>
        <time>2017-04-16T08:50:28.000Z</time>
      </trkpt>
      <trkpt lat="43.55459" lon="2.98816">
        <ele>311.2</ele>
        <time>2017-04-16T08:50:30.000Z</time>
      </trkpt>
      <trkpt lat="43.55459" lon="2.98817">
        <ele>311.6</ele>
        <time>2017-04-16T08:50:32.000Z</time>
      </trkpt>
      <trkpt lat="43.55459" lon="2.98818">
        <ele>312</ele>
        <time>2017-04-16T08:50:34.000Z</time>
      </trkpt>
      <trkpt lat="43.55459" lon="2.98819">
        <ele>312.2</ele>
        <time>2017-04-16T08:50:36.000Z</time>
      </trkpt>
      <trkpt lat="43.55459" lon="2.98823">
        <ele>313</ele>
        <time>2017-04-16T08:50:40.000Z</time>
      </trkpt>
      <trkpt lat="43.55459" lon="2.98824">
        <ele>313.4</ele>
        <time>2017-04-16T08:50:42.000Z</time>
      </trkpt>
      <trkpt lat="43.55459" lon="2.98826">
        <ele>313.8</ele>
        <time>2017-04-16T08:50:44.000Z</time>
      </trkpt>
      <trkpt lat="43.5546" lon="2.98827">
        <ele>314.2</ele>
        <time>2017-04-16T08:50:46.000Z</time>
      </trkpt>
      <trkpt lat="43.5546" lon="2.98828">
        <ele>314.4</ele>
        <time>2017-04-16T08:50:48.000Z</time>
      </trkpt>
      <trkpt lat="43.55462" lon="2.98831">
        <ele>315.2</ele>
        <time>2017-04-16T08:50:52.000Z</time>
      </trkpt>
      <trkpt lat="43.55463" lon="2.98832">
        <ele>315.6</ele>
        <time>2017-04-16T08:50:54.000Z</time>
      </trkpt>
      <trkpt lat="43.55465" lon="2.98833">
        <ele>316</ele>
        <time>2017-04-16T08:50:56.000Z</time>
      </trkpt>
      <trkpt lat="43.55467" lon="2.98834">
        <ele>316.4</ele>
        <time>2017-04-16T08:50:58.000Z</time>
      </trkpt>
      <trkpt lat="43.55468" lon="2.98835">
        <ele>316.8</ele>
        <time>2017-04-16T08:51:00.000Z</time>
      </trkpt>
      <trkpt lat="43.55469" lon="2.98836">
        <ele>317.4</ele>
        <time>2017-04-16T08:51:02.000Z</time>
      </trkpt>
      <trkpt lat="43.55471" lon="2.98837">
        <ele>317.8</ele>
        <time>2017-04-16T08:51:04.000Z</time>
      </trkpt>
      <trkpt lat="43.55471" lon="2.98838">
        <ele>318.2</ele>
        <time>2017-04-16T08:51:06.000Z</time>
      </trkpt>
      <trkpt lat="43.55472" lon="2.98839">
        <ele>318.6</ele>
        <time>2017-04-16T08:51:08.000Z</time>
      </trkpt>
      <trkpt lat="43.55473" lon="2.98841">
        <ele>319</ele>
        <time>2017-04-16T08:51:10.000Z</time>
      </trkpt>
      <trkpt lat="43.55473" lon="2.98843">
        <ele>319.6</ele>
        <time>2017-04-16T08:51:12.000Z</time>
      </trkpt>
      <trkpt lat="43.55474" lon="2.98845">
        <ele>320.2</ele>
        <time>2017-04-16T08:51:14.000Z</time>
      </trkpt>
      <trkpt lat="43.55475" lon="2.98847">
        <ele>320.6</ele>
        <time>2017-04-16T08:51:16.000Z</time>
      </trkpt>
      <trkpt lat="43.55475" lon="2.98848">
        <ele>320.8</ele>
        <time>2017-04-16T08:51:18.000Z</time>
      </trkpt>
      <trkpt lat="43.55477" lon="2.9885">
        <ele>321.4</ele>
        <time>2017-04-16T08:51:21.000Z</time>
      </trkpt>
      <trkpt lat="43.55477" lon="2.98851">
        <ele>322</ele>
        <time>2017-04-16T08:51:23.000Z</time>
      </trkpt>
      <trkpt lat="43.55478" lon="2.98852">
        <ele>322.4</ele>
        <time>2017-04-16T08:51:25.000Z</time>
      </trkpt>
      <trkpt lat="43.55479" lon="2.98853">
        <ele>322.8</ele>
        <time>2017-04-16T08:51:27.000Z</time>
      </trkpt>
      <trkpt lat="43.55481" lon="2.98854">
        <ele>323</ele>
        <time>2017-04-16T08:51:29.000Z</time>
      </trkpt>
      <trkpt lat="43.55486" lon="2.98857">
        <ele>323.8</ele>
        <time>2017-04-16T08:51:36.000Z</time>
      </trkpt>
      <trkpt lat="43.55487" lon="2.98858">
        <ele>324.4</ele>
        <time>2017-04-16T08:51:38.000Z</time>
      </trkpt>
      <trkpt lat="43.55489" lon="2.98859">
        <ele>324.6</ele>
        <time>2017-04-16T08:51:40.000Z</time>
      </trkpt>
      <trkpt lat="43.5549" lon="2.98861">
        <ele>325</ele>
        <time>2017-04-16T08:51:42.000Z</time>
      </trkpt>
      <trkpt lat="43.55492" lon="2.98862">
        <ele>325.2</ele>
        <time>2017-04-16T08:51:44.000Z</time>
      </trkpt>
      <trkpt lat="43.55494" lon="2.98865">
        <ele>325.8</ele>
        <time>2017-04-16T08:51:47.000Z</time>
      </trkpt>
      <trkpt lat="43.55496" lon="2.98866">
        <ele>326.2</ele>
        <time>2017-04-16T08:51:49.000Z</time>
      </trkpt>
      <trkpt lat="43.55497" lon="2.98868">
        <ele>326.6</ele>
        <time>2017-04-16T08:51:51.000Z</time>
      </trkpt>
      <trkpt lat="43.55499" lon="2.9887">
        <ele>327</ele>
        <time>2017-04-16T08:51:53.000Z</time>
      </trkpt>
      <trkpt lat="43.55501" lon="2.98871">
        <ele>327.4</ele>
        <time>2017-04-16T08:51:55.000Z</time>
      </trkpt>
      <trkpt lat="43.55503" lon="2.98872">
        <ele>328</ele>
        <time>2017-04-16T08:51:57.000Z</time>
      </trkpt>
      <trkpt lat="43.55505" lon="2.98874">
        <ele>328.4</ele>
        <time>2017-04-16T08:51:59.000Z</time>
      </trkpt>
      <trkpt lat="43.55506" lon="2.98873">
        <ele>328.6</ele>
        <time>2017-04-16T08:52:00.000Z</time>
      </trkpt>
      <trkpt lat="43.55507" lon="2.98874">
        <ele>328.8</ele>
        <time>2017-04-16T08:52:01.000Z</time>
      </trkpt>
      <trkpt lat="43.5551" lon="2.98875">
        <ele>329</ele>
        <time>2017-04-16T08:52:03.000Z</time>
      </trkpt>
      <trkpt lat="43.55511" lon="2.98875">
        <ele>329.4</ele>
        <time>2017-04-16T08:52:04.000Z</time>
      </trkpt>
      <trkpt lat="43.55512" lon="2.98876">
        <ele>329.6</ele>
        <time>2017-04-16T08:52:05.000Z</time>
      </trkpt>
      <trkpt lat="43.55515" lon="2.98877">
        <ele>330.4</ele>
        <time>2017-04-16T08:52:08.000Z</time>
      </trkpt>
      <trkpt lat="43.55517" lon="2.98877">
        <ele>330.8</ele>
        <time>2017-04-16T08:52:10.000Z</time>
      </trkpt>
      <trkpt lat="43.55519" lon="2.98878">
        <ele>331</ele>
        <time>2017-04-16T08:52:12.000Z</time>
      </trkpt>
      <trkpt lat="43.55523" lon="2.98879">
        <ele>331.4</ele>
        <time>2017-04-16T08:52:16.000Z</time>
      </trkpt>
      <trkpt lat="43.55527" lon="2.98879">
        <ele>331.8</ele>
        <time>2017-04-16T08:52:20.000Z</time>
      </trkpt>
      <trkpt lat="43.55531" lon="2.9888">
        <ele>332.6</ele>
        <time>2017-04-16T08:52:23.000Z</time>
      </trkpt>
      <trkpt lat="43.55532" lon="2.9888">
        <ele>332.8</ele>
        <time>2017-04-16T08:52:25.000Z</time>
      </trkpt>
      <trkpt lat="43.55534" lon="2.98881">
        <ele>333.2</ele>
        <time>2017-04-16T08:52:27.000Z</time>
      </trkpt>
      <trkpt lat="43.55536" lon="2.98881">
        <ele>333.4</ele>
        <time>2017-04-16T08:52:29.000Z</time>
      </trkpt>
      <trkpt lat="43.55541" lon="2.98885">
        <ele>334</ele>
        <time>2017-04-16T08:52:36.000Z</time>
      </trkpt>
      <trkpt lat="43.55542" lon="2.98886">
        <ele>334</ele>
        <time>2017-04-16T08:52:37.000Z</time>
      </trkpt>
      <trkpt lat="43.55544" lon="2.98887">
        <ele>334.6</ele>
        <time>2017-04-16T08:52:40.000Z</time>
      </trkpt>
      <trkpt lat="43.55546" lon="2.98888">
        <ele>335</ele>
        <time>2017-04-16T08:52:42.000Z</time>
      </trkpt>
      <trkpt lat="43.55549" lon="2.98888">
        <ele>335.4</ele>
        <time>2017-04-16T08:52:44.000Z</time>
      </trkpt>
      <trkpt lat="43.55551" lon="2.98889">
        <ele>335.6</ele>
        <time>2017-04-16T08:52:46.000Z</time>
      </trkpt>
      <trkpt lat="43.55555" lon="2.98892">
        <ele>335.8</ele>
        <time>2017-04-16T08:52:49.000Z</time>
      </trkpt>
      <trkpt lat="43.55557" lon="2.98894">
        <ele>336.6</ele>
        <time>2017-04-16T08:52:52.000Z</time>
      </trkpt>
      <trkpt lat="43.5556" lon="2.98894">
        <ele>337</ele>
        <time>2017-04-16T08:52:54.000Z</time>
      </trkpt>
      <trkpt lat="43.55562" lon="2.98894">
        <ele>337.4</ele>
        <time>2017-04-16T08:52:56.000Z</time>
      </trkpt>
      <trkpt lat="43.55564" lon="2.98895">
        <ele>338</ele>
        <time>2017-04-16T08:52:58.000Z</time>
      </trkpt>
      <trkpt lat="43.55566" lon="2.98895">
        <ele>338.6</ele>
        <time>2017-04-16T08:53:00.000Z</time>
      </trkpt>
      <trkpt lat="43.55567" lon="2.98895">
        <ele>339</ele>
        <time>2017-04-16T08:53:02.000Z</time>
      </trkpt>
      <trkpt lat="43.55569" lon="2.98896">
        <ele>339.2</ele>
        <time>2017-04-16T08:53:04.000Z</time>
      </trkpt>
      <trkpt lat="43.55577" lon="2.98901">
        <ele>340.2</ele>
        <time>2017-04-16T08:53:12.000Z</time>
      </trkpt>
      <trkpt lat="43.55579" lon="2.98902">
        <ele>340.8</ele>
        <time>2017-04-16T08:53:14.000Z</time>
      </trkpt>
      <trkpt lat="43.55581" lon="2.98903">
        <ele>341</ele>
        <time>2017-04-16T08:53:16.000Z</time>
      </trkpt>
      <trkpt lat="43.55584" lon="2.98904">
        <ele>341.4</ele>
        <time>2017-04-16T08:53:18.000Z</time>
      </trkpt>
      <trkpt lat="43.55586" lon="2.98904">
        <ele>341.6</ele>
        <time>2017-04-16T08:53:20.000Z</time>
      </trkpt>
      <trkpt lat="43.55589" lon="2.98905">
        <ele>342.2</ele>
        <time>2017-04-16T08:53:23.000Z</time>
      </trkpt>
      <trkpt lat="43.5559" lon="2.98906">
        <ele>342.6</ele>
        <time>2017-04-16T08:53:25.000Z</time>
      </trkpt>
      <trkpt lat="43.55592" lon="2.98907">
        <ele>343</ele>
        <time>2017-04-16T08:53:27.000Z</time>
      </trkpt>
      <trkpt lat="43.55594" lon="2.98908">
        <ele>343.6</ele>
        <time>2017-04-16T08:53:29.000Z</time>
      </trkpt>
      <trkpt lat="43.55595" lon="2.98909">
        <ele>344.2</ele>
        <time>2017-04-16T08:53:31.000Z</time>
      </trkpt>
      <trkpt lat="43.55597" lon="2.9891">
        <ele>344.6</ele>
        <time>2017-04-16T08:53:33.000Z</time>
      </trkpt>
      <trkpt lat="43.55598" lon="2.9891">
        <ele>344.8</ele>
        <time>2017-04-16T08:53:34.000Z</time>
      </trkpt>
      <trkpt lat="43.55599" lon="2.9891">
        <ele>345.2</ele>
        <time>2017-04-16T08:53:35.000Z</time>
      </trkpt>
      <trkpt lat="43.556" lon="2.98911">
        <ele>346</ele>
        <time>2017-04-16T08:53:37.000Z</time>
      </trkpt>
      <trkpt lat="43.55601" lon="2.98911">
        <ele>346.2</ele>
        <time>2017-04-16T08:53:38.000Z</time>
      </trkpt>
      <trkpt lat="43.55602" lon="2.98911">
        <ele>346.6</ele>
        <time>2017-04-16T08:53:39.000Z</time>
      </trkpt>
      <trkpt lat="43.55603" lon="2.98911">
        <ele>347</ele>
        <time>2017-04-16T08:53:41.000Z</time>
      </trkpt>
      <trkpt lat="43.55604" lon="2.98912">
        <ele>347.4</ele>
        <time>2017-04-16T08:53:42.000Z</time>
      </trkpt>
      <trkpt lat="43.55605" lon="2.98912">
        <ele>348</ele>
        <time>2017-04-16T08:53:44.000Z</time>
      </trkpt>
      <trkpt lat="43.55606" lon="2.98912">
        <ele>348.6</ele>
        <time>2017-04-16T08:53:46.000Z</time>
      </trkpt>
      <trkpt lat="43.55607" lon="2.98913">
        <ele>349</ele>
        <time>2017-04-16T08:53:48.000Z</time>
      </trkpt>
      <trkpt lat="43.55609" lon="2.98915">
        <ele>349.4</ele>
        <time>2017-04-16T08:53:50.000Z</time>
      </trkpt>
      <trkpt lat="43.55611" lon="2.98917">
        <ele>350.2</ele>
        <time>2017-04-16T08:53:54.000Z</time>
      </trkpt>
      <trkpt lat="43.55613" lon="2.98918">
        <ele>350.8</ele>
        <time>2017-04-16T08:53:56.000Z</time>
      </trkpt>
      <trkpt lat="43.55614" lon="2.98919">
        <ele>351.2</ele>
        <time>2017-04-16T08:53:58.000Z</time>
      </trkpt>
      <trkpt lat="43.55616" lon="2.9892">
        <ele>351.6</ele>
        <time>2017-04-16T08:54:00.000Z</time>
      </trkpt>
      <trkpt lat="43.55617" lon="2.98922">
        <ele>351.8</ele>
        <time>2017-04-16T08:54:02.000Z</time>
      </trkpt>
      <trkpt lat="43.55622" lon="2.98927">
        <ele>352.8</ele>
        <time>2017-04-16T08:54:12.000Z</time>
      </trkpt>
      <trkpt lat="43.55623" lon="2.98928">
        <ele>353.4</ele>
        <time>2017-04-16T08:54:14.000Z</time>
      </trkpt>
      <trkpt lat="43.55625" lon="2.98929">
        <ele>353.8</ele>
        <time>2017-04-16T08:54:16.000Z</time>
      </trkpt>
      <trkpt lat="43.55626" lon="2.9893">
        <ele>354</ele>
        <time>2017-04-16T08:54:18.000Z</time>
      </trkpt>
      <trkpt lat="43.55626" lon="2.98932">
        <ele>354.2</ele>
        <time>2017-04-16T08:54:20.000Z</time>
      </trkpt>
      <trkpt lat="43.55627" lon="2.98935">
        <ele>354.8</ele>
        <time>2017-04-16T08:54:24.000Z</time>
      </trkpt>
      <trkpt lat="43.55628" lon="2.98936">
        <ele>355.4</ele>
        <time>2017-04-16T08:54:26.000Z</time>
      </trkpt>
      <trkpt lat="43.55629" lon="2.98938">
        <ele>355.8</ele>
        <time>2017-04-16T08:54:28.000Z</time>
      </trkpt>
      <trkpt lat="43.55629" lon="2.98939">
        <ele>356.2</ele>
        <time>2017-04-16T08:54:30.000Z</time>
      </trkpt>
      <trkpt lat="43.55629" lon="2.98939">
        <ele>356.2</ele>
        <time>2017-04-16T08:54:31.000Z</time>
      </trkpt>
      <trkpt lat="43.55631" lon="2.98943">
        <ele>358.4</ele>
        <time>2017-04-16T08:54:43.000Z</time>
      </trkpt>
      <trkpt lat="43.55632" lon="2.98943">
        <ele>358.8</ele>
        <time>2017-04-16T08:54:44.000Z</time>
      </trkpt>
      <trkpt lat="43.55633" lon="2.98943">
        <ele>359</ele>
        <time>2017-04-16T08:54:45.000Z</time>
      </trkpt>
      <trkpt lat="43.55634" lon="2.98944">
        <ele>359.4</ele>
        <time>2017-04-16T08:54:46.000Z</time>
      </trkpt>
      <trkpt lat="43.55636" lon="2.98945">
        <ele>359.8</ele>
        <time>2017-04-16T08:54:48.000Z</time>
      </trkpt>
      <trkpt lat="43.55637" lon="2.98945">
        <ele>360.2</ele>
        <time>2017-04-16T08:54:50.000Z</time>
      </trkpt>
      <trkpt lat="43.55639" lon="2.98946">
        <ele>360.4</ele>
        <time>2017-04-16T08:54:52.000Z</time>
      </trkpt>
      <trkpt lat="43.5564" lon="2.98947">
        <ele>360.8</ele>
        <time>2017-04-16T08:54:53.000Z</time>
      </trkpt>
      <trkpt lat="43.55642" lon="2.98947">
        <ele>361.2</ele>
        <time>2017-04-16T08:54:55.000Z</time>
      </trkpt>
      <trkpt lat="43.55644" lon="2.98948">
        <ele>361.8</ele>
        <time>2017-04-16T08:54:57.000Z</time>
      </trkpt>
      <trkpt lat="43.55646" lon="2.98949">
        <ele>362.2</ele>
        <time>2017-04-16T08:54:59.000Z</time>
      </trkpt>
      <trkpt lat="43.55648" lon="2.98948">
        <ele>362.4</ele>
        <time>2017-04-16T08:55:01.000Z</time>
      </trkpt>
      <trkpt lat="43.55649" lon="2.98948">
        <ele>362.6</ele>
        <time>2017-04-16T08:55:02.000Z</time>
      </trkpt>
      <trkpt lat="43.55653" lon="2.98952">
        <ele>364.6</ele>
        <time>2017-04-16T08:55:13.000Z</time>
      </trkpt>
      <trkpt lat="43.55654" lon="2.98952">
        <ele>364.8</ele>
        <time>2017-04-16T08:55:14.000Z</time>
      </trkpt>
      <trkpt lat="43.55656" lon="2.98952">
        <ele>365.2</ele>
        <time>2017-04-16T08:55:15.000Z</time>
      </trkpt>
      <trkpt lat="43.55657" lon="2.98952">
        <ele>365.4</ele>
        <time>2017-04-16T08:55:16.000Z</time>
      </trkpt>
      <trkpt lat="43.55659" lon="2.98953">
        <ele>365.8</ele>
        <time>2017-04-16T08:55:18.000Z</time>
      </trkpt>
      <trkpt lat="43.55661" lon="2.98953">
        <ele>366.2</ele>
        <time>2017-04-16T08:55:20.000Z</time>
      </trkpt>
      <trkpt lat="43.55662" lon="2.98954">
        <ele>366.6</ele>
        <time>2017-04-16T08:55:22.000Z</time>
      </trkpt>
      <trkpt lat="43.55665" lon="2.98954">
        <ele>367.2</ele>
        <time>2017-04-16T08:55:26.000Z</time>
      </trkpt>
      <trkpt lat="43.55667" lon="2.98954">
        <ele>367.8</ele>
        <time>2017-04-16T08:55:28.000Z</time>
      </trkpt>
      <trkpt lat="43.55669" lon="2.98953">
        <ele>368.2</ele>
        <time>2017-04-16T08:55:30.000Z</time>
      </trkpt>
      <trkpt lat="43.55671" lon="2.98953">
        <ele>368.4</ele>
        <time>2017-04-16T08:55:32.000Z</time>
      </trkpt>
      <trkpt lat="43.55673" lon="2.98953">
        <ele>368.8</ele>
        <time>2017-04-16T08:55:34.000Z</time>
      </trkpt>
      <trkpt lat="43.55678" lon="2.98952">
        <ele>369.6</ele>
        <time>2017-04-16T08:55:40.000Z</time>
      </trkpt>
      <trkpt lat="43.5568" lon="2.98952">
        <ele>370</ele>
        <time>2017-04-16T08:55:42.000Z</time>
      </trkpt>
      <trkpt lat="43.55682" lon="2.98953">
        <ele>370.4</ele>
        <time>2017-04-16T08:55:44.000Z</time>
      </trkpt>
      <trkpt lat="43.55685" lon="2.98954">
        <ele>370.8</ele>
        <time>2017-04-16T08:55:46.000Z</time>
      </trkpt>
      <trkpt lat="43.55688" lon="2.98955">
        <ele>371</ele>
        <time>2017-04-16T08:55:48.000Z</time>
      </trkpt>
      <trkpt lat="43.55694" lon="2.98957">
        <ele>371.8</ele>
        <time>2017-04-16T08:55:56.000Z</time>
      </trkpt>
      <trkpt lat="43.55696" lon="2.98958">
        <ele>372.2</ele>
        <time>2017-04-16T08:55:58.000Z</time>
      </trkpt>
      <trkpt lat="43.55697" lon="2.98958">
        <ele>372.6</ele>
        <time>2017-04-16T08:56:00.000Z</time>
      </trkpt>
      <trkpt lat="43.55698" lon="2.98959">
        <ele>373</ele>
        <time>2017-04-16T08:56:02.000Z</time>
      </trkpt>
      <trkpt lat="43.557" lon="2.98961">
        <ele>373.2</ele>
        <time>2017-04-16T08:56:04.000Z</time>
      </trkpt>
      <trkpt lat="43.55701" lon="2.98963">
        <ele>373.6</ele>
        <time>2017-04-16T08:56:06.000Z</time>
      </trkpt>
      <trkpt lat="43.55702" lon="2.98966">
        <ele>374.2</ele>
        <time>2017-04-16T08:56:08.000Z</time>
      </trkpt>
      <trkpt lat="43.55703" lon="2.98968">
        <ele>374.6</ele>
        <time>2017-04-16T08:56:10.000Z</time>
      </trkpt>
      <trkpt lat="43.55705" lon="2.9897">
        <ele>375</ele>
        <time>2017-04-16T08:56:12.000Z</time>
      </trkpt>
      <trkpt lat="43.55706" lon="2.98972">
        <ele>375.2</ele>
        <time>2017-04-16T08:56:14.000Z</time>
      </trkpt>
      <trkpt lat="43.55711" lon="2.98977">
        <ele>376</ele>
        <time>2017-04-16T08:56:19.000Z</time>
      </trkpt>
      <trkpt lat="43.55713" lon="2.98979">
        <ele>376.4</ele>
        <time>2017-04-16T08:56:21.000Z</time>
      </trkpt>
      <trkpt lat="43.55714" lon="2.9898">
        <ele>376.8</ele>
        <time>2017-04-16T08:56:23.000Z</time>
      </trkpt>
      <trkpt lat="43.55716" lon="2.98982">
        <ele>377.2</ele>
        <time>2017-04-16T08:56:25.000Z</time>
      </trkpt>
      <trkpt lat="43.55718" lon="2.98983">
        <ele>377.4</ele>
        <time>2017-04-16T08:56:27.000Z</time>
      </trkpt>
      <trkpt lat="43.55719" lon="2.98986">
        <ele>378</ele>
        <time>2017-04-16T08:56:30.000Z</time>
      </trkpt>
      <trkpt lat="43.5572" lon="2.98989">
        <ele>378.4</ele>
        <time>2017-04-16T08:56:32.000Z</time>
      </trkpt>
      <trkpt lat="43.55721" lon="2.98992">
        <ele>378.8</ele>
        <time>2017-04-16T08:56:34.000Z</time>
      </trkpt>
      <trkpt lat="43.55723" lon="2.98994">
        <ele>379.2</ele>
        <time>2017-04-16T08:56:36.000Z</time>
      </trkpt>
      <trkpt lat="43.55725" lon="2.98996">
        <ele>379.4</ele>
        <time>2017-04-16T08:56:38.000Z</time>
      </trkpt>
      <trkpt lat="43.55727" lon="2.99003">
        <ele>380.4</ele>
        <time>2017-04-16T08:56:46.000Z</time>
      </trkpt>
      <trkpt lat="43.55728" lon="2.99004">
        <ele>380.8</ele>
        <time>2017-04-16T08:56:48.000Z</time>
      </trkpt>
      <trkpt lat="43.5573" lon="2.99006">
        <ele>381.2</ele>
        <time>2017-04-16T08:56:50.000Z</time>
      </trkpt>
      <trkpt lat="43.55732" lon="2.99007">
        <ele>381.6</ele>
        <time>2017-04-16T08:56:52.000Z</time>
      </trkpt>
      <trkpt lat="43.55735" lon="2.99008">
        <ele>381.8</ele>
        <time>2017-04-16T08:56:54.000Z</time>
      </trkpt>
      <trkpt lat="43.5574" lon="2.99012">
        <ele>382.4</ele>
        <time>2017-04-16T08:56:58.000Z</time>
      </trkpt>
      <trkpt lat="43.55742" lon="2.99014">
        <ele>382.8</ele>
        <time>2017-04-16T08:57:00.000Z</time>
      </trkpt>
      <trkpt lat="43.55744" lon="2.99016">
        <ele>383.2</ele>
        <time>2017-04-16T08:57:02.000Z</time>
      </trkpt>
      <trkpt lat="43.55746" lon="2.99017">
        <ele>383.4</ele>
        <time>2017-04-16T08:57:04.000Z</time>
      </trkpt>
      <trkpt lat="43.55748" lon="2.99019">
        <ele>383.8</ele>
        <time>2017-04-16T08:57:06.000Z</time>
      </trkpt>
      <trkpt lat="43.55752" lon="2.99021">
        <ele>384.4</ele>
        <time>2017-04-16T08:57:10.000Z</time>
      </trkpt>
      <trkpt lat="43.55754" lon="2.99023">
        <ele>384.8</ele>
        <time>2017-04-16T08:57:12.000Z</time>
      </trkpt>
      <trkpt lat="43.55756" lon="2.99026">
        <ele>385.2</ele>
        <time>2017-04-16T08:57:14.000Z</time>
      </trkpt>
      <trkpt lat="43.55758" lon="2.99028">
        <ele>385.6</ele>
        <time>2017-04-16T08:57:16.000Z</time>
      </trkpt>
      <trkpt lat="43.55759" lon="2.99031">
        <ele>385.8</ele>
        <time>2017-04-16T08:57:18.000Z</time>
      </trkpt>
      <trkpt lat="43.55761" lon="2.99035">
        <ele>386.4</ele>
        <time>2017-04-16T08:57:22.000Z</time>
      </trkpt>
      <trkpt lat="43.55762" lon="2.99037">
        <ele>386.8</ele>
        <time>2017-04-16T08:57:24.000Z</time>
      </trkpt>
      <trkpt lat="43.55763" lon="2.99039">
        <ele>387.2</ele>
        <time>2017-04-16T08:57:26.000Z</time>
      </trkpt>
      <trkpt lat="43.55764" lon="2.99041">
        <ele>387.6</ele>
        <time>2017-04-16T08:57:28.000Z</time>
      </trkpt>
      <trkpt lat="43.55765" lon="2.99043">
        <ele>387.8</ele>
        <time>2017-04-16T08:57:30.000Z</time>
      </trkpt>
      <trkpt lat="43.55766" lon="2.99048">
        <ele>388.6</ele>
        <time>2017-04-16T08:57:35.000Z</time>
      </trkpt>
      <trkpt lat="43.55767" lon="2.9905">
        <ele>389</ele>
        <time>2017-04-16T08:57:37.000Z</time>
      </trkpt>
      <trkpt lat="43.55768" lon="2.99051">
        <ele>389.4</ele>
        <time>2017-04-16T08:57:39.000Z</time>
      </trkpt>
      <trkpt lat="43.55769" lon="2.99052">
        <ele>389.8</ele>
        <time>2017-04-16T08:57:41.000Z</time>
      </trkpt>
      <trkpt lat="43.55771" lon="2.99054">
        <ele>390</ele>
        <time>2017-04-16T08:57:43.000Z</time>
      </trkpt>
      <trkpt lat="43.55772" lon="2.99056">
        <ele>390.4</ele>
        <time>2017-04-16T08:57:45.000Z</time>
      </trkpt>
      <trkpt lat="43.55774" lon="2.99057">
        <ele>391</ele>
        <time>2017-04-16T08:57:47.000Z</time>
      </trkpt>
      <trkpt lat="43.55775" lon="2.99059">
        <ele>391.4</ele>
        <time>2017-04-16T08:57:49.000Z</time>
      </trkpt>
      <trkpt lat="43.55777" lon="2.99061">
        <ele>391.8</ele>
        <time>2017-04-16T08:57:51.000Z</time>
      </trkpt>
      <trkpt lat="43.55778" lon="2.99063">
        <ele>392</ele>
        <time>2017-04-16T08:57:53.000Z</time>
      </trkpt>
      <trkpt lat="43.55781" lon="2.99069">
        <ele>393</ele>
        <time>2017-04-16T08:58:00.000Z</time>
      </trkpt>
      <trkpt lat="43.55782" lon="2.99071">
        <ele>393.4</ele>
        <time>2017-04-16T08:58:02.000Z</time>
      </trkpt>
      <trkpt lat="43.55783" lon="2.99073">
        <ele>393.8</ele>
        <time>2017-04-16T08:58:04.000Z</time>
      </trkpt>
      <trkpt lat="43.55783" lon="2.99075">
        <ele>394.2</ele>
        <time>2017-04-16T08:58:06.000Z</time>
      </trkpt>
      <trkpt lat="43.55784" lon="2.99077">
        <ele>394.4</ele>
        <time>2017-04-16T08:58:08.000Z</time>
      </trkpt>
      <trkpt lat="43.55784" lon="2.99078">
        <ele>394.6</ele>
        <time>2017-04-16T08:58:09.000Z</time>
      </trkpt>
      <trkpt lat="43.55784" lon="2.9908">
        <ele>395.2</ele>
        <time>2017-04-16T08:58:11.000Z</time>
      </trkpt>
      <trkpt lat="43.55785" lon="2.99082">
        <ele>395.6</ele>
        <time>2017-04-16T08:58:13.000Z</time>
      </trkpt>
      <trkpt lat="43.55786" lon="2.99084">
        <ele>396</ele>
        <time>2017-04-16T08:58:15.000Z</time>
      </trkpt>
      <trkpt lat="43.55787" lon="2.99086">
        <ele>396.2</ele>
        <time>2017-04-16T08:58:17.000Z</time>
      </trkpt>
      <trkpt lat="43.5579" lon="2.99091">
        <ele>397</ele>
        <time>2017-04-16T08:58:22.000Z</time>
      </trkpt>
      <trkpt lat="43.5579" lon="2.99092">
        <ele>397.6</ele>
        <time>2017-04-16T08:58:24.000Z</time>
      </trkpt>
      <trkpt lat="43.5579" lon="2.99092">
        <ele>398</ele>
        <time>2017-04-16T08:58:26.000Z</time>
      </trkpt>
      <trkpt lat="43.5579" lon="2.99092">
        <ele>398.2</ele>
        <time>2017-04-16T08:58:28.000Z</time>
      </trkpt>
      <trkpt lat="43.55791" lon="2.99092">
        <ele>398.6</ele>
        <time>2017-04-16T08:58:30.000Z</time>
      </trkpt>
      <trkpt lat="43.55793" lon="2.99097">
        <ele>399.2</ele>
        <time>2017-04-16T08:58:35.000Z</time>
      </trkpt>
      <trkpt lat="43.55793" lon="2.99099">
        <ele>399.8</ele>
        <time>2017-04-16T08:58:37.000Z</time>
      </trkpt>
      <trkpt lat="43.55795" lon="2.991">
        <ele>400.2</ele>
        <time>2017-04-16T08:58:39.000Z</time>
      </trkpt>
      <trkpt lat="43.55795" lon="2.991">
        <ele>400.4</ele>
        <time>2017-04-16T08:58:41.000Z</time>
      </trkpt>
      <trkpt lat="43.55796" lon="2.99101">
        <ele>400.6</ele>
        <time>2017-04-16T08:58:42.000Z</time>
      </trkpt>
      <trkpt lat="43.55796" lon="2.99102">
        <ele>401.2</ele>
        <time>2017-04-16T08:58:45.000Z</time>
      </trkpt>
      <trkpt lat="43.55796" lon="2.99103">
        <ele>401.4</ele>
        <time>2017-04-16T08:58:46.000Z</time>
      </trkpt>
      <trkpt lat="43.55797" lon="2.99103">
        <ele>401.6</ele>
        <time>2017-04-16T08:58:47.000Z</time>
      </trkpt>
      <trkpt lat="43.55799" lon="2.99106">
        <ele>402.6</ele>
        <time>2017-04-16T08:58:53.000Z</time>
      </trkpt>
      <trkpt lat="43.55799" lon="2.99107">
        <ele>402.8</ele>
        <time>2017-04-16T08:58:54.000Z</time>
      </trkpt>
      <trkpt lat="43.558" lon="2.99107">
        <ele>402.8</ele>
        <time>2017-04-16T08:58:55.000Z</time>
      </trkpt>
      <trkpt lat="43.55801" lon="2.99108">
        <ele>403</ele>
        <time>2017-04-16T08:58:56.000Z</time>
      </trkpt>
      <trkpt lat="43.55802" lon="2.99108">
        <ele>403.2</ele>
        <time>2017-04-16T08:58:57.000Z</time>
      </trkpt>
      <trkpt lat="43.55804" lon="2.9911">
        <ele>403.8</ele>
        <time>2017-04-16T08:58:59.000Z</time>
      </trkpt>
      <trkpt lat="43.55805" lon="2.99111">
        <ele>404.2</ele>
        <time>2017-04-16T08:59:01.000Z</time>
      </trkpt>
      <trkpt lat="43.55806" lon="2.99113">
        <ele>404.6</ele>
        <time>2017-04-16T08:59:03.000Z</time>
      </trkpt>
      <trkpt lat="43.55806" lon="2.99115">
        <ele>404.8</ele>
        <time>2017-04-16T08:59:05.000Z</time>
      </trkpt>
      <trkpt lat="43.55807" lon="2.99117">
        <ele>405.2</ele>
        <time>2017-04-16T08:59:07.000Z</time>
      </trkpt>
      <trkpt lat="43.55809" lon="2.99119">
        <ele>405.8</ele>
        <time>2017-04-16T08:59:09.000Z</time>
      </trkpt>
      <trkpt lat="43.5581" lon="2.9912">
        <ele>406.2</ele>
        <time>2017-04-16T08:59:11.000Z</time>
      </trkpt>
      <trkpt lat="43.55811" lon="2.99121">
        <ele>406.6</ele>
        <time>2017-04-16T08:59:13.000Z</time>
      </trkpt>
      <trkpt lat="43.55813" lon="2.99122">
        <ele>406.8</ele>
        <time>2017-04-16T08:59:15.000Z</time>
      </trkpt>
      <trkpt lat="43.55813" lon="2.99123">
        <ele>407.2</ele>
        <time>2017-04-16T08:59:16.000Z</time>
      </trkpt>
      <trkpt lat="43.55815" lon="2.99125">
        <ele>407.6</ele>
        <time>2017-04-16T08:59:18.000Z</time>
      </trkpt>
      <trkpt lat="43.55817" lon="2.99126">
        <ele>408.2</ele>
        <time>2017-04-16T08:59:20.000Z</time>
      </trkpt>
      <trkpt lat="43.55819" lon="2.99126">
        <ele>408.4</ele>
        <time>2017-04-16T08:59:22.000Z</time>
      </trkpt>
      <trkpt lat="43.55821" lon="2.99127">
        <ele>408.8</ele>
        <time>2017-04-16T08:59:24.000Z</time>
      </trkpt>
      <trkpt lat="43.55828" lon="2.99128">
        <ele>409.6</ele>
        <time>2017-04-16T08:59:29.000Z</time>
      </trkpt>
      <trkpt lat="43.5583" lon="2.99131">
        <ele>410</ele>
        <time>2017-04-16T08:59:31.000Z</time>
      </trkpt>
      <trkpt lat="43.55832" lon="2.99134">
        <ele>410.4</ele>
        <time>2017-04-16T08:59:33.000Z</time>
      </trkpt>
      <trkpt lat="43.55833" lon="2.99136">
        <ele>410.8</ele>
        <time>2017-04-16T08:59:35.000Z</time>
      </trkpt>
      <trkpt lat="43.55834" lon="2.99137">
        <ele>411</ele>
        <time>2017-04-16T08:59:37.000Z</time>
      </trkpt>
      <trkpt lat="43.55833" lon="2.99138">
        <ele>411.8</ele>
        <time>2017-04-16T08:59:41.000Z</time>
      </trkpt>
      <trkpt lat="43.55833" lon="2.99139">
        <ele>412.2</ele>
        <time>2017-04-16T08:59:43.000Z</time>
      </trkpt>
      <trkpt lat="43.55832" lon="2.9914">
        <ele>412.6</ele>
        <time>2017-04-16T08:59:45.000Z</time>
      </trkpt>
      <trkpt lat="43.55834" lon="2.99141">
        <ele>413</ele>
        <time>2017-04-16T08:59:47.000Z</time>
      </trkpt>
      <trkpt lat="43.55836" lon="2.99142">
        <ele>413.2</ele>
        <time>2017-04-16T08:59:49.000Z</time>
      </trkpt>
      <trkpt lat="43.55839" lon="2.99143">
        <ele>413.6</ele>
        <time>2017-04-16T08:59:51.000Z</time>
      </trkpt>
      <trkpt lat="43.55841" lon="2.99144">
        <ele>414.2</ele>
        <time>2017-04-16T08:59:53.000Z</time>
      </trkpt>
      <trkpt lat="43.55843" lon="2.99145">
        <ele>414.6</ele>
        <time>2017-04-16T08:59:55.000Z</time>
      </trkpt>
      <trkpt lat="43.55845" lon="2.99146">
        <ele>415</ele>
        <time>2017-04-16T08:59:57.000Z</time>
      </trkpt>
      <trkpt lat="43.55847" lon="2.99146">
        <ele>415.2</ele>
        <time>2017-04-16T08:59:59.000Z</time>
      </trkpt>
      <trkpt lat="43.5585" lon="2.99146">
        <ele>415.8</ele>
        <time>2017-04-16T09:00:02.000Z</time>
      </trkpt>
      <trkpt lat="43.55852" lon="2.99145">
        <ele>416.2</ele>
        <time>2017-04-16T09:00:04.000Z</time>
      </trkpt>
      <trkpt lat="43.55854" lon="2.99145">
        <ele>416.8</ele>
        <time>2017-04-16T09:00:06.000Z</time>
      </trkpt>
      <trkpt lat="43.55856" lon="2.99145">
        <ele>417</ele>
        <time>2017-04-16T09:00:08.000Z</time>
      </trkpt>
      <trkpt lat="43.55858" lon="2.99146">
        <ele>417.4</ele>
        <time>2017-04-16T09:00:10.000Z</time>
      </trkpt>
      <trkpt lat="43.55867" lon="2.99153">
        <ele>418</ele>
        <time>2017-04-16T09:00:20.000Z</time>
      </trkpt>
      <trkpt lat="43.55868" lon="2.99155">
        <ele>418.4</ele>
        <time>2017-04-16T09:00:21.000Z</time>
      </trkpt>
      <trkpt lat="43.55869" lon="2.99158">
        <ele>418.8</ele>
        <time>2017-04-16T09:00:23.000Z</time>
      </trkpt>
      <trkpt lat="43.5587" lon="2.9916">
        <ele>419.2</ele>
        <time>2017-04-16T09:00:25.000Z</time>
      </trkpt>
      <trkpt lat="43.55871" lon="2.99163">
        <ele>419.4</ele>
        <time>2017-04-16T09:00:27.000Z</time>
      </trkpt>
      <trkpt lat="43.5587" lon="2.99166">
        <ele>419.6</ele>
        <time>2017-04-16T09:00:29.000Z</time>
      </trkpt>
      <trkpt lat="43.55869" lon="2.99173">
        <ele>420.4</ele>
        <time>2017-04-16T09:00:34.000Z</time>
      </trkpt>
      <trkpt lat="43.55869" lon="2.99176">
        <ele>420.8</ele>
        <time>2017-04-16T09:00:36.000Z</time>
      </trkpt>
      <trkpt lat="43.5587" lon="2.99178">
        <ele>421.2</ele>
        <time>2017-04-16T09:00:38.000Z</time>
      </trkpt>
      <trkpt lat="43.5587" lon="2.9918">
        <ele>421.6</ele>
        <time>2017-04-16T09:00:40.000Z</time>
      </trkpt>
      <trkpt lat="43.55871" lon="2.99182">
        <ele>421.8</ele>
        <time>2017-04-16T09:00:42.000Z</time>
      </trkpt>
      <trkpt lat="43.55871" lon="2.99187">
        <ele>422.4</ele>
        <time>2017-04-16T09:00:46.000Z</time>
      </trkpt>
      <trkpt lat="43.55872" lon="2.99189">
        <ele>423</ele>
        <time>2017-04-16T09:00:48.000Z</time>
      </trkpt>
      <trkpt lat="43.55872" lon="2.99191">
        <ele>423.4</ele>
        <time>2017-04-16T09:00:50.000Z</time>
      </trkpt>
      <trkpt lat="43.55873" lon="2.99192">
        <ele>423.8</ele>
        <time>2017-04-16T09:00:52.000Z</time>
      </trkpt>
      <trkpt lat="43.55874" lon="2.99193">
        <ele>424</ele>
        <time>2017-04-16T09:00:54.000Z</time>
      </trkpt>
      <trkpt lat="43.55874" lon="2.99201">
        <ele>424.6</ele>
        <time>2017-04-16T09:01:01.000Z</time>
      </trkpt>
      <trkpt lat="43.55876" lon="2.99206">
        <ele>425</ele>
        <time>2017-04-16T09:01:06.000Z</time>
      </trkpt>
      <trkpt lat="43.55877" lon="2.99209">
        <ele>425.4</ele>
        <time>2017-04-16T09:01:08.000Z</time>
      </trkpt>
      <trkpt lat="43.55878" lon="2.99212">
        <ele>425.8</ele>
        <time>2017-04-16T09:01:10.000Z</time>
      </trkpt>
      <trkpt lat="43.55877" lon="2.99216">
        <ele>426</ele>
        <time>2017-04-16T09:01:12.000Z</time>
      </trkpt>
      <trkpt lat="43.55877" lon="2.99219">
        <ele>426.2</ele>
        <time>2017-04-16T09:01:14.000Z</time>
      </trkpt>
      <trkpt lat="43.55875" lon="2.99227">
        <ele>426.8</ele>
        <time>2017-04-16T09:01:19.000Z</time>
      </trkpt>
      <trkpt lat="43.55875" lon="2.99229">
        <ele>427.4</ele>
        <time>2017-04-16T09:01:21.000Z</time>
      </trkpt>
      <trkpt lat="43.55876" lon="2.99232">
        <ele>427.8</ele>
        <time>2017-04-16T09:01:23.000Z</time>
      </trkpt>
      <trkpt lat="43.55877" lon="2.99234">
        <ele>428</ele>
        <time>2017-04-16T09:01:25.000Z</time>
      </trkpt>
      <trkpt lat="43.55877" lon="2.99237">
        <ele>428.2</ele>
        <time>2017-04-16T09:01:27.000Z</time>
      </trkpt>
      <trkpt lat="43.55877" lon="2.99243">
        <ele>428.8</ele>
        <time>2017-04-16T09:01:30.000Z</time>
      </trkpt>
      <trkpt lat="43.55877" lon="2.99247">
        <ele>429.2</ele>
        <time>2017-04-16T09:01:32.000Z</time>
      </trkpt>
      <trkpt lat="43.55877" lon="2.9925">
        <ele>429.6</ele>
        <time>2017-04-16T09:01:34.000Z</time>
      </trkpt>
      <trkpt lat="43.55877" lon="2.99254">
        <ele>430</ele>
        <time>2017-04-16T09:01:36.000Z</time>
      </trkpt>
      <trkpt lat="43.55878" lon="2.99257">
        <ele>430.2</ele>
        <time>2017-04-16T09:01:38.000Z</time>
      </trkpt>
      <trkpt lat="43.55879" lon="2.99269">
        <ele>431</ele>
        <time>2017-04-16T09:01:46.000Z</time>
      </trkpt>
      <trkpt lat="43.55879" lon="2.99272">
        <ele>431.6</ele>
        <time>2017-04-16T09:01:48.000Z</time>
      </trkpt>
      <trkpt lat="43.55879" lon="2.99274">
        <ele>431.8</ele>
        <time>2017-04-16T09:01:50.000Z</time>
      </trkpt>
      <trkpt lat="43.55879" lon="2.99277">
        <ele>432.2</ele>
        <time>2017-04-16T09:01:52.000Z</time>
      </trkpt>
      <trkpt lat="43.55879" lon="2.9928">
        <ele>432.4</ele>
        <time>2017-04-16T09:01:54.000Z</time>
      </trkpt>
      <trkpt lat="43.5588" lon="2.99283">
        <ele>432.8</ele>
        <time>2017-04-16T09:01:56.000Z</time>
      </trkpt>
      <trkpt lat="43.5588" lon="2.99285">
        <ele>433.4</ele>
        <time>2017-04-16T09:01:58.000Z</time>
      </trkpt>
      <trkpt lat="43.5588" lon="2.99288">
        <ele>433.8</ele>
        <time>2017-04-16T09:02:00.000Z</time>
      </trkpt>
      <trkpt lat="43.5588" lon="2.99291">
        <ele>434.2</ele>
        <time>2017-04-16T09:02:02.000Z</time>
      </trkpt>
      <trkpt lat="43.5588" lon="2.99293">
        <ele>434.4</ele>
        <time>2017-04-16T09:02:04.000Z</time>
      </trkpt>
      <trkpt lat="43.55881" lon="2.993">
        <ele>435.2</ele>
        <time>2017-04-16T09:02:09.000Z</time>
      </trkpt>
      <trkpt lat="43.55882" lon="2.99303">
        <ele>435.6</ele>
        <time>2017-04-16T09:02:11.000Z</time>
      </trkpt>
      <trkpt lat="43.55882" lon="2.99306">
        <ele>436</ele>
        <time>2017-04-16T09:02:13.000Z</time>
      </trkpt>
      <trkpt lat="43.55882" lon="2.99308">
        <ele>436.4</ele>
        <time>2017-04-16T09:02:15.000Z</time>
      </trkpt>
      <trkpt lat="43.55882" lon="2.99311">
        <ele>436.6</ele>
        <time>2017-04-16T09:02:17.000Z</time>
      </trkpt>
      <trkpt lat="43.55883" lon="2.99315">
        <ele>437.2</ele>
        <time>2017-04-16T09:02:20.000Z</time>
      </trkpt>
      <trkpt lat="43.55883" lon="2.99317">
        <ele>437.6</ele>
        <time>2017-04-16T09:02:22.000Z</time>
      </trkpt>
      <trkpt lat="43.55884" lon="2.99321">
        <ele>438</ele>
        <time>2017-04-16T09:02:24.000Z</time>
      </trkpt>
      <trkpt lat="43.55884" lon="2.99323">
        <ele>438.4</ele>
        <time>2017-04-16T09:02:26.000Z</time>
      </trkpt>
      <trkpt lat="43.55884" lon="2.99326">
        <ele>438.6</ele>
        <time>2017-04-16T09:02:28.000Z</time>
      </trkpt>
      <trkpt lat="43.55884" lon="2.99331">
        <ele>439.2</ele>
        <time>2017-04-16T09:02:32.000Z</time>
      </trkpt>
      <trkpt lat="43.55884" lon="2.99333">
        <ele>439.8</ele>
        <time>2017-04-16T09:02:34.000Z</time>
      </trkpt>
      <trkpt lat="43.55884" lon="2.99335">
        <ele>440.2</ele>
        <time>2017-04-16T09:02:36.000Z</time>
      </trkpt>
      <trkpt lat="43.55885" lon="2.99338">
        <ele>440.4</ele>
        <time>2017-04-16T09:02:38.000Z</time>
      </trkpt>
      <trkpt lat="43.55885" lon="2.99341">
        <ele>440.8</ele>
        <time>2017-04-16T09:02:40.000Z</time>
      </trkpt>
      <trkpt lat="43.55886" lon="2.99344">
        <ele>441.2</ele>
        <time>2017-04-16T09:02:43.000Z</time>
      </trkpt>
      <trkpt lat="43.55887" lon="2.99347">
        <ele>441.8</ele>
        <time>2017-04-16T09:02:45.000Z</time>
      </trkpt>
      <trkpt lat="43.55887" lon="2.9935">
        <ele>442.2</ele>
        <time>2017-04-16T09:02:47.000Z</time>
      </trkpt>
      <trkpt lat="43.55887" lon="2.99353">
        <ele>442.6</ele>
        <time>2017-04-16T09:02:49.000Z</time>
      </trkpt>
      <trkpt lat="43.55887" lon="2.99355">
        <ele>442.8</ele>
        <time>2017-04-16T09:02:51.000Z</time>
      </trkpt>
      <trkpt lat="43.55887" lon="2.99356">
        <ele>443.2</ele>
        <time>2017-04-16T09:02:52.000Z</time>
      </trkpt>
      <trkpt lat="43.55888" lon="2.99359">
        <ele>443.6</ele>
        <time>2017-04-16T09:02:54.000Z</time>
      </trkpt>
      <trkpt lat="43.55888" lon="2.99361">
        <ele>444.2</ele>
        <time>2017-04-16T09:02:56.000Z</time>
      </trkpt>
      <trkpt lat="43.55888" lon="2.99363">
        <ele>444.2</ele>
        <time>2017-04-16T09:02:57.000Z</time>
      </trkpt>
      <trkpt lat="43.55889" lon="2.99367">
        <ele>444.8</ele>
        <time>2017-04-16T09:03:00.000Z</time>
      </trkpt>
      <trkpt lat="43.55889" lon="2.99371">
        <ele>445.4</ele>
        <time>2017-04-16T09:03:03.000Z</time>
      </trkpt>
      <trkpt lat="43.5589" lon="2.99373">
        <ele>445.8</ele>
        <time>2017-04-16T09:03:05.000Z</time>
      </trkpt>
      <trkpt lat="43.5589" lon="2.99375">
        <ele>446.4</ele>
        <time>2017-04-16T09:03:07.000Z</time>
      </trkpt>
      <trkpt lat="43.55891" lon="2.99377">
        <ele>446.6</ele>
        <time>2017-04-16T09:03:09.000Z</time>
      </trkpt>
      <trkpt lat="43.55891" lon="2.99379">
        <ele>447</ele>
        <time>2017-04-16T09:03:11.000Z</time>
      </trkpt>
      <trkpt lat="43.55892" lon="2.99386">
        <ele>447.8</ele>
        <time>2017-04-16T09:03:16.000Z</time>
      </trkpt>
      <trkpt lat="43.55892" lon="2.99388">
        <ele>448.2</ele>
        <time>2017-04-16T09:03:18.000Z</time>
      </trkpt>
      <trkpt lat="43.55892" lon="2.9939">
        <ele>448.6</ele>
        <time>2017-04-16T09:03:20.000Z</time>
      </trkpt>
      <trkpt lat="43.55892" lon="2.99392">
        <ele>449</ele>
        <time>2017-04-16T09:03:22.000Z</time>
      </trkpt>
      <trkpt lat="43.55892" lon="2.99394">
        <ele>449.2</ele>
        <time>2017-04-16T09:03:24.000Z</time>
      </trkpt>
      <trkpt lat="43.55892" lon="2.99402">
        <ele>450</ele>
        <time>2017-04-16T09:03:31.000Z</time>
      </trkpt>
      <trkpt lat="43.55892" lon="2.99404">
        <ele>450.4</ele>
        <time>2017-04-16T09:03:33.000Z</time>
      </trkpt>
      <trkpt lat="43.55893" lon="2.99406">
        <ele>450.8</ele>
        <time>2017-04-16T09:03:35.000Z</time>
      </trkpt>
      <trkpt lat="43.55894" lon="2.99408">
        <ele>451</ele>
        <time>2017-04-16T09:03:37.000Z</time>
      </trkpt>
      <trkpt lat="43.55894" lon="2.9941">
        <ele>451.4</ele>
        <time>2017-04-16T09:03:38.000Z</time>
      </trkpt>
      <trkpt lat="43.55895" lon="2.99413">
        <ele>452</ele>
        <time>2017-04-16T09:03:40.000Z</time>
      </trkpt>
      <trkpt lat="43.55895" lon="2.99416">
        <ele>452.4</ele>
        <time>2017-04-16T09:03:42.000Z</time>
      </trkpt>
      <trkpt lat="43.55895" lon="2.99418">
        <ele>452.8</ele>
        <time>2017-04-16T09:03:44.000Z</time>
      </trkpt>
      <trkpt lat="43.55895" lon="2.9942">
        <ele>453.2</ele>
        <time>2017-04-16T09:03:46.000Z</time>
      </trkpt>
      <trkpt lat="43.55895" lon="2.99425">
        <ele>453.8</ele>
        <time>2017-04-16T09:03:50.000Z</time>
      </trkpt>
      <trkpt lat="43.55896" lon="2.99428">
        <ele>454.2</ele>
        <time>2017-04-16T09:03:52.000Z</time>
      </trkpt>
      <trkpt lat="43.55896" lon="2.9943">
        <ele>454.6</ele>
        <time>2017-04-16T09:03:54.000Z</time>
      </trkpt>
      <trkpt lat="43.55896" lon="2.99431">
        <ele>455</ele>
        <time>2017-04-16T09:03:56.000Z</time>
      </trkpt>
      <trkpt lat="43.55896" lon="2.99434">
        <ele>455.4</ele>
        <time>2017-04-16T09:03:58.000Z</time>
      </trkpt>
      <trkpt lat="43.55895" lon="2.99435">
        <ele>455.6</ele>
        <time>2017-04-16T09:03:59.000Z</time>
      </trkpt>
      <trkpt lat="43.55895" lon="2.99436">
        <ele>456.2</ele>
        <time>2017-04-16T09:04:01.000Z</time>
      </trkpt>
      <trkpt lat="43.55894" lon="2.99438">
        <ele>456.6</ele>
        <time>2017-04-16T09:04:03.000Z</time>
      </trkpt>
      <trkpt lat="43.55894" lon="2.9944">
        <ele>457</ele>
        <time>2017-04-16T09:04:05.000Z</time>
      </trkpt>
      <trkpt lat="43.55894" lon="2.99442">
        <ele>457.4</ele>
        <time>2017-04-16T09:04:07.000Z</time>
      </trkpt>
      <trkpt lat="43.55894" lon="2.99449">
        <ele>458</ele>
        <time>2017-04-16T09:04:11.000Z</time>
      </trkpt>
      <trkpt lat="43.55893" lon="2.99452">
        <ele>458.6</ele>
        <time>2017-04-16T09:04:13.000Z</time>
      </trkpt>
      <trkpt lat="43.55893" lon="2.99455">
        <ele>459</ele>
        <time>2017-04-16T09:04:15.000Z</time>
      </trkpt>
      <trkpt lat="43.55893" lon="2.99457">
        <ele>459.2</ele>
        <time>2017-04-16T09:04:16.000Z</time>
      </trkpt>
      <trkpt lat="43.55892" lon="2.99463">
        <ele>459.6</ele>
        <time>2017-04-16T09:04:19.000Z</time>
      </trkpt>
      <trkpt lat="43.55883" lon="2.99482">
        <ele>460.2</ele>
        <time>2017-04-16T09:04:26.000Z</time>
      </trkpt>
      <trkpt lat="43.55869" lon="2.99498">
        <ele>460.6</ele>
        <time>2017-04-16T09:04:32.000Z</time>
      </trkpt>
      <trkpt lat="43.55854" lon="2.99515">
        <ele>460.6</ele>
        <time>2017-04-16T09:04:36.000Z</time>
      </trkpt>
      <trkpt lat="43.55846" lon="2.99525">
        <ele>460.4</ele>
        <time>2017-04-16T09:04:38.000Z</time>
      </trkpt>
      <trkpt lat="43.55837" lon="2.99535">
        <ele>460.2</ele>
        <time>2017-04-16T09:04:40.000Z</time>
      </trkpt>
      <trkpt lat="43.55829" lon="2.99544">
        <ele>459.8</ele>
        <time>2017-04-16T09:04:42.000Z</time>
      </trkpt>
      <trkpt lat="43.55819" lon="2.99555">
        <ele>459.6</ele>
        <time>2017-04-16T09:04:44.000Z</time>
      </trkpt>
      <trkpt lat="43.55815" lon="2.99557">
        <ele>459.6</ele>
        <time>2017-04-16T09:04:45.000Z</time>
      </trkpt>
      <trkpt lat="43.55812" lon="2.99558">
        <ele>459.4</ele>
        <time>2017-04-16T09:04:46.000Z</time>
      </trkpt>
      <trkpt lat="43.558" lon="2.99565">
        <ele>459</ele>
        <time>2017-04-16T09:04:52.000Z</time>
      </trkpt>
      <trkpt lat="43.55785" lon="2.99573">
        <ele>458.8</ele>
        <time>2017-04-16T09:04:57.000Z</time>
      </trkpt>
      <trkpt lat="43.55766" lon="2.99591">
        <ele>458.8</ele>
        <time>2017-04-16T09:05:02.000Z</time>
      </trkpt>
      <trkpt lat="43.55761" lon="2.99594">
        <ele>458.8</ele>
        <time>2017-04-16T09:05:03.000Z</time>
      </trkpt>
      <trkpt lat="43.55738" lon="2.9961">
        <ele>458.6</ele>
        <time>2017-04-16T09:05:07.000Z</time>
      </trkpt>
      <trkpt lat="43.55725" lon="2.99621">
        <ele>458</ele>
        <time>2017-04-16T09:05:09.000Z</time>
      </trkpt>
      <trkpt lat="43.5572" lon="2.99628">
        <ele>457.6</ele>
        <time>2017-04-16T09:05:10.000Z</time>
      </trkpt>
      <trkpt lat="43.55707" lon="2.99644">
        <ele>457</ele>
        <time>2017-04-16T09:05:12.000Z</time>
      </trkpt>
      <trkpt lat="43.55697" lon="2.99665">
        <ele>456.4</ele>
        <time>2017-04-16T09:05:14.000Z</time>
      </trkpt>
      <trkpt lat="43.55693" lon="2.99674">
        <ele>456.2</ele>
        <time>2017-04-16T09:05:15.000Z</time>
      </trkpt>
      <trkpt lat="43.5569" lon="2.99683">
        <ele>456</ele>
        <time>2017-04-16T09:05:16.000Z</time>
      </trkpt>
      <trkpt lat="43.55685" lon="2.99689">
        <ele>455.8</ele>
        <time>2017-04-16T09:05:17.000Z</time>
      </trkpt>
      <trkpt lat="43.55681" lon="2.99693">
        <ele>455.6</ele>
        <time>2017-04-16T09:05:18.000Z</time>
      </trkpt>
      <trkpt lat="43.55672" lon="2.99699">
        <ele>455.4</ele>
        <time>2017-04-16T09:05:20.000Z</time>
      </trkpt>
      <trkpt lat="43.55664" lon="2.99703">
        <ele>455.2</ele>
        <time>2017-04-16T09:05:22.000Z</time>
      </trkpt>
      <trkpt lat="43.55649" lon="2.99716">
        <ele>454.8</ele>
        <time>2017-04-16T09:05:27.000Z</time>
      </trkpt>
      <trkpt lat="43.55629" lon="2.99731">
        <ele>454.4</ele>
        <time>2017-04-16T09:05:34.000Z</time>
      </trkpt>
      <trkpt lat="43.55617" lon="2.99739">
        <ele>454.6</ele>
        <time>2017-04-16T09:05:38.000Z</time>
      </trkpt>
      <trkpt lat="43.55612" lon="2.99746">
        <ele>454.8</ele>
        <time>2017-04-16T09:05:40.000Z</time>
      </trkpt>
      <trkpt lat="43.55606" lon="2.99752">
        <ele>455</ele>
        <time>2017-04-16T09:05:42.000Z</time>
      </trkpt>
      <trkpt lat="43.55601" lon="2.9976">
        <ele>455.2</ele>
        <time>2017-04-16T09:05:44.000Z</time>
      </trkpt>
      <trkpt lat="43.55597" lon="2.99767">
        <ele>455.4</ele>
        <time>2017-04-16T09:05:46.000Z</time>
      </trkpt>
      <trkpt lat="43.55589" lon="2.99786">
        <ele>455.8</ele>
        <time>2017-04-16T09:05:51.000Z</time>
      </trkpt>
      <trkpt lat="43.55585" lon="2.99798">
        <ele>456</ele>
        <time>2017-04-16T09:05:54.000Z</time>
      </trkpt>
      <trkpt lat="43.55581" lon="2.99805">
        <ele>456.4</ele>
        <time>2017-04-16T09:05:56.000Z</time>
      </trkpt>
      <trkpt lat="43.55576" lon="2.99811">
        <ele>456.8</ele>
        <time>2017-04-16T09:05:58.000Z</time>
      </trkpt>
      <trkpt lat="43.55572" lon="2.99815">
        <ele>457.2</ele>
        <time>2017-04-16T09:06:00.000Z</time>
      </trkpt>
      <trkpt lat="43.55567" lon="2.99818">
        <ele>457.6</ele>
        <time>2017-04-16T09:06:02.000Z</time>
      </trkpt>
      <trkpt lat="43.55561" lon="2.99821">
        <ele>458</ele>
        <time>2017-04-16T09:06:04.000Z</time>
      </trkpt>
      <trkpt lat="43.55556" lon="2.99823">
        <ele>458.6</ele>
        <time>2017-04-16T09:06:06.000Z</time>
      </trkpt>
      <trkpt lat="43.5555" lon="2.99825">
        <ele>458.8</ele>
        <time>2017-04-16T09:06:08.000Z</time>
      </trkpt>
      <trkpt lat="43.55545" lon="2.99829">
        <ele>459.2</ele>
        <time>2017-04-16T09:06:10.000Z</time>
      </trkpt>
      <trkpt lat="43.55536" lon="2.99847">
        <ele>459.6</ele>
        <time>2017-04-16T09:06:15.000Z</time>
      </trkpt>
      <trkpt lat="43.55529" lon="2.99865">
        <ele>460.2</ele>
        <time>2017-04-16T09:06:20.000Z</time>
      </trkpt>
      <trkpt lat="43.55527" lon="2.99871">
        <ele>460.6</ele>
        <time>2017-04-16T09:06:22.000Z</time>
      </trkpt>
      <trkpt lat="43.55523" lon="2.99877">
        <ele>461</ele>
        <time>2017-04-16T09:06:24.000Z</time>
      </trkpt>
      <trkpt lat="43.55521" lon="2.99884">
        <ele>461.2</ele>
        <time>2017-04-16T09:06:26.000Z</time>
      </trkpt>
      <trkpt lat="43.55518" lon="2.99892">
        <ele>461.4</ele>
        <time>2017-04-16T09:06:28.000Z</time>
      </trkpt>
      <trkpt lat="43.55516" lon="2.999">
        <ele>461.8</ele>
        <time>2017-04-16T09:06:30.000Z</time>
      </trkpt>
      <trkpt lat="43.55514" lon="2.99905">
        <ele>462.4</ele>
        <time>2017-04-16T09:06:32.000Z</time>
      </trkpt>
      <trkpt lat="43.55513" lon="2.9991">
        <ele>462.8</ele>
        <time>2017-04-16T09:06:34.000Z</time>
      </trkpt>
      <trkpt lat="43.55512" lon="2.99914">
        <ele>463.2</ele>
        <time>2017-04-16T09:06:36.000Z</time>
      </trkpt>
      <trkpt lat="43.55509" lon="2.99918">
        <ele>463.4</ele>
        <time>2017-04-16T09:06:38.000Z</time>
      </trkpt>
      <trkpt lat="43.55504" lon="2.99934">
        <ele>464</ele>
        <time>2017-04-16T09:06:43.000Z</time>
      </trkpt>
      <trkpt lat="43.55501" lon="2.99939">
        <ele>464.6</ele>
        <time>2017-04-16T09:06:45.000Z</time>
      </trkpt>
      <trkpt lat="43.55499" lon="2.99945">
        <ele>465</ele>
        <time>2017-04-16T09:06:47.000Z</time>
      </trkpt>
      <trkpt lat="43.55497" lon="2.99952">
        <ele>465.2</ele>
        <time>2017-04-16T09:06:49.000Z</time>
      </trkpt>
      <trkpt lat="43.55496" lon="2.99959">
        <ele>465.6</ele>
        <time>2017-04-16T09:06:51.000Z</time>
      </trkpt>
      <trkpt lat="43.55494" lon="2.9997">
        <ele>466</ele>
        <time>2017-04-16T09:06:56.000Z</time>
      </trkpt>
      <trkpt lat="43.55494" lon="2.99974">
        <ele>466.2</ele>
        <time>2017-04-16T09:06:59.000Z</time>
      </trkpt>
      <trkpt lat="43.55493" lon="2.99973">
        <ele>468.6</ele>
        <time>2017-04-16T09:08:39.000Z</time>
      </trkpt>
      <trkpt lat="43.55493" lon="2.99974">
        <ele>468.6</ele>
        <time>2017-04-16T09:08:40.000Z</time>
      </trkpt>
      <trkpt lat="43.55493" lon="2.99974">
        <ele>468.6</ele>
        <time>2017-04-16T09:08:41.000Z</time>
      </trkpt>
      <trkpt lat="43.55493" lon="2.99975">
        <ele>468.6</ele>
        <time>2017-04-16T09:08:42.000Z</time>
      </trkpt>
      <trkpt lat="43.55493" lon="2.99976">
        <ele>468.6</ele>
        <time>2017-04-16T09:08:43.000Z</time>
      </trkpt>
      <trkpt lat="43.55492" lon="2.99979">
        <ele>468.6</ele>
        <time>2017-04-16T09:09:08.000Z</time>
      </trkpt>
      <trkpt lat="43.55492" lon="2.9998">
        <ele>468.6</ele>
        <time>2017-04-16T09:09:09.000Z</time>
      </trkpt>
      <trkpt lat="43.55492" lon="2.9998">
        <ele>468.6</ele>
        <time>2017-04-16T09:09:10.000Z</time>
      </trkpt>
      <trkpt lat="43.55494" lon="2.99985">
        <ele>468.6</ele>
        <time>2017-04-16T09:11:04.000Z</time>
      </trkpt>
      <trkpt lat="43.55494" lon="2.99986">
        <ele>468.6</ele>
        <time>2017-04-16T09:11:05.000Z</time>
      </trkpt>
      <trkpt lat="43.55493" lon="2.99987">
        <ele>468.6</ele>
        <time>2017-04-16T09:11:07.000Z</time>
      </trkpt>
      <trkpt lat="43.55492" lon="2.99989">
        <ele>468.6</ele>
        <time>2017-04-16T09:12:24.000Z</time>
      </trkpt>
      <trkpt lat="43.55492" lon="2.9999">
        <ele>468.6</ele>
        <time>2017-04-16T09:12:27.000Z</time>
      </trkpt>
      <trkpt lat="43.55493" lon="2.9999">
        <ele>469.6</ele>
        <time>2017-04-16T09:12:31.000Z</time>
      </trkpt>
      <trkpt lat="43.5549" lon="2.9999">
        <ele>469.8</ele>
        <time>2017-04-16T09:12:32.000Z</time>
      </trkpt>
      <trkpt lat="43.55488" lon="2.9999">
        <ele>470</ele>
        <time>2017-04-16T09:12:33.000Z</time>
      </trkpt>
      <trkpt lat="43.55487" lon="2.9999">
        <ele>470.2</ele>
        <time>2017-04-16T09:12:34.000Z</time>
      </trkpt>
      <trkpt lat="43.55483" lon="2.9999">
        <ele>470.6</ele>
        <time>2017-04-16T09:12:36.000Z</time>
      </trkpt>
      <trkpt lat="43.55482" lon="2.9999">
        <ele>471</ele>
        <time>2017-04-16T09:12:38.000Z</time>
      </trkpt>
      <trkpt lat="43.55479" lon="2.99991">
        <ele>472</ele>
        <time>2017-04-16T09:12:56.000Z</time>
      </trkpt>
      <trkpt lat="43.55478" lon="2.99992">
        <ele>472</ele>
        <time>2017-04-16T09:12:58.000Z</time>
      </trkpt>
      <trkpt lat="43.55477" lon="2.99993">
        <ele>472</ele>
        <time>2017-04-16T09:13:02.000Z</time>
      </trkpt>
      <trkpt lat="43.55476" lon="2.9999">
        <ele>472</ele>
        <time>2017-04-16T09:13:25.000Z</time>
      </trkpt>
      <trkpt lat="43.55476" lon="2.99989">
        <ele>472</ele>
        <time>2017-04-16T09:13:27.000Z</time>
      </trkpt>
      <trkpt lat="43.55473" lon="2.99993">
        <ele>472</ele>
        <time>2017-04-16T09:14:21.000Z</time>
      </trkpt>
      <trkpt lat="43.55472" lon="2.99993">
        <ele>472</ele>
        <time>2017-04-16T09:14:23.000Z</time>
      </trkpt>
      <trkpt lat="43.55466" lon="2.99991">
        <ele>472</ele>
        <time>2017-04-16T09:15:19.000Z</time>
      </trkpt>
      <trkpt lat="43.55463" lon="2.99991">
        <ele>472</ele>
        <time>2017-04-16T09:15:24.000Z</time>
      </trkpt>
      <trkpt lat="43.55462" lon="2.99992">
        <ele>472</ele>
        <time>2017-04-16T09:15:31.000Z</time>
      </trkpt>
      <trkpt lat="43.55461" lon="2.99993">
        <ele>472</ele>
        <time>2017-04-16T09:15:32.000Z</time>
      </trkpt>
      <trkpt lat="43.55453" lon="2.99989">
        <ele>472</ele>
        <time>2017-04-16T09:15:36.000Z</time>
      </trkpt>
      <trkpt lat="43.55449" lon="2.99985">
        <ele>472</ele>
        <time>2017-04-16T09:15:37.000Z</time>
      </trkpt>
      <trkpt lat="43.55444" lon="2.99982">
        <ele>472</ele>
        <time>2017-04-16T09:15:38.000Z</time>
      </trkpt>
      <trkpt lat="43.55435" lon="2.99973">
        <ele>472</ele>
        <time>2017-04-16T09:15:40.000Z</time>
      </trkpt>
      <trkpt lat="43.55431" lon="2.9996">
        <ele>471.6</ele>
        <time>2017-04-16T09:15:43.000Z</time>
      </trkpt>
      <trkpt lat="43.55428" lon="2.99957">
        <ele>471.2</ele>
        <time>2017-04-16T09:15:44.000Z</time>
      </trkpt>
      <trkpt lat="43.55426" lon="2.99954">
        <ele>470.8</ele>
        <time>2017-04-16T09:15:45.000Z</time>
      </trkpt>
      <trkpt lat="43.55424" lon="2.99951">
        <ele>470.4</ele>
        <time>2017-04-16T09:15:46.000Z</time>
      </trkpt>
      <trkpt lat="43.55422" lon="2.9995">
        <ele>470.2</ele>
        <time>2017-04-16T09:15:47.000Z</time>
      </trkpt>
      <trkpt lat="43.55405" lon="2.99945">
        <ele>468.8</ele>
        <time>2017-04-16T09:15:50.000Z</time>
      </trkpt>
      <trkpt lat="43.55397" lon="2.99945">
        <ele>468.2</ele>
        <time>2017-04-16T09:15:52.000Z</time>
      </trkpt>
      <trkpt lat="43.55393" lon="2.99944">
        <ele>467.6</ele>
        <time>2017-04-16T09:15:54.000Z</time>
      </trkpt>
      <trkpt lat="43.55388" lon="2.99943">
        <ele>467.2</ele>
        <time>2017-04-16T09:15:56.000Z</time>
      </trkpt>
      <trkpt lat="43.55383" lon="2.9994">
        <ele>467</ele>
        <time>2017-04-16T09:15:57.000Z</time>
      </trkpt>
      <trkpt lat="43.5538" lon="2.9994">
        <ele>466.8</ele>
        <time>2017-04-16T09:15:58.000Z</time>
      </trkpt>
      <trkpt lat="43.55373" lon="2.99947">
        <ele>466.4</ele>
        <time>2017-04-16T09:16:01.000Z</time>
      </trkpt>
      <trkpt lat="43.55373" lon="2.9996">
        <ele>466</ele>
        <time>2017-04-16T09:16:04.000Z</time>
      </trkpt>
      <trkpt lat="43.55372" lon="2.99963">
        <ele>466</ele>
        <time>2017-04-16T09:16:05.000Z</time>
      </trkpt>
      <trkpt lat="43.55374" lon="2.99967">
        <ele>465.8</ele>
        <time>2017-04-16T09:16:06.000Z</time>
      </trkpt>
      <trkpt lat="43.55374" lon="2.99971">
        <ele>466</ele>
        <time>2017-04-16T09:16:07.000Z</time>
      </trkpt>
      <trkpt lat="43.55373" lon="2.99978">
        <ele>466.2</ele>
        <time>2017-04-16T09:16:09.000Z</time>
      </trkpt>
      <trkpt lat="43.55373" lon="2.9998">
        <ele>466.4</ele>
        <time>2017-04-16T09:16:10.000Z</time>
      </trkpt>
      <trkpt lat="43.55373" lon="2.99983">
        <ele>466.4</ele>
        <time>2017-04-16T09:16:11.000Z</time>
      </trkpt>
      <trkpt lat="43.55375" lon="2.99985">
        <ele>466.6</ele>
        <time>2017-04-16T09:16:12.000Z</time>
      </trkpt>
      <trkpt lat="43.55376" lon="2.99988">
        <ele>466.6</ele>
        <time>2017-04-16T09:16:13.000Z</time>
      </trkpt>
      <trkpt lat="43.55381" lon="2.99994">
        <ele>466.8</ele>
        <time>2017-04-16T09:16:15.000Z</time>
      </trkpt>
      <trkpt lat="43.55394" lon="3.00005">
        <ele>467</ele>
        <time>2017-04-16T09:16:20.000Z</time>
      </trkpt>
      <trkpt lat="43.55394" lon="3.00006">
        <ele>467</ele>
        <time>2017-04-16T09:16:21.000Z</time>
      </trkpt>
      <trkpt lat="43.55391" lon="3.00012">
        <ele>466.8</ele>
        <time>2017-04-16T09:16:23.000Z</time>
      </trkpt>
      <trkpt lat="43.55393" lon="3.00018">
        <ele>466.4</ele>
        <time>2017-04-16T09:16:25.000Z</time>
      </trkpt>
      <trkpt lat="43.55394" lon="3.00025">
        <ele>466</ele>
        <time>2017-04-16T09:16:26.000Z</time>
      </trkpt>
      <trkpt lat="43.55396" lon="3.00034">
        <ele>464.8</ele>
        <time>2017-04-16T09:16:28.000Z</time>
      </trkpt>
      <trkpt lat="43.55397" lon="3.00048">
        <ele>463.4</ele>
        <time>2017-04-16T09:16:30.000Z</time>
      </trkpt>
      <trkpt lat="43.55399" lon="3.00057">
        <ele>461.8</ele>
        <time>2017-04-16T09:16:32.000Z</time>
      </trkpt>
      <trkpt lat="43.55403" lon="3.00062">
        <ele>460</ele>
        <time>2017-04-16T09:16:34.000Z</time>
      </trkpt>
      <trkpt lat="43.55406" lon="3.00068">
        <ele>458</ele>
        <time>2017-04-16T09:16:36.000Z</time>
      </trkpt>
      <trkpt lat="43.55409" lon="3.00071">
        <ele>457</ele>
        <time>2017-04-16T09:16:37.000Z</time>
      </trkpt>
      <trkpt lat="43.55414" lon="3.00077">
        <ele>455.2</ele>
        <time>2017-04-16T09:16:39.000Z</time>
      </trkpt>
      <trkpt lat="43.55419" lon="3.00081">
        <ele>453.4</ele>
        <time>2017-04-16T09:16:41.000Z</time>
      </trkpt>
      <trkpt lat="43.55421" lon="3.00083">
        <ele>452.6</ele>
        <time>2017-04-16T09:16:42.000Z</time>
      </trkpt>
      <trkpt lat="43.55428" lon="3.00095">
        <ele>450.2</ele>
        <time>2017-04-16T09:16:45.000Z</time>
      </trkpt>
      <trkpt lat="43.55429" lon="3.00098">
        <ele>449.4</ele>
        <time>2017-04-16T09:16:46.000Z</time>
      </trkpt>
      <trkpt lat="43.55428" lon="3.00099">
        <ele>447.8</ele>
        <time>2017-04-16T09:16:48.000Z</time>
      </trkpt>
      <trkpt lat="43.55425" lon="3.00095">
        <ele>447</ele>
        <time>2017-04-16T09:16:49.000Z</time>
      </trkpt>
      <trkpt lat="43.55417" lon="3.00091">
        <ele>445</ele>
        <time>2017-04-16T09:16:51.000Z</time>
      </trkpt>
      <trkpt lat="43.55413" lon="3.00093">
        <ele>443.4</ele>
        <time>2017-04-16T09:16:53.000Z</time>
      </trkpt>
      <trkpt lat="43.55411" lon="3.00094">
        <ele>442.4</ele>
        <time>2017-04-16T09:16:54.000Z</time>
      </trkpt>
      <trkpt lat="43.55409" lon="3.001">
        <ele>440.8</ele>
        <time>2017-04-16T09:16:56.000Z</time>
      </trkpt>
      <trkpt lat="43.5541" lon="3.00108">
        <ele>440</ele>
        <time>2017-04-16T09:16:57.000Z</time>
      </trkpt>
      <trkpt lat="43.55411" lon="3.00124">
        <ele>438.2</ele>
        <time>2017-04-16T09:16:59.000Z</time>
      </trkpt>
      <trkpt lat="43.55412" lon="3.00134">
        <ele>436.2</ele>
        <time>2017-04-16T09:17:01.000Z</time>
      </trkpt>
      <trkpt lat="43.55407" lon="3.00137">
        <ele>434.2</ele>
        <time>2017-04-16T09:17:03.000Z</time>
      </trkpt>
      <trkpt lat="43.55396" lon="3.00133">
        <ele>432.4</ele>
        <time>2017-04-16T09:17:05.000Z</time>
      </trkpt>
      <trkpt lat="43.55391" lon="3.00132">
        <ele>431.4</ele>
        <time>2017-04-16T09:17:06.000Z</time>
      </trkpt>
      <trkpt lat="43.55386" lon="3.00131">
        <ele>430.4</ele>
        <time>2017-04-16T09:17:07.000Z</time>
      </trkpt>
      <trkpt lat="43.55381" lon="3.00131">
        <ele>429.6</ele>
        <time>2017-04-16T09:17:08.000Z</time>
      </trkpt>
      <trkpt lat="43.55377" lon="3.0013">
        <ele>428.4</ele>
        <time>2017-04-16T09:17:09.000Z</time>
      </trkpt>
      <trkpt lat="43.55376" lon="3.00131">
        <ele>427.6</ele>
        <time>2017-04-16T09:17:10.000Z</time>
      </trkpt>
      <trkpt lat="43.55383" lon="3.0014">
        <ele>424.6</ele>
        <time>2017-04-16T09:17:13.000Z</time>
      </trkpt>
      <trkpt lat="43.55385" lon="3.00143">
        <ele>423.8</ele>
        <time>2017-04-16T09:17:14.000Z</time>
      </trkpt>
      <trkpt lat="43.55391" lon="3.00154">
        <ele>422</ele>
        <time>2017-04-16T09:17:16.000Z</time>
      </trkpt>
      <trkpt lat="43.55401" lon="3.00164">
        <ele>420.2</ele>
        <time>2017-04-16T09:17:18.000Z</time>
      </trkpt>
      <trkpt lat="43.55415" lon="3.00171">
        <ele>418.2</ele>
        <time>2017-04-16T09:17:20.000Z</time>
      </trkpt>
      <trkpt lat="43.55421" lon="3.00174">
        <ele>417.4</ele>
        <time>2017-04-16T09:17:21.000Z</time>
      </trkpt>
      <trkpt lat="43.55424" lon="3.0018">
        <ele>416.4</ele>
        <time>2017-04-16T09:17:22.000Z</time>
      </trkpt>
      <trkpt lat="43.55419" lon="3.00189">
        <ele>414.6</ele>
        <time>2017-04-16T09:17:24.000Z</time>
      </trkpt>
      <trkpt lat="43.55415" lon="3.00193">
        <ele>413.6</ele>
        <time>2017-04-16T09:17:25.000Z</time>
      </trkpt>
      <trkpt lat="43.55406" lon="3.00197">
        <ele>412.6</ele>
        <time>2017-04-16T09:17:26.000Z</time>
      </trkpt>
      <trkpt lat="43.55393" lon="3.00204">
        <ele>411.2</ele>
        <time>2017-04-16T09:17:28.000Z</time>
      </trkpt>
      <trkpt lat="43.55379" lon="3.00209">
        <ele>409.4</ele>
        <time>2017-04-16T09:17:30.000Z</time>
      </trkpt>
      <trkpt lat="43.55361" lon="3.0022">
        <ele>407.4</ele>
        <time>2017-04-16T09:17:33.000Z</time>
      </trkpt>
      <trkpt lat="43.55356" lon="3.00222">
        <ele>406.8</ele>
        <time>2017-04-16T09:17:34.000Z</time>
      </trkpt>
      <trkpt lat="43.5535" lon="3.00225">
        <ele>405.6</ele>
        <time>2017-04-16T09:17:36.000Z</time>
      </trkpt>
      <trkpt lat="43.55345" lon="3.00228">
        <ele>404.4</ele>
        <time>2017-04-16T09:17:38.000Z</time>
      </trkpt>
      <trkpt lat="43.55341" lon="3.00231">
        <ele>404</ele>
        <time>2017-04-16T09:17:39.000Z</time>
      </trkpt>
      <trkpt lat="43.55336" lon="3.00236">
        <ele>403.6</ele>
        <time>2017-04-16T09:17:40.000Z</time>
      </trkpt>
      <trkpt lat="43.55332" lon="3.00241">
        <ele>403.4</ele>
        <time>2017-04-16T09:17:41.000Z</time>
      </trkpt>
      <trkpt lat="43.55331" lon="3.0025">
        <ele>403</ele>
        <time>2017-04-16T09:17:42.000Z</time>
      </trkpt>
      <trkpt lat="43.55332" lon="3.00269">
        <ele>402.2</ele>
        <time>2017-04-16T09:17:44.000Z</time>
      </trkpt>
      <trkpt lat="43.55332" lon="3.00278">
        <ele>401.8</ele>
        <time>2017-04-16T09:17:45.000Z</time>
      </trkpt>
      <trkpt lat="43.55333" lon="3.00285">
        <ele>401.4</ele>
        <time>2017-04-16T09:17:46.000Z</time>
      </trkpt>
      <trkpt lat="43.5533" lon="3.00296">
        <ele>400.4</ele>
        <time>2017-04-16T09:17:48.000Z</time>
      </trkpt>
      <trkpt lat="43.55328" lon="3.00303">
        <ele>399.6</ele>
        <time>2017-04-16T09:17:50.000Z</time>
      </trkpt>
      <trkpt lat="43.55326" lon="3.00312">
        <ele>398.8</ele>
        <time>2017-04-16T09:17:52.000Z</time>
      </trkpt>
      <trkpt lat="43.55323" lon="3.00318">
        <ele>398.6</ele>
        <time>2017-04-16T09:17:53.000Z</time>
      </trkpt>
      <trkpt lat="43.55319" lon="3.00327">
        <ele>398.2</ele>
        <time>2017-04-16T09:17:54.000Z</time>
      </trkpt>
      <trkpt lat="43.55316" lon="3.00336">
        <ele>397.8</ele>
        <time>2017-04-16T09:17:55.000Z</time>
      </trkpt>
      <trkpt lat="43.55314" lon="3.00344">
        <ele>397.2</ele>
        <time>2017-04-16T09:17:56.000Z</time>
      </trkpt>
      <trkpt lat="43.55311" lon="3.00367">
        <ele>395.2</ele>
        <time>2017-04-16T09:17:59.000Z</time>
      </trkpt>
      <trkpt lat="43.55311" lon="3.00373">
        <ele>394.4</ele>
        <time>2017-04-16T09:18:00.000Z</time>
      </trkpt>
      <trkpt lat="43.55312" lon="3.00392">
        <ele>392.8</ele>
        <time>2017-04-16T09:18:02.000Z</time>
      </trkpt>
      <trkpt lat="43.55307" lon="3.00415">
        <ele>391</ele>
        <time>2017-04-16T09:18:04.000Z</time>
      </trkpt>
      <trkpt lat="43.55309" lon="3.00427">
        <ele>390.2</ele>
        <time>2017-04-16T09:18:05.000Z</time>
      </trkpt>
      <trkpt lat="43.55313" lon="3.00434">
        <ele>389.2</ele>
        <time>2017-04-16T09:18:06.000Z</time>
      </trkpt>
      <trkpt lat="43.55316" lon="3.0045">
        <ele>387.4</ele>
        <time>2017-04-16T09:18:08.000Z</time>
      </trkpt>
      <trkpt lat="43.55316" lon="3.00455">
        <ele>386.2</ele>
        <time>2017-04-16T09:18:09.000Z</time>
      </trkpt>
      <trkpt lat="43.55318" lon="3.00462">
        <ele>384.6</ele>
        <time>2017-04-16T09:18:11.000Z</time>
      </trkpt>
      <trkpt lat="43.55319" lon="3.00466">
        <ele>383</ele>
        <time>2017-04-16T09:18:13.000Z</time>
      </trkpt>
      <trkpt lat="43.5532" lon="3.00469">
        <ele>381.8</ele>
        <time>2017-04-16T09:18:15.000Z</time>
      </trkpt>
      <trkpt lat="43.55322" lon="3.00468">
        <ele>381</ele>
        <time>2017-04-16T09:18:17.000Z</time>
      </trkpt>
      <trkpt lat="43.55324" lon="3.00466">
        <ele>379.8</ele>
        <time>2017-04-16T09:18:20.000Z</time>
      </trkpt>
      <trkpt lat="43.55324" lon="3.00467">
        <ele>379.2</ele>
        <time>2017-04-16T09:18:22.000Z</time>
      </trkpt>
      <trkpt lat="43.55325" lon="3.00468">
        <ele>378.8</ele>
        <time>2017-04-16T09:18:24.000Z</time>
      </trkpt>
      <trkpt lat="43.55326" lon="3.0047">
        <ele>378.4</ele>
        <time>2017-04-16T09:18:26.000Z</time>
      </trkpt>
      <trkpt lat="43.55328" lon="3.00472">
        <ele>377.6</ele>
        <time>2017-04-16T09:18:34.000Z</time>
      </trkpt>
      <trkpt lat="43.5533" lon="3.00479">
        <ele>377.4</ele>
        <time>2017-04-16T09:18:37.000Z</time>
      </trkpt>
      <trkpt lat="43.55326" lon="3.00496">
        <ele>377.4</ele>
        <time>2017-04-16T09:18:44.000Z</time>
      </trkpt>
      <trkpt lat="43.55326" lon="3.00502">
        <ele>377.6</ele>
        <time>2017-04-16T09:18:46.000Z</time>
      </trkpt>
      <trkpt lat="43.55325" lon="3.00507">
        <ele>378</ele>
        <time>2017-04-16T09:18:48.000Z</time>
      </trkpt>
      <trkpt lat="43.55324" lon="3.0051">
        <ele>378</ele>
        <time>2017-04-16T09:18:49.000Z</time>
      </trkpt>
      <trkpt lat="43.55324" lon="3.00511">
        <ele>378.2</ele>
        <time>2017-04-16T09:18:50.000Z</time>
      </trkpt>
      <trkpt lat="43.55322" lon="3.00514">
        <ele>378.2</ele>
        <time>2017-04-16T09:18:52.000Z</time>
      </trkpt>
      <trkpt lat="43.55323" lon="3.00516">
        <ele>378.4</ele>
        <time>2017-04-16T09:18:53.000Z</time>
      </trkpt>
      <trkpt lat="43.55326" lon="3.00537">
        <ele>378.6</ele>
        <time>2017-04-16T09:18:59.000Z</time>
      </trkpt>
      <trkpt lat="43.55325" lon="3.0054">
        <ele>379</ele>
        <time>2017-04-16T09:19:00.000Z</time>
      </trkpt>
      <trkpt lat="43.55325" lon="3.00544">
        <ele>379.2</ele>
        <time>2017-04-16T09:19:01.000Z</time>
      </trkpt>
      <trkpt lat="43.55323" lon="3.00548">
        <ele>379.6</ele>
        <time>2017-04-16T09:19:03.000Z</time>
      </trkpt>
      <trkpt lat="43.55323" lon="3.00551">
        <ele>379.8</ele>
        <time>2017-04-16T09:19:04.000Z</time>
      </trkpt>
      <trkpt lat="43.55324" lon="3.00556">
        <ele>380</ele>
        <time>2017-04-16T09:19:06.000Z</time>
      </trkpt>
      <trkpt lat="43.55326" lon="3.00563">
        <ele>380.2</ele>
        <time>2017-04-16T09:19:08.000Z</time>
      </trkpt>
      <trkpt lat="43.55327" lon="3.00567">
        <ele>380.6</ele>
        <time>2017-04-16T09:19:09.000Z</time>
      </trkpt>
      <trkpt lat="43.55326" lon="3.00572">
        <ele>381.2</ele>
        <time>2017-04-16T09:19:11.000Z</time>
      </trkpt>
      <trkpt lat="43.55327" lon="3.00574">
        <ele>381.4</ele>
        <time>2017-04-16T09:19:12.000Z</time>
      </trkpt>
      <trkpt lat="43.55326" lon="3.00577">
        <ele>381.6</ele>
        <time>2017-04-16T09:19:13.000Z</time>
      </trkpt>
      <trkpt lat="43.55326" lon="3.00587">
        <ele>382</ele>
        <time>2017-04-16T09:19:15.000Z</time>
      </trkpt>
      <trkpt lat="43.55326" lon="3.00592">
        <ele>382.2</ele>
        <time>2017-04-16T09:19:16.000Z</time>
      </trkpt>
      <trkpt lat="43.55323" lon="3.00595">
        <ele>382.2</ele>
        <time>2017-04-16T09:19:17.000Z</time>
      </trkpt>
      <trkpt lat="43.55319" lon="3.006">
        <ele>382.6</ele>
        <time>2017-04-16T09:19:20.000Z</time>
      </trkpt>
      <trkpt lat="43.55315" lon="3.00606">
        <ele>383</ele>
        <time>2017-04-16T09:19:23.000Z</time>
      </trkpt>
      <trkpt lat="43.55312" lon="3.0061">
        <ele>383.6</ele>
        <time>2017-04-16T09:19:25.000Z</time>
      </trkpt>
      <trkpt lat="43.5531" lon="3.00612">
        <ele>384</ele>
        <time>2017-04-16T09:19:27.000Z</time>
      </trkpt>
      <trkpt lat="43.55307" lon="3.00616">
        <ele>384.2</ele>
        <time>2017-04-16T09:19:29.000Z</time>
      </trkpt>
      <trkpt lat="43.55302" lon="3.00619">
        <ele>384.6</ele>
        <time>2017-04-16T09:19:31.000Z</time>
      </trkpt>
      <trkpt lat="43.55302" lon="3.00622">
        <ele>384.6</ele>
        <time>2017-04-16T09:19:32.000Z</time>
      </trkpt>
      <trkpt lat="43.55295" lon="3.00639">
        <ele>385</ele>
        <time>2017-04-16T09:19:37.000Z</time>
      </trkpt>
      <trkpt lat="43.55294" lon="3.00646">
        <ele>385.2</ele>
        <time>2017-04-16T09:19:40.000Z</time>
      </trkpt>
      <trkpt lat="43.55292" lon="3.00654">
        <ele>385.4</ele>
        <time>2017-04-16T09:19:44.000Z</time>
      </trkpt>
      <trkpt lat="43.55291" lon="3.00655">
        <ele>385.4</ele>
        <time>2017-04-16T09:19:45.000Z</time>
      </trkpt>
      <trkpt lat="43.5529" lon="3.0066">
        <ele>385.4</ele>
        <time>2017-04-16T09:19:46.000Z</time>
      </trkpt>
      <trkpt lat="43.55285" lon="3.00672">
        <ele>385.4</ele>
        <time>2017-04-16T09:19:50.000Z</time>
      </trkpt>
      <trkpt lat="43.55282" lon="3.00676">
        <ele>385.6</ele>
        <time>2017-04-16T09:19:52.000Z</time>
      </trkpt>
      <trkpt lat="43.55281" lon="3.00687">
        <ele>386</ele>
        <time>2017-04-16T09:19:54.000Z</time>
      </trkpt>
      <trkpt lat="43.5528" lon="3.00704">
        <ele>386.4</ele>
        <time>2017-04-16T09:19:56.000Z</time>
      </trkpt>
      <trkpt lat="43.55278" lon="3.0072">
        <ele>386.6</ele>
        <time>2017-04-16T09:19:58.000Z</time>
      </trkpt>
      <trkpt lat="43.55275" lon="3.00728">
        <ele>386.8</ele>
        <time>2017-04-16T09:20:00.000Z</time>
      </trkpt>
      <trkpt lat="43.55274" lon="3.00731">
        <ele>387</ele>
        <time>2017-04-16T09:20:01.000Z</time>
      </trkpt>
      <trkpt lat="43.55273" lon="3.00748">
        <ele>387.2</ele>
        <time>2017-04-16T09:20:05.000Z</time>
      </trkpt>
      <trkpt lat="43.55269" lon="3.0075">
        <ele>387.4</ele>
        <time>2017-04-16T09:20:06.000Z</time>
      </trkpt>
      <trkpt lat="43.55263" lon="3.00757">
        <ele>388</ele>
        <time>2017-04-16T09:20:08.000Z</time>
      </trkpt>
      <trkpt lat="43.55261" lon="3.00764">
        <ele>388.2</ele>
        <time>2017-04-16T09:20:10.000Z</time>
      </trkpt>
      <trkpt lat="43.55262" lon="3.00772">
        <ele>388.6</ele>
        <time>2017-04-16T09:20:12.000Z</time>
      </trkpt>
      <trkpt lat="43.55261" lon="3.00782">
        <ele>388.8</ele>
        <time>2017-04-16T09:20:14.000Z</time>
      </trkpt>
      <trkpt lat="43.55261" lon="3.00805">
        <ele>389.4</ele>
        <time>2017-04-16T09:20:18.000Z</time>
      </trkpt>
      <trkpt lat="43.55262" lon="3.00812">
        <ele>389.6</ele>
        <time>2017-04-16T09:20:19.000Z</time>
      </trkpt>
      <trkpt lat="43.5526" lon="3.00828">
        <ele>390.2</ele>
        <time>2017-04-16T09:20:22.000Z</time>
      </trkpt>
      <trkpt lat="43.55258" lon="3.00837">
        <ele>390.6</ele>
        <time>2017-04-16T09:20:24.000Z</time>
      </trkpt>
      <trkpt lat="43.55256" lon="3.00844">
        <ele>390.8</ele>
        <time>2017-04-16T09:20:26.000Z</time>
      </trkpt>
      <trkpt lat="43.55256" lon="3.00847">
        <ele>391</ele>
        <time>2017-04-16T09:20:27.000Z</time>
      </trkpt>
      <trkpt lat="43.55254" lon="3.00863">
        <ele>391.2</ele>
        <time>2017-04-16T09:20:30.000Z</time>
      </trkpt>
      <trkpt lat="43.55249" lon="3.00884">
        <ele>391.6</ele>
        <time>2017-04-16T09:20:35.000Z</time>
      </trkpt>
      <trkpt lat="43.55251" lon="3.00889">
        <ele>391.6</ele>
        <time>2017-04-16T09:20:36.000Z</time>
      </trkpt>
      <trkpt lat="43.55251" lon="3.00902">
        <ele>391.6</ele>
        <time>2017-04-16T09:20:39.000Z</time>
      </trkpt>
      <trkpt lat="43.55248" lon="3.00907">
        <ele>392.4</ele>
        <time>2017-04-16T09:20:42.000Z</time>
      </trkpt>
      <trkpt lat="43.55247" lon="3.00913">
        <ele>392.6</ele>
        <time>2017-04-16T09:20:44.000Z</time>
      </trkpt>
      <trkpt lat="43.55245" lon="3.0092">
        <ele>393</ele>
        <time>2017-04-16T09:20:46.000Z</time>
      </trkpt>
      <trkpt lat="43.55245" lon="3.00924">
        <ele>393.2</ele>
        <time>2017-04-16T09:20:48.000Z</time>
      </trkpt>
      <trkpt lat="43.55246" lon="3.00944">
        <ele>393.6</ele>
        <time>2017-04-16T09:20:53.000Z</time>
      </trkpt>
      <trkpt lat="43.55247" lon="3.00947">
        <ele>393.6</ele>
        <time>2017-04-16T09:20:54.000Z</time>
      </trkpt>
      <trkpt lat="43.55248" lon="3.00948">
        <ele>393.6</ele>
        <time>2017-04-16T09:20:55.000Z</time>
      </trkpt>
      <trkpt lat="43.55249" lon="3.0096">
        <ele>394</ele>
        <time>2017-04-16T09:20:59.000Z</time>
      </trkpt>
      <trkpt lat="43.55248" lon="3.00964">
        <ele>394.2</ele>
        <time>2017-04-16T09:21:00.000Z</time>
      </trkpt>
      <trkpt lat="43.55248" lon="3.00967">
        <ele>394.4</ele>
        <time>2017-04-16T09:21:01.000Z</time>
      </trkpt>
      <trkpt lat="43.55246" lon="3.0097">
        <ele>394.6</ele>
        <time>2017-04-16T09:21:02.000Z</time>
      </trkpt>
      <trkpt lat="43.55245" lon="3.00973">
        <ele>394.8</ele>
        <time>2017-04-16T09:21:03.000Z</time>
      </trkpt>
      <trkpt lat="43.55244" lon="3.00979">
        <ele>395</ele>
        <time>2017-04-16T09:21:05.000Z</time>
      </trkpt>
      <trkpt lat="43.55244" lon="3.00982">
        <ele>395.2</ele>
        <time>2017-04-16T09:21:06.000Z</time>
      </trkpt>
      <trkpt lat="43.55241" lon="3.00987">
        <ele>395.6</ele>
        <time>2017-04-16T09:21:09.000Z</time>
      </trkpt>
      <trkpt lat="43.55237" lon="3.00991">
        <ele>396.2</ele>
        <time>2017-04-16T09:21:11.000Z</time>
      </trkpt>
      <trkpt lat="43.55235" lon="3.00993">
        <ele>396.4</ele>
        <time>2017-04-16T09:21:12.000Z</time>
      </trkpt>
      <trkpt lat="43.55233" lon="3.00995">
        <ele>396.6</ele>
        <time>2017-04-16T09:21:13.000Z</time>
      </trkpt>
      <trkpt lat="43.5523" lon="3.01">
        <ele>396.8</ele>
        <time>2017-04-16T09:21:15.000Z</time>
      </trkpt>
      <trkpt lat="43.55228" lon="3.01005">
        <ele>397</ele>
        <time>2017-04-16T09:21:17.000Z</time>
      </trkpt>
      <trkpt lat="43.55224" lon="3.01016">
        <ele>397.6</ele>
        <time>2017-04-16T09:21:20.000Z</time>
      </trkpt>
      <trkpt lat="43.55222" lon="3.01021">
        <ele>398.2</ele>
        <time>2017-04-16T09:21:22.000Z</time>
      </trkpt>
      <trkpt lat="43.55219" lon="3.01025">
        <ele>398.6</ele>
        <time>2017-04-16T09:21:24.000Z</time>
      </trkpt>
      <trkpt lat="43.55215" lon="3.0103">
        <ele>399</ele>
        <time>2017-04-16T09:21:26.000Z</time>
      </trkpt>
      <trkpt lat="43.55212" lon="3.01039">
        <ele>399.4</ele>
        <time>2017-04-16T09:21:28.000Z</time>
      </trkpt>
      <trkpt lat="43.55209" lon="3.01045">
        <ele>400</ele>
        <time>2017-04-16T09:21:30.000Z</time>
      </trkpt>
      <trkpt lat="43.55205" lon="3.01051">
        <ele>400.4</ele>
        <time>2017-04-16T09:21:32.000Z</time>
      </trkpt>
      <trkpt lat="43.55203" lon="3.01055">
        <ele>400.8</ele>
        <time>2017-04-16T09:21:34.000Z</time>
      </trkpt>
      <trkpt lat="43.552" lon="3.01059">
        <ele>401.2</ele>
        <time>2017-04-16T09:21:36.000Z</time>
      </trkpt>
      <trkpt lat="43.55197" lon="3.01065">
        <ele>401.8</ele>
        <time>2017-04-16T09:21:40.000Z</time>
      </trkpt>
      <trkpt lat="43.55196" lon="3.01069">
        <ele>402.4</ele>
        <time>2017-04-16T09:21:42.000Z</time>
      </trkpt>
      <trkpt lat="43.55191" lon="3.01075">
        <ele>402.8</ele>
        <time>2017-04-16T09:21:44.000Z</time>
      </trkpt>
      <trkpt lat="43.55188" lon="3.0108">
        <ele>403</ele>
        <time>2017-04-16T09:21:46.000Z</time>
      </trkpt>
      <trkpt lat="43.55186" lon="3.01084">
        <ele>403.4</ele>
        <time>2017-04-16T09:21:48.000Z</time>
      </trkpt>
      <trkpt lat="43.55184" lon="3.01089">
        <ele>403.8</ele>
        <time>2017-04-16T09:21:50.000Z</time>
      </trkpt>
      <trkpt lat="43.55182" lon="3.01092">
        <ele>404.4</ele>
        <time>2017-04-16T09:21:52.000Z</time>
      </trkpt>
      <trkpt lat="43.55179" lon="3.01096">
        <ele>404.6</ele>
        <time>2017-04-16T09:21:53.000Z</time>
      </trkpt>
      <trkpt lat="43.55176" lon="3.01102">
        <ele>405.2</ele>
        <time>2017-04-16T09:21:56.000Z</time>
      </trkpt>
      <trkpt lat="43.55172" lon="3.01107">
        <ele>405.6</ele>
        <time>2017-04-16T09:21:58.000Z</time>
      </trkpt>
      <trkpt lat="43.55169" lon="3.01111">
        <ele>406.2</ele>
        <time>2017-04-16T09:22:00.000Z</time>
      </trkpt>
      <trkpt lat="43.55167" lon="3.01114">
        <ele>406.4</ele>
        <time>2017-04-16T09:22:01.000Z</time>
      </trkpt>
      <trkpt lat="43.55159" lon="3.01119">
        <ele>407</ele>
        <time>2017-04-16T09:22:04.000Z</time>
      </trkpt>
      <trkpt lat="43.55156" lon="3.01123">
        <ele>407.4</ele>
        <time>2017-04-16T09:22:06.000Z</time>
      </trkpt>
      <trkpt lat="43.55153" lon="3.01127">
        <ele>407.8</ele>
        <time>2017-04-16T09:22:09.000Z</time>
      </trkpt>
      <trkpt lat="43.55147" lon="3.01134">
        <ele>408.2</ele>
        <time>2017-04-16T09:22:12.000Z</time>
      </trkpt>
      <trkpt lat="43.55142" lon="3.01139">
        <ele>408.6</ele>
        <time>2017-04-16T09:22:14.000Z</time>
      </trkpt>
      <trkpt lat="43.5514" lon="3.0114">
        <ele>408.8</ele>
        <time>2017-04-16T09:22:15.000Z</time>
      </trkpt>
      <trkpt lat="43.55134" lon="3.01144">
        <ele>409.4</ele>
        <time>2017-04-16T09:22:18.000Z</time>
      </trkpt>
      <trkpt lat="43.55129" lon="3.01144">
        <ele>409.6</ele>
        <time>2017-04-16T09:22:20.000Z</time>
      </trkpt>
      <trkpt lat="43.55122" lon="3.01145">
        <ele>410</ele>
        <time>2017-04-16T09:22:22.000Z</time>
      </trkpt>
      <trkpt lat="43.55119" lon="3.01147">
        <ele>410.4</ele>
        <time>2017-04-16T09:22:23.000Z</time>
      </trkpt>
      <trkpt lat="43.55117" lon="3.01147">
        <ele>410.6</ele>
        <time>2017-04-16T09:22:24.000Z</time>
      </trkpt>
      <trkpt lat="43.55112" lon="3.0115">
        <ele>411</ele>
        <time>2017-04-16T09:22:26.000Z</time>
      </trkpt>
      <trkpt lat="43.55109" lon="3.01152">
        <ele>411.4</ele>
        <time>2017-04-16T09:22:28.000Z</time>
      </trkpt>
      <trkpt lat="43.55104" lon="3.01156">
        <ele>411.6</ele>
        <time>2017-04-16T09:22:30.000Z</time>
      </trkpt>
      <trkpt lat="43.55089" lon="3.0117">
        <ele>412</ele>
        <time>2017-04-16T09:22:35.000Z</time>
      </trkpt>
      <trkpt lat="43.55086" lon="3.01173">
        <ele>412.4</ele>
        <time>2017-04-16T09:22:36.000Z</time>
      </trkpt>
      <trkpt lat="43.55081" lon="3.0118">
        <ele>412.8</ele>
        <time>2017-04-16T09:22:38.000Z</time>
      </trkpt>
      <trkpt lat="43.55078" lon="3.01185">
        <ele>413.2</ele>
        <time>2017-04-16T09:22:40.000Z</time>
      </trkpt>
      <trkpt lat="43.55072" lon="3.01189">
        <ele>413.6</ele>
        <time>2017-04-16T09:22:42.000Z</time>
      </trkpt>
      <trkpt lat="43.55067" lon="3.01194">
        <ele>413.8</ele>
        <time>2017-04-16T09:22:44.000Z</time>
      </trkpt>
      <trkpt lat="43.55056" lon="3.01207">
        <ele>414.2</ele>
        <time>2017-04-16T09:22:49.000Z</time>
      </trkpt>
      <trkpt lat="43.55046" lon="3.01223">
        <ele>414.6</ele>
        <time>2017-04-16T09:22:54.000Z</time>
      </trkpt>
      <trkpt lat="43.55045" lon="3.0123">
        <ele>414.8</ele>
        <time>2017-04-16T09:22:56.000Z</time>
      </trkpt>
      <trkpt lat="43.55044" lon="3.01235">
        <ele>415.2</ele>
        <time>2017-04-16T09:22:58.000Z</time>
      </trkpt>
      <trkpt lat="43.55041" lon="3.0124">
        <ele>415.4</ele>
        <time>2017-04-16T09:22:59.000Z</time>
      </trkpt>
      <trkpt lat="43.55039" lon="3.01243">
        <ele>415.6</ele>
        <time>2017-04-16T09:23:00.000Z</time>
      </trkpt>
      <trkpt lat="43.55034" lon="3.01252">
        <ele>415.8</ele>
        <time>2017-04-16T09:23:02.000Z</time>
      </trkpt>
      <trkpt lat="43.55028" lon="3.01261">
        <ele>416</ele>
        <time>2017-04-16T09:23:04.000Z</time>
      </trkpt>
      <trkpt lat="43.55014" lon="3.01283">
        <ele>416.4</ele>
        <time>2017-04-16T09:23:09.000Z</time>
      </trkpt>
      <trkpt lat="43.55011" lon="3.01287">
        <ele>416.4</ele>
        <time>2017-04-16T09:23:10.000Z</time>
      </trkpt>
      <trkpt lat="43.55001" lon="3.01305">
        <ele>416.6</ele>
        <time>2017-04-16T09:23:14.000Z</time>
      </trkpt>
      <trkpt lat="43.55003" lon="3.01321">
        <ele>416.8</ele>
        <time>2017-04-16T09:23:17.000Z</time>
      </trkpt>
      <trkpt lat="43.54999" lon="3.01343">
        <ele>416.8</ele>
        <time>2017-04-16T09:23:21.000Z</time>
      </trkpt>
      <trkpt lat="43.54995" lon="3.01357">
        <ele>416.8</ele>
        <time>2017-04-16T09:23:24.000Z</time>
      </trkpt>
      <trkpt lat="43.54993" lon="3.01362">
        <ele>417</ele>
        <time>2017-04-16T09:23:25.000Z</time>
      </trkpt>
      <trkpt lat="43.54991" lon="3.01371">
        <ele>417.4</ele>
        <time>2017-04-16T09:23:27.000Z</time>
      </trkpt>
      <trkpt lat="43.54989" lon="3.01378">
        <ele>417.8</ele>
        <time>2017-04-16T09:23:29.000Z</time>
      </trkpt>
      <trkpt lat="43.54987" lon="3.01387">
        <ele>418</ele>
        <time>2017-04-16T09:23:31.000Z</time>
      </trkpt>
      <trkpt lat="43.54982" lon="3.01397">
        <ele>418.2</ele>
        <time>2017-04-16T09:23:33.000Z</time>
      </trkpt>
      <trkpt lat="43.54979" lon="3.014">
        <ele>418.2</ele>
        <time>2017-04-16T09:23:34.000Z</time>
      </trkpt>
      <trkpt lat="43.54979" lon="3.01409">
        <ele>418.6</ele>
        <time>2017-04-16T09:23:36.000Z</time>
      </trkpt>
      <trkpt lat="43.5498" lon="3.01414">
        <ele>419</ele>
        <time>2017-04-16T09:23:38.000Z</time>
      </trkpt>
      <trkpt lat="43.54981" lon="3.01417">
        <ele>419.2</ele>
        <time>2017-04-16T09:23:39.000Z</time>
      </trkpt>
      <trkpt lat="43.54981" lon="3.0142">
        <ele>419.4</ele>
        <time>2017-04-16T09:23:40.000Z</time>
      </trkpt>
      <trkpt lat="43.54983" lon="3.01424">
        <ele>419.8</ele>
        <time>2017-04-16T09:23:42.000Z</time>
      </trkpt>
      <trkpt lat="43.54982" lon="3.01426">
        <ele>420</ele>
        <time>2017-04-16T09:23:43.000Z</time>
      </trkpt>
      <trkpt lat="43.54982" lon="3.01426">
        <ele>420</ele>
        <time>2017-04-16T09:23:44.000Z</time>
      </trkpt>
      <trkpt lat="43.54982" lon="3.01426">
        <ele>420.2</ele>
        <time>2017-04-16T09:23:46.000Z</time>
      </trkpt>
      <trkpt lat="43.5498" lon="3.01424">
        <ele>420.6</ele>
        <time>2017-04-16T09:23:50.000Z</time>
      </trkpt>
      <trkpt lat="43.54977" lon="3.01426">
        <ele>423.2</ele>
        <time>2017-04-16T09:28:23.000Z</time>
      </trkpt>
      <trkpt lat="43.54978" lon="3.01425">
        <ele>423.2</ele>
        <time>2017-04-16T09:28:24.000Z</time>
      </trkpt>
      <trkpt lat="43.54979" lon="3.01424">
        <ele>423.2</ele>
        <time>2017-04-16T09:28:25.000Z</time>
      </trkpt>
      <trkpt lat="43.5498" lon="3.01421">
        <ele>423.2</ele>
        <time>2017-04-16T09:28:26.000Z</time>
      </trkpt>
      <trkpt lat="43.54981" lon="3.01418">
        <ele>423.2</ele>
        <time>2017-04-16T09:28:27.000Z</time>
      </trkpt>
      <trkpt lat="43.54982" lon="3.01413">
        <ele>423.2</ele>
        <time>2017-04-16T09:28:28.000Z</time>
      </trkpt>
      <trkpt lat="43.54985" lon="3.01404">
        <ele>423.2</ele>
        <time>2017-04-16T09:28:30.000Z</time>
      </trkpt>
      <trkpt lat="43.54986" lon="3.01399">
        <ele>423.2</ele>
        <time>2017-04-16T09:28:31.000Z</time>
      </trkpt>
      <trkpt lat="43.54989" lon="3.01368">
        <ele>423.4</ele>
        <time>2017-04-16T09:28:38.000Z</time>
      </trkpt>
      <trkpt lat="43.54989" lon="3.0136">
        <ele>423.6</ele>
        <time>2017-04-16T09:28:40.000Z</time>
      </trkpt>
      <trkpt lat="43.54989" lon="3.01351">
        <ele>424</ele>
        <time>2017-04-16T09:28:42.000Z</time>
      </trkpt>
      <trkpt lat="43.54991" lon="3.01342">
        <ele>424.2</ele>
        <time>2017-04-16T09:28:44.000Z</time>
      </trkpt>
      <trkpt lat="43.54992" lon="3.01332">
        <ele>424.4</ele>
        <time>2017-04-16T09:28:46.000Z</time>
      </trkpt>
      <trkpt lat="43.54995" lon="3.01306">
        <ele>424.8</ele>
        <time>2017-04-16T09:28:52.000Z</time>
      </trkpt>
      <trkpt lat="43.54999" lon="3.01287">
        <ele>425</ele>
        <time>2017-04-16T09:28:58.000Z</time>
      </trkpt>
      <trkpt lat="43.55002" lon="3.01272">
        <ele>425.2</ele>
        <time>2017-04-16T09:29:02.000Z</time>
      </trkpt>
      <trkpt lat="43.55002" lon="3.01266">
        <ele>425.6</ele>
        <time>2017-04-16T09:29:04.000Z</time>
      </trkpt>
      <trkpt lat="43.55004" lon="3.0126">
        <ele>425.8</ele>
        <time>2017-04-16T09:29:06.000Z</time>
      </trkpt>
      <trkpt lat="43.55005" lon="3.01253">
        <ele>426.2</ele>
        <time>2017-04-16T09:29:08.000Z</time>
      </trkpt>
      <trkpt lat="43.55007" lon="3.01248">
        <ele>426.4</ele>
        <time>2017-04-16T09:29:10.000Z</time>
      </trkpt>
      <trkpt lat="43.55008" lon="3.01243">
        <ele>426.6</ele>
        <time>2017-04-16T09:29:12.000Z</time>
      </trkpt>
      <trkpt lat="43.5501" lon="3.01238">
        <ele>427.2</ele>
        <time>2017-04-16T09:29:14.000Z</time>
      </trkpt>
      <trkpt lat="43.55012" lon="3.01233">
        <ele>427.6</ele>
        <time>2017-04-16T09:29:16.000Z</time>
      </trkpt>
      <trkpt lat="43.55013" lon="3.01228">
        <ele>427.8</ele>
        <time>2017-04-16T09:29:18.000Z</time>
      </trkpt>
      <trkpt lat="43.55014" lon="3.01223">
        <ele>428.4</ele>
        <time>2017-04-16T09:29:20.000Z</time>
      </trkpt>
      <trkpt lat="43.55014" lon="3.0122">
        <ele>428.6</ele>
        <time>2017-04-16T09:29:21.000Z</time>
      </trkpt>
      <trkpt lat="43.55016" lon="3.01213">
        <ele>429.4</ele>
        <time>2017-04-16T09:29:24.000Z</time>
      </trkpt>
      <trkpt lat="43.55016" lon="3.01208">
        <ele>429.8</ele>
        <time>2017-04-16T09:29:26.000Z</time>
      </trkpt>
      <trkpt lat="43.55017" lon="3.01205">
        <ele>429.8</ele>
        <time>2017-04-16T09:29:27.000Z</time>
      </trkpt>
      <trkpt lat="43.55018" lon="3.01203">
        <ele>430</ele>
        <time>2017-04-16T09:29:28.000Z</time>
      </trkpt>
      <trkpt lat="43.55018" lon="3.01201">
        <ele>430.4</ele>
        <time>2017-04-16T09:29:29.000Z</time>
      </trkpt>
      <trkpt lat="43.55018" lon="3.01199">
        <ele>430.6</ele>
        <time>2017-04-16T09:29:30.000Z</time>
      </trkpt>
      <trkpt lat="43.55018" lon="3.01192">
        <ele>431.4</ele>
        <time>2017-04-16T09:29:33.000Z</time>
      </trkpt>
      <trkpt lat="43.55019" lon="3.01188">
        <ele>431.8</ele>
        <time>2017-04-16T09:29:35.000Z</time>
      </trkpt>
      <trkpt lat="43.5502" lon="3.01184">
        <ele>432.2</ele>
        <time>2017-04-16T09:29:37.000Z</time>
      </trkpt>
      <trkpt lat="43.5502" lon="3.01183">
        <ele>432.2</ele>
        <time>2017-04-16T09:29:38.000Z</time>
      </trkpt>
      <trkpt lat="43.55021" lon="3.01181">
        <ele>432.6</ele>
        <time>2017-04-16T09:29:39.000Z</time>
      </trkpt>
      <trkpt lat="43.55023" lon="3.01177">
        <ele>433.2</ele>
        <time>2017-04-16T09:29:41.000Z</time>
      </trkpt>
      <trkpt lat="43.55025" lon="3.01175">
        <ele>433.6</ele>
        <time>2017-04-16T09:29:43.000Z</time>
      </trkpt>
      <trkpt lat="43.55027" lon="3.01172">
        <ele>434</ele>
        <time>2017-04-16T09:29:45.000Z</time>
      </trkpt>
      <trkpt lat="43.55027" lon="3.0117">
        <ele>434.2</ele>
        <time>2017-04-16T09:29:46.000Z</time>
      </trkpt>
      <trkpt lat="43.55027" lon="3.01169">
        <ele>434.2</ele>
        <time>2017-04-16T09:29:47.000Z</time>
      </trkpt>
      <trkpt lat="43.55027" lon="3.01167">
        <ele>434.6</ele>
        <time>2017-04-16T09:29:48.000Z</time>
      </trkpt>
      <trkpt lat="43.55025" lon="3.01164">
        <ele>435.4</ele>
        <time>2017-04-16T09:29:50.000Z</time>
      </trkpt>
      <trkpt lat="43.55025" lon="3.01162">
        <ele>435.6</ele>
        <time>2017-04-16T09:29:51.000Z</time>
      </trkpt>
      <trkpt lat="43.55024" lon="3.01161">
        <ele>435.8</ele>
        <time>2017-04-16T09:29:52.000Z</time>
      </trkpt>
      <trkpt lat="43.55022" lon="3.0116">
        <ele>436.2</ele>
        <time>2017-04-16T09:29:54.000Z</time>
      </trkpt>
      <trkpt lat="43.5502" lon="3.01161">
        <ele>436.6</ele>
        <time>2017-04-16T09:29:56.000Z</time>
      </trkpt>
      <trkpt lat="43.5502" lon="3.01162">
        <ele>437</ele>
        <time>2017-04-16T09:29:57.000Z</time>
      </trkpt>
      <trkpt lat="43.55019" lon="3.01164">
        <ele>437.6</ele>
        <time>2017-04-16T09:29:59.000Z</time>
      </trkpt>
      <trkpt lat="43.55019" lon="3.01167">
        <ele>437.8</ele>
        <time>2017-04-16T09:30:00.000Z</time>
      </trkpt>
      <trkpt lat="43.55018" lon="3.01168">
        <ele>438</ele>
        <time>2017-04-16T09:30:01.000Z</time>
      </trkpt>
      <trkpt lat="43.55018" lon="3.0117">
        <ele>438.6</ele>
        <time>2017-04-16T09:30:03.000Z</time>
      </trkpt>
      <trkpt lat="43.55017" lon="3.01172">
        <ele>438.8</ele>
        <time>2017-04-16T09:30:05.000Z</time>
      </trkpt>
      <trkpt lat="43.55016" lon="3.01174">
        <ele>439.4</ele>
        <time>2017-04-16T09:30:07.000Z</time>
      </trkpt>
      <trkpt lat="43.55013" lon="3.01176">
        <ele>440</ele>
        <time>2017-04-16T09:30:09.000Z</time>
      </trkpt>
      <trkpt lat="43.5501" lon="3.01178">
        <ele>440.4</ele>
        <time>2017-04-16T09:30:11.000Z</time>
      </trkpt>
      <trkpt lat="43.55006" lon="3.01179">
        <ele>440.8</ele>
        <time>2017-04-16T09:30:13.000Z</time>
      </trkpt>
      <trkpt lat="43.55002" lon="3.01181">
        <ele>441.2</ele>
        <time>2017-04-16T09:30:15.000Z</time>
      </trkpt>
      <trkpt lat="43.54997" lon="3.01185">
        <ele>441.6</ele>
        <time>2017-04-16T09:30:19.000Z</time>
      </trkpt>
      <trkpt lat="43.54996" lon="3.01185">
        <ele>442</ele>
        <time>2017-04-16T09:30:20.000Z</time>
      </trkpt>
      <trkpt lat="43.54995" lon="3.01186">
        <ele>442.6</ele>
        <time>2017-04-16T09:30:22.000Z</time>
      </trkpt>
      <trkpt lat="43.54993" lon="3.01187">
        <ele>443</ele>
        <time>2017-04-16T09:30:24.000Z</time>
      </trkpt>
      <trkpt lat="43.54992" lon="3.01187">
        <ele>443.4</ele>
        <time>2017-04-16T09:30:26.000Z</time>
      </trkpt>
      <trkpt lat="43.54992" lon="3.01188">
        <ele>443.8</ele>
        <time>2017-04-16T09:30:28.000Z</time>
      </trkpt>
      <trkpt lat="43.54992" lon="3.01188">
        <ele>444.4</ele>
        <time>2017-04-16T09:30:30.000Z</time>
      </trkpt>
      <trkpt lat="43.54991" lon="3.01189">
        <ele>445</ele>
        <time>2017-04-16T09:30:32.000Z</time>
      </trkpt>
      <trkpt lat="43.54988" lon="3.01191">
        <ele>445.4</ele>
        <time>2017-04-16T09:30:34.000Z</time>
      </trkpt>
      <trkpt lat="43.54988" lon="3.01192">
        <ele>445.4</ele>
        <time>2017-04-16T09:30:35.000Z</time>
      </trkpt>
      <trkpt lat="43.54986" lon="3.01193">
        <ele>445.8</ele>
        <time>2017-04-16T09:30:36.000Z</time>
      </trkpt>
      <trkpt lat="43.54984" lon="3.01194">
        <ele>446.4</ele>
        <time>2017-04-16T09:30:38.000Z</time>
      </trkpt>
      <trkpt lat="43.54981" lon="3.01196">
        <ele>447</ele>
        <time>2017-04-16T09:30:40.000Z</time>
      </trkpt>
      <trkpt lat="43.54979" lon="3.01196">
        <ele>447.4</ele>
        <time>2017-04-16T09:30:42.000Z</time>
      </trkpt>
      <trkpt lat="43.54978" lon="3.01195">
        <ele>447.6</ele>
        <time>2017-04-16T09:30:43.000Z</time>
      </trkpt>
      <trkpt lat="43.54973" lon="3.01197">
        <ele>448.4</ele>
        <time>2017-04-16T09:30:47.000Z</time>
      </trkpt>
      <trkpt lat="43.54972" lon="3.01199">
        <ele>449</ele>
        <time>2017-04-16T09:30:49.000Z</time>
      </trkpt>
      <trkpt lat="43.5497" lon="3.01199">
        <ele>449.4</ele>
        <time>2017-04-16T09:30:51.000Z</time>
      </trkpt>
      <trkpt lat="43.54968" lon="3.012">
        <ele>449.8</ele>
        <time>2017-04-16T09:30:53.000Z</time>
      </trkpt>
      <trkpt lat="43.54965" lon="3.01201">
        <ele>450.4</ele>
        <time>2017-04-16T09:30:55.000Z</time>
      </trkpt>
      <trkpt lat="43.54961" lon="3.01202">
        <ele>451</ele>
        <time>2017-04-16T09:30:57.000Z</time>
      </trkpt>
      <trkpt lat="43.54958" lon="3.01203">
        <ele>451.4</ele>
        <time>2017-04-16T09:30:59.000Z</time>
      </trkpt>
      <trkpt lat="43.54955" lon="3.01203">
        <ele>451.6</ele>
        <time>2017-04-16T09:31:00.000Z</time>
      </trkpt>
      <trkpt lat="43.54951" lon="3.01204">
        <ele>452.2</ele>
        <time>2017-04-16T09:31:03.000Z</time>
      </trkpt>
      <trkpt lat="43.54949" lon="3.01205">
        <ele>452.4</ele>
        <time>2017-04-16T09:31:04.000Z</time>
      </trkpt>
      <trkpt lat="43.54946" lon="3.01206">
        <ele>452.8</ele>
        <time>2017-04-16T09:31:06.000Z</time>
      </trkpt>
      <trkpt lat="43.54943" lon="3.01208">
        <ele>453.4</ele>
        <time>2017-04-16T09:31:08.000Z</time>
      </trkpt>
      <trkpt lat="43.54942" lon="3.01208">
        <ele>453.8</ele>
        <time>2017-04-16T09:31:10.000Z</time>
      </trkpt>
      <trkpt lat="43.54941" lon="3.01208">
        <ele>454.4</ele>
        <time>2017-04-16T09:31:12.000Z</time>
      </trkpt>
      <trkpt lat="43.54938" lon="3.01207">
        <ele>455.2</ele>
        <time>2017-04-16T09:31:14.000Z</time>
      </trkpt>
      <trkpt lat="43.54934" lon="3.01207">
        <ele>455.6</ele>
        <time>2017-04-16T09:31:16.000Z</time>
      </trkpt>
      <trkpt lat="43.54931" lon="3.01206">
        <ele>456.2</ele>
        <time>2017-04-16T09:31:18.000Z</time>
      </trkpt>
      <trkpt lat="43.54928" lon="3.01206">
        <ele>456.4</ele>
        <time>2017-04-16T09:31:20.000Z</time>
      </trkpt>
      <trkpt lat="43.54926" lon="3.01206">
        <ele>456.6</ele>
        <time>2017-04-16T09:31:21.000Z</time>
      </trkpt>
      <trkpt lat="43.54926" lon="3.01205">
        <ele>457.2</ele>
        <time>2017-04-16T09:31:24.000Z</time>
      </trkpt>
      <trkpt lat="43.54925" lon="3.01206">
        <ele>457.8</ele>
        <time>2017-04-16T09:31:26.000Z</time>
      </trkpt>
      <trkpt lat="43.54923" lon="3.01207">
        <ele>458</ele>
        <time>2017-04-16T09:31:27.000Z</time>
      </trkpt>
      <trkpt lat="43.54921" lon="3.01209">
        <ele>458.2</ele>
        <time>2017-04-16T09:31:28.000Z</time>
      </trkpt>
      <trkpt lat="43.54916" lon="3.01212">
        <ele>458.6</ele>
        <time>2017-04-16T09:31:30.000Z</time>
      </trkpt>
      <trkpt lat="43.5491" lon="3.01215">
        <ele>458.8</ele>
        <time>2017-04-16T09:31:32.000Z</time>
      </trkpt>
      <trkpt lat="43.54907" lon="3.01216">
        <ele>459.2</ele>
        <time>2017-04-16T09:31:33.000Z</time>
      </trkpt>
      <trkpt lat="43.54902" lon="3.01219">
        <ele>459.8</ele>
        <time>2017-04-16T09:31:35.000Z</time>
      </trkpt>
      <trkpt lat="43.54896" lon="3.0122">
        <ele>460.2</ele>
        <time>2017-04-16T09:31:37.000Z</time>
      </trkpt>
      <trkpt lat="43.54891" lon="3.01221">
        <ele>460.6</ele>
        <time>2017-04-16T09:31:39.000Z</time>
      </trkpt>
      <trkpt lat="43.54885" lon="3.01222">
        <ele>461.2</ele>
        <time>2017-04-16T09:31:41.000Z</time>
      </trkpt>
      <trkpt lat="43.5488" lon="3.01224">
        <ele>461.8</ele>
        <time>2017-04-16T09:31:43.000Z</time>
      </trkpt>
      <trkpt lat="43.54876" lon="3.01225">
        <ele>462.4</ele>
        <time>2017-04-16T09:31:45.000Z</time>
      </trkpt>
      <trkpt lat="43.54873" lon="3.01224">
        <ele>462.8</ele>
        <time>2017-04-16T09:31:47.000Z</time>
      </trkpt>
      <trkpt lat="43.54871" lon="3.01224">
        <ele>463.2</ele>
        <time>2017-04-16T09:31:48.000Z</time>
      </trkpt>
      <trkpt lat="43.54868" lon="3.01224">
        <ele>463.8</ele>
        <time>2017-04-16T09:31:50.000Z</time>
      </trkpt>
      <trkpt lat="43.54866" lon="3.01224">
        <ele>464.4</ele>
        <time>2017-04-16T09:31:52.000Z</time>
      </trkpt>
      <trkpt lat="43.54863" lon="3.01224">
        <ele>464.8</ele>
        <time>2017-04-16T09:31:54.000Z</time>
      </trkpt>
      <trkpt lat="43.5486" lon="3.01223">
        <ele>465.2</ele>
        <time>2017-04-16T09:31:56.000Z</time>
      </trkpt>
      <trkpt lat="43.54859" lon="3.01222">
        <ele>465.4</ele>
        <time>2017-04-16T09:31:57.000Z</time>
      </trkpt>
      <trkpt lat="43.54856" lon="3.01221">
        <ele>466.2</ele>
        <time>2017-04-16T09:31:59.000Z</time>
      </trkpt>
      <trkpt lat="43.54853" lon="3.01219">
        <ele>466.6</ele>
        <time>2017-04-16T09:32:01.000Z</time>
      </trkpt>
      <trkpt lat="43.5485" lon="3.01217">
        <ele>467</ele>
        <time>2017-04-16T09:32:03.000Z</time>
      </trkpt>
      <trkpt lat="43.54847" lon="3.01216">
        <ele>467.4</ele>
        <time>2017-04-16T09:32:05.000Z</time>
      </trkpt>
      <trkpt lat="43.54845" lon="3.01215">
        <ele>467.8</ele>
        <time>2017-04-16T09:32:06.000Z</time>
      </trkpt>
      <trkpt lat="43.54842" lon="3.01214">
        <ele>468.4</ele>
        <time>2017-04-16T09:32:08.000Z</time>
      </trkpt>
      <trkpt lat="43.54839" lon="3.01213">
        <ele>468.8</ele>
        <time>2017-04-16T09:32:10.000Z</time>
      </trkpt>
      <trkpt lat="43.54836" lon="3.01212">
        <ele>469.2</ele>
        <time>2017-04-16T09:32:12.000Z</time>
      </trkpt>
      <trkpt lat="43.54836" lon="3.01211">
        <ele>469.4</ele>
        <time>2017-04-16T09:32:13.000Z</time>
      </trkpt>
      <trkpt lat="43.54827" lon="3.01206">
        <ele>470.4</ele>
        <time>2017-04-16T09:32:19.000Z</time>
      </trkpt>
      <trkpt lat="43.54824" lon="3.01205">
        <ele>470.8</ele>
        <time>2017-04-16T09:32:21.000Z</time>
      </trkpt>
      <trkpt lat="43.5482" lon="3.01203">
        <ele>471.2</ele>
        <time>2017-04-16T09:32:23.000Z</time>
      </trkpt>
      <trkpt lat="43.54817" lon="3.01201">
        <ele>471.6</ele>
        <time>2017-04-16T09:32:25.000Z</time>
      </trkpt>
      <trkpt lat="43.54815" lon="3.01199">
        <ele>471.8</ele>
        <time>2017-04-16T09:32:27.000Z</time>
      </trkpt>
      <trkpt lat="43.54813" lon="3.01198">
        <ele>472</ele>
        <time>2017-04-16T09:32:28.000Z</time>
      </trkpt>
      <trkpt lat="43.54811" lon="3.01194">
        <ele>472.8</ele>
        <time>2017-04-16T09:32:31.000Z</time>
      </trkpt>
      <trkpt lat="43.54809" lon="3.01191">
        <ele>473.4</ele>
        <time>2017-04-16T09:32:33.000Z</time>
      </trkpt>
      <trkpt lat="43.54808" lon="3.01187">
        <ele>473.8</ele>
        <time>2017-04-16T09:32:35.000Z</time>
      </trkpt>
      <trkpt lat="43.54808" lon="3.01183">
        <ele>474</ele>
        <time>2017-04-16T09:32:37.000Z</time>
      </trkpt>
      <trkpt lat="43.54808" lon="3.01181">
        <ele>474.2</ele>
        <time>2017-04-16T09:32:38.000Z</time>
      </trkpt>
      <trkpt lat="43.5481" lon="3.01177">
        <ele>474.6</ele>
        <time>2017-04-16T09:32:40.000Z</time>
      </trkpt>
      <trkpt lat="43.54811" lon="3.01173">
        <ele>475.2</ele>
        <time>2017-04-16T09:32:42.000Z</time>
      </trkpt>
      <trkpt lat="43.54813" lon="3.0117">
        <ele>475.6</ele>
        <time>2017-04-16T09:32:44.000Z</time>
      </trkpt>
      <trkpt lat="43.54815" lon="3.01168">
        <ele>476</ele>
        <time>2017-04-16T09:32:46.000Z</time>
      </trkpt>
      <trkpt lat="43.54816" lon="3.01167">
        <ele>476.4</ele>
        <time>2017-04-16T09:32:47.000Z</time>
      </trkpt>
      <trkpt lat="43.54818" lon="3.01166">
        <ele>477</ele>
        <time>2017-04-16T09:32:49.000Z</time>
      </trkpt>
      <trkpt lat="43.5482" lon="3.01164">
        <ele>477.4</ele>
        <time>2017-04-16T09:32:51.000Z</time>
      </trkpt>
      <trkpt lat="43.54821" lon="3.01163">
        <ele>477.6</ele>
        <time>2017-04-16T09:32:52.000Z</time>
      </trkpt>
      <trkpt lat="43.54823" lon="3.01161">
        <ele>478.2</ele>
        <time>2017-04-16T09:32:55.000Z</time>
      </trkpt>
      <trkpt lat="43.54824" lon="3.01159">
        <ele>478.6</ele>
        <time>2017-04-16T09:32:57.000Z</time>
      </trkpt>
      <trkpt lat="43.54824" lon="3.01157">
        <ele>479</ele>
        <time>2017-04-16T09:32:58.000Z</time>
      </trkpt>
      <trkpt lat="43.54825" lon="3.01153">
        <ele>479.6</ele>
        <time>2017-04-16T09:33:01.000Z</time>
      </trkpt>
      <trkpt lat="43.54825" lon="3.01151">
        <ele>479.8</ele>
        <time>2017-04-16T09:33:02.000Z</time>
      </trkpt>
      <trkpt lat="43.54829" lon="3.01147">
        <ele>480.4</ele>
        <time>2017-04-16T09:33:05.000Z</time>
      </trkpt>
      <trkpt lat="43.54837" lon="3.01143">
        <ele>480.6</ele>
        <time>2017-04-16T09:33:08.000Z</time>
      </trkpt>
      <trkpt lat="43.54843" lon="3.0114">
        <ele>481.2</ele>
        <time>2017-04-16T09:33:11.000Z</time>
      </trkpt>
      <trkpt lat="43.54847" lon="3.01138">
        <ele>481.6</ele>
        <time>2017-04-16T09:33:13.000Z</time>
      </trkpt>
      <trkpt lat="43.5485" lon="3.01136">
        <ele>482</ele>
        <time>2017-04-16T09:33:15.000Z</time>
      </trkpt>
      <trkpt lat="43.5485" lon="3.01135">
        <ele>482.4</ele>
        <time>2017-04-16T09:33:16.000Z</time>
      </trkpt>
      <trkpt lat="43.54852" lon="3.01135">
        <ele>483.2</ele>
        <time>2017-04-16T09:33:18.000Z</time>
      </trkpt>
      <trkpt lat="43.54855" lon="3.01133">
        <ele>483.6</ele>
        <time>2017-04-16T09:33:20.000Z</time>
      </trkpt>
      <trkpt lat="43.54858" lon="3.01132">
        <ele>484</ele>
        <time>2017-04-16T09:33:22.000Z</time>
      </trkpt>
      <trkpt lat="43.5486" lon="3.0113">
        <ele>484.6</ele>
        <time>2017-04-16T09:33:24.000Z</time>
      </trkpt>
      <trkpt lat="43.54862" lon="3.01127">
        <ele>485.2</ele>
        <time>2017-04-16T09:33:26.000Z</time>
      </trkpt>
      <trkpt lat="43.54863" lon="3.01124">
        <ele>485.8</ele>
        <time>2017-04-16T09:33:28.000Z</time>
      </trkpt>
      <trkpt lat="43.54865" lon="3.01121">
        <ele>486.2</ele>
        <time>2017-04-16T09:33:30.000Z</time>
      </trkpt>
      <trkpt lat="43.54867" lon="3.01118">
        <ele>486.4</ele>
        <time>2017-04-16T09:33:32.000Z</time>
      </trkpt>
      <trkpt lat="43.5487" lon="3.01115">
        <ele>486.8</ele>
        <time>2017-04-16T09:33:34.000Z</time>
      </trkpt>
      <trkpt lat="43.54876" lon="3.01107">
        <ele>487.4</ele>
        <time>2017-04-16T09:33:39.000Z</time>
      </trkpt>
      <trkpt lat="43.54878" lon="3.01105">
        <ele>487.8</ele>
        <time>2017-04-16T09:33:41.000Z</time>
      </trkpt>
      <trkpt lat="43.54881" lon="3.01104">
        <ele>488.2</ele>
        <time>2017-04-16T09:33:43.000Z</time>
      </trkpt>
      <trkpt lat="43.54883" lon="3.01102">
        <ele>488.6</ele>
        <time>2017-04-16T09:33:45.000Z</time>
      </trkpt>
      <trkpt lat="43.54884" lon="3.01101">
        <ele>488.8</ele>
        <time>2017-04-16T09:33:46.000Z</time>
      </trkpt>
      <trkpt lat="43.54884" lon="3.01099">
        <ele>488.8</ele>
        <time>2017-04-16T09:33:47.000Z</time>
      </trkpt>
      <trkpt lat="43.54886" lon="3.01096">
        <ele>489.2</ele>
        <time>2017-04-16T09:33:49.000Z</time>
      </trkpt>
      <trkpt lat="43.54887" lon="3.01093">
        <ele>489.8</ele>
        <time>2017-04-16T09:33:51.000Z</time>
      </trkpt>
      <trkpt lat="43.54889" lon="3.01089">
        <ele>490.2</ele>
        <time>2017-04-16T09:33:53.000Z</time>
      </trkpt>
      <trkpt lat="43.5489" lon="3.01087">
        <ele>490.4</ele>
        <time>2017-04-16T09:33:54.000Z</time>
      </trkpt>
      <trkpt lat="43.5489" lon="3.01085">
        <ele>490.6</ele>
        <time>2017-04-16T09:33:55.000Z</time>
      </trkpt>
      <trkpt lat="43.54891" lon="3.01083">
        <ele>491</ele>
        <time>2017-04-16T09:33:56.000Z</time>
      </trkpt>
      <trkpt lat="43.54893" lon="3.0108">
        <ele>491.6</ele>
        <time>2017-04-16T09:33:58.000Z</time>
      </trkpt>
      <trkpt lat="43.54894" lon="3.01079">
        <ele>492</ele>
        <time>2017-04-16T09:33:59.000Z</time>
      </trkpt>
      <trkpt lat="43.54895" lon="3.01077">
        <ele>492.2</ele>
        <time>2017-04-16T09:34:00.000Z</time>
      </trkpt>
      <trkpt lat="43.54897" lon="3.01076">
        <ele>492.4</ele>
        <time>2017-04-16T09:34:01.000Z</time>
      </trkpt>
      <trkpt lat="43.54899" lon="3.01071">
        <ele>493</ele>
        <time>2017-04-16T09:34:04.000Z</time>
      </trkpt>
      <trkpt lat="43.549" lon="3.01067">
        <ele>493.6</ele>
        <time>2017-04-16T09:34:07.000Z</time>
      </trkpt>
      <trkpt lat="43.54901" lon="3.01064">
        <ele>494.2</ele>
        <time>2017-04-16T09:34:09.000Z</time>
      </trkpt>
      <trkpt lat="43.54904" lon="3.01061">
        <ele>494.6</ele>
        <time>2017-04-16T09:34:11.000Z</time>
      </trkpt>
      <trkpt lat="43.54906" lon="3.01059">
        <ele>494.8</ele>
        <time>2017-04-16T09:34:12.000Z</time>
      </trkpt>
      <trkpt lat="43.54907" lon="3.01053">
        <ele>495.2</ele>
        <time>2017-04-16T09:34:15.000Z</time>
      </trkpt>
      <trkpt lat="43.54907" lon="3.01051">
        <ele>495.4</ele>
        <time>2017-04-16T09:34:16.000Z</time>
      </trkpt>
      <trkpt lat="43.54905" lon="3.01048">
        <ele>495.8</ele>
        <time>2017-04-16T09:34:18.000Z</time>
      </trkpt>
      <trkpt lat="43.54902" lon="3.01046">
        <ele>496.4</ele>
        <time>2017-04-16T09:34:20.000Z</time>
      </trkpt>
      <trkpt lat="43.54901" lon="3.01046">
        <ele>496.6</ele>
        <time>2017-04-16T09:34:21.000Z</time>
      </trkpt>
      <trkpt lat="43.54899" lon="3.01046">
        <ele>496.8</ele>
        <time>2017-04-16T09:34:22.000Z</time>
      </trkpt>
      <trkpt lat="43.54896" lon="3.01048">
        <ele>497.2</ele>
        <time>2017-04-16T09:34:24.000Z</time>
      </trkpt>
      <trkpt lat="43.54896" lon="3.01049">
        <ele>497.4</ele>
        <time>2017-04-16T09:34:26.000Z</time>
      </trkpt>
      <trkpt lat="43.54894" lon="3.01052">
        <ele>497.8</ele>
        <time>2017-04-16T09:34:30.000Z</time>
      </trkpt>
      <trkpt lat="43.54892" lon="3.01053">
        <ele>498.2</ele>
        <time>2017-04-16T09:34:31.000Z</time>
      </trkpt>
      <trkpt lat="43.54889" lon="3.01055">
        <ele>498.6</ele>
        <time>2017-04-16T09:34:33.000Z</time>
      </trkpt>
      <trkpt lat="43.54884" lon="3.01056">
        <ele>499</ele>
        <time>2017-04-16T09:34:35.000Z</time>
      </trkpt>
      <trkpt lat="43.54878" lon="3.01058">
        <ele>499.4</ele>
        <time>2017-04-16T09:34:37.000Z</time>
      </trkpt>
      <trkpt lat="43.54872" lon="3.01061">
        <ele>499.6</ele>
        <time>2017-04-16T09:34:39.000Z</time>
      </trkpt>
      <trkpt lat="43.54865" lon="3.01063">
        <ele>500.2</ele>
        <time>2017-04-16T09:34:42.000Z</time>
      </trkpt>
      <trkpt lat="43.54863" lon="3.01063">
        <ele>500.4</ele>
        <time>2017-04-16T09:34:43.000Z</time>
      </trkpt>
      <trkpt lat="43.54857" lon="3.01064">
        <ele>501</ele>
        <time>2017-04-16T09:34:46.000Z</time>
      </trkpt>
      <trkpt lat="43.54853" lon="3.01065">
        <ele>501.4</ele>
        <time>2017-04-16T09:34:48.000Z</time>
      </trkpt>
      <trkpt lat="43.54851" lon="3.01066">
        <ele>501.6</ele>
        <time>2017-04-16T09:34:49.000Z</time>
      </trkpt>
      <trkpt lat="43.54843" lon="3.01065">
        <ele>502.2</ele>
        <time>2017-04-16T09:34:53.000Z</time>
      </trkpt>
      <trkpt lat="43.54841" lon="3.01064">
        <ele>502.6</ele>
        <time>2017-04-16T09:34:54.000Z</time>
      </trkpt>
      <trkpt lat="43.54837" lon="3.01063">
        <ele>503.2</ele>
        <time>2017-04-16T09:34:57.000Z</time>
      </trkpt>
      <trkpt lat="43.54836" lon="3.01061">
        <ele>503.4</ele>
        <time>2017-04-16T09:34:58.000Z</time>
      </trkpt>
      <trkpt lat="43.54834" lon="3.01061">
        <ele>503.6</ele>
        <time>2017-04-16T09:34:59.000Z</time>
      </trkpt>
      <trkpt lat="43.54831" lon="3.01059">
        <ele>504</ele>
        <time>2017-04-16T09:35:01.000Z</time>
      </trkpt>
      <trkpt lat="43.54829" lon="3.01058">
        <ele>504</ele>
        <time>2017-04-16T09:35:02.000Z</time>
      </trkpt>
      <trkpt lat="43.54827" lon="3.01058">
        <ele>504.2</ele>
        <time>2017-04-16T09:35:04.000Z</time>
      </trkpt>
      <trkpt lat="43.54824" lon="3.01055">
        <ele>504.6</ele>
        <time>2017-04-16T09:35:06.000Z</time>
      </trkpt>
      <trkpt lat="43.54823" lon="3.01054">
        <ele>505.2</ele>
        <time>2017-04-16T09:35:08.000Z</time>
      </trkpt>
      <trkpt lat="43.54821" lon="3.01051">
        <ele>505.4</ele>
        <time>2017-04-16T09:35:10.000Z</time>
      </trkpt>
      <trkpt lat="43.54819" lon="3.01048">
        <ele>505.8</ele>
        <time>2017-04-16T09:35:12.000Z</time>
      </trkpt>
      <trkpt lat="43.54818" lon="3.01047">
        <ele>506</ele>
        <time>2017-04-16T09:35:13.000Z</time>
      </trkpt>
      <trkpt lat="43.54817" lon="3.01046">
        <ele>506</ele>
        <time>2017-04-16T09:35:14.000Z</time>
      </trkpt>
      <trkpt lat="43.54811" lon="3.01044">
        <ele>506.6</ele>
        <time>2017-04-16T09:35:17.000Z</time>
      </trkpt>
      <trkpt lat="43.54807" lon="3.01043">
        <ele>507.2</ele>
        <time>2017-04-16T09:35:19.000Z</time>
      </trkpt>
      <trkpt lat="43.54803" lon="3.01042">
        <ele>507.6</ele>
        <time>2017-04-16T09:35:21.000Z</time>
      </trkpt>
      <trkpt lat="43.54802" lon="3.01042">
        <ele>507.8</ele>
        <time>2017-04-16T09:35:22.000Z</time>
      </trkpt>
      <trkpt lat="43.54798" lon="3.01041">
        <ele>508.2</ele>
        <time>2017-04-16T09:35:25.000Z</time>
      </trkpt>
      <trkpt lat="43.54796" lon="3.01042">
        <ele>508.4</ele>
        <time>2017-04-16T09:35:27.000Z</time>
      </trkpt>
      <trkpt lat="43.54792" lon="3.01042">
        <ele>509.6</ele>
        <time>2017-04-16T09:35:42.000Z</time>
      </trkpt>
      <trkpt lat="43.54793" lon="3.0104">
        <ele>509.8</ele>
        <time>2017-04-16T09:35:43.000Z</time>
      </trkpt>
      <trkpt lat="43.54793" lon="3.01039">
        <ele>509.8</ele>
        <time>2017-04-16T09:35:44.000Z</time>
      </trkpt>
      <trkpt lat="43.54793" lon="3.01037">
        <ele>510</ele>
        <time>2017-04-16T09:35:45.000Z</time>
      </trkpt>
      <trkpt lat="43.54794" lon="3.01033">
        <ele>510.2</ele>
        <time>2017-04-16T09:35:47.000Z</time>
      </trkpt>
      <trkpt lat="43.54794" lon="3.01029">
        <ele>510.4</ele>
        <time>2017-04-16T09:35:49.000Z</time>
      </trkpt>
      <trkpt lat="43.54794" lon="3.01025">
        <ele>510.8</ele>
        <time>2017-04-16T09:35:51.000Z</time>
      </trkpt>
      <trkpt lat="43.54794" lon="3.01022">
        <ele>511.4</ele>
        <time>2017-04-16T09:35:53.000Z</time>
      </trkpt>
      <trkpt lat="43.54793" lon="3.01021">
        <ele>511.6</ele>
        <time>2017-04-16T09:35:54.000Z</time>
      </trkpt>
      <trkpt lat="43.54792" lon="3.0102">
        <ele>511.8</ele>
        <time>2017-04-16T09:35:55.000Z</time>
      </trkpt>
      <trkpt lat="43.54791" lon="3.01017">
        <ele>512.2</ele>
        <time>2017-04-16T09:35:57.000Z</time>
      </trkpt>
      <trkpt lat="43.54791" lon="3.01015">
        <ele>512.4</ele>
        <time>2017-04-16T09:35:59.000Z</time>
      </trkpt>
      <trkpt lat="43.54792" lon="3.01012">
        <ele>512.8</ele>
        <time>2017-04-16T09:36:01.000Z</time>
      </trkpt>
      <trkpt lat="43.54792" lon="3.0101">
        <ele>513.4</ele>
        <time>2017-04-16T09:36:03.000Z</time>
      </trkpt>
      <trkpt lat="43.54791" lon="3.01008">
        <ele>514</ele>
        <time>2017-04-16T09:36:05.000Z</time>
      </trkpt>
      <trkpt lat="43.54791" lon="3.01007">
        <ele>514.2</ele>
        <time>2017-04-16T09:36:06.000Z</time>
      </trkpt>
      <trkpt lat="43.54788" lon="3.01007">
        <ele>514.6</ele>
        <time>2017-04-16T09:36:08.000Z</time>
      </trkpt>
      <trkpt lat="43.54786" lon="3.01007">
        <ele>515.2</ele>
        <time>2017-04-16T09:36:10.000Z</time>
      </trkpt>
      <trkpt lat="43.54784" lon="3.01006">
        <ele>515.8</ele>
        <time>2017-04-16T09:36:12.000Z</time>
      </trkpt>
      <trkpt lat="43.54783" lon="3.01005">
        <ele>516.2</ele>
        <time>2017-04-16T09:36:14.000Z</time>
      </trkpt>
      <trkpt lat="43.54782" lon="3.01003">
        <ele>516.6</ele>
        <time>2017-04-16T09:36:16.000Z</time>
      </trkpt>
      <trkpt lat="43.5478" lon="3.01">
        <ele>517.2</ele>
        <time>2017-04-16T09:36:19.000Z</time>
      </trkpt>
      <trkpt lat="43.5478" lon="3.00998">
        <ele>517.8</ele>
        <time>2017-04-16T09:36:21.000Z</time>
      </trkpt>
      <trkpt lat="43.5478" lon="3.00997">
        <ele>518.2</ele>
        <time>2017-04-16T09:36:23.000Z</time>
      </trkpt>
      <trkpt lat="43.5478" lon="3.00996">
        <ele>518.6</ele>
        <time>2017-04-16T09:36:25.000Z</time>
      </trkpt>
      <trkpt lat="43.5478" lon="3.00995">
        <ele>518.8</ele>
        <time>2017-04-16T09:36:27.000Z</time>
      </trkpt>
      <trkpt lat="43.54779" lon="3.00995">
        <ele>519.2</ele>
        <time>2017-04-16T09:36:28.000Z</time>
      </trkpt>
      <trkpt lat="43.54779" lon="3.00994">
        <ele>519.8</ele>
        <time>2017-04-16T09:36:30.000Z</time>
      </trkpt>
      <trkpt lat="43.54778" lon="3.00993">
        <ele>520.2</ele>
        <time>2017-04-16T09:36:32.000Z</time>
      </trkpt>
      <trkpt lat="43.54778" lon="3.00993">
        <ele>520.4</ele>
        <time>2017-04-16T09:36:33.000Z</time>
      </trkpt>
      <trkpt lat="43.54778" lon="3.00992">
        <ele>520.8</ele>
        <time>2017-04-16T09:36:35.000Z</time>
      </trkpt>
      <trkpt lat="43.54778" lon="3.00991">
        <ele>520.8</ele>
        <time>2017-04-16T09:36:36.000Z</time>
      </trkpt>
      <trkpt lat="43.54779" lon="3.0099">
        <ele>521</ele>
        <time>2017-04-16T09:36:38.000Z</time>
      </trkpt>
      <trkpt lat="43.5478" lon="3.00987">
        <ele>521.8</ele>
        <time>2017-04-16T09:36:43.000Z</time>
      </trkpt>
      <trkpt lat="43.54781" lon="3.00987">
        <ele>522</ele>
        <time>2017-04-16T09:36:44.000Z</time>
      </trkpt>
      <trkpt lat="43.54781" lon="3.00986">
        <ele>522.2</ele>
        <time>2017-04-16T09:36:45.000Z</time>
      </trkpt>
      <trkpt lat="43.54781" lon="3.00984">
        <ele>522.6</ele>
        <time>2017-04-16T09:36:46.000Z</time>
      </trkpt>
      <trkpt lat="43.5478" lon="3.00983">
        <ele>523</ele>
        <time>2017-04-16T09:36:48.000Z</time>
      </trkpt>
      <trkpt lat="43.54778" lon="3.00982">
        <ele>523.2</ele>
        <time>2017-04-16T09:36:50.000Z</time>
      </trkpt>
      <trkpt lat="43.54777" lon="3.0098">
        <ele>523.8</ele>
        <time>2017-04-16T09:36:52.000Z</time>
      </trkpt>
      <trkpt lat="43.54778" lon="3.00979">
        <ele>524.2</ele>
        <time>2017-04-16T09:36:54.000Z</time>
      </trkpt>
      <trkpt lat="43.54778" lon="3.00977">
        <ele>524.8</ele>
        <time>2017-04-16T09:36:56.000Z</time>
      </trkpt>
      <trkpt lat="43.54778" lon="3.00976">
        <ele>525</ele>
        <time>2017-04-16T09:36:58.000Z</time>
      </trkpt>
      <trkpt lat="43.54778" lon="3.00976">
        <ele>525.2</ele>
        <time>2017-04-16T09:36:59.000Z</time>
      </trkpt>
      <trkpt lat="43.54775" lon="3.00975">
        <ele>526.2</ele>
        <time>2017-04-16T09:37:03.000Z</time>
      </trkpt>
      <trkpt lat="43.54774" lon="3.00974">
        <ele>526.4</ele>
        <time>2017-04-16T09:37:04.000Z</time>
      </trkpt>
      <trkpt lat="43.54774" lon="3.00974">
        <ele>526.6</ele>
        <time>2017-04-16T09:37:05.000Z</time>
      </trkpt>
      <trkpt lat="43.54773" lon="3.00973">
        <ele>527</ele>
        <time>2017-04-16T09:37:06.000Z</time>
      </trkpt>
      <trkpt lat="43.54773" lon="3.00972">
        <ele>527.2</ele>
        <time>2017-04-16T09:37:08.000Z</time>
      </trkpt>
      <trkpt lat="43.54773" lon="3.00971">
        <ele>527.6</ele>
        <time>2017-04-16T09:37:10.000Z</time>
      </trkpt>
      <trkpt lat="43.54773" lon="3.00969">
        <ele>527.8</ele>
        <time>2017-04-16T09:37:12.000Z</time>
      </trkpt>
      <trkpt lat="43.54773" lon="3.00968">
        <ele>528.2</ele>
        <time>2017-04-16T09:37:13.000Z</time>
      </trkpt>
      <trkpt lat="43.54773" lon="3.00966">
        <ele>528.8</ele>
        <time>2017-04-16T09:37:15.000Z</time>
      </trkpt>
      <trkpt lat="43.54773" lon="3.00965">
        <ele>529.2</ele>
        <time>2017-04-16T09:37:17.000Z</time>
      </trkpt>
      <trkpt lat="43.54773" lon="3.00964">
        <ele>529.6</ele>
        <time>2017-04-16T09:37:19.000Z</time>
      </trkpt>
      <trkpt lat="43.54773" lon="3.00963">
        <ele>529.6</ele>
        <time>2017-04-16T09:37:20.000Z</time>
      </trkpt>
      <trkpt lat="43.54771" lon="3.00962">
        <ele>530</ele>
        <time>2017-04-16T09:37:23.000Z</time>
      </trkpt>
      <trkpt lat="43.5477" lon="3.00962">
        <ele>530.4</ele>
        <time>2017-04-16T09:37:24.000Z</time>
      </trkpt>
      <trkpt lat="43.54768" lon="3.0096">
        <ele>531</ele>
        <time>2017-04-16T09:37:26.000Z</time>
      </trkpt>
      <trkpt lat="43.54766" lon="3.00959">
        <ele>531.4</ele>
        <time>2017-04-16T09:37:28.000Z</time>
      </trkpt>
      <trkpt lat="43.54765" lon="3.00958">
        <ele>531.8</ele>
        <time>2017-04-16T09:37:30.000Z</time>
      </trkpt>
      <trkpt lat="43.54763" lon="3.00956">
        <ele>532</ele>
        <time>2017-04-16T09:37:32.000Z</time>
      </trkpt>
      <trkpt lat="43.54762" lon="3.00953">
        <ele>532.8</ele>
        <time>2017-04-16T09:37:37.000Z</time>
      </trkpt>
      <trkpt lat="43.54762" lon="3.00951">
        <ele>533.2</ele>
        <time>2017-04-16T09:37:39.000Z</time>
      </trkpt>
      <trkpt lat="43.54761" lon="3.00949">
        <ele>533.8</ele>
        <time>2017-04-16T09:37:41.000Z</time>
      </trkpt>
      <trkpt lat="43.54759" lon="3.00948">
        <ele>534</ele>
        <time>2017-04-16T09:37:43.000Z</time>
      </trkpt>
      <trkpt lat="43.54758" lon="3.00946">
        <ele>534.4</ele>
        <time>2017-04-16T09:37:45.000Z</time>
      </trkpt>
      <trkpt lat="43.54751" lon="3.00943">
        <ele>535.2</ele>
        <time>2017-04-16T09:37:52.000Z</time>
      </trkpt>
      <trkpt lat="43.5475" lon="3.00943">
        <ele>535.6</ele>
        <time>2017-04-16T09:37:54.000Z</time>
      </trkpt>
      <trkpt lat="43.54749" lon="3.00942">
        <ele>536</ele>
        <time>2017-04-16T09:37:56.000Z</time>
      </trkpt>
      <trkpt lat="43.54749" lon="3.0094">
        <ele>536.4</ele>
        <time>2017-04-16T09:37:58.000Z</time>
      </trkpt>
      <trkpt lat="43.54747" lon="3.00938">
        <ele>536.6</ele>
        <time>2017-04-16T09:38:00.000Z</time>
      </trkpt>
      <trkpt lat="43.54746" lon="3.00936">
        <ele>536.8</ele>
        <time>2017-04-16T09:38:02.000Z</time>
      </trkpt>
      <trkpt lat="43.54745" lon="3.00935">
        <ele>537.2</ele>
        <time>2017-04-16T09:38:04.000Z</time>
      </trkpt>
      <trkpt lat="43.54744" lon="3.00935">
        <ele>537.8</ele>
        <time>2017-04-16T09:38:06.000Z</time>
      </trkpt>
      <trkpt lat="43.54743" lon="3.00934">
        <ele>538.2</ele>
        <time>2017-04-16T09:38:08.000Z</time>
      </trkpt>
      <trkpt lat="43.54743" lon="3.00934">
        <ele>538.2</ele>
        <time>2017-04-16T09:38:09.000Z</time>
      </trkpt>
      <trkpt lat="43.54742" lon="3.00934">
        <ele>538.6</ele>
        <time>2017-04-16T09:38:11.000Z</time>
      </trkpt>
      <trkpt lat="43.54741" lon="3.00933">
        <ele>538.8</ele>
        <time>2017-04-16T09:38:12.000Z</time>
      </trkpt>
      <trkpt lat="43.5474" lon="3.00933">
        <ele>539.2</ele>
        <time>2017-04-16T09:38:14.000Z</time>
      </trkpt>
      <trkpt lat="43.54739" lon="3.00933">
        <ele>539.6</ele>
        <time>2017-04-16T09:38:16.000Z</time>
      </trkpt>
      <trkpt lat="43.54736" lon="3.00933">
        <ele>540.2</ele>
        <time>2017-04-16T09:38:18.000Z</time>
      </trkpt>
      <trkpt lat="43.54734" lon="3.00932">
        <ele>540.4</ele>
        <time>2017-04-16T09:38:20.000Z</time>
      </trkpt>
      <trkpt lat="43.54731" lon="3.00931">
        <ele>540.8</ele>
        <time>2017-04-16T09:38:22.000Z</time>
      </trkpt>
      <trkpt lat="43.54729" lon="3.0093">
        <ele>541</ele>
        <time>2017-04-16T09:38:24.000Z</time>
      </trkpt>
      <trkpt lat="43.54728" lon="3.00928">
        <ele>541.4</ele>
        <time>2017-04-16T09:38:26.000Z</time>
      </trkpt>
      <trkpt lat="43.54727" lon="3.00924">
        <ele>542</ele>
        <time>2017-04-16T09:38:28.000Z</time>
      </trkpt>
      <trkpt lat="43.54725" lon="3.00922">
        <ele>542.4</ele>
        <time>2017-04-16T09:38:30.000Z</time>
      </trkpt>
      <trkpt lat="43.54724" lon="3.00921">
        <ele>542.8</ele>
        <time>2017-04-16T09:38:32.000Z</time>
      </trkpt>
      <trkpt lat="43.54722" lon="3.00921">
        <ele>543</ele>
        <time>2017-04-16T09:38:34.000Z</time>
      </trkpt>
      <trkpt lat="43.54721" lon="3.0092">
        <ele>543.2</ele>
        <time>2017-04-16T09:38:35.000Z</time>
      </trkpt>
      <trkpt lat="43.54718" lon="3.00919">
        <ele>543.6</ele>
        <time>2017-04-16T09:38:38.000Z</time>
      </trkpt>
      <trkpt lat="43.54715" lon="3.0092">
        <ele>544.2</ele>
        <time>2017-04-16T09:38:40.000Z</time>
      </trkpt>
      <trkpt lat="43.54714" lon="3.00919">
        <ele>544.6</ele>
        <time>2017-04-16T09:38:42.000Z</time>
      </trkpt>
      <trkpt lat="43.54713" lon="3.00917">
        <ele>545</ele>
        <time>2017-04-16T09:38:44.000Z</time>
      </trkpt>
      <trkpt lat="43.54713" lon="3.00915">
        <ele>545.4</ele>
        <time>2017-04-16T09:38:46.000Z</time>
      </trkpt>
      <trkpt lat="43.54714" lon="3.00913">
        <ele>545.6</ele>
        <time>2017-04-16T09:38:48.000Z</time>
      </trkpt>
      <trkpt lat="43.54716" lon="3.00903">
        <ele>549.8</ele>
        <time>2017-04-16T09:39:15.000Z</time>
      </trkpt>
      <trkpt lat="43.54715" lon="3.00903">
        <ele>549.8</ele>
        <time>2017-04-16T09:39:16.000Z</time>
      </trkpt>
      <trkpt lat="43.54714" lon="3.00903">
        <ele>550</ele>
        <time>2017-04-16T09:39:17.000Z</time>
      </trkpt>
      <trkpt lat="43.54713" lon="3.00902">
        <ele>550</ele>
        <time>2017-04-16T09:39:18.000Z</time>
      </trkpt>
      <trkpt lat="43.54712" lon="3.009">
        <ele>550.2</ele>
        <time>2017-04-16T09:39:20.000Z</time>
      </trkpt>
      <trkpt lat="43.5471" lon="3.00898">
        <ele>550.4</ele>
        <time>2017-04-16T09:39:21.000Z</time>
      </trkpt>
      <trkpt lat="43.5471" lon="3.00897">
        <ele>551</ele>
        <time>2017-04-16T09:39:23.000Z</time>
      </trkpt>
      <trkpt lat="43.54709" lon="3.00897">
        <ele>551.4</ele>
        <time>2017-04-16T09:39:25.000Z</time>
      </trkpt>
      <trkpt lat="43.54708" lon="3.00896">
        <ele>551.8</ele>
        <time>2017-04-16T09:39:27.000Z</time>
      </trkpt>
      <trkpt lat="43.54707" lon="3.00895">
        <ele>552</ele>
        <time>2017-04-16T09:39:29.000Z</time>
      </trkpt>
      <trkpt lat="43.54706" lon="3.00895">
        <ele>552.2</ele>
        <time>2017-04-16T09:39:31.000Z</time>
      </trkpt>
      <trkpt lat="43.54704" lon="3.00894">
        <ele>553.4</ele>
        <time>2017-04-16T09:39:35.000Z</time>
      </trkpt>
      <trkpt lat="43.54704" lon="3.00892">
        <ele>553.6</ele>
        <time>2017-04-16T09:39:36.000Z</time>
      </trkpt>
      <trkpt lat="43.54703" lon="3.00892">
        <ele>553.6</ele>
        <time>2017-04-16T09:39:37.000Z</time>
      </trkpt>
      <trkpt lat="43.54703" lon="3.00891">
        <ele>553.8</ele>
        <time>2017-04-16T09:39:38.000Z</time>
      </trkpt>
      <trkpt lat="43.54703" lon="3.00891">
        <ele>554</ele>
        <time>2017-04-16T09:39:39.000Z</time>
      </trkpt>
      <trkpt lat="43.54705" lon="3.00883">
        <ele>556.2</ele>
        <time>2017-04-16T09:39:49.000Z</time>
      </trkpt>
      <trkpt lat="43.54705" lon="3.00882">
        <ele>556.2</ele>
        <time>2017-04-16T09:39:50.000Z</time>
      </trkpt>
      <trkpt lat="43.54706" lon="3.00882">
        <ele>556.4</ele>
        <time>2017-04-16T09:39:51.000Z</time>
      </trkpt>
      <trkpt lat="43.54706" lon="3.00881">
        <ele>556.6</ele>
        <time>2017-04-16T09:39:52.000Z</time>
      </trkpt>
      <trkpt lat="43.54708" lon="3.00879">
        <ele>557.2</ele>
        <time>2017-04-16T09:39:54.000Z</time>
      </trkpt>
      <trkpt lat="43.54709" lon="3.00877">
        <ele>557.6</ele>
        <time>2017-04-16T09:39:56.000Z</time>
      </trkpt>
      <trkpt lat="43.54709" lon="3.00876">
        <ele>558</ele>
        <time>2017-04-16T09:39:58.000Z</time>
      </trkpt>
      <trkpt lat="43.5471" lon="3.00874">
        <ele>558.2</ele>
        <time>2017-04-16T09:40:00.000Z</time>
      </trkpt>
      <trkpt lat="43.54709" lon="3.00873">
        <ele>558.4</ele>
        <time>2017-04-16T09:40:01.000Z</time>
      </trkpt>
      <trkpt lat="43.54705" lon="3.00866">
        <ele>560.6</ele>
        <time>2017-04-16T09:40:15.000Z</time>
      </trkpt>
      <trkpt lat="43.54705" lon="3.00866">
        <ele>561</ele>
        <time>2017-04-16T09:40:16.000Z</time>
      </trkpt>
      <trkpt lat="43.54705" lon="3.00866">
        <ele>561.2</ele>
        <time>2017-04-16T09:40:17.000Z</time>
      </trkpt>
      <trkpt lat="43.54706" lon="3.00865">
        <ele>561.4</ele>
        <time>2017-04-16T09:40:18.000Z</time>
      </trkpt>
      <trkpt lat="43.54707" lon="3.00864">
        <ele>561.8</ele>
        <time>2017-04-16T09:40:20.000Z</time>
      </trkpt>
      <trkpt lat="43.54709" lon="3.00862">
        <ele>562.2</ele>
        <time>2017-04-16T09:40:22.000Z</time>
      </trkpt>
      <trkpt lat="43.54709" lon="3.00861">
        <ele>562.4</ele>
        <time>2017-04-16T09:40:24.000Z</time>
      </trkpt>
      <trkpt lat="43.54708" lon="3.00859">
        <ele>563</ele>
        <time>2017-04-16T09:40:26.000Z</time>
      </trkpt>
      <trkpt lat="43.54707" lon="3.00857">
        <ele>563.4</ele>
        <time>2017-04-16T09:40:28.000Z</time>
      </trkpt>
      <trkpt lat="43.54705" lon="3.00856">
        <ele>564</ele>
        <time>2017-04-16T09:40:30.000Z</time>
      </trkpt>
      <trkpt lat="43.54701" lon="3.00855">
        <ele>565.4</ele>
        <time>2017-04-16T09:40:38.000Z</time>
      </trkpt>
      <trkpt lat="43.547" lon="3.00855">
        <ele>565.6</ele>
        <time>2017-04-16T09:40:39.000Z</time>
      </trkpt>
      <trkpt lat="43.54699" lon="3.00855">
        <ele>565.8</ele>
        <time>2017-04-16T09:40:40.000Z</time>
      </trkpt>
      <trkpt lat="43.54698" lon="3.00855">
        <ele>566</ele>
        <time>2017-04-16T09:40:41.000Z</time>
      </trkpt>
      <trkpt lat="43.54697" lon="3.00854">
        <ele>566.4</ele>
        <time>2017-04-16T09:40:43.000Z</time>
      </trkpt>
      <trkpt lat="43.54695" lon="3.00853">
        <ele>566.6</ele>
        <time>2017-04-16T09:40:45.000Z</time>
      </trkpt>
      <trkpt lat="43.54693" lon="3.00852">
        <ele>566.8</ele>
        <time>2017-04-16T09:40:47.000Z</time>
      </trkpt>
      <trkpt lat="43.54691" lon="3.00851">
        <ele>567.2</ele>
        <time>2017-04-16T09:40:49.000Z</time>
      </trkpt>
      <trkpt lat="43.54688" lon="3.00851">
        <ele>567.8</ele>
        <time>2017-04-16T09:40:51.000Z</time>
      </trkpt>
      <trkpt lat="43.54685" lon="3.00851">
        <ele>568.2</ele>
        <time>2017-04-16T09:40:53.000Z</time>
      </trkpt>
      <trkpt lat="43.54682" lon="3.00851">
        <ele>568.4</ele>
        <time>2017-04-16T09:40:55.000Z</time>
      </trkpt>
      <trkpt lat="43.5468" lon="3.00851">
        <ele>568.8</ele>
        <time>2017-04-16T09:40:57.000Z</time>
      </trkpt>
      <trkpt lat="43.54678" lon="3.00849">
        <ele>569.2</ele>
        <time>2017-04-16T09:41:03.000Z</time>
      </trkpt>
      <trkpt lat="43.54677" lon="3.00849">
        <ele>569.6</ele>
        <time>2017-04-16T09:41:06.000Z</time>
      </trkpt>
      <trkpt lat="43.54677" lon="3.00849">
        <ele>569.8</ele>
        <time>2017-04-16T09:41:07.000Z</time>
      </trkpt>
      <trkpt lat="43.54677" lon="3.00848">
        <ele>570.4</ele>
        <time>2017-04-16T09:41:10.000Z</time>
      </trkpt>
      <trkpt lat="43.54676" lon="3.00847">
        <ele>570.6</ele>
        <time>2017-04-16T09:41:11.000Z</time>
      </trkpt>
      <trkpt lat="43.54675" lon="3.00845">
        <ele>570.8</ele>
        <time>2017-04-16T09:41:13.000Z</time>
      </trkpt>
      <trkpt lat="43.54675" lon="3.00842">
        <ele>571</ele>
        <time>2017-04-16T09:41:15.000Z</time>
      </trkpt>
      <trkpt lat="43.54675" lon="3.00842">
        <ele>571.4</ele>
        <time>2017-04-16T09:41:16.000Z</time>
      </trkpt>
      <trkpt lat="43.54678" lon="3.00834">
        <ele>573</ele>
        <time>2017-04-16T09:41:25.000Z</time>
      </trkpt>
      <trkpt lat="43.54679" lon="3.00832">
        <ele>573.2</ele>
        <time>2017-04-16T09:41:27.000Z</time>
      </trkpt>
      <trkpt lat="43.54679" lon="3.00829">
        <ele>573.2</ele>
        <time>2017-04-16T09:41:29.000Z</time>
      </trkpt>
      <trkpt lat="43.54679" lon="3.00829">
        <ele>573.6</ele>
        <time>2017-04-16T09:41:30.000Z</time>
      </trkpt>
      <trkpt lat="43.54678" lon="3.00827">
        <ele>574</ele>
        <time>2017-04-16T09:41:32.000Z</time>
      </trkpt>
      <trkpt lat="43.54677" lon="3.00825">
        <ele>574.4</ele>
        <time>2017-04-16T09:41:34.000Z</time>
      </trkpt>
      <trkpt lat="43.54675" lon="3.00825">
        <ele>574.6</ele>
        <time>2017-04-16T09:41:35.000Z</time>
      </trkpt>
      <trkpt lat="43.54672" lon="3.00826">
        <ele>574.8</ele>
        <time>2017-04-16T09:41:37.000Z</time>
      </trkpt>
      <trkpt lat="43.54671" lon="3.00827">
        <ele>575</ele>
        <time>2017-04-16T09:41:38.000Z</time>
      </trkpt>
      <trkpt lat="43.54668" lon="3.00828">
        <ele>575.2</ele>
        <time>2017-04-16T09:41:40.000Z</time>
      </trkpt>
      <trkpt lat="43.54667" lon="3.00827">
        <ele>575.2</ele>
        <time>2017-04-16T09:41:41.000Z</time>
      </trkpt>
      <trkpt lat="43.54664" lon="3.00827">
        <ele>575.6</ele>
        <time>2017-04-16T09:41:44.000Z</time>
      </trkpt>
      <trkpt lat="43.54663" lon="3.00827">
        <ele>576.2</ele>
        <time>2017-04-16T09:41:46.000Z</time>
      </trkpt>
      <trkpt lat="43.54662" lon="3.00827">
        <ele>576.6</ele>
        <time>2017-04-16T09:41:48.000Z</time>
      </trkpt>
      <trkpt lat="43.54662" lon="3.00826">
        <ele>576.8</ele>
        <time>2017-04-16T09:41:50.000Z</time>
      </trkpt>
      <trkpt lat="43.54662" lon="3.00825">
        <ele>577</ele>
        <time>2017-04-16T09:41:52.000Z</time>
      </trkpt>
      <trkpt lat="43.54662" lon="3.00823">
        <ele>577.4</ele>
        <time>2017-04-16T09:41:55.000Z</time>
      </trkpt>
      <trkpt lat="43.54661" lon="3.00823">
        <ele>577.6</ele>
        <time>2017-04-16T09:41:58.000Z</time>
      </trkpt>
      <trkpt lat="43.5466" lon="3.00822">
        <ele>577.8</ele>
        <time>2017-04-16T09:41:59.000Z</time>
      </trkpt>
      <trkpt lat="43.54659" lon="3.00821">
        <ele>578.2</ele>
        <time>2017-04-16T09:42:01.000Z</time>
      </trkpt>
      <trkpt lat="43.54658" lon="3.00821">
        <ele>578.6</ele>
        <time>2017-04-16T09:42:03.000Z</time>
      </trkpt>
      <trkpt lat="43.54657" lon="3.0082">
        <ele>579</ele>
        <time>2017-04-16T09:42:05.000Z</time>
      </trkpt>
      <trkpt lat="43.54656" lon="3.00819">
        <ele>579.2</ele>
        <time>2017-04-16T09:42:07.000Z</time>
      </trkpt>
      <trkpt lat="43.54656" lon="3.00819">
        <ele>579.6</ele>
        <time>2017-04-16T09:42:08.000Z</time>
      </trkpt>
      <trkpt lat="43.54657" lon="3.00818">
        <ele>580.2</ele>
        <time>2017-04-16T09:42:11.000Z</time>
      </trkpt>
      <trkpt lat="43.54657" lon="3.00816">
        <ele>580.6</ele>
        <time>2017-04-16T09:42:13.000Z</time>
      </trkpt>
      <trkpt lat="43.54656" lon="3.00815">
        <ele>581</ele>
        <time>2017-04-16T09:42:15.000Z</time>
      </trkpt>
      <trkpt lat="43.54655" lon="3.00813">
        <ele>581.2</ele>
        <time>2017-04-16T09:42:17.000Z</time>
      </trkpt>
      <trkpt lat="43.54654" lon="3.00812">
        <ele>581.4</ele>
        <time>2017-04-16T09:42:19.000Z</time>
      </trkpt>
      <trkpt lat="43.5465" lon="3.00808">
        <ele>582</ele>
        <time>2017-04-16T09:42:24.000Z</time>
      </trkpt>
      <trkpt lat="43.54649" lon="3.00806">
        <ele>582.4</ele>
        <time>2017-04-16T09:42:26.000Z</time>
      </trkpt>
      <trkpt lat="43.54648" lon="3.00803">
        <ele>582.8</ele>
        <time>2017-04-16T09:42:28.000Z</time>
      </trkpt>
      <trkpt lat="43.54647" lon="3.00801">
        <ele>583</ele>
        <time>2017-04-16T09:42:30.000Z</time>
      </trkpt>
      <trkpt lat="43.54647" lon="3.00799">
        <ele>583.4</ele>
        <time>2017-04-16T09:42:32.000Z</time>
      </trkpt>
      <trkpt lat="43.54648" lon="3.00796">
        <ele>583.6</ele>
        <time>2017-04-16T09:42:36.000Z</time>
      </trkpt>
      <trkpt lat="43.54649" lon="3.00783">
        <ele>586.4</ele>
        <time>2017-04-16T09:44:58.000Z</time>
      </trkpt>
      <trkpt lat="43.54648" lon="3.00783">
        <ele>586.4</ele>
        <time>2017-04-16T09:44:59.000Z</time>
      </trkpt>
      <trkpt lat="43.54648" lon="3.00782">
        <ele>586.4</ele>
        <time>2017-04-16T09:45:00.000Z</time>
      </trkpt>
      <trkpt lat="43.54643" lon="3.0078">
        <ele>586.4</ele>
        <time>2017-04-16T09:45:50.000Z</time>
      </trkpt>
      <trkpt lat="43.54642" lon="3.00777">
        <ele>586.4</ele>
        <time>2017-04-16T09:45:51.000Z</time>
      </trkpt>
      <trkpt lat="43.54631" lon="3.00752">
        <ele>586.4</ele>
        <time>2017-04-16T09:45:53.000Z</time>
      </trkpt>
      <trkpt lat="43.54628" lon="3.00744">
        <ele>586</ele>
        <time>2017-04-16T09:45:54.000Z</time>
      </trkpt>
      <trkpt lat="43.5463" lon="3.00737">
        <ele>585.8</ele>
        <time>2017-04-16T09:45:55.000Z</time>
      </trkpt>
      <trkpt lat="43.54628" lon="3.00732">
        <ele>585.2</ele>
        <time>2017-04-16T09:45:56.000Z</time>
      </trkpt>
      <trkpt lat="43.54621" lon="3.0073">
        <ele>583.8</ele>
        <time>2017-04-16T09:45:58.000Z</time>
      </trkpt>
      <trkpt lat="43.54619" lon="3.00721">
        <ele>582.6</ele>
        <time>2017-04-16T09:46:00.000Z</time>
      </trkpt>
      <trkpt lat="43.54615" lon="3.00716">
        <ele>582</ele>
        <time>2017-04-16T09:46:01.000Z</time>
      </trkpt>
      <trkpt lat="43.5461" lon="3.00708">
        <ele>581.2</ele>
        <time>2017-04-16T09:46:02.000Z</time>
      </trkpt>
      <trkpt lat="43.54595" lon="3.0068">
        <ele>579.8</ele>
        <time>2017-04-16T09:46:04.000Z</time>
      </trkpt>
      <trkpt lat="43.54581" lon="3.00655">
        <ele>578</ele>
        <time>2017-04-16T09:46:06.000Z</time>
      </trkpt>
      <trkpt lat="43.5457" lon="3.00634">
        <ele>576</ele>
        <time>2017-04-16T09:46:08.000Z</time>
      </trkpt>
      <trkpt lat="43.54565" lon="3.00617">
        <ele>573.8</ele>
        <time>2017-04-16T09:46:10.000Z</time>
      </trkpt>
      <trkpt lat="43.54564" lon="3.00609">
        <ele>572.8</ele>
        <time>2017-04-16T09:46:11.000Z</time>
      </trkpt>
      <trkpt lat="43.54561" lon="3.00602">
        <ele>571.8</ele>
        <time>2017-04-16T09:46:12.000Z</time>
      </trkpt>
      <trkpt lat="43.54558" lon="3.00594">
        <ele>570.6</ele>
        <time>2017-04-16T09:46:13.000Z</time>
      </trkpt>
      <trkpt lat="43.54556" lon="3.00586">
        <ele>569.6</ele>
        <time>2017-04-16T09:46:14.000Z</time>
      </trkpt>
      <trkpt lat="43.54553" lon="3.00565">
        <ele>566.8</ele>
        <time>2017-04-16T09:46:17.000Z</time>
      </trkpt>
      <trkpt lat="43.54551" lon="3.00557">
        <ele>565.2</ele>
        <time>2017-04-16T09:46:19.000Z</time>
      </trkpt>
      <trkpt lat="43.54549" lon="3.00552">
        <ele>563.8</ele>
        <time>2017-04-16T09:46:21.000Z</time>
      </trkpt>
      <trkpt lat="43.54547" lon="3.00542">
        <ele>562.6</ele>
        <time>2017-04-16T09:46:23.000Z</time>
      </trkpt>
      <trkpt lat="43.54545" lon="3.00538">
        <ele>562</ele>
        <time>2017-04-16T09:46:24.000Z</time>
      </trkpt>
      <trkpt lat="43.54545" lon="3.00533">
        <ele>561.2</ele>
        <time>2017-04-16T09:46:25.000Z</time>
      </trkpt>
      <trkpt lat="43.54545" lon="3.00528">
        <ele>560.8</ele>
        <time>2017-04-16T09:46:26.000Z</time>
      </trkpt>
      <trkpt lat="43.54545" lon="3.00524">
        <ele>560.2</ele>
        <time>2017-04-16T09:46:27.000Z</time>
      </trkpt>
      <trkpt lat="43.54542" lon="3.00496">
        <ele>558.8</ele>
        <time>2017-04-16T09:46:30.000Z</time>
      </trkpt>
      <trkpt lat="43.54542" lon="3.00479">
        <ele>557.8</ele>
        <time>2017-04-16T09:46:32.000Z</time>
      </trkpt>
      <trkpt lat="43.54543" lon="3.00471">
        <ele>557.2</ele>
        <time>2017-04-16T09:46:33.000Z</time>
      </trkpt>
      <trkpt lat="43.54544" lon="3.00466">
        <ele>556.6</ele>
        <time>2017-04-16T09:46:34.000Z</time>
      </trkpt>
      <trkpt lat="43.54544" lon="3.00455">
        <ele>556.2</ele>
        <time>2017-04-16T09:46:35.000Z</time>
      </trkpt>
      <trkpt lat="43.54545" lon="3.00445">
        <ele>555.4</ele>
        <time>2017-04-16T09:46:36.000Z</time>
      </trkpt>
      <trkpt lat="43.54543" lon="3.00434">
        <ele>554.8</ele>
        <time>2017-04-16T09:46:37.000Z</time>
      </trkpt>
      <trkpt lat="43.54542" lon="3.00425">
        <ele>554.2</ele>
        <time>2017-04-16T09:46:38.000Z</time>
      </trkpt>
      <trkpt lat="43.54542" lon="3.00418">
        <ele>553.6</ele>
        <time>2017-04-16T09:46:39.000Z</time>
      </trkpt>
      <trkpt lat="43.54539" lon="3.00413">
        <ele>552.4</ele>
        <time>2017-04-16T09:46:41.000Z</time>
      </trkpt>
      <trkpt lat="43.54538" lon="3.00404">
        <ele>551.4</ele>
        <time>2017-04-16T09:46:43.000Z</time>
      </trkpt>
      <trkpt lat="43.54538" lon="3.00398">
        <ele>550.8</ele>
        <time>2017-04-16T09:46:44.000Z</time>
      </trkpt>
      <trkpt lat="43.54534" lon="3.00386">
        <ele>549.6</ele>
        <time>2017-04-16T09:46:46.000Z</time>
      </trkpt>
      <trkpt lat="43.54524" lon="3.00378">
        <ele>548.4</ele>
        <time>2017-04-16T09:46:48.000Z</time>
      </trkpt>
      <trkpt lat="43.54514" lon="3.00373">
        <ele>547</ele>
        <time>2017-04-16T09:46:50.000Z</time>
      </trkpt>
      <trkpt lat="43.5451" lon="3.00371">
        <ele>546.4</ele>
        <time>2017-04-16T09:46:51.000Z</time>
      </trkpt>
      <trkpt lat="43.54507" lon="3.00366">
        <ele>545.4</ele>
        <time>2017-04-16T09:46:52.000Z</time>
      </trkpt>
      <trkpt lat="43.54505" lon="3.00359">
        <ele>544.6</ele>
        <time>2017-04-16T09:46:53.000Z</time>
      </trkpt>
      <trkpt lat="43.54503" lon="3.00353">
        <ele>544</ele>
        <time>2017-04-16T09:46:54.000Z</time>
      </trkpt>
      <trkpt lat="43.54496" lon="3.00342">
        <ele>542.4</ele>
        <time>2017-04-16T09:46:56.000Z</time>
      </trkpt>
      <trkpt lat="43.54487" lon="3.00333">
        <ele>541.2</ele>
        <time>2017-04-16T09:46:58.000Z</time>
      </trkpt>
      <trkpt lat="43.54477" lon="3.00319">
        <ele>539.8</ele>
        <time>2017-04-16T09:47:00.000Z</time>
      </trkpt>
      <trkpt lat="43.54471" lon="3.00307">
        <ele>538.6</ele>
        <time>2017-04-16T09:47:02.000Z</time>
      </trkpt>
      <trkpt lat="43.54469" lon="3.003">
        <ele>537.8</ele>
        <time>2017-04-16T09:47:03.000Z</time>
      </trkpt>
      <trkpt lat="43.54466" lon="3.00283">
        <ele>536.2</ele>
        <time>2017-04-16T09:47:05.000Z</time>
      </trkpt>
      <trkpt lat="43.54464" lon="3.00276">
        <ele>535.4</ele>
        <time>2017-04-16T09:47:06.000Z</time>
      </trkpt>
      <trkpt lat="43.54459" lon="3.00265">
        <ele>533.6</ele>
        <time>2017-04-16T09:47:08.000Z</time>
      </trkpt>
      <trkpt lat="43.54454" lon="3.00255">
        <ele>531.8</ele>
        <time>2017-04-16T09:47:10.000Z</time>
      </trkpt>
      <trkpt lat="43.54447" lon="3.00245">
        <ele>529.8</ele>
        <time>2017-04-16T09:47:12.000Z</time>
      </trkpt>
      <trkpt lat="43.54444" lon="3.0024">
        <ele>528.8</ele>
        <time>2017-04-16T09:47:13.000Z</time>
      </trkpt>
      <trkpt lat="43.5444" lon="3.00234">
        <ele>528</ele>
        <time>2017-04-16T09:47:14.000Z</time>
      </trkpt>
      <trkpt lat="43.54434" lon="3.00223">
        <ele>526.6</ele>
        <time>2017-04-16T09:47:16.000Z</time>
      </trkpt>
      <trkpt lat="43.54422" lon="3.00205">
        <ele>525.4</ele>
        <time>2017-04-16T09:47:18.000Z</time>
      </trkpt>
      <trkpt lat="43.54416" lon="3.00193">
        <ele>524.6</ele>
        <time>2017-04-16T09:47:19.000Z</time>
      </trkpt>
      <trkpt lat="43.54406" lon="3.00174">
        <ele>523.2</ele>
        <time>2017-04-16T09:47:21.000Z</time>
      </trkpt>
      <trkpt lat="43.54405" lon="3.00162">
        <ele>522.4</ele>
        <time>2017-04-16T09:47:22.000Z</time>
      </trkpt>
      <trkpt lat="43.54403" lon="3.00153">
        <ele>521.4</ele>
        <time>2017-04-16T09:47:23.000Z</time>
      </trkpt>
      <trkpt lat="43.544" lon="3.00145">
        <ele>520.4</ele>
        <time>2017-04-16T09:47:24.000Z</time>
      </trkpt>
      <trkpt lat="43.54395" lon="3.00136">
        <ele>519.2</ele>
        <time>2017-04-16T09:47:25.000Z</time>
      </trkpt>
      <trkpt lat="43.54385" lon="3.00117">
        <ele>517.4</ele>
        <time>2017-04-16T09:47:27.000Z</time>
      </trkpt>
      <trkpt lat="43.54381" lon="3.0011">
        <ele>516.2</ele>
        <time>2017-04-16T09:47:28.000Z</time>
      </trkpt>
      <trkpt lat="43.54368" lon="3.00095">
        <ele>514.2</ele>
        <time>2017-04-16T09:47:30.000Z</time>
      </trkpt>
      <trkpt lat="43.54362" lon="3.00086">
        <ele>512.8</ele>
        <time>2017-04-16T09:47:32.000Z</time>
      </trkpt>
      <trkpt lat="43.54355" lon="3.00081">
        <ele>511.6</ele>
        <time>2017-04-16T09:47:34.000Z</time>
      </trkpt>
      <trkpt lat="43.54346" lon="3.00074">
        <ele>510.6</ele>
        <time>2017-04-16T09:47:36.000Z</time>
      </trkpt>
      <trkpt lat="43.54341" lon="3.0007">
        <ele>510</ele>
        <time>2017-04-16T09:47:37.000Z</time>
      </trkpt>
      <trkpt lat="43.54325" lon="3.00056">
        <ele>508.8</ele>
        <time>2017-04-16T09:47:41.000Z</time>
      </trkpt>
      <trkpt lat="43.54322" lon="3.00052">
        <ele>508.6</ele>
        <time>2017-04-16T09:47:42.000Z</time>
      </trkpt>
      <trkpt lat="43.54316" lon="3.00047">
        <ele>508.2</ele>
        <time>2017-04-16T09:47:43.000Z</time>
      </trkpt>
      <trkpt lat="43.54302" lon="3.00035">
        <ele>507.8</ele>
        <time>2017-04-16T09:47:46.000Z</time>
      </trkpt>
      <trkpt lat="43.54284" lon="3.00016">
        <ele>507.2</ele>
        <time>2017-04-16T09:47:50.000Z</time>
      </trkpt>
      <trkpt lat="43.54277" lon="3.00012">
        <ele>506.8</ele>
        <time>2017-04-16T09:47:52.000Z</time>
      </trkpt>
      <trkpt lat="43.54268" lon="3.00012">
        <ele>506.2</ele>
        <time>2017-04-16T09:47:54.000Z</time>
      </trkpt>
      <trkpt lat="43.54264" lon="3.00009">
        <ele>505.8</ele>
        <time>2017-04-16T09:47:55.000Z</time>
      </trkpt>
      <trkpt lat="43.54249" lon="3">
        <ele>505</ele>
        <time>2017-04-16T09:47:57.000Z</time>
      </trkpt>
      <trkpt lat="43.54243" lon="2.99995">
        <ele>504.4</ele>
        <time>2017-04-16T09:47:58.000Z</time>
      </trkpt>
      <trkpt lat="43.54229" lon="2.99989">
        <ele>503</ele>
        <time>2017-04-16T09:48:00.000Z</time>
      </trkpt>
      <trkpt lat="43.54217" lon="2.99984">
        <ele>501.6</ele>
        <time>2017-04-16T09:48:02.000Z</time>
      </trkpt>
      <trkpt lat="43.54204" lon="2.99977">
        <ele>499.8</ele>
        <time>2017-04-16T09:48:04.000Z</time>
      </trkpt>
      <trkpt lat="43.54191" lon="2.99972">
        <ele>498</ele>
        <time>2017-04-16T09:48:06.000Z</time>
      </trkpt>
      <trkpt lat="43.54186" lon="2.99968">
        <ele>497.2</ele>
        <time>2017-04-16T09:48:07.000Z</time>
      </trkpt>
      <trkpt lat="43.54182" lon="2.99962">
        <ele>496.4</ele>
        <time>2017-04-16T09:48:08.000Z</time>
      </trkpt>
      <trkpt lat="43.54178" lon="2.99954">
        <ele>495.4</ele>
        <time>2017-04-16T09:48:09.000Z</time>
      </trkpt>
      <trkpt lat="43.54173" lon="2.99951">
        <ele>494.4</ele>
        <time>2017-04-16T09:48:10.000Z</time>
      </trkpt>
      <trkpt lat="43.54161" lon="2.99935">
        <ele>492.4</ele>
        <time>2017-04-16T09:48:13.000Z</time>
      </trkpt>
      <trkpt lat="43.54155" lon="2.99934">
        <ele>491.8</ele>
        <time>2017-04-16T09:48:14.000Z</time>
      </trkpt>
      <trkpt lat="43.54149" lon="2.99934">
        <ele>491.2</ele>
        <time>2017-04-16T09:48:15.000Z</time>
      </trkpt>
      <trkpt lat="43.54142" lon="2.99935">
        <ele>490.6</ele>
        <time>2017-04-16T09:48:16.000Z</time>
      </trkpt>
      <trkpt lat="43.54128" lon="2.99939">
        <ele>489.4</ele>
        <time>2017-04-16T09:48:18.000Z</time>
      </trkpt>
      <trkpt lat="43.54123" lon="2.99942">
        <ele>489</ele>
        <time>2017-04-16T09:48:19.000Z</time>
      </trkpt>
      <trkpt lat="43.54118" lon="2.99943">
        <ele>488.6</ele>
        <time>2017-04-16T09:48:20.000Z</time>
      </trkpt>
      <trkpt lat="43.54111" lon="2.99948">
        <ele>487.8</ele>
        <time>2017-04-16T09:48:22.000Z</time>
      </trkpt>
      <trkpt lat="43.54107" lon="2.99944">
        <ele>487.4</ele>
        <time>2017-04-16T09:48:23.000Z</time>
      </trkpt>
      <trkpt lat="43.54104" lon="2.99942">
        <ele>487.2</ele>
        <time>2017-04-16T09:48:24.000Z</time>
      </trkpt>
      <trkpt lat="43.54093" lon="2.99933">
        <ele>486.2</ele>
        <time>2017-04-16T09:48:27.000Z</time>
      </trkpt>
      <trkpt lat="43.5409" lon="2.99934">
        <ele>485.6</ele>
        <time>2017-04-16T09:48:28.000Z</time>
      </trkpt>
      <trkpt lat="43.54088" lon="2.99932">
        <ele>485</ele>
        <time>2017-04-16T09:48:29.000Z</time>
      </trkpt>
      <trkpt lat="43.54086" lon="2.99929">
        <ele>484.4</ele>
        <time>2017-04-16T09:48:30.000Z</time>
      </trkpt>
      <trkpt lat="43.54076" lon="2.99916">
        <ele>481.8</ele>
        <time>2017-04-16T09:48:33.000Z</time>
      </trkpt>
      <trkpt lat="43.5407" lon="2.99912">
        <ele>480.8</ele>
        <time>2017-04-16T09:48:34.000Z</time>
      </trkpt>
      <trkpt lat="43.54052" lon="2.999">
        <ele>477.6</ele>
        <time>2017-04-16T09:48:37.000Z</time>
      </trkpt>
      <trkpt lat="43.54046" lon="2.99893">
        <ele>475.4</ele>
        <time>2017-04-16T09:48:39.000Z</time>
      </trkpt>
      <trkpt lat="43.54043" lon="2.99889">
        <ele>474.4</ele>
        <time>2017-04-16T09:48:40.000Z</time>
      </trkpt>
      <trkpt lat="43.54042" lon="2.99884">
        <ele>473.2</ele>
        <time>2017-04-16T09:48:41.000Z</time>
      </trkpt>
      <trkpt lat="43.54043" lon="2.99874">
        <ele>471</ele>
        <time>2017-04-16T09:48:43.000Z</time>
      </trkpt>
      <trkpt lat="43.54043" lon="2.99867">
        <ele>469</ele>
        <time>2017-04-16T09:48:45.000Z</time>
      </trkpt>
      <trkpt lat="43.54042" lon="2.99868">
        <ele>468</ele>
        <time>2017-04-16T09:48:46.000Z</time>
      </trkpt>
      <trkpt lat="43.54038" lon="2.99868">
        <ele>466.2</ele>
        <time>2017-04-16T09:48:48.000Z</time>
      </trkpt>
      <trkpt lat="43.54038" lon="2.99865">
        <ele>464.4</ele>
        <time>2017-04-16T09:48:50.000Z</time>
      </trkpt>
      <trkpt lat="43.54036" lon="2.99855">
        <ele>462.8</ele>
        <time>2017-04-16T09:48:52.000Z</time>
      </trkpt>
      <trkpt lat="43.54034" lon="2.99847">
        <ele>462</ele>
        <time>2017-04-16T09:48:53.000Z</time>
      </trkpt>
      <trkpt lat="43.54034" lon="2.99839">
        <ele>461.2</ele>
        <time>2017-04-16T09:48:54.000Z</time>
      </trkpt>
      <trkpt lat="43.54034" lon="2.99823">
        <ele>459.4</ele>
        <time>2017-04-16T09:48:56.000Z</time>
      </trkpt>
      <trkpt lat="43.54036" lon="2.99813">
        <ele>458.4</ele>
        <time>2017-04-16T09:48:57.000Z</time>
      </trkpt>
      <trkpt lat="43.5404" lon="2.99797">
        <ele>456.6</ele>
        <time>2017-04-16T09:48:59.000Z</time>
      </trkpt>
      <trkpt lat="43.54038" lon="2.99788">
        <ele>455.8</ele>
        <time>2017-04-16T09:49:00.000Z</time>
      </trkpt>
      <trkpt lat="43.54037" lon="2.9978">
        <ele>454.8</ele>
        <time>2017-04-16T09:49:01.000Z</time>
      </trkpt>
      <trkpt lat="43.54033" lon="2.99768">
        <ele>452.8</ele>
        <time>2017-04-16T09:49:03.000Z</time>
      </trkpt>
      <trkpt lat="43.54026" lon="2.99765">
        <ele>450.4</ele>
        <time>2017-04-16T09:49:05.000Z</time>
      </trkpt>
      <trkpt lat="43.5402" lon="2.99765">
        <ele>448</ele>
        <time>2017-04-16T09:49:07.000Z</time>
      </trkpt>
      <trkpt lat="43.54011" lon="2.99758">
        <ele>445.6</ele>
        <time>2017-04-16T09:49:09.000Z</time>
      </trkpt>
      <trkpt lat="43.5401" lon="2.99754">
        <ele>444.6</ele>
        <time>2017-04-16T09:49:10.000Z</time>
      </trkpt>
      <trkpt lat="43.54005" lon="2.99753">
        <ele>443.2</ele>
        <time>2017-04-16T09:49:11.000Z</time>
      </trkpt>
      <trkpt lat="43.54" lon="2.99746">
        <ele>440.8</ele>
        <time>2017-04-16T09:49:13.000Z</time>
      </trkpt>
      <trkpt lat="43.53994" lon="2.99748">
        <ele>438.4</ele>
        <time>2017-04-16T09:49:15.000Z</time>
      </trkpt>
      <trkpt lat="43.53991" lon="2.99756">
        <ele>436.2</ele>
        <time>2017-04-16T09:49:17.000Z</time>
      </trkpt>
      <trkpt lat="43.5399" lon="2.99758">
        <ele>435</ele>
        <time>2017-04-16T09:49:18.000Z</time>
      </trkpt>
      <trkpt lat="43.53991" lon="2.99766">
        <ele>433</ele>
        <time>2017-04-16T09:49:20.000Z</time>
      </trkpt>
      <trkpt lat="43.53988" lon="2.9977">
        <ele>432</ele>
        <time>2017-04-16T09:49:21.000Z</time>
      </trkpt>
      <trkpt lat="43.53982" lon="2.9977">
        <ele>429.8</ele>
        <time>2017-04-16T09:49:23.000Z</time>
      </trkpt>
      <trkpt lat="43.53983" lon="2.9978">
        <ele>427.4</ele>
        <time>2017-04-16T09:49:25.000Z</time>
      </trkpt>
      <trkpt lat="43.53982" lon="2.99785">
        <ele>426.4</ele>
        <time>2017-04-16T09:49:26.000Z</time>
      </trkpt>
      <trkpt lat="43.53981" lon="2.99796">
        <ele>424</ele>
        <time>2017-04-16T09:49:28.000Z</time>
      </trkpt>
      <trkpt lat="43.53979" lon="2.99801">
        <ele>422.8</ele>
        <time>2017-04-16T09:49:29.000Z</time>
      </trkpt>
      <trkpt lat="43.53975" lon="2.99805">
        <ele>421.8</ele>
        <time>2017-04-16T09:49:30.000Z</time>
      </trkpt>
      <trkpt lat="43.5397" lon="2.99818">
        <ele>419.6</ele>
        <time>2017-04-16T09:49:32.000Z</time>
      </trkpt>
      <trkpt lat="43.53969" lon="2.99824">
        <ele>418.6</ele>
        <time>2017-04-16T09:49:33.000Z</time>
      </trkpt>
      <trkpt lat="43.53968" lon="2.99834">
        <ele>417.6</ele>
        <time>2017-04-16T09:49:34.000Z</time>
      </trkpt>
      <trkpt lat="43.53965" lon="2.99844">
        <ele>416.6</ele>
        <time>2017-04-16T09:49:35.000Z</time>
      </trkpt>
      <trkpt lat="43.53962" lon="2.99859">
        <ele>414.6</ele>
        <time>2017-04-16T09:49:37.000Z</time>
      </trkpt>
      <trkpt lat="43.53961" lon="2.99866">
        <ele>413.8</ele>
        <time>2017-04-16T09:49:38.000Z</time>
      </trkpt>
      <trkpt lat="43.53954" lon="2.9988">
        <ele>412.4</ele>
        <time>2017-04-16T09:49:40.000Z</time>
      </trkpt>
      <trkpt lat="43.5395" lon="2.99896">
        <ele>410.6</ele>
        <time>2017-04-16T09:49:42.000Z</time>
      </trkpt>
      <trkpt lat="43.53941" lon="2.99915">
        <ele>408.8</ele>
        <time>2017-04-16T09:49:44.000Z</time>
      </trkpt>
      <trkpt lat="43.53931" lon="2.99928">
        <ele>407</ele>
        <time>2017-04-16T09:49:46.000Z</time>
      </trkpt>
      <trkpt lat="43.53922" lon="2.99939">
        <ele>405</ele>
        <time>2017-04-16T09:49:48.000Z</time>
      </trkpt>
      <trkpt lat="43.5392" lon="2.99944">
        <ele>404</ele>
        <time>2017-04-16T09:49:49.000Z</time>
      </trkpt>
      <trkpt lat="43.5392" lon="2.99949">
        <ele>403</ele>
        <time>2017-04-16T09:49:50.000Z</time>
      </trkpt>
      <trkpt lat="43.53923" lon="2.99953">
        <ele>402</ele>
        <time>2017-04-16T09:49:51.000Z</time>
      </trkpt>
      <trkpt lat="43.53927" lon="2.99962">
        <ele>400.2</ele>
        <time>2017-04-16T09:49:53.000Z</time>
      </trkpt>
      <trkpt lat="43.53928" lon="2.99969">
        <ele>399.6</ele>
        <time>2017-04-16T09:49:54.000Z</time>
      </trkpt>
      <trkpt lat="43.53931" lon="2.99976">
        <ele>398.8</ele>
        <time>2017-04-16T09:49:55.000Z</time>
      </trkpt>
      <trkpt lat="43.53934" lon="2.9998">
        <ele>398</ele>
        <time>2017-04-16T09:49:56.000Z</time>
      </trkpt>
      <trkpt lat="43.53944" lon="2.99995">
        <ele>396.4</ele>
        <time>2017-04-16T09:49:58.000Z</time>
      </trkpt>
      <trkpt lat="43.53961" lon="3.00008">
        <ele>394.6</ele>
        <time>2017-04-16T09:50:00.000Z</time>
      </trkpt>
      <trkpt lat="43.53969" lon="3.00012">
        <ele>393.8</ele>
        <time>2017-04-16T09:50:01.000Z</time>
      </trkpt>
      <trkpt lat="43.53982" lon="3.00021">
        <ele>391.8</ele>
        <time>2017-04-16T09:50:03.000Z</time>
      </trkpt>
      <trkpt lat="43.54" lon="3.00039">
        <ele>389</ele>
        <time>2017-04-16T09:50:06.000Z</time>
      </trkpt>
      <trkpt lat="43.54003" lon="3.00045">
        <ele>388</ele>
        <time>2017-04-16T09:50:07.000Z</time>
      </trkpt>
      <trkpt lat="43.54013" lon="3.00053">
        <ele>386.2</ele>
        <time>2017-04-16T09:50:09.000Z</time>
      </trkpt>
      <trkpt lat="43.54017" lon="3.00056">
        <ele>385.2</ele>
        <time>2017-04-16T09:50:10.000Z</time>
      </trkpt>
      <trkpt lat="43.54024" lon="3.00079">
        <ele>381.6</ele>
        <time>2017-04-16T09:50:13.000Z</time>
      </trkpt>
      <trkpt lat="43.54032" lon="3.00099">
        <ele>379.2</ele>
        <time>2017-04-16T09:50:15.000Z</time>
      </trkpt>
      <trkpt lat="43.54042" lon="3.00111">
        <ele>376.4</ele>
        <time>2017-04-16T09:50:17.000Z</time>
      </trkpt>
      <trkpt lat="43.54047" lon="3.00114">
        <ele>375</ele>
        <time>2017-04-16T09:50:18.000Z</time>
      </trkpt>
      <trkpt lat="43.54049" lon="3.00118">
        <ele>373.4</ele>
        <time>2017-04-16T09:50:19.000Z</time>
      </trkpt>
      <trkpt lat="43.54054" lon="3.0013">
        <ele>370.6</ele>
        <time>2017-04-16T09:50:21.000Z</time>
      </trkpt>
      <trkpt lat="43.54051" lon="3.00148">
        <ele>367.6</ele>
        <time>2017-04-16T09:50:23.000Z</time>
      </trkpt>
      <trkpt lat="43.54049" lon="3.00159">
        <ele>366.4</ele>
        <time>2017-04-16T09:50:24.000Z</time>
      </trkpt>
      <trkpt lat="43.54048" lon="3.00168">
        <ele>364.8</ele>
        <time>2017-04-16T09:50:25.000Z</time>
      </trkpt>
      <trkpt lat="43.54045" lon="3.00174">
        <ele>363.4</ele>
        <time>2017-04-16T09:50:26.000Z</time>
      </trkpt>
      <trkpt lat="43.54043" lon="3.0018">
        <ele>361.8</ele>
        <time>2017-04-16T09:50:27.000Z</time>
      </trkpt>
      <trkpt lat="43.54037" lon="3.00186">
        <ele>360.2</ele>
        <time>2017-04-16T09:50:28.000Z</time>
      </trkpt>
      <trkpt lat="43.54035" lon="3.0019">
        <ele>358.6</ele>
        <time>2017-04-16T09:50:29.000Z</time>
      </trkpt>
      <trkpt lat="43.54034" lon="3.00194">
        <ele>357.2</ele>
        <time>2017-04-16T09:50:30.000Z</time>
      </trkpt>
      <trkpt lat="43.54029" lon="3.00205">
        <ele>352.8</ele>
        <time>2017-04-16T09:50:33.000Z</time>
      </trkpt>
      <trkpt lat="43.54025" lon="3.00205">
        <ele>350.2</ele>
        <time>2017-04-16T09:50:35.000Z</time>
      </trkpt>
      <trkpt lat="43.54024" lon="3.00203">
        <ele>348.8</ele>
        <time>2017-04-16T09:50:36.000Z</time>
      </trkpt>
      <trkpt lat="43.54025" lon="3.00199">
        <ele>347.6</ele>
        <time>2017-04-16T09:50:37.000Z</time>
      </trkpt>
      <trkpt lat="43.54026" lon="3.00196">
        <ele>346.4</ele>
        <time>2017-04-16T09:50:38.000Z</time>
      </trkpt>
      <trkpt lat="43.54022" lon="3.00197">
        <ele>344.2</ele>
        <time>2017-04-16T09:50:40.000Z</time>
      </trkpt>
      <trkpt lat="43.5402" lon="3.002">
        <ele>343</ele>
        <time>2017-04-16T09:50:41.000Z</time>
      </trkpt>
      <trkpt lat="43.54015" lon="3.00214">
        <ele>341.2</ele>
        <time>2017-04-16T09:50:43.000Z</time>
      </trkpt>
      <trkpt lat="43.5401" lon="3.00222">
        <ele>340</ele>
        <time>2017-04-16T09:50:44.000Z</time>
      </trkpt>
      <trkpt lat="43.54006" lon="3.0023">
        <ele>339</ele>
        <time>2017-04-16T09:50:45.000Z</time>
      </trkpt>
      <trkpt lat="43.54002" lon="3.00239">
        <ele>338</ele>
        <time>2017-04-16T09:50:46.000Z</time>
      </trkpt>
      <trkpt lat="43.53996" lon="3.00248">
        <ele>335.6</ele>
        <time>2017-04-16T09:50:48.000Z</time>
      </trkpt>
      <trkpt lat="43.53991" lon="3.00253">
        <ele>333.4</ele>
        <time>2017-04-16T09:50:50.000Z</time>
      </trkpt>
      <trkpt lat="43.53984" lon="3.00258">
        <ele>331</ele>
        <time>2017-04-16T09:50:52.000Z</time>
      </trkpt>
      <trkpt lat="43.53981" lon="3.00263">
        <ele>329.8</ele>
        <time>2017-04-16T09:50:53.000Z</time>
      </trkpt>
      <trkpt lat="43.53977" lon="3.00267">
        <ele>328.4</ele>
        <time>2017-04-16T09:50:54.000Z</time>
      </trkpt>
      <trkpt lat="43.53972" lon="3.0027">
        <ele>327.4</ele>
        <time>2017-04-16T09:50:55.000Z</time>
      </trkpt>
      <trkpt lat="43.53968" lon="3.00275">
        <ele>326.2</ele>
        <time>2017-04-16T09:50:56.000Z</time>
      </trkpt>
      <trkpt lat="43.53966" lon="3.0028">
        <ele>325</ele>
        <time>2017-04-16T09:50:57.000Z</time>
      </trkpt>
      <trkpt lat="43.53963" lon="3.00286">
        <ele>324</ele>
        <time>2017-04-16T09:50:58.000Z</time>
      </trkpt>
      <trkpt lat="43.53954" lon="3.00297">
        <ele>321.4</ele>
        <time>2017-04-16T09:51:00.000Z</time>
      </trkpt>
      <trkpt lat="43.53949" lon="3.00302">
        <ele>320.2</ele>
        <time>2017-04-16T09:51:01.000Z</time>
      </trkpt>
      <trkpt lat="43.53936" lon="3.00315">
        <ele>317.8</ele>
        <time>2017-04-16T09:51:03.000Z</time>
      </trkpt>
      <trkpt lat="43.5393" lon="3.00321">
        <ele>316.6</ele>
        <time>2017-04-16T09:51:04.000Z</time>
      </trkpt>
      <trkpt lat="43.53912" lon="3.00332">
        <ele>312.8</ele>
        <time>2017-04-16T09:51:07.000Z</time>
      </trkpt>
      <trkpt lat="43.53906" lon="3.00336">
        <ele>311.6</ele>
        <time>2017-04-16T09:51:08.000Z</time>
      </trkpt>
      <trkpt lat="43.53887" lon="3.00349">
        <ele>307.4</ele>
        <time>2017-04-16T09:51:11.000Z</time>
      </trkpt>
      <trkpt lat="43.53881" lon="3.00352">
        <ele>306.2</ele>
        <time>2017-04-16T09:51:12.000Z</time>
      </trkpt>
      <trkpt lat="43.53874" lon="3.00355">
        <ele>304.8</ele>
        <time>2017-04-16T09:51:13.000Z</time>
      </trkpt>
      <trkpt lat="43.53864" lon="3.00359">
        <ele>302</ele>
        <time>2017-04-16T09:51:15.000Z</time>
      </trkpt>
      <trkpt lat="43.53857" lon="3.00361">
        <ele>300.6</ele>
        <time>2017-04-16T09:51:16.000Z</time>
      </trkpt>
      <trkpt lat="43.5385" lon="3.00363">
        <ele>299.2</ele>
        <time>2017-04-16T09:51:17.000Z</time>
      </trkpt>
      <trkpt lat="43.53834" lon="3.00369">
        <ele>296.2</ele>
        <time>2017-04-16T09:51:19.000Z</time>
      </trkpt>
      <trkpt lat="43.53816" lon="3.00373">
        <ele>293.2</ele>
        <time>2017-04-16T09:51:21.000Z</time>
      </trkpt>
      <trkpt lat="43.53798" lon="3.00377">
        <ele>290.2</ele>
        <time>2017-04-16T09:51:23.000Z</time>
      </trkpt>
      <trkpt lat="43.53781" lon="3.00384">
        <ele>287.4</ele>
        <time>2017-04-16T09:51:25.000Z</time>
      </trkpt>
      <trkpt lat="43.53772" lon="3.00388">
        <ele>286</ele>
        <time>2017-04-16T09:51:26.000Z</time>
      </trkpt>
      <trkpt lat="43.53756" lon="3.00391">
        <ele>283.4</ele>
        <time>2017-04-16T09:51:28.000Z</time>
      </trkpt>
      <trkpt lat="43.53739" lon="3.00398">
        <ele>280.8</ele>
        <time>2017-04-16T09:51:30.000Z</time>
      </trkpt>
      <trkpt lat="43.53733" lon="3.00405">
        <ele>279.6</ele>
        <time>2017-04-16T09:51:31.000Z</time>
      </trkpt>
      <trkpt lat="43.53714" lon="3.00428">
        <ele>275.8</ele>
        <time>2017-04-16T09:51:34.000Z</time>
      </trkpt>
      <trkpt lat="43.53707" lon="3.00426">
        <ele>275</ele>
        <time>2017-04-16T09:51:35.000Z</time>
      </trkpt>
      <trkpt lat="43.53702" lon="3.00425">
        <ele>274</ele>
        <time>2017-04-16T09:51:36.000Z</time>
      </trkpt>
      <trkpt lat="43.53697" lon="3.00423">
        <ele>273</ele>
        <time>2017-04-16T09:51:37.000Z</time>
      </trkpt>
      <trkpt lat="43.53685" lon="3.00417">
        <ele>271.2</ele>
        <time>2017-04-16T09:51:39.000Z</time>
      </trkpt>
      <trkpt lat="43.53677" lon="3.00416">
        <ele>270.6</ele>
        <time>2017-04-16T09:51:40.000Z</time>
      </trkpt>
      <trkpt lat="43.53669" lon="3.00415">
        <ele>269.6</ele>
        <time>2017-04-16T09:51:41.000Z</time>
      </trkpt>
      <trkpt lat="43.53663" lon="3.00414">
        <ele>268.8</ele>
        <time>2017-04-16T09:51:42.000Z</time>
      </trkpt>
      <trkpt lat="43.53653" lon="3.00418">
        <ele>266.8</ele>
        <time>2017-04-16T09:51:44.000Z</time>
      </trkpt>
      <trkpt lat="43.53647" lon="3.00417">
        <ele>265.8</ele>
        <time>2017-04-16T09:51:45.000Z</time>
      </trkpt>
      <trkpt lat="43.53644" lon="3.00415">
        <ele>264.6</ele>
        <time>2017-04-16T09:51:46.000Z</time>
      </trkpt>
      <trkpt lat="43.53636" lon="3.00414">
        <ele>262.2</ele>
        <time>2017-04-16T09:51:48.000Z</time>
      </trkpt>
      <trkpt lat="43.53633" lon="3.00413">
        <ele>261</ele>
        <time>2017-04-16T09:51:49.000Z</time>
      </trkpt>
      <trkpt lat="43.53624" lon="3.00413">
        <ele>258.6</ele>
        <time>2017-04-16T09:51:51.000Z</time>
      </trkpt>
      <trkpt lat="43.5361" lon="3.0041">
        <ele>255</ele>
        <time>2017-04-16T09:51:54.000Z</time>
      </trkpt>
      <trkpt lat="43.53603" lon="3.0041">
        <ele>252.6</ele>
        <time>2017-04-16T09:51:56.000Z</time>
      </trkpt>
      <trkpt lat="43.53602" lon="3.00407">
        <ele>251.6</ele>
        <time>2017-04-16T09:51:57.000Z</time>
      </trkpt>
      <trkpt lat="43.53601" lon="3.00407">
        <ele>250.4</ele>
        <time>2017-04-16T09:51:58.000Z</time>
      </trkpt>
      <trkpt lat="43.536" lon="3.0041">
        <ele>248.2</ele>
        <time>2017-04-16T09:52:00.000Z</time>
      </trkpt>
      <trkpt lat="43.53599" lon="3.0041">
        <ele>246.4</ele>
        <time>2017-04-16T09:52:02.000Z</time>
      </trkpt>
      <trkpt lat="43.53598" lon="3.00413">
        <ele>244.6</ele>
        <time>2017-04-16T09:52:04.000Z</time>
      </trkpt>
      <trkpt lat="43.53593" lon="3.00416">
        <ele>243</ele>
        <time>2017-04-16T09:52:06.000Z</time>
      </trkpt>
      <trkpt lat="43.53588" lon="3.00415">
        <ele>242</ele>
        <time>2017-04-16T09:52:07.000Z</time>
      </trkpt>
      <trkpt lat="43.53584" lon="3.00411">
        <ele>241.4</ele>
        <time>2017-04-16T09:52:08.000Z</time>
      </trkpt>
      <trkpt lat="43.53579" lon="3.00407">
        <ele>240.4</ele>
        <time>2017-04-16T09:52:09.000Z</time>
      </trkpt>
      <trkpt lat="43.53578" lon="3.00403">
        <ele>239.6</ele>
        <time>2017-04-16T09:52:10.000Z</time>
      </trkpt>
      <trkpt lat="43.53569" lon="3.004">
        <ele>237.8</ele>
        <time>2017-04-16T09:52:12.000Z</time>
      </trkpt>
      <trkpt lat="43.53557" lon="3.00407">
        <ele>235.8</ele>
        <time>2017-04-16T09:52:14.000Z</time>
      </trkpt>
      <trkpt lat="43.53551" lon="3.0041">
        <ele>234.4</ele>
        <time>2017-04-16T09:52:15.000Z</time>
      </trkpt>
      <trkpt lat="43.53546" lon="3.00411">
        <ele>232</ele>
        <time>2017-04-16T09:52:17.000Z</time>
      </trkpt>
      <trkpt lat="43.53546" lon="3.0041">
        <ele>230.8</ele>
        <time>2017-04-16T09:52:18.000Z</time>
      </trkpt>
      <trkpt lat="43.53549" lon="3.00404">
        <ele>228</ele>
        <time>2017-04-16T09:52:21.000Z</time>
      </trkpt>
      <trkpt lat="43.53548" lon="3.00403">
        <ele>222.2</ele>
        <time>2017-04-16T09:52:34.000Z</time>
      </trkpt>
      <trkpt lat="43.53548" lon="3.00403">
        <ele>222</ele>
        <time>2017-04-16T09:52:35.000Z</time>
      </trkpt>
      <trkpt lat="43.53547" lon="3.00403">
        <ele>221.8</ele>
        <time>2017-04-16T09:52:36.000Z</time>
      </trkpt>
      <trkpt lat="43.53542" lon="3.00404">
        <ele>220.4</ele>
        <time>2017-04-16T09:52:57.000Z</time>
      </trkpt>
      <trkpt lat="43.53541" lon="3.00404">
        <ele>220.4</ele>
        <time>2017-04-16T09:52:59.000Z</time>
      </trkpt>
      <trkpt lat="43.53541" lon="3.00403">
        <ele>220.2</ele>
        <time>2017-04-16T09:53:01.000Z</time>
      </trkpt>
      <trkpt lat="43.53543" lon="3.00398">
        <ele>220.2</ele>
        <time>2017-04-16T09:53:07.000Z</time>
      </trkpt>
      <trkpt lat="43.53543" lon="3.00398">
        <ele>220.2</ele>
        <time>2017-04-16T09:53:08.000Z</time>
      </trkpt>
      <trkpt lat="43.53548" lon="3.00399">
        <ele>220.2</ele>
        <time>2017-04-16T09:53:15.000Z</time>
      </trkpt>
      <trkpt lat="43.5355" lon="3.00398">
        <ele>220.2</ele>
        <time>2017-04-16T09:53:26.000Z</time>
      </trkpt>
      <trkpt lat="43.53548" lon="3.00397">
        <ele>220.2</ele>
        <time>2017-04-16T09:53:28.000Z</time>
      </trkpt>
      <trkpt lat="43.53549" lon="3.00397">
        <ele>220.2</ele>
        <time>2017-04-16T09:53:29.000Z</time>
      </trkpt>
      <trkpt lat="43.53549" lon="3.00397">
        <ele>219.4</ele>
        <time>2017-04-16T09:53:34.000Z</time>
      </trkpt>
      <trkpt lat="43.53549" lon="3.00397">
        <ele>219.2</ele>
        <time>2017-04-16T09:53:35.000Z</time>
      </trkpt>
      <trkpt lat="43.5355" lon="3.00396">
        <ele>219</ele>
        <time>2017-04-16T09:53:37.000Z</time>
      </trkpt>
      <trkpt lat="43.5355" lon="3.00393">
        <ele>218.8</ele>
        <time>2017-04-16T09:53:39.000Z</time>
      </trkpt>
      <trkpt lat="43.53549" lon="3.0039">
        <ele>218.8</ele>
        <time>2017-04-16T09:53:41.000Z</time>
      </trkpt>
      <trkpt lat="43.5355" lon="3.00389">
        <ele>218.6</ele>
        <time>2017-04-16T09:53:43.000Z</time>
      </trkpt>
      <trkpt lat="43.5355" lon="3.00389">
        <ele>218.4</ele>
        <time>2017-04-16T09:53:48.000Z</time>
      </trkpt>
      <trkpt lat="43.53546" lon="3.00399">
        <ele>218.2</ele>
        <time>2017-04-16T09:54:36.000Z</time>
      </trkpt>
      <trkpt lat="43.53545" lon="3.004">
        <ele>218.2</ele>
        <time>2017-04-16T09:54:37.000Z</time>
      </trkpt>
      <trkpt lat="43.53543" lon="3.00401">
        <ele>218.2</ele>
        <time>2017-04-16T09:54:40.000Z</time>
      </trkpt>
      <trkpt lat="43.53543" lon="3.00403">
        <ele>218.2</ele>
        <time>2017-04-16T09:55:27.000Z</time>
      </trkpt>
      <trkpt lat="43.5354" lon="3.00402">
        <ele>218.2</ele>
        <time>2017-04-16T09:55:31.000Z</time>
      </trkpt>
      <trkpt lat="43.5354" lon="3.00402">
        <ele>218.2</ele>
        <time>2017-04-16T09:55:32.000Z</time>
      </trkpt>
      <trkpt lat="43.53542" lon="3.00406">
        <ele>218.2</ele>
        <time>2017-04-16T09:55:36.000Z</time>
      </trkpt>
      <trkpt lat="43.53542" lon="3.00406">
        <ele>218.2</ele>
        <time>2017-04-16T09:55:38.000Z</time>
      </trkpt>
      <trkpt lat="43.53549" lon="3.00409">
        <ele>218.2</ele>
        <time>2017-04-16T09:56:10.000Z</time>
      </trkpt>
      <trkpt lat="43.53549" lon="3.00411">
        <ele>218.2</ele>
        <time>2017-04-16T09:56:12.000Z</time>
      </trkpt>
      <trkpt lat="43.53553" lon="3.00419">
        <ele>218.2</ele>
        <time>2017-04-16T09:56:21.000Z</time>
      </trkpt>
      <trkpt lat="43.53554" lon="3.00423">
        <ele>218.2</ele>
        <time>2017-04-16T09:56:25.000Z</time>
      </trkpt>
      <trkpt lat="43.53554" lon="3.00425">
        <ele>219</ele>
        <time>2017-04-16T09:56:30.000Z</time>
      </trkpt>
      <trkpt lat="43.53554" lon="3.00426">
        <ele>219.2</ele>
        <time>2017-04-16T09:56:31.000Z</time>
      </trkpt>
      <trkpt lat="43.53554" lon="3.00426">
        <ele>219.2</ele>
        <time>2017-04-16T09:56:32.000Z</time>
      </trkpt>
      <trkpt lat="43.53555" lon="3.00427">
        <ele>219.4</ele>
        <time>2017-04-16T09:56:33.000Z</time>
      </trkpt>
      <trkpt lat="43.53556" lon="3.00427">
        <ele>219.4</ele>
        <time>2017-04-16T09:56:35.000Z</time>
      </trkpt>
      <trkpt lat="43.53557" lon="3.00427">
        <ele>219.6</ele>
        <time>2017-04-16T09:56:37.000Z</time>
      </trkpt>
      <trkpt lat="43.53559" lon="3.00428">
        <ele>219.8</ele>
        <time>2017-04-16T09:56:39.000Z</time>
      </trkpt>
      <trkpt lat="43.5356" lon="3.00427">
        <ele>219.8</ele>
        <time>2017-04-16T09:56:42.000Z</time>
      </trkpt>
      <trkpt lat="43.53561" lon="3.00427">
        <ele>220</ele>
        <time>2017-04-16T09:56:44.000Z</time>
      </trkpt>
      <trkpt lat="43.53564" lon="3.0043">
        <ele>220</ele>
        <time>2017-04-16T09:56:48.000Z</time>
      </trkpt>
      <trkpt lat="43.53575" lon="3.00437">
        <ele>220.2</ele>
        <time>2017-04-16T09:56:59.000Z</time>
      </trkpt>
      <trkpt lat="43.53576" lon="3.00437">
        <ele>220.4</ele>
        <time>2017-04-16T09:57:00.000Z</time>
      </trkpt>
      <trkpt lat="43.53578" lon="3.00437">
        <ele>220.8</ele>
        <time>2017-04-16T09:57:02.000Z</time>
      </trkpt>
      <trkpt lat="43.5358" lon="3.00438">
        <ele>221</ele>
        <time>2017-04-16T09:57:04.000Z</time>
      </trkpt>
      <trkpt lat="43.5358" lon="3.00438">
        <ele>221.2</ele>
        <time>2017-04-16T09:57:05.000Z</time>
      </trkpt>
      <trkpt lat="43.53582" lon="3.00439">
        <ele>221.4</ele>
        <time>2017-04-16T09:57:08.000Z</time>
      </trkpt>
      <trkpt lat="43.53584" lon="3.00442">
        <ele>222</ele>
        <time>2017-04-16T09:57:13.000Z</time>
      </trkpt>
      <trkpt lat="43.53586" lon="3.00443">
        <ele>222.4</ele>
        <time>2017-04-16T09:57:15.000Z</time>
      </trkpt>
      <trkpt lat="43.53588" lon="3.00444">
        <ele>222.8</ele>
        <time>2017-04-16T09:57:17.000Z</time>
      </trkpt>
      <trkpt lat="43.53591" lon="3.00445">
        <ele>223.2</ele>
        <time>2017-04-16T09:57:19.000Z</time>
      </trkpt>
      <trkpt lat="43.53595" lon="3.00445">
        <ele>223.4</ele>
        <time>2017-04-16T09:57:21.000Z</time>
      </trkpt>
      <trkpt lat="43.53603" lon="3.00452">
        <ele>223.8</ele>
        <time>2017-04-16T09:57:27.000Z</time>
      </trkpt>
      <trkpt lat="43.53606" lon="3.00454">
        <ele>224.2</ele>
        <time>2017-04-16T09:57:29.000Z</time>
      </trkpt>
      <trkpt lat="43.53609" lon="3.00455">
        <ele>224.6</ele>
        <time>2017-04-16T09:57:31.000Z</time>
      </trkpt>
      <trkpt lat="43.53613" lon="3.00456">
        <ele>225</ele>
        <time>2017-04-16T09:57:33.000Z</time>
      </trkpt>
      <trkpt lat="43.53617" lon="3.00458">
        <ele>225.2</ele>
        <time>2017-04-16T09:57:35.000Z</time>
      </trkpt>
      <trkpt lat="43.53621" lon="3.00459">
        <ele>225.4</ele>
        <time>2017-04-16T09:57:37.000Z</time>
      </trkpt>
      <trkpt lat="43.53628" lon="3.00462">
        <ele>225.8</ele>
        <time>2017-04-16T09:57:42.000Z</time>
      </trkpt>
      <trkpt lat="43.53629" lon="3.00463">
        <ele>226</ele>
        <time>2017-04-16T09:57:43.000Z</time>
      </trkpt>
      <trkpt lat="43.53633" lon="3.00465">
        <ele>226.6</ele>
        <time>2017-04-16T09:57:45.000Z</time>
      </trkpt>
      <trkpt lat="43.53636" lon="3.00467">
        <ele>227</ele>
        <time>2017-04-16T09:57:47.000Z</time>
      </trkpt>
      <trkpt lat="43.5364" lon="3.00469">
        <ele>227.2</ele>
        <time>2017-04-16T09:57:50.000Z</time>
      </trkpt>
      <trkpt lat="43.53642" lon="3.00471">
        <ele>227.4</ele>
        <time>2017-04-16T09:57:51.000Z</time>
      </trkpt>
      <trkpt lat="43.53644" lon="3.00473">
        <ele>227.8</ele>
        <time>2017-04-16T09:57:53.000Z</time>
      </trkpt>
      <trkpt lat="43.53647" lon="3.00474">
        <ele>228.4</ele>
        <time>2017-04-16T09:57:55.000Z</time>
      </trkpt>
      <trkpt lat="43.5365" lon="3.00475">
        <ele>228.8</ele>
        <time>2017-04-16T09:57:57.000Z</time>
      </trkpt>
      <trkpt lat="43.53653" lon="3.00477">
        <ele>229.2</ele>
        <time>2017-04-16T09:57:59.000Z</time>
      </trkpt>
      <trkpt lat="43.53656" lon="3.00478">
        <ele>229.4</ele>
        <time>2017-04-16T09:58:01.000Z</time>
      </trkpt>
      <trkpt lat="43.53666" lon="3.00484">
        <ele>230.4</ele>
        <time>2017-04-16T09:58:08.000Z</time>
      </trkpt>
      <trkpt lat="43.53669" lon="3.00485">
        <ele>230.8</ele>
        <time>2017-04-16T09:58:10.000Z</time>
      </trkpt>
      <trkpt lat="43.53672" lon="3.00487">
        <ele>231.2</ele>
        <time>2017-04-16T09:58:12.000Z</time>
      </trkpt>
      <trkpt lat="43.53675" lon="3.00489">
        <ele>231.4</ele>
        <time>2017-04-16T09:58:14.000Z</time>
      </trkpt>
      <trkpt lat="43.53677" lon="3.00492">
        <ele>231.8</ele>
        <time>2017-04-16T09:58:16.000Z</time>
      </trkpt>
      <trkpt lat="43.53682" lon="3.00497">
        <ele>232.4</ele>
        <time>2017-04-16T09:58:20.000Z</time>
      </trkpt>
      <trkpt lat="43.53685" lon="3.00499">
        <ele>232.8</ele>
        <time>2017-04-16T09:58:22.000Z</time>
      </trkpt>
      <trkpt lat="43.53688" lon="3.00501">
        <ele>233.2</ele>
        <time>2017-04-16T09:58:24.000Z</time>
      </trkpt>
      <trkpt lat="43.53691" lon="3.00503">
        <ele>233.6</ele>
        <time>2017-04-16T09:58:26.000Z</time>
      </trkpt>
      <trkpt lat="43.53694" lon="3.00505">
        <ele>233.8</ele>
        <time>2017-04-16T09:58:28.000Z</time>
      </trkpt>
      <trkpt lat="43.53698" lon="3.00508">
        <ele>234.4</ele>
        <time>2017-04-16T09:58:31.000Z</time>
      </trkpt>
      <trkpt lat="43.53701" lon="3.00509">
        <ele>234.8</ele>
        <time>2017-04-16T09:58:33.000Z</time>
      </trkpt>
      <trkpt lat="43.53704" lon="3.00511">
        <ele>235.4</ele>
        <time>2017-04-16T09:58:35.000Z</time>
      </trkpt>
      <trkpt lat="43.53707" lon="3.00513">
        <ele>235.6</ele>
        <time>2017-04-16T09:58:37.000Z</time>
      </trkpt>
      <trkpt lat="43.5371" lon="3.00515">
        <ele>236</ele>
        <time>2017-04-16T09:58:39.000Z</time>
      </trkpt>
      <trkpt lat="43.53715" lon="3.00518">
        <ele>236.4</ele>
        <time>2017-04-16T09:58:42.000Z</time>
      </trkpt>
      <trkpt lat="43.53718" lon="3.0052">
        <ele>237</ele>
        <time>2017-04-16T09:58:44.000Z</time>
      </trkpt>
      <trkpt lat="43.53721" lon="3.00522">
        <ele>237.4</ele>
        <time>2017-04-16T09:58:46.000Z</time>
      </trkpt>
      <trkpt lat="43.53723" lon="3.00523">
        <ele>237.6</ele>
        <time>2017-04-16T09:58:47.000Z</time>
      </trkpt>
      <trkpt lat="43.53724" lon="3.00525">
        <ele>237.8</ele>
        <time>2017-04-16T09:58:48.000Z</time>
      </trkpt>
      <trkpt lat="43.53726" lon="3.00527">
        <ele>238</ele>
        <time>2017-04-16T09:58:50.000Z</time>
      </trkpt>
      <trkpt lat="43.53729" lon="3.00529">
        <ele>238.4</ele>
        <time>2017-04-16T09:58:52.000Z</time>
      </trkpt>
      <trkpt lat="43.53732" lon="3.00531">
        <ele>239</ele>
        <time>2017-04-16T09:58:54.000Z</time>
      </trkpt>
      <trkpt lat="43.53734" lon="3.00533">
        <ele>239.4</ele>
        <time>2017-04-16T09:58:56.000Z</time>
      </trkpt>
      <trkpt lat="43.53737" lon="3.00535">
        <ele>239.8</ele>
        <time>2017-04-16T09:58:58.000Z</time>
      </trkpt>
      <trkpt lat="43.5374" lon="3.00537">
        <ele>240.2</ele>
        <time>2017-04-16T09:59:00.000Z</time>
      </trkpt>
      <trkpt lat="43.53744" lon="3.0054">
        <ele>240.6</ele>
        <time>2017-04-16T09:59:03.000Z</time>
      </trkpt>
      <trkpt lat="43.53747" lon="3.00543">
        <ele>241.2</ele>
        <time>2017-04-16T09:59:05.000Z</time>
      </trkpt>
      <trkpt lat="43.5375" lon="3.00545">
        <ele>241.6</ele>
        <time>2017-04-16T09:59:07.000Z</time>
      </trkpt>
      <trkpt lat="43.53752" lon="3.00547">
        <ele>242</ele>
        <time>2017-04-16T09:59:09.000Z</time>
      </trkpt>
      <trkpt lat="43.53754" lon="3.00549">
        <ele>242.2</ele>
        <time>2017-04-16T09:59:11.000Z</time>
      </trkpt>
      <trkpt lat="43.53758" lon="3.00553">
        <ele>242.8</ele>
        <time>2017-04-16T09:59:14.000Z</time>
      </trkpt>
      <trkpt lat="43.5376" lon="3.00555">
        <ele>243.4</ele>
        <time>2017-04-16T09:59:16.000Z</time>
      </trkpt>
      <trkpt lat="43.53762" lon="3.00558">
        <ele>243.8</ele>
        <time>2017-04-16T09:59:18.000Z</time>
      </trkpt>
      <trkpt lat="43.53765" lon="3.0056">
        <ele>244.2</ele>
        <time>2017-04-16T09:59:20.000Z</time>
      </trkpt>
      <trkpt lat="43.53767" lon="3.00563">
        <ele>244.4</ele>
        <time>2017-04-16T09:59:22.000Z</time>
      </trkpt>
      <trkpt lat="43.53773" lon="3.00572">
        <ele>245</ele>
        <time>2017-04-16T09:59:27.000Z</time>
      </trkpt>
      <trkpt lat="43.53776" lon="3.00576">
        <ele>245.6</ele>
        <time>2017-04-16T09:59:29.000Z</time>
      </trkpt>
      <trkpt lat="43.53778" lon="3.00579">
        <ele>246</ele>
        <time>2017-04-16T09:59:31.000Z</time>
      </trkpt>
      <trkpt lat="43.53781" lon="3.00584">
        <ele>246.2</ele>
        <time>2017-04-16T09:59:33.000Z</time>
      </trkpt>
      <trkpt lat="43.53784" lon="3.00589">
        <ele>246.6</ele>
        <time>2017-04-16T09:59:35.000Z</time>
      </trkpt>
      <trkpt lat="43.53788" lon="3.00595">
        <ele>247</ele>
        <time>2017-04-16T09:59:38.000Z</time>
      </trkpt>
      <trkpt lat="43.5379" lon="3.00598">
        <ele>247.6</ele>
        <time>2017-04-16T09:59:40.000Z</time>
      </trkpt>
      <trkpt lat="43.53792" lon="3.00602">
        <ele>248</ele>
        <time>2017-04-16T09:59:42.000Z</time>
      </trkpt>
      <trkpt lat="43.53794" lon="3.00605">
        <ele>248.4</ele>
        <time>2017-04-16T09:59:44.000Z</time>
      </trkpt>
      <trkpt lat="43.53796" lon="3.00608">
        <ele>248.6</ele>
        <time>2017-04-16T09:59:46.000Z</time>
      </trkpt>
      <trkpt lat="43.538" lon="3.00612">
        <ele>249</ele>
        <time>2017-04-16T09:59:49.000Z</time>
      </trkpt>
      <trkpt lat="43.53801" lon="3.00613">
        <ele>249.4</ele>
        <time>2017-04-16T09:59:50.000Z</time>
      </trkpt>
      <trkpt lat="43.53804" lon="3.00616">
        <ele>249.8</ele>
        <time>2017-04-16T09:59:52.000Z</time>
      </trkpt>
      <trkpt lat="43.53806" lon="3.00617">
        <ele>250</ele>
        <time>2017-04-16T09:59:53.000Z</time>
      </trkpt>
      <trkpt lat="43.53809" lon="3.00622">
        <ele>250.6</ele>
        <time>2017-04-16T09:59:56.000Z</time>
      </trkpt>
      <trkpt lat="43.53812" lon="3.00625">
        <ele>251</ele>
        <time>2017-04-16T09:59:58.000Z</time>
      </trkpt>
      <trkpt lat="43.53818" lon="3.00629">
        <ele>251.6</ele>
        <time>2017-04-16T10:00:02.000Z</time>
      </trkpt>
      <trkpt lat="43.53821" lon="3.00631">
        <ele>252.2</ele>
        <time>2017-04-16T10:00:04.000Z</time>
      </trkpt>
      <trkpt lat="43.53824" lon="3.00632">
        <ele>252.6</ele>
        <time>2017-04-16T10:00:06.000Z</time>
      </trkpt>
      <trkpt lat="43.53827" lon="3.00634">
        <ele>253</ele>
        <time>2017-04-16T10:00:08.000Z</time>
      </trkpt>
      <trkpt lat="43.53831" lon="3.00636">
        <ele>253.2</ele>
        <time>2017-04-16T10:00:10.000Z</time>
      </trkpt>
      <trkpt lat="43.53833" lon="3.00637">
        <ele>253.6</ele>
        <time>2017-04-16T10:00:11.000Z</time>
      </trkpt>
      <trkpt lat="43.53836" lon="3.00638">
        <ele>254.2</ele>
        <time>2017-04-16T10:00:13.000Z</time>
      </trkpt>
      <trkpt lat="43.53839" lon="3.00639">
        <ele>254.6</ele>
        <time>2017-04-16T10:00:15.000Z</time>
      </trkpt>
      <trkpt lat="43.53843" lon="3.00641">
        <ele>255</ele>
        <time>2017-04-16T10:00:17.000Z</time>
      </trkpt>
      <trkpt lat="43.53846" lon="3.00641">
        <ele>255.4</ele>
        <time>2017-04-16T10:00:19.000Z</time>
      </trkpt>
      <trkpt lat="43.53856" lon="3.00645">
        <ele>256</ele>
        <time>2017-04-16T10:00:25.000Z</time>
      </trkpt>
      <trkpt lat="43.53861" lon="3.00646">
        <ele>256.4</ele>
        <time>2017-04-16T10:00:28.000Z</time>
      </trkpt>
      <trkpt lat="43.53865" lon="3.00646">
        <ele>256.8</ele>
        <time>2017-04-16T10:00:30.000Z</time>
      </trkpt>
      <trkpt lat="43.53867" lon="3.00646">
        <ele>257</ele>
        <time>2017-04-16T10:00:31.000Z</time>
      </trkpt>
      <trkpt lat="43.53871" lon="3.00643">
        <ele>257.4</ele>
        <time>2017-04-16T10:00:34.000Z</time>
      </trkpt>
      <trkpt lat="43.53872" lon="3.00638">
        <ele>257.6</ele>
        <time>2017-04-16T10:00:36.000Z</time>
      </trkpt>
      <trkpt lat="43.5387" lon="3.00632">
        <ele>258</ele>
        <time>2017-04-16T10:00:39.000Z</time>
      </trkpt>
      <trkpt lat="43.53862" lon="3.00629">
        <ele>258.4</ele>
        <time>2017-04-16T10:00:43.000Z</time>
      </trkpt>
      <trkpt lat="43.53858" lon="3.00629">
        <ele>258.8</ele>
        <time>2017-04-16T10:00:45.000Z</time>
      </trkpt>
      <trkpt lat="43.53855" lon="3.00628">
        <ele>259.2</ele>
        <time>2017-04-16T10:00:47.000Z</time>
      </trkpt>
      <trkpt lat="43.53852" lon="3.00627">
        <ele>259.6</ele>
        <time>2017-04-16T10:00:49.000Z</time>
      </trkpt>
      <trkpt lat="43.53849" lon="3.00625">
        <ele>259.8</ele>
        <time>2017-04-16T10:00:51.000Z</time>
      </trkpt>
      <trkpt lat="43.53846" lon="3.00623">
        <ele>260.2</ele>
        <time>2017-04-16T10:00:53.000Z</time>
      </trkpt>
      <trkpt lat="43.53844" lon="3.0062">
        <ele>260.8</ele>
        <time>2017-04-16T10:00:55.000Z</time>
      </trkpt>
      <trkpt lat="43.53841" lon="3.00618">
        <ele>261.2</ele>
        <time>2017-04-16T10:00:57.000Z</time>
      </trkpt>
      <trkpt lat="43.53839" lon="3.00614">
        <ele>261.6</ele>
        <time>2017-04-16T10:00:59.000Z</time>
      </trkpt>
      <trkpt lat="43.53837" lon="3.00611">
        <ele>261.8</ele>
        <time>2017-04-16T10:01:01.000Z</time>
      </trkpt>
      <trkpt lat="43.53836" lon="3.00608">
        <ele>262</ele>
        <time>2017-04-16T10:01:02.000Z</time>
      </trkpt>
      <trkpt lat="43.53826" lon="3.00595">
        <ele>262.8</ele>
        <time>2017-04-16T10:01:09.000Z</time>
      </trkpt>
      <trkpt lat="43.53824" lon="3.00592">
        <ele>263.2</ele>
        <time>2017-04-16T10:01:11.000Z</time>
      </trkpt>
      <trkpt lat="43.53821" lon="3.00587">
        <ele>263.6</ele>
        <time>2017-04-16T10:01:13.000Z</time>
      </trkpt>
      <trkpt lat="43.53819" lon="3.00583">
        <ele>263.8</ele>
        <time>2017-04-16T10:01:15.000Z</time>
      </trkpt>
      <trkpt lat="43.53818" lon="3.00579">
        <ele>264</ele>
        <time>2017-04-16T10:01:17.000Z</time>
      </trkpt>
      <trkpt lat="43.53815" lon="3.00569">
        <ele>264.6</ele>
        <time>2017-04-16T10:01:22.000Z</time>
      </trkpt>
      <trkpt lat="43.53814" lon="3.00565">
        <ele>265.2</ele>
        <time>2017-04-16T10:01:24.000Z</time>
      </trkpt>
      <trkpt lat="43.53814" lon="3.00561">
        <ele>265.6</ele>
        <time>2017-04-16T10:01:26.000Z</time>
      </trkpt>
      <trkpt lat="43.53812" lon="3.00557">
        <ele>265.8</ele>
        <time>2017-04-16T10:01:28.000Z</time>
      </trkpt>
      <trkpt lat="43.53811" lon="3.00553">
        <ele>266</ele>
        <time>2017-04-16T10:01:30.000Z</time>
      </trkpt>
      <trkpt lat="43.53806" lon="3.00537">
        <ele>266.8</ele>
        <time>2017-04-16T10:01:38.000Z</time>
      </trkpt>
      <trkpt lat="43.53805" lon="3.00533">
        <ele>267.4</ele>
        <time>2017-04-16T10:01:40.000Z</time>
      </trkpt>
      <trkpt lat="43.53803" lon="3.00528">
        <ele>267.6</ele>
        <time>2017-04-16T10:01:42.000Z</time>
      </trkpt>
      <trkpt lat="43.53801" lon="3.00524">
        <ele>268</ele>
        <time>2017-04-16T10:01:44.000Z</time>
      </trkpt>
      <trkpt lat="43.53798" lon="3.0052">
        <ele>268.2</ele>
        <time>2017-04-16T10:01:46.000Z</time>
      </trkpt>
      <trkpt lat="43.53797" lon="3.00516">
        <ele>268.4</ele>
        <time>2017-04-16T10:01:48.000Z</time>
      </trkpt>
      <trkpt lat="43.53796" lon="3.00511">
        <ele>268.6</ele>
        <time>2017-04-16T10:01:50.000Z</time>
      </trkpt>
      <trkpt lat="43.53798" lon="3.00507">
        <ele>269.4</ele>
        <time>2017-04-16T10:01:53.000Z</time>
      </trkpt>
      <trkpt lat="43.53802" lon="3.00507">
        <ele>269.8</ele>
        <time>2017-04-16T10:01:55.000Z</time>
      </trkpt>
      <trkpt lat="43.53803" lon="3.00508">
        <ele>270</ele>
        <time>2017-04-16T10:01:56.000Z</time>
      </trkpt>
      <trkpt lat="43.53804" lon="3.00509">
        <ele>270</ele>
        <time>2017-04-16T10:01:57.000Z</time>
      </trkpt>
      <trkpt lat="43.53807" lon="3.00513">
        <ele>270.4</ele>
        <time>2017-04-16T10:01:59.000Z</time>
      </trkpt>
      <trkpt lat="43.53814" lon="3.00525">
        <ele>271</ele>
        <time>2017-04-16T10:02:05.000Z</time>
      </trkpt>
      <trkpt lat="43.53816" lon="3.00529">
        <ele>271.6</ele>
        <time>2017-04-16T10:02:07.000Z</time>
      </trkpt>
      <trkpt lat="43.53818" lon="3.00533">
        <ele>272</ele>
        <time>2017-04-16T10:02:09.000Z</time>
      </trkpt>
      <trkpt lat="43.5382" lon="3.00535">
        <ele>272.2</ele>
        <time>2017-04-16T10:02:11.000Z</time>
      </trkpt>
      <trkpt lat="43.53823" lon="3.00538">
        <ele>272.6</ele>
        <time>2017-04-16T10:02:13.000Z</time>
      </trkpt>
      <trkpt lat="43.53828" lon="3.00544">
        <ele>273</ele>
        <time>2017-04-16T10:02:17.000Z</time>
      </trkpt>
      <trkpt lat="43.5383" lon="3.00546">
        <ele>273.6</ele>
        <time>2017-04-16T10:02:19.000Z</time>
      </trkpt>
      <trkpt lat="43.53833" lon="3.00549">
        <ele>274</ele>
        <time>2017-04-16T10:02:21.000Z</time>
      </trkpt>
      <trkpt lat="43.53836" lon="3.00551">
        <ele>274.2</ele>
        <time>2017-04-16T10:02:23.000Z</time>
      </trkpt>
      <trkpt lat="43.53838" lon="3.00554">
        <ele>274.8</ele>
        <time>2017-04-16T10:02:25.000Z</time>
      </trkpt>
      <trkpt lat="43.5384" lon="3.00556">
        <ele>275.4</ele>
        <time>2017-04-16T10:02:27.000Z</time>
      </trkpt>
      <trkpt lat="43.53842" lon="3.00559">
        <ele>275.8</ele>
        <time>2017-04-16T10:02:29.000Z</time>
      </trkpt>
      <trkpt lat="43.53845" lon="3.00561">
        <ele>276.2</ele>
        <time>2017-04-16T10:02:31.000Z</time>
      </trkpt>
      <trkpt lat="43.53848" lon="3.00564">
        <ele>276.4</ele>
        <time>2017-04-16T10:02:33.000Z</time>
      </trkpt>
      <trkpt lat="43.53855" lon="3.00569">
        <ele>277.2</ele>
        <time>2017-04-16T10:02:37.000Z</time>
      </trkpt>
      <trkpt lat="43.53858" lon="3.00571">
        <ele>277.6</ele>
        <time>2017-04-16T10:02:39.000Z</time>
      </trkpt>
      <trkpt lat="43.53861" lon="3.00574">
        <ele>278</ele>
        <time>2017-04-16T10:02:41.000Z</time>
      </trkpt>
      <trkpt lat="43.53864" lon="3.00576">
        <ele>278.4</ele>
        <time>2017-04-16T10:02:43.000Z</time>
      </trkpt>
      <trkpt lat="43.53868" lon="3.00578">
        <ele>278.8</ele>
        <time>2017-04-16T10:02:45.000Z</time>
      </trkpt>
      <trkpt lat="43.53875" lon="3.00582">
        <ele>279.4</ele>
        <time>2017-04-16T10:02:49.000Z</time>
      </trkpt>
      <trkpt lat="43.53879" lon="3.00584">
        <ele>279.8</ele>
        <time>2017-04-16T10:02:51.000Z</time>
      </trkpt>
      <trkpt lat="43.53884" lon="3.00586">
        <ele>280.2</ele>
        <time>2017-04-16T10:02:53.000Z</time>
      </trkpt>
      <trkpt lat="43.53888" lon="3.00588">
        <ele>280.6</ele>
        <time>2017-04-16T10:02:55.000Z</time>
      </trkpt>
      <trkpt lat="43.53893" lon="3.0059">
        <ele>280.8</ele>
        <time>2017-04-16T10:02:57.000Z</time>
      </trkpt>
      <trkpt lat="43.539" lon="3.00593">
        <ele>281.2</ele>
        <time>2017-04-16T10:03:00.000Z</time>
      </trkpt>
      <trkpt lat="43.53917" lon="3.00599">
        <ele>281.8</ele>
        <time>2017-04-16T10:03:07.000Z</time>
      </trkpt>
      <trkpt lat="43.53923" lon="3.006">
        <ele>282.2</ele>
        <time>2017-04-16T10:03:09.000Z</time>
      </trkpt>
      <trkpt lat="43.53928" lon="3.00601">
        <ele>282.6</ele>
        <time>2017-04-16T10:03:11.000Z</time>
      </trkpt>
      <trkpt lat="43.53933" lon="3.00602">
        <ele>282.8</ele>
        <time>2017-04-16T10:03:13.000Z</time>
      </trkpt>
      <trkpt lat="43.53939" lon="3.00603">
        <ele>283</ele>
        <time>2017-04-16T10:03:15.000Z</time>
      </trkpt>
      <trkpt lat="43.5396" lon="3.00612">
        <ele>283.6</ele>
        <time>2017-04-16T10:03:22.000Z</time>
      </trkpt>
      <trkpt lat="43.53963" lon="3.00619">
        <ele>283.8</ele>
        <time>2017-04-16T10:03:24.000Z</time>
      </trkpt>
      <trkpt lat="43.53951" lon="3.00636">
        <ele>283.8</ele>
        <time>2017-04-16T10:03:30.000Z</time>
      </trkpt>
      <trkpt lat="43.53938" lon="3.00649">
        <ele>284</ele>
        <time>2017-04-16T10:03:35.000Z</time>
      </trkpt>
      <trkpt lat="43.5393" lon="3.0068">
        <ele>284</ele>
        <time>2017-04-16T10:03:42.000Z</time>
      </trkpt>
      <trkpt lat="43.53932" lon="3.0071">
        <ele>284</ele>
        <time>2017-04-16T10:03:49.000Z</time>
      </trkpt>
      <trkpt lat="43.53933" lon="3.00717">
        <ele>284.2</ele>
        <time>2017-04-16T10:03:51.000Z</time>
      </trkpt>
      <trkpt lat="43.53934" lon="3.00723">
        <ele>284.6</ele>
        <time>2017-04-16T10:03:53.000Z</time>
      </trkpt>
      <trkpt lat="43.53937" lon="3.00729">
        <ele>285</ele>
        <time>2017-04-16T10:03:55.000Z</time>
      </trkpt>
      <trkpt lat="43.5394" lon="3.00735">
        <ele>285.2</ele>
        <time>2017-04-16T10:03:57.000Z</time>
      </trkpt>
      <trkpt lat="43.53943" lon="3.00741">
        <ele>285.4</ele>
        <time>2017-04-16T10:03:59.000Z</time>
      </trkpt>
      <trkpt lat="43.53949" lon="3.00752">
        <ele>285.6</ele>
        <time>2017-04-16T10:04:04.000Z</time>
      </trkpt>
      <trkpt lat="43.53952" lon="3.00756">
        <ele>286</ele>
        <time>2017-04-16T10:04:06.000Z</time>
      </trkpt>
      <trkpt lat="43.53955" lon="3.0076">
        <ele>286.4</ele>
        <time>2017-04-16T10:04:08.000Z</time>
      </trkpt>
      <trkpt lat="43.53957" lon="3.00763">
        <ele>286.8</ele>
        <time>2017-04-16T10:04:10.000Z</time>
      </trkpt>
      <trkpt lat="43.5396" lon="3.00766">
        <ele>287.2</ele>
        <time>2017-04-16T10:04:12.000Z</time>
      </trkpt>
      <trkpt lat="43.53962" lon="3.00769">
        <ele>287.4</ele>
        <time>2017-04-16T10:04:14.000Z</time>
      </trkpt>
      <trkpt lat="43.53966" lon="3.00775">
        <ele>287.8</ele>
        <time>2017-04-16T10:04:17.000Z</time>
      </trkpt>
      <trkpt lat="43.5397" lon="3.00779">
        <ele>288.4</ele>
        <time>2017-04-16T10:04:19.000Z</time>
      </trkpt>
      <trkpt lat="43.53973" lon="3.00783">
        <ele>288.8</ele>
        <time>2017-04-16T10:04:21.000Z</time>
      </trkpt>
      <trkpt lat="43.53976" lon="3.00786">
        <ele>289</ele>
        <time>2017-04-16T10:04:23.000Z</time>
      </trkpt>
      <trkpt lat="43.5398" lon="3.00788">
        <ele>289.4</ele>
        <time>2017-04-16T10:04:25.000Z</time>
      </trkpt>
      <trkpt lat="43.53987" lon="3.00793">
        <ele>290</ele>
        <time>2017-04-16T10:04:29.000Z</time>
      </trkpt>
      <trkpt lat="43.53988" lon="3.00794">
        <ele>290.2</ele>
        <time>2017-04-16T10:04:30.000Z</time>
      </trkpt>
      <trkpt lat="43.53993" lon="3.00797">
        <ele>290.8</ele>
        <time>2017-04-16T10:04:33.000Z</time>
      </trkpt>
      <trkpt lat="43.53996" lon="3.00799">
        <ele>291.2</ele>
        <time>2017-04-16T10:04:35.000Z</time>
      </trkpt>
      <trkpt lat="43.53999" lon="3.00801">
        <ele>291.4</ele>
        <time>2017-04-16T10:04:37.000Z</time>
      </trkpt>
      <trkpt lat="43.54" lon="3.00802">
        <ele>291.8</ele>
        <time>2017-04-16T10:04:38.000Z</time>
      </trkpt>
      <trkpt lat="43.54002" lon="3.00805">
        <ele>292.4</ele>
        <time>2017-04-16T10:04:40.000Z</time>
      </trkpt>
      <trkpt lat="43.54005" lon="3.00807">
        <ele>292.8</ele>
        <time>2017-04-16T10:04:42.000Z</time>
      </trkpt>
      <trkpt lat="43.54008" lon="3.0081">
        <ele>293.2</ele>
        <time>2017-04-16T10:04:44.000Z</time>
      </trkpt>
      <trkpt lat="43.54011" lon="3.00812">
        <ele>293.6</ele>
        <time>2017-04-16T10:04:46.000Z</time>
      </trkpt>
      <trkpt lat="43.54018" lon="3.00819">
        <ele>294.2</ele>
        <time>2017-04-16T10:04:51.000Z</time>
      </trkpt>
      <trkpt lat="43.5402" lon="3.00822">
        <ele>294.8</ele>
        <time>2017-04-16T10:04:53.000Z</time>
      </trkpt>
      <trkpt lat="43.54023" lon="3.00826">
        <ele>295.2</ele>
        <time>2017-04-16T10:04:55.000Z</time>
      </trkpt>
      <trkpt lat="43.54025" lon="3.0083">
        <ele>295.6</ele>
        <time>2017-04-16T10:04:57.000Z</time>
      </trkpt>
      <trkpt lat="43.54028" lon="3.00834">
        <ele>295.8</ele>
        <time>2017-04-16T10:04:59.000Z</time>
      </trkpt>
      <trkpt lat="43.5403" lon="3.00844">
        <ele>296.4</ele>
        <time>2017-04-16T10:05:03.000Z</time>
      </trkpt>
      <trkpt lat="43.54028" lon="3.00848">
        <ele>296.8</ele>
        <time>2017-04-16T10:05:05.000Z</time>
      </trkpt>
      <trkpt lat="43.54025" lon="3.00852">
        <ele>297.2</ele>
        <time>2017-04-16T10:05:07.000Z</time>
      </trkpt>
      <trkpt lat="43.5402" lon="3.00855">
        <ele>297.6</ele>
        <time>2017-04-16T10:05:09.000Z</time>
      </trkpt>
      <trkpt lat="43.54016" lon="3.00855">
        <ele>297.8</ele>
        <time>2017-04-16T10:05:11.000Z</time>
      </trkpt>
      <trkpt lat="43.54003" lon="3.00855">
        <ele>298.4</ele>
        <time>2017-04-16T10:05:17.000Z</time>
      </trkpt>
      <trkpt lat="43.53995" lon="3.00857">
        <ele>298.6</ele>
        <time>2017-04-16T10:05:22.000Z</time>
      </trkpt>
      <trkpt lat="43.53993" lon="3.00858">
        <ele>298.8</ele>
        <time>2017-04-16T10:05:24.000Z</time>
      </trkpt>
      <trkpt lat="43.53989" lon="3.00859">
        <ele>299.4</ele>
        <time>2017-04-16T10:05:26.000Z</time>
      </trkpt>
      <trkpt lat="43.53985" lon="3.0086">
        <ele>299.6</ele>
        <time>2017-04-16T10:05:28.000Z</time>
      </trkpt>
      <trkpt lat="43.5398" lon="3.00861">
        <ele>300</ele>
        <time>2017-04-16T10:05:30.000Z</time>
      </trkpt>
      <trkpt lat="43.53974" lon="3.00862">
        <ele>300.2</ele>
        <time>2017-04-16T10:05:32.000Z</time>
      </trkpt>
      <trkpt lat="43.53967" lon="3.00862">
        <ele>300.6</ele>
        <time>2017-04-16T10:05:35.000Z</time>
      </trkpt>
      <trkpt lat="43.53963" lon="3.00862">
        <ele>301.2</ele>
        <time>2017-04-16T10:05:37.000Z</time>
      </trkpt>
      <trkpt lat="43.5396" lon="3.00862">
        <ele>301.6</ele>
        <time>2017-04-16T10:05:39.000Z</time>
      </trkpt>
      <trkpt lat="43.53957" lon="3.00862">
        <ele>302</ele>
        <time>2017-04-16T10:05:41.000Z</time>
      </trkpt>
      <trkpt lat="43.53956" lon="3.00862">
        <ele>302</ele>
        <time>2017-04-16T10:05:42.000Z</time>
      </trkpt>
      <trkpt lat="43.53954" lon="3.00862">
        <ele>302.2</ele>
        <time>2017-04-16T10:05:43.000Z</time>
      </trkpt>
      <trkpt lat="43.53945" lon="3.00863">
        <ele>302.8</ele>
        <time>2017-04-16T10:05:48.000Z</time>
      </trkpt>
      <trkpt lat="43.53944" lon="3.00864">
        <ele>303</ele>
        <time>2017-04-16T10:05:49.000Z</time>
      </trkpt>
      <trkpt lat="43.53942" lon="3.00864">
        <ele>303.4</ele>
        <time>2017-04-16T10:05:50.000Z</time>
      </trkpt>
      <trkpt lat="43.53939" lon="3.00865">
        <ele>303.8</ele>
        <time>2017-04-16T10:05:52.000Z</time>
      </trkpt>
      <trkpt lat="43.53936" lon="3.00865">
        <ele>304</ele>
        <time>2017-04-16T10:05:54.000Z</time>
      </trkpt>
      <trkpt lat="43.53932" lon="3.00867">
        <ele>304.2</ele>
        <time>2017-04-16T10:05:56.000Z</time>
      </trkpt>
      <trkpt lat="43.53928" lon="3.00869">
        <ele>304.6</ele>
        <time>2017-04-16T10:05:58.000Z</time>
      </trkpt>
      <trkpt lat="43.53924" lon="3.00871">
        <ele>305.2</ele>
        <time>2017-04-16T10:06:00.000Z</time>
      </trkpt>
      <trkpt lat="43.5392" lon="3.00872">
        <ele>305.6</ele>
        <time>2017-04-16T10:06:02.000Z</time>
      </trkpt>
      <trkpt lat="43.53917" lon="3.00874">
        <ele>306</ele>
        <time>2017-04-16T10:06:04.000Z</time>
      </trkpt>
      <trkpt lat="43.53913" lon="3.00875">
        <ele>306.2</ele>
        <time>2017-04-16T10:06:06.000Z</time>
      </trkpt>
      <trkpt lat="43.53911" lon="3.00875">
        <ele>306.4</ele>
        <time>2017-04-16T10:06:07.000Z</time>
      </trkpt>
      <trkpt lat="43.53907" lon="3.00878">
        <ele>307.2</ele>
        <time>2017-04-16T10:06:10.000Z</time>
      </trkpt>
      <trkpt lat="43.53903" lon="3.00879">
        <ele>307.6</ele>
        <time>2017-04-16T10:06:12.000Z</time>
      </trkpt>
      <trkpt lat="43.53899" lon="3.0088">
        <ele>308</ele>
        <time>2017-04-16T10:06:14.000Z</time>
      </trkpt>
      <trkpt lat="43.53894" lon="3.00881">
        <ele>308.2</ele>
        <time>2017-04-16T10:06:16.000Z</time>
      </trkpt>
      <trkpt lat="43.53888" lon="3.00881">
        <ele>308.8</ele>
        <time>2017-04-16T10:06:19.000Z</time>
      </trkpt>
      <trkpt lat="43.53885" lon="3.00882">
        <ele>309.4</ele>
        <time>2017-04-16T10:06:21.000Z</time>
      </trkpt>
      <trkpt lat="43.53882" lon="3.00882">
        <ele>309.8</ele>
        <time>2017-04-16T10:06:23.000Z</time>
      </trkpt>
      <trkpt lat="43.53878" lon="3.00883">
        <ele>310</ele>
        <time>2017-04-16T10:06:25.000Z</time>
      </trkpt>
      <trkpt lat="43.53875" lon="3.00883">
        <ele>310.4</ele>
        <time>2017-04-16T10:06:27.000Z</time>
      </trkpt>
      <trkpt lat="43.53871" lon="3.00884">
        <ele>310.6</ele>
        <time>2017-04-16T10:06:29.000Z</time>
      </trkpt>
      <trkpt lat="43.53864" lon="3.00886">
        <ele>311.2</ele>
        <time>2017-04-16T10:06:33.000Z</time>
      </trkpt>
      <trkpt lat="43.53861" lon="3.00887">
        <ele>311.6</ele>
        <time>2017-04-16T10:06:35.000Z</time>
      </trkpt>
      <trkpt lat="43.53859" lon="3.00887">
        <ele>312</ele>
        <time>2017-04-16T10:06:37.000Z</time>
      </trkpt>
      <trkpt lat="43.53857" lon="3.00888">
        <ele>312.2</ele>
        <time>2017-04-16T10:06:38.000Z</time>
      </trkpt>
      <trkpt lat="43.53856" lon="3.00889">
        <ele>312.2</ele>
        <time>2017-04-16T10:06:39.000Z</time>
      </trkpt>
      <trkpt lat="43.53853" lon="3.0089">
        <ele>312.6</ele>
        <time>2017-04-16T10:06:41.000Z</time>
      </trkpt>
      <trkpt lat="43.53851" lon="3.0089">
        <ele>312.6</ele>
        <time>2017-04-16T10:06:42.000Z</time>
      </trkpt>
      <trkpt lat="43.53844" lon="3.00894">
        <ele>313.2</ele>
        <time>2017-04-16T10:06:47.000Z</time>
      </trkpt>
      <trkpt lat="43.53841" lon="3.00895">
        <ele>313.8</ele>
        <time>2017-04-16T10:06:49.000Z</time>
      </trkpt>
      <trkpt lat="43.53837" lon="3.00896">
        <ele>314.2</ele>
        <time>2017-04-16T10:06:51.000Z</time>
      </trkpt>
      <trkpt lat="43.53833" lon="3.00897">
        <ele>314.4</ele>
        <time>2017-04-16T10:06:53.000Z</time>
      </trkpt>
      <trkpt lat="43.53829" lon="3.00899">
        <ele>314.6</ele>
        <time>2017-04-16T10:06:55.000Z</time>
      </trkpt>
      <trkpt lat="43.53821" lon="3.00903">
        <ele>315.4</ele>
        <time>2017-04-16T10:07:00.000Z</time>
      </trkpt>
      <trkpt lat="43.53818" lon="3.00904">
        <ele>315.8</ele>
        <time>2017-04-16T10:07:02.000Z</time>
      </trkpt>
      <trkpt lat="43.53814" lon="3.00904">
        <ele>316.2</ele>
        <time>2017-04-16T10:07:04.000Z</time>
      </trkpt>
      <trkpt lat="43.53811" lon="3.00905">
        <ele>316.6</ele>
        <time>2017-04-16T10:07:06.000Z</time>
      </trkpt>
      <trkpt lat="43.53808" lon="3.00906">
        <ele>316.8</ele>
        <time>2017-04-16T10:07:08.000Z</time>
      </trkpt>
      <trkpt lat="43.53797" lon="3.00913">
        <ele>317.2</ele>
        <time>2017-04-16T10:07:14.000Z</time>
      </trkpt>
      <trkpt lat="43.53794" lon="3.00915">
        <ele>317.6</ele>
        <time>2017-04-16T10:07:16.000Z</time>
      </trkpt>
      <trkpt lat="43.5379" lon="3.00916">
        <ele>318</ele>
        <time>2017-04-16T10:07:18.000Z</time>
      </trkpt>
      <trkpt lat="43.53787" lon="3.00917">
        <ele>318.4</ele>
        <time>2017-04-16T10:07:20.000Z</time>
      </trkpt>
      <trkpt lat="43.53783" lon="3.00917">
        <ele>318.8</ele>
        <time>2017-04-16T10:07:22.000Z</time>
      </trkpt>
      <trkpt lat="43.53779" lon="3.00918">
        <ele>319</ele>
        <time>2017-04-16T10:07:24.000Z</time>
      </trkpt>
      <trkpt lat="43.53767" lon="3.0092">
        <ele>319.8</ele>
        <time>2017-04-16T10:07:30.000Z</time>
      </trkpt>
      <trkpt lat="43.53763" lon="3.00923">
        <ele>320.2</ele>
        <time>2017-04-16T10:07:32.000Z</time>
      </trkpt>
      <trkpt lat="43.5376" lon="3.00925">
        <ele>320.6</ele>
        <time>2017-04-16T10:07:34.000Z</time>
      </trkpt>
      <trkpt lat="43.53759" lon="3.00926">
        <ele>320.8</ele>
        <time>2017-04-16T10:07:35.000Z</time>
      </trkpt>
      <trkpt lat="43.53758" lon="3.00927">
        <ele>321</ele>
        <time>2017-04-16T10:07:36.000Z</time>
      </trkpt>
      <trkpt lat="43.53756" lon="3.00929">
        <ele>321.2</ele>
        <time>2017-04-16T10:07:38.000Z</time>
      </trkpt>
      <trkpt lat="43.53755" lon="3.00929">
        <ele>321.4</ele>
        <time>2017-04-16T10:07:39.000Z</time>
      </trkpt>
      <trkpt lat="43.53754" lon="3.00929">
        <ele>321.4</ele>
        <time>2017-04-16T10:07:40.000Z</time>
      </trkpt>
      <trkpt lat="43.5375" lon="3.0093">
        <ele>322.2</ele>
        <time>2017-04-16T10:07:43.000Z</time>
      </trkpt>
      <trkpt lat="43.53747" lon="3.00932">
        <ele>322.6</ele>
        <time>2017-04-16T10:07:45.000Z</time>
      </trkpt>
      <trkpt lat="43.53743" lon="3.00934">
        <ele>323</ele>
        <time>2017-04-16T10:07:47.000Z</time>
      </trkpt>
      <trkpt lat="43.53739" lon="3.00937">
        <ele>323.2</ele>
        <time>2017-04-16T10:07:49.000Z</time>
      </trkpt>
      <trkpt lat="43.53729" lon="3.00946">
        <ele>324</ele>
        <time>2017-04-16T10:07:56.000Z</time>
      </trkpt>
      <trkpt lat="43.53727" lon="3.00948">
        <ele>324.6</ele>
        <time>2017-04-16T10:07:58.000Z</time>
      </trkpt>
      <trkpt lat="43.53724" lon="3.0095">
        <ele>325</ele>
        <time>2017-04-16T10:08:00.000Z</time>
      </trkpt>
      <trkpt lat="43.53721" lon="3.00952">
        <ele>325.4</ele>
        <time>2017-04-16T10:08:02.000Z</time>
      </trkpt>
      <trkpt lat="43.53719" lon="3.00954">
        <ele>325.6</ele>
        <time>2017-04-16T10:08:04.000Z</time>
      </trkpt>
      <trkpt lat="43.53715" lon="3.0096">
        <ele>326</ele>
        <time>2017-04-16T10:08:08.000Z</time>
      </trkpt>
      <trkpt lat="43.53712" lon="3.00963">
        <ele>326.2</ele>
        <time>2017-04-16T10:08:10.000Z</time>
      </trkpt>
      <trkpt lat="43.53707" lon="3.00967">
        <ele>327</ele>
        <time>2017-04-16T10:08:13.000Z</time>
      </trkpt>
      <trkpt lat="43.53705" lon="3.0097">
        <ele>327.4</ele>
        <time>2017-04-16T10:08:15.000Z</time>
      </trkpt>
      <trkpt lat="43.53703" lon="3.00973">
        <ele>327.6</ele>
        <time>2017-04-16T10:08:17.000Z</time>
      </trkpt>
      <trkpt lat="43.537" lon="3.00976">
        <ele>328</ele>
        <time>2017-04-16T10:08:19.000Z</time>
      </trkpt>
      <trkpt lat="43.53696" lon="3.00983">
        <ele>328.2</ele>
        <time>2017-04-16T10:08:23.000Z</time>
      </trkpt>
      <trkpt lat="43.53693" lon="3.00988">
        <ele>329.2</ele>
        <time>2017-04-16T10:08:26.000Z</time>
      </trkpt>
      <trkpt lat="43.53692" lon="3.00992">
        <ele>329.6</ele>
        <time>2017-04-16T10:08:28.000Z</time>
      </trkpt>
      <trkpt lat="43.53691" lon="3.00994">
        <ele>329.6</ele>
        <time>2017-04-16T10:08:29.000Z</time>
      </trkpt>
      <trkpt lat="43.53691" lon="3.00996">
        <ele>329.8</ele>
        <time>2017-04-16T10:08:30.000Z</time>
      </trkpt>
      <trkpt lat="43.5369" lon="3.01001">
        <ele>330.2</ele>
        <time>2017-04-16T10:08:32.000Z</time>
      </trkpt>
      <trkpt lat="43.5369" lon="3.01006">
        <ele>330.4</ele>
        <time>2017-04-16T10:08:34.000Z</time>
      </trkpt>
      <trkpt lat="43.53689" lon="3.0101">
        <ele>330.8</ele>
        <time>2017-04-16T10:08:36.000Z</time>
      </trkpt>
      <trkpt lat="43.53689" lon="3.01014">
        <ele>331.2</ele>
        <time>2017-04-16T10:08:38.000Z</time>
      </trkpt>
      <trkpt lat="43.53688" lon="3.01018">
        <ele>331.6</ele>
        <time>2017-04-16T10:08:40.000Z</time>
      </trkpt>
      <trkpt lat="43.53687" lon="3.01022">
        <ele>332</ele>
        <time>2017-04-16T10:08:42.000Z</time>
      </trkpt>
      <trkpt lat="43.53687" lon="3.01026">
        <ele>332.2</ele>
        <time>2017-04-16T10:08:44.000Z</time>
      </trkpt>
      <trkpt lat="43.53685" lon="3.01039">
        <ele>332.8</ele>
        <time>2017-04-16T10:08:50.000Z</time>
      </trkpt>
      <trkpt lat="43.53684" lon="3.01041">
        <ele>333.2</ele>
        <time>2017-04-16T10:08:51.000Z</time>
      </trkpt>
      <trkpt lat="43.53682" lon="3.01044">
        <ele>333.6</ele>
        <time>2017-04-16T10:08:53.000Z</time>
      </trkpt>
      <trkpt lat="43.53681" lon="3.01048">
        <ele>334</ele>
        <time>2017-04-16T10:08:55.000Z</time>
      </trkpt>
      <trkpt lat="43.53679" lon="3.01052">
        <ele>334.2</ele>
        <time>2017-04-16T10:08:57.000Z</time>
      </trkpt>
      <trkpt lat="43.53678" lon="3.01054">
        <ele>334.6</ele>
        <time>2017-04-16T10:08:58.000Z</time>
      </trkpt>
      <trkpt lat="43.53677" lon="3.01058">
        <ele>335.2</ele>
        <time>2017-04-16T10:09:00.000Z</time>
      </trkpt>
      <trkpt lat="43.53675" lon="3.01062">
        <ele>335.6</ele>
        <time>2017-04-16T10:09:02.000Z</time>
      </trkpt>
      <trkpt lat="43.53673" lon="3.01066">
        <ele>336</ele>
        <time>2017-04-16T10:09:04.000Z</time>
      </trkpt>
      <trkpt lat="43.53671" lon="3.01071">
        <ele>336.4</ele>
        <time>2017-04-16T10:09:06.000Z</time>
      </trkpt>
      <trkpt lat="43.53669" lon="3.0108">
        <ele>337</ele>
        <time>2017-04-16T10:09:10.000Z</time>
      </trkpt>
      <trkpt lat="43.53669" lon="3.01085">
        <ele>337.6</ele>
        <time>2017-04-16T10:09:12.000Z</time>
      </trkpt>
      <trkpt lat="43.53667" lon="3.0109">
        <ele>338</ele>
        <time>2017-04-16T10:09:14.000Z</time>
      </trkpt>
      <trkpt lat="43.53666" lon="3.01095">
        <ele>338.2</ele>
        <time>2017-04-16T10:09:16.000Z</time>
      </trkpt>
      <trkpt lat="43.53665" lon="3.011">
        <ele>338.6</ele>
        <time>2017-04-16T10:09:18.000Z</time>
      </trkpt>
      <trkpt lat="43.53661" lon="3.01122">
        <ele>339.2</ele>
        <time>2017-04-16T10:09:26.000Z</time>
      </trkpt>
      <trkpt lat="43.5366" lon="3.01131">
        <ele>339.6</ele>
        <time>2017-04-16T10:09:29.000Z</time>
      </trkpt>
      <trkpt lat="43.53659" lon="3.01137">
        <ele>340</ele>
        <time>2017-04-16T10:09:31.000Z</time>
      </trkpt>
      <trkpt lat="43.53658" lon="3.01143">
        <ele>340.2</ele>
        <time>2017-04-16T10:09:33.000Z</time>
      </trkpt>
      <trkpt lat="43.53657" lon="3.01148">
        <ele>340.6</ele>
        <time>2017-04-16T10:09:35.000Z</time>
      </trkpt>
      <trkpt lat="43.53657" lon="3.01154">
        <ele>340.8</ele>
        <time>2017-04-16T10:09:37.000Z</time>
      </trkpt>
      <trkpt lat="43.53654" lon="3.01165">
        <ele>341.2</ele>
        <time>2017-04-16T10:09:41.000Z</time>
      </trkpt>
      <trkpt lat="43.53652" lon="3.0117">
        <ele>341.8</ele>
        <time>2017-04-16T10:09:43.000Z</time>
      </trkpt>
      <trkpt lat="43.5365" lon="3.01175">
        <ele>342.2</ele>
        <time>2017-04-16T10:09:45.000Z</time>
      </trkpt>
      <trkpt lat="43.53647" lon="3.01179">
        <ele>342.4</ele>
        <time>2017-04-16T10:09:47.000Z</time>
      </trkpt>
      <trkpt lat="43.53645" lon="3.01183">
        <ele>342.6</ele>
        <time>2017-04-16T10:09:49.000Z</time>
      </trkpt>
      <trkpt lat="43.53641" lon="3.01189">
        <ele>343.2</ele>
        <time>2017-04-16T10:09:52.000Z</time>
      </trkpt>
      <trkpt lat="43.53639" lon="3.01193">
        <ele>343.6</ele>
        <time>2017-04-16T10:09:54.000Z</time>
      </trkpt>
      <trkpt lat="43.53636" lon="3.01197">
        <ele>344</ele>
        <time>2017-04-16T10:09:56.000Z</time>
      </trkpt>
      <trkpt lat="43.53633" lon="3.01201">
        <ele>344.4</ele>
        <time>2017-04-16T10:09:58.000Z</time>
      </trkpt>
      <trkpt lat="43.53631" lon="3.01204">
        <ele>344.6</ele>
        <time>2017-04-16T10:10:00.000Z</time>
      </trkpt>
      <trkpt lat="43.53626" lon="3.01209">
        <ele>345.2</ele>
        <time>2017-04-16T10:10:04.000Z</time>
      </trkpt>
      <trkpt lat="43.53624" lon="3.01211">
        <ele>345.8</ele>
        <time>2017-04-16T10:10:06.000Z</time>
      </trkpt>
      <trkpt lat="43.53621" lon="3.01213">
        <ele>346.2</ele>
        <time>2017-04-16T10:10:08.000Z</time>
      </trkpt>
      <trkpt lat="43.53619" lon="3.01215">
        <ele>346.6</ele>
        <time>2017-04-16T10:10:10.000Z</time>
      </trkpt>
      <trkpt lat="43.53617" lon="3.01218">
        <ele>346.8</ele>
        <time>2017-04-16T10:10:12.000Z</time>
      </trkpt>
      <trkpt lat="43.53616" lon="3.0122">
        <ele>347.2</ele>
        <time>2017-04-16T10:10:13.000Z</time>
      </trkpt>
      <trkpt lat="43.53613" lon="3.01223">
        <ele>347.6</ele>
        <time>2017-04-16T10:10:15.000Z</time>
      </trkpt>
      <trkpt lat="43.53611" lon="3.01227">
        <ele>348.2</ele>
        <time>2017-04-16T10:10:17.000Z</time>
      </trkpt>
      <trkpt lat="43.53609" lon="3.0123">
        <ele>348.4</ele>
        <time>2017-04-16T10:10:19.000Z</time>
      </trkpt>
      <trkpt lat="43.53607" lon="3.01234">
        <ele>348.8</ele>
        <time>2017-04-16T10:10:21.000Z</time>
      </trkpt>
      <trkpt lat="43.53603" lon="3.01242">
        <ele>349</ele>
        <time>2017-04-16T10:10:24.000Z</time>
      </trkpt>
      <trkpt lat="43.53602" lon="3.01245">
        <ele>349.4</ele>
        <time>2017-04-16T10:10:25.000Z</time>
      </trkpt>
      <trkpt lat="43.536" lon="3.0125">
        <ele>350</ele>
        <time>2017-04-16T10:10:27.000Z</time>
      </trkpt>
      <trkpt lat="43.53598" lon="3.01256">
        <ele>350.4</ele>
        <time>2017-04-16T10:10:29.000Z</time>
      </trkpt>
      <trkpt lat="43.53598" lon="3.01261">
        <ele>350.6</ele>
        <time>2017-04-16T10:10:31.000Z</time>
      </trkpt>
      <trkpt lat="43.53598" lon="3.01266">
        <ele>351</ele>
        <time>2017-04-16T10:10:33.000Z</time>
      </trkpt>
      <trkpt lat="43.53597" lon="3.01277">
        <ele>351.6</ele>
        <time>2017-04-16T10:10:37.000Z</time>
      </trkpt>
      <trkpt lat="43.53598" lon="3.01282">
        <ele>352</ele>
        <time>2017-04-16T10:10:39.000Z</time>
      </trkpt>
      <trkpt lat="43.53599" lon="3.01286">
        <ele>352.4</ele>
        <time>2017-04-16T10:10:41.000Z</time>
      </trkpt>
      <trkpt lat="43.536" lon="3.01291">
        <ele>352.8</ele>
        <time>2017-04-16T10:10:43.000Z</time>
      </trkpt>
      <trkpt lat="43.53601" lon="3.01296">
        <ele>353</ele>
        <time>2017-04-16T10:10:45.000Z</time>
      </trkpt>
      <trkpt lat="43.53601" lon="3.01298">
        <ele>353.4</ele>
        <time>2017-04-16T10:10:46.000Z</time>
      </trkpt>
      <trkpt lat="43.53601" lon="3.01303">
        <ele>354</ele>
        <time>2017-04-16T10:10:48.000Z</time>
      </trkpt>
      <trkpt lat="43.53601" lon="3.01309">
        <ele>354.4</ele>
        <time>2017-04-16T10:10:50.000Z</time>
      </trkpt>
      <trkpt lat="43.53603" lon="3.01314">
        <ele>354.8</ele>
        <time>2017-04-16T10:10:52.000Z</time>
      </trkpt>
      <trkpt lat="43.53603" lon="3.01319">
        <ele>355</ele>
        <time>2017-04-16T10:10:54.000Z</time>
      </trkpt>
      <trkpt lat="43.53606" lon="3.01332">
        <ele>355.8</ele>
        <time>2017-04-16T10:10:59.000Z</time>
      </trkpt>
      <trkpt lat="43.53607" lon="3.01338">
        <ele>356.4</ele>
        <time>2017-04-16T10:11:01.000Z</time>
      </trkpt>
      <trkpt lat="43.53608" lon="3.01343">
        <ele>356.8</ele>
        <time>2017-04-16T10:11:03.000Z</time>
      </trkpt>
      <trkpt lat="43.53609" lon="3.01349">
        <ele>357</ele>
        <time>2017-04-16T10:11:05.000Z</time>
      </trkpt>
      <trkpt lat="43.53609" lon="3.01354">
        <ele>357.4</ele>
        <time>2017-04-16T10:11:07.000Z</time>
      </trkpt>
      <trkpt lat="43.53611" lon="3.01369">
        <ele>358.2</ele>
        <time>2017-04-16T10:11:13.000Z</time>
      </trkpt>
      <trkpt lat="43.53611" lon="3.01374">
        <ele>358.6</ele>
        <time>2017-04-16T10:11:15.000Z</time>
      </trkpt>
      <trkpt lat="43.53611" lon="3.01378">
        <ele>359</ele>
        <time>2017-04-16T10:11:17.000Z</time>
      </trkpt>
      <trkpt lat="43.53612" lon="3.01382">
        <ele>359.4</ele>
        <time>2017-04-16T10:11:19.000Z</time>
      </trkpt>
      <trkpt lat="43.53613" lon="3.01387">
        <ele>359.8</ele>
        <time>2017-04-16T10:11:21.000Z</time>
      </trkpt>
      <trkpt lat="43.53615" lon="3.01397">
        <ele>360.4</ele>
        <time>2017-04-16T10:11:26.000Z</time>
      </trkpt>
      <trkpt lat="43.53616" lon="3.01402">
        <ele>361</ele>
        <time>2017-04-16T10:11:28.000Z</time>
      </trkpt>
      <trkpt lat="43.53616" lon="3.01406">
        <ele>361.4</ele>
        <time>2017-04-16T10:11:30.000Z</time>
      </trkpt>
      <trkpt lat="43.53617" lon="3.01411">
        <ele>361.6</ele>
        <time>2017-04-16T10:11:32.000Z</time>
      </trkpt>
      <trkpt lat="43.53617" lon="3.01416">
        <ele>361.8</ele>
        <time>2017-04-16T10:11:34.000Z</time>
      </trkpt>
      <trkpt lat="43.53617" lon="3.01419">
        <ele>362</ele>
        <time>2017-04-16T10:11:35.000Z</time>
      </trkpt>
      <trkpt lat="43.53618" lon="3.01427">
        <ele>362.4</ele>
        <time>2017-04-16T10:11:38.000Z</time>
      </trkpt>
      <trkpt lat="43.53619" lon="3.01432">
        <ele>363</ele>
        <time>2017-04-16T10:11:40.000Z</time>
      </trkpt>
      <trkpt lat="43.53619" lon="3.01437">
        <ele>363.4</ele>
        <time>2017-04-16T10:11:42.000Z</time>
      </trkpt>
      <trkpt lat="43.53619" lon="3.01442">
        <ele>363.6</ele>
        <time>2017-04-16T10:11:44.000Z</time>
      </trkpt>
      <trkpt lat="43.5362" lon="3.01447">
        <ele>364</ele>
        <time>2017-04-16T10:11:46.000Z</time>
      </trkpt>
      <trkpt lat="43.5362" lon="3.0145">
        <ele>364.2</ele>
        <time>2017-04-16T10:11:47.000Z</time>
      </trkpt>
      <trkpt lat="43.5362" lon="3.01456">
        <ele>364.8</ele>
        <time>2017-04-16T10:11:49.000Z</time>
      </trkpt>
      <trkpt lat="43.53621" lon="3.0146">
        <ele>365.2</ele>
        <time>2017-04-16T10:11:51.000Z</time>
      </trkpt>
      <trkpt lat="43.53621" lon="3.01465">
        <ele>365.6</ele>
        <time>2017-04-16T10:11:53.000Z</time>
      </trkpt>
      <trkpt lat="43.53622" lon="3.01469">
        <ele>366</ele>
        <time>2017-04-16T10:11:55.000Z</time>
      </trkpt>
      <trkpt lat="43.53623" lon="3.01477">
        <ele>366.4</ele>
        <time>2017-04-16T10:11:58.000Z</time>
      </trkpt>
      <trkpt lat="43.53624" lon="3.01482">
        <ele>367</ele>
        <time>2017-04-16T10:12:00.000Z</time>
      </trkpt>
      <trkpt lat="43.53626" lon="3.01486">
        <ele>367.4</ele>
        <time>2017-04-16T10:12:02.000Z</time>
      </trkpt>
      <trkpt lat="43.53628" lon="3.0149">
        <ele>367.8</ele>
        <time>2017-04-16T10:12:04.000Z</time>
      </trkpt>
      <trkpt lat="43.5363" lon="3.01494">
        <ele>368.2</ele>
        <time>2017-04-16T10:12:06.000Z</time>
      </trkpt>
      <trkpt lat="43.53631" lon="3.01495">
        <ele>368.4</ele>
        <time>2017-04-16T10:12:07.000Z</time>
      </trkpt>
      <trkpt lat="43.53634" lon="3.01498">
        <ele>369</ele>
        <time>2017-04-16T10:12:09.000Z</time>
      </trkpt>
      <trkpt lat="43.53637" lon="3.015">
        <ele>369.6</ele>
        <time>2017-04-16T10:12:11.000Z</time>
      </trkpt>
      <trkpt lat="43.5364" lon="3.01502">
        <ele>370</ele>
        <time>2017-04-16T10:12:13.000Z</time>
      </trkpt>
      <trkpt lat="43.53643" lon="3.01504">
        <ele>370.2</ele>
        <time>2017-04-16T10:12:15.000Z</time>
      </trkpt>
      <trkpt lat="43.53647" lon="3.01505">
        <ele>370.6</ele>
        <time>2017-04-16T10:12:17.000Z</time>
      </trkpt>
      <trkpt lat="43.53651" lon="3.01506">
        <ele>371.2</ele>
        <time>2017-04-16T10:12:19.000Z</time>
      </trkpt>
      <trkpt lat="43.53654" lon="3.01507">
        <ele>371.6</ele>
        <time>2017-04-16T10:12:21.000Z</time>
      </trkpt>
      <trkpt lat="43.53657" lon="3.01507">
        <ele>372</ele>
        <time>2017-04-16T10:12:23.000Z</time>
      </trkpt>
      <trkpt lat="43.5366" lon="3.01509">
        <ele>372.4</ele>
        <time>2017-04-16T10:12:25.000Z</time>
      </trkpt>
      <trkpt lat="43.53673" lon="3.01509">
        <ele>373</ele>
        <time>2017-04-16T10:12:31.000Z</time>
      </trkpt>
      <trkpt lat="43.53675" lon="3.0151">
        <ele>373.2</ele>
        <time>2017-04-16T10:12:32.000Z</time>
      </trkpt>
      <trkpt lat="43.53679" lon="3.01509">
        <ele>373.8</ele>
        <time>2017-04-16T10:12:34.000Z</time>
      </trkpt>
      <trkpt lat="43.53683" lon="3.01508">
        <ele>374</ele>
        <time>2017-04-16T10:12:36.000Z</time>
      </trkpt>
      <trkpt lat="43.53687" lon="3.01508">
        <ele>374.4</ele>
        <time>2017-04-16T10:12:38.000Z</time>
      </trkpt>
      <trkpt lat="43.53691" lon="3.01508">
        <ele>374.6</ele>
        <time>2017-04-16T10:12:40.000Z</time>
      </trkpt>
      <trkpt lat="43.53703" lon="3.01505">
        <ele>375.2</ele>
        <time>2017-04-16T10:12:46.000Z</time>
      </trkpt>
      <trkpt lat="43.53714" lon="3.01505">
        <ele>375.6</ele>
        <time>2017-04-16T10:12:52.000Z</time>
      </trkpt>
      <trkpt lat="43.53717" lon="3.01504">
        <ele>376</ele>
        <time>2017-04-16T10:12:54.000Z</time>
      </trkpt>
      <trkpt lat="43.53721" lon="3.01503">
        <ele>376.4</ele>
        <time>2017-04-16T10:12:56.000Z</time>
      </trkpt>
      <trkpt lat="43.53724" lon="3.01503">
        <ele>376.6</ele>
        <time>2017-04-16T10:12:58.000Z</time>
      </trkpt>
      <trkpt lat="43.53729" lon="3.01503">
        <ele>376.8</ele>
        <time>2017-04-16T10:13:00.000Z</time>
      </trkpt>
      <trkpt lat="43.53742" lon="3.01502">
        <ele>377.4</ele>
        <time>2017-04-16T10:13:07.000Z</time>
      </trkpt>
      <trkpt lat="43.53748" lon="3.01502">
        <ele>377.8</ele>
        <time>2017-04-16T10:13:11.000Z</time>
      </trkpt>
      <trkpt lat="43.53751" lon="3.01502">
        <ele>378.2</ele>
        <time>2017-04-16T10:13:13.000Z</time>
      </trkpt>
      <trkpt lat="43.53754" lon="3.01503">
        <ele>378.6</ele>
        <time>2017-04-16T10:13:15.000Z</time>
      </trkpt>
      <trkpt lat="43.53757" lon="3.01503">
        <ele>378.8</ele>
        <time>2017-04-16T10:13:17.000Z</time>
      </trkpt>
      <trkpt lat="43.53761" lon="3.01503">
        <ele>379</ele>
        <time>2017-04-16T10:13:19.000Z</time>
      </trkpt>
      <trkpt lat="43.53763" lon="3.01504">
        <ele>379.2</ele>
        <time>2017-04-16T10:13:21.000Z</time>
      </trkpt>
      <trkpt lat="43.53768" lon="3.01505">
        <ele>379.6</ele>
        <time>2017-04-16T10:13:24.000Z</time>
      </trkpt>
      <trkpt lat="43.53771" lon="3.01506">
        <ele>380.2</ele>
        <time>2017-04-16T10:13:26.000Z</time>
      </trkpt>
      <trkpt lat="43.53774" lon="3.01507">
        <ele>380.6</ele>
        <time>2017-04-16T10:13:28.000Z</time>
      </trkpt>
      <trkpt lat="43.53778" lon="3.01508">
        <ele>380.8</ele>
        <time>2017-04-16T10:13:30.000Z</time>
      </trkpt>
      <trkpt lat="43.53782" lon="3.01508">
        <ele>381</ele>
        <time>2017-04-16T10:13:32.000Z</time>
      </trkpt>
      <trkpt lat="43.53791" lon="3.01509">
        <ele>381.8</ele>
        <time>2017-04-16T10:13:37.000Z</time>
      </trkpt>
      <trkpt lat="43.53794" lon="3.0151">
        <ele>382.2</ele>
        <time>2017-04-16T10:13:39.000Z</time>
      </trkpt>
      <trkpt lat="43.53798" lon="3.01511">
        <ele>382.6</ele>
        <time>2017-04-16T10:13:41.000Z</time>
      </trkpt>
      <trkpt lat="43.53802" lon="3.01512">
        <ele>383</ele>
        <time>2017-04-16T10:13:43.000Z</time>
      </trkpt>
      <trkpt lat="43.53806" lon="3.01513">
        <ele>383.2</ele>
        <time>2017-04-16T10:13:45.000Z</time>
      </trkpt>
      <trkpt lat="43.53815" lon="3.01515">
        <ele>383.8</ele>
        <time>2017-04-16T10:13:50.000Z</time>
      </trkpt>
      <trkpt lat="43.53819" lon="3.01515">
        <ele>384.4</ele>
        <time>2017-04-16T10:13:52.000Z</time>
      </trkpt>
      <trkpt lat="43.53822" lon="3.01516">
        <ele>384.8</ele>
        <time>2017-04-16T10:13:54.000Z</time>
      </trkpt>
      <trkpt lat="43.53826" lon="3.01516">
        <ele>385</ele>
        <time>2017-04-16T10:13:56.000Z</time>
      </trkpt>
      <trkpt lat="43.53829" lon="3.01517">
        <ele>385.4</ele>
        <time>2017-04-16T10:13:58.000Z</time>
      </trkpt>
      <trkpt lat="43.53831" lon="3.01517">
        <ele>385.6</ele>
        <time>2017-04-16T10:13:59.000Z</time>
      </trkpt>
      <trkpt lat="43.53834" lon="3.01519">
        <ele>386.2</ele>
        <time>2017-04-16T10:14:01.000Z</time>
      </trkpt>
      <trkpt lat="43.53837" lon="3.01521">
        <ele>386.8</ele>
        <time>2017-04-16T10:14:03.000Z</time>
      </trkpt>
      <trkpt lat="43.5384" lon="3.01522">
        <ele>387.2</ele>
        <time>2017-04-16T10:14:05.000Z</time>
      </trkpt>
      <trkpt lat="43.53844" lon="3.01524">
        <ele>387.4</ele>
        <time>2017-04-16T10:14:07.000Z</time>
      </trkpt>
      <trkpt lat="43.53845" lon="3.01525">
        <ele>387.8</ele>
        <time>2017-04-16T10:14:08.000Z</time>
      </trkpt>
      <trkpt lat="43.53847" lon="3.01529">
        <ele>388.4</ele>
        <time>2017-04-16T10:14:10.000Z</time>
      </trkpt>
      <trkpt lat="43.53849" lon="3.01534">
        <ele>388.8</ele>
        <time>2017-04-16T10:14:12.000Z</time>
      </trkpt>
      <trkpt lat="43.53851" lon="3.01539">
        <ele>389.2</ele>
        <time>2017-04-16T10:14:14.000Z</time>
      </trkpt>
      <trkpt lat="43.53852" lon="3.01545">
        <ele>389.6</ele>
        <time>2017-04-16T10:14:16.000Z</time>
      </trkpt>
      <trkpt lat="43.53854" lon="3.01553">
        <ele>390</ele>
        <time>2017-04-16T10:14:19.000Z</time>
      </trkpt>
      <trkpt lat="43.53854" lon="3.01558">
        <ele>390.6</ele>
        <time>2017-04-16T10:14:21.000Z</time>
      </trkpt>
      <trkpt lat="43.53854" lon="3.01563">
        <ele>391.2</ele>
        <time>2017-04-16T10:14:23.000Z</time>
      </trkpt>
      <trkpt lat="43.53853" lon="3.01569">
        <ele>391.6</ele>
        <time>2017-04-16T10:14:25.000Z</time>
      </trkpt>
      <trkpt lat="43.53852" lon="3.01575">
        <ele>391.8</ele>
        <time>2017-04-16T10:14:27.000Z</time>
      </trkpt>
      <trkpt lat="43.53853" lon="3.01586">
        <ele>392.6</ele>
        <time>2017-04-16T10:14:32.000Z</time>
      </trkpt>
      <trkpt lat="43.53853" lon="3.0159">
        <ele>393</ele>
        <time>2017-04-16T10:14:34.000Z</time>
      </trkpt>
      <trkpt lat="43.53853" lon="3.01595">
        <ele>393.6</ele>
        <time>2017-04-16T10:14:36.000Z</time>
      </trkpt>
      <trkpt lat="43.53853" lon="3.01599">
        <ele>393.8</ele>
        <time>2017-04-16T10:14:38.000Z</time>
      </trkpt>
      <trkpt lat="43.53854" lon="3.01603">
        <ele>394.2</ele>
        <time>2017-04-16T10:14:40.000Z</time>
      </trkpt>
      <trkpt lat="43.53855" lon="3.0162">
        <ele>394.8</ele>
        <time>2017-04-16T10:14:48.000Z</time>
      </trkpt>
      <trkpt lat="43.53855" lon="3.01622">
        <ele>395</ele>
        <time>2017-04-16T10:14:49.000Z</time>
      </trkpt>
      <trkpt lat="43.53855" lon="3.01625">
        <ele>395.6</ele>
        <time>2017-04-16T10:14:51.000Z</time>
      </trkpt>
      <trkpt lat="43.53855" lon="3.01627">
        <ele>395.6</ele>
        <time>2017-04-16T10:14:52.000Z</time>
      </trkpt>
      <trkpt lat="43.53855" lon="3.01629">
        <ele>395.8</ele>
        <time>2017-04-16T10:14:53.000Z</time>
      </trkpt>
      <trkpt lat="43.53855" lon="3.01632">
        <ele>396.2</ele>
        <time>2017-04-16T10:14:55.000Z</time>
      </trkpt>
      <trkpt lat="43.53855" lon="3.01637">
        <ele>396.4</ele>
        <time>2017-04-16T10:14:57.000Z</time>
      </trkpt>
      <trkpt lat="43.53855" lon="3.01639">
        <ele>396.4</ele>
        <time>2017-04-16T10:14:58.000Z</time>
      </trkpt>
      <trkpt lat="43.53854" lon="3.01645">
        <ele>397</ele>
        <time>2017-04-16T10:15:01.000Z</time>
      </trkpt>
      <trkpt lat="43.53854" lon="3.01647">
        <ele>397.2</ele>
        <time>2017-04-16T10:15:02.000Z</time>
      </trkpt>
      <trkpt lat="43.53853" lon="3.01654">
        <ele>397.8</ele>
        <time>2017-04-16T10:15:05.000Z</time>
      </trkpt>
      <trkpt lat="43.53853" lon="3.01659">
        <ele>398.2</ele>
        <time>2017-04-16T10:15:07.000Z</time>
      </trkpt>
      <trkpt lat="43.53854" lon="3.01663">
        <ele>398.4</ele>
        <time>2017-04-16T10:15:09.000Z</time>
      </trkpt>
      <trkpt lat="43.53855" lon="3.01672">
        <ele>399</ele>
        <time>2017-04-16T10:15:13.000Z</time>
      </trkpt>
      <trkpt lat="43.53856" lon="3.01676">
        <ele>399.4</ele>
        <time>2017-04-16T10:15:15.000Z</time>
      </trkpt>
      <trkpt lat="43.53856" lon="3.01681">
        <ele>399.8</ele>
        <time>2017-04-16T10:15:17.000Z</time>
      </trkpt>
      <trkpt lat="43.53856" lon="3.01687">
        <ele>400.2</ele>
        <time>2017-04-16T10:15:19.000Z</time>
      </trkpt>
      <trkpt lat="43.53857" lon="3.01692">
        <ele>400.4</ele>
        <time>2017-04-16T10:15:21.000Z</time>
      </trkpt>
      <trkpt lat="43.53858" lon="3.01704">
        <ele>401</ele>
        <time>2017-04-16T10:15:26.000Z</time>
      </trkpt>
      <trkpt lat="43.53858" lon="3.0171">
        <ele>401.6</ele>
        <time>2017-04-16T10:15:28.000Z</time>
      </trkpt>
      <trkpt lat="43.53859" lon="3.01715">
        <ele>402</ele>
        <time>2017-04-16T10:15:30.000Z</time>
      </trkpt>
      <trkpt lat="43.5386" lon="3.01721">
        <ele>402.2</ele>
        <time>2017-04-16T10:15:32.000Z</time>
      </trkpt>
      <trkpt lat="43.53861" lon="3.01726">
        <ele>402.4</ele>
        <time>2017-04-16T10:15:34.000Z</time>
      </trkpt>
      <trkpt lat="43.53863" lon="3.0173">
        <ele>402.8</ele>
        <time>2017-04-16T10:15:36.000Z</time>
      </trkpt>
      <trkpt lat="43.53866" lon="3.01734">
        <ele>403.4</ele>
        <time>2017-04-16T10:15:38.000Z</time>
      </trkpt>
      <trkpt lat="43.53868" lon="3.01738">
        <ele>403.8</ele>
        <time>2017-04-16T10:15:40.000Z</time>
      </trkpt>
      <trkpt lat="43.5387" lon="3.01742">
        <ele>404.2</ele>
        <time>2017-04-16T10:15:42.000Z</time>
      </trkpt>
      <trkpt lat="43.53872" lon="3.01747">
        <ele>404.4</ele>
        <time>2017-04-16T10:15:44.000Z</time>
      </trkpt>
      <trkpt lat="43.53874" lon="3.01752">
        <ele>404.8</ele>
        <time>2017-04-16T10:15:46.000Z</time>
      </trkpt>
      <trkpt lat="43.53876" lon="3.01757">
        <ele>405.4</ele>
        <time>2017-04-16T10:15:48.000Z</time>
      </trkpt>
      <trkpt lat="43.53878" lon="3.0176">
        <ele>405.8</ele>
        <time>2017-04-16T10:15:50.000Z</time>
      </trkpt>
      <trkpt lat="43.53881" lon="3.01763">
        <ele>406.2</ele>
        <time>2017-04-16T10:15:52.000Z</time>
      </trkpt>
      <trkpt lat="43.53884" lon="3.01764">
        <ele>406.4</ele>
        <time>2017-04-16T10:15:54.000Z</time>
      </trkpt>
      <trkpt lat="43.53888" lon="3.01765">
        <ele>407</ele>
        <time>2017-04-16T10:15:56.000Z</time>
      </trkpt>
      <trkpt lat="43.53892" lon="3.01765">
        <ele>407.4</ele>
        <time>2017-04-16T10:15:58.000Z</time>
      </trkpt>
      <trkpt lat="43.53894" lon="3.01764">
        <ele>407.8</ele>
        <time>2017-04-16T10:16:00.000Z</time>
      </trkpt>
      <trkpt lat="43.53894" lon="3.01764">
        <ele>408</ele>
        <time>2017-04-16T10:16:01.000Z</time>
      </trkpt>
      <trkpt lat="43.53895" lon="3.01762">
        <ele>409.6</ele>
        <time>2017-04-16T10:16:42.000Z</time>
      </trkpt>
      <trkpt lat="43.53896" lon="3.01762">
        <ele>409.6</ele>
        <time>2017-04-16T10:16:43.000Z</time>
      </trkpt>
      <trkpt lat="43.53897" lon="3.01762">
        <ele>409.6</ele>
        <time>2017-04-16T10:16:44.000Z</time>
      </trkpt>
      <trkpt lat="43.53898" lon="3.01763">
        <ele>409.6</ele>
        <time>2017-04-16T10:16:45.000Z</time>
      </trkpt>
      <trkpt lat="43.53909" lon="3.01763">
        <ele>409.8</ele>
        <time>2017-04-16T10:16:56.000Z</time>
      </trkpt>
      <trkpt lat="43.53916" lon="3.01764">
        <ele>409.8</ele>
        <time>2017-04-16T10:17:04.000Z</time>
      </trkpt>
      <trkpt lat="43.53918" lon="3.01764">
        <ele>410</ele>
        <time>2017-04-16T10:17:07.000Z</time>
      </trkpt>
      <trkpt lat="43.53919" lon="3.01764">
        <ele>410.4</ele>
        <time>2017-04-16T10:17:09.000Z</time>
      </trkpt>
      <trkpt lat="43.5392" lon="3.01763">
        <ele>411.8</ele>
        <time>2017-04-16T10:17:29.000Z</time>
      </trkpt>
      <trkpt lat="43.53922" lon="3.01763">
        <ele>411.8</ele>
        <time>2017-04-16T10:17:31.000Z</time>
      </trkpt>
      <trkpt lat="43.53924" lon="3.01763">
        <ele>411.8</ele>
        <time>2017-04-16T10:17:33.000Z</time>
      </trkpt>
      <trkpt lat="43.53926" lon="3.01764">
        <ele>411.8</ele>
        <time>2017-04-16T10:17:35.000Z</time>
      </trkpt>
      <trkpt lat="43.53932" lon="3.01763">
        <ele>412</ele>
        <time>2017-04-16T10:17:41.000Z</time>
      </trkpt>
      <trkpt lat="43.53934" lon="3.01763">
        <ele>412.4</ele>
        <time>2017-04-16T10:17:43.000Z</time>
      </trkpt>
      <trkpt lat="43.53935" lon="3.01762">
        <ele>412.6</ele>
        <time>2017-04-16T10:17:44.000Z</time>
      </trkpt>
      <trkpt lat="43.53936" lon="3.01763">
        <ele>412.8</ele>
        <time>2017-04-16T10:17:45.000Z</time>
      </trkpt>
      <trkpt lat="43.53938" lon="3.01764">
        <ele>413</ele>
        <time>2017-04-16T10:17:47.000Z</time>
      </trkpt>
      <trkpt lat="43.5394" lon="3.01765">
        <ele>413.2</ele>
        <time>2017-04-16T10:17:49.000Z</time>
      </trkpt>
      <trkpt lat="43.53941" lon="3.01766">
        <ele>413.2</ele>
        <time>2017-04-16T10:17:50.000Z</time>
      </trkpt>
      <trkpt lat="43.53942" lon="3.01767">
        <ele>413.4</ele>
        <time>2017-04-16T10:17:51.000Z</time>
      </trkpt>
      <trkpt lat="43.53945" lon="3.01769">
        <ele>413.6</ele>
        <time>2017-04-16T10:17:55.000Z</time>
      </trkpt>
      <trkpt lat="43.53947" lon="3.01775">
        <ele>414</ele>
        <time>2017-04-16T10:18:00.000Z</time>
      </trkpt>
      <trkpt lat="43.53947" lon="3.01778">
        <ele>414.4</ele>
        <time>2017-04-16T10:18:02.000Z</time>
      </trkpt>
      <trkpt lat="43.53947" lon="3.01782">
        <ele>414.6</ele>
        <time>2017-04-16T10:18:04.000Z</time>
      </trkpt>
      <trkpt lat="43.53948" lon="3.01786">
        <ele>415</ele>
        <time>2017-04-16T10:18:06.000Z</time>
      </trkpt>
      <trkpt lat="43.53947" lon="3.01787">
        <ele>415</ele>
        <time>2017-04-16T10:18:07.000Z</time>
      </trkpt>
      <trkpt lat="43.53947" lon="3.01789">
        <ele>415.2</ele>
        <time>2017-04-16T10:18:08.000Z</time>
      </trkpt>
      <trkpt lat="43.53947" lon="3.018">
        <ele>415.6</ele>
        <time>2017-04-16T10:18:14.000Z</time>
      </trkpt>
      <trkpt lat="43.53948" lon="3.01802">
        <ele>415.6</ele>
        <time>2017-04-16T10:18:15.000Z</time>
      </trkpt>
      <trkpt lat="43.5395" lon="3.01816">
        <ele>416</ele>
        <time>2017-04-16T10:18:23.000Z</time>
      </trkpt>
      <trkpt lat="43.53952" lon="3.01824">
        <ele>416.2</ele>
        <time>2017-04-16T10:18:29.000Z</time>
      </trkpt>
      <trkpt lat="43.53953" lon="3.01826">
        <ele>416.6</ele>
        <time>2017-04-16T10:18:31.000Z</time>
      </trkpt>
      <trkpt lat="43.53954" lon="3.01829">
        <ele>416.8</ele>
        <time>2017-04-16T10:18:33.000Z</time>
      </trkpt>
      <trkpt lat="43.53954" lon="3.01831">
        <ele>417</ele>
        <time>2017-04-16T10:18:34.000Z</time>
      </trkpt>
      <trkpt lat="43.53954" lon="3.01835">
        <ele>417.4</ele>
        <time>2017-04-16T10:18:37.000Z</time>
      </trkpt>
      <trkpt lat="43.5395" lon="3.01844">
        <ele>417.8</ele>
        <time>2017-04-16T10:18:44.000Z</time>
      </trkpt>
      <trkpt lat="43.53947" lon="3.01852">
        <ele>418</ele>
        <time>2017-04-16T10:18:51.000Z</time>
      </trkpt>
      <trkpt lat="43.53946" lon="3.01854">
        <ele>418.2</ele>
        <time>2017-04-16T10:18:52.000Z</time>
      </trkpt>
      <trkpt lat="43.53946" lon="3.01857">
        <ele>418.6</ele>
        <time>2017-04-16T10:18:54.000Z</time>
      </trkpt>
      <trkpt lat="43.53945" lon="3.01859">
        <ele>418.8</ele>
        <time>2017-04-16T10:18:55.000Z</time>
      </trkpt>
      <trkpt lat="43.53944" lon="3.01864">
        <ele>419.2</ele>
        <time>2017-04-16T10:18:58.000Z</time>
      </trkpt>
      <trkpt lat="43.53944" lon="3.01865">
        <ele>419.2</ele>
        <time>2017-04-16T10:18:59.000Z</time>
      </trkpt>
      <trkpt lat="43.53944" lon="3.0188">
        <ele>420</ele>
        <time>2017-04-16T10:19:09.000Z</time>
      </trkpt>
      <trkpt lat="43.53943" lon="3.01884">
        <ele>420.2</ele>
        <time>2017-04-16T10:19:11.000Z</time>
      </trkpt>
      <trkpt lat="43.53943" lon="3.01887">
        <ele>420.6</ele>
        <time>2017-04-16T10:19:13.000Z</time>
      </trkpt>
      <trkpt lat="43.53942" lon="3.0189">
        <ele>421</ele>
        <time>2017-04-16T10:19:15.000Z</time>
      </trkpt>
      <trkpt lat="43.53942" lon="3.01893">
        <ele>421.2</ele>
        <time>2017-04-16T10:19:17.000Z</time>
      </trkpt>
      <trkpt lat="43.53942" lon="3.01896">
        <ele>421.4</ele>
        <time>2017-04-16T10:19:19.000Z</time>
      </trkpt>
      <trkpt lat="43.53942" lon="3.01897">
        <ele>421.6</ele>
        <time>2017-04-16T10:19:20.000Z</time>
      </trkpt>
      <trkpt lat="43.53941" lon="3.01898">
        <ele>421.8</ele>
        <time>2017-04-16T10:19:22.000Z</time>
      </trkpt>
      <trkpt lat="43.5394" lon="3.01905">
        <ele>422</ele>
        <time>2017-04-16T10:19:28.000Z</time>
      </trkpt>
      <trkpt lat="43.53939" lon="3.01909">
        <ele>422.4</ele>
        <time>2017-04-16T10:19:31.000Z</time>
      </trkpt>
      <trkpt lat="43.53938" lon="3.01912">
        <ele>422.8</ele>
        <time>2017-04-16T10:19:33.000Z</time>
      </trkpt>
      <trkpt lat="43.53937" lon="3.01915">
        <ele>423.2</ele>
        <time>2017-04-16T10:19:35.000Z</time>
      </trkpt>
      <trkpt lat="43.53936" lon="3.01917">
        <ele>423.4</ele>
        <time>2017-04-16T10:19:37.000Z</time>
      </trkpt>
      <trkpt lat="43.53936" lon="3.01918">
        <ele>423.6</ele>
        <time>2017-04-16T10:19:39.000Z</time>
      </trkpt>
      <trkpt lat="43.53935" lon="3.01919">
        <ele>423.8</ele>
        <time>2017-04-16T10:19:41.000Z</time>
      </trkpt>
      <trkpt lat="43.53933" lon="3.01925">
        <ele>424</ele>
        <time>2017-04-16T10:19:46.000Z</time>
      </trkpt>
      <trkpt lat="43.53932" lon="3.01927">
        <ele>424</ele>
        <time>2017-04-16T10:19:47.000Z</time>
      </trkpt>
      <trkpt lat="43.5393" lon="3.01933">
        <ele>424.8</ele>
        <time>2017-04-16T10:19:50.000Z</time>
      </trkpt>
      <trkpt lat="43.53928" lon="3.01937">
        <ele>425.2</ele>
        <time>2017-04-16T10:19:52.000Z</time>
      </trkpt>
      <trkpt lat="43.53926" lon="3.01941">
        <ele>425.4</ele>
        <time>2017-04-16T10:19:54.000Z</time>
      </trkpt>
      <trkpt lat="43.53926" lon="3.01943">
        <ele>425.6</ele>
        <time>2017-04-16T10:19:55.000Z</time>
      </trkpt>
      <trkpt lat="43.53918" lon="3.01964">
        <ele>426.4</ele>
        <time>2017-04-16T10:20:05.000Z</time>
      </trkpt>
      <trkpt lat="43.53916" lon="3.01968">
        <ele>427</ele>
        <time>2017-04-16T10:20:07.000Z</time>
      </trkpt>
      <trkpt lat="43.53915" lon="3.01973">
        <ele>427.2</ele>
        <time>2017-04-16T10:20:09.000Z</time>
      </trkpt>
      <trkpt lat="43.53914" lon="3.01977">
        <ele>427.6</ele>
        <time>2017-04-16T10:20:11.000Z</time>
      </trkpt>
      <trkpt lat="43.53913" lon="3.01981">
        <ele>427.8</ele>
        <time>2017-04-16T10:20:13.000Z</time>
      </trkpt>
      <trkpt lat="43.53909" lon="3.01993">
        <ele>428.4</ele>
        <time>2017-04-16T10:20:19.000Z</time>
      </trkpt>
      <trkpt lat="43.53907" lon="3.01997">
        <ele>429</ele>
        <time>2017-04-16T10:20:21.000Z</time>
      </trkpt>
      <trkpt lat="43.53906" lon="3.02001">
        <ele>429.2</ele>
        <time>2017-04-16T10:20:23.000Z</time>
      </trkpt>
      <trkpt lat="43.53906" lon="3.02006">
        <ele>429.6</ele>
        <time>2017-04-16T10:20:25.000Z</time>
      </trkpt>
      <trkpt lat="43.53906" lon="3.02011">
        <ele>429.8</ele>
        <time>2017-04-16T10:20:27.000Z</time>
      </trkpt>
      <trkpt lat="43.53905" lon="3.02023">
        <ele>430.4</ele>
        <time>2017-04-16T10:20:32.000Z</time>
      </trkpt>
      <trkpt lat="43.53904" lon="3.02028">
        <ele>431</ele>
        <time>2017-04-16T10:20:34.000Z</time>
      </trkpt>
      <trkpt lat="43.53904" lon="3.02032">
        <ele>431.4</ele>
        <time>2017-04-16T10:20:36.000Z</time>
      </trkpt>
      <trkpt lat="43.53903" lon="3.02037">
        <ele>431.6</ele>
        <time>2017-04-16T10:20:38.000Z</time>
      </trkpt>
      <trkpt lat="43.53901" lon="3.02042">
        <ele>432</ele>
        <time>2017-04-16T10:20:40.000Z</time>
      </trkpt>
      <trkpt lat="43.53898" lon="3.02053">
        <ele>432.6</ele>
        <time>2017-04-16T10:20:45.000Z</time>
      </trkpt>
      <trkpt lat="43.53897" lon="3.02058">
        <ele>433</ele>
        <time>2017-04-16T10:20:47.000Z</time>
      </trkpt>
      <trkpt lat="43.53896" lon="3.02063">
        <ele>433.4</ele>
        <time>2017-04-16T10:20:49.000Z</time>
      </trkpt>
      <trkpt lat="43.53895" lon="3.02068">
        <ele>433.8</ele>
        <time>2017-04-16T10:20:51.000Z</time>
      </trkpt>
      <trkpt lat="43.53894" lon="3.02073">
        <ele>434</ele>
        <time>2017-04-16T10:20:53.000Z</time>
      </trkpt>
      <trkpt lat="43.53896" lon="3.02085">
        <ele>434.6</ele>
        <time>2017-04-16T10:20:58.000Z</time>
      </trkpt>
      <trkpt lat="43.53898" lon="3.0209">
        <ele>435.2</ele>
        <time>2017-04-16T10:21:00.000Z</time>
      </trkpt>
      <trkpt lat="43.53899" lon="3.02092">
        <ele>435.4</ele>
        <time>2017-04-16T10:21:01.000Z</time>
      </trkpt>
      <trkpt lat="43.53904" lon="3.02097">
        <ele>435.8</ele>
        <time>2017-04-16T10:21:04.000Z</time>
      </trkpt>
      <trkpt lat="43.53908" lon="3.021">
        <ele>436</ele>
        <time>2017-04-16T10:21:06.000Z</time>
      </trkpt>
      <trkpt lat="43.5391" lon="3.02101">
        <ele>436.2</ele>
        <time>2017-04-16T10:21:07.000Z</time>
      </trkpt>
      <trkpt lat="43.53917" lon="3.02101">
        <ele>436.6</ele>
        <time>2017-04-16T10:21:10.000Z</time>
      </trkpt>
      <trkpt lat="43.53921" lon="3.021">
        <ele>437.2</ele>
        <time>2017-04-16T10:21:12.000Z</time>
      </trkpt>
      <trkpt lat="43.53924" lon="3.02099">
        <ele>437.6</ele>
        <time>2017-04-16T10:21:14.000Z</time>
      </trkpt>
      <trkpt lat="43.53927" lon="3.02097">
        <ele>437.8</ele>
        <time>2017-04-16T10:21:16.000Z</time>
      </trkpt>
      <trkpt lat="43.5393" lon="3.02096">
        <ele>438.2</ele>
        <time>2017-04-16T10:21:18.000Z</time>
      </trkpt>
      <trkpt lat="43.53931" lon="3.02095">
        <ele>438.2</ele>
        <time>2017-04-16T10:21:19.000Z</time>
      </trkpt>
      <trkpt lat="43.53934" lon="3.02094">
        <ele>438.6</ele>
        <time>2017-04-16T10:21:21.000Z</time>
      </trkpt>
      <trkpt lat="43.53936" lon="3.02093">
        <ele>439.2</ele>
        <time>2017-04-16T10:21:23.000Z</time>
      </trkpt>
      <trkpt lat="43.53939" lon="3.02091">
        <ele>439.6</ele>
        <time>2017-04-16T10:21:25.000Z</time>
      </trkpt>
      <trkpt lat="43.53942" lon="3.0209">
        <ele>439.8</ele>
        <time>2017-04-16T10:21:27.000Z</time>
      </trkpt>
      <trkpt lat="43.53945" lon="3.02089">
        <ele>440.2</ele>
        <time>2017-04-16T10:21:29.000Z</time>
      </trkpt>
      <trkpt lat="43.53955" lon="3.02088">
        <ele>440.6</ele>
        <time>2017-04-16T10:21:36.000Z</time>
      </trkpt>
      <trkpt lat="43.5396" lon="3.02087">
        <ele>441</ele>
        <time>2017-04-16T10:21:38.000Z</time>
      </trkpt>
      <trkpt lat="43.53962" lon="3.02087">
        <ele>441.6</ele>
        <time>2017-04-16T10:21:40.000Z</time>
      </trkpt>
      <trkpt lat="43.53965" lon="3.02087">
        <ele>441.8</ele>
        <time>2017-04-16T10:21:42.000Z</time>
      </trkpt>
      <trkpt lat="43.53968" lon="3.02087">
        <ele>442.2</ele>
        <time>2017-04-16T10:21:44.000Z</time>
      </trkpt>
      <trkpt lat="43.5397" lon="3.02087">
        <ele>442.6</ele>
        <time>2017-04-16T10:21:45.000Z</time>
      </trkpt>
      <trkpt lat="43.53973" lon="3.02087">
        <ele>443.2</ele>
        <time>2017-04-16T10:21:47.000Z</time>
      </trkpt>
      <trkpt lat="43.53976" lon="3.02087">
        <ele>443.6</ele>
        <time>2017-04-16T10:21:49.000Z</time>
      </trkpt>
      <trkpt lat="43.53979" lon="3.02088">
        <ele>444</ele>
        <time>2017-04-16T10:21:51.000Z</time>
      </trkpt>
      <trkpt lat="43.53983" lon="3.02089">
        <ele>444.4</ele>
        <time>2017-04-16T10:21:53.000Z</time>
      </trkpt>
      <trkpt lat="43.53994" lon="3.02091">
        <ele>445.2</ele>
        <time>2017-04-16T10:21:59.000Z</time>
      </trkpt>
      <trkpt lat="43.53998" lon="3.02091">
        <ele>445.8</ele>
        <time>2017-04-16T10:22:01.000Z</time>
      </trkpt>
      <trkpt lat="43.54001" lon="3.02091">
        <ele>446.2</ele>
        <time>2017-04-16T10:22:03.000Z</time>
      </trkpt>
      <trkpt lat="43.54004" lon="3.02092">
        <ele>446.4</ele>
        <time>2017-04-16T10:22:05.000Z</time>
      </trkpt>
      <trkpt lat="43.54008" lon="3.02092">
        <ele>446.8</ele>
        <time>2017-04-16T10:22:07.000Z</time>
      </trkpt>
      <trkpt lat="43.54011" lon="3.02092">
        <ele>447.2</ele>
        <time>2017-04-16T10:22:09.000Z</time>
      </trkpt>
      <trkpt lat="43.54015" lon="3.02093">
        <ele>447.8</ele>
        <time>2017-04-16T10:22:11.000Z</time>
      </trkpt>
      <trkpt lat="43.54018" lon="3.02093">
        <ele>448.2</ele>
        <time>2017-04-16T10:22:13.000Z</time>
      </trkpt>
      <trkpt lat="43.54021" lon="3.02093">
        <ele>448.6</ele>
        <time>2017-04-16T10:22:15.000Z</time>
      </trkpt>
      <trkpt lat="43.54025" lon="3.02093">
        <ele>448.8</ele>
        <time>2017-04-16T10:22:17.000Z</time>
      </trkpt>
      <trkpt lat="43.54033" lon="3.02092">
        <ele>449.4</ele>
        <time>2017-04-16T10:22:21.000Z</time>
      </trkpt>
      <trkpt lat="43.54037" lon="3.02091">
        <ele>450</ele>
        <time>2017-04-16T10:22:23.000Z</time>
      </trkpt>
      <trkpt lat="43.54041" lon="3.0209">
        <ele>450.4</ele>
        <time>2017-04-16T10:22:25.000Z</time>
      </trkpt>
      <trkpt lat="43.54045" lon="3.02089">
        <ele>450.8</ele>
        <time>2017-04-16T10:22:27.000Z</time>
      </trkpt>
      <trkpt lat="43.54049" lon="3.02087">
        <ele>451</ele>
        <time>2017-04-16T10:22:29.000Z</time>
      </trkpt>
      <trkpt lat="43.5405" lon="3.02086">
        <ele>451.4</ele>
        <time>2017-04-16T10:22:30.000Z</time>
      </trkpt>
      <trkpt lat="43.54054" lon="3.02085">
        <ele>452</ele>
        <time>2017-04-16T10:22:32.000Z</time>
      </trkpt>
      <trkpt lat="43.54058" lon="3.02084">
        <ele>452.4</ele>
        <time>2017-04-16T10:22:34.000Z</time>
      </trkpt>
      <trkpt lat="43.54061" lon="3.02083">
        <ele>452.8</ele>
        <time>2017-04-16T10:22:36.000Z</time>
      </trkpt>
      <trkpt lat="43.54065" lon="3.02081">
        <ele>453</ele>
        <time>2017-04-16T10:22:38.000Z</time>
      </trkpt>
      <trkpt lat="43.54073" lon="3.02078">
        <ele>453.8</ele>
        <time>2017-04-16T10:22:43.000Z</time>
      </trkpt>
      <trkpt lat="43.54076" lon="3.02076">
        <ele>454.2</ele>
        <time>2017-04-16T10:22:45.000Z</time>
      </trkpt>
      <trkpt lat="43.54079" lon="3.02074">
        <ele>454.6</ele>
        <time>2017-04-16T10:22:47.000Z</time>
      </trkpt>
      <trkpt lat="43.54083" lon="3.02073">
        <ele>455</ele>
        <time>2017-04-16T10:22:49.000Z</time>
      </trkpt>
      <trkpt lat="43.54086" lon="3.02071">
        <ele>455.2</ele>
        <time>2017-04-16T10:22:51.000Z</time>
      </trkpt>
      <trkpt lat="43.54088" lon="3.02071">
        <ele>455.6</ele>
        <time>2017-04-16T10:22:52.000Z</time>
      </trkpt>
      <trkpt lat="43.54092" lon="3.02069">
        <ele>456.2</ele>
        <time>2017-04-16T10:22:54.000Z</time>
      </trkpt>
      <trkpt lat="43.54096" lon="3.02067">
        <ele>456.6</ele>
        <time>2017-04-16T10:22:56.000Z</time>
      </trkpt>
      <trkpt lat="43.54099" lon="3.02065">
        <ele>457</ele>
        <time>2017-04-16T10:22:58.000Z</time>
      </trkpt>
      <trkpt lat="43.54103" lon="3.02062">
        <ele>457.2</ele>
        <time>2017-04-16T10:23:00.000Z</time>
      </trkpt>
      <trkpt lat="43.54109" lon="3.02057">
        <ele>458</ele>
        <time>2017-04-16T10:23:04.000Z</time>
      </trkpt>
      <trkpt lat="43.54112" lon="3.02055">
        <ele>458.4</ele>
        <time>2017-04-16T10:23:06.000Z</time>
      </trkpt>
      <trkpt lat="43.54115" lon="3.02052">
        <ele>459</ele>
        <time>2017-04-16T10:23:08.000Z</time>
      </trkpt>
      <trkpt lat="43.54118" lon="3.02049">
        <ele>459.2</ele>
        <time>2017-04-16T10:23:10.000Z</time>
      </trkpt>
      <trkpt lat="43.5412" lon="3.02046">
        <ele>459.6</ele>
        <time>2017-04-16T10:23:12.000Z</time>
      </trkpt>
      <trkpt lat="43.54124" lon="3.02039">
        <ele>460</ele>
        <time>2017-04-16T10:23:16.000Z</time>
      </trkpt>
      <trkpt lat="43.54127" lon="3.02035">
        <ele>460.8</ele>
        <time>2017-04-16T10:23:19.000Z</time>
      </trkpt>
      <trkpt lat="43.54129" lon="3.02032">
        <ele>461.2</ele>
        <time>2017-04-16T10:23:21.000Z</time>
      </trkpt>
      <trkpt lat="43.5413" lon="3.02028">
        <ele>461.4</ele>
        <time>2017-04-16T10:23:23.000Z</time>
      </trkpt>
      <trkpt lat="43.54132" lon="3.02025">
        <ele>461.8</ele>
        <time>2017-04-16T10:23:25.000Z</time>
      </trkpt>
      <trkpt lat="43.54133" lon="3.02023">
        <ele>462</ele>
        <time>2017-04-16T10:23:26.000Z</time>
      </trkpt>
      <trkpt lat="43.54135" lon="3.0202">
        <ele>462.6</ele>
        <time>2017-04-16T10:23:28.000Z</time>
      </trkpt>
      <trkpt lat="43.54137" lon="3.02016">
        <ele>463</ele>
        <time>2017-04-16T10:23:30.000Z</time>
      </trkpt>
      <trkpt lat="43.54138" lon="3.02012">
        <ele>463.4</ele>
        <time>2017-04-16T10:23:32.000Z</time>
      </trkpt>
      <trkpt lat="43.5414" lon="3.02009">
        <ele>463.6</ele>
        <time>2017-04-16T10:23:34.000Z</time>
      </trkpt>
      <trkpt lat="43.54142" lon="3.02007">
        <ele>463.8</ele>
        <time>2017-04-16T10:23:35.000Z</time>
      </trkpt>
      <trkpt lat="43.54143" lon="3.02005">
        <ele>464.2</ele>
        <time>2017-04-16T10:23:36.000Z</time>
      </trkpt>
      <trkpt lat="43.54145" lon="3.02002">
        <ele>464.6</ele>
        <time>2017-04-16T10:23:38.000Z</time>
      </trkpt>
      <trkpt lat="43.54146" lon="3.02">
        <ele>465</ele>
        <time>2017-04-16T10:23:39.000Z</time>
      </trkpt>
      <trkpt lat="43.5415" lon="3.01995">
        <ele>465.4</ele>
        <time>2017-04-16T10:23:42.000Z</time>
      </trkpt>
      <trkpt lat="43.54153" lon="3.01991">
        <ele>465.8</ele>
        <time>2017-04-16T10:23:44.000Z</time>
      </trkpt>
      <trkpt lat="43.54157" lon="3.01986">
        <ele>466.2</ele>
        <time>2017-04-16T10:23:47.000Z</time>
      </trkpt>
      <trkpt lat="43.5416" lon="3.01983">
        <ele>466.8</ele>
        <time>2017-04-16T10:23:49.000Z</time>
      </trkpt>
      <trkpt lat="43.54161" lon="3.01979">
        <ele>467.2</ele>
        <time>2017-04-16T10:23:51.000Z</time>
      </trkpt>
      <trkpt lat="43.54163" lon="3.01975">
        <ele>467.6</ele>
        <time>2017-04-16T10:23:53.000Z</time>
      </trkpt>
      <trkpt lat="43.54164" lon="3.01971">
        <ele>468</ele>
        <time>2017-04-16T10:23:55.000Z</time>
      </trkpt>
      <trkpt lat="43.54171" lon="3.01956">
        <ele>468.6</ele>
        <time>2017-04-16T10:24:03.000Z</time>
      </trkpt>
      <trkpt lat="43.54172" lon="3.01953">
        <ele>468.6</ele>
        <time>2017-04-16T10:24:04.000Z</time>
      </trkpt>
      <trkpt lat="43.54175" lon="3.01945">
        <ele>469</ele>
        <time>2017-04-16T10:24:08.000Z</time>
      </trkpt>
      <trkpt lat="43.54177" lon="3.0194">
        <ele>469.6</ele>
        <time>2017-04-16T10:24:10.000Z</time>
      </trkpt>
      <trkpt lat="43.5418" lon="3.01935">
        <ele>469.8</ele>
        <time>2017-04-16T10:24:12.000Z</time>
      </trkpt>
      <trkpt lat="43.5418" lon="3.01932">
        <ele>470</ele>
        <time>2017-04-16T10:24:13.000Z</time>
      </trkpt>
      <trkpt lat="43.54184" lon="3.01925">
        <ele>470.4</ele>
        <time>2017-04-16T10:24:16.000Z</time>
      </trkpt>
      <trkpt lat="43.54186" lon="3.01922">
        <ele>470.6</ele>
        <time>2017-04-16T10:24:18.000Z</time>
      </trkpt>
      <trkpt lat="43.54188" lon="3.01915">
        <ele>471</ele>
        <time>2017-04-16T10:24:22.000Z</time>
      </trkpt>
      <trkpt lat="43.54188" lon="3.01911">
        <ele>471.6</ele>
        <time>2017-04-16T10:24:24.000Z</time>
      </trkpt>
      <trkpt lat="43.54189" lon="3.01907">
        <ele>471.8</ele>
        <time>2017-04-16T10:24:26.000Z</time>
      </trkpt>
      <trkpt lat="43.54191" lon="3.01902">
        <ele>472.2</ele>
        <time>2017-04-16T10:24:28.000Z</time>
      </trkpt>
      <trkpt lat="43.54192" lon="3.019">
        <ele>472.6</ele>
        <time>2017-04-16T10:24:29.000Z</time>
      </trkpt>
      <trkpt lat="43.54193" lon="3.01898">
        <ele>472.8</ele>
        <time>2017-04-16T10:24:30.000Z</time>
      </trkpt>
      <trkpt lat="43.54193" lon="3.01896">
        <ele>473.2</ele>
        <time>2017-04-16T10:24:31.000Z</time>
      </trkpt>
      <trkpt lat="43.54193" lon="3.01892">
        <ele>473.6</ele>
        <time>2017-04-16T10:24:33.000Z</time>
      </trkpt>
      <trkpt lat="43.54193" lon="3.0189">
        <ele>473.8</ele>
        <time>2017-04-16T10:24:34.000Z</time>
      </trkpt>
      <trkpt lat="43.54193" lon="3.01887">
        <ele>474</ele>
        <time>2017-04-16T10:24:35.000Z</time>
      </trkpt>
      <trkpt lat="43.54193" lon="3.01882">
        <ele>474.4</ele>
        <time>2017-04-16T10:24:37.000Z</time>
      </trkpt>
      <trkpt lat="43.54195" lon="3.01877">
        <ele>474.6</ele>
        <time>2017-04-16T10:24:39.000Z</time>
      </trkpt>
      <trkpt lat="43.542" lon="3.01864">
        <ele>475.2</ele>
        <time>2017-04-16T10:24:45.000Z</time>
      </trkpt>
      <trkpt lat="43.54203" lon="3.01859">
        <ele>475.4</ele>
        <time>2017-04-16T10:24:47.000Z</time>
      </trkpt>
      <trkpt lat="43.54205" lon="3.01853">
        <ele>476</ele>
        <time>2017-04-16T10:24:49.000Z</time>
      </trkpt>
      <trkpt lat="43.54208" lon="3.01847">
        <ele>476.2</ele>
        <time>2017-04-16T10:24:51.000Z</time>
      </trkpt>
      <trkpt lat="43.5421" lon="3.01842">
        <ele>476.6</ele>
        <time>2017-04-16T10:24:53.000Z</time>
      </trkpt>
      <trkpt lat="43.54212" lon="3.01837">
        <ele>476.8</ele>
        <time>2017-04-16T10:24:55.000Z</time>
      </trkpt>
      <trkpt lat="43.54215" lon="3.01832">
        <ele>477</ele>
        <time>2017-04-16T10:24:57.000Z</time>
      </trkpt>
      <trkpt lat="43.54218" lon="3.01828">
        <ele>477.4</ele>
        <time>2017-04-16T10:24:59.000Z</time>
      </trkpt>
      <trkpt lat="43.54219" lon="3.01823">
        <ele>477.8</ele>
        <time>2017-04-16T10:25:01.000Z</time>
      </trkpt>
      <trkpt lat="43.54221" lon="3.01818">
        <ele>478.2</ele>
        <time>2017-04-16T10:25:03.000Z</time>
      </trkpt>
      <trkpt lat="43.54224" lon="3.01814">
        <ele>478.6</ele>
        <time>2017-04-16T10:25:05.000Z</time>
      </trkpt>
      <trkpt lat="43.54226" lon="3.01811">
        <ele>478.8</ele>
        <time>2017-04-16T10:25:07.000Z</time>
      </trkpt>
      <trkpt lat="43.54229" lon="3.01807">
        <ele>479.2</ele>
        <time>2017-04-16T10:25:09.000Z</time>
      </trkpt>
      <trkpt lat="43.5423" lon="3.01805">
        <ele>479.4</ele>
        <time>2017-04-16T10:25:10.000Z</time>
      </trkpt>
      <trkpt lat="43.54234" lon="3.01799">
        <ele>480.2</ele>
        <time>2017-04-16T10:25:13.000Z</time>
      </trkpt>
      <trkpt lat="43.54237" lon="3.01796">
        <ele>480.4</ele>
        <time>2017-04-16T10:25:15.000Z</time>
      </trkpt>
      <trkpt lat="43.54239" lon="3.01794">
        <ele>480.6</ele>
        <time>2017-04-16T10:25:16.000Z</time>
      </trkpt>
      <trkpt lat="43.54243" lon="3.0178">
        <ele>481.4</ele>
        <time>2017-04-16T10:25:22.000Z</time>
      </trkpt>
      <trkpt lat="43.54243" lon="3.01777">
        <ele>481.6</ele>
        <time>2017-04-16T10:25:23.000Z</time>
      </trkpt>
      <trkpt lat="43.54243" lon="3.01769">
        <ele>482.2</ele>
        <time>2017-04-16T10:25:26.000Z</time>
      </trkpt>
      <trkpt lat="43.54243" lon="3.01767">
        <ele>482.4</ele>
        <time>2017-04-16T10:25:27.000Z</time>
      </trkpt>
      <trkpt lat="43.54243" lon="3.01764">
        <ele>482.6</ele>
        <time>2017-04-16T10:25:28.000Z</time>
      </trkpt>
      <trkpt lat="43.54245" lon="3.0176">
        <ele>482.8</ele>
        <time>2017-04-16T10:25:30.000Z</time>
      </trkpt>
      <trkpt lat="43.54248" lon="3.01745">
        <ele>483.6</ele>
        <time>2017-04-16T10:25:36.000Z</time>
      </trkpt>
      <trkpt lat="43.54249" lon="3.0174">
        <ele>484</ele>
        <time>2017-04-16T10:25:38.000Z</time>
      </trkpt>
      <trkpt lat="43.5425" lon="3.01735">
        <ele>484.4</ele>
        <time>2017-04-16T10:25:40.000Z</time>
      </trkpt>
      <trkpt lat="43.54252" lon="3.0173">
        <ele>484.8</ele>
        <time>2017-04-16T10:25:42.000Z</time>
      </trkpt>
      <trkpt lat="43.54254" lon="3.01726">
        <ele>485</ele>
        <time>2017-04-16T10:25:44.000Z</time>
      </trkpt>
      <trkpt lat="43.54261" lon="3.01707">
        <ele>485.8</ele>
        <time>2017-04-16T10:25:51.000Z</time>
      </trkpt>
      <trkpt lat="43.54262" lon="3.01704">
        <ele>486</ele>
        <time>2017-04-16T10:25:52.000Z</time>
      </trkpt>
      <trkpt lat="43.54263" lon="3.01702">
        <ele>486.2</ele>
        <time>2017-04-16T10:25:53.000Z</time>
      </trkpt>
      <trkpt lat="43.54266" lon="3.01697">
        <ele>486.6</ele>
        <time>2017-04-16T10:25:55.000Z</time>
      </trkpt>
      <trkpt lat="43.5427" lon="3.01693">
        <ele>487</ele>
        <time>2017-04-16T10:25:57.000Z</time>
      </trkpt>
      <trkpt lat="43.54273" lon="3.01689">
        <ele>487.2</ele>
        <time>2017-04-16T10:25:59.000Z</time>
      </trkpt>
      <trkpt lat="43.54275" lon="3.01686">
        <ele>487.2</ele>
        <time>2017-04-16T10:26:00.000Z</time>
      </trkpt>
      <trkpt lat="43.54288" lon="3.01682">
        <ele>487.8</ele>
        <time>2017-04-16T10:26:06.000Z</time>
      </trkpt>
      <trkpt lat="43.5429" lon="3.01684">
        <ele>488</ele>
        <time>2017-04-16T10:26:07.000Z</time>
      </trkpt>
      <trkpt lat="43.54294" lon="3.01691">
        <ele>488.4</ele>
        <time>2017-04-16T10:26:09.000Z</time>
      </trkpt>
      <trkpt lat="43.54295" lon="3.01694">
        <ele>488.6</ele>
        <time>2017-04-16T10:26:10.000Z</time>
      </trkpt>
      <trkpt lat="43.54296" lon="3.01707">
        <ele>489.2</ele>
        <time>2017-04-16T10:26:13.000Z</time>
      </trkpt>
      <trkpt lat="43.54295" lon="3.01715">
        <ele>489.4</ele>
        <time>2017-04-16T10:26:15.000Z</time>
      </trkpt>
      <trkpt lat="43.54293" lon="3.01731">
        <ele>489.8</ele>
        <time>2017-04-16T10:26:20.000Z</time>
      </trkpt>
      <trkpt lat="43.54292" lon="3.01733">
        <ele>489.8</ele>
        <time>2017-04-16T10:26:21.000Z</time>
      </trkpt>
      <trkpt lat="43.54295" lon="3.01746">
        <ele>490</ele>
        <time>2017-04-16T10:26:26.000Z</time>
      </trkpt>
      <trkpt lat="43.54296" lon="3.01749">
        <ele>490</ele>
        <time>2017-04-16T10:26:27.000Z</time>
      </trkpt>
      <trkpt lat="43.54299" lon="3.01758">
        <ele>490.4</ele>
        <time>2017-04-16T10:26:30.000Z</time>
      </trkpt>
      <trkpt lat="43.54301" lon="3.01766">
        <ele>490.8</ele>
        <time>2017-04-16T10:26:32.000Z</time>
      </trkpt>
      <trkpt lat="43.54306" lon="3.01774">
        <ele>491.2</ele>
        <time>2017-04-16T10:26:34.000Z</time>
      </trkpt>
      <trkpt lat="43.54309" lon="3.01777">
        <ele>491.2</ele>
        <time>2017-04-16T10:26:35.000Z</time>
      </trkpt>
      <trkpt lat="43.54311" lon="3.0178">
        <ele>491.4</ele>
        <time>2017-04-16T10:26:36.000Z</time>
      </trkpt>
      <trkpt lat="43.54317" lon="3.01783">
        <ele>491.6</ele>
        <time>2017-04-16T10:26:38.000Z</time>
      </trkpt>
      <trkpt lat="43.54334" lon="3.01784">
        <ele>492</ele>
        <time>2017-04-16T10:26:43.000Z</time>
      </trkpt>
      <trkpt lat="43.5435" lon="3.0178">
        <ele>492.2</ele>
        <time>2017-04-16T10:26:48.000Z</time>
      </trkpt>
      <trkpt lat="43.5436" lon="3.01771">
        <ele>492.4</ele>
        <time>2017-04-16T10:26:52.000Z</time>
      </trkpt>
      <trkpt lat="43.5437" lon="3.01761">
        <ele>492.4</ele>
        <time>2017-04-16T10:26:56.000Z</time>
      </trkpt>
      <trkpt lat="43.54383" lon="3.01747">
        <ele>492.4</ele>
        <time>2017-04-16T10:27:00.000Z</time>
      </trkpt>
      <trkpt lat="43.54399" lon="3.0175">
        <ele>492.4</ele>
        <time>2017-04-16T10:27:04.000Z</time>
      </trkpt>
      <trkpt lat="43.54403" lon="3.0176">
        <ele>492.4</ele>
        <time>2017-04-16T10:27:06.000Z</time>
      </trkpt>
      <trkpt lat="43.54409" lon="3.01801">
        <ele>492.4</ele>
        <time>2017-04-16T10:27:13.000Z</time>
      </trkpt>
      <trkpt lat="43.54417" lon="3.01826">
        <ele>492.6</ele>
        <time>2017-04-16T10:27:18.000Z</time>
      </trkpt>
      <trkpt lat="43.54429" lon="3.01843">
        <ele>492.8</ele>
        <time>2017-04-16T10:27:23.000Z</time>
      </trkpt>
      <trkpt lat="43.54438" lon="3.01848">
        <ele>493.2</ele>
        <time>2017-04-16T10:27:25.000Z</time>
      </trkpt>
      <trkpt lat="43.54448" lon="3.01853">
        <ele>493.4</ele>
        <time>2017-04-16T10:27:27.000Z</time>
      </trkpt>
      <trkpt lat="43.54453" lon="3.01855">
        <ele>493.6</ele>
        <time>2017-04-16T10:27:28.000Z</time>
      </trkpt>
      <trkpt lat="43.54457" lon="3.01857">
        <ele>493.6</ele>
        <time>2017-04-16T10:27:29.000Z</time>
      </trkpt>
      <trkpt lat="43.54464" lon="3.0186">
        <ele>493.8</ele>
        <time>2017-04-16T10:27:31.000Z</time>
      </trkpt>
      <trkpt lat="43.5448" lon="3.01864">
        <ele>494.2</ele>
        <time>2017-04-16T10:27:36.000Z</time>
      </trkpt>
      <trkpt lat="43.54484" lon="3.01864">
        <ele>494.2</ele>
        <time>2017-04-16T10:27:37.000Z</time>
      </trkpt>
      <trkpt lat="43.54505" lon="3.01861">
        <ele>494.4</ele>
        <time>2017-04-16T10:27:42.000Z</time>
      </trkpt>
      <trkpt lat="43.54509" lon="3.01865">
        <ele>494.6</ele>
        <time>2017-04-16T10:27:45.000Z</time>
      </trkpt>
      <trkpt lat="43.54504" lon="3.01876">
        <ele>494.6</ele>
        <time>2017-04-16T10:27:48.000Z</time>
      </trkpt>
      <trkpt lat="43.54489" lon="3.01906">
        <ele>494.6</ele>
        <time>2017-04-16T10:27:55.000Z</time>
      </trkpt>
      <trkpt lat="43.54487" lon="3.01909">
        <ele>494.8</ele>
        <time>2017-04-16T10:27:56.000Z</time>
      </trkpt>
      <trkpt lat="43.54485" lon="3.01915">
        <ele>495.2</ele>
        <time>2017-04-16T10:27:58.000Z</time>
      </trkpt>
      <trkpt lat="43.54483" lon="3.01921">
        <ele>495.6</ele>
        <time>2017-04-16T10:28:00.000Z</time>
      </trkpt>
      <trkpt lat="43.54481" lon="3.01926">
        <ele>495.8</ele>
        <time>2017-04-16T10:28:02.000Z</time>
      </trkpt>
      <trkpt lat="43.5448" lon="3.01933">
        <ele>496</ele>
        <time>2017-04-16T10:28:04.000Z</time>
      </trkpt>
      <trkpt lat="43.54475" lon="3.01944">
        <ele>496.2</ele>
        <time>2017-04-16T10:28:08.000Z</time>
      </trkpt>
      <trkpt lat="43.54462" lon="3.01965">
        <ele>496.6</ele>
        <time>2017-04-16T10:28:15.000Z</time>
      </trkpt>
      <trkpt lat="43.54457" lon="3.01974">
        <ele>496.8</ele>
        <time>2017-04-16T10:28:18.000Z</time>
      </trkpt>
      <trkpt lat="43.54456" lon="3.01981">
        <ele>497.2</ele>
        <time>2017-04-16T10:28:20.000Z</time>
      </trkpt>
      <trkpt lat="43.54457" lon="3.01989">
        <ele>497.6</ele>
        <time>2017-04-16T10:28:22.000Z</time>
      </trkpt>
      <trkpt lat="43.54461" lon="3.01998">
        <ele>497.8</ele>
        <time>2017-04-16T10:28:24.000Z</time>
      </trkpt>
      <trkpt lat="43.54465" lon="3.02008">
        <ele>498</ele>
        <time>2017-04-16T10:28:26.000Z</time>
      </trkpt>
      <trkpt lat="43.54468" lon="3.02016">
        <ele>498.4</ele>
        <time>2017-04-16T10:28:28.000Z</time>
      </trkpt>
      <trkpt lat="43.54471" lon="3.02019">
        <ele>498.6</ele>
        <time>2017-04-16T10:28:29.000Z</time>
      </trkpt>
      <trkpt lat="43.54479" lon="3.02025">
        <ele>499.2</ele>
        <time>2017-04-16T10:28:32.000Z</time>
      </trkpt>
      <trkpt lat="43.54485" lon="3.02026">
        <ele>499.6</ele>
        <time>2017-04-16T10:28:34.000Z</time>
      </trkpt>
      <trkpt lat="43.54491" lon="3.02023">
        <ele>499.8</ele>
        <time>2017-04-16T10:28:36.000Z</time>
      </trkpt>
      <trkpt lat="43.54495" lon="3.0202">
        <ele>500.2</ele>
        <time>2017-04-16T10:28:37.000Z</time>
      </trkpt>
      <trkpt lat="43.54498" lon="3.02017">
        <ele>500.4</ele>
        <time>2017-04-16T10:28:38.000Z</time>
      </trkpt>
      <trkpt lat="43.545" lon="3.02014">
        <ele>500.8</ele>
        <time>2017-04-16T10:28:39.000Z</time>
      </trkpt>
      <trkpt lat="43.54504" lon="3.02008">
        <ele>501.2</ele>
        <time>2017-04-16T10:28:41.000Z</time>
      </trkpt>
      <trkpt lat="43.54508" lon="3.02003">
        <ele>501.6</ele>
        <time>2017-04-16T10:28:43.000Z</time>
      </trkpt>
      <trkpt lat="43.54511" lon="3.01996">
        <ele>501.8</ele>
        <time>2017-04-16T10:28:45.000Z</time>
      </trkpt>
      <trkpt lat="43.54521" lon="3.01976">
        <ele>502.4</ele>
        <time>2017-04-16T10:28:51.000Z</time>
      </trkpt>
      <trkpt lat="43.54534" lon="3.01962">
        <ele>502.8</ele>
        <time>2017-04-16T10:28:57.000Z</time>
      </trkpt>
      <trkpt lat="43.54537" lon="3.01956">
        <ele>503</ele>
        <time>2017-04-16T10:28:59.000Z</time>
      </trkpt>
      <trkpt lat="43.54539" lon="3.0195">
        <ele>503.6</ele>
        <time>2017-04-16T10:29:01.000Z</time>
      </trkpt>
      <trkpt lat="43.54541" lon="3.01944">
        <ele>504</ele>
        <time>2017-04-16T10:29:03.000Z</time>
      </trkpt>
      <trkpt lat="43.54542" lon="3.0194">
        <ele>504</ele>
        <time>2017-04-16T10:29:04.000Z</time>
      </trkpt>
      <trkpt lat="43.54544" lon="3.01937">
        <ele>504.2</ele>
        <time>2017-04-16T10:29:05.000Z</time>
      </trkpt>
      <trkpt lat="43.54548" lon="3.01931">
        <ele>504.4</ele>
        <time>2017-04-16T10:29:07.000Z</time>
      </trkpt>
      <trkpt lat="43.54551" lon="3.01928">
        <ele>504.6</ele>
        <time>2017-04-16T10:29:08.000Z</time>
      </trkpt>
      <trkpt lat="43.54554" lon="3.01923">
        <ele>505</ele>
        <time>2017-04-16T10:29:10.000Z</time>
      </trkpt>
      <trkpt lat="43.54557" lon="3.01918">
        <ele>505.4</ele>
        <time>2017-04-16T10:29:12.000Z</time>
      </trkpt>
      <trkpt lat="43.5456" lon="3.01912">
        <ele>506</ele>
        <time>2017-04-16T10:29:14.000Z</time>
      </trkpt>
      <trkpt lat="43.54563" lon="3.01907">
        <ele>506.2</ele>
        <time>2017-04-16T10:29:16.000Z</time>
      </trkpt>
      <trkpt lat="43.54566" lon="3.01901">
        <ele>506.6</ele>
        <time>2017-04-16T10:29:18.000Z</time>
      </trkpt>
      <trkpt lat="43.5457" lon="3.01892">
        <ele>507</ele>
        <time>2017-04-16T10:29:21.000Z</time>
      </trkpt>
      <trkpt lat="43.54571" lon="3.01886">
        <ele>507.6</ele>
        <time>2017-04-16T10:29:23.000Z</time>
      </trkpt>
      <trkpt lat="43.54573" lon="3.0188">
        <ele>508</ele>
        <time>2017-04-16T10:29:25.000Z</time>
      </trkpt>
      <trkpt lat="43.54573" lon="3.01877">
        <ele>508.2</ele>
        <time>2017-04-16T10:29:26.000Z</time>
      </trkpt>
      <trkpt lat="43.54575" lon="3.01868">
        <ele>508.6</ele>
        <time>2017-04-16T10:29:29.000Z</time>
      </trkpt>
      <trkpt lat="43.54575" lon="3.01865">
        <ele>509</ele>
        <time>2017-04-16T10:29:30.000Z</time>
      </trkpt>
      <trkpt lat="43.54575" lon="3.01859">
        <ele>509.6</ele>
        <time>2017-04-16T10:29:32.000Z</time>
      </trkpt>
      <trkpt lat="43.54575" lon="3.01854">
        <ele>510</ele>
        <time>2017-04-16T10:29:34.000Z</time>
      </trkpt>
      <trkpt lat="43.54575" lon="3.01848">
        <ele>510.4</ele>
        <time>2017-04-16T10:29:36.000Z</time>
      </trkpt>
      <trkpt lat="43.54575" lon="3.01843">
        <ele>510.6</ele>
        <time>2017-04-16T10:29:38.000Z</time>
      </trkpt>
      <trkpt lat="43.54576" lon="3.01831">
        <ele>511</ele>
        <time>2017-04-16T10:29:42.000Z</time>
      </trkpt>
      <trkpt lat="43.54577" lon="3.01823">
        <ele>511.8</ele>
        <time>2017-04-16T10:29:45.000Z</time>
      </trkpt>
      <trkpt lat="43.54577" lon="3.01817">
        <ele>512.2</ele>
        <time>2017-04-16T10:29:47.000Z</time>
      </trkpt>
      <trkpt lat="43.54578" lon="3.01811">
        <ele>512.6</ele>
        <time>2017-04-16T10:29:49.000Z</time>
      </trkpt>
      <trkpt lat="43.54579" lon="3.01806">
        <ele>512.8</ele>
        <time>2017-04-16T10:29:51.000Z</time>
      </trkpt>
      <trkpt lat="43.54583" lon="3.01799">
        <ele>513.4</ele>
        <time>2017-04-16T10:29:54.000Z</time>
      </trkpt>
      <trkpt lat="43.54586" lon="3.01795">
        <ele>514</ele>
        <time>2017-04-16T10:29:56.000Z</time>
      </trkpt>
      <trkpt lat="43.54589" lon="3.01793">
        <ele>514.4</ele>
        <time>2017-04-16T10:29:58.000Z</time>
      </trkpt>
      <trkpt lat="43.54593" lon="3.01791">
        <ele>514.6</ele>
        <time>2017-04-16T10:30:00.000Z</time>
      </trkpt>
      <trkpt lat="43.54597" lon="3.01792">
        <ele>515</ele>
        <time>2017-04-16T10:30:02.000Z</time>
      </trkpt>
      <trkpt lat="43.54609" lon="3.01798">
        <ele>515.4</ele>
        <time>2017-04-16T10:30:06.000Z</time>
      </trkpt>
      <trkpt lat="43.54622" lon="3.0182">
        <ele>515.6</ele>
        <time>2017-04-16T10:30:11.000Z</time>
      </trkpt>
      <trkpt lat="43.54632" lon="3.01841">
        <ele>515.8</ele>
        <time>2017-04-16T10:30:15.000Z</time>
      </trkpt>
      <trkpt lat="43.54639" lon="3.01856">
        <ele>515.8</ele>
        <time>2017-04-16T10:30:18.000Z</time>
      </trkpt>
      <trkpt lat="43.54664" lon="3.01893">
        <ele>516</ele>
        <time>2017-04-16T10:30:26.000Z</time>
      </trkpt>
      <trkpt lat="43.54667" lon="3.01897">
        <ele>516</ele>
        <time>2017-04-16T10:30:27.000Z</time>
      </trkpt>
      <trkpt lat="43.54689" lon="3.01921">
        <ele>516</ele>
        <time>2017-04-16T10:30:34.000Z</time>
      </trkpt>
      <trkpt lat="43.54709" lon="3.01929">
        <ele>516</ele>
        <time>2017-04-16T10:30:40.000Z</time>
      </trkpt>
      <trkpt lat="43.54724" lon="3.0193">
        <ele>516</ele>
        <time>2017-04-16T10:30:45.000Z</time>
      </trkpt>
      <trkpt lat="43.54737" lon="3.01932">
        <ele>516</ele>
        <time>2017-04-16T10:30:50.000Z</time>
      </trkpt>
      <trkpt lat="43.54752" lon="3.01938">
        <ele>516</ele>
        <time>2017-04-16T10:30:55.000Z</time>
      </trkpt>
      <trkpt lat="43.54756" lon="3.0194">
        <ele>516</ele>
        <time>2017-04-16T10:30:56.000Z</time>
      </trkpt>
      <trkpt lat="43.54764" lon="3.01957">
        <ele>516</ele>
        <time>2017-04-16T10:31:00.000Z</time>
      </trkpt>
      <trkpt lat="43.54764" lon="3.01979">
        <ele>516</ele>
        <time>2017-04-16T10:31:03.000Z</time>
      </trkpt>
      <trkpt lat="43.54748" lon="3.0202">
        <ele>516</ele>
        <time>2017-04-16T10:31:08.000Z</time>
      </trkpt>
      <trkpt lat="43.54743" lon="3.02033">
        <ele>516</ele>
        <time>2017-04-16T10:31:09.000Z</time>
      </trkpt>
      <trkpt lat="43.5474" lon="3.0205">
        <ele>515.8</ele>
        <time>2017-04-16T10:31:11.000Z</time>
      </trkpt>
      <trkpt lat="43.54737" lon="3.02071">
        <ele>515.2</ele>
        <time>2017-04-16T10:31:13.000Z</time>
      </trkpt>
      <trkpt lat="43.54735" lon="3.02082">
        <ele>515</ele>
        <time>2017-04-16T10:31:14.000Z</time>
      </trkpt>
      <trkpt lat="43.54735" lon="3.02094">
        <ele>514.6</ele>
        <time>2017-04-16T10:31:15.000Z</time>
      </trkpt>
      <trkpt lat="43.54737" lon="3.02119">
        <ele>513.6</ele>
        <time>2017-04-16T10:31:17.000Z</time>
      </trkpt>
      <trkpt lat="43.5474" lon="3.02147">
        <ele>512.2</ele>
        <time>2017-04-16T10:31:19.000Z</time>
      </trkpt>
      <trkpt lat="43.54742" lon="3.02163">
        <ele>511.6</ele>
        <time>2017-04-16T10:31:20.000Z</time>
      </trkpt>
      <trkpt lat="43.54745" lon="3.02193">
        <ele>510.4</ele>
        <time>2017-04-16T10:31:22.000Z</time>
      </trkpt>
      <trkpt lat="43.54748" lon="3.02207">
        <ele>509.6</ele>
        <time>2017-04-16T10:31:23.000Z</time>
      </trkpt>
      <trkpt lat="43.54757" lon="3.02248">
        <ele>506.8</ele>
        <time>2017-04-16T10:31:26.000Z</time>
      </trkpt>
      <trkpt lat="43.54771" lon="3.02268">
        <ele>504.8</ele>
        <time>2017-04-16T10:31:28.000Z</time>
      </trkpt>
      <trkpt lat="43.54787" lon="3.02284">
        <ele>502.8</ele>
        <time>2017-04-16T10:31:30.000Z</time>
      </trkpt>
      <trkpt lat="43.54796" lon="3.0229">
        <ele>501.8</ele>
        <time>2017-04-16T10:31:31.000Z</time>
      </trkpt>
      <trkpt lat="43.54805" lon="3.02295">
        <ele>500.8</ele>
        <time>2017-04-16T10:31:32.000Z</time>
      </trkpt>
      <trkpt lat="43.54813" lon="3.02299">
        <ele>500</ele>
        <time>2017-04-16T10:31:33.000Z</time>
      </trkpt>
      <trkpt lat="43.54821" lon="3.02303">
        <ele>499.2</ele>
        <time>2017-04-16T10:31:34.000Z</time>
      </trkpt>
      <trkpt lat="43.5484" lon="3.02316">
        <ele>497.4</ele>
        <time>2017-04-16T10:31:37.000Z</time>
      </trkpt>
      <trkpt lat="43.54848" lon="3.02322">
        <ele>496.6</ele>
        <time>2017-04-16T10:31:38.000Z</time>
      </trkpt>
      <trkpt lat="43.54857" lon="3.02327">
        <ele>496</ele>
        <time>2017-04-16T10:31:39.000Z</time>
      </trkpt>
      <trkpt lat="43.54867" lon="3.02331">
        <ele>495.4</ele>
        <time>2017-04-16T10:31:40.000Z</time>
      </trkpt>
      <trkpt lat="43.54878" lon="3.02335">
        <ele>494.6</ele>
        <time>2017-04-16T10:31:41.000Z</time>
      </trkpt>
      <trkpt lat="43.54891" lon="3.0234">
        <ele>493.8</ele>
        <time>2017-04-16T10:31:42.000Z</time>
      </trkpt>
      <trkpt lat="43.54901" lon="3.02348">
        <ele>493.2</ele>
        <time>2017-04-16T10:31:43.000Z</time>
      </trkpt>
      <trkpt lat="43.54911" lon="3.02357">
        <ele>492.2</ele>
        <time>2017-04-16T10:31:44.000Z</time>
      </trkpt>
      <trkpt lat="43.5492" lon="3.02366">
        <ele>491.4</ele>
        <time>2017-04-16T10:31:45.000Z</time>
      </trkpt>
      <trkpt lat="43.54929" lon="3.02374">
        <ele>490.4</ele>
        <time>2017-04-16T10:31:46.000Z</time>
      </trkpt>
      <trkpt lat="43.54938" lon="3.02381">
        <ele>489.4</ele>
        <time>2017-04-16T10:31:47.000Z</time>
      </trkpt>
      <trkpt lat="43.54959" lon="3.02408">
        <ele>485.8</ele>
        <time>2017-04-16T10:31:50.000Z</time>
      </trkpt>
      <trkpt lat="43.5497" lon="3.02431">
        <ele>483</ele>
        <time>2017-04-16T10:31:52.000Z</time>
      </trkpt>
      <trkpt lat="43.54977" lon="3.0244">
        <ele>481.8</ele>
        <time>2017-04-16T10:31:53.000Z</time>
      </trkpt>
      <trkpt lat="43.54986" lon="3.02448">
        <ele>480.4</ele>
        <time>2017-04-16T10:31:54.000Z</time>
      </trkpt>
      <trkpt lat="43.55005" lon="3.0246">
        <ele>477.6</ele>
        <time>2017-04-16T10:31:56.000Z</time>
      </trkpt>
      <trkpt lat="43.55014" lon="3.02465">
        <ele>476.4</ele>
        <time>2017-04-16T10:31:57.000Z</time>
      </trkpt>
      <trkpt lat="43.55022" lon="3.0247">
        <ele>474.8</ele>
        <time>2017-04-16T10:31:58.000Z</time>
      </trkpt>
      <trkpt lat="43.55035" lon="3.02484">
        <ele>472.2</ele>
        <time>2017-04-16T10:32:00.000Z</time>
      </trkpt>
      <trkpt lat="43.55042" lon="3.02507">
        <ele>469.4</ele>
        <time>2017-04-16T10:32:02.000Z</time>
      </trkpt>
      <trkpt lat="43.55045" lon="3.02533">
        <ele>466.6</ele>
        <time>2017-04-16T10:32:04.000Z</time>
      </trkpt>
      <trkpt lat="43.55044" lon="3.02545">
        <ele>465.4</ele>
        <time>2017-04-16T10:32:05.000Z</time>
      </trkpt>
      <trkpt lat="43.55039" lon="3.02577">
        <ele>462.2</ele>
        <time>2017-04-16T10:32:08.000Z</time>
      </trkpt>
      <trkpt lat="43.55037" lon="3.02594">
        <ele>460.6</ele>
        <time>2017-04-16T10:32:10.000Z</time>
      </trkpt>
      <trkpt lat="43.55035" lon="3.02608">
        <ele>459.4</ele>
        <time>2017-04-16T10:32:12.000Z</time>
      </trkpt>
      <trkpt lat="43.55034" lon="3.02614">
        <ele>458.8</ele>
        <time>2017-04-16T10:32:13.000Z</time>
      </trkpt>
      <trkpt lat="43.55035" lon="3.02632">
        <ele>457.4</ele>
        <time>2017-04-16T10:32:16.000Z</time>
      </trkpt>
      <trkpt lat="43.55041" lon="3.02665">
        <ele>455.8</ele>
        <time>2017-04-16T10:32:22.000Z</time>
      </trkpt>
      <trkpt lat="43.55043" lon="3.02682">
        <ele>455.4</ele>
        <time>2017-04-16T10:32:26.000Z</time>
      </trkpt>
      <trkpt lat="43.55045" lon="3.02689">
        <ele>455.4</ele>
        <time>2017-04-16T10:32:28.000Z</time>
      </trkpt>
      <trkpt lat="43.55049" lon="3.02693">
        <ele>455.6</ele>
        <time>2017-04-16T10:32:30.000Z</time>
      </trkpt>
      <trkpt lat="43.5505" lon="3.02695">
        <ele>455.6</ele>
        <time>2017-04-16T10:32:31.000Z</time>
      </trkpt>
      <trkpt lat="43.55051" lon="3.02697">
        <ele>455.6</ele>
        <time>2017-04-16T10:32:32.000Z</time>
      </trkpt>
      <trkpt lat="43.55051" lon="3.02703">
        <ele>455.8</ele>
        <time>2017-04-16T10:32:34.000Z</time>
      </trkpt>
      <trkpt lat="43.55051" lon="3.02707">
        <ele>456</ele>
        <time>2017-04-16T10:32:35.000Z</time>
      </trkpt>
      <trkpt lat="43.55052" lon="3.02713">
        <ele>456.4</ele>
        <time>2017-04-16T10:32:37.000Z</time>
      </trkpt>
      <trkpt lat="43.55053" lon="3.02718">
        <ele>456.8</ele>
        <time>2017-04-16T10:32:39.000Z</time>
      </trkpt>
      <trkpt lat="43.55053" lon="3.0272">
        <ele>456.8</ele>
        <time>2017-04-16T10:32:40.000Z</time>
      </trkpt>
      <trkpt lat="43.55054" lon="3.02721">
        <ele>457</ele>
        <time>2017-04-16T10:32:41.000Z</time>
      </trkpt>
      <trkpt lat="43.55057" lon="3.02721">
        <ele>457.2</ele>
        <time>2017-04-16T10:32:43.000Z</time>
      </trkpt>
      <trkpt lat="43.55059" lon="3.02721">
        <ele>457.2</ele>
        <time>2017-04-16T10:32:44.000Z</time>
      </trkpt>
      <trkpt lat="43.55062" lon="3.02722">
        <ele>457.6</ele>
        <time>2017-04-16T10:32:45.000Z</time>
      </trkpt>
      <trkpt lat="43.55064" lon="3.02723">
        <ele>457.8</ele>
        <time>2017-04-16T10:32:46.000Z</time>
      </trkpt>
      <trkpt lat="43.55066" lon="3.02724">
        <ele>458</ele>
        <time>2017-04-16T10:32:47.000Z</time>
      </trkpt>
      <trkpt lat="43.55068" lon="3.02727">
        <ele>458.4</ele>
        <time>2017-04-16T10:32:49.000Z</time>
      </trkpt>
      <trkpt lat="43.55071" lon="3.0273">
        <ele>458.8</ele>
        <time>2017-04-16T10:32:51.000Z</time>
      </trkpt>
      <trkpt lat="43.55073" lon="3.02734">
        <ele>459.2</ele>
        <time>2017-04-16T10:32:53.000Z</time>
      </trkpt>
      <trkpt lat="43.55083" lon="3.02743">
        <ele>459.8</ele>
        <time>2017-04-16T10:32:58.000Z</time>
      </trkpt>
      <trkpt lat="43.55091" lon="3.02748">
        <ele>460.2</ele>
        <time>2017-04-16T10:33:00.000Z</time>
      </trkpt>
      <trkpt lat="43.55096" lon="3.02752">
        <ele>460.6</ele>
        <time>2017-04-16T10:33:02.000Z</time>
      </trkpt>
      <trkpt lat="43.55098" lon="3.02758">
        <ele>461</ele>
        <time>2017-04-16T10:33:04.000Z</time>
      </trkpt>
      <trkpt lat="43.551" lon="3.02763">
        <ele>461.2</ele>
        <time>2017-04-16T10:33:06.000Z</time>
      </trkpt>
      <trkpt lat="43.55101" lon="3.02764">
        <ele>461.6</ele>
        <time>2017-04-16T10:33:07.000Z</time>
      </trkpt>
      <trkpt lat="43.55102" lon="3.02765">
        <ele>461.8</ele>
        <time>2017-04-16T10:33:08.000Z</time>
      </trkpt>
      <trkpt lat="43.55103" lon="3.0277">
        <ele>462.4</ele>
        <time>2017-04-16T10:33:11.000Z</time>
      </trkpt>
      <trkpt lat="43.55104" lon="3.02774">
        <ele>462.8</ele>
        <time>2017-04-16T10:33:13.000Z</time>
      </trkpt>
      <trkpt lat="43.55105" lon="3.0278">
        <ele>463.2</ele>
        <time>2017-04-16T10:33:15.000Z</time>
      </trkpt>
      <trkpt lat="43.55105" lon="3.02787">
        <ele>463.6</ele>
        <time>2017-04-16T10:33:18.000Z</time>
      </trkpt>
      <trkpt lat="43.55105" lon="3.02791">
        <ele>464.2</ele>
        <time>2017-04-16T10:33:20.000Z</time>
      </trkpt>
      <trkpt lat="43.55105" lon="3.02797">
        <ele>464.6</ele>
        <time>2017-04-16T10:33:22.000Z</time>
      </trkpt>
      <trkpt lat="43.55105" lon="3.02804">
        <ele>465</ele>
        <time>2017-04-16T10:33:24.000Z</time>
      </trkpt>
      <trkpt lat="43.55106" lon="3.0281">
        <ele>465.2</ele>
        <time>2017-04-16T10:33:26.000Z</time>
      </trkpt>
      <trkpt lat="43.55107" lon="3.02813">
        <ele>465.4</ele>
        <time>2017-04-16T10:33:27.000Z</time>
      </trkpt>
      <trkpt lat="43.5511" lon="3.02833">
        <ele>465.8</ele>
        <time>2017-04-16T10:33:33.000Z</time>
      </trkpt>
      <trkpt lat="43.5511" lon="3.02836">
        <ele>466</ele>
        <time>2017-04-16T10:33:34.000Z</time>
      </trkpt>
      <trkpt lat="43.5511" lon="3.02838">
        <ele>466.4</ele>
        <time>2017-04-16T10:33:35.000Z</time>
      </trkpt>
      <trkpt lat="43.55111" lon="3.0284">
        <ele>466.6</ele>
        <time>2017-04-16T10:33:36.000Z</time>
      </trkpt>
      <trkpt lat="43.55112" lon="3.02844">
        <ele>466.8</ele>
        <time>2017-04-16T10:33:38.000Z</time>
      </trkpt>
      <trkpt lat="43.55113" lon="3.02848">
        <ele>467.2</ele>
        <time>2017-04-16T10:33:40.000Z</time>
      </trkpt>
      <trkpt lat="43.55116" lon="3.02853">
        <ele>467.4</ele>
        <time>2017-04-16T10:33:42.000Z</time>
      </trkpt>
      <trkpt lat="43.55119" lon="3.02857">
        <ele>467.8</ele>
        <time>2017-04-16T10:33:43.000Z</time>
      </trkpt>
      <trkpt lat="43.55121" lon="3.02859">
        <ele>468</ele>
        <time>2017-04-16T10:33:44.000Z</time>
      </trkpt>
      <trkpt lat="43.55125" lon="3.02865">
        <ele>468.8</ele>
        <time>2017-04-16T10:33:47.000Z</time>
      </trkpt>
      <trkpt lat="43.55127" lon="3.02871">
        <ele>469</ele>
        <time>2017-04-16T10:33:49.000Z</time>
      </trkpt>
      <trkpt lat="43.55128" lon="3.02873">
        <ele>469.2</ele>
        <time>2017-04-16T10:33:50.000Z</time>
      </trkpt>
      <trkpt lat="43.55129" lon="3.02875">
        <ele>469.4</ele>
        <time>2017-04-16T10:33:51.000Z</time>
      </trkpt>
      <trkpt lat="43.55131" lon="3.02887">
        <ele>470</ele>
        <time>2017-04-16T10:33:55.000Z</time>
      </trkpt>
      <trkpt lat="43.55132" lon="3.02889">
        <ele>470.2</ele>
        <time>2017-04-16T10:33:56.000Z</time>
      </trkpt>
      <trkpt lat="43.55133" lon="3.02892">
        <ele>470.4</ele>
        <time>2017-04-16T10:33:57.000Z</time>
      </trkpt>
      <trkpt lat="43.55136" lon="3.02898">
        <ele>470.8</ele>
        <time>2017-04-16T10:33:59.000Z</time>
      </trkpt>
      <trkpt lat="43.55138" lon="3.02904">
        <ele>471.2</ele>
        <time>2017-04-16T10:34:01.000Z</time>
      </trkpt>
      <trkpt lat="43.55142" lon="3.02911">
        <ele>471.4</ele>
        <time>2017-04-16T10:34:03.000Z</time>
      </trkpt>
      <trkpt lat="43.55144" lon="3.02914">
        <ele>471.6</ele>
        <time>2017-04-16T10:34:04.000Z</time>
      </trkpt>
      <trkpt lat="43.55148" lon="3.02926">
        <ele>472.2</ele>
        <time>2017-04-16T10:34:09.000Z</time>
      </trkpt>
      <trkpt lat="43.55149" lon="3.0293">
        <ele>472.6</ele>
        <time>2017-04-16T10:34:11.000Z</time>
      </trkpt>
      <trkpt lat="43.55149" lon="3.02934">
        <ele>473</ele>
        <time>2017-04-16T10:34:13.000Z</time>
      </trkpt>
      <trkpt lat="43.5515" lon="3.02936">
        <ele>473.2</ele>
        <time>2017-04-16T10:34:14.000Z</time>
      </trkpt>
      <trkpt lat="43.55156" lon="3.02944">
        <ele>473.6</ele>
        <time>2017-04-16T10:34:17.000Z</time>
      </trkpt>
      <trkpt lat="43.5517" lon="3.02955">
        <ele>474.4</ele>
        <time>2017-04-16T10:34:23.000Z</time>
      </trkpt>
      <trkpt lat="43.55173" lon="3.02958">
        <ele>474.8</ele>
        <time>2017-04-16T10:34:25.000Z</time>
      </trkpt>
      <trkpt lat="43.55178" lon="3.02961">
        <ele>475.2</ele>
        <time>2017-04-16T10:34:27.000Z</time>
      </trkpt>
      <trkpt lat="43.55183" lon="3.02966">
        <ele>475.4</ele>
        <time>2017-04-16T10:34:29.000Z</time>
      </trkpt>
      <trkpt lat="43.55189" lon="3.02971">
        <ele>475.6</ele>
        <time>2017-04-16T10:34:31.000Z</time>
      </trkpt>
      <trkpt lat="43.552" lon="3.02983">
        <ele>476.2</ele>
        <time>2017-04-16T10:34:37.000Z</time>
      </trkpt>
      <trkpt lat="43.55202" lon="3.02984">
        <ele>476.4</ele>
        <time>2017-04-16T10:34:38.000Z</time>
      </trkpt>
      <trkpt lat="43.55203" lon="3.02986">
        <ele>476.6</ele>
        <time>2017-04-16T10:34:39.000Z</time>
      </trkpt>
      <trkpt lat="43.55203" lon="3.02988">
        <ele>476.8</ele>
        <time>2017-04-16T10:34:40.000Z</time>
      </trkpt>
      <trkpt lat="43.55206" lon="3.02991">
        <ele>477.2</ele>
        <time>2017-04-16T10:34:42.000Z</time>
      </trkpt>
      <trkpt lat="43.55211" lon="3.02996">
        <ele>477.6</ele>
        <time>2017-04-16T10:34:44.000Z</time>
      </trkpt>
      <trkpt lat="43.55215" lon="3.03001">
        <ele>477.8</ele>
        <time>2017-04-16T10:34:46.000Z</time>
      </trkpt>
      <trkpt lat="43.55216" lon="3.03003">
        <ele>477.8</ele>
        <time>2017-04-16T10:34:47.000Z</time>
      </trkpt>
      <trkpt lat="43.55218" lon="3.03005">
        <ele>478.2</ele>
        <time>2017-04-16T10:34:48.000Z</time>
      </trkpt>
      <trkpt lat="43.55222" lon="3.0301">
        <ele>478.6</ele>
        <time>2017-04-16T10:34:50.000Z</time>
      </trkpt>
      <trkpt lat="43.55226" lon="3.03015">
        <ele>479</ele>
        <time>2017-04-16T10:34:52.000Z</time>
      </trkpt>
      <trkpt lat="43.55229" lon="3.03021">
        <ele>479.4</ele>
        <time>2017-04-16T10:34:54.000Z</time>
      </trkpt>
      <trkpt lat="43.55232" lon="3.03026">
        <ele>479.6</ele>
        <time>2017-04-16T10:34:56.000Z</time>
      </trkpt>
      <trkpt lat="43.55242" lon="3.03041">
        <ele>480.2</ele>
        <time>2017-04-16T10:35:02.000Z</time>
      </trkpt>
      <trkpt lat="43.55252" lon="3.03054">
        <ele>480.4</ele>
        <time>2017-04-16T10:35:08.000Z</time>
      </trkpt>
      <trkpt lat="43.55256" lon="3.0306">
        <ele>480.6</ele>
        <time>2017-04-16T10:35:12.000Z</time>
      </trkpt>
      <trkpt lat="43.55258" lon="3.03061">
        <ele>480.6</ele>
        <time>2017-04-16T10:35:16.000Z</time>
      </trkpt>
      <trkpt lat="43.55261" lon="3.03059">
        <ele>480.8</ele>
        <time>2017-04-16T10:35:56.000Z</time>
      </trkpt>
      <trkpt lat="43.55261" lon="3.03058">
        <ele>480.8</ele>
        <time>2017-04-16T10:35:58.000Z</time>
      </trkpt>
      <trkpt lat="43.55262" lon="3.03057">
        <ele>480.8</ele>
        <time>2017-04-16T10:36:00.000Z</time>
      </trkpt>
      <trkpt lat="43.55263" lon="3.03057">
        <ele>480.8</ele>
        <time>2017-04-16T10:36:24.000Z</time>
      </trkpt>
      <trkpt lat="43.55265" lon="3.03057">
        <ele>480.8</ele>
        <time>2017-04-16T10:36:27.000Z</time>
      </trkpt>
      <trkpt lat="43.55273" lon="3.0305">
        <ele>480.8</ele>
        <time>2017-04-16T10:36:34.000Z</time>
      </trkpt>
      <trkpt lat="43.55276" lon="3.03046">
        <ele>481</ele>
        <time>2017-04-16T10:36:38.000Z</time>
      </trkpt>
      <trkpt lat="43.55279" lon="3.03043">
        <ele>481.4</ele>
        <time>2017-04-16T10:36:40.000Z</time>
      </trkpt>
      <trkpt lat="43.55283" lon="3.0304">
        <ele>481.6</ele>
        <time>2017-04-16T10:36:42.000Z</time>
      </trkpt>
      <trkpt lat="43.55288" lon="3.03036">
        <ele>481.8</ele>
        <time>2017-04-16T10:36:44.000Z</time>
      </trkpt>
      <trkpt lat="43.55292" lon="3.03033">
        <ele>482</ele>
        <time>2017-04-16T10:36:46.000Z</time>
      </trkpt>
      <trkpt lat="43.55303" lon="3.03033">
        <ele>482.4</ele>
        <time>2017-04-16T10:36:53.000Z</time>
      </trkpt>
      <trkpt lat="43.55306" lon="3.03034">
        <ele>482.8</ele>
        <time>2017-04-16T10:36:56.000Z</time>
      </trkpt>
      <trkpt lat="43.55309" lon="3.03034">
        <ele>483.2</ele>
        <time>2017-04-16T10:36:58.000Z</time>
      </trkpt>
      <trkpt lat="43.55312" lon="3.03034">
        <ele>483.6</ele>
        <time>2017-04-16T10:37:00.000Z</time>
      </trkpt>
      <trkpt lat="43.55315" lon="3.03035">
        <ele>484</ele>
        <time>2017-04-16T10:37:02.000Z</time>
      </trkpt>
      <trkpt lat="43.55319" lon="3.03036">
        <ele>484.2</ele>
        <time>2017-04-16T10:37:04.000Z</time>
      </trkpt>
      <trkpt lat="43.55325" lon="3.03036">
        <ele>484.8</ele>
        <time>2017-04-16T10:37:08.000Z</time>
      </trkpt>
      <trkpt lat="43.55328" lon="3.03037">
        <ele>485.2</ele>
        <time>2017-04-16T10:37:10.000Z</time>
      </trkpt>
      <trkpt lat="43.55332" lon="3.03037">
        <ele>485.6</ele>
        <time>2017-04-16T10:37:12.000Z</time>
      </trkpt>
      <trkpt lat="43.55334" lon="3.03037">
        <ele>485.8</ele>
        <time>2017-04-16T10:37:13.000Z</time>
      </trkpt>
      <trkpt lat="43.55341" lon="3.03035">
        <ele>486.2</ele>
        <time>2017-04-16T10:37:16.000Z</time>
      </trkpt>
      <trkpt lat="43.55354" lon="3.03032">
        <ele>486.6</ele>
        <time>2017-04-16T10:37:21.000Z</time>
      </trkpt>
      <trkpt lat="43.55356" lon="3.03031">
        <ele>487</ele>
        <time>2017-04-16T10:37:22.000Z</time>
      </trkpt>
      <trkpt lat="43.55359" lon="3.03029">
        <ele>487.4</ele>
        <time>2017-04-16T10:37:24.000Z</time>
      </trkpt>
      <trkpt lat="43.5536" lon="3.03028">
        <ele>487.6</ele>
        <time>2017-04-16T10:37:25.000Z</time>
      </trkpt>
      <trkpt lat="43.55364" lon="3.03026">
        <ele>488.2</ele>
        <time>2017-04-16T10:37:28.000Z</time>
      </trkpt>
      <trkpt lat="43.55366" lon="3.03023">
        <ele>488.4</ele>
        <time>2017-04-16T10:37:30.000Z</time>
      </trkpt>
      <trkpt lat="43.55367" lon="3.03021">
        <ele>488.6</ele>
        <time>2017-04-16T10:37:31.000Z</time>
      </trkpt>
      <trkpt lat="43.5537" lon="3.03009">
        <ele>489</ele>
        <time>2017-04-16T10:37:34.000Z</time>
      </trkpt>
      <trkpt lat="43.55372" lon="3.03003">
        <ele>489.4</ele>
        <time>2017-04-16T10:37:36.000Z</time>
      </trkpt>
      <trkpt lat="43.55373" lon="3.03">
        <ele>489.8</ele>
        <time>2017-04-16T10:37:37.000Z</time>
      </trkpt>
      <trkpt lat="43.5538" lon="3.02994">
        <ele>490.2</ele>
        <time>2017-04-16T10:37:40.000Z</time>
      </trkpt>
      <trkpt lat="43.55382" lon="3.02992">
        <ele>490.4</ele>
        <time>2017-04-16T10:37:41.000Z</time>
      </trkpt>
      <trkpt lat="43.55384" lon="3.0299">
        <ele>490.4</ele>
        <time>2017-04-16T10:37:42.000Z</time>
      </trkpt>
      <trkpt lat="43.55386" lon="3.02982">
        <ele>491</ele>
        <time>2017-04-16T10:37:45.000Z</time>
      </trkpt>
      <trkpt lat="43.55386" lon="3.02979">
        <ele>491.2</ele>
        <time>2017-04-16T10:37:46.000Z</time>
      </trkpt>
      <trkpt lat="43.55385" lon="3.02976">
        <ele>491.4</ele>
        <time>2017-04-16T10:37:47.000Z</time>
      </trkpt>
      <trkpt lat="43.55385" lon="3.0297">
        <ele>491.8</ele>
        <time>2017-04-16T10:37:49.000Z</time>
      </trkpt>
      <trkpt lat="43.55385" lon="3.02967">
        <ele>492</ele>
        <time>2017-04-16T10:37:50.000Z</time>
      </trkpt>
      <trkpt lat="43.55387" lon="3.02958">
        <ele>492.4</ele>
        <time>2017-04-16T10:37:53.000Z</time>
      </trkpt>
      <trkpt lat="43.5539" lon="3.02946">
        <ele>493.2</ele>
        <time>2017-04-16T10:37:58.000Z</time>
      </trkpt>
      <trkpt lat="43.5539" lon="3.02941">
        <ele>493.6</ele>
        <time>2017-04-16T10:38:00.000Z</time>
      </trkpt>
      <trkpt lat="43.5539" lon="3.02936">
        <ele>494</ele>
        <time>2017-04-16T10:38:02.000Z</time>
      </trkpt>
      <trkpt lat="43.55387" lon="3.02931">
        <ele>494.4</ele>
        <time>2017-04-16T10:38:04.000Z</time>
      </trkpt>
      <trkpt lat="43.55386" lon="3.02927">
        <ele>494.6</ele>
        <time>2017-04-16T10:38:06.000Z</time>
      </trkpt>
      <trkpt lat="43.55386" lon="3.02921">
        <ele>495</ele>
        <time>2017-04-16T10:38:09.000Z</time>
      </trkpt>
      <trkpt lat="43.55386" lon="3.02916">
        <ele>495.6</ele>
        <time>2017-04-16T10:38:11.000Z</time>
      </trkpt>
      <trkpt lat="43.55386" lon="3.0291">
        <ele>496</ele>
        <time>2017-04-16T10:38:13.000Z</time>
      </trkpt>
      <trkpt lat="43.55385" lon="3.02906">
        <ele>496.4</ele>
        <time>2017-04-16T10:38:15.000Z</time>
      </trkpt>
      <trkpt lat="43.55385" lon="3.02904">
        <ele>496.4</ele>
        <time>2017-04-16T10:38:16.000Z</time>
      </trkpt>
      <trkpt lat="43.55384" lon="3.029">
        <ele>496.8</ele>
        <time>2017-04-16T10:38:18.000Z</time>
      </trkpt>
      <trkpt lat="43.55383" lon="3.02897">
        <ele>497.4</ele>
        <time>2017-04-16T10:38:20.000Z</time>
      </trkpt>
      <trkpt lat="43.55383" lon="3.02895">
        <ele>497.6</ele>
        <time>2017-04-16T10:38:21.000Z</time>
      </trkpt>
      <trkpt lat="43.55382" lon="3.02889">
        <ele>498.2</ele>
        <time>2017-04-16T10:38:24.000Z</time>
      </trkpt>
      <trkpt lat="43.55381" lon="3.02887">
        <ele>498.4</ele>
        <time>2017-04-16T10:38:25.000Z</time>
      </trkpt>
      <trkpt lat="43.5538" lon="3.02875">
        <ele>499.2</ele>
        <time>2017-04-16T10:38:31.000Z</time>
      </trkpt>
      <trkpt lat="43.55379" lon="3.0287">
        <ele>499.8</ele>
        <time>2017-04-16T10:38:33.000Z</time>
      </trkpt>
      <trkpt lat="43.55377" lon="3.02864">
        <ele>500.2</ele>
        <time>2017-04-16T10:38:35.000Z</time>
      </trkpt>
      <trkpt lat="43.55374" lon="3.02859">
        <ele>500.4</ele>
        <time>2017-04-16T10:38:37.000Z</time>
      </trkpt>
      <trkpt lat="43.55373" lon="3.02856">
        <ele>500.8</ele>
        <time>2017-04-16T10:38:38.000Z</time>
      </trkpt>
      <trkpt lat="43.55369" lon="3.02851">
        <ele>501.4</ele>
        <time>2017-04-16T10:38:40.000Z</time>
      </trkpt>
      <trkpt lat="43.55366" lon="3.02845">
        <ele>501.8</ele>
        <time>2017-04-16T10:38:42.000Z</time>
      </trkpt>
      <trkpt lat="43.55365" lon="3.02842">
        <ele>502</ele>
        <time>2017-04-16T10:38:43.000Z</time>
      </trkpt>
      <trkpt lat="43.55365" lon="3.02839">
        <ele>502.2</ele>
        <time>2017-04-16T10:38:44.000Z</time>
      </trkpt>
      <trkpt lat="43.55367" lon="3.02832">
        <ele>502.6</ele>
        <time>2017-04-16T10:38:46.000Z</time>
      </trkpt>
      <trkpt lat="43.55372" lon="3.02818">
        <ele>503</ele>
        <time>2017-04-16T10:38:50.000Z</time>
      </trkpt>
      <trkpt lat="43.55376" lon="3.02797">
        <ele>503.4</ele>
        <time>2017-04-16T10:38:56.000Z</time>
      </trkpt>
      <trkpt lat="43.55387" lon="3.02779">
        <ele>503.6</ele>
        <time>2017-04-16T10:39:00.000Z</time>
      </trkpt>
      <trkpt lat="43.55398" lon="3.02764">
        <ele>503.8</ele>
        <time>2017-04-16T10:39:04.000Z</time>
      </trkpt>
      <trkpt lat="43.55408" lon="3.02746">
        <ele>503.8</ele>
        <time>2017-04-16T10:39:08.000Z</time>
      </trkpt>
      <trkpt lat="43.55411" lon="3.02739">
        <ele>503.8</ele>
        <time>2017-04-16T10:39:09.000Z</time>
      </trkpt>
      <trkpt lat="43.5543" lon="3.02708">
        <ele>503.8</ele>
        <time>2017-04-16T10:39:13.000Z</time>
      </trkpt>
      <trkpt lat="43.55437" lon="3.02695">
        <ele>504</ele>
        <time>2017-04-16T10:39:15.000Z</time>
      </trkpt>
      <trkpt lat="43.55448" lon="3.0268">
        <ele>504</ele>
        <time>2017-04-16T10:39:18.000Z</time>
      </trkpt>
      <trkpt lat="43.55456" lon="3.02653">
        <ele>504</ele>
        <time>2017-04-16T10:39:23.000Z</time>
      </trkpt>
      <trkpt lat="43.55458" lon="3.02648">
        <ele>504</ele>
        <time>2017-04-16T10:39:24.000Z</time>
      </trkpt>
      <trkpt lat="43.55466" lon="3.02633">
        <ele>504</ele>
        <time>2017-04-16T10:39:27.000Z</time>
      </trkpt>
      <trkpt lat="43.5547" lon="3.02625">
        <ele>504</ele>
        <time>2017-04-16T10:39:28.000Z</time>
      </trkpt>
      <trkpt lat="43.55476" lon="3.02607">
        <ele>503.8</ele>
        <time>2017-04-16T10:39:30.000Z</time>
      </trkpt>
      <trkpt lat="43.55481" lon="3.02586">
        <ele>503.4</ele>
        <time>2017-04-16T10:39:32.000Z</time>
      </trkpt>
      <trkpt lat="43.55488" lon="3.02566">
        <ele>503</ele>
        <time>2017-04-16T10:39:34.000Z</time>
      </trkpt>
      <trkpt lat="43.5549" lon="3.02559">
        <ele>502.6</ele>
        <time>2017-04-16T10:39:35.000Z</time>
      </trkpt>
      <trkpt lat="43.55496" lon="3.0254">
        <ele>502</ele>
        <time>2017-04-16T10:39:37.000Z</time>
      </trkpt>
      <trkpt lat="43.55501" lon="3.02518">
        <ele>501.4</ele>
        <time>2017-04-16T10:39:39.000Z</time>
      </trkpt>
      <trkpt lat="43.55506" lon="3.02497">
        <ele>500.6</ele>
        <time>2017-04-16T10:39:41.000Z</time>
      </trkpt>
      <trkpt lat="43.55508" lon="3.02487">
        <ele>500</ele>
        <time>2017-04-16T10:39:42.000Z</time>
      </trkpt>
      <trkpt lat="43.55513" lon="3.02474">
        <ele>499</ele>
        <time>2017-04-16T10:39:44.000Z</time>
      </trkpt>
      <trkpt lat="43.55518" lon="3.02475">
        <ele>498.6</ele>
        <time>2017-04-16T10:39:45.000Z</time>
      </trkpt>
      <trkpt lat="43.5553" lon="3.02485">
        <ele>497.6</ele>
        <time>2017-04-16T10:39:47.000Z</time>
      </trkpt>
      <trkpt lat="43.55543" lon="3.02487">
        <ele>496.6</ele>
        <time>2017-04-16T10:39:49.000Z</time>
      </trkpt>
      <trkpt lat="43.55548" lon="3.02484">
        <ele>496.2</ele>
        <time>2017-04-16T10:39:50.000Z</time>
      </trkpt>
      <trkpt lat="43.55558" lon="3.02477">
        <ele>494.8</ele>
        <time>2017-04-16T10:39:53.000Z</time>
      </trkpt>
      <trkpt lat="43.55561" lon="3.02475">
        <ele>494</ele>
        <time>2017-04-16T10:39:55.000Z</time>
      </trkpt>
      <trkpt lat="43.55564" lon="3.02473">
        <ele>493.4</ele>
        <time>2017-04-16T10:39:57.000Z</time>
      </trkpt>
      <trkpt lat="43.55566" lon="3.02472">
        <ele>492.8</ele>
        <time>2017-04-16T10:39:59.000Z</time>
      </trkpt>
      <trkpt lat="43.55571" lon="3.02467">
        <ele>492</ele>
        <time>2017-04-16T10:40:03.000Z</time>
      </trkpt>
      <trkpt lat="43.55572" lon="3.02466">
        <ele>492</ele>
        <time>2017-04-16T10:40:04.000Z</time>
      </trkpt>
      <trkpt lat="43.55578" lon="3.02464">
        <ele>492.2</ele>
        <time>2017-04-16T10:40:07.000Z</time>
      </trkpt>
      <trkpt lat="43.55582" lon="3.02463">
        <ele>492.2</ele>
        <time>2017-04-16T10:40:09.000Z</time>
      </trkpt>
      <trkpt lat="43.55584" lon="3.02461">
        <ele>492.4</ele>
        <time>2017-04-16T10:40:11.000Z</time>
      </trkpt>
      <trkpt lat="43.55587" lon="3.0246">
        <ele>492.4</ele>
        <time>2017-04-16T10:40:13.000Z</time>
      </trkpt>
      <trkpt lat="43.55589" lon="3.02459">
        <ele>492.6</ele>
        <time>2017-04-16T10:40:14.000Z</time>
      </trkpt>
      <trkpt lat="43.55592" lon="3.02457">
        <ele>493</ele>
        <time>2017-04-16T10:40:16.000Z</time>
      </trkpt>
      <trkpt lat="43.55596" lon="3.02453">
        <ele>493.4</ele>
        <time>2017-04-16T10:40:18.000Z</time>
      </trkpt>
      <trkpt lat="43.55598" lon="3.02452">
        <ele>493.6</ele>
        <time>2017-04-16T10:40:20.000Z</time>
      </trkpt>
      <trkpt lat="43.55598" lon="3.02451">
        <ele>494</ele>
        <time>2017-04-16T10:40:22.000Z</time>
      </trkpt>
      <trkpt lat="43.55599" lon="3.0245">
        <ele>494.6</ele>
        <time>2017-04-16T10:40:24.000Z</time>
      </trkpt>
      <trkpt lat="43.55601" lon="3.02449">
        <ele>495</ele>
        <time>2017-04-16T10:40:26.000Z</time>
      </trkpt>
      <trkpt lat="43.55602" lon="3.02449">
        <ele>495.4</ele>
        <time>2017-04-16T10:40:28.000Z</time>
      </trkpt>
      <trkpt lat="43.55602" lon="3.02449">
        <ele>495.6</ele>
        <time>2017-04-16T10:40:30.000Z</time>
      </trkpt>
      <trkpt lat="43.55603" lon="3.0245">
        <ele>496</ele>
        <time>2017-04-16T10:40:34.000Z</time>
      </trkpt>
      <trkpt lat="43.55608" lon="3.02449">
        <ele>496.4</ele>
        <time>2017-04-16T10:40:40.000Z</time>
      </trkpt>
      <trkpt lat="43.55611" lon="3.02444">
        <ele>496.8</ele>
        <time>2017-04-16T10:40:45.000Z</time>
      </trkpt>
      <trkpt lat="43.55613" lon="3.02443">
        <ele>497.2</ele>
        <time>2017-04-16T10:40:47.000Z</time>
      </trkpt>
      <trkpt lat="43.55615" lon="3.02441">
        <ele>497.6</ele>
        <time>2017-04-16T10:40:49.000Z</time>
      </trkpt>
      <trkpt lat="43.55616" lon="3.0244">
        <ele>497.8</ele>
        <time>2017-04-16T10:40:51.000Z</time>
      </trkpt>
      <trkpt lat="43.55618" lon="3.0244">
        <ele>498</ele>
        <time>2017-04-16T10:40:53.000Z</time>
      </trkpt>
      <trkpt lat="43.55619" lon="3.0244">
        <ele>498.4</ele>
        <time>2017-04-16T10:40:54.000Z</time>
      </trkpt>
      <trkpt lat="43.55622" lon="3.0244">
        <ele>499</ele>
        <time>2017-04-16T10:40:56.000Z</time>
      </trkpt>
      <trkpt lat="43.55625" lon="3.02439">
        <ele>499.4</ele>
        <time>2017-04-16T10:40:58.000Z</time>
      </trkpt>
      <trkpt lat="43.55627" lon="3.02438">
        <ele>499.8</ele>
        <time>2017-04-16T10:41:00.000Z</time>
      </trkpt>
      <trkpt lat="43.55628" lon="3.02439">
        <ele>500</ele>
        <time>2017-04-16T10:41:02.000Z</time>
      </trkpt>
      <trkpt lat="43.55632" lon="3.02441">
        <ele>500.8</ele>
        <time>2017-04-16T10:41:07.000Z</time>
      </trkpt>
      <trkpt lat="43.55634" lon="3.02441">
        <ele>501.2</ele>
        <time>2017-04-16T10:41:09.000Z</time>
      </trkpt>
      <trkpt lat="43.55636" lon="3.02441">
        <ele>501.6</ele>
        <time>2017-04-16T10:41:11.000Z</time>
      </trkpt>
      <trkpt lat="43.55638" lon="3.02441">
        <ele>502</ele>
        <time>2017-04-16T10:41:13.000Z</time>
      </trkpt>
      <trkpt lat="43.55641" lon="3.02439">
        <ele>502.2</ele>
        <time>2017-04-16T10:41:15.000Z</time>
      </trkpt>
      <trkpt lat="43.55643" lon="3.02437">
        <ele>502.6</ele>
        <time>2017-04-16T10:41:16.000Z</time>
      </trkpt>
      <trkpt lat="43.55644" lon="3.02433">
        <ele>503</ele>
        <time>2017-04-16T10:41:18.000Z</time>
      </trkpt>
      <trkpt lat="43.55645" lon="3.02431">
        <ele>503.6</ele>
        <time>2017-04-16T10:41:20.000Z</time>
      </trkpt>
      <trkpt lat="43.55647" lon="3.02429">
        <ele>503.8</ele>
        <time>2017-04-16T10:41:22.000Z</time>
      </trkpt>
      <trkpt lat="43.55648" lon="3.02427">
        <ele>504.2</ele>
        <time>2017-04-16T10:41:24.000Z</time>
      </trkpt>
      <trkpt lat="43.55648" lon="3.02421">
        <ele>505.2</ele>
        <time>2017-04-16T10:41:33.000Z</time>
      </trkpt>
      <trkpt lat="43.55648" lon="3.02421">
        <ele>505.6</ele>
        <time>2017-04-16T10:41:35.000Z</time>
      </trkpt>
      <trkpt lat="43.55652" lon="3.02419">
        <ele>508.8</ele>
        <time>2017-04-16T10:41:54.000Z</time>
      </trkpt>
      <trkpt lat="43.55654" lon="3.02418">
        <ele>509</ele>
        <time>2017-04-16T10:41:55.000Z</time>
      </trkpt>
      <trkpt lat="43.55656" lon="3.02419">
        <ele>509</ele>
        <time>2017-04-16T10:41:56.000Z</time>
      </trkpt>
      <trkpt lat="43.55657" lon="3.02419">
        <ele>509.2</ele>
        <time>2017-04-16T10:41:57.000Z</time>
      </trkpt>
      <trkpt lat="43.5566" lon="3.02418">
        <ele>509.2</ele>
        <time>2017-04-16T10:41:59.000Z</time>
      </trkpt>
      <trkpt lat="43.55664" lon="3.02415">
        <ele>509.4</ele>
        <time>2017-04-16T10:42:01.000Z</time>
      </trkpt>
      <trkpt lat="43.55667" lon="3.02414">
        <ele>509.4</ele>
        <time>2017-04-16T10:42:03.000Z</time>
      </trkpt>
      <trkpt lat="43.5567" lon="3.02413">
        <ele>509.8</ele>
        <time>2017-04-16T10:42:05.000Z</time>
      </trkpt>
      <trkpt lat="43.55672" lon="3.02413">
        <ele>510.2</ele>
        <time>2017-04-16T10:42:07.000Z</time>
      </trkpt>
      <trkpt lat="43.55673" lon="3.02412">
        <ele>510.4</ele>
        <time>2017-04-16T10:42:09.000Z</time>
      </trkpt>
      <trkpt lat="43.55675" lon="3.02411">
        <ele>510.8</ele>
        <time>2017-04-16T10:42:11.000Z</time>
      </trkpt>
      <trkpt lat="43.55678" lon="3.0241">
        <ele>511</ele>
        <time>2017-04-16T10:42:13.000Z</time>
      </trkpt>
      <trkpt lat="43.55681" lon="3.0241">
        <ele>511.4</ele>
        <time>2017-04-16T10:42:16.000Z</time>
      </trkpt>
      <trkpt lat="43.55683" lon="3.0241">
        <ele>512</ele>
        <time>2017-04-16T10:42:18.000Z</time>
      </trkpt>
      <trkpt lat="43.55685" lon="3.0241">
        <ele>512.4</ele>
        <time>2017-04-16T10:42:20.000Z</time>
      </trkpt>
      <trkpt lat="43.55686" lon="3.0241">
        <ele>512.6</ele>
        <time>2017-04-16T10:42:22.000Z</time>
      </trkpt>
      <trkpt lat="43.5569" lon="3.02409">
        <ele>512.8</ele>
        <time>2017-04-16T10:42:24.000Z</time>
      </trkpt>
      <trkpt lat="43.55693" lon="3.02412">
        <ele>513.6</ele>
        <time>2017-04-16T10:42:29.000Z</time>
      </trkpt>
      <trkpt lat="43.55694" lon="3.02415">
        <ele>514</ele>
        <time>2017-04-16T10:42:31.000Z</time>
      </trkpt>
      <trkpt lat="43.55694" lon="3.02418">
        <ele>514.4</ele>
        <time>2017-04-16T10:42:33.000Z</time>
      </trkpt>
      <trkpt lat="43.55693" lon="3.0242">
        <ele>514.8</ele>
        <time>2017-04-16T10:42:35.000Z</time>
      </trkpt>
      <trkpt lat="43.55696" lon="3.02424">
        <ele>516.4</ele>
        <time>2017-04-16T10:42:45.000Z</time>
      </trkpt>
      <trkpt lat="43.55696" lon="3.02424">
        <ele>516.6</ele>
        <time>2017-04-16T10:42:46.000Z</time>
      </trkpt>
      <trkpt lat="43.55697" lon="3.02425">
        <ele>516.8</ele>
        <time>2017-04-16T10:42:47.000Z</time>
      </trkpt>
      <trkpt lat="43.55697" lon="3.02426">
        <ele>516.8</ele>
        <time>2017-04-16T10:42:48.000Z</time>
      </trkpt>
      <trkpt lat="43.55697" lon="3.02427">
        <ele>517.2</ele>
        <time>2017-04-16T10:42:50.000Z</time>
      </trkpt>
      <trkpt lat="43.55698" lon="3.02426">
        <ele>517.2</ele>
        <time>2017-04-16T10:42:51.000Z</time>
      </trkpt>
      <trkpt lat="43.557" lon="3.02424">
        <ele>519.4</ele>
        <time>2017-04-16T10:43:03.000Z</time>
      </trkpt>
      <trkpt lat="43.557" lon="3.02425">
        <ele>519.6</ele>
        <time>2017-04-16T10:43:04.000Z</time>
      </trkpt>
      <trkpt lat="43.55699" lon="3.02426">
        <ele>519.6</ele>
        <time>2017-04-16T10:43:05.000Z</time>
      </trkpt>
      <trkpt lat="43.557" lon="3.02427">
        <ele>519.8</ele>
        <time>2017-04-16T10:43:06.000Z</time>
      </trkpt>
      <trkpt lat="43.557" lon="3.02431">
        <ele>519.8</ele>
        <time>2017-04-16T10:43:08.000Z</time>
      </trkpt>
      <trkpt lat="43.55701" lon="3.02433">
        <ele>520</ele>
        <time>2017-04-16T10:43:10.000Z</time>
      </trkpt>
      <trkpt lat="43.55702" lon="3.02436">
        <ele>520</ele>
        <time>2017-04-16T10:43:12.000Z</time>
      </trkpt>
      <trkpt lat="43.55708" lon="3.02446">
        <ele>520.2</ele>
        <time>2017-04-16T10:43:21.000Z</time>
      </trkpt>
      <trkpt lat="43.55708" lon="3.0245">
        <ele>520.6</ele>
        <time>2017-04-16T10:43:25.000Z</time>
      </trkpt>
      <trkpt lat="43.55708" lon="3.02452">
        <ele>521</ele>
        <time>2017-04-16T10:43:27.000Z</time>
      </trkpt>
      <trkpt lat="43.5571" lon="3.02454">
        <ele>521.2</ele>
        <time>2017-04-16T10:43:29.000Z</time>
      </trkpt>
      <trkpt lat="43.55712" lon="3.02453">
        <ele>521.4</ele>
        <time>2017-04-16T10:43:31.000Z</time>
      </trkpt>
      <trkpt lat="43.55714" lon="3.02454">
        <ele>521.6</ele>
        <time>2017-04-16T10:43:33.000Z</time>
      </trkpt>
      <trkpt lat="43.55715" lon="3.02456">
        <ele>521.8</ele>
        <time>2017-04-16T10:43:35.000Z</time>
      </trkpt>
      <trkpt lat="43.55721" lon="3.02457">
        <ele>522.4</ele>
        <time>2017-04-16T10:43:40.000Z</time>
      </trkpt>
      <trkpt lat="43.55722" lon="3.02456">
        <ele>522.8</ele>
        <time>2017-04-16T10:43:42.000Z</time>
      </trkpt>
      <trkpt lat="43.55723" lon="3.02453">
        <ele>523</ele>
        <time>2017-04-16T10:43:44.000Z</time>
      </trkpt>
      <trkpt lat="43.55726" lon="3.0245">
        <ele>523.4</ele>
        <time>2017-04-16T10:43:46.000Z</time>
      </trkpt>
      <trkpt lat="43.55729" lon="3.02448">
        <ele>523.6</ele>
        <time>2017-04-16T10:43:48.000Z</time>
      </trkpt>
      <trkpt lat="43.55735" lon="3.02451">
        <ele>524.2</ele>
        <time>2017-04-16T10:43:54.000Z</time>
      </trkpt>
      <trkpt lat="43.55738" lon="3.02453">
        <ele>524.8</ele>
        <time>2017-04-16T10:43:56.000Z</time>
      </trkpt>
      <trkpt lat="43.55739" lon="3.02454">
        <ele>525.2</ele>
        <time>2017-04-16T10:43:58.000Z</time>
      </trkpt>
      <trkpt lat="43.55739" lon="3.02454">
        <ele>525.4</ele>
        <time>2017-04-16T10:43:59.000Z</time>
      </trkpt>
      <trkpt lat="43.55742" lon="3.02459">
        <ele>526.4</ele>
        <time>2017-04-16T10:44:06.000Z</time>
      </trkpt>
      <trkpt lat="43.55742" lon="3.0246">
        <ele>526.6</ele>
        <time>2017-04-16T10:44:07.000Z</time>
      </trkpt>
      <trkpt lat="43.55743" lon="3.02462">
        <ele>526.8</ele>
        <time>2017-04-16T10:44:08.000Z</time>
      </trkpt>
      <trkpt lat="43.55743" lon="3.02463">
        <ele>527</ele>
        <time>2017-04-16T10:44:09.000Z</time>
      </trkpt>
      <trkpt lat="43.55744" lon="3.02465">
        <ele>527.4</ele>
        <time>2017-04-16T10:44:11.000Z</time>
      </trkpt>
      <trkpt lat="43.55745" lon="3.02466">
        <ele>527.6</ele>
        <time>2017-04-16T10:44:13.000Z</time>
      </trkpt>
      <trkpt lat="43.55747" lon="3.02468">
        <ele>528</ele>
        <time>2017-04-16T10:44:15.000Z</time>
      </trkpt>
      <trkpt lat="43.55754" lon="3.02471">
        <ele>528.4</ele>
        <time>2017-04-16T10:44:20.000Z</time>
      </trkpt>
      <trkpt lat="43.5576" lon="3.02484">
        <ele>528.8</ele>
        <time>2017-04-16T10:44:30.000Z</time>
      </trkpt>
      <trkpt lat="43.55763" lon="3.02488">
        <ele>528.8</ele>
        <time>2017-04-16T10:44:32.000Z</time>
      </trkpt>
      <trkpt lat="43.55768" lon="3.02499">
        <ele>528.8</ele>
        <time>2017-04-16T10:44:38.000Z</time>
      </trkpt>
      <trkpt lat="43.5577" lon="3.02505">
        <ele>529</ele>
        <time>2017-04-16T10:44:42.000Z</time>
      </trkpt>
      <trkpt lat="43.55769" lon="3.02507">
        <ele>529.2</ele>
        <time>2017-04-16T10:44:43.000Z</time>
      </trkpt>
      <trkpt lat="43.55769" lon="3.02508">
        <ele>529.4</ele>
        <time>2017-04-16T10:44:44.000Z</time>
      </trkpt>
      <trkpt lat="43.55767" lon="3.02513">
        <ele>529.8</ele>
        <time>2017-04-16T10:44:46.000Z</time>
      </trkpt>
      <trkpt lat="43.55766" lon="3.02517">
        <ele>530</ele>
        <time>2017-04-16T10:44:48.000Z</time>
      </trkpt>
      <trkpt lat="43.55768" lon="3.02519">
        <ele>530.2</ele>
        <time>2017-04-16T10:44:50.000Z</time>
      </trkpt>
      <trkpt lat="43.55768" lon="3.02521">
        <ele>530.2</ele>
        <time>2017-04-16T10:44:52.000Z</time>
      </trkpt>
      <trkpt lat="43.55768" lon="3.02523">
        <ele>530.6</ele>
        <time>2017-04-16T10:44:54.000Z</time>
      </trkpt>
      <trkpt lat="43.55767" lon="3.02525">
        <ele>531</ele>
        <time>2017-04-16T10:44:56.000Z</time>
      </trkpt>
      <trkpt lat="43.55769" lon="3.02527">
        <ele>531.4</ele>
        <time>2017-04-16T10:44:58.000Z</time>
      </trkpt>
      <trkpt lat="43.55771" lon="3.02528">
        <ele>531.8</ele>
        <time>2017-04-16T10:45:00.000Z</time>
      </trkpt>
      <trkpt lat="43.55774" lon="3.0253">
        <ele>532</ele>
        <time>2017-04-16T10:45:02.000Z</time>
      </trkpt>
      <trkpt lat="43.55777" lon="3.0253">
        <ele>532.2</ele>
        <time>2017-04-16T10:45:04.000Z</time>
      </trkpt>
      <trkpt lat="43.55781" lon="3.02532">
        <ele>532.6</ele>
        <time>2017-04-16T10:45:08.000Z</time>
      </trkpt>
      <trkpt lat="43.55781" lon="3.02533">
        <ele>533</ele>
        <time>2017-04-16T10:45:09.000Z</time>
      </trkpt>
      <trkpt lat="43.55779" lon="3.02533">
        <ele>533.4</ele>
        <time>2017-04-16T10:45:11.000Z</time>
      </trkpt>
      <trkpt lat="43.55778" lon="3.02533">
        <ele>533.6</ele>
        <time>2017-04-16T10:45:12.000Z</time>
      </trkpt>
      <trkpt lat="43.55777" lon="3.02532">
        <ele>533.6</ele>
        <time>2017-04-16T10:45:13.000Z</time>
      </trkpt>
      <trkpt lat="43.55777" lon="3.02531">
        <ele>533.8</ele>
        <time>2017-04-16T10:45:14.000Z</time>
      </trkpt>
      <trkpt lat="43.55777" lon="3.02528">
        <ele>534</ele>
        <time>2017-04-16T10:45:16.000Z</time>
      </trkpt>
      <trkpt lat="43.5578" lon="3.02525">
        <ele>534.6</ele>
        <time>2017-04-16T10:45:18.000Z</time>
      </trkpt>
      <trkpt lat="43.55784" lon="3.02524">
        <ele>535</ele>
        <time>2017-04-16T10:45:20.000Z</time>
      </trkpt>
      <trkpt lat="43.55786" lon="3.02524">
        <ele>535.4</ele>
        <time>2017-04-16T10:45:22.000Z</time>
      </trkpt>
      <trkpt lat="43.55787" lon="3.02525">
        <ele>535.8</ele>
        <time>2017-04-16T10:45:24.000Z</time>
      </trkpt>
      <trkpt lat="43.55787" lon="3.02527">
        <ele>536.2</ele>
        <time>2017-04-16T10:45:26.000Z</time>
      </trkpt>
      <trkpt lat="43.55795" lon="3.02526">
        <ele>536.8</ele>
        <time>2017-04-16T10:45:32.000Z</time>
      </trkpt>
      <trkpt lat="43.55797" lon="3.02526">
        <ele>536.8</ele>
        <time>2017-04-16T10:45:34.000Z</time>
      </trkpt>
      <trkpt lat="43.55795" lon="3.02526">
        <ele>537.2</ele>
        <time>2017-04-16T10:45:42.000Z</time>
      </trkpt>
      <trkpt lat="43.55794" lon="3.02526">
        <ele>537.2</ele>
        <time>2017-04-16T10:45:44.000Z</time>
      </trkpt>
      <trkpt lat="43.55795" lon="3.02527">
        <ele>537.2</ele>
        <time>2017-04-16T10:45:53.000Z</time>
      </trkpt>
      <trkpt lat="43.55798" lon="3.02527">
        <ele>537.4</ele>
        <time>2017-04-16T10:45:56.000Z</time>
      </trkpt>
      <trkpt lat="43.55802" lon="3.02524">
        <ele>537.4</ele>
        <time>2017-04-16T10:46:01.000Z</time>
      </trkpt>
      <trkpt lat="43.55802" lon="3.02523">
        <ele>537.4</ele>
        <time>2017-04-16T10:46:03.000Z</time>
      </trkpt>
      <trkpt lat="43.55802" lon="3.02522">
        <ele>537.4</ele>
        <time>2017-04-16T10:46:05.000Z</time>
      </trkpt>
      <trkpt lat="43.55798" lon="3.02526">
        <ele>537.4</ele>
        <time>2017-04-16T10:46:11.000Z</time>
      </trkpt>
      <trkpt lat="43.55799" lon="3.02528">
        <ele>537.4</ele>
        <time>2017-04-16T10:46:18.000Z</time>
      </trkpt>
      <trkpt lat="43.55799" lon="3.02527">
        <ele>537.4</ele>
        <time>2017-04-16T10:46:20.000Z</time>
      </trkpt>
      <trkpt lat="43.55802" lon="3.0253">
        <ele>537.4</ele>
        <time>2017-04-16T10:46:34.000Z</time>
      </trkpt>
      <trkpt lat="43.55803" lon="3.02531">
        <ele>537.4</ele>
        <time>2017-04-16T10:46:36.000Z</time>
      </trkpt>
      <trkpt lat="43.55805" lon="3.02532">
        <ele>537.4</ele>
        <time>2017-04-16T10:46:48.000Z</time>
      </trkpt>
      <trkpt lat="43.55804" lon="3.02532">
        <ele>537.4</ele>
        <time>2017-04-16T10:46:50.000Z</time>
      </trkpt>
      <trkpt lat="43.55803" lon="3.02533">
        <ele>537.4</ele>
        <time>2017-04-16T10:46:56.000Z</time>
      </trkpt>
      <trkpt lat="43.55803" lon="3.02532">
        <ele>537.4</ele>
        <time>2017-04-16T10:46:58.000Z</time>
      </trkpt>
      <trkpt lat="43.55802" lon="3.02526">
        <ele>537.4</ele>
        <time>2017-04-16T10:47:15.000Z</time>
      </trkpt>
      <trkpt lat="43.55802" lon="3.02525">
        <ele>537.4</ele>
        <time>2017-04-16T10:47:16.000Z</time>
      </trkpt>
      <trkpt lat="43.55801" lon="3.0252">
        <ele>537.4</ele>
        <time>2017-04-16T10:47:20.000Z</time>
      </trkpt>
      <trkpt lat="43.55796" lon="3.02512">
        <ele>537.4</ele>
        <time>2017-04-16T10:47:30.000Z</time>
      </trkpt>
      <trkpt lat="43.55797" lon="3.02506">
        <ele>538.6</ele>
        <time>2017-04-16T10:47:41.000Z</time>
      </trkpt>
      <trkpt lat="43.55796" lon="3.02506">
        <ele>538.8</ele>
        <time>2017-04-16T10:47:42.000Z</time>
      </trkpt>
      <trkpt lat="43.55796" lon="3.02505">
        <ele>538.8</ele>
        <time>2017-04-16T10:47:43.000Z</time>
      </trkpt>
      <trkpt lat="43.55795" lon="3.02505">
        <ele>538.8</ele>
        <time>2017-04-16T10:47:44.000Z</time>
      </trkpt>
      <trkpt lat="43.55795" lon="3.02504">
        <ele>539</ele>
        <time>2017-04-16T10:47:46.000Z</time>
      </trkpt>
      <trkpt lat="43.55795" lon="3.02502">
        <ele>539.2</ele>
        <time>2017-04-16T10:47:48.000Z</time>
      </trkpt>
      <trkpt lat="43.55796" lon="3.02499">
        <ele>539.2</ele>
        <time>2017-04-16T10:47:50.000Z</time>
      </trkpt>
      <trkpt lat="43.55801" lon="3.0249">
        <ele>539</ele>
        <time>2017-04-16T10:47:54.000Z</time>
      </trkpt>
      <trkpt lat="43.55804" lon="3.02484">
        <ele>538.8</ele>
        <time>2017-04-16T10:47:56.000Z</time>
      </trkpt>
      <trkpt lat="43.55805" lon="3.02479">
        <ele>538.6</ele>
        <time>2017-04-16T10:47:57.000Z</time>
      </trkpt>
      <trkpt lat="43.55806" lon="3.02475">
        <ele>538.4</ele>
        <time>2017-04-16T10:47:58.000Z</time>
      </trkpt>
      <trkpt lat="43.55806" lon="3.02469">
        <ele>538</ele>
        <time>2017-04-16T10:47:59.000Z</time>
      </trkpt>
      <trkpt lat="43.55806" lon="3.02461">
        <ele>537.4</ele>
        <time>2017-04-16T10:48:01.000Z</time>
      </trkpt>
      <trkpt lat="43.55803" lon="3.02453">
        <ele>537</ele>
        <time>2017-04-16T10:48:03.000Z</time>
      </trkpt>
      <trkpt lat="43.558" lon="3.02445">
        <ele>536.6</ele>
        <time>2017-04-16T10:48:05.000Z</time>
      </trkpt>
      <trkpt lat="43.55796" lon="3.02438">
        <ele>536.2</ele>
        <time>2017-04-16T10:48:07.000Z</time>
      </trkpt>
      <trkpt lat="43.55791" lon="3.02424">
        <ele>535.6</ele>
        <time>2017-04-16T10:48:12.000Z</time>
      </trkpt>
      <trkpt lat="43.5579" lon="3.02421">
        <ele>535.8</ele>
        <time>2017-04-16T10:48:14.000Z</time>
      </trkpt>
      <trkpt lat="43.5579" lon="3.02419">
        <ele>536</ele>
        <time>2017-04-16T10:48:16.000Z</time>
      </trkpt>
      <trkpt lat="43.55792" lon="3.02417">
        <ele>536.2</ele>
        <time>2017-04-16T10:48:18.000Z</time>
      </trkpt>
      <trkpt lat="43.55793" lon="3.02414">
        <ele>536.2</ele>
        <time>2017-04-16T10:48:20.000Z</time>
      </trkpt>
      <trkpt lat="43.55794" lon="3.02412">
        <ele>536.4</ele>
        <time>2017-04-16T10:48:21.000Z</time>
      </trkpt>
      <trkpt lat="43.55794" lon="3.02411">
        <ele>536.6</ele>
        <time>2017-04-16T10:48:22.000Z</time>
      </trkpt>
      <trkpt lat="43.55794" lon="3.02407">
        <ele>537.2</ele>
        <time>2017-04-16T10:48:24.000Z</time>
      </trkpt>
      <trkpt lat="43.55794" lon="3.02404">
        <ele>537.4</ele>
        <time>2017-04-16T10:48:25.000Z</time>
      </trkpt>
      <trkpt lat="43.55794" lon="3.02402">
        <ele>537.6</ele>
        <time>2017-04-16T10:48:26.000Z</time>
      </trkpt>
      <trkpt lat="43.55794" lon="3.02397">
        <ele>537.8</ele>
        <time>2017-04-16T10:48:28.000Z</time>
      </trkpt>
      <trkpt lat="43.55793" lon="3.0239">
        <ele>538</ele>
        <time>2017-04-16T10:48:30.000Z</time>
      </trkpt>
      <trkpt lat="43.55793" lon="3.02382">
        <ele>538.2</ele>
        <time>2017-04-16T10:48:32.000Z</time>
      </trkpt>
      <trkpt lat="43.55791" lon="3.02372">
        <ele>538.6</ele>
        <time>2017-04-16T10:48:37.000Z</time>
      </trkpt>
      <trkpt lat="43.55789" lon="3.02371">
        <ele>538.8</ele>
        <time>2017-04-16T10:48:40.000Z</time>
      </trkpt>
      <trkpt lat="43.55788" lon="3.02364">
        <ele>539</ele>
        <time>2017-04-16T10:48:46.000Z</time>
      </trkpt>
      <trkpt lat="43.55795" lon="3.02359">
        <ele>539</ele>
        <time>2017-04-16T10:48:52.000Z</time>
      </trkpt>
      <trkpt lat="43.55795" lon="3.02358">
        <ele>539</ele>
        <time>2017-04-16T10:48:53.000Z</time>
      </trkpt>
      <trkpt lat="43.55795" lon="3.02357">
        <ele>539.4</ele>
        <time>2017-04-16T10:48:54.000Z</time>
      </trkpt>
      <trkpt lat="43.55794" lon="3.02355">
        <ele>539.6</ele>
        <time>2017-04-16T10:48:56.000Z</time>
      </trkpt>
      <trkpt lat="43.55793" lon="3.02352">
        <ele>540</ele>
        <time>2017-04-16T10:48:58.000Z</time>
      </trkpt>
      <trkpt lat="43.55794" lon="3.02347">
        <ele>540.4</ele>
        <time>2017-04-16T10:49:02.000Z</time>
      </trkpt>
      <trkpt lat="43.55793" lon="3.02345">
        <ele>540.6</ele>
        <time>2017-04-16T10:49:03.000Z</time>
      </trkpt>
      <trkpt lat="43.5579" lon="3.02339">
        <ele>540.8</ele>
        <time>2017-04-16T10:49:06.000Z</time>
      </trkpt>
      <trkpt lat="43.55787" lon="3.02337">
        <ele>541</ele>
        <time>2017-04-16T10:49:07.000Z</time>
      </trkpt>
      <trkpt lat="43.55782" lon="3.02335">
        <ele>541.6</ele>
        <time>2017-04-16T10:49:09.000Z</time>
      </trkpt>
      <trkpt lat="43.55778" lon="3.02334">
        <ele>541.6</ele>
        <time>2017-04-16T10:49:10.000Z</time>
      </trkpt>
      <trkpt lat="43.55774" lon="3.02333">
        <ele>541.8</ele>
        <time>2017-04-16T10:49:11.000Z</time>
      </trkpt>
      <trkpt lat="43.55767" lon="3.0233">
        <ele>542.2</ele>
        <time>2017-04-16T10:49:13.000Z</time>
      </trkpt>
      <trkpt lat="43.55764" lon="3.02329">
        <ele>542.4</ele>
        <time>2017-04-16T10:49:14.000Z</time>
      </trkpt>
      <trkpt lat="43.5576" lon="3.02327">
        <ele>543</ele>
        <time>2017-04-16T10:49:16.000Z</time>
      </trkpt>
      <trkpt lat="43.55758" lon="3.02326">
        <ele>543.4</ele>
        <time>2017-04-16T10:49:17.000Z</time>
      </trkpt>
      <trkpt lat="43.55757" lon="3.02325">
        <ele>543.6</ele>
        <time>2017-04-16T10:49:18.000Z</time>
      </trkpt>
      <trkpt lat="43.55756" lon="3.02324">
        <ele>543.8</ele>
        <time>2017-04-16T10:49:19.000Z</time>
      </trkpt>
      <trkpt lat="43.55754" lon="3.02324">
        <ele>544</ele>
        <time>2017-04-16T10:49:20.000Z</time>
      </trkpt>
      <trkpt lat="43.5575" lon="3.02321">
        <ele>544.2</ele>
        <time>2017-04-16T10:49:22.000Z</time>
      </trkpt>
      <trkpt lat="43.55745" lon="3.02316">
        <ele>544.4</ele>
        <time>2017-04-16T10:49:24.000Z</time>
      </trkpt>
      <trkpt lat="43.5574" lon="3.02312">
        <ele>544.8</ele>
        <time>2017-04-16T10:49:26.000Z</time>
      </trkpt>
      <trkpt lat="43.55738" lon="3.02308">
        <ele>545.4</ele>
        <time>2017-04-16T10:49:28.000Z</time>
      </trkpt>
      <trkpt lat="43.55733" lon="3.02304">
        <ele>547.4</ele>
        <time>2017-04-16T10:49:34.000Z</time>
      </trkpt>
      <trkpt lat="43.55732" lon="3.02304">
        <ele>547.6</ele>
        <time>2017-04-16T10:49:35.000Z</time>
      </trkpt>
      <trkpt lat="43.55731" lon="3.02303">
        <ele>547.8</ele>
        <time>2017-04-16T10:49:36.000Z</time>
      </trkpt>
      <trkpt lat="43.55729" lon="3.02303">
        <ele>548</ele>
        <time>2017-04-16T10:49:37.000Z</time>
      </trkpt>
      <trkpt lat="43.55726" lon="3.02302">
        <ele>548.4</ele>
        <time>2017-04-16T10:49:39.000Z</time>
      </trkpt>
      <trkpt lat="43.55723" lon="3.023">
        <ele>548.8</ele>
        <time>2017-04-16T10:49:41.000Z</time>
      </trkpt>
      <trkpt lat="43.55721" lon="3.02297">
        <ele>549.4</ele>
        <time>2017-04-16T10:49:43.000Z</time>
      </trkpt>
      <trkpt lat="43.55719" lon="3.02295">
        <ele>550</ele>
        <time>2017-04-16T10:49:45.000Z</time>
      </trkpt>
      <trkpt lat="43.55717" lon="3.02292">
        <ele>550.4</ele>
        <time>2017-04-16T10:49:47.000Z</time>
      </trkpt>
      <trkpt lat="43.55714" lon="3.02289">
        <ele>550.6</ele>
        <time>2017-04-16T10:49:49.000Z</time>
      </trkpt>
      <trkpt lat="43.55711" lon="3.02288">
        <ele>551.2</ele>
        <time>2017-04-16T10:49:52.000Z</time>
      </trkpt>
      <trkpt lat="43.55709" lon="3.02288">
        <ele>551.6</ele>
        <time>2017-04-16T10:49:54.000Z</time>
      </trkpt>
      <trkpt lat="43.55707" lon="3.02288">
        <ele>552.2</ele>
        <time>2017-04-16T10:49:56.000Z</time>
      </trkpt>
      <trkpt lat="43.55704" lon="3.02286">
        <ele>552.4</ele>
        <time>2017-04-16T10:49:58.000Z</time>
      </trkpt>
      <trkpt lat="43.55702" lon="3.02284">
        <ele>552.8</ele>
        <time>2017-04-16T10:50:00.000Z</time>
      </trkpt>
      <trkpt lat="43.55697" lon="3.02279">
        <ele>553.4</ele>
        <time>2017-04-16T10:50:05.000Z</time>
      </trkpt>
      <trkpt lat="43.55696" lon="3.02278">
        <ele>554</ele>
        <time>2017-04-16T10:50:07.000Z</time>
      </trkpt>
      <trkpt lat="43.55694" lon="3.02276">
        <ele>554.4</ele>
        <time>2017-04-16T10:50:09.000Z</time>
      </trkpt>
      <trkpt lat="43.55693" lon="3.02273">
        <ele>554.6</ele>
        <time>2017-04-16T10:50:11.000Z</time>
      </trkpt>
      <trkpt lat="43.55693" lon="3.02271">
        <ele>555</ele>
        <time>2017-04-16T10:50:13.000Z</time>
      </trkpt>
      <trkpt lat="43.55693" lon="3.02269">
        <ele>555.4</ele>
        <time>2017-04-16T10:50:15.000Z</time>
      </trkpt>
      <trkpt lat="43.55694" lon="3.02267">
        <ele>555.8</ele>
        <time>2017-04-16T10:50:17.000Z</time>
      </trkpt>
      <trkpt lat="43.55694" lon="3.02265">
        <ele>556.4</ele>
        <time>2017-04-16T10:50:19.000Z</time>
      </trkpt>
      <trkpt lat="43.55694" lon="3.02264">
        <ele>556.4</ele>
        <time>2017-04-16T10:50:20.000Z</time>
      </trkpt>
      <trkpt lat="43.55694" lon="3.02262">
        <ele>557</ele>
        <time>2017-04-16T10:50:24.000Z</time>
      </trkpt>
      <trkpt lat="43.55694" lon="3.02261">
        <ele>557.2</ele>
        <time>2017-04-16T10:50:25.000Z</time>
      </trkpt>
      <trkpt lat="43.55693" lon="3.02256">
        <ele>557.4</ele>
        <time>2017-04-16T10:50:27.000Z</time>
      </trkpt>
      <trkpt lat="43.55691" lon="3.02248">
        <ele>557.4</ele>
        <time>2017-04-16T10:50:30.000Z</time>
      </trkpt>
      <trkpt lat="43.55689" lon="3.02244">
        <ele>557.2</ele>
        <time>2017-04-16T10:50:31.000Z</time>
      </trkpt>
      <trkpt lat="43.55684" lon="3.02232">
        <ele>556.8</ele>
        <time>2017-04-16T10:50:34.000Z</time>
      </trkpt>
      <trkpt lat="43.55681" lon="3.02225">
        <ele>556.6</ele>
        <time>2017-04-16T10:50:36.000Z</time>
      </trkpt>
      <trkpt lat="43.55678" lon="3.02219">
        <ele>556.4</ele>
        <time>2017-04-16T10:50:38.000Z</time>
      </trkpt>
      <trkpt lat="43.55677" lon="3.02216">
        <ele>556</ele>
        <time>2017-04-16T10:50:39.000Z</time>
      </trkpt>
      <trkpt lat="43.55676" lon="3.02213">
        <ele>555.8</ele>
        <time>2017-04-16T10:50:40.000Z</time>
      </trkpt>
      <trkpt lat="43.55676" lon="3.02208">
        <ele>555.4</ele>
        <time>2017-04-16T10:50:42.000Z</time>
      </trkpt>
      <trkpt lat="43.55676" lon="3.02205">
        <ele>555.2</ele>
        <time>2017-04-16T10:50:43.000Z</time>
      </trkpt>
      <trkpt lat="43.55677" lon="3.02204">
        <ele>555.2</ele>
        <time>2017-04-16T10:50:44.000Z</time>
      </trkpt>
      <trkpt lat="43.55679" lon="3.022">
        <ele>554.8</ele>
        <time>2017-04-16T10:50:46.000Z</time>
      </trkpt>
      <trkpt lat="43.55679" lon="3.02196">
        <ele>554.6</ele>
        <time>2017-04-16T10:50:48.000Z</time>
      </trkpt>
      <trkpt lat="43.55676" lon="3.02167">
        <ele>554</ele>
        <time>2017-04-16T10:50:54.000Z</time>
      </trkpt>
      <trkpt lat="43.55672" lon="3.02155">
        <ele>553.4</ele>
        <time>2017-04-16T10:50:56.000Z</time>
      </trkpt>
      <trkpt lat="43.55668" lon="3.02146">
        <ele>553</ele>
        <time>2017-04-16T10:50:58.000Z</time>
      </trkpt>
      <trkpt lat="43.55664" lon="3.02139">
        <ele>552.8</ele>
        <time>2017-04-16T10:51:00.000Z</time>
      </trkpt>
      <trkpt lat="43.55661" lon="3.02135">
        <ele>552.4</ele>
        <time>2017-04-16T10:51:02.000Z</time>
      </trkpt>
      <trkpt lat="43.5566" lon="3.02132">
        <ele>552</ele>
        <time>2017-04-16T10:51:06.000Z</time>
      </trkpt>
      <trkpt lat="43.5566" lon="3.02132">
        <ele>552</ele>
        <time>2017-04-16T10:51:07.000Z</time>
      </trkpt>
      <trkpt lat="43.55661" lon="3.02131">
        <ele>551.8</ele>
        <time>2017-04-16T10:51:10.000Z</time>
      </trkpt>
      <trkpt lat="43.55662" lon="3.0213">
        <ele>551.6</ele>
        <time>2017-04-16T10:51:12.000Z</time>
      </trkpt>
      <trkpt lat="43.55661" lon="3.02127">
        <ele>551.6</ele>
        <time>2017-04-16T10:51:14.000Z</time>
      </trkpt>
      <trkpt lat="43.5566" lon="3.02124">
        <ele>551.6</ele>
        <time>2017-04-16T10:51:16.000Z</time>
      </trkpt>
      <trkpt lat="43.55659" lon="3.02117">
        <ele>551.4</ele>
        <time>2017-04-16T10:51:20.000Z</time>
      </trkpt>
      <trkpt lat="43.55655" lon="3.02108">
        <ele>551.4</ele>
        <time>2017-04-16T10:51:24.000Z</time>
      </trkpt>
      <trkpt lat="43.55641" lon="3.02085">
        <ele>551.2</ele>
        <time>2017-04-16T10:51:29.000Z</time>
      </trkpt>
      <trkpt lat="43.55638" lon="3.02081">
        <ele>550.8</ele>
        <time>2017-04-16T10:51:30.000Z</time>
      </trkpt>
      <trkpt lat="43.55627" lon="3.02064">
        <ele>549.6</ele>
        <time>2017-04-16T10:51:33.000Z</time>
      </trkpt>
      <trkpt lat="43.5562" lon="3.02055">
        <ele>548.6</ele>
        <time>2017-04-16T10:51:35.000Z</time>
      </trkpt>
      <trkpt lat="43.55615" lon="3.02049">
        <ele>547.8</ele>
        <time>2017-04-16T10:51:37.000Z</time>
      </trkpt>
      <trkpt lat="43.55612" lon="3.02046">
        <ele>547.2</ele>
        <time>2017-04-16T10:51:39.000Z</time>
      </trkpt>
      <trkpt lat="43.5561" lon="3.02044">
        <ele>546.8</ele>
        <time>2017-04-16T10:51:41.000Z</time>
      </trkpt>
      <trkpt lat="43.5561" lon="3.02043">
        <ele>546.6</ele>
        <time>2017-04-16T10:51:42.000Z</time>
      </trkpt>
      <trkpt lat="43.55609" lon="3.02042">
        <ele>545.8</ele>
        <time>2017-04-16T10:51:46.000Z</time>
      </trkpt>
      <trkpt lat="43.55611" lon="3.02036">
        <ele>545.4</ele>
        <time>2017-04-16T10:51:51.000Z</time>
      </trkpt>
      <trkpt lat="43.55611" lon="3.0203">
        <ele>545.4</ele>
        <time>2017-04-16T10:51:55.000Z</time>
      </trkpt>
      <trkpt lat="43.55611" lon="3.02028">
        <ele>545.4</ele>
        <time>2017-04-16T10:51:56.000Z</time>
      </trkpt>
      <trkpt lat="43.55608" lon="3.02023">
        <ele>545.8</ele>
        <time>2017-04-16T10:51:59.000Z</time>
      </trkpt>
      <trkpt lat="43.55607" lon="3.02021">
        <ele>546</ele>
        <time>2017-04-16T10:52:01.000Z</time>
      </trkpt>
      <trkpt lat="43.55607" lon="3.0202">
        <ele>546.4</ele>
        <time>2017-04-16T10:52:02.000Z</time>
      </trkpt>
      <trkpt lat="43.55607" lon="3.02018">
        <ele>546.8</ele>
        <time>2017-04-16T10:52:04.000Z</time>
      </trkpt>
      <trkpt lat="43.55608" lon="3.02017">
        <ele>547.2</ele>
        <time>2017-04-16T10:52:06.000Z</time>
      </trkpt>
      <trkpt lat="43.55608" lon="3.02015">
        <ele>547.6</ele>
        <time>2017-04-16T10:52:08.000Z</time>
      </trkpt>
      <trkpt lat="43.55608" lon="3.02013">
        <ele>547.8</ele>
        <time>2017-04-16T10:52:10.000Z</time>
      </trkpt>
      <trkpt lat="43.55608" lon="3.02012">
        <ele>548</ele>
        <time>2017-04-16T10:52:13.000Z</time>
      </trkpt>
      <trkpt lat="43.55609" lon="3.02013">
        <ele>549.4</ele>
        <time>2017-04-16T10:52:22.000Z</time>
      </trkpt>
      <trkpt lat="43.55609" lon="3.02012">
        <ele>549.4</ele>
        <time>2017-04-16T10:52:23.000Z</time>
      </trkpt>
      <trkpt lat="43.5561" lon="3.02011">
        <ele>549.6</ele>
        <time>2017-04-16T10:52:24.000Z</time>
      </trkpt>
      <trkpt lat="43.5561" lon="3.0201">
        <ele>549.8</ele>
        <time>2017-04-16T10:52:25.000Z</time>
      </trkpt>
      <trkpt lat="43.55611" lon="3.02008">
        <ele>550</ele>
        <time>2017-04-16T10:52:27.000Z</time>
      </trkpt>
      <trkpt lat="43.55611" lon="3.02006">
        <ele>550.2</ele>
        <time>2017-04-16T10:52:29.000Z</time>
      </trkpt>
      <trkpt lat="43.55612" lon="3.02002">
        <ele>550.8</ele>
        <time>2017-04-16T10:52:42.000Z</time>
      </trkpt>
      <trkpt lat="43.55613" lon="3.02001">
        <ele>550.8</ele>
        <time>2017-04-16T10:52:44.000Z</time>
      </trkpt>
      <trkpt lat="43.55613" lon="3.02001">
        <ele>552.8</ele>
        <time>2017-04-16T10:53:33.000Z</time>
      </trkpt>
      <trkpt lat="43.55614" lon="3.02">
        <ele>553</ele>
        <time>2017-04-16T10:53:34.000Z</time>
      </trkpt>
      <trkpt lat="43.55614" lon="3.02">
        <ele>553</ele>
        <time>2017-04-16T10:53:35.000Z</time>
      </trkpt>
      <trkpt lat="43.55615" lon="3.01999">
        <ele>553</ele>
        <time>2017-04-16T10:53:36.000Z</time>
      </trkpt>
      <trkpt lat="43.55616" lon="3.01998">
        <ele>553</ele>
        <time>2017-04-16T10:53:38.000Z</time>
      </trkpt>
      <trkpt lat="43.55616" lon="3.01998">
        <ele>553</ele>
        <time>2017-04-16T10:53:39.000Z</time>
      </trkpt>
      <trkpt lat="43.55607" lon="3.02002">
        <ele>552.6</ele>
        <time>2017-04-16T10:54:18.000Z</time>
      </trkpt>
      <trkpt lat="43.55607" lon="3.02003">
        <ele>552.6</ele>
        <time>2017-04-16T10:54:19.000Z</time>
      </trkpt>
      <trkpt lat="43.55606" lon="3.02003">
        <ele>552.6</ele>
        <time>2017-04-16T10:54:20.000Z</time>
      </trkpt>
      <trkpt lat="43.55607" lon="3.02003">
        <ele>552.6</ele>
        <time>2017-04-16T10:54:48.000Z</time>
      </trkpt>
      <trkpt lat="43.55606" lon="3.02003">
        <ele>552.6</ele>
        <time>2017-04-16T10:54:49.000Z</time>
      </trkpt>
      <trkpt lat="43.55606" lon="3.02002">
        <ele>552.8</ele>
        <time>2017-04-16T10:54:50.000Z</time>
      </trkpt>
      <trkpt lat="43.55609" lon="3.01999">
        <ele>551.4</ele>
        <time>2017-04-16T10:55:25.000Z</time>
      </trkpt>
      <trkpt lat="43.5561" lon="3.02">
        <ele>551.4</ele>
        <time>2017-04-16T10:55:26.000Z</time>
      </trkpt>
      <trkpt lat="43.55611" lon="3.02001">
        <ele>551.4</ele>
        <time>2017-04-16T10:55:27.000Z</time>
      </trkpt>
      <trkpt lat="43.55612" lon="3.02002">
        <ele>551.2</ele>
        <time>2017-04-16T10:55:28.000Z</time>
      </trkpt>
      <trkpt lat="43.55612" lon="3.02004">
        <ele>551.2</ele>
        <time>2017-04-16T10:55:30.000Z</time>
      </trkpt>
      <trkpt lat="43.55618" lon="3.01999">
        <ele>551</ele>
        <time>2017-04-16T10:55:58.000Z</time>
      </trkpt>
      <trkpt lat="43.5562" lon="3.01999">
        <ele>551</ele>
        <time>2017-04-16T10:56:00.000Z</time>
      </trkpt>
      <trkpt lat="43.55622" lon="3.01999">
        <ele>551</ele>
        <time>2017-04-16T10:56:02.000Z</time>
      </trkpt>
      <trkpt lat="43.55625" lon="3.01998">
        <ele>550.8</ele>
        <time>2017-04-16T10:56:22.000Z</time>
      </trkpt>
      <trkpt lat="43.55627" lon="3.01989">
        <ele>550.8</ele>
        <time>2017-04-16T10:56:28.000Z</time>
      </trkpt>
      <trkpt lat="43.55627" lon="3.01989">
        <ele>550.8</ele>
        <time>2017-04-16T10:56:30.000Z</time>
      </trkpt>
      <trkpt lat="43.5563" lon="3.01986">
        <ele>550.8</ele>
        <time>2017-04-16T10:56:41.000Z</time>
      </trkpt>
      <trkpt lat="43.55633" lon="3.01984">
        <ele>550.8</ele>
        <time>2017-04-16T10:56:42.000Z</time>
      </trkpt>
      <trkpt lat="43.55659" lon="3.01952">
        <ele>550.8</ele>
        <time>2017-04-16T10:56:46.000Z</time>
      </trkpt>
      <trkpt lat="43.55665" lon="3.01945">
        <ele>550.6</ele>
        <time>2017-04-16T10:56:47.000Z</time>
      </trkpt>
      <trkpt lat="43.55668" lon="3.0194">
        <ele>550.2</ele>
        <time>2017-04-16T10:56:48.000Z</time>
      </trkpt>
      <trkpt lat="43.55677" lon="3.01931">
        <ele>549.2</ele>
        <time>2017-04-16T10:56:50.000Z</time>
      </trkpt>
      <trkpt lat="43.55687" lon="3.01911">
        <ele>547</ele>
        <time>2017-04-16T10:56:53.000Z</time>
      </trkpt>
      <trkpt lat="43.55689" lon="3.01907">
        <ele>546.2</ele>
        <time>2017-04-16T10:56:54.000Z</time>
      </trkpt>
      <trkpt lat="43.55692" lon="3.01903">
        <ele>545.4</ele>
        <time>2017-04-16T10:56:55.000Z</time>
      </trkpt>
      <trkpt lat="43.55699" lon="3.01899">
        <ele>543.4</ele>
        <time>2017-04-16T10:56:57.000Z</time>
      </trkpt>
      <trkpt lat="43.55702" lon="3.01898">
        <ele>541.4</ele>
        <time>2017-04-16T10:56:59.000Z</time>
      </trkpt>
      <trkpt lat="43.55707" lon="3.01896">
        <ele>539</ele>
        <time>2017-04-16T10:57:01.000Z</time>
      </trkpt>
      <trkpt lat="43.55713" lon="3.0189">
        <ele>538</ele>
        <time>2017-04-16T10:57:02.000Z</time>
      </trkpt>
      <trkpt lat="43.55726" lon="3.01878">
        <ele>535.4</ele>
        <time>2017-04-16T10:57:04.000Z</time>
      </trkpt>
      <trkpt lat="43.55743" lon="3.01858">
        <ele>531.4</ele>
        <time>2017-04-16T10:57:07.000Z</time>
      </trkpt>
      <trkpt lat="43.5575" lon="3.01851">
        <ele>530.2</ele>
        <time>2017-04-16T10:57:08.000Z</time>
      </trkpt>
      <trkpt lat="43.55756" lon="3.01847">
        <ele>528.8</ele>
        <time>2017-04-16T10:57:09.000Z</time>
      </trkpt>
      <trkpt lat="43.55761" lon="3.01846">
        <ele>527.6</ele>
        <time>2017-04-16T10:57:10.000Z</time>
      </trkpt>
      <trkpt lat="43.55766" lon="3.01842">
        <ele>524.6</ele>
        <time>2017-04-16T10:57:13.000Z</time>
      </trkpt>
      <trkpt lat="43.55766" lon="3.01839">
        <ele>523.8</ele>
        <time>2017-04-16T10:57:14.000Z</time>
      </trkpt>
      <trkpt lat="43.55767" lon="3.01836">
        <ele>523</ele>
        <time>2017-04-16T10:57:15.000Z</time>
      </trkpt>
      <trkpt lat="43.55769" lon="3.01835">
        <ele>522.4</ele>
        <time>2017-04-16T10:57:16.000Z</time>
      </trkpt>
      <trkpt lat="43.5577" lon="3.01834">
        <ele>521.8</ele>
        <time>2017-04-16T10:57:17.000Z</time>
      </trkpt>
      <trkpt lat="43.55774" lon="3.01831">
        <ele>521</ele>
        <time>2017-04-16T10:57:19.000Z</time>
      </trkpt>
      <trkpt lat="43.55777" lon="3.01828">
        <ele>520.6</ele>
        <time>2017-04-16T10:57:21.000Z</time>
      </trkpt>
      <trkpt lat="43.55781" lon="3.01824">
        <ele>520.2</ele>
        <time>2017-04-16T10:57:23.000Z</time>
      </trkpt>
      <trkpt lat="43.55784" lon="3.01818">
        <ele>520</ele>
        <time>2017-04-16T10:57:25.000Z</time>
      </trkpt>
      <trkpt lat="43.55785" lon="3.01814">
        <ele>520.2</ele>
        <time>2017-04-16T10:57:26.000Z</time>
      </trkpt>
      <trkpt lat="43.55785" lon="3.01798">
        <ele>520.2</ele>
        <time>2017-04-16T10:57:29.000Z</time>
      </trkpt>
      <trkpt lat="43.55786" lon="3.01792">
        <ele>520.4</ele>
        <time>2017-04-16T10:57:30.000Z</time>
      </trkpt>
      <trkpt lat="43.55786" lon="3.01787">
        <ele>520.4</ele>
        <time>2017-04-16T10:57:31.000Z</time>
      </trkpt>
      <trkpt lat="43.55787" lon="3.01774">
        <ele>520.4</ele>
        <time>2017-04-16T10:57:33.000Z</time>
      </trkpt>
      <trkpt lat="43.55785" lon="3.01765">
        <ele>520.4</ele>
        <time>2017-04-16T10:57:34.000Z</time>
      </trkpt>
      <trkpt lat="43.55781" lon="3.01746">
        <ele>520.4</ele>
        <time>2017-04-16T10:57:36.000Z</time>
      </trkpt>
      <trkpt lat="43.55779" lon="3.01727">
        <ele>520</ele>
        <time>2017-04-16T10:57:38.000Z</time>
      </trkpt>
      <trkpt lat="43.55779" lon="3.01717">
        <ele>519.6</ele>
        <time>2017-04-16T10:57:39.000Z</time>
      </trkpt>
      <trkpt lat="43.55783" lon="3.01702">
        <ele>519</ele>
        <time>2017-04-16T10:57:41.000Z</time>
      </trkpt>
      <trkpt lat="43.55786" lon="3.01698">
        <ele>518.6</ele>
        <time>2017-04-16T10:57:42.000Z</time>
      </trkpt>
      <trkpt lat="43.55796" lon="3.017">
        <ele>517.4</ele>
        <time>2017-04-16T10:57:44.000Z</time>
      </trkpt>
      <trkpt lat="43.55802" lon="3.01703">
        <ele>516.8</ele>
        <time>2017-04-16T10:57:45.000Z</time>
      </trkpt>
      <trkpt lat="43.55808" lon="3.01707">
        <ele>515.8</ele>
        <time>2017-04-16T10:57:46.000Z</time>
      </trkpt>
      <trkpt lat="43.55815" lon="3.01711">
        <ele>515</ele>
        <time>2017-04-16T10:57:47.000Z</time>
      </trkpt>
      <trkpt lat="43.55822" lon="3.01712">
        <ele>514</ele>
        <time>2017-04-16T10:57:48.000Z</time>
      </trkpt>
      <trkpt lat="43.55829" lon="3.01712">
        <ele>512.6</ele>
        <time>2017-04-16T10:57:49.000Z</time>
      </trkpt>
      <trkpt lat="43.55834" lon="3.01709">
        <ele>511.4</ele>
        <time>2017-04-16T10:57:50.000Z</time>
      </trkpt>
      <trkpt lat="43.55841" lon="3.01705">
        <ele>510</ele>
        <time>2017-04-16T10:57:51.000Z</time>
      </trkpt>
      <trkpt lat="43.55847" lon="3.017">
        <ele>508.4</ele>
        <time>2017-04-16T10:57:52.000Z</time>
      </trkpt>
      <trkpt lat="43.55853" lon="3.01694">
        <ele>506.8</ele>
        <time>2017-04-16T10:57:53.000Z</time>
      </trkpt>
      <trkpt lat="43.55859" lon="3.01687">
        <ele>505.4</ele>
        <time>2017-04-16T10:57:54.000Z</time>
      </trkpt>
      <trkpt lat="43.55861" lon="3.01677">
        <ele>503.8</ele>
        <time>2017-04-16T10:57:55.000Z</time>
      </trkpt>
      <trkpt lat="43.55865" lon="3.01647">
        <ele>500.6</ele>
        <time>2017-04-16T10:57:57.000Z</time>
      </trkpt>
      <trkpt lat="43.55868" lon="3.01631">
        <ele>499.2</ele>
        <time>2017-04-16T10:57:58.000Z</time>
      </trkpt>
      <trkpt lat="43.55878" lon="3.01607">
        <ele>494.8</ele>
        <time>2017-04-16T10:58:01.000Z</time>
      </trkpt>
      <trkpt lat="43.55895" lon="3.01603">
        <ele>491.8</ele>
        <time>2017-04-16T10:58:03.000Z</time>
      </trkpt>
      <trkpt lat="43.55904" lon="3.01604">
        <ele>490.4</ele>
        <time>2017-04-16T10:58:04.000Z</time>
      </trkpt>
      <trkpt lat="43.55912" lon="3.01607">
        <ele>488.8</ele>
        <time>2017-04-16T10:58:05.000Z</time>
      </trkpt>
      <trkpt lat="43.55926" lon="3.01614">
        <ele>485.8</ele>
        <time>2017-04-16T10:58:07.000Z</time>
      </trkpt>
      <trkpt lat="43.55934" lon="3.01616">
        <ele>484.2</ele>
        <time>2017-04-16T10:58:08.000Z</time>
      </trkpt>
      <trkpt lat="43.55956" lon="3.01611">
        <ele>479.4</ele>
        <time>2017-04-16T10:58:11.000Z</time>
      </trkpt>
      <trkpt lat="43.55962" lon="3.01608">
        <ele>478</ele>
        <time>2017-04-16T10:58:12.000Z</time>
      </trkpt>
      <trkpt lat="43.55967" lon="3.01603">
        <ele>476.4</ele>
        <time>2017-04-16T10:58:13.000Z</time>
      </trkpt>
      <trkpt lat="43.55972" lon="3.01588">
        <ele>473.4</ele>
        <time>2017-04-16T10:58:15.000Z</time>
      </trkpt>
      <trkpt lat="43.55972" lon="3.01579">
        <ele>472</ele>
        <time>2017-04-16T10:58:16.000Z</time>
      </trkpt>
      <trkpt lat="43.55972" lon="3.01568">
        <ele>470.4</ele>
        <time>2017-04-16T10:58:17.000Z</time>
      </trkpt>
      <trkpt lat="43.55974" lon="3.01558">
        <ele>469</ele>
        <time>2017-04-16T10:58:18.000Z</time>
      </trkpt>
      <trkpt lat="43.55976" lon="3.01549">
        <ele>467.6</ele>
        <time>2017-04-16T10:58:19.000Z</time>
      </trkpt>
      <trkpt lat="43.55979" lon="3.01542">
        <ele>466.4</ele>
        <time>2017-04-16T10:58:20.000Z</time>
      </trkpt>
      <trkpt lat="43.55982" lon="3.01538">
        <ele>465</ele>
        <time>2017-04-16T10:58:21.000Z</time>
      </trkpt>
      <trkpt lat="43.55985" lon="3.01534">
        <ele>462.2</ele>
        <time>2017-04-16T10:58:23.000Z</time>
      </trkpt>
      <trkpt lat="43.55987" lon="3.01535">
        <ele>460.8</ele>
        <time>2017-04-16T10:58:24.000Z</time>
      </trkpt>
      <trkpt lat="43.55989" lon="3.01538">
        <ele>459.4</ele>
        <time>2017-04-16T10:58:25.000Z</time>
      </trkpt>
      <trkpt lat="43.55995" lon="3.01552">
        <ele>456.8</ele>
        <time>2017-04-16T10:58:27.000Z</time>
      </trkpt>
      <trkpt lat="43.55996" lon="3.01561">
        <ele>455.4</ele>
        <time>2017-04-16T10:58:28.000Z</time>
      </trkpt>
      <trkpt lat="43.55997" lon="3.01571">
        <ele>454</ele>
        <time>2017-04-16T10:58:30.000Z</time>
      </trkpt>
      <trkpt lat="43.55996" lon="3.01576">
        <ele>451.4</ele>
        <time>2017-04-16T10:58:31.000Z</time>
      </trkpt>
      <trkpt lat="43.55998" lon="3.01573">
        <ele>448.6</ele>
        <time>2017-04-16T10:58:33.000Z</time>
      </trkpt>
      <trkpt lat="43.56" lon="3.01571">
        <ele>447.2</ele>
        <time>2017-04-16T10:58:34.000Z</time>
      </trkpt>
      <trkpt lat="43.56001" lon="3.01571">
        <ele>446.2</ele>
        <time>2017-04-16T10:58:35.000Z</time>
      </trkpt>
      <trkpt lat="43.56004" lon="3.01572">
        <ele>444</ele>
        <time>2017-04-16T10:58:37.000Z</time>
      </trkpt>
      <trkpt lat="43.56006" lon="3.0157">
        <ele>442.8</ele>
        <time>2017-04-16T10:58:38.000Z</time>
      </trkpt>
      <trkpt lat="43.56008" lon="3.01566">
        <ele>442</ele>
        <time>2017-04-16T10:58:39.000Z</time>
      </trkpt>
      <trkpt lat="43.5601" lon="3.01559">
        <ele>440.8</ele>
        <time>2017-04-16T10:58:40.000Z</time>
      </trkpt>
      <trkpt lat="43.56013" lon="3.0155">
        <ele>439.8</ele>
        <time>2017-04-16T10:58:41.000Z</time>
      </trkpt>
      <trkpt lat="43.56021" lon="3.01523">
        <ele>436.4</ele>
        <time>2017-04-16T10:58:44.000Z</time>
      </trkpt>
      <trkpt lat="43.56023" lon="3.01516">
        <ele>435.4</ele>
        <time>2017-04-16T10:58:45.000Z</time>
      </trkpt>
      <trkpt lat="43.56033" lon="3.01502">
        <ele>432.6</ele>
        <time>2017-04-16T10:58:48.000Z</time>
      </trkpt>
      <trkpt lat="43.56034" lon="3.01497">
        <ele>431.2</ele>
        <time>2017-04-16T10:58:50.000Z</time>
      </trkpt>
      <trkpt lat="43.56034" lon="3.01495">
        <ele>430.6</ele>
        <time>2017-04-16T10:58:51.000Z</time>
      </trkpt>
      <trkpt lat="43.56035" lon="3.01493">
        <ele>430.2</ele>
        <time>2017-04-16T10:58:52.000Z</time>
      </trkpt>
      <trkpt lat="43.56038" lon="3.0149">
        <ele>429</ele>
        <time>2017-04-16T10:58:55.000Z</time>
      </trkpt>
      <trkpt lat="43.5604" lon="3.01489">
        <ele>429</ele>
        <time>2017-04-16T10:58:56.000Z</time>
      </trkpt>
      <trkpt lat="43.56043" lon="3.01486">
        <ele>428.8</ele>
        <time>2017-04-16T10:58:57.000Z</time>
      </trkpt>
      <trkpt lat="43.56048" lon="3.01478">
        <ele>428.6</ele>
        <time>2017-04-16T10:58:59.000Z</time>
      </trkpt>
      <trkpt lat="43.56053" lon="3.01471">
        <ele>428.4</ele>
        <time>2017-04-16T10:59:01.000Z</time>
      </trkpt>
      <trkpt lat="43.56057" lon="3.01467">
        <ele>428.6</ele>
        <time>2017-04-16T10:59:03.000Z</time>
      </trkpt>
      <trkpt lat="43.56058" lon="3.01464">
        <ele>428.8</ele>
        <time>2017-04-16T10:59:04.000Z</time>
      </trkpt>
      <trkpt lat="43.56058" lon="3.01461">
        <ele>428.8</ele>
        <time>2017-04-16T10:59:05.000Z</time>
      </trkpt>
      <trkpt lat="43.56062" lon="3.01459">
        <ele>429</ele>
        <time>2017-04-16T10:59:07.000Z</time>
      </trkpt>
      <trkpt lat="43.56063" lon="3.01459">
        <ele>429.2</ele>
        <time>2017-04-16T10:59:08.000Z</time>
      </trkpt>
      <trkpt lat="43.56065" lon="3.0146">
        <ele>429.4</ele>
        <time>2017-04-16T10:59:09.000Z</time>
      </trkpt>
      <trkpt lat="43.56067" lon="3.01462">
        <ele>430</ele>
        <time>2017-04-16T10:59:11.000Z</time>
      </trkpt>
      <trkpt lat="43.56069" lon="3.01463">
        <ele>430.2</ele>
        <time>2017-04-16T10:59:12.000Z</time>
      </trkpt>
      <trkpt lat="43.56076" lon="3.01462">
        <ele>430.6</ele>
        <time>2017-04-16T10:59:15.000Z</time>
      </trkpt>
      <trkpt lat="43.56078" lon="3.01459">
        <ele>430.6</ele>
        <time>2017-04-16T10:59:16.000Z</time>
      </trkpt>
      <trkpt lat="43.5608" lon="3.01457">
        <ele>430.4</ele>
        <time>2017-04-16T10:59:17.000Z</time>
      </trkpt>
      <trkpt lat="43.56093" lon="3.0145">
        <ele>430.4</ele>
        <time>2017-04-16T10:59:20.000Z</time>
      </trkpt>
      <trkpt lat="43.56099" lon="3.01446">
        <ele>430</ele>
        <time>2017-04-16T10:59:21.000Z</time>
      </trkpt>
      <trkpt lat="43.56109" lon="3.01438">
        <ele>429.6</ele>
        <time>2017-04-16T10:59:23.000Z</time>
      </trkpt>
      <trkpt lat="43.56113" lon="3.01433">
        <ele>429.4</ele>
        <time>2017-04-16T10:59:24.000Z</time>
      </trkpt>
      <trkpt lat="43.56118" lon="3.01428">
        <ele>429.2</ele>
        <time>2017-04-16T10:59:25.000Z</time>
      </trkpt>
      <trkpt lat="43.56123" lon="3.01424">
        <ele>428.8</ele>
        <time>2017-04-16T10:59:26.000Z</time>
      </trkpt>
      <trkpt lat="43.5613" lon="3.0142">
        <ele>428.4</ele>
        <time>2017-04-16T10:59:27.000Z</time>
      </trkpt>
      <trkpt lat="43.56145" lon="3.01421">
        <ele>427.4</ele>
        <time>2017-04-16T10:59:29.000Z</time>
      </trkpt>
      <trkpt lat="43.56158" lon="3.01426">
        <ele>426.4</ele>
        <time>2017-04-16T10:59:31.000Z</time>
      </trkpt>
      <trkpt lat="43.56167" lon="3.01436">
        <ele>425.6</ele>
        <time>2017-04-16T10:59:33.000Z</time>
      </trkpt>
      <trkpt lat="43.56169" lon="3.0144">
        <ele>425.2</ele>
        <time>2017-04-16T10:59:34.000Z</time>
      </trkpt>
      <trkpt lat="43.56174" lon="3.01443">
        <ele>425</ele>
        <time>2017-04-16T10:59:35.000Z</time>
      </trkpt>
      <trkpt lat="43.56178" lon="3.01446">
        <ele>424.6</ele>
        <time>2017-04-16T10:59:36.000Z</time>
      </trkpt>
      <trkpt lat="43.56183" lon="3.01448">
        <ele>424.4</ele>
        <time>2017-04-16T10:59:37.000Z</time>
      </trkpt>
      <trkpt lat="43.56188" lon="3.01449">
        <ele>424</ele>
        <time>2017-04-16T10:59:38.000Z</time>
      </trkpt>
      <trkpt lat="43.56196" lon="3.01453">
        <ele>423.2</ele>
        <time>2017-04-16T10:59:40.000Z</time>
      </trkpt>
      <trkpt lat="43.56202" lon="3.01456">
        <ele>422.6</ele>
        <time>2017-04-16T10:59:42.000Z</time>
      </trkpt>
      <trkpt lat="43.56206" lon="3.01454">
        <ele>422.2</ele>
        <time>2017-04-16T10:59:44.000Z</time>
      </trkpt>
      <trkpt lat="43.56208" lon="3.01452">
        <ele>421.8</ele>
        <time>2017-04-16T10:59:45.000Z</time>
      </trkpt>
      <trkpt lat="43.56214" lon="3.01448">
        <ele>421</ele>
        <time>2017-04-16T10:59:47.000Z</time>
      </trkpt>
      <trkpt lat="43.56224" lon="3.01444">
        <ele>420.6</ele>
        <time>2017-04-16T10:59:49.000Z</time>
      </trkpt>
      <trkpt lat="43.56232" lon="3.01443">
        <ele>419.8</ele>
        <time>2017-04-16T10:59:51.000Z</time>
      </trkpt>
      <trkpt lat="43.56237" lon="3.01445">
        <ele>419.4</ele>
        <time>2017-04-16T10:59:52.000Z</time>
      </trkpt>
      <trkpt lat="43.56248" lon="3.01449">
        <ele>418.6</ele>
        <time>2017-04-16T10:59:54.000Z</time>
      </trkpt>
      <trkpt lat="43.56266" lon="3.01449">
        <ele>417</ele>
        <time>2017-04-16T10:59:57.000Z</time>
      </trkpt>
      <trkpt lat="43.5627" lon="3.01447">
        <ele>416.6</ele>
        <time>2017-04-16T10:59:58.000Z</time>
      </trkpt>
      <trkpt lat="43.56274" lon="3.01445">
        <ele>416</ele>
        <time>2017-04-16T10:59:59.000Z</time>
      </trkpt>
      <trkpt lat="43.56278" lon="3.01439">
        <ele>414.8</ele>
        <time>2017-04-16T11:00:01.000Z</time>
      </trkpt>
      <trkpt lat="43.56283" lon="3.01434">
        <ele>414</ele>
        <time>2017-04-16T11:00:03.000Z</time>
      </trkpt>
      <trkpt lat="43.56289" lon="3.01432">
        <ele>413.2</ele>
        <time>2017-04-16T11:00:05.000Z</time>
      </trkpt>
      <trkpt lat="43.56293" lon="3.01428">
        <ele>412.6</ele>
        <time>2017-04-16T11:00:07.000Z</time>
      </trkpt>
      <trkpt lat="43.56299" lon="3.01423">
        <ele>412</ele>
        <time>2017-04-16T11:00:10.000Z</time>
      </trkpt>
      <trkpt lat="43.56315" lon="3.01411">
        <ele>411</ele>
        <time>2017-04-16T11:00:17.000Z</time>
      </trkpt>
      <trkpt lat="43.56318" lon="3.01408">
        <ele>411</ele>
        <time>2017-04-16T11:00:18.000Z</time>
      </trkpt>
      <trkpt lat="43.5634" lon="3.01391">
        <ele>410.6</ele>
        <time>2017-04-16T11:00:23.000Z</time>
      </trkpt>
      <trkpt lat="43.56345" lon="3.01385">
        <ele>410.4</ele>
        <time>2017-04-16T11:00:24.000Z</time>
      </trkpt>
      <trkpt lat="43.5635" lon="3.0138">
        <ele>410.2</ele>
        <time>2017-04-16T11:00:25.000Z</time>
      </trkpt>
      <trkpt lat="43.56355" lon="3.01374">
        <ele>410</ele>
        <time>2017-04-16T11:00:26.000Z</time>
      </trkpt>
      <trkpt lat="43.56365" lon="3.01366">
        <ele>409.2</ele>
        <time>2017-04-16T11:00:28.000Z</time>
      </trkpt>
      <trkpt lat="43.56371" lon="3.01363">
        <ele>408.8</ele>
        <time>2017-04-16T11:00:29.000Z</time>
      </trkpt>
      <trkpt lat="43.56378" lon="3.01359">
        <ele>408.6</ele>
        <time>2017-04-16T11:00:30.000Z</time>
      </trkpt>
      <trkpt lat="43.56383" lon="3.01356">
        <ele>408</ele>
        <time>2017-04-16T11:00:31.000Z</time>
      </trkpt>
      <trkpt lat="43.56388" lon="3.01351">
        <ele>407.4</ele>
        <time>2017-04-16T11:00:32.000Z</time>
      </trkpt>
      <trkpt lat="43.56393" lon="3.01345">
        <ele>406.8</ele>
        <time>2017-04-16T11:00:33.000Z</time>
      </trkpt>
      <trkpt lat="43.56397" lon="3.01341">
        <ele>406.2</ele>
        <time>2017-04-16T11:00:34.000Z</time>
      </trkpt>
      <trkpt lat="43.564" lon="3.01339">
        <ele>405.8</ele>
        <time>2017-04-16T11:00:35.000Z</time>
      </trkpt>
      <trkpt lat="43.56403" lon="3.01339">
        <ele>405</ele>
        <time>2017-04-16T11:00:36.000Z</time>
      </trkpt>
      <trkpt lat="43.56408" lon="3.01339">
        <ele>403.8</ele>
        <time>2017-04-16T11:00:38.000Z</time>
      </trkpt>
      <trkpt lat="43.5641" lon="3.01336">
        <ele>403.2</ele>
        <time>2017-04-16T11:00:39.000Z</time>
      </trkpt>
      <trkpt lat="43.56414" lon="3.01321">
        <ele>402</ele>
        <time>2017-04-16T11:00:42.000Z</time>
      </trkpt>
      <trkpt lat="43.56416" lon="3.01317">
        <ele>401.6</ele>
        <time>2017-04-16T11:00:43.000Z</time>
      </trkpt>
      <trkpt lat="43.56421" lon="3.01314">
        <ele>401.2</ele>
        <time>2017-04-16T11:00:44.000Z</time>
      </trkpt>
      <trkpt lat="43.56431" lon="3.01314">
        <ele>400.6</ele>
        <time>2017-04-16T11:00:47.000Z</time>
      </trkpt>
      <trkpt lat="43.56438" lon="3.01303">
        <ele>399.8</ele>
        <time>2017-04-16T11:00:51.000Z</time>
      </trkpt>
      <trkpt lat="43.56436" lon="3.013">
        <ele>399.6</ele>
        <time>2017-04-16T11:00:52.000Z</time>
      </trkpt>
      <trkpt lat="43.5643" lon="3.01297">
        <ele>399.4</ele>
        <time>2017-04-16T11:00:54.000Z</time>
      </trkpt>
      <trkpt lat="43.56422" lon="3.01285">
        <ele>399</ele>
        <time>2017-04-16T11:00:57.000Z</time>
      </trkpt>
      <trkpt lat="43.56418" lon="3.01276">
        <ele>398.4</ele>
        <time>2017-04-16T11:00:59.000Z</time>
      </trkpt>
      <trkpt lat="43.56417" lon="3.01271">
        <ele>397.8</ele>
        <time>2017-04-16T11:01:00.000Z</time>
      </trkpt>
      <trkpt lat="43.56415" lon="3.01265">
        <ele>397.2</ele>
        <time>2017-04-16T11:01:01.000Z</time>
      </trkpt>
      <trkpt lat="43.56412" lon="3.01255">
        <ele>396</ele>
        <time>2017-04-16T11:01:03.000Z</time>
      </trkpt>
      <trkpt lat="43.56409" lon="3.01251">
        <ele>395</ele>
        <time>2017-04-16T11:01:04.000Z</time>
      </trkpt>
      <trkpt lat="43.56404" lon="3.01245">
        <ele>393</ele>
        <time>2017-04-16T11:01:06.000Z</time>
      </trkpt>
      <trkpt lat="43.56397" lon="3.0124">
        <ele>390.8</ele>
        <time>2017-04-16T11:01:08.000Z</time>
      </trkpt>
      <trkpt lat="43.56392" lon="3.01237">
        <ele>389.6</ele>
        <time>2017-04-16T11:01:09.000Z</time>
      </trkpt>
      <trkpt lat="43.56381" lon="3.01227">
        <ele>385.6</ele>
        <time>2017-04-16T11:01:12.000Z</time>
      </trkpt>
      <trkpt lat="43.56377" lon="3.01224">
        <ele>384.2</ele>
        <time>2017-04-16T11:01:13.000Z</time>
      </trkpt>
      <trkpt lat="43.56372" lon="3.01219">
        <ele>381.2</ele>
        <time>2017-04-16T11:01:15.000Z</time>
      </trkpt>
      <trkpt lat="43.56365" lon="3.01214">
        <ele>378</ele>
        <time>2017-04-16T11:01:17.000Z</time>
      </trkpt>
      <trkpt lat="43.56359" lon="3.01212">
        <ele>375</ele>
        <time>2017-04-16T11:01:19.000Z</time>
      </trkpt>
      <trkpt lat="43.56354" lon="3.0121">
        <ele>372.2</ele>
        <time>2017-04-16T11:01:21.000Z</time>
      </trkpt>
      <trkpt lat="43.56351" lon="3.0121">
        <ele>370.8</ele>
        <time>2017-04-16T11:01:22.000Z</time>
      </trkpt>
      <trkpt lat="43.56349" lon="3.01209">
        <ele>369.2</ele>
        <time>2017-04-16T11:01:23.000Z</time>
      </trkpt>
      <trkpt lat="43.56348" lon="3.01208">
        <ele>367.8</ele>
        <time>2017-04-16T11:01:24.000Z</time>
      </trkpt>
      <trkpt lat="43.56349" lon="3.01206">
        <ele>363.8</ele>
        <time>2017-04-16T11:01:27.000Z</time>
      </trkpt>
      <trkpt lat="43.56348" lon="3.01205">
        <ele>362.4</ele>
        <time>2017-04-16T11:01:28.000Z</time>
      </trkpt>
      <trkpt lat="43.56346" lon="3.01204">
        <ele>361.2</ele>
        <time>2017-04-16T11:01:29.000Z</time>
      </trkpt>
      <trkpt lat="43.56343" lon="3.01199">
        <ele>359</ele>
        <time>2017-04-16T11:01:31.000Z</time>
      </trkpt>
      <trkpt lat="43.56339" lon="3.01193">
        <ele>356.6</ele>
        <time>2017-04-16T11:01:33.000Z</time>
      </trkpt>
      <trkpt lat="43.56333" lon="3.01186">
        <ele>354.2</ele>
        <time>2017-04-16T11:01:35.000Z</time>
      </trkpt>
      <trkpt lat="43.5633" lon="3.01179">
        <ele>351.4</ele>
        <time>2017-04-16T11:01:37.000Z</time>
      </trkpt>
      <trkpt lat="43.56328" lon="3.01176">
        <ele>349.8</ele>
        <time>2017-04-16T11:01:38.000Z</time>
      </trkpt>
      <trkpt lat="43.56326" lon="3.0117">
        <ele>346.8</ele>
        <time>2017-04-16T11:01:40.000Z</time>
      </trkpt>
      <trkpt lat="43.56325" lon="3.01167">
        <ele>345.2</ele>
        <time>2017-04-16T11:01:41.000Z</time>
      </trkpt>
      <trkpt lat="43.56326" lon="3.01162">
        <ele>343.4</ele>
        <time>2017-04-16T11:01:42.000Z</time>
      </trkpt>
      <trkpt lat="43.56327" lon="3.01156">
        <ele>341.6</ele>
        <time>2017-04-16T11:01:43.000Z</time>
      </trkpt>
      <trkpt lat="43.56325" lon="3.01152">
        <ele>339.8</ele>
        <time>2017-04-16T11:01:44.000Z</time>
      </trkpt>
      <trkpt lat="43.56321" lon="3.01142">
        <ele>336.4</ele>
        <time>2017-04-16T11:01:46.000Z</time>
      </trkpt>
      <trkpt lat="43.56319" lon="3.01126">
        <ele>333.2</ele>
        <time>2017-04-16T11:01:48.000Z</time>
      </trkpt>
      <trkpt lat="43.56321" lon="3.01117">
        <ele>331.8</ele>
        <time>2017-04-16T11:01:49.000Z</time>
      </trkpt>
      <trkpt lat="43.56324" lon="3.01108">
        <ele>330.4</ele>
        <time>2017-04-16T11:01:50.000Z</time>
      </trkpt>
      <trkpt lat="43.56326" lon="3.01101">
        <ele>329.2</ele>
        <time>2017-04-16T11:01:51.000Z</time>
      </trkpt>
      <trkpt lat="43.56327" lon="3.01094">
        <ele>327.8</ele>
        <time>2017-04-16T11:01:52.000Z</time>
      </trkpt>
      <trkpt lat="43.56325" lon="3.01081">
        <ele>325.6</ele>
        <time>2017-04-16T11:01:54.000Z</time>
      </trkpt>
      <trkpt lat="43.56322" lon="3.01072">
        <ele>324.8</ele>
        <time>2017-04-16T11:01:55.000Z</time>
      </trkpt>
      <trkpt lat="43.56316" lon="3.01061">
        <ele>323.8</ele>
        <time>2017-04-16T11:01:56.000Z</time>
      </trkpt>
      <trkpt lat="43.56303" lon="3.01048">
        <ele>323.2</ele>
        <time>2017-04-16T11:01:57.000Z</time>
      </trkpt>
      <trkpt lat="43.56294" lon="3.01038">
        <ele>322.4</ele>
        <time>2017-04-16T11:01:58.000Z</time>
      </trkpt>
      <trkpt lat="43.56284" lon="3.01026">
        <ele>321.6</ele>
        <time>2017-04-16T11:01:59.000Z</time>
      </trkpt>
      <trkpt lat="43.56276" lon="3.01017">
        <ele>320.8</ele>
        <time>2017-04-16T11:02:00.000Z</time>
      </trkpt>
      <trkpt lat="43.56261" lon="3.00998">
        <ele>318.8</ele>
        <time>2017-04-16T11:02:02.000Z</time>
      </trkpt>
      <trkpt lat="43.56245" lon="3.00988">
        <ele>316.2</ele>
        <time>2017-04-16T11:02:04.000Z</time>
      </trkpt>
      <trkpt lat="43.56236" lon="3.00984">
        <ele>314.6</ele>
        <time>2017-04-16T11:02:05.000Z</time>
      </trkpt>
      <trkpt lat="43.5623" lon="3.00979">
        <ele>313.2</ele>
        <time>2017-04-16T11:02:06.000Z</time>
      </trkpt>
      <trkpt lat="43.56227" lon="3.00974">
        <ele>311.4</ele>
        <time>2017-04-16T11:02:07.000Z</time>
      </trkpt>
      <trkpt lat="43.56229" lon="3.00962">
        <ele>308.4</ele>
        <time>2017-04-16T11:02:09.000Z</time>
      </trkpt>
      <trkpt lat="43.56233" lon="3.00958">
        <ele>306.8</ele>
        <time>2017-04-16T11:02:10.000Z</time>
      </trkpt>
      <trkpt lat="43.56243" lon="3.00943">
        <ele>302.4</ele>
        <time>2017-04-16T11:02:13.000Z</time>
      </trkpt>
      <trkpt lat="43.56244" lon="3.0093">
        <ele>300</ele>
        <time>2017-04-16T11:02:15.000Z</time>
      </trkpt>
      <trkpt lat="43.56246" lon="3.00919">
        <ele>298.2</ele>
        <time>2017-04-16T11:02:17.000Z</time>
      </trkpt>
      <trkpt lat="43.56247" lon="3.00915">
        <ele>297.6</ele>
        <time>2017-04-16T11:02:18.000Z</time>
      </trkpt>
      <trkpt lat="43.56247" lon="3.00912">
        <ele>297.2</ele>
        <time>2017-04-16T11:02:19.000Z</time>
      </trkpt>
      <trkpt lat="43.5625" lon="3.00907">
        <ele>296.4</ele>
        <time>2017-04-16T11:02:21.000Z</time>
      </trkpt>
      <trkpt lat="43.56251" lon="3.00904">
        <ele>296.2</ele>
        <time>2017-04-16T11:02:22.000Z</time>
      </trkpt>
      <trkpt lat="43.56252" lon="3.009">
        <ele>296</ele>
        <time>2017-04-16T11:02:23.000Z</time>
      </trkpt>
      <trkpt lat="43.56252" lon="3.00891">
        <ele>295.8</ele>
        <time>2017-04-16T11:02:25.000Z</time>
      </trkpt>
      <trkpt lat="43.56251" lon="3.00886">
        <ele>295.6</ele>
        <time>2017-04-16T11:02:26.000Z</time>
      </trkpt>
      <trkpt lat="43.56252" lon="3.00877">
        <ele>295.8</ele>
        <time>2017-04-16T11:02:28.000Z</time>
      </trkpt>
      <trkpt lat="43.56254" lon="3.00872">
        <ele>296</ele>
        <time>2017-04-16T11:02:30.000Z</time>
      </trkpt>
      <trkpt lat="43.56256" lon="3.00868">
        <ele>296.2</ele>
        <time>2017-04-16T11:02:32.000Z</time>
      </trkpt>
      <trkpt lat="43.56256" lon="3.00862">
        <ele>296.2</ele>
        <time>2017-04-16T11:02:35.000Z</time>
      </trkpt>
      <trkpt lat="43.56256" lon="3.0086">
        <ele>296.6</ele>
        <time>2017-04-16T11:02:36.000Z</time>
      </trkpt>
      <trkpt lat="43.56256" lon="3.00859">
        <ele>297.2</ele>
        <time>2017-04-16T11:02:38.000Z</time>
      </trkpt>
      <trkpt lat="43.56256" lon="3.00859">
        <ele>297.6</ele>
        <time>2017-04-16T11:02:39.000Z</time>
      </trkpt>
      <trkpt lat="43.56257" lon="3.00857">
        <ele>298.4</ele>
        <time>2017-04-16T11:02:41.000Z</time>
      </trkpt>
      <trkpt lat="43.56258" lon="3.00853">
        <ele>299</ele>
        <time>2017-04-16T11:02:43.000Z</time>
      </trkpt>
      <trkpt lat="43.56258" lon="3.0085">
        <ele>299.8</ele>
        <time>2017-04-16T11:02:45.000Z</time>
      </trkpt>
      <trkpt lat="43.56259" lon="3.00847">
        <ele>300.6</ele>
        <time>2017-04-16T11:02:47.000Z</time>
      </trkpt>
      <trkpt lat="43.56263" lon="3.00844">
        <ele>301.2</ele>
        <time>2017-04-16T11:02:49.000Z</time>
      </trkpt>
      <trkpt lat="43.56266" lon="3.00839">
        <ele>301.8</ele>
        <time>2017-04-16T11:02:51.000Z</time>
      </trkpt>
      <trkpt lat="43.56271" lon="3.00834">
        <ele>302.2</ele>
        <time>2017-04-16T11:02:53.000Z</time>
      </trkpt>
      <trkpt lat="43.56272" lon="3.00832">
        <ele>302.6</ele>
        <time>2017-04-16T11:02:54.000Z</time>
      </trkpt>
      <trkpt lat="43.56272" lon="3.00829">
        <ele>303.4</ele>
        <time>2017-04-16T11:02:56.000Z</time>
      </trkpt>
      <trkpt lat="43.56273" lon="3.00828">
        <ele>303.8</ele>
        <time>2017-04-16T11:02:58.000Z</time>
      </trkpt>
      <trkpt lat="43.56274" lon="3.00827">
        <ele>304.6</ele>
        <time>2017-04-16T11:03:00.000Z</time>
      </trkpt>
      <trkpt lat="43.56275" lon="3.00824">
        <ele>305.4</ele>
        <time>2017-04-16T11:03:02.000Z</time>
      </trkpt>
      <trkpt lat="43.56276" lon="3.00822">
        <ele>306</ele>
        <time>2017-04-16T11:03:04.000Z</time>
      </trkpt>
      <trkpt lat="43.56276" lon="3.00821">
        <ele>306.2</ele>
        <time>2017-04-16T11:03:05.000Z</time>
      </trkpt>
      <trkpt lat="43.56279" lon="3.00817">
        <ele>307.4</ele>
        <time>2017-04-16T11:03:08.000Z</time>
      </trkpt>
      <trkpt lat="43.56281" lon="3.00814">
        <ele>308</ele>
        <time>2017-04-16T11:03:10.000Z</time>
      </trkpt>
      <trkpt lat="43.56284" lon="3.00811">
        <ele>308.6</ele>
        <time>2017-04-16T11:03:12.000Z</time>
      </trkpt>
      <trkpt lat="43.56286" lon="3.0081">
        <ele>308.8</ele>
        <time>2017-04-16T11:03:13.000Z</time>
      </trkpt>
      <trkpt lat="43.56288" lon="3.00807">
        <ele>309.2</ele>
        <time>2017-04-16T11:03:15.000Z</time>
      </trkpt>
      <trkpt lat="43.5629" lon="3.00806">
        <ele>310</ele>
        <time>2017-04-16T11:03:17.000Z</time>
      </trkpt>
      <trkpt lat="43.56291" lon="3.00805">
        <ele>310.2</ele>
        <time>2017-04-16T11:03:18.000Z</time>
      </trkpt>
      <trkpt lat="43.56293" lon="3.00801">
        <ele>310.8</ele>
        <time>2017-04-16T11:03:21.000Z</time>
      </trkpt>
      <trkpt lat="43.56298" lon="3.00795">
        <ele>311.2</ele>
        <time>2017-04-16T11:03:23.000Z</time>
      </trkpt>
      <trkpt lat="43.56306" lon="3.00786">
        <ele>311.4</ele>
        <time>2017-04-16T11:03:25.000Z</time>
      </trkpt>
      <trkpt lat="43.56309" lon="3.00782">
        <ele>312.4</ele>
        <time>2017-04-16T11:03:28.000Z</time>
      </trkpt>
      <trkpt lat="43.56311" lon="3.00781">
        <ele>313</ele>
        <time>2017-04-16T11:03:30.000Z</time>
      </trkpt>
      <trkpt lat="43.56313" lon="3.00779">
        <ele>313.6</ele>
        <time>2017-04-16T11:03:32.000Z</time>
      </trkpt>
      <trkpt lat="43.56314" lon="3.00776">
        <ele>314.2</ele>
        <time>2017-04-16T11:03:34.000Z</time>
      </trkpt>
      <trkpt lat="43.56317" lon="3.00774">
        <ele>314.8</ele>
        <time>2017-04-16T11:03:36.000Z</time>
      </trkpt>
      <trkpt lat="43.5632" lon="3.00771">
        <ele>315.4</ele>
        <time>2017-04-16T11:03:38.000Z</time>
      </trkpt>
      <trkpt lat="43.56322" lon="3.00768">
        <ele>316</ele>
        <time>2017-04-16T11:03:40.000Z</time>
      </trkpt>
      <trkpt lat="43.56324" lon="3.00765">
        <ele>316.6</ele>
        <time>2017-04-16T11:03:42.000Z</time>
      </trkpt>
      <trkpt lat="43.56325" lon="3.00764">
        <ele>316.8</ele>
        <time>2017-04-16T11:03:43.000Z</time>
      </trkpt>
      <trkpt lat="43.56328" lon="3.00756">
        <ele>317.4</ele>
        <time>2017-04-16T11:03:46.000Z</time>
      </trkpt>
      <trkpt lat="43.56329" lon="3.00752">
        <ele>317.8</ele>
        <time>2017-04-16T11:03:47.000Z</time>
      </trkpt>
      <trkpt lat="43.56333" lon="3.00739">
        <ele>318.6</ele>
        <time>2017-04-16T11:03:49.000Z</time>
      </trkpt>
      <trkpt lat="43.56335" lon="3.00731">
        <ele>319.2</ele>
        <time>2017-04-16T11:03:51.000Z</time>
      </trkpt>
      <trkpt lat="43.56337" lon="3.00729">
        <ele>319.6</ele>
        <time>2017-04-16T11:03:53.000Z</time>
      </trkpt>
      <trkpt lat="43.56339" lon="3.00722">
        <ele>320</ele>
        <time>2017-04-16T11:03:55.000Z</time>
      </trkpt>
      <trkpt lat="43.5634" lon="3.00717">
        <ele>320.2</ele>
        <time>2017-04-16T11:03:56.000Z</time>
      </trkpt>
      <trkpt lat="43.5634" lon="3.00685">
        <ele>320.6</ele>
        <time>2017-04-16T11:04:00.000Z</time>
      </trkpt>
      <trkpt lat="43.56341" lon="3.0068">
        <ele>320.4</ele>
        <time>2017-04-16T11:04:01.000Z</time>
      </trkpt>
      <trkpt lat="43.56341" lon="3.00673">
        <ele>320.4</ele>
        <time>2017-04-16T11:04:02.000Z</time>
      </trkpt>
      <trkpt lat="43.56339" lon="3.00662">
        <ele>320.2</ele>
        <time>2017-04-16T11:04:03.000Z</time>
      </trkpt>
      <trkpt lat="43.56341" lon="3.00641">
        <ele>319.8</ele>
        <time>2017-04-16T11:04:05.000Z</time>
      </trkpt>
      <trkpt lat="43.5635" lon="3.00631">
        <ele>319.4</ele>
        <time>2017-04-16T11:04:07.000Z</time>
      </trkpt>
      <trkpt lat="43.56358" lon="3.00627">
        <ele>319</ele>
        <time>2017-04-16T11:04:09.000Z</time>
      </trkpt>
      <trkpt lat="43.56359" lon="3.00625">
        <ele>318.8</ele>
        <time>2017-04-16T11:04:10.000Z</time>
      </trkpt>
      <trkpt lat="43.56362" lon="3.00623">
        <ele>318.6</ele>
        <time>2017-04-16T11:04:11.000Z</time>
      </trkpt>
      <trkpt lat="43.56367" lon="3.00617">
        <ele>318.4</ele>
        <time>2017-04-16T11:04:13.000Z</time>
      </trkpt>
      <trkpt lat="43.56369" lon="3.00611">
        <ele>318.2</ele>
        <time>2017-04-16T11:04:14.000Z</time>
      </trkpt>
      <trkpt lat="43.56375" lon="3.00594">
        <ele>317.8</ele>
        <time>2017-04-16T11:04:19.000Z</time>
      </trkpt>
      <trkpt lat="43.56379" lon="3.00571">
        <ele>317.6</ele>
        <time>2017-04-16T11:04:24.000Z</time>
      </trkpt>
      <trkpt lat="43.5638" lon="3.00568">
        <ele>317.4</ele>
        <time>2017-04-16T11:04:25.000Z</time>
      </trkpt>
      <trkpt lat="43.56383" lon="3.0056">
        <ele>317.4</ele>
        <time>2017-04-16T11:04:30.000Z</time>
      </trkpt>
      <trkpt lat="43.56384" lon="3.0056">
        <ele>317.6</ele>
        <time>2017-04-16T11:04:34.000Z</time>
      </trkpt>
      <trkpt lat="43.56385" lon="3.0056">
        <ele>317.8</ele>
        <time>2017-04-16T11:04:36.000Z</time>
      </trkpt>
      <trkpt lat="43.56386" lon="3.00559">
        <ele>318.2</ele>
        <time>2017-04-16T11:04:38.000Z</time>
      </trkpt>
      <trkpt lat="43.56389" lon="3.00558">
        <ele>318.4</ele>
        <time>2017-04-16T11:04:40.000Z</time>
      </trkpt>
      <trkpt lat="43.5639" lon="3.00557">
        <ele>318.4</ele>
        <time>2017-04-16T11:04:41.000Z</time>
      </trkpt>
      <trkpt lat="43.56392" lon="3.00555">
        <ele>318.6</ele>
        <time>2017-04-16T11:04:42.000Z</time>
      </trkpt>
      <trkpt lat="43.56401" lon="3.00542">
        <ele>319</ele>
        <time>2017-04-16T11:04:47.000Z</time>
      </trkpt>
      <trkpt lat="43.56402" lon="3.00537">
        <ele>319.4</ele>
        <time>2017-04-16T11:04:53.000Z</time>
      </trkpt>
      <trkpt lat="43.56402" lon="3.00534">
        <ele>319.8</ele>
        <time>2017-04-16T11:04:55.000Z</time>
      </trkpt>
      <trkpt lat="43.56402" lon="3.00533">
        <ele>319.8</ele>
        <time>2017-04-16T11:04:56.000Z</time>
      </trkpt>
      <trkpt lat="43.56405" lon="3.0053">
        <ele>320.4</ele>
        <time>2017-04-16T11:04:59.000Z</time>
      </trkpt>
      <trkpt lat="43.56406" lon="3.00527">
        <ele>320.8</ele>
        <time>2017-04-16T11:05:01.000Z</time>
      </trkpt>
      <trkpt lat="43.56407" lon="3.00525">
        <ele>321.4</ele>
        <time>2017-04-16T11:05:03.000Z</time>
      </trkpt>
      <trkpt lat="43.56407" lon="3.00522">
        <ele>321.8</ele>
        <time>2017-04-16T11:05:05.000Z</time>
      </trkpt>
      <trkpt lat="43.56408" lon="3.00521">
        <ele>322.2</ele>
        <time>2017-04-16T11:05:07.000Z</time>
      </trkpt>
      <trkpt lat="43.56409" lon="3.0052">
        <ele>322.2</ele>
        <time>2017-04-16T11:05:08.000Z</time>
      </trkpt>
      <trkpt lat="43.56412" lon="3.00512">
        <ele>323</ele>
        <time>2017-04-16T11:05:14.000Z</time>
      </trkpt>
      <trkpt lat="43.56412" lon="3.00511">
        <ele>323.2</ele>
        <time>2017-04-16T11:05:15.000Z</time>
      </trkpt>
      <trkpt lat="43.56413" lon="3.0051">
        <ele>323.8</ele>
        <time>2017-04-16T11:05:17.000Z</time>
      </trkpt>
      <trkpt lat="43.56414" lon="3.00508">
        <ele>324</ele>
        <time>2017-04-16T11:05:18.000Z</time>
      </trkpt>
      <trkpt lat="43.56416" lon="3.00503">
        <ele>324.4</ele>
        <time>2017-04-16T11:05:21.000Z</time>
      </trkpt>
      <trkpt lat="43.56417" lon="3.00498">
        <ele>324.8</ele>
        <time>2017-04-16T11:05:23.000Z</time>
      </trkpt>
      <trkpt lat="43.56418" lon="3.00496">
        <ele>324.8</ele>
        <time>2017-04-16T11:05:24.000Z</time>
      </trkpt>
      <trkpt lat="43.56422" lon="3.00483">
        <ele>325.4</ele>
        <time>2017-04-16T11:05:31.000Z</time>
      </trkpt>
      <trkpt lat="43.56424" lon="3.00479">
        <ele>325.6</ele>
        <time>2017-04-16T11:05:33.000Z</time>
      </trkpt>
      <trkpt lat="43.56428" lon="3.00474">
        <ele>326</ele>
        <time>2017-04-16T11:05:35.000Z</time>
      </trkpt>
      <trkpt lat="43.56433" lon="3.00468">
        <ele>326.4</ele>
        <time>2017-04-16T11:05:37.000Z</time>
      </trkpt>
      <trkpt lat="43.56435" lon="3.00464">
        <ele>326.6</ele>
        <time>2017-04-16T11:05:39.000Z</time>
      </trkpt>
      <trkpt lat="43.56438" lon="3.00459">
        <ele>327</ele>
        <time>2017-04-16T11:05:41.000Z</time>
      </trkpt>
      <trkpt lat="43.56442" lon="3.00449">
        <ele>327.4</ele>
        <time>2017-04-16T11:05:45.000Z</time>
      </trkpt>
      <trkpt lat="43.56442" lon="3.00446">
        <ele>327.8</ele>
        <time>2017-04-16T11:05:46.000Z</time>
      </trkpt>
      <trkpt lat="43.56447" lon="3.00439">
        <ele>328.4</ele>
        <time>2017-04-16T11:05:49.000Z</time>
      </trkpt>
      <trkpt lat="43.56451" lon="3.00431">
        <ele>328.6</ele>
        <time>2017-04-16T11:05:51.000Z</time>
      </trkpt>
      <trkpt lat="43.56456" lon="3.0042">
        <ele>328.8</ele>
        <time>2017-04-16T11:05:53.000Z</time>
      </trkpt>
      <trkpt lat="43.56459" lon="3.00414">
        <ele>329</ele>
        <time>2017-04-16T11:05:54.000Z</time>
      </trkpt>
      <trkpt lat="43.56466" lon="3.00403">
        <ele>329.2</ele>
        <time>2017-04-16T11:05:57.000Z</time>
      </trkpt>
      <trkpt lat="43.56471" lon="3.00392">
        <ele>329.4</ele>
        <time>2017-04-16T11:06:00.000Z</time>
      </trkpt>
      <trkpt lat="43.56477" lon="3.00383">
        <ele>329.4</ele>
        <time>2017-04-16T11:06:02.000Z</time>
      </trkpt>
      <trkpt lat="43.56481" lon="3.00379">
        <ele>329.2</ele>
        <time>2017-04-16T11:06:03.000Z</time>
      </trkpt>
      <trkpt lat="43.56485" lon="3.00377">
        <ele>328.6</ele>
        <time>2017-04-16T11:06:04.000Z</time>
      </trkpt>
      <trkpt lat="43.5649" lon="3.00374">
        <ele>328.2</ele>
        <time>2017-04-16T11:06:05.000Z</time>
      </trkpt>
      <trkpt lat="43.56494" lon="3.00371">
        <ele>327.6</ele>
        <time>2017-04-16T11:06:06.000Z</time>
      </trkpt>
      <trkpt lat="43.56504" lon="3.00364">
        <ele>326.4</ele>
        <time>2017-04-16T11:06:08.000Z</time>
      </trkpt>
      <trkpt lat="43.56509" lon="3.0036">
        <ele>325.8</ele>
        <time>2017-04-16T11:06:09.000Z</time>
      </trkpt>
      <trkpt lat="43.56514" lon="3.00358">
        <ele>325</ele>
        <time>2017-04-16T11:06:10.000Z</time>
      </trkpt>
      <trkpt lat="43.56526" lon="3.00348">
        <ele>323.4</ele>
        <time>2017-04-16T11:06:13.000Z</time>
      </trkpt>
      <trkpt lat="43.56529" lon="3.00343">
        <ele>322.8</ele>
        <time>2017-04-16T11:06:14.000Z</time>
      </trkpt>
      <trkpt lat="43.56537" lon="3.00331">
        <ele>321.2</ele>
        <time>2017-04-16T11:06:17.000Z</time>
      </trkpt>
      <trkpt lat="43.56543" lon="3.00325">
        <ele>320.4</ele>
        <time>2017-04-16T11:06:19.000Z</time>
      </trkpt>
      <trkpt lat="43.56545" lon="3.00321">
        <ele>320</ele>
        <time>2017-04-16T11:06:20.000Z</time>
      </trkpt>
      <trkpt lat="43.56547" lon="3.00317">
        <ele>319.6</ele>
        <time>2017-04-16T11:06:21.000Z</time>
      </trkpt>
      <trkpt lat="43.56551" lon="3.00307">
        <ele>319</ele>
        <time>2017-04-16T11:06:23.000Z</time>
      </trkpt>
      <trkpt lat="43.56553" lon="3.00303">
        <ele>318.8</ele>
        <time>2017-04-16T11:06:24.000Z</time>
      </trkpt>
      <trkpt lat="43.56559" lon="3.00301">
        <ele>318.2</ele>
        <time>2017-04-16T11:06:27.000Z</time>
      </trkpt>
      <trkpt lat="43.56564" lon="3.00298">
        <ele>318</ele>
        <time>2017-04-16T11:06:29.000Z</time>
      </trkpt>
      <trkpt lat="43.56577" lon="3.00285">
        <ele>317.6</ele>
        <time>2017-04-16T11:06:33.000Z</time>
      </trkpt>
      <trkpt lat="43.5658" lon="3.0028">
        <ele>317.4</ele>
        <time>2017-04-16T11:06:34.000Z</time>
      </trkpt>
      <trkpt lat="43.56593" lon="3.00277">
        <ele>317.2</ele>
        <time>2017-04-16T11:06:38.000Z</time>
      </trkpt>
      <trkpt lat="43.56603" lon="3.00277">
        <ele>317</ele>
        <time>2017-04-16T11:06:41.000Z</time>
      </trkpt>
      <trkpt lat="43.56614" lon="3.0028">
        <ele>316.8</ele>
        <time>2017-04-16T11:06:46.000Z</time>
      </trkpt>
      <trkpt lat="43.56623" lon="3.00274">
        <ele>316.8</ele>
        <time>2017-04-16T11:06:48.000Z</time>
      </trkpt>
      <trkpt lat="43.56632" lon="3.00266">
        <ele>316.8</ele>
        <time>2017-04-16T11:06:50.000Z</time>
      </trkpt>
      <trkpt lat="43.56649" lon="3.00262">
        <ele>316.8</ele>
        <time>2017-04-16T11:06:55.000Z</time>
      </trkpt>
      <trkpt lat="43.5666" lon="3.00257">
        <ele>316.8</ele>
        <time>2017-04-16T11:06:58.000Z</time>
      </trkpt>
      <trkpt lat="43.56676" lon="3.00253">
        <ele>316.4</ele>
        <time>2017-04-16T11:07:02.000Z</time>
      </trkpt>
      <trkpt lat="43.56681" lon="3.00251">
        <ele>316.2</ele>
        <time>2017-04-16T11:07:03.000Z</time>
      </trkpt>
      <trkpt lat="43.56686" lon="3.00251">
        <ele>316</ele>
        <time>2017-04-16T11:07:04.000Z</time>
      </trkpt>
      <trkpt lat="43.56697" lon="3.00256">
        <ele>315.6</ele>
        <time>2017-04-16T11:07:06.000Z</time>
      </trkpt>
      <trkpt lat="43.56708" lon="3.0026">
        <ele>314.8</ele>
        <time>2017-04-16T11:07:08.000Z</time>
      </trkpt>
      <trkpt lat="43.56719" lon="3.00262">
        <ele>314.2</ele>
        <time>2017-04-16T11:07:10.000Z</time>
      </trkpt>
      <trkpt lat="43.56727" lon="3.00266">
        <ele>313.8</ele>
        <time>2017-04-16T11:07:12.000Z</time>
      </trkpt>
      <trkpt lat="43.56734" lon="3.0027">
        <ele>313.4</ele>
        <time>2017-04-16T11:07:14.000Z</time>
      </trkpt>
      <trkpt lat="43.56739" lon="3.00273">
        <ele>313.2</ele>
        <time>2017-04-16T11:07:15.000Z</time>
      </trkpt>
      <trkpt lat="43.56749" lon="3.00278">
        <ele>313</ele>
        <time>2017-04-16T11:07:17.000Z</time>
      </trkpt>
      <trkpt lat="43.56772" lon="3.0028">
        <ele>312.4</ele>
        <time>2017-04-16T11:07:20.000Z</time>
      </trkpt>
      <trkpt lat="43.56782" lon="3.00279">
        <ele>312.2</ele>
        <time>2017-04-16T11:07:21.000Z</time>
      </trkpt>
      <trkpt lat="43.568" lon="3.00279">
        <ele>311.4</ele>
        <time>2017-04-16T11:07:23.000Z</time>
      </trkpt>
      <trkpt lat="43.56809" lon="3.00278">
        <ele>311</ele>
        <time>2017-04-16T11:07:24.000Z</time>
      </trkpt>
      <trkpt lat="43.56817" lon="3.00276">
        <ele>310.4</ele>
        <time>2017-04-16T11:07:25.000Z</time>
      </trkpt>
      <trkpt lat="43.56822" lon="3.00276">
        <ele>310</ele>
        <time>2017-04-16T11:07:26.000Z</time>
      </trkpt>
      <trkpt lat="43.56827" lon="3.00275">
        <ele>309.4</ele>
        <time>2017-04-16T11:07:27.000Z</time>
      </trkpt>
      <trkpt lat="43.56831" lon="3.00275">
        <ele>308.8</ele>
        <time>2017-04-16T11:07:28.000Z</time>
      </trkpt>
      <trkpt lat="43.56842" lon="3.00273">
        <ele>307.2</ele>
        <time>2017-04-16T11:07:30.000Z</time>
      </trkpt>
      <trkpt lat="43.56859" lon="3.0027">
        <ele>305.4</ele>
        <time>2017-04-16T11:07:32.000Z</time>
      </trkpt>
      <trkpt lat="43.56868" lon="3.0027">
        <ele>304.6</ele>
        <time>2017-04-16T11:07:33.000Z</time>
      </trkpt>
      <trkpt lat="43.56876" lon="3.0027">
        <ele>303.4</ele>
        <time>2017-04-16T11:07:34.000Z</time>
      </trkpt>
      <trkpt lat="43.56884" lon="3.0027">
        <ele>302.4</ele>
        <time>2017-04-16T11:07:35.000Z</time>
      </trkpt>
      <trkpt lat="43.56903" lon="3.00268">
        <ele>299.2</ele>
        <time>2017-04-16T11:07:38.000Z</time>
      </trkpt>
      <trkpt lat="43.56909" lon="3.00265">
        <ele>298.2</ele>
        <time>2017-04-16T11:07:39.000Z</time>
      </trkpt>
      <trkpt lat="43.56915" lon="3.0026">
        <ele>297.2</ele>
        <time>2017-04-16T11:07:40.000Z</time>
      </trkpt>
      <trkpt lat="43.56919" lon="3.00255">
        <ele>296.4</ele>
        <time>2017-04-16T11:07:41.000Z</time>
      </trkpt>
      <trkpt lat="43.56923" lon="3.00248">
        <ele>295.4</ele>
        <time>2017-04-16T11:07:42.000Z</time>
      </trkpt>
      <trkpt lat="43.56926" lon="3.00242">
        <ele>294.4</ele>
        <time>2017-04-16T11:07:43.000Z</time>
      </trkpt>
      <trkpt lat="43.56929" lon="3.00237">
        <ele>293.2</ele>
        <time>2017-04-16T11:07:44.000Z</time>
      </trkpt>
      <trkpt lat="43.56934" lon="3.00228">
        <ele>290.8</ele>
        <time>2017-04-16T11:07:46.000Z</time>
      </trkpt>
      <trkpt lat="43.56944" lon="3.0022">
        <ele>288.4</ele>
        <time>2017-04-16T11:07:48.000Z</time>
      </trkpt>
      <trkpt lat="43.56949" lon="3.00218">
        <ele>287.2</ele>
        <time>2017-04-16T11:07:49.000Z</time>
      </trkpt>
      <trkpt lat="43.56954" lon="3.00216">
        <ele>285.8</ele>
        <time>2017-04-16T11:07:50.000Z</time>
      </trkpt>
      <trkpt lat="43.56965" lon="3.00211">
        <ele>283</ele>
        <time>2017-04-16T11:07:52.000Z</time>
      </trkpt>
      <trkpt lat="43.56974" lon="3.0021">
        <ele>280</ele>
        <time>2017-04-16T11:07:54.000Z</time>
      </trkpt>
      <trkpt lat="43.56979" lon="3.00218">
        <ele>277.2</ele>
        <time>2017-04-16T11:07:56.000Z</time>
      </trkpt>
      <trkpt lat="43.56983" lon="3.00229">
        <ele>274.4</ele>
        <time>2017-04-16T11:07:58.000Z</time>
      </trkpt>
      <trkpt lat="43.56985" lon="3.00235">
        <ele>273</ele>
        <time>2017-04-16T11:07:59.000Z</time>
      </trkpt>
      <trkpt lat="43.56986" lon="3.0024">
        <ele>271.4</ele>
        <time>2017-04-16T11:08:00.000Z</time>
      </trkpt>
      <trkpt lat="43.56988" lon="3.00243">
        <ele>270</ele>
        <time>2017-04-16T11:08:01.000Z</time>
      </trkpt>
      <trkpt lat="43.5699" lon="3.00244">
        <ele>268.4</ele>
        <time>2017-04-16T11:08:02.000Z</time>
      </trkpt>
      <trkpt lat="43.56992" lon="3.00246">
        <ele>265.6</ele>
        <time>2017-04-16T11:08:04.000Z</time>
      </trkpt>
      <trkpt lat="43.56992" lon="3.0025">
        <ele>264.2</ele>
        <time>2017-04-16T11:08:05.000Z</time>
      </trkpt>
      <trkpt lat="43.56993" lon="3.00257">
        <ele>262.6</ele>
        <time>2017-04-16T11:08:06.000Z</time>
      </trkpt>
      <trkpt lat="43.56994" lon="3.00266">
        <ele>261.4</ele>
        <time>2017-04-16T11:08:07.000Z</time>
      </trkpt>
      <trkpt lat="43.57006" lon="3.00284">
        <ele>257.2</ele>
        <time>2017-04-16T11:08:10.000Z</time>
      </trkpt>
      <trkpt lat="43.57012" lon="3.00289">
        <ele>254.6</ele>
        <time>2017-04-16T11:08:12.000Z</time>
      </trkpt>
      <trkpt lat="43.57013" lon="3.0029">
        <ele>253.2</ele>
        <time>2017-04-16T11:08:13.000Z</time>
      </trkpt>
      <trkpt lat="43.57013" lon="3.00293">
        <ele>252.2</ele>
        <time>2017-04-16T11:08:14.000Z</time>
      </trkpt>
      <trkpt lat="43.57014" lon="3.00296">
        <ele>250.8</ele>
        <time>2017-04-16T11:08:15.000Z</time>
      </trkpt>
      <trkpt lat="43.57015" lon="3.003">
        <ele>249.8</ele>
        <time>2017-04-16T11:08:16.000Z</time>
      </trkpt>
      <trkpt lat="43.57016" lon="3.00304">
        <ele>248.4</ele>
        <time>2017-04-16T11:08:17.000Z</time>
      </trkpt>
      <trkpt lat="43.57021" lon="3.00314">
        <ele>246</ele>
        <time>2017-04-16T11:08:19.000Z</time>
      </trkpt>
      <trkpt lat="43.57024" lon="3.00318">
        <ele>243.2</ele>
        <time>2017-04-16T11:08:21.000Z</time>
      </trkpt>
      <trkpt lat="43.57024" lon="3.00316">
        <ele>242</ele>
        <time>2017-04-16T11:08:22.000Z</time>
      </trkpt>
      <trkpt lat="43.57025" lon="3.00306">
        <ele>239</ele>
        <time>2017-04-16T11:08:24.000Z</time>
      </trkpt>
      <trkpt lat="43.57027" lon="3.00301">
        <ele>237.6</ele>
        <time>2017-04-16T11:08:25.000Z</time>
      </trkpt>
      <trkpt lat="43.57031" lon="3.00293">
        <ele>234.6</ele>
        <time>2017-04-16T11:08:27.000Z</time>
      </trkpt>
      <trkpt lat="43.57036" lon="3.00284">
        <ele>231.8</ele>
        <time>2017-04-16T11:08:29.000Z</time>
      </trkpt>
      <trkpt lat="43.57036" lon="3.00279">
        <ele>230.4</ele>
        <time>2017-04-16T11:08:30.000Z</time>
      </trkpt>
      <trkpt lat="43.57036" lon="3.00275">
        <ele>229</ele>
        <time>2017-04-16T11:08:31.000Z</time>
      </trkpt>
      <trkpt lat="43.5704" lon="3.00271">
        <ele>226.2</ele>
        <time>2017-04-16T11:08:33.000Z</time>
      </trkpt>
      <trkpt lat="43.57042" lon="3.00271">
        <ele>225</ele>
        <time>2017-04-16T11:08:34.000Z</time>
      </trkpt>
      <trkpt lat="43.57046" lon="3.00264">
        <ele>220.8</ele>
        <time>2017-04-16T11:08:37.000Z</time>
      </trkpt>
      <trkpt lat="43.57047" lon="3.0026">
        <ele>219.4</ele>
        <time>2017-04-16T11:08:38.000Z</time>
      </trkpt>
      <trkpt lat="43.5705" lon="3.00248">
        <ele>216.8</ele>
        <time>2017-04-16T11:08:40.000Z</time>
      </trkpt>
      <trkpt lat="43.57056" lon="3.0022">
        <ele>212.8</ele>
        <time>2017-04-16T11:08:43.000Z</time>
      </trkpt>
      <trkpt lat="43.57061" lon="3.00202">
        <ele>210.2</ele>
        <time>2017-04-16T11:08:45.000Z</time>
      </trkpt>
      <trkpt lat="43.57063" lon="3.00195">
        <ele>208.8</ele>
        <time>2017-04-16T11:08:46.000Z</time>
      </trkpt>
      <trkpt lat="43.57062" lon="3.00185">
        <ele>204.6</ele>
        <time>2017-04-16T11:08:49.000Z</time>
      </trkpt>
      <trkpt lat="43.57063" lon="3.00177">
        <ele>201.8</ele>
        <time>2017-04-16T11:08:51.000Z</time>
      </trkpt>
      <trkpt lat="43.57065" lon="3.00171">
        <ele>200.4</ele>
        <time>2017-04-16T11:08:52.000Z</time>
      </trkpt>
      <trkpt lat="43.57068" lon="3.00164">
        <ele>199</ele>
        <time>2017-04-16T11:08:53.000Z</time>
      </trkpt>
      <trkpt lat="43.57074" lon="3.00149">
        <ele>196.4</ele>
        <time>2017-04-16T11:08:55.000Z</time>
      </trkpt>
      <trkpt lat="43.57078" lon="3.00143">
        <ele>194.8</ele>
        <time>2017-04-16T11:08:56.000Z</time>
      </trkpt>
      <trkpt lat="43.57082" lon="3.00138">
        <ele>193.2</ele>
        <time>2017-04-16T11:08:57.000Z</time>
      </trkpt>
      <trkpt lat="43.57085" lon="3.00134">
        <ele>191.8</ele>
        <time>2017-04-16T11:08:58.000Z</time>
      </trkpt>
      <trkpt lat="43.57086" lon="3.00132">
        <ele>190.2</ele>
        <time>2017-04-16T11:08:59.000Z</time>
      </trkpt>
      <trkpt lat="43.57081" lon="3.00119">
        <ele>187</ele>
        <time>2017-04-16T11:09:01.000Z</time>
      </trkpt>
      <trkpt lat="43.57079" lon="3.00112">
        <ele>185.6</ele>
        <time>2017-04-16T11:09:02.000Z</time>
      </trkpt>
      <trkpt lat="43.57078" lon="3.00108">
        <ele>183.8</ele>
        <time>2017-04-16T11:09:03.000Z</time>
      </trkpt>
      <trkpt lat="43.57077" lon="3.00105">
        <ele>182.4</ele>
        <time>2017-04-16T11:09:04.000Z</time>
      </trkpt>
      <trkpt lat="43.57081" lon="3.00101">
        <ele>177.4</ele>
        <time>2017-04-16T11:09:07.000Z</time>
      </trkpt>
      <trkpt lat="43.57082" lon="3.00098">
        <ele>176</ele>
        <time>2017-04-16T11:09:08.000Z</time>
      </trkpt>
      <trkpt lat="43.57084" lon="3.00096">
        <ele>174.4</ele>
        <time>2017-04-16T11:09:09.000Z</time>
      </trkpt>
      <trkpt lat="43.57085" lon="3.00095">
        <ele>173</ele>
        <time>2017-04-16T11:09:10.000Z</time>
      </trkpt>
      <trkpt lat="43.5709" lon="3.00102">
        <ele>168.4</ele>
        <time>2017-04-16T11:09:13.000Z</time>
      </trkpt>
      <trkpt lat="43.57096" lon="3.00108">
        <ele>167.2</ele>
        <time>2017-04-16T11:09:14.000Z</time>
      </trkpt>
      <trkpt lat="43.57115" lon="3.00126">
        <ele>162.6</ele>
        <time>2017-04-16T11:09:17.000Z</time>
      </trkpt>
      <trkpt lat="43.57122" lon="3.00131">
        <ele>160.8</ele>
        <time>2017-04-16T11:09:18.000Z</time>
      </trkpt>
      <trkpt lat="43.57126" lon="3.00135">
        <ele>159</ele>
        <time>2017-04-16T11:09:19.000Z</time>
      </trkpt>
      <trkpt lat="43.57129" lon="3.00138">
        <ele>157.4</ele>
        <time>2017-04-16T11:09:20.000Z</time>
      </trkpt>
      <trkpt lat="43.57134" lon="3.00137">
        <ele>153.8</ele>
        <time>2017-04-16T11:09:22.000Z</time>
      </trkpt>
      <trkpt lat="43.57138" lon="3.00136">
        <ele>152.2</ele>
        <time>2017-04-16T11:09:23.000Z</time>
      </trkpt>
      <trkpt lat="43.57144" lon="3.00135">
        <ele>150.4</ele>
        <time>2017-04-16T11:09:24.000Z</time>
      </trkpt>
      <trkpt lat="43.57149" lon="3.00135">
        <ele>148.4</ele>
        <time>2017-04-16T11:09:25.000Z</time>
      </trkpt>
      <trkpt lat="43.57154" lon="3.0014">
        <ele>146.4</ele>
        <time>2017-04-16T11:09:26.000Z</time>
      </trkpt>
      <trkpt lat="43.57163" lon="3.00155">
        <ele>143</ele>
        <time>2017-04-16T11:09:28.000Z</time>
      </trkpt>
      <trkpt lat="43.57167" lon="3.00166">
        <ele>141.2</ele>
        <time>2017-04-16T11:09:29.000Z</time>
      </trkpt>
      <trkpt lat="43.5717" lon="3.00174">
        <ele>139.8</ele>
        <time>2017-04-16T11:09:30.000Z</time>
      </trkpt>
      <trkpt lat="43.57173" lon="3.00187">
        <ele>137.2</ele>
        <time>2017-04-16T11:09:32.000Z</time>
      </trkpt>
      <trkpt lat="43.57172" lon="3.00192">
        <ele>136.2</ele>
        <time>2017-04-16T11:09:33.000Z</time>
      </trkpt>
      <trkpt lat="43.57169" lon="3.00198">
        <ele>135.2</ele>
        <time>2017-04-16T11:09:34.000Z</time>
      </trkpt>
      <trkpt lat="43.57166" lon="3.00206">
        <ele>134.2</ele>
        <time>2017-04-16T11:09:35.000Z</time>
      </trkpt>
      <trkpt lat="43.57169" lon="3.00218">
        <ele>131.6</ele>
        <time>2017-04-16T11:09:38.000Z</time>
      </trkpt>
      <trkpt lat="43.57177" lon="3.00216">
        <ele>130.6</ele>
        <time>2017-04-16T11:09:39.000Z</time>
      </trkpt>
      <trkpt lat="43.57191" lon="3.00213">
        <ele>128.4</ele>
        <time>2017-04-16T11:09:41.000Z</time>
      </trkpt>
      <trkpt lat="43.57196" lon="3.00212">
        <ele>127.2</ele>
        <time>2017-04-16T11:09:42.000Z</time>
      </trkpt>
      <trkpt lat="43.57198" lon="3.00211">
        <ele>125.8</ele>
        <time>2017-04-16T11:09:43.000Z</time>
      </trkpt>
      <trkpt lat="43.57198" lon="3.00207">
        <ele>123.4</ele>
        <time>2017-04-16T11:09:45.000Z</time>
      </trkpt>
      <trkpt lat="43.57198" lon="3.00205">
        <ele>122</ele>
        <time>2017-04-16T11:09:46.000Z</time>
      </trkpt>
      <trkpt lat="43.57205" lon="3.00205">
        <ele>118.2</ele>
        <time>2017-04-16T11:09:49.000Z</time>
      </trkpt>
      <trkpt lat="43.57207" lon="3.00204">
        <ele>117</ele>
        <time>2017-04-16T11:09:50.000Z</time>
      </trkpt>
      <trkpt lat="43.57209" lon="3.002">
        <ele>115.6</ele>
        <time>2017-04-16T11:09:51.000Z</time>
      </trkpt>
      <trkpt lat="43.57212" lon="3.00195">
        <ele>114.4</ele>
        <time>2017-04-16T11:09:52.000Z</time>
      </trkpt>
      <trkpt lat="43.57218" lon="3.00182">
        <ele>112</ele>
        <time>2017-04-16T11:09:54.000Z</time>
      </trkpt>
      <trkpt lat="43.57222" lon="3.00174">
        <ele>110</ele>
        <time>2017-04-16T11:09:56.000Z</time>
      </trkpt>
      <trkpt lat="43.57225" lon="3.00168">
        <ele>108.2</ele>
        <time>2017-04-16T11:09:58.000Z</time>
      </trkpt>
      <trkpt lat="43.57227" lon="3.00161">
        <ele>107</ele>
        <time>2017-04-16T11:10:00.000Z</time>
      </trkpt>
      <trkpt lat="43.5723" lon="3.00156">
        <ele>105.8</ele>
        <time>2017-04-16T11:10:02.000Z</time>
      </trkpt>
      <trkpt lat="43.57236" lon="3.0015">
        <ele>103.6</ele>
        <time>2017-04-16T11:10:08.000Z</time>
      </trkpt>
      <trkpt lat="43.57241" lon="3.00145">
        <ele>103</ele>
        <time>2017-04-16T11:10:11.000Z</time>
      </trkpt>
      <trkpt lat="43.57241" lon="3.00132">
        <ele>102</ele>
        <time>2017-04-16T11:10:17.000Z</time>
      </trkpt>
      <trkpt lat="43.57243" lon="3.00126">
        <ele>101.8</ele>
        <time>2017-04-16T11:10:21.000Z</time>
      </trkpt>
      <trkpt lat="43.57243" lon="3.00124">
        <ele>101.2</ele>
        <time>2017-04-16T11:10:39.000Z</time>
      </trkpt>
      <trkpt lat="43.57243" lon="3.00124">
        <ele>101.2</ele>
        <time>2017-04-16T11:10:40.000Z</time>
      </trkpt>
      <trkpt lat="43.57241" lon="3.00118">
        <ele>101.2</ele>
        <time>2017-04-16T11:10:43.000Z</time>
      </trkpt>
      <trkpt lat="43.57243" lon="3.00109">
        <ele>101.2</ele>
        <time>2017-04-16T11:10:47.000Z</time>
      </trkpt>
      <trkpt lat="43.57245" lon="3.00107">
        <ele>101.2</ele>
        <time>2017-04-16T11:11:28.000Z</time>
      </trkpt>
      <trkpt lat="43.57245" lon="3.00105">
        <ele>101.2</ele>
        <time>2017-04-16T11:11:29.000Z</time>
      </trkpt>
      <trkpt lat="43.57244" lon="3.00088">
        <ele>101.2</ele>
        <time>2017-04-16T11:11:34.000Z</time>
      </trkpt>
      <trkpt lat="43.57245" lon="3.00084">
        <ele>101.2</ele>
        <time>2017-04-16T11:11:35.000Z</time>
      </trkpt>
      <trkpt lat="43.57248" lon="3.00062">
        <ele>101.2</ele>
        <time>2017-04-16T11:11:41.000Z</time>
      </trkpt>
      <trkpt lat="43.5725" lon="3.00059">
        <ele>101.2</ele>
        <time>2017-04-16T11:11:42.000Z</time>
      </trkpt>
      <trkpt lat="43.57255" lon="3.00053">
        <ele>101.2</ele>
        <time>2017-04-16T11:11:46.000Z</time>
      </trkpt>
      <trkpt lat="43.57255" lon="3.0005">
        <ele>100</ele>
        <time>2017-04-16T11:11:55.000Z</time>
      </trkpt>
      <trkpt lat="43.57256" lon="3.00047">
        <ele>99.8</ele>
        <time>2017-04-16T11:11:56.000Z</time>
      </trkpt>
      <trkpt lat="43.57257" lon="3.00045">
        <ele>99.8</ele>
        <time>2017-04-16T11:11:57.000Z</time>
      </trkpt>
      <trkpt lat="43.57258" lon="3.00042">
        <ele>99.8</ele>
        <time>2017-04-16T11:11:58.000Z</time>
      </trkpt>
      <trkpt lat="43.57257" lon="3.00042">
        <ele>99</ele>
        <time>2017-04-16T11:13:02.000Z</time>
      </trkpt>
      <trkpt lat="43.57262" lon="3.00043">
        <ele>99</ele>
        <time>2017-04-16T11:13:04.000Z</time>
      </trkpt>
      <trkpt lat="43.57269" lon="3.00044">
        <ele>99</ele>
        <time>2017-04-16T11:13:06.000Z</time>
      </trkpt>
      <trkpt lat="43.57274" lon="3.00044">
        <ele>99</ele>
        <time>2017-04-16T11:13:07.000Z</time>
      </trkpt>
      <trkpt lat="43.57278" lon="3.00043">
        <ele>99</ele>
        <time>2017-04-16T11:13:08.000Z</time>
      </trkpt>
      <trkpt lat="43.57294" lon="3.00036">
        <ele>99</ele>
        <time>2017-04-16T11:13:11.000Z</time>
      </trkpt>
      <trkpt lat="43.57313" lon="3.00027">
        <ele>99</ele>
        <time>2017-04-16T11:13:15.000Z</time>
      </trkpt>
      <trkpt lat="43.57322" lon="3.00023">
        <ele>98.8</ele>
        <time>2017-04-16T11:13:17.000Z</time>
      </trkpt>
      <trkpt lat="43.57328" lon="3.00017">
        <ele>98.4</ele>
        <time>2017-04-16T11:13:19.000Z</time>
      </trkpt>
      <trkpt lat="43.5733" lon="3.00009">
        <ele>98.2</ele>
        <time>2017-04-16T11:13:21.000Z</time>
      </trkpt>
      <trkpt lat="43.57329" lon="3.00004">
        <ele>98</ele>
        <time>2017-04-16T11:13:23.000Z</time>
      </trkpt>
      <trkpt lat="43.57328" lon="3.00002">
        <ele>97.8</ele>
        <time>2017-04-16T11:13:24.000Z</time>
      </trkpt>
      <trkpt lat="43.57327" lon="2.99998">
        <ele>97.8</ele>
        <time>2017-04-16T11:13:25.000Z</time>
      </trkpt>
      <trkpt lat="43.57326" lon="2.99982">
        <ele>97.6</ele>
        <time>2017-04-16T11:13:30.000Z</time>
      </trkpt>
      <trkpt lat="43.57324" lon="2.99977">
        <ele>98</ele>
        <time>2017-04-16T11:13:32.000Z</time>
      </trkpt>
      <trkpt lat="43.57324" lon="2.99974">
        <ele>98</ele>
        <time>2017-04-16T11:13:33.000Z</time>
      </trkpt>
      <trkpt lat="43.57325" lon="2.99972">
        <ele>98.2</ele>
        <time>2017-04-16T11:13:34.000Z</time>
      </trkpt>
      <trkpt lat="43.57328" lon="2.99969">
        <ele>98.6</ele>
        <time>2017-04-16T11:13:36.000Z</time>
      </trkpt>
      <trkpt lat="43.57332" lon="2.99967">
        <ele>99.2</ele>
        <time>2017-04-16T11:13:38.000Z</time>
      </trkpt>
      <trkpt lat="43.57335" lon="2.99964">
        <ele>99.6</ele>
        <time>2017-04-16T11:13:40.000Z</time>
      </trkpt>
      <trkpt lat="43.57337" lon="2.99959">
        <ele>99.8</ele>
        <time>2017-04-16T11:13:42.000Z</time>
      </trkpt>
      <trkpt lat="43.57339" lon="2.99956">
        <ele>100.2</ele>
        <time>2017-04-16T11:13:44.000Z</time>
      </trkpt>
      <trkpt lat="43.57341" lon="2.99955">
        <ele>100.2</ele>
        <time>2017-04-16T11:13:45.000Z</time>
      </trkpt>
      <trkpt lat="43.57353" lon="2.99945">
        <ele>100.8</ele>
        <time>2017-04-16T11:13:50.000Z</time>
      </trkpt>
      <trkpt lat="43.57374" lon="2.99946">
        <ele>101</ele>
        <time>2017-04-16T11:13:56.000Z</time>
      </trkpt>
      <trkpt lat="43.57383" lon="2.99944">
        <ele>101.4</ele>
        <time>2017-04-16T11:14:00.000Z</time>
      </trkpt>
      <trkpt lat="43.57384" lon="2.99944">
        <ele>101.6</ele>
        <time>2017-04-16T11:14:01.000Z</time>
      </trkpt>
      <trkpt lat="43.57385" lon="2.99944">
        <ele>101.8</ele>
        <time>2017-04-16T11:14:02.000Z</time>
      </trkpt>
      <trkpt lat="43.57388" lon="2.99946">
        <ele>102</ele>
        <time>2017-04-16T11:14:04.000Z</time>
      </trkpt>
      <trkpt lat="43.57389" lon="2.99947">
        <ele>102.2</ele>
        <time>2017-04-16T11:14:05.000Z</time>
      </trkpt>
      <trkpt lat="43.57391" lon="2.99948">
        <ele>102.4</ele>
        <time>2017-04-16T11:14:06.000Z</time>
      </trkpt>
      <trkpt lat="43.57393" lon="2.99949">
        <ele>102.6</ele>
        <time>2017-04-16T11:14:08.000Z</time>
      </trkpt>
      <trkpt lat="43.57394" lon="2.99949">
        <ele>102.6</ele>
        <time>2017-04-16T11:14:09.000Z</time>
      </trkpt>
      <trkpt lat="43.57399" lon="2.99949">
        <ele>102.8</ele>
        <time>2017-04-16T11:14:13.000Z</time>
      </trkpt>
      <trkpt lat="43.57397" lon="2.99948">
        <ele>105.2</ele>
        <time>2017-04-16T11:14:43.000Z</time>
      </trkpt>
      <trkpt lat="43.57398" lon="2.99949">
        <ele>105.4</ele>
        <time>2017-04-16T11:14:44.000Z</time>
      </trkpt>
      <trkpt lat="43.57399" lon="2.99949">
        <ele>105.4</ele>
        <time>2017-04-16T11:14:45.000Z</time>
      </trkpt>
      <trkpt lat="43.57399" lon="2.9995">
        <ele>105.4</ele>
        <time>2017-04-16T11:14:46.000Z</time>
      </trkpt>
      <trkpt lat="43.57402" lon="2.99951">
        <ele>105.4</ele>
        <time>2017-04-16T11:14:48.000Z</time>
      </trkpt>
      <trkpt lat="43.57404" lon="2.99955">
        <ele>105.4</ele>
        <time>2017-04-16T11:14:50.000Z</time>
      </trkpt>
      <trkpt lat="43.57408" lon="2.99959">
        <ele>105.4</ele>
        <time>2017-04-16T11:14:52.000Z</time>
      </trkpt>
      <trkpt lat="43.57409" lon="2.99961">
        <ele>105.4</ele>
        <time>2017-04-16T11:14:53.000Z</time>
      </trkpt>
      <trkpt lat="43.5741" lon="2.99963">
        <ele>105.4</ele>
        <time>2017-04-16T11:14:54.000Z</time>
      </trkpt>
      <trkpt lat="43.57405" lon="2.99971">
        <ele>105.6</ele>
        <time>2017-04-16T11:15:00.000Z</time>
      </trkpt>
      <trkpt lat="43.57405" lon="2.99972">
        <ele>105.8</ele>
        <time>2017-04-16T11:15:01.000Z</time>
      </trkpt>
      <trkpt lat="43.57405" lon="2.99977">
        <ele>106.4</ele>
        <time>2017-04-16T11:15:04.000Z</time>
      </trkpt>
      <trkpt lat="43.57404" lon="2.9998">
        <ele>106.4</ele>
        <time>2017-04-16T11:15:05.000Z</time>
      </trkpt>
      <trkpt lat="43.57403" lon="2.9999">
        <ele>106.8</ele>
        <time>2017-04-16T11:15:08.000Z</time>
      </trkpt>
      <trkpt lat="43.57397" lon="3.00017">
        <ele>107.2</ele>
        <time>2017-04-16T11:15:15.000Z</time>
      </trkpt>
      <trkpt lat="43.57397" lon="3.00039">
        <ele>107.4</ele>
        <time>2017-04-16T11:15:20.000Z</time>
      </trkpt>
      <trkpt lat="43.57389" lon="3.00057">
        <ele>107.6</ele>
        <time>2017-04-16T11:15:24.000Z</time>
      </trkpt>
      <trkpt lat="43.57387" lon="3.00062">
        <ele>107.6</ele>
        <time>2017-04-16T11:15:25.000Z</time>
      </trkpt>
      <trkpt lat="43.57382" lon="3.0008">
        <ele>107.6</ele>
        <time>2017-04-16T11:15:29.000Z</time>
      </trkpt>
      <trkpt lat="43.57373" lon="3.00098">
        <ele>107.6</ele>
        <time>2017-04-16T11:15:33.000Z</time>
      </trkpt>
      <trkpt lat="43.57375" lon="3.00113">
        <ele>107.6</ele>
        <time>2017-04-16T11:15:36.000Z</time>
      </trkpt>
      <trkpt lat="43.57377" lon="3.00115">
        <ele>107.6</ele>
        <time>2017-04-16T11:15:39.000Z</time>
      </trkpt>
      <trkpt lat="43.57385" lon="3.00112">
        <ele>107.6</ele>
        <time>2017-04-16T11:15:43.000Z</time>
      </trkpt>
      <trkpt lat="43.57392" lon="3.00111">
        <ele>107.8</ele>
        <time>2017-04-16T11:15:47.000Z</time>
      </trkpt>
      <trkpt lat="43.57395" lon="3.0011">
        <ele>108.2</ele>
        <time>2017-04-16T11:15:49.000Z</time>
      </trkpt>
      <trkpt lat="43.57397" lon="3.00111">
        <ele>108.6</ele>
        <time>2017-04-16T11:15:51.000Z</time>
      </trkpt>
      <trkpt lat="43.574" lon="3.00111">
        <ele>108.8</ele>
        <time>2017-04-16T11:15:53.000Z</time>
      </trkpt>
      <trkpt lat="43.57404" lon="3.00111">
        <ele>109</ele>
        <time>2017-04-16T11:15:55.000Z</time>
      </trkpt>
      <trkpt lat="43.57407" lon="3.00111">
        <ele>109.2</ele>
        <time>2017-04-16T11:15:56.000Z</time>
      </trkpt>
      <trkpt lat="43.5741" lon="3.0011">
        <ele>109.6</ele>
        <time>2017-04-16T11:15:57.000Z</time>
      </trkpt>
      <trkpt lat="43.57412" lon="3.0011">
        <ele>109.8</ele>
        <time>2017-04-16T11:15:58.000Z</time>
      </trkpt>
      <trkpt lat="43.57415" lon="3.00108">
        <ele>110.2</ele>
        <time>2017-04-16T11:16:00.000Z</time>
      </trkpt>
      <trkpt lat="43.57418" lon="3.00105">
        <ele>110.6</ele>
        <time>2017-04-16T11:16:02.000Z</time>
      </trkpt>
      <trkpt lat="43.57421" lon="3.00104">
        <ele>110.8</ele>
        <time>2017-04-16T11:16:04.000Z</time>
      </trkpt>
      <trkpt lat="43.57423" lon="3.00104">
        <ele>111</ele>
        <time>2017-04-16T11:16:05.000Z</time>
      </trkpt>
      <trkpt lat="43.57426" lon="3.00103">
        <ele>111.4</ele>
        <time>2017-04-16T11:16:07.000Z</time>
      </trkpt>
      <trkpt lat="43.57429" lon="3.00102">
        <ele>111.8</ele>
        <time>2017-04-16T11:16:09.000Z</time>
      </trkpt>
      <trkpt lat="43.57431" lon="3.00101">
        <ele>112</ele>
        <time>2017-04-16T11:16:10.000Z</time>
      </trkpt>
      <trkpt lat="43.57433" lon="3.001">
        <ele>112.2</ele>
        <time>2017-04-16T11:16:11.000Z</time>
      </trkpt>
      <trkpt lat="43.57437" lon="3.00098">
        <ele>112.6</ele>
        <time>2017-04-16T11:16:13.000Z</time>
      </trkpt>
      <trkpt lat="43.5744" lon="3.00096">
        <ele>112.8</ele>
        <time>2017-04-16T11:16:15.000Z</time>
      </trkpt>
      <trkpt lat="43.57441" lon="3.00094">
        <ele>113.2</ele>
        <time>2017-04-16T11:16:17.000Z</time>
      </trkpt>
      <trkpt lat="43.57441" lon="3.00093">
        <ele>113.8</ele>
        <time>2017-04-16T11:16:19.000Z</time>
      </trkpt>
      <trkpt lat="43.57442" lon="3.00093">
        <ele>114.2</ele>
        <time>2017-04-16T11:16:21.000Z</time>
      </trkpt>
      <trkpt lat="43.57443" lon="3.00093">
        <ele>114.4</ele>
        <time>2017-04-16T11:16:22.000Z</time>
      </trkpt>
      <trkpt lat="43.57447" lon="3.00094">
        <ele>115</ele>
        <time>2017-04-16T11:16:25.000Z</time>
      </trkpt>
      <trkpt lat="43.57449" lon="3.00093">
        <ele>115.2</ele>
        <time>2017-04-16T11:16:26.000Z</time>
      </trkpt>
      <trkpt lat="43.57454" lon="3.00091">
        <ele>115.8</ele>
        <time>2017-04-16T11:16:28.000Z</time>
      </trkpt>
      <trkpt lat="43.57459" lon="3.00088">
        <ele>116.2</ele>
        <time>2017-04-16T11:16:30.000Z</time>
      </trkpt>
      <trkpt lat="43.57463" lon="3.00085">
        <ele>116.6</ele>
        <time>2017-04-16T11:16:32.000Z</time>
      </trkpt>
      <trkpt lat="43.57466" lon="3.00084">
        <ele>117</ele>
        <time>2017-04-16T11:16:34.000Z</time>
      </trkpt>
      <trkpt lat="43.57469" lon="3.00082">
        <ele>117</ele>
        <time>2017-04-16T11:16:35.000Z</time>
      </trkpt>
      <trkpt lat="43.57476" lon="3.00079">
        <ele>117.6</ele>
        <time>2017-04-16T11:16:38.000Z</time>
      </trkpt>
      <trkpt lat="43.57478" lon="3.00078">
        <ele>117.8</ele>
        <time>2017-04-16T11:16:39.000Z</time>
      </trkpt>
      <trkpt lat="43.5748" lon="3.00078">
        <ele>118</ele>
        <time>2017-04-16T11:16:40.000Z</time>
      </trkpt>
      <trkpt lat="43.57484" lon="3.00077">
        <ele>118.4</ele>
        <time>2017-04-16T11:16:42.000Z</time>
      </trkpt>
      <trkpt lat="43.57488" lon="3.00075">
        <ele>118.8</ele>
        <time>2017-04-16T11:16:44.000Z</time>
      </trkpt>
      <trkpt lat="43.57492" lon="3.00075">
        <ele>119</ele>
        <time>2017-04-16T11:16:46.000Z</time>
      </trkpt>
      <trkpt lat="43.57499" lon="3.00071">
        <ele>119.6</ele>
        <time>2017-04-16T11:16:50.000Z</time>
      </trkpt>
      <trkpt lat="43.57502" lon="3.00067">
        <ele>120.2</ele>
        <time>2017-04-16T11:16:52.000Z</time>
      </trkpt>
      <trkpt lat="43.57504" lon="3.00066">
        <ele>120.4</ele>
        <time>2017-04-16T11:16:53.000Z</time>
      </trkpt>
      <trkpt lat="43.57506" lon="3.00065">
        <ele>120.6</ele>
        <time>2017-04-16T11:16:54.000Z</time>
      </trkpt>
      <trkpt lat="43.57509" lon="3.00062">
        <ele>121</ele>
        <time>2017-04-16T11:16:56.000Z</time>
      </trkpt>
      <trkpt lat="43.57511" lon="3.00061">
        <ele>121.4</ele>
        <time>2017-04-16T11:16:57.000Z</time>
      </trkpt>
      <trkpt lat="43.57514" lon="3.00057">
        <ele>122</ele>
        <time>2017-04-16T11:16:59.000Z</time>
      </trkpt>
      <trkpt lat="43.57517" lon="3.00055">
        <ele>122.4</ele>
        <time>2017-04-16T11:17:01.000Z</time>
      </trkpt>
      <trkpt lat="43.57521" lon="3.00052">
        <ele>122.8</ele>
        <time>2017-04-16T11:17:03.000Z</time>
      </trkpt>
      <trkpt lat="43.57523" lon="3.0005">
        <ele>123</ele>
        <time>2017-04-16T11:17:04.000Z</time>
      </trkpt>
      <trkpt lat="43.57523" lon="3.00049">
        <ele>123.2</ele>
        <time>2017-04-16T11:17:05.000Z</time>
      </trkpt>
      <trkpt lat="43.57524" lon="3.00047">
        <ele>123.2</ele>
        <time>2017-04-16T11:17:06.000Z</time>
      </trkpt>
      <trkpt lat="43.57524" lon="3.00027">
        <ele>123.8</ele>
        <time>2017-04-16T11:17:11.000Z</time>
      </trkpt>
      <trkpt lat="43.57519" lon="3.00001">
        <ele>124</ele>
        <time>2017-04-16T11:17:15.000Z</time>
      </trkpt>
      <trkpt lat="43.57514" lon="2.99982">
        <ele>124.2</ele>
        <time>2017-04-16T11:17:18.000Z</time>
      </trkpt>
      <trkpt lat="43.57498" lon="2.99938">
        <ele>124.4</ele>
        <time>2017-04-16T11:17:25.000Z</time>
      </trkpt>
      <trkpt lat="43.57488" lon="2.99902">
        <ele>124.4</ele>
        <time>2017-04-16T11:17:30.000Z</time>
      </trkpt>
      <trkpt lat="43.57481" lon="2.99882">
        <ele>124.4</ele>
        <time>2017-04-16T11:17:33.000Z</time>
      </trkpt>
      <trkpt lat="43.57477" lon="2.99855">
        <ele>124.4</ele>
        <time>2017-04-16T11:17:37.000Z</time>
      </trkpt>
      <trkpt lat="43.57459" lon="2.99811">
        <ele>124.4</ele>
        <time>2017-04-16T11:17:44.000Z</time>
      </trkpt>
      <trkpt lat="43.57448" lon="2.99787">
        <ele>124.4</ele>
        <time>2017-04-16T11:17:48.000Z</time>
      </trkpt>
      <trkpt lat="43.57443" lon="2.99774">
        <ele>124.4</ele>
        <time>2017-04-16T11:17:50.000Z</time>
      </trkpt>
      <trkpt lat="43.57432" lon="2.99751">
        <ele>124.4</ele>
        <time>2017-04-16T11:17:54.000Z</time>
      </trkpt>
      <trkpt lat="43.5743" lon="2.99746">
        <ele>124.4</ele>
        <time>2017-04-16T11:17:55.000Z</time>
      </trkpt>
      <trkpt lat="43.57423" lon="2.99724">
        <ele>124.4</ele>
        <time>2017-04-16T11:17:59.000Z</time>
      </trkpt>
      <trkpt lat="43.57411" lon="2.99702">
        <ele>124.6</ele>
        <time>2017-04-16T11:18:04.000Z</time>
      </trkpt>
      <trkpt lat="43.57409" lon="2.99696">
        <ele>124.6</ele>
        <time>2017-04-16T11:18:05.000Z</time>
      </trkpt>
      <trkpt lat="43.57394" lon="2.99664">
        <ele>124.6</ele>
        <time>2017-04-16T11:18:11.000Z</time>
      </trkpt>
      <trkpt lat="43.57383" lon="2.99638">
        <ele>124.6</ele>
        <time>2017-04-16T11:18:16.000Z</time>
      </trkpt>
      <trkpt lat="43.57367" lon="2.99607">
        <ele>124.6</ele>
        <time>2017-04-16T11:18:22.000Z</time>
      </trkpt>
      <trkpt lat="43.57351" lon="2.99579">
        <ele>124.6</ele>
        <time>2017-04-16T11:18:27.000Z</time>
      </trkpt>
      <trkpt lat="43.57332" lon="2.99546">
        <ele>124.6</ele>
        <time>2017-04-16T11:18:33.000Z</time>
      </trkpt>
      <trkpt lat="43.57329" lon="2.99541">
        <ele>124.6</ele>
        <time>2017-04-16T11:18:34.000Z</time>
      </trkpt>
      <trkpt lat="43.57316" lon="2.9952">
        <ele>124.6</ele>
        <time>2017-04-16T11:18:38.000Z</time>
      </trkpt>
      <trkpt lat="43.57313" lon="2.99515">
        <ele>124.6</ele>
        <time>2017-04-16T11:18:39.000Z</time>
      </trkpt>
      <trkpt lat="43.5731" lon="2.99509">
        <ele>124.6</ele>
        <time>2017-04-16T11:18:40.000Z</time>
      </trkpt>
      <trkpt lat="43.57304" lon="2.99498">
        <ele>124.6</ele>
        <time>2017-04-16T11:18:42.000Z</time>
      </trkpt>
      <trkpt lat="43.57297" lon="2.99489">
        <ele>124.6</ele>
        <time>2017-04-16T11:18:44.000Z</time>
      </trkpt>
      <trkpt lat="43.57275" lon="2.99452">
        <ele>124.6</ele>
        <time>2017-04-16T11:18:51.000Z</time>
      </trkpt>
      <trkpt lat="43.57266" lon="2.99438">
        <ele>124.6</ele>
        <time>2017-04-16T11:18:54.000Z</time>
      </trkpt>
      <trkpt lat="43.57263" lon="2.99432">
        <ele>124.6</ele>
        <time>2017-04-16T11:18:55.000Z</time>
      </trkpt>
      <trkpt lat="43.57246" lon="2.99406">
        <ele>124.6</ele>
        <time>2017-04-16T11:19:00.000Z</time>
      </trkpt>
      <trkpt lat="43.57242" lon="2.994">
        <ele>124.6</ele>
        <time>2017-04-16T11:19:01.000Z</time>
      </trkpt>
      <trkpt lat="43.57236" lon="2.99389">
        <ele>124.6</ele>
        <time>2017-04-16T11:19:03.000Z</time>
      </trkpt>
      <trkpt lat="43.5723" lon="2.99376">
        <ele>124.6</ele>
        <time>2017-04-16T11:19:05.000Z</time>
      </trkpt>
      <trkpt lat="43.57214" lon="2.99343">
        <ele>124.6</ele>
        <time>2017-04-16T11:19:11.000Z</time>
      </trkpt>
      <trkpt lat="43.57205" lon="2.99321">
        <ele>124.6</ele>
        <time>2017-04-16T11:19:15.000Z</time>
      </trkpt>
      <trkpt lat="43.57199" lon="2.99305">
        <ele>124.6</ele>
        <time>2017-04-16T11:19:17.000Z</time>
      </trkpt>
      <trkpt lat="43.57185" lon="2.99265">
        <ele>124.6</ele>
        <time>2017-04-16T11:19:23.000Z</time>
      </trkpt>
      <trkpt lat="43.5717" lon="2.99204">
        <ele>124.6</ele>
        <time>2017-04-16T11:19:32.000Z</time>
      </trkpt>
      <trkpt lat="43.57168" lon="2.99197">
        <ele>124.6</ele>
        <time>2017-04-16T11:19:33.000Z</time>
      </trkpt>
      <trkpt lat="43.57164" lon="2.99174">
        <ele>124.8</ele>
        <time>2017-04-16T11:19:36.000Z</time>
      </trkpt>
      <trkpt lat="43.57163" lon="2.99166">
        <ele>125</ele>
        <time>2017-04-16T11:19:37.000Z</time>
      </trkpt>
      <trkpt lat="43.5716" lon="2.99152">
        <ele>125.2</ele>
        <time>2017-04-16T11:19:39.000Z</time>
      </trkpt>
      <trkpt lat="43.57155" lon="2.99136">
        <ele>125.6</ele>
        <time>2017-04-16T11:19:42.000Z</time>
      </trkpt>
      <trkpt lat="43.57154" lon="2.9913">
        <ele>125.8</ele>
        <time>2017-04-16T11:19:43.000Z</time>
      </trkpt>
      <trkpt lat="43.57146" lon="2.99103">
        <ele>126</ele>
        <time>2017-04-16T11:19:47.000Z</time>
      </trkpt>
      <trkpt lat="43.57132" lon="2.99071">
        <ele>126.2</ele>
        <time>2017-04-16T11:19:51.000Z</time>
      </trkpt>
      <trkpt lat="43.57119" lon="2.99047">
        <ele>126.4</ele>
        <time>2017-04-16T11:19:55.000Z</time>
      </trkpt>
      <trkpt lat="43.57113" lon="2.99028">
        <ele>126.4</ele>
        <time>2017-04-16T11:19:58.000Z</time>
      </trkpt>
      <trkpt lat="43.57092" lon="2.98991">
        <ele>126.6</ele>
        <time>2017-04-16T11:20:04.000Z</time>
      </trkpt>
      <trkpt lat="43.57078" lon="2.98967">
        <ele>126.6</ele>
        <time>2017-04-16T11:20:08.000Z</time>
      </trkpt>
      <trkpt lat="43.57058" lon="2.98935">
        <ele>126.6</ele>
        <time>2017-04-16T11:20:14.000Z</time>
      </trkpt>
      <trkpt lat="43.57032" lon="2.98888">
        <ele>126.6</ele>
        <time>2017-04-16T11:20:21.000Z</time>
      </trkpt>
      <trkpt lat="43.57011" lon="2.98861">
        <ele>126.6</ele>
        <time>2017-04-16T11:20:26.000Z</time>
      </trkpt>
      <trkpt lat="43.56991" lon="2.98833">
        <ele>126.6</ele>
        <time>2017-04-16T11:20:31.000Z</time>
      </trkpt>
      <trkpt lat="43.56987" lon="2.98829">
        <ele>126.6</ele>
        <time>2017-04-16T11:20:32.000Z</time>
      </trkpt>
      <trkpt lat="43.56974" lon="2.98817">
        <ele>126.6</ele>
        <time>2017-04-16T11:20:35.000Z</time>
      </trkpt>
      <trkpt lat="43.56964" lon="2.98803">
        <ele>127.2</ele>
        <time>2017-04-16T11:20:38.000Z</time>
      </trkpt>
      <trkpt lat="43.5696" lon="2.98797">
        <ele>127.4</ele>
        <time>2017-04-16T11:20:39.000Z</time>
      </trkpt>
      <trkpt lat="43.56957" lon="2.98791">
        <ele>127.4</ele>
        <time>2017-04-16T11:20:40.000Z</time>
      </trkpt>
      <trkpt lat="43.56952" lon="2.98785">
        <ele>127.6</ele>
        <time>2017-04-16T11:20:41.000Z</time>
      </trkpt>
      <trkpt lat="43.56949" lon="2.9878">
        <ele>127.8</ele>
        <time>2017-04-16T11:20:42.000Z</time>
      </trkpt>
      <trkpt lat="43.5694" lon="2.9877">
        <ele>127.8</ele>
        <time>2017-04-16T11:20:44.000Z</time>
      </trkpt>
      <trkpt lat="43.56933" lon="2.98759">
        <ele>128</ele>
        <time>2017-04-16T11:20:46.000Z</time>
      </trkpt>
      <trkpt lat="43.56914" lon="2.98723">
        <ele>128.4</ele>
        <time>2017-04-16T11:20:52.000Z</time>
      </trkpt>
      <trkpt lat="43.56906" lon="2.9871">
        <ele>128.4</ele>
        <time>2017-04-16T11:20:55.000Z</time>
      </trkpt>
      <trkpt lat="43.56902" lon="2.98699">
        <ele>128.4</ele>
        <time>2017-04-16T11:20:57.000Z</time>
      </trkpt>
      <trkpt lat="43.56899" lon="2.98693">
        <ele>128.6</ele>
        <time>2017-04-16T11:20:58.000Z</time>
      </trkpt>
      <trkpt lat="43.56881" lon="2.98613">
        <ele>128.6</ele>
        <time>2017-04-16T11:21:31.000Z</time>
      </trkpt>
      <trkpt lat="43.56863" lon="2.98533">
        <ele>128.6</ele>
        <time>2017-04-16T11:21:45.000Z</time>
      </trkpt>
      <trkpt lat="43.56845" lon="2.98453">
        <ele>128.6</ele>
        <time>2017-04-16T11:21:49.000Z</time>
      </trkpt>
      <trkpt lat="43.56826" lon="2.98373">
        <ele>128.6</ele>
        <time>2017-04-16T11:21:51.000Z</time>
      </trkpt>
      <trkpt lat="43.56833" lon="2.98332">
        <ele>128.4</ele>
        <time>2017-04-16T11:21:57.000Z</time>
      </trkpt>
      <trkpt lat="43.56834" lon="2.98325">
        <ele>128.2</ele>
        <time>2017-04-16T11:21:58.000Z</time>
      </trkpt>
      <trkpt lat="43.56837" lon="2.98302">
        <ele>127.8</ele>
        <time>2017-04-16T11:22:01.000Z</time>
      </trkpt>
      <trkpt lat="43.56838" lon="2.9829">
        <ele>127.6</ele>
        <time>2017-04-16T11:22:03.000Z</time>
      </trkpt>
      <trkpt lat="43.5684" lon="2.98275">
        <ele>127.4</ele>
        <time>2017-04-16T11:22:05.000Z</time>
      </trkpt>
      <trkpt lat="43.56842" lon="2.98268">
        <ele>127.4</ele>
        <time>2017-04-16T11:22:06.000Z</time>
      </trkpt>
      <trkpt lat="43.56844" lon="2.9826">
        <ele>127.2</ele>
        <time>2017-04-16T11:22:07.000Z</time>
      </trkpt>
      <trkpt lat="43.56859" lon="2.98212">
        <ele>127</ele>
        <time>2017-04-16T11:22:14.000Z</time>
      </trkpt>
      <trkpt lat="43.56867" lon="2.98177">
        <ele>126.8</ele>
        <time>2017-04-16T11:22:18.000Z</time>
      </trkpt>
      <trkpt lat="43.56882" lon="2.98142">
        <ele>126.8</ele>
        <time>2017-04-16T11:22:23.000Z</time>
      </trkpt>
      <trkpt lat="43.56891" lon="2.98117">
        <ele>126.8</ele>
        <time>2017-04-16T11:22:26.000Z</time>
      </trkpt>
      <trkpt lat="43.569" lon="2.98091">
        <ele>126.8</ele>
        <time>2017-04-16T11:22:29.000Z</time>
      </trkpt>
      <trkpt lat="43.56909" lon="2.98069">
        <ele>126.2</ele>
        <time>2017-04-16T11:22:32.000Z</time>
      </trkpt>
      <trkpt lat="43.56916" lon="2.98053">
        <ele>125.8</ele>
        <time>2017-04-16T11:22:34.000Z</time>
      </trkpt>
      <trkpt lat="43.56921" lon="2.98036">
        <ele>125.6</ele>
        <time>2017-04-16T11:22:36.000Z</time>
      </trkpt>
      <trkpt lat="43.56923" lon="2.98028">
        <ele>125.4</ele>
        <time>2017-04-16T11:22:37.000Z</time>
      </trkpt>
      <trkpt lat="43.56926" lon="2.98019">
        <ele>125.4</ele>
        <time>2017-04-16T11:22:38.000Z</time>
      </trkpt>
      <trkpt lat="43.5693" lon="2.98002">
        <ele>125.2</ele>
        <time>2017-04-16T11:22:40.000Z</time>
      </trkpt>
      <trkpt lat="43.56942" lon="2.9795">
        <ele>124.8</ele>
        <time>2017-04-16T11:22:46.000Z</time>
      </trkpt>
      <trkpt lat="43.56943" lon="2.97942">
        <ele>124.8</ele>
        <time>2017-04-16T11:22:47.000Z</time>
      </trkpt>
      <trkpt lat="43.56947" lon="2.97926">
        <ele>124.8</ele>
        <time>2017-04-16T11:22:49.000Z</time>
      </trkpt>
      <trkpt lat="43.5695" lon="2.97884">
        <ele>124.6</ele>
        <time>2017-04-16T11:22:54.000Z</time>
      </trkpt>
      <trkpt lat="43.5695" lon="2.97868">
        <ele>124.6</ele>
        <time>2017-04-16T11:22:56.000Z</time>
      </trkpt>
      <trkpt lat="43.56944" lon="2.97806">
        <ele>124.6</ele>
        <time>2017-04-16T11:23:03.000Z</time>
      </trkpt>
      <trkpt lat="43.56934" lon="2.97744">
        <ele>124.6</ele>
        <time>2017-04-16T11:23:10.000Z</time>
      </trkpt>
      <trkpt lat="43.56928" lon="2.97702">
        <ele>124.6</ele>
        <time>2017-04-16T11:23:15.000Z</time>
      </trkpt>
      <trkpt lat="43.56922" lon="2.97654">
        <ele>124.6</ele>
        <time>2017-04-16T11:23:21.000Z</time>
      </trkpt>
      <trkpt lat="43.56922" lon="2.97614">
        <ele>124.6</ele>
        <time>2017-04-16T11:23:26.000Z</time>
      </trkpt>
      <trkpt lat="43.56923" lon="2.97606">
        <ele>124.6</ele>
        <time>2017-04-16T11:23:27.000Z</time>
      </trkpt>
      <trkpt lat="43.56927" lon="2.97563">
        <ele>124.6</ele>
        <time>2017-04-16T11:23:33.000Z</time>
      </trkpt>
      <trkpt lat="43.56929" lon="2.97559">
        <ele>124.6</ele>
        <time>2017-04-16T11:23:48.000Z</time>
      </trkpt>
      <trkpt lat="43.5693" lon="2.97555">
        <ele>124.8</ele>
        <time>2017-04-16T11:23:49.000Z</time>
      </trkpt>
      <trkpt lat="43.56931" lon="2.97552">
        <ele>125.2</ele>
        <time>2017-04-16T11:23:51.000Z</time>
      </trkpt>
      <trkpt lat="43.56933" lon="2.97548">
        <ele>125.4</ele>
        <time>2017-04-16T11:23:53.000Z</time>
      </trkpt>
      <trkpt lat="43.56934" lon="2.97544">
        <ele>125.6</ele>
        <time>2017-04-16T11:23:55.000Z</time>
      </trkpt>
      <trkpt lat="43.56935" lon="2.9754">
        <ele>125.8</ele>
        <time>2017-04-16T11:23:57.000Z</time>
      </trkpt>
      <trkpt lat="43.56936" lon="2.97536">
        <ele>126</ele>
        <time>2017-04-16T11:23:58.000Z</time>
      </trkpt>
      <trkpt lat="43.56999" lon="2.97349">
        <ele>126.2</ele>
        <time>2017-04-16T11:24:05.000Z</time>
      </trkpt>
      <trkpt lat="43.57022" lon="2.9732">
        <ele>126.4</ele>
        <time>2017-04-16T11:24:11.000Z</time>
      </trkpt>
      <trkpt lat="43.57039" lon="2.97299">
        <ele>126.6</ele>
        <time>2017-04-16T11:24:15.000Z</time>
      </trkpt>
      <trkpt lat="43.57062" lon="2.9727">
        <ele>126.6</ele>
        <time>2017-04-16T11:24:21.000Z</time>
      </trkpt>
      <trkpt lat="43.57068" lon="2.9726">
        <ele>126.6</ele>
        <time>2017-04-16T11:24:23.000Z</time>
      </trkpt>
      <trkpt lat="43.57087" lon="2.97228">
        <ele>126.6</ele>
        <time>2017-04-16T11:24:29.000Z</time>
      </trkpt>
      <trkpt lat="43.57103" lon="2.97201">
        <ele>126.6</ele>
        <time>2017-04-16T11:24:34.000Z</time>
      </trkpt>
      <trkpt lat="43.57109" lon="2.97178">
        <ele>126.6</ele>
        <time>2017-04-16T11:24:37.000Z</time>
      </trkpt>
      <trkpt lat="43.57115" lon="2.97147">
        <ele>126.6</ele>
        <time>2017-04-16T11:24:41.000Z</time>
      </trkpt>
      <trkpt lat="43.57123" lon="2.97115">
        <ele>126.6</ele>
        <time>2017-04-16T11:24:45.000Z</time>
      </trkpt>
      <trkpt lat="43.57126" lon="2.9709">
        <ele>126.8</ele>
        <time>2017-04-16T11:24:48.000Z</time>
      </trkpt>
      <trkpt lat="43.57127" lon="2.97076">
        <ele>127.2</ele>
        <time>2017-04-16T11:24:50.000Z</time>
      </trkpt>
      <trkpt lat="43.57128" lon="2.97062">
        <ele>127.4</ele>
        <time>2017-04-16T11:24:52.000Z</time>
      </trkpt>
      <trkpt lat="43.57128" lon="2.97056">
        <ele>127.6</ele>
        <time>2017-04-16T11:24:53.000Z</time>
      </trkpt>
      <trkpt lat="43.57127" lon="2.97036">
        <ele>128</ele>
        <time>2017-04-16T11:24:56.000Z</time>
      </trkpt>
      <trkpt lat="43.57127" lon="2.97009">
        <ele>128.2</ele>
        <time>2017-04-16T11:25:00.000Z</time>
      </trkpt>
      <trkpt lat="43.5712" lon="2.96963">
        <ele>128.4</ele>
        <time>2017-04-16T11:25:07.000Z</time>
      </trkpt>
      <trkpt lat="43.57119" lon="2.96956">
        <ele>128.4</ele>
        <time>2017-04-16T11:25:08.000Z</time>
      </trkpt>
      <trkpt lat="43.57112" lon="2.96924">
        <ele>128.6</ele>
        <time>2017-04-16T11:25:13.000Z</time>
      </trkpt>
      <trkpt lat="43.57103" lon="2.96898">
        <ele>128.6</ele>
        <time>2017-04-16T11:25:17.000Z</time>
      </trkpt>
      <trkpt lat="43.57082" lon="2.96846">
        <ele>128.6</ele>
        <time>2017-04-16T11:25:26.000Z</time>
      </trkpt>
      <trkpt lat="43.57077" lon="2.96833">
        <ele>128.8</ele>
        <time>2017-04-16T11:25:28.000Z</time>
      </trkpt>
      <trkpt lat="43.5707" lon="2.96821">
        <ele>129.2</ele>
        <time>2017-04-16T11:25:30.000Z</time>
      </trkpt>
      <trkpt lat="43.57064" lon="2.9681">
        <ele>129.6</ele>
        <time>2017-04-16T11:25:32.000Z</time>
      </trkpt>
      <trkpt lat="43.57057" lon="2.968">
        <ele>129.8</ele>
        <time>2017-04-16T11:25:34.000Z</time>
      </trkpt>
      <trkpt lat="43.57051" lon="2.96791">
        <ele>130</ele>
        <time>2017-04-16T11:25:36.000Z</time>
      </trkpt>
      <trkpt lat="43.57029" lon="2.96764">
        <ele>130.4</ele>
        <time>2017-04-16T11:25:42.000Z</time>
      </trkpt>
      <trkpt lat="43.57005" lon="2.96738">
        <ele>130.6</ele>
        <time>2017-04-16T11:25:48.000Z</time>
      </trkpt>
      <trkpt lat="43.57001" lon="2.96734">
        <ele>130.8</ele>
        <time>2017-04-16T11:25:49.000Z</time>
      </trkpt>
      <trkpt lat="43.56994" lon="2.96726">
        <ele>131.2</ele>
        <time>2017-04-16T11:25:51.000Z</time>
      </trkpt>
      <trkpt lat="43.5699" lon="2.96722">
        <ele>131.2</ele>
        <time>2017-04-16T11:25:52.000Z</time>
      </trkpt>
      <trkpt lat="43.56979" lon="2.96712">
        <ele>131.6</ele>
        <time>2017-04-16T11:25:55.000Z</time>
      </trkpt>
      <trkpt lat="43.56972" lon="2.96706">
        <ele>131.8</ele>
        <time>2017-04-16T11:25:57.000Z</time>
      </trkpt>
      <trkpt lat="43.56969" lon="2.96702">
        <ele>132</ele>
        <time>2017-04-16T11:25:58.000Z</time>
      </trkpt>
      <trkpt lat="43.56952" lon="2.96685">
        <ele>132.4</ele>
        <time>2017-04-16T11:26:03.000Z</time>
      </trkpt>
      <trkpt lat="43.56932" lon="2.96659">
        <ele>132.6</ele>
        <time>2017-04-16T11:26:09.000Z</time>
      </trkpt>
      <trkpt lat="43.56923" lon="2.96648">
        <ele>132.6</ele>
        <time>2017-04-16T11:26:12.000Z</time>
      </trkpt>
      <trkpt lat="43.56911" lon="2.96634">
        <ele>132.6</ele>
        <time>2017-04-16T11:26:16.000Z</time>
      </trkpt>
      <trkpt lat="43.56903" lon="2.96611">
        <ele>132.6</ele>
        <time>2017-04-16T11:26:20.000Z</time>
      </trkpt>
      <trkpt lat="43.56877" lon="2.96578">
        <ele>132.8</ele>
        <time>2017-04-16T11:26:26.000Z</time>
      </trkpt>
      <trkpt lat="43.56853" lon="2.96529">
        <ele>132.8</ele>
        <time>2017-04-16T11:26:33.000Z</time>
      </trkpt>
      <trkpt lat="43.5683" lon="2.96485">
        <ele>132.8</ele>
        <time>2017-04-16T11:26:40.000Z</time>
      </trkpt>
      <trkpt lat="43.56807" lon="2.96424">
        <ele>132.8</ele>
        <time>2017-04-16T11:26:50.000Z</time>
      </trkpt>
      <trkpt lat="43.568" lon="2.96408">
        <ele>132.8</ele>
        <time>2017-04-16T11:26:53.000Z</time>
      </trkpt>
      <trkpt lat="43.56781" lon="2.96359">
        <ele>132.8</ele>
        <time>2017-04-16T11:27:02.000Z</time>
      </trkpt>
      <trkpt lat="43.56775" lon="2.96341">
        <ele>132.8</ele>
        <time>2017-04-16T11:27:06.000Z</time>
      </trkpt>
      <trkpt lat="43.56764" lon="2.9632">
        <ele>132.8</ele>
        <time>2017-04-16T11:27:11.000Z</time>
      </trkpt>
      <trkpt lat="43.56762" lon="2.96315">
        <ele>132.8</ele>
        <time>2017-04-16T11:27:12.000Z</time>
      </trkpt>
      <trkpt lat="43.56744" lon="2.96271">
        <ele>132.8</ele>
        <time>2017-04-16T11:27:19.000Z</time>
      </trkpt>
      <trkpt lat="43.56733" lon="2.96234">
        <ele>132.8</ele>
        <time>2017-04-16T11:27:24.000Z</time>
      </trkpt>
      <trkpt lat="43.5673" lon="2.9622">
        <ele>132.8</ele>
        <time>2017-04-16T11:27:26.000Z</time>
      </trkpt>
      <trkpt lat="43.56718" lon="2.96178">
        <ele>132.8</ele>
        <time>2017-04-16T11:27:32.000Z</time>
      </trkpt>
      <trkpt lat="43.56715" lon="2.96171">
        <ele>132.8</ele>
        <time>2017-04-16T11:27:33.000Z</time>
      </trkpt>
      <trkpt lat="43.56702" lon="2.9613">
        <ele>132.8</ele>
        <time>2017-04-16T11:27:39.000Z</time>
      </trkpt>
      <trkpt lat="43.5669" lon="2.961">
        <ele>132.8</ele>
        <time>2017-04-16T11:27:44.000Z</time>
      </trkpt>
      <trkpt lat="43.56689" lon="2.96093">
        <ele>132.8</ele>
        <time>2017-04-16T11:27:45.000Z</time>
      </trkpt>
      <trkpt lat="43.56685" lon="2.96056">
        <ele>132.8</ele>
        <time>2017-04-16T11:27:50.000Z</time>
      </trkpt>
      <trkpt lat="43.56679" lon="2.96015">
        <ele>132.8</ele>
        <time>2017-04-16T11:27:56.000Z</time>
      </trkpt>
      <trkpt lat="43.56677" lon="2.95998">
        <ele>132.8</ele>
        <time>2017-04-16T11:27:59.000Z</time>
      </trkpt>
      <trkpt lat="43.56674" lon="2.9598">
        <ele>132.8</ele>
        <time>2017-04-16T11:28:02.000Z</time>
      </trkpt>
      <trkpt lat="43.56675" lon="2.95962">
        <ele>132.8</ele>
        <time>2017-04-16T11:28:06.000Z</time>
      </trkpt>
      <trkpt lat="43.56675" lon="2.9596">
        <ele>132.8</ele>
        <time>2017-04-16T11:28:07.000Z</time>
      </trkpt>
      <trkpt lat="43.56671" lon="2.95949">
        <ele>132.8</ele>
        <time>2017-04-16T11:28:10.000Z</time>
      </trkpt>
      <trkpt lat="43.56669" lon="2.95923">
        <ele>132.8</ele>
        <time>2017-04-16T11:28:14.000Z</time>
      </trkpt>
      <trkpt lat="43.56667" lon="2.95879">
        <ele>132.8</ele>
        <time>2017-04-16T11:28:20.000Z</time>
      </trkpt>
      <trkpt lat="43.56667" lon="2.95828">
        <ele>132.8</ele>
        <time>2017-04-16T11:28:28.000Z</time>
      </trkpt>
      <trkpt lat="43.56667" lon="2.95821">
        <ele>132.8</ele>
        <time>2017-04-16T11:28:29.000Z</time>
      </trkpt>
      <trkpt lat="43.56666" lon="2.95803">
        <ele>132.8</ele>
        <time>2017-04-16T11:28:32.000Z</time>
      </trkpt>
      <trkpt lat="43.56666" lon="2.95777">
        <ele>132.8</ele>
        <time>2017-04-16T11:28:36.000Z</time>
      </trkpt>
      <trkpt lat="43.56672" lon="2.95746">
        <ele>132.8</ele>
        <time>2017-04-16T11:28:42.000Z</time>
      </trkpt>
      <trkpt lat="43.56676" lon="2.95728">
        <ele>132.8</ele>
        <time>2017-04-16T11:28:45.000Z</time>
      </trkpt>
      <trkpt lat="43.56674" lon="2.95675">
        <ele>132.8</ele>
        <time>2017-04-16T11:28:52.000Z</time>
      </trkpt>
      <trkpt lat="43.56674" lon="2.95667">
        <ele>132.8</ele>
        <time>2017-04-16T11:28:53.000Z</time>
      </trkpt>
      <trkpt lat="43.56674" lon="2.95631">
        <ele>132.8</ele>
        <time>2017-04-16T11:28:58.000Z</time>
      </trkpt>
      <trkpt lat="43.56672" lon="2.95601">
        <ele>132.8</ele>
        <time>2017-04-16T11:29:02.000Z</time>
      </trkpt>
      <trkpt lat="43.56672" lon="2.95558">
        <ele>132.8</ele>
        <time>2017-04-16T11:29:08.000Z</time>
      </trkpt>
      <trkpt lat="43.56671" lon="2.95517">
        <ele>132.8</ele>
        <time>2017-04-16T11:29:13.000Z</time>
      </trkpt>
      <trkpt lat="43.5667" lon="2.95493">
        <ele>132.8</ele>
        <time>2017-04-16T11:29:16.000Z</time>
      </trkpt>
      <trkpt lat="43.56668" lon="2.95469">
        <ele>132.8</ele>
        <time>2017-04-16T11:29:19.000Z</time>
      </trkpt>
      <trkpt lat="43.56667" lon="2.95425">
        <ele>132.8</ele>
        <time>2017-04-16T11:29:25.000Z</time>
      </trkpt>
      <trkpt lat="43.56666" lon="2.95404">
        <ele>132.8</ele>
        <time>2017-04-16T11:29:28.000Z</time>
      </trkpt>
      <trkpt lat="43.56668" lon="2.95374">
        <ele>132.8</ele>
        <time>2017-04-16T11:29:33.000Z</time>
      </trkpt>
      <trkpt lat="43.56667" lon="2.95366">
        <ele>132.8</ele>
        <time>2017-04-16T11:29:34.000Z</time>
      </trkpt>
      <trkpt lat="43.56664" lon="2.95347">
        <ele>132.6</ele>
        <time>2017-04-16T11:29:36.000Z</time>
      </trkpt>
      <trkpt lat="43.56663" lon="2.95337">
        <ele>132.4</ele>
        <time>2017-04-16T11:29:37.000Z</time>
      </trkpt>
      <trkpt lat="43.56664" lon="2.95308">
        <ele>132</ele>
        <time>2017-04-16T11:29:40.000Z</time>
      </trkpt>
      <trkpt lat="43.56665" lon="2.95292">
        <ele>131.8</ele>
        <time>2017-04-16T11:29:42.000Z</time>
      </trkpt>
      <trkpt lat="43.56665" lon="2.95284">
        <ele>131.6</ele>
        <time>2017-04-16T11:29:43.000Z</time>
      </trkpt>
      <trkpt lat="43.56659" lon="2.95213">
        <ele>131.2</ele>
        <time>2017-04-16T11:29:51.000Z</time>
      </trkpt>
      <trkpt lat="43.56658" lon="2.9515">
        <ele>131</ele>
        <time>2017-04-16T11:29:58.000Z</time>
      </trkpt>
      <trkpt lat="43.56665" lon="2.95084">
        <ele>130.8</ele>
        <time>2017-04-16T11:30:05.000Z</time>
      </trkpt>
      <trkpt lat="43.56677" lon="2.95031">
        <ele>130.8</ele>
        <time>2017-04-16T11:30:11.000Z</time>
      </trkpt>
      <trkpt lat="43.56687" lon="2.94991">
        <ele>130.8</ele>
        <time>2017-04-16T11:30:16.000Z</time>
      </trkpt>
      <trkpt lat="43.56693" lon="2.94966">
        <ele>130.2</ele>
        <time>2017-04-16T11:30:19.000Z</time>
      </trkpt>
      <trkpt lat="43.56695" lon="2.94957">
        <ele>130</ele>
        <time>2017-04-16T11:30:20.000Z</time>
      </trkpt>
      <trkpt lat="43.56698" lon="2.9493">
        <ele>129.6</ele>
        <time>2017-04-16T11:30:23.000Z</time>
      </trkpt>
      <trkpt lat="43.567" lon="2.94911">
        <ele>129.4</ele>
        <time>2017-04-16T11:30:25.000Z</time>
      </trkpt>
      <trkpt lat="43.56702" lon="2.94892">
        <ele>129.2</ele>
        <time>2017-04-16T11:30:27.000Z</time>
      </trkpt>
      <trkpt lat="43.56703" lon="2.94831">
        <ele>129</ele>
        <time>2017-04-16T11:30:34.000Z</time>
      </trkpt>
      <trkpt lat="43.56698" lon="2.94788">
        <ele>128.8</ele>
        <time>2017-04-16T11:30:39.000Z</time>
      </trkpt>
      <trkpt lat="43.56697" lon="2.94774">
        <ele>128.8</ele>
        <time>2017-04-16T11:30:41.000Z</time>
      </trkpt>
      <trkpt lat="43.56697" lon="2.94752">
        <ele>128.8</ele>
        <time>2017-04-16T11:30:44.000Z</time>
      </trkpt>
      <trkpt lat="43.5669" lon="2.94728">
        <ele>128.6</ele>
        <time>2017-04-16T11:30:47.000Z</time>
      </trkpt>
      <trkpt lat="43.56678" lon="2.94689">
        <ele>128.6</ele>
        <time>2017-04-16T11:30:52.000Z</time>
      </trkpt>
      <trkpt lat="43.56668" lon="2.94661">
        <ele>128.6</ele>
        <time>2017-04-16T11:30:56.000Z</time>
      </trkpt>
      <trkpt lat="43.56638" lon="2.946">
        <ele>128.6</ele>
        <time>2017-04-16T11:31:04.000Z</time>
      </trkpt>
      <trkpt lat="43.5662" lon="2.94554">
        <ele>128.4</ele>
        <time>2017-04-16T11:31:10.000Z</time>
      </trkpt>
      <trkpt lat="43.56617" lon="2.94547">
        <ele>128.2</ele>
        <time>2017-04-16T11:31:11.000Z</time>
      </trkpt>
      <trkpt lat="43.56609" lon="2.94524">
        <ele>127.8</ele>
        <time>2017-04-16T11:31:14.000Z</time>
      </trkpt>
      <trkpt lat="43.56603" lon="2.94511">
        <ele>127.4</ele>
        <time>2017-04-16T11:31:16.000Z</time>
      </trkpt>
      <trkpt lat="43.56601" lon="2.94504">
        <ele>127.4</ele>
        <time>2017-04-16T11:31:17.000Z</time>
      </trkpt>
      <trkpt lat="43.56598" lon="2.94496">
        <ele>127.2</ele>
        <time>2017-04-16T11:31:18.000Z</time>
      </trkpt>
      <trkpt lat="43.56587" lon="2.94463">
        <ele>127</ele>
        <time>2017-04-16T11:31:23.000Z</time>
      </trkpt>
      <trkpt lat="43.5658" lon="2.94443">
        <ele>126.8</ele>
        <time>2017-04-16T11:31:26.000Z</time>
      </trkpt>
      <trkpt lat="43.56576" lon="2.94428">
        <ele>126.8</ele>
        <time>2017-04-16T11:31:28.000Z</time>
      </trkpt>
      <trkpt lat="43.56572" lon="2.94401">
        <ele>126.6</ele>
        <time>2017-04-16T11:31:32.000Z</time>
      </trkpt>
      <trkpt lat="43.56571" lon="2.94395">
        <ele>126.4</ele>
        <time>2017-04-16T11:31:33.000Z</time>
      </trkpt>
      <trkpt lat="43.56568" lon="2.94382">
        <ele>126</ele>
        <time>2017-04-16T11:31:35.000Z</time>
      </trkpt>
      <trkpt lat="43.56568" lon="2.94376">
        <ele>125.8</ele>
        <time>2017-04-16T11:31:36.000Z</time>
      </trkpt>
      <trkpt lat="43.56567" lon="2.94368">
        <ele>125.8</ele>
        <time>2017-04-16T11:31:37.000Z</time>
      </trkpt>
      <trkpt lat="43.56563" lon="2.94354">
        <ele>125.4</ele>
        <time>2017-04-16T11:31:39.000Z</time>
      </trkpt>
      <trkpt lat="43.56559" lon="2.94338">
        <ele>125.2</ele>
        <time>2017-04-16T11:31:41.000Z</time>
      </trkpt>
      <trkpt lat="43.56558" lon="2.9433">
        <ele>125.2</ele>
        <time>2017-04-16T11:31:42.000Z</time>
      </trkpt>
      <trkpt lat="43.56557" lon="2.94305">
        <ele>125</ele>
        <time>2017-04-16T11:31:45.000Z</time>
      </trkpt>
      <trkpt lat="43.56558" lon="2.9429">
        <ele>124.6</ele>
        <time>2017-04-16T11:31:47.000Z</time>
      </trkpt>
      <trkpt lat="43.56557" lon="2.94271">
        <ele>124.2</ele>
        <time>2017-04-16T11:31:49.000Z</time>
      </trkpt>
      <trkpt lat="43.56555" lon="2.94263">
        <ele>124</ele>
        <time>2017-04-16T11:31:50.000Z</time>
      </trkpt>
      <trkpt lat="43.56555" lon="2.94256">
        <ele>123.8</ele>
        <time>2017-04-16T11:31:51.000Z</time>
      </trkpt>
      <trkpt lat="43.56556" lon="2.94242">
        <ele>123.6</ele>
        <time>2017-04-16T11:31:53.000Z</time>
      </trkpt>
      <trkpt lat="43.56556" lon="2.94236">
        <ele>123.4</ele>
        <time>2017-04-16T11:31:54.000Z</time>
      </trkpt>
      <trkpt lat="43.56548" lon="2.94174">
        <ele>122.8</ele>
        <time>2017-04-16T11:31:59.000Z</time>
      </trkpt>
      <trkpt lat="43.56547" lon="2.94153">
        <ele>122.2</ele>
        <time>2017-04-16T11:32:01.000Z</time>
      </trkpt>
      <trkpt lat="43.56545" lon="2.94135">
        <ele>121.8</ele>
        <time>2017-04-16T11:32:03.000Z</time>
      </trkpt>
      <trkpt lat="43.56541" lon="2.94117">
        <ele>121.6</ele>
        <time>2017-04-16T11:32:05.000Z</time>
      </trkpt>
      <trkpt lat="43.56536" lon="2.94101">
        <ele>121.4</ele>
        <time>2017-04-16T11:32:07.000Z</time>
      </trkpt>
      <trkpt lat="43.56533" lon="2.94085">
        <ele>121.2</ele>
        <time>2017-04-16T11:32:09.000Z</time>
      </trkpt>
      <trkpt lat="43.56519" lon="2.94041">
        <ele>120.8</ele>
        <time>2017-04-16T11:32:14.000Z</time>
      </trkpt>
      <trkpt lat="43.56507" lon="2.93998">
        <ele>120.6</ele>
        <time>2017-04-16T11:32:19.000Z</time>
      </trkpt>
      <trkpt lat="43.56493" lon="2.93947">
        <ele>120.4</ele>
        <time>2017-04-16T11:32:25.000Z</time>
      </trkpt>
      <trkpt lat="43.56487" lon="2.93907">
        <ele>120.4</ele>
        <time>2017-04-16T11:32:30.000Z</time>
      </trkpt>
      <trkpt lat="43.56482" lon="2.93856">
        <ele>120.2</ele>
        <time>2017-04-16T11:32:37.000Z</time>
      </trkpt>
      <trkpt lat="43.56475" lon="2.93809">
        <ele>120.2</ele>
        <time>2017-04-16T11:32:43.000Z</time>
      </trkpt>
      <trkpt lat="43.56474" lon="2.938">
        <ele>120.2</ele>
        <time>2017-04-16T11:32:44.000Z</time>
      </trkpt>
      <trkpt lat="43.56468" lon="2.9377">
        <ele>120.2</ele>
        <time>2017-04-16T11:32:48.000Z</time>
      </trkpt>
      <trkpt lat="43.56464" lon="2.93749">
        <ele>120.2</ele>
        <time>2017-04-16T11:32:52.000Z</time>
      </trkpt>
      <trkpt lat="43.56461" lon="2.93738">
        <ele>120</ele>
        <time>2017-04-16T11:32:55.000Z</time>
      </trkpt>
      <trkpt lat="43.56459" lon="2.93733">
        <ele>119.6</ele>
        <time>2017-04-16T11:32:57.000Z</time>
      </trkpt>
      <trkpt lat="43.56458" lon="2.93728">
        <ele>119.4</ele>
        <time>2017-04-16T11:32:59.000Z</time>
      </trkpt>
      <trkpt lat="43.56455" lon="2.9372">
        <ele>119.2</ele>
        <time>2017-04-16T11:33:01.000Z</time>
      </trkpt>
      <trkpt lat="43.56452" lon="2.93711">
        <ele>119</ele>
        <time>2017-04-16T11:33:03.000Z</time>
      </trkpt>
      <trkpt lat="43.56449" lon="2.93701">
        <ele>118.8</ele>
        <time>2017-04-16T11:33:05.000Z</time>
      </trkpt>
      <trkpt lat="43.56436" lon="2.93673">
        <ele>118.6</ele>
        <time>2017-04-16T11:33:10.000Z</time>
      </trkpt>
      <trkpt lat="43.56428" lon="2.93652">
        <ele>118.4</ele>
        <time>2017-04-16T11:33:15.000Z</time>
      </trkpt>
      <trkpt lat="43.56423" lon="2.93643">
        <ele>118.2</ele>
        <time>2017-04-16T11:33:18.000Z</time>
      </trkpt>
      <trkpt lat="43.5642" lon="2.93633">
        <ele>118.2</ele>
        <time>2017-04-16T11:33:20.000Z</time>
      </trkpt>
      <trkpt lat="43.56406" lon="2.9361">
        <ele>118.2</ele>
        <time>2017-04-16T11:33:26.000Z</time>
      </trkpt>
      <trkpt lat="43.564" lon="2.93594">
        <ele>118.2</ele>
        <time>2017-04-16T11:33:30.000Z</time>
      </trkpt>
      <trkpt lat="43.56398" lon="2.93591">
        <ele>118.2</ele>
        <time>2017-04-16T11:33:31.000Z</time>
      </trkpt>
      <trkpt lat="43.56388" lon="2.93579">
        <ele>118.4</ele>
        <time>2017-04-16T11:33:34.000Z</time>
      </trkpt>
      <trkpt lat="43.56376" lon="2.93571">
        <ele>118.6</ele>
        <time>2017-04-16T11:33:36.000Z</time>
      </trkpt>
      <trkpt lat="43.56366" lon="2.93564">
        <ele>119</ele>
        <time>2017-04-16T11:33:38.000Z</time>
      </trkpt>
      <trkpt lat="43.56357" lon="2.93555">
        <ele>119.2</ele>
        <time>2017-04-16T11:33:40.000Z</time>
      </trkpt>
      <trkpt lat="43.56344" lon="2.93547">
        <ele>119.4</ele>
        <time>2017-04-16T11:33:42.000Z</time>
      </trkpt>
      <trkpt lat="43.56309" lon="2.93513">
        <ele>120</ele>
        <time>2017-04-16T11:33:50.000Z</time>
      </trkpt>
      <trkpt lat="43.56305" lon="2.93509">
        <ele>120.2</ele>
        <time>2017-04-16T11:33:51.000Z</time>
      </trkpt>
      <trkpt lat="43.56301" lon="2.93506">
        <ele>120.4</ele>
        <time>2017-04-16T11:33:52.000Z</time>
      </trkpt>
      <trkpt lat="43.56297" lon="2.93502">
        <ele>120.6</ele>
        <time>2017-04-16T11:33:53.000Z</time>
      </trkpt>
      <trkpt lat="43.56288" lon="2.93496">
        <ele>121.2</ele>
        <time>2017-04-16T11:33:55.000Z</time>
      </trkpt>
      <trkpt lat="43.56279" lon="2.9349">
        <ele>121.8</ele>
        <time>2017-04-16T11:33:57.000Z</time>
      </trkpt>
      <trkpt lat="43.56271" lon="2.93482">
        <ele>122.4</ele>
        <time>2017-04-16T11:33:59.000Z</time>
      </trkpt>
      <trkpt lat="43.56261" lon="2.93476">
        <ele>122.8</ele>
        <time>2017-04-16T11:34:01.000Z</time>
      </trkpt>
      <trkpt lat="43.56251" lon="2.93469">
        <ele>122.8</ele>
        <time>2017-04-16T11:34:03.000Z</time>
      </trkpt>
      <trkpt lat="43.56247" lon="2.93465">
        <ele>122.8</ele>
        <time>2017-04-16T11:34:04.000Z</time>
      </trkpt>
      <trkpt lat="43.56235" lon="2.93451">
        <ele>122.8</ele>
        <time>2017-04-16T11:34:07.000Z</time>
      </trkpt>
      <trkpt lat="43.56227" lon="2.93442">
        <ele>122.6</ele>
        <time>2017-04-16T11:34:09.000Z</time>
      </trkpt>
      <trkpt lat="43.5622" lon="2.93435">
        <ele>122.6</ele>
        <time>2017-04-16T11:34:11.000Z</time>
      </trkpt>
      <trkpt lat="43.56204" lon="2.93424">
        <ele>122.6</ele>
        <time>2017-04-16T11:34:15.000Z</time>
      </trkpt>
      <trkpt lat="43.56187" lon="2.93397">
        <ele>122.4</ele>
        <time>2017-04-16T11:34:20.000Z</time>
      </trkpt>
      <trkpt lat="43.56179" lon="2.93386">
        <ele>122.4</ele>
        <time>2017-04-16T11:34:22.000Z</time>
      </trkpt>
      <trkpt lat="43.56173" lon="2.93374">
        <ele>122.4</ele>
        <time>2017-04-16T11:34:24.000Z</time>
      </trkpt>
      <trkpt lat="43.56147" lon="2.93331">
        <ele>122.4</ele>
        <time>2017-04-16T11:34:32.000Z</time>
      </trkpt>
      <trkpt lat="43.56134" lon="2.93316">
        <ele>122.4</ele>
        <time>2017-04-16T11:34:36.000Z</time>
      </trkpt>
      <trkpt lat="43.56119" lon="2.93297">
        <ele>122.4</ele>
        <time>2017-04-16T11:34:41.000Z</time>
      </trkpt>
      <trkpt lat="43.56115" lon="2.93293">
        <ele>122.4</ele>
        <time>2017-04-16T11:34:42.000Z</time>
      </trkpt>
      <trkpt lat="43.56092" lon="2.93262">
        <ele>122.4</ele>
        <time>2017-04-16T11:34:48.000Z</time>
      </trkpt>
      <trkpt lat="43.5608" lon="2.93243">
        <ele>122.4</ele>
        <time>2017-04-16T11:34:52.000Z</time>
      </trkpt>
      <trkpt lat="43.56075" lon="2.93235">
        <ele>122.4</ele>
        <time>2017-04-16T11:34:54.000Z</time>
      </trkpt>
      <trkpt lat="43.56058" lon="2.9321">
        <ele>122.4</ele>
        <time>2017-04-16T11:34:59.000Z</time>
      </trkpt>
      <trkpt lat="43.56049" lon="2.93198">
        <ele>122.4</ele>
        <time>2017-04-16T11:35:01.000Z</time>
      </trkpt>
      <trkpt lat="43.5603" lon="2.93171">
        <ele>122.4</ele>
        <time>2017-04-16T11:35:06.000Z</time>
      </trkpt>
      <trkpt lat="43.56014" lon="2.93149">
        <ele>122.4</ele>
        <time>2017-04-16T11:35:10.000Z</time>
      </trkpt>
      <trkpt lat="43.56003" lon="2.93133">
        <ele>122.4</ele>
        <time>2017-04-16T11:35:14.000Z</time>
      </trkpt>
      <trkpt lat="43.56" lon="2.93128">
        <ele>122.4</ele>
        <time>2017-04-16T11:35:15.000Z</time>
      </trkpt>
      <trkpt lat="43.55989" lon="2.93108">
        <ele>122.4</ele>
        <time>2017-04-16T11:35:19.000Z</time>
      </trkpt>
      <trkpt lat="43.55973" lon="2.93064">
        <ele>122.4</ele>
        <time>2017-04-16T11:35:26.000Z</time>
      </trkpt>
      <trkpt lat="43.55971" lon="2.93057">
        <ele>122.4</ele>
        <time>2017-04-16T11:35:27.000Z</time>
      </trkpt>
      <trkpt lat="43.55964" lon="2.93039">
        <ele>122.6</ele>
        <time>2017-04-16T11:35:30.000Z</time>
      </trkpt>
      <trkpt lat="43.5596" lon="2.93028">
        <ele>123</ele>
        <time>2017-04-16T11:35:32.000Z</time>
      </trkpt>
      <trkpt lat="43.55956" lon="2.93017">
        <ele>123.4</ele>
        <time>2017-04-16T11:35:34.000Z</time>
      </trkpt>
      <trkpt lat="43.55951" lon="2.93002">
        <ele>123.6</ele>
        <time>2017-04-16T11:35:36.000Z</time>
      </trkpt>
      <trkpt lat="43.55947" lon="2.92987">
        <ele>123.8</ele>
        <time>2017-04-16T11:35:38.000Z</time>
      </trkpt>
      <trkpt lat="43.55945" lon="2.92971">
        <ele>124</ele>
        <time>2017-04-16T11:35:40.000Z</time>
      </trkpt>
      <trkpt lat="43.55935" lon="2.92928">
        <ele>124.2</ele>
        <time>2017-04-16T11:35:46.000Z</time>
      </trkpt>
      <trkpt lat="43.5593" lon="2.92892">
        <ele>124.4</ele>
        <time>2017-04-16T11:35:51.000Z</time>
      </trkpt>
      <trkpt lat="43.55922" lon="2.92848">
        <ele>124.6</ele>
        <time>2017-04-16T11:35:57.000Z</time>
      </trkpt>
      <trkpt lat="43.55915" lon="2.92805">
        <ele>124.6</ele>
        <time>2017-04-16T11:36:04.000Z</time>
      </trkpt>
      <trkpt lat="43.55915" lon="2.92797">
        <ele>124.6</ele>
        <time>2017-04-16T11:36:05.000Z</time>
      </trkpt>
      <trkpt lat="43.55906" lon="2.92754">
        <ele>124.6</ele>
        <time>2017-04-16T11:36:11.000Z</time>
      </trkpt>
      <trkpt lat="43.559" lon="2.92724">
        <ele>124.6</ele>
        <time>2017-04-16T11:36:16.000Z</time>
      </trkpt>
      <trkpt lat="43.55895" lon="2.92707">
        <ele>124.6</ele>
        <time>2017-04-16T11:36:19.000Z</time>
      </trkpt>
      <trkpt lat="43.55884" lon="2.92671">
        <ele>124.6</ele>
        <time>2017-04-16T11:36:25.000Z</time>
      </trkpt>
      <trkpt lat="43.5588" lon="2.92655">
        <ele>124.6</ele>
        <time>2017-04-16T11:36:28.000Z</time>
      </trkpt>
      <trkpt lat="43.55878" lon="2.92649">
        <ele>124.6</ele>
        <time>2017-04-16T11:36:29.000Z</time>
      </trkpt>
      <trkpt lat="43.55868" lon="2.9262">
        <ele>124.8</ele>
        <time>2017-04-16T11:36:33.000Z</time>
      </trkpt>
      <trkpt lat="43.55864" lon="2.92605">
        <ele>125.2</ele>
        <time>2017-04-16T11:36:35.000Z</time>
      </trkpt>
      <trkpt lat="43.55859" lon="2.92592">
        <ele>125.4</ele>
        <time>2017-04-16T11:36:37.000Z</time>
      </trkpt>
      <trkpt lat="43.55855" lon="2.92579">
        <ele>125.8</ele>
        <time>2017-04-16T11:36:39.000Z</time>
      </trkpt>
      <trkpt lat="43.55851" lon="2.92567">
        <ele>126</ele>
        <time>2017-04-16T11:36:41.000Z</time>
      </trkpt>
      <trkpt lat="43.5584" lon="2.92529">
        <ele>126.4</ele>
        <time>2017-04-16T11:36:47.000Z</time>
      </trkpt>
      <trkpt lat="43.55834" lon="2.92507">
        <ele>126.4</ele>
        <time>2017-04-16T11:36:51.000Z</time>
      </trkpt>
      <trkpt lat="43.55825" lon="2.9248">
        <ele>126.6</ele>
        <time>2017-04-16T11:36:55.000Z</time>
      </trkpt>
      <trkpt lat="43.55814" lon="2.92431">
        <ele>126.8</ele>
        <time>2017-04-16T11:37:02.000Z</time>
      </trkpt>
      <trkpt lat="43.55811" lon="2.92414">
        <ele>127.2</ele>
        <time>2017-04-16T11:37:04.000Z</time>
      </trkpt>
      <trkpt lat="43.5581" lon="2.92406">
        <ele>127.4</ele>
        <time>2017-04-16T11:37:05.000Z</time>
      </trkpt>
      <trkpt lat="43.55809" lon="2.924">
        <ele>127.6</ele>
        <time>2017-04-16T11:37:06.000Z</time>
      </trkpt>
      <trkpt lat="43.55809" lon="2.92391">
        <ele>127.8</ele>
        <time>2017-04-16T11:37:08.000Z</time>
      </trkpt>
      <trkpt lat="43.55809" lon="2.92383">
        <ele>128</ele>
        <time>2017-04-16T11:37:10.000Z</time>
      </trkpt>
      <trkpt lat="43.55807" lon="2.92366">
        <ele>128.2</ele>
        <time>2017-04-16T11:37:13.000Z</time>
      </trkpt>
      <trkpt lat="43.55802" lon="2.92327">
        <ele>128.4</ele>
        <time>2017-04-16T11:37:18.000Z</time>
      </trkpt>
      <trkpt lat="43.55795" lon="2.92282">
        <ele>128.6</ele>
        <time>2017-04-16T11:37:23.000Z</time>
      </trkpt>
      <trkpt lat="43.55789" lon="2.92237">
        <ele>128.6</ele>
        <time>2017-04-16T11:37:29.000Z</time>
      </trkpt>
      <trkpt lat="43.55785" lon="2.92206">
        <ele>128.8</ele>
        <time>2017-04-16T11:37:33.000Z</time>
      </trkpt>
      <trkpt lat="43.55781" lon="2.92178">
        <ele>128.8</ele>
        <time>2017-04-16T11:37:37.000Z</time>
      </trkpt>
      <trkpt lat="43.55776" lon="2.92143">
        <ele>129</ele>
        <time>2017-04-16T11:37:42.000Z</time>
      </trkpt>
      <trkpt lat="43.55774" lon="2.9213">
        <ele>129.4</ele>
        <time>2017-04-16T11:37:44.000Z</time>
      </trkpt>
      <trkpt lat="43.5577" lon="2.92117">
        <ele>129.6</ele>
        <time>2017-04-16T11:37:46.000Z</time>
      </trkpt>
      <trkpt lat="43.55766" lon="2.92101">
        <ele>129.8</ele>
        <time>2017-04-16T11:37:48.000Z</time>
      </trkpt>
      <trkpt lat="43.55761" lon="2.92087">
        <ele>130</ele>
        <time>2017-04-16T11:37:50.000Z</time>
      </trkpt>
      <trkpt lat="43.55748" lon="2.92047">
        <ele>130.4</ele>
        <time>2017-04-16T11:37:56.000Z</time>
      </trkpt>
      <trkpt lat="43.55746" lon="2.92041">
        <ele>130.6</ele>
        <time>2017-04-16T11:37:57.000Z</time>
      </trkpt>
      <trkpt lat="43.55742" lon="2.92029">
        <ele>131.2</ele>
        <time>2017-04-16T11:37:59.000Z</time>
      </trkpt>
      <trkpt lat="43.55739" lon="2.92019">
        <ele>131.4</ele>
        <time>2017-04-16T11:38:01.000Z</time>
      </trkpt>
      <trkpt lat="43.55736" lon="2.92009">
        <ele>131.8</ele>
        <time>2017-04-16T11:38:03.000Z</time>
      </trkpt>
      <trkpt lat="43.55732" lon="2.91998">
        <ele>132</ele>
        <time>2017-04-16T11:38:05.000Z</time>
      </trkpt>
      <trkpt lat="43.55717" lon="2.91956">
        <ele>132.6</ele>
        <time>2017-04-16T11:38:13.000Z</time>
      </trkpt>
      <trkpt lat="43.55709" lon="2.91934">
        <ele>132.8</ele>
        <time>2017-04-16T11:38:18.000Z</time>
      </trkpt>
      <trkpt lat="43.55703" lon="2.91921">
        <ele>133</ele>
        <time>2017-04-16T11:38:21.000Z</time>
      </trkpt>
      <trkpt lat="43.557" lon="2.91913">
        <ele>133.4</ele>
        <time>2017-04-16T11:38:23.000Z</time>
      </trkpt>
      <trkpt lat="43.55698" lon="2.91905">
        <ele>133.8</ele>
        <time>2017-04-16T11:38:25.000Z</time>
      </trkpt>
      <trkpt lat="43.55696" lon="2.91897">
        <ele>133.8</ele>
        <time>2017-04-16T11:38:27.000Z</time>
      </trkpt>
      <trkpt lat="43.55693" lon="2.91889">
        <ele>133.6</ele>
        <time>2017-04-16T11:38:29.000Z</time>
      </trkpt>
      <trkpt lat="43.5569" lon="2.91881">
        <ele>133.6</ele>
        <time>2017-04-16T11:38:31.000Z</time>
      </trkpt>
      <trkpt lat="43.55686" lon="2.91871">
        <ele>133.4</ele>
        <time>2017-04-16T11:38:33.000Z</time>
      </trkpt>
      <trkpt lat="43.55682" lon="2.91861">
        <ele>133.4</ele>
        <time>2017-04-16T11:38:35.000Z</time>
      </trkpt>
      <trkpt lat="43.55681" lon="2.91856">
        <ele>133.4</ele>
        <time>2017-04-16T11:38:36.000Z</time>
      </trkpt>
      <trkpt lat="43.55675" lon="2.9184">
        <ele>133.2</ele>
        <time>2017-04-16T11:38:39.000Z</time>
      </trkpt>
      <trkpt lat="43.55666" lon="2.91815">
        <ele>133.2</ele>
        <time>2017-04-16T11:38:44.000Z</time>
      </trkpt>
      <trkpt lat="43.55657" lon="2.91789">
        <ele>133.2</ele>
        <time>2017-04-16T11:38:49.000Z</time>
      </trkpt>
      <trkpt lat="43.55648" lon="2.91749">
        <ele>133</ele>
        <time>2017-04-16T11:38:56.000Z</time>
      </trkpt>
      <trkpt lat="43.55645" lon="2.91723">
        <ele>133</ele>
        <time>2017-04-16T11:39:01.000Z</time>
      </trkpt>
      <trkpt lat="43.55655" lon="2.91706">
        <ele>132.8</ele>
        <time>2017-04-16T11:39:06.000Z</time>
      </trkpt>
      <trkpt lat="43.55659" lon="2.91705">
        <ele>132.6</ele>
        <time>2017-04-16T11:39:07.000Z</time>
      </trkpt>
      <trkpt lat="43.55666" lon="2.91704">
        <ele>132.2</ele>
        <time>2017-04-16T11:39:08.000Z</time>
      </trkpt>
      <trkpt lat="43.55677" lon="2.91707">
        <ele>131</ele>
        <time>2017-04-16T11:39:10.000Z</time>
      </trkpt>
      <trkpt lat="43.55681" lon="2.91708">
        <ele>130.6</ele>
        <time>2017-04-16T11:39:11.000Z</time>
      </trkpt>
      <trkpt lat="43.55683" lon="2.91708">
        <ele>130</ele>
        <time>2017-04-16T11:39:12.000Z</time>
      </trkpt>
      <trkpt lat="43.55683" lon="2.91705">
        <ele>129.2</ele>
        <time>2017-04-16T11:39:14.000Z</time>
      </trkpt>
      <trkpt lat="43.55681" lon="2.91702">
        <ele>128.6</ele>
        <time>2017-04-16T11:39:16.000Z</time>
      </trkpt>
      <trkpt lat="43.5568" lon="2.91701">
        <ele>128</ele>
        <time>2017-04-16T11:39:18.000Z</time>
      </trkpt>
      <trkpt lat="43.55673" lon="2.91697">
        <ele>126.6</ele>
        <time>2017-04-16T11:39:29.000Z</time>
      </trkpt>
      <trkpt lat="43.55672" lon="2.91697">
        <ele>126.8</ele>
        <time>2017-04-16T11:39:31.000Z</time>
      </trkpt>
      <trkpt lat="43.5567" lon="2.91696">
        <ele>127</ele>
        <time>2017-04-16T11:39:33.000Z</time>
      </trkpt>
      <trkpt lat="43.55669" lon="2.91696">
        <ele>127.2</ele>
        <time>2017-04-16T11:39:35.000Z</time>
      </trkpt>
      <trkpt lat="43.55668" lon="2.91695">
        <ele>127.2</ele>
        <time>2017-04-16T11:39:37.000Z</time>
      </trkpt>
      <trkpt lat="43.55667" lon="2.91694">
        <ele>127.6</ele>
        <time>2017-04-16T11:39:39.000Z</time>
      </trkpt>
      <trkpt lat="43.55666" lon="2.91694">
        <ele>128</ele>
        <time>2017-04-16T11:39:41.000Z</time>
      </trkpt>
      <trkpt lat="43.55665" lon="2.91692">
        <ele>128.4</ele>
        <time>2017-04-16T11:39:43.000Z</time>
      </trkpt>
      <trkpt lat="43.55663" lon="2.91691">
        <ele>128.6</ele>
        <time>2017-04-16T11:39:44.000Z</time>
      </trkpt>
      <trkpt lat="43.55662" lon="2.91689">
        <ele>128.8</ele>
        <time>2017-04-16T11:39:45.000Z</time>
      </trkpt>
      <trkpt lat="43.55661" lon="2.91686">
        <ele>129</ele>
        <time>2017-04-16T11:39:47.000Z</time>
      </trkpt>
      <trkpt lat="43.55659" lon="2.91685">
        <ele>129.2</ele>
        <time>2017-04-16T11:39:48.000Z</time>
      </trkpt>
      <trkpt lat="43.55659" lon="2.91668">
        <ele>129.6</ele>
        <time>2017-04-16T11:39:53.000Z</time>
      </trkpt>
      <trkpt lat="43.55659" lon="2.91659">
        <ele>129.6</ele>
        <time>2017-04-16T11:39:55.000Z</time>
      </trkpt>
      <trkpt lat="43.5565" lon="2.91642">
        <ele>129.8</ele>
        <time>2017-04-16T11:39:59.000Z</time>
      </trkpt>
      <trkpt lat="43.55648" lon="2.91638">
        <ele>129.8</ele>
        <time>2017-04-16T11:40:00.000Z</time>
      </trkpt>
      <trkpt lat="43.55642" lon="2.91615">
        <ele>130</ele>
        <time>2017-04-16T11:40:07.000Z</time>
      </trkpt>
      <trkpt lat="43.55642" lon="2.91614">
        <ele>130</ele>
        <time>2017-04-16T11:40:08.000Z</time>
      </trkpt>
      <trkpt lat="43.5564" lon="2.91608">
        <ele>130.2</ele>
        <time>2017-04-16T11:41:02.000Z</time>
      </trkpt>
      <trkpt lat="43.55639" lon="2.91607">
        <ele>130.2</ele>
        <time>2017-04-16T11:41:05.000Z</time>
      </trkpt>
      <trkpt lat="43.55635" lon="2.91606">
        <ele>130.2</ele>
        <time>2017-04-16T11:41:23.000Z</time>
      </trkpt>
      <trkpt lat="43.55634" lon="2.91606">
        <ele>130.2</ele>
        <time>2017-04-16T11:41:24.000Z</time>
      </trkpt>
      <trkpt lat="43.55623" lon="2.91603">
        <ele>130.2</ele>
        <time>2017-04-16T11:41:31.000Z</time>
      </trkpt>
      <trkpt lat="43.5561" lon="2.91603">
        <ele>130.2</ele>
        <time>2017-04-16T11:41:37.000Z</time>
      </trkpt>
      <trkpt lat="43.55604" lon="2.91605">
        <ele>130.2</ele>
        <time>2017-04-16T11:41:39.000Z</time>
      </trkpt>
      <trkpt lat="43.55595" lon="2.91623">
        <ele>130.2</ele>
        <time>2017-04-16T11:41:43.000Z</time>
      </trkpt>
      <trkpt lat="43.55596" lon="2.9163">
        <ele>130.2</ele>
        <time>2017-04-16T11:41:44.000Z</time>
      </trkpt>
      <trkpt lat="43.55613" lon="2.91682">
        <ele>130.2</ele>
        <time>2017-04-16T11:41:51.000Z</time>
      </trkpt>
      <trkpt lat="43.55615" lon="2.9169">
        <ele>129.8</ele>
        <time>2017-04-16T11:41:52.000Z</time>
      </trkpt>
      <trkpt lat="43.55615" lon="2.91697">
        <ele>129.6</ele>
        <time>2017-04-16T11:41:53.000Z</time>
      </trkpt>
      <trkpt lat="43.55614" lon="2.91702">
        <ele>129.6</ele>
        <time>2017-04-16T11:41:54.000Z</time>
      </trkpt>
      <trkpt lat="43.5561" lon="2.91703">
        <ele>129.2</ele>
        <time>2017-04-16T11:41:56.000Z</time>
      </trkpt>
      <trkpt lat="43.55608" lon="2.917">
        <ele>129</ele>
        <time>2017-04-16T11:41:57.000Z</time>
      </trkpt>
      <trkpt lat="43.55604" lon="2.91692">
        <ele>128.8</ele>
        <time>2017-04-16T11:41:59.000Z</time>
      </trkpt>
      <trkpt lat="43.55602" lon="2.9169">
        <ele>128.8</ele>
        <time>2017-04-16T11:42:00.000Z</time>
      </trkpt>
      <trkpt lat="43.55592" lon="2.91691">
        <ele>128.4</ele>
        <time>2017-04-16T11:42:04.000Z</time>
      </trkpt>
      <trkpt lat="43.55586" lon="2.91683">
        <ele>128</ele>
        <time>2017-04-16T11:42:07.000Z</time>
      </trkpt>
      <trkpt lat="43.55584" lon="2.91677">
        <ele>127.6</ele>
        <time>2017-04-16T11:42:09.000Z</time>
      </trkpt>
      <trkpt lat="43.55581" lon="2.91673">
        <ele>127.4</ele>
        <time>2017-04-16T11:42:11.000Z</time>
      </trkpt>
      <trkpt lat="43.55579" lon="2.91672">
        <ele>127.2</ele>
        <time>2017-04-16T11:42:12.000Z</time>
      </trkpt>
      <trkpt lat="43.55577" lon="2.91671">
        <ele>127</ele>
        <time>2017-04-16T11:42:13.000Z</time>
      </trkpt>
      <trkpt lat="43.55576" lon="2.91671">
        <ele>127</ele>
        <time>2017-04-16T11:42:14.000Z</time>
      </trkpt>
      <trkpt lat="43.55582" lon="2.9167">
        <ele>123.4</ele>
        <time>2017-04-16T12:14:56.000Z</time>
      </trkpt>
      <trkpt lat="43.55583" lon="2.91669">
        <ele>123.4</ele>
        <time>2017-04-16T12:14:57.000Z</time>
      </trkpt>
      <trkpt lat="43.55584" lon="2.91669">
        <ele>123.4</ele>
        <time>2017-04-16T12:14:58.000Z</time>
      </trkpt>
      <trkpt lat="43.55585" lon="2.91668">
        <ele>123.4</ele>
        <time>2017-04-16T12:14:59.000Z</time>
      </trkpt>
      <trkpt lat="43.55588" lon="2.91669">
        <ele>123.4</ele>
        <time>2017-04-16T12:15:01.000Z</time>
      </trkpt>
      <trkpt lat="43.55589" lon="2.91671">
        <ele>123.4</ele>
        <time>2017-04-16T12:15:02.000Z</time>
      </trkpt>
      <trkpt lat="43.55594" lon="2.91678">
        <ele>123.4</ele>
        <time>2017-04-16T12:15:05.000Z</time>
      </trkpt>
      <trkpt lat="43.55603" lon="2.91699">
        <ele>123.4</ele>
        <time>2017-04-16T12:15:11.000Z</time>
      </trkpt>
      <trkpt lat="43.55609" lon="2.91706">
        <ele>123.4</ele>
        <time>2017-04-16T12:15:14.000Z</time>
      </trkpt>
      <trkpt lat="43.55612" lon="2.917">
        <ele>123.4</ele>
        <time>2017-04-16T12:15:17.000Z</time>
      </trkpt>
      <trkpt lat="43.55607" lon="2.91673">
        <ele>123.4</ele>
        <time>2017-04-16T12:15:23.000Z</time>
      </trkpt>
      <trkpt lat="43.55603" lon="2.91651">
        <ele>123.4</ele>
        <time>2017-04-16T12:15:29.000Z</time>
      </trkpt>
      <trkpt lat="43.55602" lon="2.91647">
        <ele>123.6</ele>
        <time>2017-04-16T12:15:30.000Z</time>
      </trkpt>
      <trkpt lat="43.55601" lon="2.9164">
        <ele>123.8</ele>
        <time>2017-04-16T12:15:32.000Z</time>
      </trkpt>
      <trkpt lat="43.55599" lon="2.91633">
        <ele>124.2</ele>
        <time>2017-04-16T12:15:34.000Z</time>
      </trkpt>
      <trkpt lat="43.55596" lon="2.91626">
        <ele>124.4</ele>
        <time>2017-04-16T12:15:36.000Z</time>
      </trkpt>
      <trkpt lat="43.55594" lon="2.91622">
        <ele>124.6</ele>
        <time>2017-04-16T12:15:38.000Z</time>
      </trkpt>
      <trkpt lat="43.55591" lon="2.91613">
        <ele>125</ele>
        <time>2017-04-16T12:15:42.000Z</time>
      </trkpt>
      <trkpt lat="43.55601" lon="2.9161">
        <ele>125.2</ele>
        <time>2017-04-16T12:15:48.000Z</time>
      </trkpt>
      <trkpt lat="43.55616" lon="2.91612">
        <ele>125.2</ele>
        <time>2017-04-16T12:15:53.000Z</time>
      </trkpt>
      <trkpt lat="43.55623" lon="2.91611">
        <ele>125.6</ele>
        <time>2017-04-16T12:15:57.000Z</time>
      </trkpt>
      <trkpt lat="43.55626" lon="2.91612">
        <ele>125.8</ele>
        <time>2017-04-16T12:15:59.000Z</time>
      </trkpt>
      <trkpt lat="43.55628" lon="2.91613">
        <ele>126</ele>
        <time>2017-04-16T12:16:00.000Z</time>
      </trkpt>
      <trkpt lat="43.5563" lon="2.91615">
        <ele>126.2</ele>
        <time>2017-04-16T12:16:01.000Z</time>
      </trkpt>
      <trkpt lat="43.55634" lon="2.91618">
        <ele>126.4</ele>
        <time>2017-04-16T12:16:03.000Z</time>
      </trkpt>
      <trkpt lat="43.55635" lon="2.9162">
        <ele>126.6</ele>
        <time>2017-04-16T12:16:04.000Z</time>
      </trkpt>
      <trkpt lat="43.55637" lon="2.9162">
        <ele>126.8</ele>
        <time>2017-04-16T12:16:08.000Z</time>
      </trkpt>
      <trkpt lat="43.55637" lon="2.91619">
        <ele>127</ele>
        <time>2017-04-16T12:16:09.000Z</time>
      </trkpt>
      <trkpt lat="43.55638" lon="2.91615">
        <ele>127.4</ele>
        <time>2017-04-16T12:16:24.000Z</time>
      </trkpt>
      <trkpt lat="43.55637" lon="2.91617">
        <ele>127.4</ele>
        <time>2017-04-16T12:16:27.000Z</time>
      </trkpt>
      <trkpt lat="43.55642" lon="2.91629">
        <ele>127.4</ele>
        <time>2017-04-16T12:16:33.000Z</time>
      </trkpt>
      <trkpt lat="43.55648" lon="2.91652">
        <ele>127.4</ele>
        <time>2017-04-16T12:16:40.000Z</time>
      </trkpt>
      <trkpt lat="43.55648" lon="2.91654">
        <ele>127.4</ele>
        <time>2017-04-16T12:16:41.000Z</time>
      </trkpt>
      <trkpt lat="43.55658" lon="2.91657">
        <ele>127.4</ele>
        <time>2017-04-16T12:16:46.000Z</time>
      </trkpt>
      <trkpt lat="43.55671" lon="2.91654">
        <ele>127.4</ele>
        <time>2017-04-16T12:16:50.000Z</time>
      </trkpt>
      <trkpt lat="43.55674" lon="2.91652">
        <ele>127.4</ele>
        <time>2017-04-16T12:16:51.000Z</time>
      </trkpt>
      <trkpt lat="43.55689" lon="2.91648">
        <ele>127.4</ele>
        <time>2017-04-16T12:16:56.000Z</time>
      </trkpt>
      <trkpt lat="43.55699" lon="2.91651">
        <ele>127.4</ele>
        <time>2017-04-16T12:16:59.000Z</time>
      </trkpt>
      <trkpt lat="43.55718" lon="2.91644">
        <ele>127.2</ele>
        <time>2017-04-16T12:17:03.000Z</time>
      </trkpt>
      <trkpt lat="43.55729" lon="2.91621">
        <ele>126.8</ele>
        <time>2017-04-16T12:17:05.000Z</time>
      </trkpt>
      <trkpt lat="43.55737" lon="2.91607">
        <ele>126.6</ele>
        <time>2017-04-16T12:17:07.000Z</time>
      </trkpt>
      <trkpt lat="43.55744" lon="2.91593">
        <ele>126.4</ele>
        <time>2017-04-16T12:17:09.000Z</time>
      </trkpt>
      <trkpt lat="43.55747" lon="2.91586">
        <ele>126</ele>
        <time>2017-04-16T12:17:10.000Z</time>
      </trkpt>
      <trkpt lat="43.55751" lon="2.91579">
        <ele>125.8</ele>
        <time>2017-04-16T12:17:11.000Z</time>
      </trkpt>
      <trkpt lat="43.55761" lon="2.91555">
        <ele>125</ele>
        <time>2017-04-16T12:17:14.000Z</time>
      </trkpt>
      <trkpt lat="43.55765" lon="2.91546">
        <ele>124.8</ele>
        <time>2017-04-16T12:17:15.000Z</time>
      </trkpt>
      <trkpt lat="43.55769" lon="2.91537">
        <ele>124.6</ele>
        <time>2017-04-16T12:17:16.000Z</time>
      </trkpt>
      <trkpt lat="43.5578" lon="2.91525">
        <ele>124.2</ele>
        <time>2017-04-16T12:17:18.000Z</time>
      </trkpt>
      <trkpt lat="43.55787" lon="2.91525">
        <ele>123.8</ele>
        <time>2017-04-16T12:17:19.000Z</time>
      </trkpt>
      <trkpt lat="43.5581" lon="2.91531">
        <ele>123</ele>
        <time>2017-04-16T12:17:22.000Z</time>
      </trkpt>
      <trkpt lat="43.55824" lon="2.91532">
        <ele>122.4</ele>
        <time>2017-04-16T12:17:24.000Z</time>
      </trkpt>
      <trkpt lat="43.55836" lon="2.91531">
        <ele>121.6</ele>
        <time>2017-04-16T12:17:26.000Z</time>
      </trkpt>
      <trkpt lat="43.55842" lon="2.91533">
        <ele>121.4</ele>
        <time>2017-04-16T12:17:27.000Z</time>
      </trkpt>
      <trkpt lat="43.55846" lon="2.91536">
        <ele>121</ele>
        <time>2017-04-16T12:17:28.000Z</time>
      </trkpt>
      <trkpt lat="43.55847" lon="2.91548">
        <ele>120.6</ele>
        <time>2017-04-16T12:17:30.000Z</time>
      </trkpt>
      <trkpt lat="43.55846" lon="2.91553">
        <ele>120.4</ele>
        <time>2017-04-16T12:17:31.000Z</time>
      </trkpt>
      <trkpt lat="43.55845" lon="2.91558">
        <ele>120.2</ele>
        <time>2017-04-16T12:17:32.000Z</time>
      </trkpt>
      <trkpt lat="43.55843" lon="2.91562">
        <ele>120</ele>
        <time>2017-04-16T12:17:33.000Z</time>
      </trkpt>
      <trkpt lat="43.55842" lon="2.91567">
        <ele>119.2</ele>
        <time>2017-04-16T12:17:35.000Z</time>
      </trkpt>
      <trkpt lat="43.55842" lon="2.9157">
        <ele>119</ele>
        <time>2017-04-16T12:17:36.000Z</time>
      </trkpt>
      <trkpt lat="43.55847" lon="2.91572">
        <ele>118.4</ele>
        <time>2017-04-16T12:17:39.000Z</time>
      </trkpt>
      <trkpt lat="43.55852" lon="2.91564">
        <ele>118</ele>
        <time>2017-04-16T12:17:41.000Z</time>
      </trkpt>
      <trkpt lat="43.55854" lon="2.91555">
        <ele>117.8</ele>
        <time>2017-04-16T12:17:43.000Z</time>
      </trkpt>
      <trkpt lat="43.55854" lon="2.91538">
        <ele>117.6</ele>
        <time>2017-04-16T12:17:48.000Z</time>
      </trkpt>
      <trkpt lat="43.55853" lon="2.91532">
        <ele>117.8</ele>
        <time>2017-04-16T12:17:50.000Z</time>
      </trkpt>
      <trkpt lat="43.55853" lon="2.91529">
        <ele>117.8</ele>
        <time>2017-04-16T12:17:51.000Z</time>
      </trkpt>
      <trkpt lat="43.55853" lon="2.91526">
        <ele>118</ele>
        <time>2017-04-16T12:17:52.000Z</time>
      </trkpt>
      <trkpt lat="43.55853" lon="2.9152">
        <ele>118.2</ele>
        <time>2017-04-16T12:17:54.000Z</time>
      </trkpt>
      <trkpt lat="43.55854" lon="2.91513">
        <ele>118.4</ele>
        <time>2017-04-16T12:17:56.000Z</time>
      </trkpt>
      <trkpt lat="43.55856" lon="2.91507">
        <ele>119</ele>
        <time>2017-04-16T12:17:58.000Z</time>
      </trkpt>
      <trkpt lat="43.55858" lon="2.91502">
        <ele>119.2</ele>
        <time>2017-04-16T12:18:00.000Z</time>
      </trkpt>
      <trkpt lat="43.5586" lon="2.91496">
        <ele>119.6</ele>
        <time>2017-04-16T12:18:02.000Z</time>
      </trkpt>
      <trkpt lat="43.55862" lon="2.91489">
        <ele>120</ele>
        <time>2017-04-16T12:18:04.000Z</time>
      </trkpt>
      <trkpt lat="43.55864" lon="2.91484">
        <ele>120.6</ele>
        <time>2017-04-16T12:18:06.000Z</time>
      </trkpt>
      <trkpt lat="43.55867" lon="2.9148">
        <ele>121</ele>
        <time>2017-04-16T12:18:08.000Z</time>
      </trkpt>
      <trkpt lat="43.5587" lon="2.91475">
        <ele>121.4</ele>
        <time>2017-04-16T12:18:10.000Z</time>
      </trkpt>
      <trkpt lat="43.55874" lon="2.91471">
        <ele>121.8</ele>
        <time>2017-04-16T12:18:13.000Z</time>
      </trkpt>
      <trkpt lat="43.55883" lon="2.91465">
        <ele>122.2</ele>
        <time>2017-04-16T12:18:16.000Z</time>
      </trkpt>
      <trkpt lat="43.55895" lon="2.91455">
        <ele>122.6</ele>
        <time>2017-04-16T12:18:21.000Z</time>
      </trkpt>
      <trkpt lat="43.55899" lon="2.91454">
        <ele>123.2</ele>
        <time>2017-04-16T12:18:23.000Z</time>
      </trkpt>
      <trkpt lat="43.559" lon="2.91453">
        <ele>123.4</ele>
        <time>2017-04-16T12:18:24.000Z</time>
      </trkpt>
      <trkpt lat="43.55908" lon="2.91453">
        <ele>123.8</ele>
        <time>2017-04-16T12:18:27.000Z</time>
      </trkpt>
      <trkpt lat="43.55913" lon="2.91452">
        <ele>124</ele>
        <time>2017-04-16T12:18:29.000Z</time>
      </trkpt>
      <trkpt lat="43.55915" lon="2.91452">
        <ele>124.2</ele>
        <time>2017-04-16T12:18:30.000Z</time>
      </trkpt>
      <trkpt lat="43.55918" lon="2.91449">
        <ele>125</ele>
        <time>2017-04-16T12:18:33.000Z</time>
      </trkpt>
      <trkpt lat="43.55923" lon="2.91446">
        <ele>125.4</ele>
        <time>2017-04-16T12:18:35.000Z</time>
      </trkpt>
      <trkpt lat="43.55927" lon="2.91445">
        <ele>125.8</ele>
        <time>2017-04-16T12:18:37.000Z</time>
      </trkpt>
      <trkpt lat="43.5593" lon="2.91446">
        <ele>126</ele>
        <time>2017-04-16T12:18:39.000Z</time>
      </trkpt>
      <trkpt lat="43.55932" lon="2.91446">
        <ele>126.4</ele>
        <time>2017-04-16T12:18:40.000Z</time>
      </trkpt>
      <trkpt lat="43.55935" lon="2.91446">
        <ele>126.8</ele>
        <time>2017-04-16T12:18:42.000Z</time>
      </trkpt>
      <trkpt lat="43.55939" lon="2.91444">
        <ele>127.4</ele>
        <time>2017-04-16T12:18:44.000Z</time>
      </trkpt>
      <trkpt lat="43.5594" lon="2.91442">
        <ele>127.8</ele>
        <time>2017-04-16T12:18:46.000Z</time>
      </trkpt>
      <trkpt lat="43.55939" lon="2.91441">
        <ele>128.6</ele>
        <time>2017-04-16T12:18:48.000Z</time>
      </trkpt>
      <trkpt lat="43.55941" lon="2.9144">
        <ele>129</ele>
        <time>2017-04-16T12:18:50.000Z</time>
      </trkpt>
      <trkpt lat="43.55945" lon="2.91437">
        <ele>129.4</ele>
        <time>2017-04-16T12:18:52.000Z</time>
      </trkpt>
      <trkpt lat="43.5595" lon="2.91433">
        <ele>129.8</ele>
        <time>2017-04-16T12:18:54.000Z</time>
      </trkpt>
      <trkpt lat="43.55959" lon="2.91425">
        <ele>130.6</ele>
        <time>2017-04-16T12:18:58.000Z</time>
      </trkpt>
      <trkpt lat="43.55962" lon="2.91422">
        <ele>131</ele>
        <time>2017-04-16T12:19:00.000Z</time>
      </trkpt>
      <trkpt lat="43.55966" lon="2.91417">
        <ele>131.4</ele>
        <time>2017-04-16T12:19:02.000Z</time>
      </trkpt>
      <trkpt lat="43.55968" lon="2.91415">
        <ele>131.6</ele>
        <time>2017-04-16T12:19:03.000Z</time>
      </trkpt>
      <trkpt lat="43.55976" lon="2.91414">
        <ele>132</ele>
        <time>2017-04-16T12:19:06.000Z</time>
      </trkpt>
      <trkpt lat="43.55987" lon="2.91412">
        <ele>132.6</ele>
        <time>2017-04-16T12:19:11.000Z</time>
      </trkpt>
      <trkpt lat="43.55999" lon="2.91419">
        <ele>133</ele>
        <time>2017-04-16T12:19:16.000Z</time>
      </trkpt>
      <trkpt lat="43.56003" lon="2.91423">
        <ele>133.6</ele>
        <time>2017-04-16T12:19:18.000Z</time>
      </trkpt>
      <trkpt lat="43.56008" lon="2.91426">
        <ele>133.8</ele>
        <time>2017-04-16T12:19:20.000Z</time>
      </trkpt>
      <trkpt lat="43.56013" lon="2.91428">
        <ele>134.2</ele>
        <time>2017-04-16T12:19:22.000Z</time>
      </trkpt>
      <trkpt lat="43.56017" lon="2.91431">
        <ele>134.4</ele>
        <time>2017-04-16T12:19:24.000Z</time>
      </trkpt>
      <trkpt lat="43.56018" lon="2.91432">
        <ele>134.4</ele>
        <time>2017-04-16T12:19:25.000Z</time>
      </trkpt>
      <trkpt lat="43.5602" lon="2.91436">
        <ele>134.8</ele>
        <time>2017-04-16T12:19:28.000Z</time>
      </trkpt>
      <trkpt lat="43.56028" lon="2.91442">
        <ele>135</ele>
        <time>2017-04-16T12:19:33.000Z</time>
      </trkpt>
      <trkpt lat="43.56035" lon="2.91449">
        <ele>135.2</ele>
        <time>2017-04-16T12:19:39.000Z</time>
      </trkpt>
      <trkpt lat="43.5604" lon="2.91451">
        <ele>135.2</ele>
        <time>2017-04-16T12:19:41.000Z</time>
      </trkpt>
      <trkpt lat="43.56047" lon="2.91455">
        <ele>135.2</ele>
        <time>2017-04-16T12:19:44.000Z</time>
      </trkpt>
      <trkpt lat="43.56052" lon="2.9146">
        <ele>135.8</ele>
        <time>2017-04-16T12:19:47.000Z</time>
      </trkpt>
      <trkpt lat="43.56054" lon="2.91462">
        <ele>136</ele>
        <time>2017-04-16T12:19:48.000Z</time>
      </trkpt>
      <trkpt lat="43.5606" lon="2.91466">
        <ele>136.4</ele>
        <time>2017-04-16T12:19:51.000Z</time>
      </trkpt>
      <trkpt lat="43.56063" lon="2.91467">
        <ele>136.8</ele>
        <time>2017-04-16T12:19:52.000Z</time>
      </trkpt>
      <trkpt lat="43.56067" lon="2.91471">
        <ele>137.4</ele>
        <time>2017-04-16T12:19:54.000Z</time>
      </trkpt>
      <trkpt lat="43.5607" lon="2.91477">
        <ele>137.8</ele>
        <time>2017-04-16T12:19:56.000Z</time>
      </trkpt>
      <trkpt lat="43.56073" lon="2.91483">
        <ele>138.2</ele>
        <time>2017-04-16T12:19:58.000Z</time>
      </trkpt>
      <trkpt lat="43.56074" lon="2.91486">
        <ele>138.4</ele>
        <time>2017-04-16T12:19:59.000Z</time>
      </trkpt>
      <trkpt lat="43.56076" lon="2.91488">
        <ele>138.6</ele>
        <time>2017-04-16T12:20:00.000Z</time>
      </trkpt>
      <trkpt lat="43.56078" lon="2.9149">
        <ele>138.8</ele>
        <time>2017-04-16T12:20:01.000Z</time>
      </trkpt>
      <trkpt lat="43.56081" lon="2.91501">
        <ele>139.2</ele>
        <time>2017-04-16T12:20:06.000Z</time>
      </trkpt>
      <trkpt lat="43.56085" lon="2.91505">
        <ele>140</ele>
        <time>2017-04-16T12:20:09.000Z</time>
      </trkpt>
      <trkpt lat="43.56088" lon="2.91507">
        <ele>140.4</ele>
        <time>2017-04-16T12:20:11.000Z</time>
      </trkpt>
      <trkpt lat="43.5609" lon="2.91509">
        <ele>140.8</ele>
        <time>2017-04-16T12:20:13.000Z</time>
      </trkpt>
      <trkpt lat="43.56092" lon="2.91512">
        <ele>141</ele>
        <time>2017-04-16T12:20:15.000Z</time>
      </trkpt>
      <trkpt lat="43.56093" lon="2.91514">
        <ele>141.2</ele>
        <time>2017-04-16T12:20:16.000Z</time>
      </trkpt>
      <trkpt lat="43.56096" lon="2.91514">
        <ele>141.4</ele>
        <time>2017-04-16T12:20:18.000Z</time>
      </trkpt>
      <trkpt lat="43.56103" lon="2.91517">
        <ele>141.8</ele>
        <time>2017-04-16T12:20:21.000Z</time>
      </trkpt>
      <trkpt lat="43.56105" lon="2.91518">
        <ele>142</ele>
        <time>2017-04-16T12:20:22.000Z</time>
      </trkpt>
      <trkpt lat="43.56112" lon="2.91523">
        <ele>142.8</ele>
        <time>2017-04-16T12:20:25.000Z</time>
      </trkpt>
      <trkpt lat="43.56116" lon="2.91526">
        <ele>143</ele>
        <time>2017-04-16T12:20:27.000Z</time>
      </trkpt>
      <trkpt lat="43.56119" lon="2.91528">
        <ele>143.2</ele>
        <time>2017-04-16T12:20:28.000Z</time>
      </trkpt>
      <trkpt lat="43.56122" lon="2.91531">
        <ele>143.2</ele>
        <time>2017-04-16T12:20:29.000Z</time>
      </trkpt>
      <trkpt lat="43.56127" lon="2.91537">
        <ele>143.8</ele>
        <time>2017-04-16T12:20:31.000Z</time>
      </trkpt>
      <trkpt lat="43.56128" lon="2.91544">
        <ele>144.2</ele>
        <time>2017-04-16T12:20:33.000Z</time>
      </trkpt>
      <trkpt lat="43.56129" lon="2.91547">
        <ele>144.8</ele>
        <time>2017-04-16T12:20:34.000Z</time>
      </trkpt>
      <trkpt lat="43.56129" lon="2.91552">
        <ele>145.8</ele>
        <time>2017-04-16T12:20:36.000Z</time>
      </trkpt>
      <trkpt lat="43.56129" lon="2.91557">
        <ele>146.8</ele>
        <time>2017-04-16T12:20:38.000Z</time>
      </trkpt>
      <trkpt lat="43.56129" lon="2.91563">
        <ele>147.8</ele>
        <time>2017-04-16T12:20:40.000Z</time>
      </trkpt>
      <trkpt lat="43.56128" lon="2.91569">
        <ele>148.4</ele>
        <time>2017-04-16T12:20:42.000Z</time>
      </trkpt>
      <trkpt lat="43.56127" lon="2.91572">
        <ele>148.6</ele>
        <time>2017-04-16T12:20:43.000Z</time>
      </trkpt>
      <trkpt lat="43.56125" lon="2.91579">
        <ele>149.4</ele>
        <time>2017-04-16T12:20:46.000Z</time>
      </trkpt>
      <trkpt lat="43.56125" lon="2.91588">
        <ele>149.8</ele>
        <time>2017-04-16T12:20:49.000Z</time>
      </trkpt>
      <trkpt lat="43.56126" lon="2.91596">
        <ele>150.2</ele>
        <time>2017-04-16T12:20:52.000Z</time>
      </trkpt>
      <trkpt lat="43.56132" lon="2.91605">
        <ele>150.8</ele>
        <time>2017-04-16T12:20:58.000Z</time>
      </trkpt>
      <trkpt lat="43.56138" lon="2.91611">
        <ele>151</ele>
        <time>2017-04-16T12:21:02.000Z</time>
      </trkpt>
      <trkpt lat="43.56141" lon="2.91613">
        <ele>151</ele>
        <time>2017-04-16T12:21:04.000Z</time>
      </trkpt>
      <trkpt lat="43.56149" lon="2.91618">
        <ele>151.2</ele>
        <time>2017-04-16T12:21:09.000Z</time>
      </trkpt>
      <trkpt lat="43.56158" lon="2.91618">
        <ele>151.2</ele>
        <time>2017-04-16T12:21:15.000Z</time>
      </trkpt>
      <trkpt lat="43.56161" lon="2.91619">
        <ele>151.4</ele>
        <time>2017-04-16T12:21:16.000Z</time>
      </trkpt>
      <trkpt lat="43.56165" lon="2.9162">
        <ele>151.8</ele>
        <time>2017-04-16T12:21:18.000Z</time>
      </trkpt>
      <trkpt lat="43.56169" lon="2.9162">
        <ele>152.2</ele>
        <time>2017-04-16T12:21:20.000Z</time>
      </trkpt>
      <trkpt lat="43.56173" lon="2.91619">
        <ele>152.8</ele>
        <time>2017-04-16T12:21:22.000Z</time>
      </trkpt>
      <trkpt lat="43.56177" lon="2.91618">
        <ele>153.4</ele>
        <time>2017-04-16T12:21:24.000Z</time>
      </trkpt>
      <trkpt lat="43.56181" lon="2.91619">
        <ele>153.8</ele>
        <time>2017-04-16T12:21:26.000Z</time>
      </trkpt>
      <trkpt lat="43.56184" lon="2.91621">
        <ele>154.2</ele>
        <time>2017-04-16T12:21:28.000Z</time>
      </trkpt>
      <trkpt lat="43.56189" lon="2.91623">
        <ele>154.6</ele>
        <time>2017-04-16T12:21:30.000Z</time>
      </trkpt>
      <trkpt lat="43.56191" lon="2.91623">
        <ele>155</ele>
        <time>2017-04-16T12:21:31.000Z</time>
      </trkpt>
      <trkpt lat="43.56193" lon="2.91624">
        <ele>155.4</ele>
        <time>2017-04-16T12:21:32.000Z</time>
      </trkpt>
      <trkpt lat="43.56199" lon="2.91625">
        <ele>155.8</ele>
        <time>2017-04-16T12:21:34.000Z</time>
      </trkpt>
      <trkpt lat="43.56205" lon="2.91629">
        <ele>156.2</ele>
        <time>2017-04-16T12:21:36.000Z</time>
      </trkpt>
      <trkpt lat="43.56209" lon="2.9163">
        <ele>156.4</ele>
        <time>2017-04-16T12:21:37.000Z</time>
      </trkpt>
      <trkpt lat="43.56212" lon="2.91631">
        <ele>156.6</ele>
        <time>2017-04-16T12:21:38.000Z</time>
      </trkpt>
      <trkpt lat="43.56218" lon="2.91633">
        <ele>157.2</ele>
        <time>2017-04-16T12:21:41.000Z</time>
      </trkpt>
      <trkpt lat="43.56219" lon="2.91635">
        <ele>157.4</ele>
        <time>2017-04-16T12:21:42.000Z</time>
      </trkpt>
      <trkpt lat="43.56221" lon="2.91636">
        <ele>157.8</ele>
        <time>2017-04-16T12:21:43.000Z</time>
      </trkpt>
      <trkpt lat="43.56226" lon="2.91638">
        <ele>158.2</ele>
        <time>2017-04-16T12:21:45.000Z</time>
      </trkpt>
      <trkpt lat="43.56233" lon="2.91637">
        <ele>158.6</ele>
        <time>2017-04-16T12:21:47.000Z</time>
      </trkpt>
      <trkpt lat="43.56239" lon="2.91635">
        <ele>158.8</ele>
        <time>2017-04-16T12:21:49.000Z</time>
      </trkpt>
      <trkpt lat="43.56255" lon="2.91632">
        <ele>159.4</ele>
        <time>2017-04-16T12:21:55.000Z</time>
      </trkpt>
      <trkpt lat="43.56263" lon="2.91632">
        <ele>159.8</ele>
        <time>2017-04-16T12:21:58.000Z</time>
      </trkpt>
      <trkpt lat="43.56268" lon="2.91633">
        <ele>160.2</ele>
        <time>2017-04-16T12:22:00.000Z</time>
      </trkpt>
      <trkpt lat="43.56273" lon="2.91634">
        <ele>160.6</ele>
        <time>2017-04-16T12:22:02.000Z</time>
      </trkpt>
      <trkpt lat="43.56277" lon="2.91636">
        <ele>160.8</ele>
        <time>2017-04-16T12:22:04.000Z</time>
      </trkpt>
      <trkpt lat="43.5628" lon="2.91639">
        <ele>161.2</ele>
        <time>2017-04-16T12:22:06.000Z</time>
      </trkpt>
      <trkpt lat="43.56282" lon="2.9164">
        <ele>161.2</ele>
        <time>2017-04-16T12:22:07.000Z</time>
      </trkpt>
      <trkpt lat="43.56291" lon="2.91642">
        <ele>161.6</ele>
        <time>2017-04-16T12:22:11.000Z</time>
      </trkpt>
      <trkpt lat="43.56296" lon="2.91644">
        <ele>162</ele>
        <time>2017-04-16T12:22:14.000Z</time>
      </trkpt>
      <trkpt lat="43.563" lon="2.91645">
        <ele>162.4</ele>
        <time>2017-04-16T12:22:16.000Z</time>
      </trkpt>
      <trkpt lat="43.56299" lon="2.91647">
        <ele>162.6</ele>
        <time>2017-04-16T12:22:17.000Z</time>
      </trkpt>
      <trkpt lat="43.563" lon="2.91648">
        <ele>162.8</ele>
        <time>2017-04-16T12:22:18.000Z</time>
      </trkpt>
      <trkpt lat="43.563" lon="2.9165">
        <ele>163</ele>
        <time>2017-04-16T12:22:20.000Z</time>
      </trkpt>
      <trkpt lat="43.56302" lon="2.91651">
        <ele>163.2</ele>
        <time>2017-04-16T12:22:21.000Z</time>
      </trkpt>
      <trkpt lat="43.56303" lon="2.91651">
        <ele>163.2</ele>
        <time>2017-04-16T12:22:22.000Z</time>
      </trkpt>
      <trkpt lat="43.56306" lon="2.91651">
        <ele>163.8</ele>
        <time>2017-04-16T12:22:24.000Z</time>
      </trkpt>
      <trkpt lat="43.56308" lon="2.91652">
        <ele>164</ele>
        <time>2017-04-16T12:22:25.000Z</time>
      </trkpt>
      <trkpt lat="43.5631" lon="2.91654">
        <ele>164.2</ele>
        <time>2017-04-16T12:22:26.000Z</time>
      </trkpt>
      <trkpt lat="43.56316" lon="2.91657">
        <ele>164.8</ele>
        <time>2017-04-16T12:22:28.000Z</time>
      </trkpt>
      <trkpt lat="43.56322" lon="2.91662">
        <ele>165.2</ele>
        <time>2017-04-16T12:22:31.000Z</time>
      </trkpt>
      <trkpt lat="43.56326" lon="2.91667">
        <ele>165.4</ele>
        <time>2017-04-16T12:22:32.000Z</time>
      </trkpt>
      <trkpt lat="43.56332" lon="2.91679">
        <ele>166</ele>
        <time>2017-04-16T12:22:37.000Z</time>
      </trkpt>
      <trkpt lat="43.56337" lon="2.91687">
        <ele>166.4</ele>
        <time>2017-04-16T12:22:42.000Z</time>
      </trkpt>
      <trkpt lat="43.56338" lon="2.91687">
        <ele>166.8</ele>
        <time>2017-04-16T12:22:43.000Z</time>
      </trkpt>
      <trkpt lat="43.56346" lon="2.91688">
        <ele>167.2</ele>
        <time>2017-04-16T12:22:46.000Z</time>
      </trkpt>
      <trkpt lat="43.56352" lon="2.91689">
        <ele>167.6</ele>
        <time>2017-04-16T12:22:48.000Z</time>
      </trkpt>
      <trkpt lat="43.56357" lon="2.9169">
        <ele>167.8</ele>
        <time>2017-04-16T12:22:50.000Z</time>
      </trkpt>
      <trkpt lat="43.56362" lon="2.91692">
        <ele>168.2</ele>
        <time>2017-04-16T12:22:52.000Z</time>
      </trkpt>
      <trkpt lat="43.56366" lon="2.91696">
        <ele>168.6</ele>
        <time>2017-04-16T12:22:54.000Z</time>
      </trkpt>
      <trkpt lat="43.5637" lon="2.91701">
        <ele>169.2</ele>
        <time>2017-04-16T12:22:56.000Z</time>
      </trkpt>
      <trkpt lat="43.56375" lon="2.91706">
        <ele>169.4</ele>
        <time>2017-04-16T12:22:58.000Z</time>
      </trkpt>
      <trkpt lat="43.56381" lon="2.9171">
        <ele>170</ele>
        <time>2017-04-16T12:23:00.000Z</time>
      </trkpt>
      <trkpt lat="43.56386" lon="2.91713">
        <ele>170.4</ele>
        <time>2017-04-16T12:23:02.000Z</time>
      </trkpt>
      <trkpt lat="43.56392" lon="2.91718">
        <ele>171</ele>
        <time>2017-04-16T12:23:04.000Z</time>
      </trkpt>
      <trkpt lat="43.56397" lon="2.91723">
        <ele>171.4</ele>
        <time>2017-04-16T12:23:06.000Z</time>
      </trkpt>
      <trkpt lat="43.56401" lon="2.91729">
        <ele>171.6</ele>
        <time>2017-04-16T12:23:08.000Z</time>
      </trkpt>
      <trkpt lat="43.56402" lon="2.91732">
        <ele>172</ele>
        <time>2017-04-16T12:23:09.000Z</time>
      </trkpt>
      <trkpt lat="43.56404" lon="2.91738">
        <ele>172.6</ele>
        <time>2017-04-16T12:23:11.000Z</time>
      </trkpt>
      <trkpt lat="43.56406" lon="2.91744">
        <ele>173</ele>
        <time>2017-04-16T12:23:13.000Z</time>
      </trkpt>
      <trkpt lat="43.56409" lon="2.9175">
        <ele>173.4</ele>
        <time>2017-04-16T12:23:15.000Z</time>
      </trkpt>
      <trkpt lat="43.56411" lon="2.91752">
        <ele>173.8</ele>
        <time>2017-04-16T12:23:16.000Z</time>
      </trkpt>
      <trkpt lat="43.56415" lon="2.91758">
        <ele>174.4</ele>
        <time>2017-04-16T12:23:18.000Z</time>
      </trkpt>
      <trkpt lat="43.56416" lon="2.91764">
        <ele>175</ele>
        <time>2017-04-16T12:23:20.000Z</time>
      </trkpt>
      <trkpt lat="43.56416" lon="2.91772">
        <ele>175.4</ele>
        <time>2017-04-16T12:23:22.000Z</time>
      </trkpt>
      <trkpt lat="43.56415" lon="2.91777">
        <ele>175.6</ele>
        <time>2017-04-16T12:23:24.000Z</time>
      </trkpt>
      <trkpt lat="43.56416" lon="2.9178">
        <ele>175.8</ele>
        <time>2017-04-16T12:23:25.000Z</time>
      </trkpt>
      <trkpt lat="43.56416" lon="2.91782">
        <ele>176.2</ele>
        <time>2017-04-16T12:23:26.000Z</time>
      </trkpt>
      <trkpt lat="43.56419" lon="2.91787">
        <ele>176.8</ele>
        <time>2017-04-16T12:23:28.000Z</time>
      </trkpt>
      <trkpt lat="43.56419" lon="2.91789">
        <ele>177</ele>
        <time>2017-04-16T12:23:29.000Z</time>
      </trkpt>
      <trkpt lat="43.5642" lon="2.91791">
        <ele>177.2</ele>
        <time>2017-04-16T12:23:30.000Z</time>
      </trkpt>
      <trkpt lat="43.56421" lon="2.91795">
        <ele>177.6</ele>
        <time>2017-04-16T12:23:32.000Z</time>
      </trkpt>
      <trkpt lat="43.56423" lon="2.91799">
        <ele>177.8</ele>
        <time>2017-04-16T12:23:34.000Z</time>
      </trkpt>
      <trkpt lat="43.56424" lon="2.91801">
        <ele>178</ele>
        <time>2017-04-16T12:23:35.000Z</time>
      </trkpt>
      <trkpt lat="43.56431" lon="2.91812">
        <ele>178.6</ele>
        <time>2017-04-16T12:23:42.000Z</time>
      </trkpt>
      <trkpt lat="43.56435" lon="2.91819">
        <ele>178.8</ele>
        <time>2017-04-16T12:23:47.000Z</time>
      </trkpt>
      <trkpt lat="43.56437" lon="2.9182">
        <ele>179</ele>
        <time>2017-04-16T12:23:48.000Z</time>
      </trkpt>
      <trkpt lat="43.56438" lon="2.91822">
        <ele>179.2</ele>
        <time>2017-04-16T12:23:49.000Z</time>
      </trkpt>
      <trkpt lat="43.5644" lon="2.91823">
        <ele>179.4</ele>
        <time>2017-04-16T12:23:50.000Z</time>
      </trkpt>
      <trkpt lat="43.56444" lon="2.91825">
        <ele>179.8</ele>
        <time>2017-04-16T12:23:52.000Z</time>
      </trkpt>
      <trkpt lat="43.56448" lon="2.91825">
        <ele>180</ele>
        <time>2017-04-16T12:23:54.000Z</time>
      </trkpt>
      <trkpt lat="43.5645" lon="2.91825">
        <ele>180.2</ele>
        <time>2017-04-16T12:23:55.000Z</time>
      </trkpt>
      <trkpt lat="43.56465" lon="2.91827">
        <ele>180.6</ele>
        <time>2017-04-16T12:24:00.000Z</time>
      </trkpt>
      <trkpt lat="43.56473" lon="2.91828">
        <ele>181</ele>
        <time>2017-04-16T12:24:03.000Z</time>
      </trkpt>
      <trkpt lat="43.56477" lon="2.91827">
        <ele>181.4</ele>
        <time>2017-04-16T12:24:05.000Z</time>
      </trkpt>
      <trkpt lat="43.56483" lon="2.91826">
        <ele>181.8</ele>
        <time>2017-04-16T12:24:07.000Z</time>
      </trkpt>
      <trkpt lat="43.56489" lon="2.91827">
        <ele>182</ele>
        <time>2017-04-16T12:24:10.000Z</time>
      </trkpt>
      <trkpt lat="43.56494" lon="2.91828">
        <ele>182.2</ele>
        <time>2017-04-16T12:24:11.000Z</time>
      </trkpt>
      <trkpt lat="43.56497" lon="2.91829">
        <ele>182.6</ele>
        <time>2017-04-16T12:24:12.000Z</time>
      </trkpt>
      <trkpt lat="43.56504" lon="2.91832">
        <ele>183.2</ele>
        <time>2017-04-16T12:24:14.000Z</time>
      </trkpt>
      <trkpt lat="43.5651" lon="2.91835">
        <ele>183.6</ele>
        <time>2017-04-16T12:24:16.000Z</time>
      </trkpt>
      <trkpt lat="43.56516" lon="2.9184">
        <ele>183.8</ele>
        <time>2017-04-16T12:24:18.000Z</time>
      </trkpt>
      <trkpt lat="43.56521" lon="2.91846">
        <ele>184.2</ele>
        <time>2017-04-16T12:24:20.000Z</time>
      </trkpt>
      <trkpt lat="43.56523" lon="2.91849">
        <ele>184.6</ele>
        <time>2017-04-16T12:24:21.000Z</time>
      </trkpt>
      <trkpt lat="43.56526" lon="2.91855">
        <ele>185</ele>
        <time>2017-04-16T12:24:23.000Z</time>
      </trkpt>
      <trkpt lat="43.56529" lon="2.91861">
        <ele>185.6</ele>
        <time>2017-04-16T12:24:25.000Z</time>
      </trkpt>
      <trkpt lat="43.56531" lon="2.91867">
        <ele>186</ele>
        <time>2017-04-16T12:24:27.000Z</time>
      </trkpt>
      <trkpt lat="43.56532" lon="2.91877">
        <ele>186.6</ele>
        <time>2017-04-16T12:24:30.000Z</time>
      </trkpt>
      <trkpt lat="43.56532" lon="2.91882">
        <ele>187.2</ele>
        <time>2017-04-16T12:24:32.000Z</time>
      </trkpt>
      <trkpt lat="43.56533" lon="2.91884">
        <ele>187.6</ele>
        <time>2017-04-16T12:24:33.000Z</time>
      </trkpt>
      <trkpt lat="43.56533" lon="2.91887">
        <ele>187.8</ele>
        <time>2017-04-16T12:24:34.000Z</time>
      </trkpt>
      <trkpt lat="43.56534" lon="2.91892">
        <ele>188.2</ele>
        <time>2017-04-16T12:24:37.000Z</time>
      </trkpt>
      <trkpt lat="43.56535" lon="2.91897">
        <ele>188.6</ele>
        <time>2017-04-16T12:24:38.000Z</time>
      </trkpt>
      <trkpt lat="43.56536" lon="2.91907">
        <ele>189.2</ele>
        <time>2017-04-16T12:24:42.000Z</time>
      </trkpt>
      <trkpt lat="43.56537" lon="2.91913">
        <ele>189.8</ele>
        <time>2017-04-16T12:24:44.000Z</time>
      </trkpt>
      <trkpt lat="43.56536" lon="2.91919">
        <ele>190.2</ele>
        <time>2017-04-16T12:24:46.000Z</time>
      </trkpt>
      <trkpt lat="43.56535" lon="2.91924">
        <ele>190.6</ele>
        <time>2017-04-16T12:24:48.000Z</time>
      </trkpt>
      <trkpt lat="43.56536" lon="2.91927">
        <ele>190.6</ele>
        <time>2017-04-16T12:24:49.000Z</time>
      </trkpt>
      <trkpt lat="43.56536" lon="2.91929">
        <ele>190.8</ele>
        <time>2017-04-16T12:24:50.000Z</time>
      </trkpt>
      <trkpt lat="43.56537" lon="2.91933">
        <ele>191</ele>
        <time>2017-04-16T12:24:52.000Z</time>
      </trkpt>
      <trkpt lat="43.5654" lon="2.91934">
        <ele>191.8</ele>
        <time>2017-04-16T12:24:55.000Z</time>
      </trkpt>
      <trkpt lat="43.56542" lon="2.91936">
        <ele>192.2</ele>
        <time>2017-04-16T12:24:57.000Z</time>
      </trkpt>
      <trkpt lat="43.56543" lon="2.91937">
        <ele>192.4</ele>
        <time>2017-04-16T12:24:58.000Z</time>
      </trkpt>
      <trkpt lat="43.56547" lon="2.91949">
        <ele>193.2</ele>
        <time>2017-04-16T12:25:01.000Z</time>
      </trkpt>
      <trkpt lat="43.5655" lon="2.91958">
        <ele>193.8</ele>
        <time>2017-04-16T12:25:03.000Z</time>
      </trkpt>
      <trkpt lat="43.56554" lon="2.91964">
        <ele>194.2</ele>
        <time>2017-04-16T12:25:05.000Z</time>
      </trkpt>
      <trkpt lat="43.56559" lon="2.91968">
        <ele>194.6</ele>
        <time>2017-04-16T12:25:07.000Z</time>
      </trkpt>
      <trkpt lat="43.56563" lon="2.91971">
        <ele>195</ele>
        <time>2017-04-16T12:25:09.000Z</time>
      </trkpt>
      <trkpt lat="43.56575" lon="2.9197">
        <ele>195.6</ele>
        <time>2017-04-16T12:25:14.000Z</time>
      </trkpt>
      <trkpt lat="43.56577" lon="2.91969">
        <ele>195.8</ele>
        <time>2017-04-16T12:25:15.000Z</time>
      </trkpt>
      <trkpt lat="43.56581" lon="2.91967">
        <ele>196.4</ele>
        <time>2017-04-16T12:25:17.000Z</time>
      </trkpt>
      <trkpt lat="43.56583" lon="2.91965">
        <ele>196.6</ele>
        <time>2017-04-16T12:25:18.000Z</time>
      </trkpt>
      <trkpt lat="43.56584" lon="2.91963">
        <ele>197</ele>
        <time>2017-04-16T12:25:19.000Z</time>
      </trkpt>
      <trkpt lat="43.56586" lon="2.91958">
        <ele>197.6</ele>
        <time>2017-04-16T12:25:21.000Z</time>
      </trkpt>
      <trkpt lat="43.56588" lon="2.91952">
        <ele>198.2</ele>
        <time>2017-04-16T12:25:23.000Z</time>
      </trkpt>
      <trkpt lat="43.56588" lon="2.91946">
        <ele>198.8</ele>
        <time>2017-04-16T12:25:25.000Z</time>
      </trkpt>
      <trkpt lat="43.56588" lon="2.9194">
        <ele>199.2</ele>
        <time>2017-04-16T12:25:27.000Z</time>
      </trkpt>
      <trkpt lat="43.56587" lon="2.91928">
        <ele>199.8</ele>
        <time>2017-04-16T12:25:31.000Z</time>
      </trkpt>
      <trkpt lat="43.56586" lon="2.91922">
        <ele>200.4</ele>
        <time>2017-04-16T12:25:33.000Z</time>
      </trkpt>
      <trkpt lat="43.56584" lon="2.91918">
        <ele>200.8</ele>
        <time>2017-04-16T12:25:35.000Z</time>
      </trkpt>
      <trkpt lat="43.56584" lon="2.91914">
        <ele>201.2</ele>
        <time>2017-04-16T12:25:37.000Z</time>
      </trkpt>
      <trkpt lat="43.56583" lon="2.9191">
        <ele>201.6</ele>
        <time>2017-04-16T12:25:39.000Z</time>
      </trkpt>
      <trkpt lat="43.56581" lon="2.91897">
        <ele>202</ele>
        <time>2017-04-16T12:25:43.000Z</time>
      </trkpt>
      <trkpt lat="43.5658" lon="2.9189">
        <ele>202.4</ele>
        <time>2017-04-16T12:25:45.000Z</time>
      </trkpt>
      <trkpt lat="43.5658" lon="2.91883">
        <ele>202.8</ele>
        <time>2017-04-16T12:25:47.000Z</time>
      </trkpt>
      <trkpt lat="43.5658" lon="2.91877">
        <ele>203.2</ele>
        <time>2017-04-16T12:25:49.000Z</time>
      </trkpt>
      <trkpt lat="43.56579" lon="2.9187">
        <ele>203.6</ele>
        <time>2017-04-16T12:25:51.000Z</time>
      </trkpt>
      <trkpt lat="43.56578" lon="2.91864">
        <ele>203.8</ele>
        <time>2017-04-16T12:25:53.000Z</time>
      </trkpt>
      <trkpt lat="43.56579" lon="2.91846">
        <ele>204.4</ele>
        <time>2017-04-16T12:25:59.000Z</time>
      </trkpt>
      <trkpt lat="43.56585" lon="2.9183">
        <ele>204.8</ele>
        <time>2017-04-16T12:26:05.000Z</time>
      </trkpt>
      <trkpt lat="43.5659" lon="2.91815">
        <ele>204.8</ele>
        <time>2017-04-16T12:26:10.000Z</time>
      </trkpt>
      <trkpt lat="43.56591" lon="2.91812">
        <ele>205</ele>
        <time>2017-04-16T12:26:11.000Z</time>
      </trkpt>
      <trkpt lat="43.56593" lon="2.91806">
        <ele>205.4</ele>
        <time>2017-04-16T12:26:13.000Z</time>
      </trkpt>
      <trkpt lat="43.56594" lon="2.918">
        <ele>205.8</ele>
        <time>2017-04-16T12:26:15.000Z</time>
      </trkpt>
      <trkpt lat="43.56595" lon="2.91794">
        <ele>206</ele>
        <time>2017-04-16T12:26:17.000Z</time>
      </trkpt>
      <trkpt lat="43.56598" lon="2.91789">
        <ele>206.2</ele>
        <time>2017-04-16T12:26:19.000Z</time>
      </trkpt>
      <trkpt lat="43.56608" lon="2.91786">
        <ele>206.8</ele>
        <time>2017-04-16T12:26:23.000Z</time>
      </trkpt>
      <trkpt lat="43.5661" lon="2.91787">
        <ele>207</ele>
        <time>2017-04-16T12:26:24.000Z</time>
      </trkpt>
      <trkpt lat="43.56614" lon="2.91791">
        <ele>207.6</ele>
        <time>2017-04-16T12:26:27.000Z</time>
      </trkpt>
      <trkpt lat="43.56613" lon="2.91793">
        <ele>207.8</ele>
        <time>2017-04-16T12:26:28.000Z</time>
      </trkpt>
      <trkpt lat="43.56611" lon="2.91802">
        <ele>208.2</ele>
        <time>2017-04-16T12:26:31.000Z</time>
      </trkpt>
      <trkpt lat="43.56606" lon="2.91821">
        <ele>208.8</ele>
        <time>2017-04-16T12:26:37.000Z</time>
      </trkpt>
      <trkpt lat="43.56607" lon="2.9183">
        <ele>209</ele>
        <time>2017-04-16T12:26:39.000Z</time>
      </trkpt>
      <trkpt lat="43.56608" lon="2.91837">
        <ele>209.6</ele>
        <time>2017-04-16T12:26:41.000Z</time>
      </trkpt>
      <trkpt lat="43.5661" lon="2.91845">
        <ele>210</ele>
        <time>2017-04-16T12:26:44.000Z</time>
      </trkpt>
      <trkpt lat="43.56612" lon="2.9185">
        <ele>210.2</ele>
        <time>2017-04-16T12:26:45.000Z</time>
      </trkpt>
      <trkpt lat="43.56613" lon="2.91853">
        <ele>210.6</ele>
        <time>2017-04-16T12:26:46.000Z</time>
      </trkpt>
      <trkpt lat="43.56615" lon="2.91858">
        <ele>211.2</ele>
        <time>2017-04-16T12:26:48.000Z</time>
      </trkpt>
      <trkpt lat="43.56617" lon="2.91864">
        <ele>211.6</ele>
        <time>2017-04-16T12:26:50.000Z</time>
      </trkpt>
      <trkpt lat="43.56618" lon="2.9187">
        <ele>212</ele>
        <time>2017-04-16T12:26:52.000Z</time>
      </trkpt>
      <trkpt lat="43.56619" lon="2.91873">
        <ele>212.4</ele>
        <time>2017-04-16T12:26:53.000Z</time>
      </trkpt>
      <trkpt lat="43.56622" lon="2.91879">
        <ele>213</ele>
        <time>2017-04-16T12:26:55.000Z</time>
      </trkpt>
      <trkpt lat="43.56625" lon="2.91885">
        <ele>213.6</ele>
        <time>2017-04-16T12:26:57.000Z</time>
      </trkpt>
      <trkpt lat="43.56628" lon="2.9189">
        <ele>214</ele>
        <time>2017-04-16T12:26:59.000Z</time>
      </trkpt>
      <trkpt lat="43.56631" lon="2.91895">
        <ele>214.4</ele>
        <time>2017-04-16T12:27:01.000Z</time>
      </trkpt>
      <trkpt lat="43.56634" lon="2.91906">
        <ele>215</ele>
        <time>2017-04-16T12:27:05.000Z</time>
      </trkpt>
      <trkpt lat="43.56636" lon="2.91912">
        <ele>215.6</ele>
        <time>2017-04-16T12:27:07.000Z</time>
      </trkpt>
      <trkpt lat="43.56639" lon="2.91917">
        <ele>216</ele>
        <time>2017-04-16T12:27:09.000Z</time>
      </trkpt>
      <trkpt lat="43.56641" lon="2.91922">
        <ele>216.4</ele>
        <time>2017-04-16T12:27:11.000Z</time>
      </trkpt>
      <trkpt lat="43.56644" lon="2.91928">
        <ele>216.6</ele>
        <time>2017-04-16T12:27:13.000Z</time>
      </trkpt>
      <trkpt lat="43.56646" lon="2.9193">
        <ele>217</ele>
        <time>2017-04-16T12:27:14.000Z</time>
      </trkpt>
      <trkpt lat="43.56649" lon="2.91935">
        <ele>217.6</ele>
        <time>2017-04-16T12:27:16.000Z</time>
      </trkpt>
      <trkpt lat="43.56652" lon="2.9194">
        <ele>218.4</ele>
        <time>2017-04-16T12:27:18.000Z</time>
      </trkpt>
      <trkpt lat="43.56655" lon="2.91945">
        <ele>219.2</ele>
        <time>2017-04-16T12:27:20.000Z</time>
      </trkpt>
      <trkpt lat="43.56657" lon="2.91951">
        <ele>219.8</ele>
        <time>2017-04-16T12:27:22.000Z</time>
      </trkpt>
      <trkpt lat="43.56659" lon="2.91958">
        <ele>220.4</ele>
        <time>2017-04-16T12:27:24.000Z</time>
      </trkpt>
      <trkpt lat="43.5666" lon="2.91964">
        <ele>220.8</ele>
        <time>2017-04-16T12:27:26.000Z</time>
      </trkpt>
      <trkpt lat="43.56664" lon="2.91988">
        <ele>221.8</ele>
        <time>2017-04-16T12:27:34.000Z</time>
      </trkpt>
      <trkpt lat="43.56672" lon="2.92003">
        <ele>222.2</ele>
        <time>2017-04-16T12:27:39.000Z</time>
      </trkpt>
      <trkpt lat="43.56677" lon="2.92011">
        <ele>222.4</ele>
        <time>2017-04-16T12:27:42.000Z</time>
      </trkpt>
      <trkpt lat="43.5668" lon="2.92015">
        <ele>222.8</ele>
        <time>2017-04-16T12:27:44.000Z</time>
      </trkpt>
      <trkpt lat="43.56683" lon="2.9202">
        <ele>223.2</ele>
        <time>2017-04-16T12:27:46.000Z</time>
      </trkpt>
      <trkpt lat="43.56685" lon="2.92024">
        <ele>223.4</ele>
        <time>2017-04-16T12:27:48.000Z</time>
      </trkpt>
      <trkpt lat="43.56688" lon="2.92026">
        <ele>223.8</ele>
        <time>2017-04-16T12:27:50.000Z</time>
      </trkpt>
      <trkpt lat="43.56702" lon="2.92027">
        <ele>224</ele>
        <time>2017-04-16T12:27:55.000Z</time>
      </trkpt>
      <trkpt lat="43.56707" lon="2.92024">
        <ele>224.4</ele>
        <time>2017-04-16T12:27:57.000Z</time>
      </trkpt>
      <trkpt lat="43.56712" lon="2.92023">
        <ele>224.8</ele>
        <time>2017-04-16T12:27:59.000Z</time>
      </trkpt>
      <trkpt lat="43.56714" lon="2.92022">
        <ele>225</ele>
        <time>2017-04-16T12:28:00.000Z</time>
      </trkpt>
      <trkpt lat="43.56716" lon="2.92021">
        <ele>225.2</ele>
        <time>2017-04-16T12:28:01.000Z</time>
      </trkpt>
      <trkpt lat="43.5672" lon="2.92018">
        <ele>225.6</ele>
        <time>2017-04-16T12:28:03.000Z</time>
      </trkpt>
      <trkpt lat="43.56724" lon="2.92016">
        <ele>225.8</ele>
        <time>2017-04-16T12:28:05.000Z</time>
      </trkpt>
      <trkpt lat="43.56727" lon="2.92014">
        <ele>226.2</ele>
        <time>2017-04-16T12:28:07.000Z</time>
      </trkpt>
      <trkpt lat="43.5673" lon="2.92011">
        <ele>226.6</ele>
        <time>2017-04-16T12:28:09.000Z</time>
      </trkpt>
      <trkpt lat="43.56733" lon="2.92009">
        <ele>227</ele>
        <time>2017-04-16T12:28:11.000Z</time>
      </trkpt>
      <trkpt lat="43.56736" lon="2.92006">
        <ele>227.4</ele>
        <time>2017-04-16T12:28:13.000Z</time>
      </trkpt>
      <trkpt lat="43.5674" lon="2.92004">
        <ele>227.8</ele>
        <time>2017-04-16T12:28:15.000Z</time>
      </trkpt>
      <trkpt lat="43.56752" lon="2.91995">
        <ele>228.6</ele>
        <time>2017-04-16T12:28:22.000Z</time>
      </trkpt>
      <trkpt lat="43.56755" lon="2.91993">
        <ele>229</ele>
        <time>2017-04-16T12:28:24.000Z</time>
      </trkpt>
      <trkpt lat="43.56758" lon="2.91991">
        <ele>229.4</ele>
        <time>2017-04-16T12:28:26.000Z</time>
      </trkpt>
      <trkpt lat="43.56761" lon="2.91989">
        <ele>229.6</ele>
        <time>2017-04-16T12:28:28.000Z</time>
      </trkpt>
      <trkpt lat="43.56763" lon="2.91986">
        <ele>230.2</ele>
        <time>2017-04-16T12:28:30.000Z</time>
      </trkpt>
      <trkpt lat="43.56766" lon="2.91985">
        <ele>230.6</ele>
        <time>2017-04-16T12:28:32.000Z</time>
      </trkpt>
      <trkpt lat="43.5677" lon="2.91982">
        <ele>231.2</ele>
        <time>2017-04-16T12:28:34.000Z</time>
      </trkpt>
      <trkpt lat="43.56773" lon="2.9198">
        <ele>231.6</ele>
        <time>2017-04-16T12:28:36.000Z</time>
      </trkpt>
      <trkpt lat="43.56777" lon="2.91978">
        <ele>231.8</ele>
        <time>2017-04-16T12:28:38.000Z</time>
      </trkpt>
      <trkpt lat="43.56778" lon="2.91978">
        <ele>232.2</ele>
        <time>2017-04-16T12:28:39.000Z</time>
      </trkpt>
      <trkpt lat="43.56782" lon="2.91976">
        <ele>232.8</ele>
        <time>2017-04-16T12:28:41.000Z</time>
      </trkpt>
      <trkpt lat="43.56785" lon="2.91974">
        <ele>233.2</ele>
        <time>2017-04-16T12:28:43.000Z</time>
      </trkpt>
      <trkpt lat="43.56789" lon="2.91972">
        <ele>233.6</ele>
        <time>2017-04-16T12:28:45.000Z</time>
      </trkpt>
      <trkpt lat="43.56792" lon="2.9197">
        <ele>234</ele>
        <time>2017-04-16T12:28:47.000Z</time>
      </trkpt>
      <trkpt lat="43.56797" lon="2.91966">
        <ele>234.4</ele>
        <time>2017-04-16T12:28:50.000Z</time>
      </trkpt>
      <trkpt lat="43.568" lon="2.91962">
        <ele>235</ele>
        <time>2017-04-16T12:28:51.000Z</time>
      </trkpt>
      <trkpt lat="43.56804" lon="2.91958">
        <ele>235.4</ele>
        <time>2017-04-16T12:28:53.000Z</time>
      </trkpt>
      <trkpt lat="43.56808" lon="2.91952">
        <ele>235.8</ele>
        <time>2017-04-16T12:28:56.000Z</time>
      </trkpt>
      <trkpt lat="43.56811" lon="2.91947">
        <ele>236.2</ele>
        <time>2017-04-16T12:28:57.000Z</time>
      </trkpt>
      <trkpt lat="43.56816" lon="2.91934">
        <ele>236.8</ele>
        <time>2017-04-16T12:29:01.000Z</time>
      </trkpt>
      <trkpt lat="43.56819" lon="2.91929">
        <ele>237.4</ele>
        <time>2017-04-16T12:29:03.000Z</time>
      </trkpt>
      <trkpt lat="43.56822" lon="2.91924">
        <ele>237.8</ele>
        <time>2017-04-16T12:29:05.000Z</time>
      </trkpt>
      <trkpt lat="43.56827" lon="2.91919">
        <ele>238.2</ele>
        <time>2017-04-16T12:29:07.000Z</time>
      </trkpt>
      <trkpt lat="43.5683" lon="2.91911">
        <ele>238.4</ele>
        <time>2017-04-16T12:29:09.000Z</time>
      </trkpt>
      <trkpt lat="43.56835" lon="2.91901">
        <ele>238.6</ele>
        <time>2017-04-16T12:29:12.000Z</time>
      </trkpt>
      <trkpt lat="43.56844" lon="2.91886">
        <ele>239</ele>
        <time>2017-04-16T12:29:18.000Z</time>
      </trkpt>
      <trkpt lat="43.56856" lon="2.91863">
        <ele>239.4</ele>
        <time>2017-04-16T12:29:26.000Z</time>
      </trkpt>
      <trkpt lat="43.56861" lon="2.91847">
        <ele>239.4</ele>
        <time>2017-04-16T12:29:31.000Z</time>
      </trkpt>
      <trkpt lat="43.56862" lon="2.91843">
        <ele>239.4</ele>
        <time>2017-04-16T12:29:32.000Z</time>
      </trkpt>
      <trkpt lat="43.56862" lon="2.91836">
        <ele>239.6</ele>
        <time>2017-04-16T12:29:34.000Z</time>
      </trkpt>
      <trkpt lat="43.56862" lon="2.9183">
        <ele>240</ele>
        <time>2017-04-16T12:29:36.000Z</time>
      </trkpt>
      <trkpt lat="43.56861" lon="2.91824">
        <ele>240.4</ele>
        <time>2017-04-16T12:29:38.000Z</time>
      </trkpt>
      <trkpt lat="43.56862" lon="2.91817">
        <ele>240.6</ele>
        <time>2017-04-16T12:29:40.000Z</time>
      </trkpt>
      <trkpt lat="43.56863" lon="2.91809">
        <ele>240.8</ele>
        <time>2017-04-16T12:29:42.000Z</time>
      </trkpt>
      <trkpt lat="43.56864" lon="2.91806">
        <ele>241</ele>
        <time>2017-04-16T12:29:43.000Z</time>
      </trkpt>
      <trkpt lat="43.56865" lon="2.91799">
        <ele>241.6</ele>
        <time>2017-04-16T12:29:45.000Z</time>
      </trkpt>
      <trkpt lat="43.56867" lon="2.91793">
        <ele>242</ele>
        <time>2017-04-16T12:29:47.000Z</time>
      </trkpt>
      <trkpt lat="43.56869" lon="2.91787">
        <ele>242.2</ele>
        <time>2017-04-16T12:29:49.000Z</time>
      </trkpt>
      <trkpt lat="43.56871" lon="2.91782">
        <ele>242.6</ele>
        <time>2017-04-16T12:29:51.000Z</time>
      </trkpt>
      <trkpt lat="43.56872" lon="2.91778">
        <ele>242.8</ele>
        <time>2017-04-16T12:29:52.000Z</time>
      </trkpt>
      <trkpt lat="43.56874" lon="2.91772">
        <ele>243.4</ele>
        <time>2017-04-16T12:29:54.000Z</time>
      </trkpt>
      <trkpt lat="43.56875" lon="2.91766">
        <ele>243.8</ele>
        <time>2017-04-16T12:29:56.000Z</time>
      </trkpt>
      <trkpt lat="43.56877" lon="2.9176">
        <ele>244.2</ele>
        <time>2017-04-16T12:29:58.000Z</time>
      </trkpt>
      <trkpt lat="43.56878" lon="2.91755">
        <ele>244.6</ele>
        <time>2017-04-16T12:30:00.000Z</time>
      </trkpt>
      <trkpt lat="43.56881" lon="2.91748">
        <ele>245.2</ele>
        <time>2017-04-16T12:30:03.000Z</time>
      </trkpt>
      <trkpt lat="43.56883" lon="2.91743">
        <ele>245.8</ele>
        <time>2017-04-16T12:30:05.000Z</time>
      </trkpt>
      <trkpt lat="43.56885" lon="2.91739">
        <ele>246.2</ele>
        <time>2017-04-16T12:30:07.000Z</time>
      </trkpt>
      <trkpt lat="43.56888" lon="2.91734">
        <ele>246.8</ele>
        <time>2017-04-16T12:30:09.000Z</time>
      </trkpt>
      <trkpt lat="43.5689" lon="2.91729">
        <ele>247.4</ele>
        <time>2017-04-16T12:30:11.000Z</time>
      </trkpt>
      <trkpt lat="43.56893" lon="2.91723">
        <ele>248</ele>
        <time>2017-04-16T12:30:13.000Z</time>
      </trkpt>
      <trkpt lat="43.56895" lon="2.91718">
        <ele>248.4</ele>
        <time>2017-04-16T12:30:15.000Z</time>
      </trkpt>
      <trkpt lat="43.56897" lon="2.91712">
        <ele>248.8</ele>
        <time>2017-04-16T12:30:17.000Z</time>
      </trkpt>
      <trkpt lat="43.56898" lon="2.91709">
        <ele>249.2</ele>
        <time>2017-04-16T12:30:18.000Z</time>
      </trkpt>
      <trkpt lat="43.56901" lon="2.91705">
        <ele>249.8</ele>
        <time>2017-04-16T12:30:20.000Z</time>
      </trkpt>
      <trkpt lat="43.56903" lon="2.91702">
        <ele>250.2</ele>
        <time>2017-04-16T12:30:22.000Z</time>
      </trkpt>
      <trkpt lat="43.56904" lon="2.917">
        <ele>250.6</ele>
        <time>2017-04-16T12:30:23.000Z</time>
      </trkpt>
      <trkpt lat="43.56906" lon="2.91697">
        <ele>251.4</ele>
        <time>2017-04-16T12:30:25.000Z</time>
      </trkpt>
      <trkpt lat="43.56909" lon="2.91695">
        <ele>252</ele>
        <time>2017-04-16T12:30:27.000Z</time>
      </trkpt>
      <trkpt lat="43.56912" lon="2.91692">
        <ele>252.4</ele>
        <time>2017-04-16T12:30:29.000Z</time>
      </trkpt>
      <trkpt lat="43.56914" lon="2.91688">
        <ele>252.8</ele>
        <time>2017-04-16T12:30:31.000Z</time>
      </trkpt>
      <trkpt lat="43.56924" lon="2.91671">
        <ele>253.6</ele>
        <time>2017-04-16T12:30:38.000Z</time>
      </trkpt>
      <trkpt lat="43.56933" lon="2.91655">
        <ele>254</ele>
        <time>2017-04-16T12:30:44.000Z</time>
      </trkpt>
      <trkpt lat="43.56937" lon="2.91648">
        <ele>254</ele>
        <time>2017-04-16T12:30:47.000Z</time>
      </trkpt>
      <trkpt lat="43.56939" lon="2.91643">
        <ele>254.4</ele>
        <time>2017-04-16T12:30:49.000Z</time>
      </trkpt>
      <trkpt lat="43.56941" lon="2.91638">
        <ele>254.8</ele>
        <time>2017-04-16T12:30:51.000Z</time>
      </trkpt>
      <trkpt lat="43.56944" lon="2.91634">
        <ele>255</ele>
        <time>2017-04-16T12:30:53.000Z</time>
      </trkpt>
      <trkpt lat="43.56947" lon="2.9163">
        <ele>255.4</ele>
        <time>2017-04-16T12:30:55.000Z</time>
      </trkpt>
      <trkpt lat="43.56949" lon="2.91627">
        <ele>255.6</ele>
        <time>2017-04-16T12:30:57.000Z</time>
      </trkpt>
      <trkpt lat="43.56958" lon="2.91619">
        <ele>256</ele>
        <time>2017-04-16T12:31:03.000Z</time>
      </trkpt>
      <trkpt lat="43.56966" lon="2.91609">
        <ele>256.4</ele>
        <time>2017-04-16T12:31:08.000Z</time>
      </trkpt>
      <trkpt lat="43.56969" lon="2.91603">
        <ele>256.8</ele>
        <time>2017-04-16T12:31:10.000Z</time>
      </trkpt>
      <trkpt lat="43.5697" lon="2.91596">
        <ele>257.2</ele>
        <time>2017-04-16T12:31:12.000Z</time>
      </trkpt>
      <trkpt lat="43.56971" lon="2.91589">
        <ele>257.4</ele>
        <time>2017-04-16T12:31:14.000Z</time>
      </trkpt>
      <trkpt lat="43.56972" lon="2.91582">
        <ele>257.6</ele>
        <time>2017-04-16T12:31:16.000Z</time>
      </trkpt>
      <trkpt lat="43.56976" lon="2.91569">
        <ele>258</ele>
        <time>2017-04-16T12:31:20.000Z</time>
      </trkpt>
      <trkpt lat="43.5698" lon="2.91565">
        <ele>258.2</ele>
        <time>2017-04-16T12:31:22.000Z</time>
      </trkpt>
      <trkpt lat="43.56983" lon="2.91564">
        <ele>258.6</ele>
        <time>2017-04-16T12:31:23.000Z</time>
      </trkpt>
      <trkpt lat="43.56985" lon="2.91564">
        <ele>258.8</ele>
        <time>2017-04-16T12:31:24.000Z</time>
      </trkpt>
      <trkpt lat="43.56988" lon="2.91567">
        <ele>259.4</ele>
        <time>2017-04-16T12:31:26.000Z</time>
      </trkpt>
      <trkpt lat="43.56988" lon="2.9157">
        <ele>260</ele>
        <time>2017-04-16T12:31:28.000Z</time>
      </trkpt>
      <trkpt lat="43.56987" lon="2.91574">
        <ele>260.6</ele>
        <time>2017-04-16T12:31:30.000Z</time>
      </trkpt>
      <trkpt lat="43.56984" lon="2.91579">
        <ele>261</ele>
        <time>2017-04-16T12:31:32.000Z</time>
      </trkpt>
      <trkpt lat="43.56983" lon="2.91581">
        <ele>261.4</ele>
        <time>2017-04-16T12:31:33.000Z</time>
      </trkpt>
      <trkpt lat="43.5698" lon="2.91585">
        <ele>262</ele>
        <time>2017-04-16T12:31:35.000Z</time>
      </trkpt>
      <trkpt lat="43.56977" lon="2.91591">
        <ele>262.6</ele>
        <time>2017-04-16T12:31:37.000Z</time>
      </trkpt>
      <trkpt lat="43.56976" lon="2.91596">
        <ele>263</ele>
        <time>2017-04-16T12:31:39.000Z</time>
      </trkpt>
      <trkpt lat="43.56974" lon="2.91602">
        <ele>263.4</ele>
        <time>2017-04-16T12:31:41.000Z</time>
      </trkpt>
      <trkpt lat="43.56971" lon="2.91611">
        <ele>264.2</ele>
        <time>2017-04-16T12:31:45.000Z</time>
      </trkpt>
      <trkpt lat="43.56969" lon="2.91616">
        <ele>264.6</ele>
        <time>2017-04-16T12:31:47.000Z</time>
      </trkpt>
      <trkpt lat="43.56966" lon="2.91621">
        <ele>265.2</ele>
        <time>2017-04-16T12:31:50.000Z</time>
      </trkpt>
      <trkpt lat="43.56963" lon="2.91626">
        <ele>265.4</ele>
        <time>2017-04-16T12:31:51.000Z</time>
      </trkpt>
      <trkpt lat="43.56961" lon="2.91631">
        <ele>265.8</ele>
        <time>2017-04-16T12:31:53.000Z</time>
      </trkpt>
      <trkpt lat="43.56956" lon="2.91645">
        <ele>266.4</ele>
        <time>2017-04-16T12:31:58.000Z</time>
      </trkpt>
      <trkpt lat="43.56954" lon="2.91651">
        <ele>267</ele>
        <time>2017-04-16T12:32:00.000Z</time>
      </trkpt>
      <trkpt lat="43.56952" lon="2.91657">
        <ele>267.4</ele>
        <time>2017-04-16T12:32:02.000Z</time>
      </trkpt>
      <trkpt lat="43.56951" lon="2.91663">
        <ele>267.6</ele>
        <time>2017-04-16T12:32:04.000Z</time>
      </trkpt>
      <trkpt lat="43.5695" lon="2.91665">
        <ele>267.8</ele>
        <time>2017-04-16T12:32:05.000Z</time>
      </trkpt>
      <trkpt lat="43.56949" lon="2.91669">
        <ele>268</ele>
        <time>2017-04-16T12:32:06.000Z</time>
      </trkpt>
      <trkpt lat="43.56948" lon="2.91676">
        <ele>268.4</ele>
        <time>2017-04-16T12:32:08.000Z</time>
      </trkpt>
      <trkpt lat="43.56948" lon="2.91684">
        <ele>269</ele>
        <time>2017-04-16T12:32:10.000Z</time>
      </trkpt>
      <trkpt lat="43.56947" lon="2.91688">
        <ele>269.2</ele>
        <time>2017-04-16T12:32:11.000Z</time>
      </trkpt>
      <trkpt lat="43.56946" lon="2.91698">
        <ele>270</ele>
        <time>2017-04-16T12:32:14.000Z</time>
      </trkpt>
      <trkpt lat="43.56944" lon="2.91704">
        <ele>270.6</ele>
        <time>2017-04-16T12:32:16.000Z</time>
      </trkpt>
      <trkpt lat="43.56943" lon="2.91711">
        <ele>271.2</ele>
        <time>2017-04-16T12:32:18.000Z</time>
      </trkpt>
      <trkpt lat="43.56941" lon="2.91716">
        <ele>271.6</ele>
        <time>2017-04-16T12:32:20.000Z</time>
      </trkpt>
      <trkpt lat="43.5694" lon="2.91722">
        <ele>272</ele>
        <time>2017-04-16T12:32:22.000Z</time>
      </trkpt>
      <trkpt lat="43.56936" lon="2.91732">
        <ele>272.6</ele>
        <time>2017-04-16T12:32:27.000Z</time>
      </trkpt>
      <trkpt lat="43.56933" lon="2.91743">
        <ele>273.2</ele>
        <time>2017-04-16T12:32:31.000Z</time>
      </trkpt>
      <trkpt lat="43.56933" lon="2.91751">
        <ele>273.6</ele>
        <time>2017-04-16T12:32:33.000Z</time>
      </trkpt>
      <trkpt lat="43.56933" lon="2.91761">
        <ele>274</ele>
        <time>2017-04-16T12:32:35.000Z</time>
      </trkpt>
      <trkpt lat="43.56935" lon="2.91769">
        <ele>274.2</ele>
        <time>2017-04-16T12:32:37.000Z</time>
      </trkpt>
      <trkpt lat="43.56936" lon="2.91777">
        <ele>274.4</ele>
        <time>2017-04-16T12:32:39.000Z</time>
      </trkpt>
      <trkpt lat="43.56936" lon="2.9178">
        <ele>274.6</ele>
        <time>2017-04-16T12:32:40.000Z</time>
      </trkpt>
      <trkpt lat="43.56943" lon="2.91792">
        <ele>275.2</ele>
        <time>2017-04-16T12:32:45.000Z</time>
      </trkpt>
      <trkpt lat="43.56946" lon="2.91794">
        <ele>275.6</ele>
        <time>2017-04-16T12:32:47.000Z</time>
      </trkpt>
      <trkpt lat="43.56949" lon="2.91794">
        <ele>275.8</ele>
        <time>2017-04-16T12:32:48.000Z</time>
      </trkpt>
      <trkpt lat="43.56951" lon="2.91793">
        <ele>276</ele>
        <time>2017-04-16T12:32:49.000Z</time>
      </trkpt>
      <trkpt lat="43.56953" lon="2.9179">
        <ele>276.4</ele>
        <time>2017-04-16T12:32:51.000Z</time>
      </trkpt>
      <trkpt lat="43.56954" lon="2.91786">
        <ele>276.6</ele>
        <time>2017-04-16T12:32:52.000Z</time>
      </trkpt>
      <trkpt lat="43.56956" lon="2.91763">
        <ele>277.2</ele>
        <time>2017-04-16T12:32:59.000Z</time>
      </trkpt>
      <trkpt lat="43.56957" lon="2.91742">
        <ele>277.4</ele>
        <time>2017-04-16T12:33:06.000Z</time>
      </trkpt>
      <trkpt lat="43.56958" lon="2.91738">
        <ele>277.6</ele>
        <time>2017-04-16T12:33:08.000Z</time>
      </trkpt>
      <trkpt lat="43.56959" lon="2.91731">
        <ele>278</ele>
        <time>2017-04-16T12:33:10.000Z</time>
      </trkpt>
      <trkpt lat="43.5696" lon="2.91729">
        <ele>278.4</ele>
        <time>2017-04-16T12:33:11.000Z</time>
      </trkpt>
      <trkpt lat="43.56962" lon="2.91726">
        <ele>278.6</ele>
        <time>2017-04-16T12:33:13.000Z</time>
      </trkpt>
      <trkpt lat="43.56964" lon="2.91722">
        <ele>279</ele>
        <time>2017-04-16T12:33:15.000Z</time>
      </trkpt>
      <trkpt lat="43.56974" lon="2.91706">
        <ele>279.4</ele>
        <time>2017-04-16T12:33:22.000Z</time>
      </trkpt>
      <trkpt lat="43.56977" lon="2.917">
        <ele>279.8</ele>
        <time>2017-04-16T12:33:24.000Z</time>
      </trkpt>
      <trkpt lat="43.5698" lon="2.91695">
        <ele>280.2</ele>
        <time>2017-04-16T12:33:26.000Z</time>
      </trkpt>
      <trkpt lat="43.56984" lon="2.91686">
        <ele>280.6</ele>
        <time>2017-04-16T12:33:30.000Z</time>
      </trkpt>
      <trkpt lat="43.56987" lon="2.91682">
        <ele>280.8</ele>
        <time>2017-04-16T12:33:31.000Z</time>
      </trkpt>
      <trkpt lat="43.56989" lon="2.91676">
        <ele>281.4</ele>
        <time>2017-04-16T12:33:33.000Z</time>
      </trkpt>
      <trkpt lat="43.56992" lon="2.91671">
        <ele>282</ele>
        <time>2017-04-16T12:33:35.000Z</time>
      </trkpt>
      <trkpt lat="43.56994" lon="2.91666">
        <ele>282.4</ele>
        <time>2017-04-16T12:33:37.000Z</time>
      </trkpt>
      <trkpt lat="43.56997" lon="2.91661">
        <ele>282.8</ele>
        <time>2017-04-16T12:33:39.000Z</time>
      </trkpt>
      <trkpt lat="43.57" lon="2.91656">
        <ele>283.2</ele>
        <time>2017-04-16T12:33:41.000Z</time>
      </trkpt>
      <trkpt lat="43.57002" lon="2.91653">
        <ele>283.6</ele>
        <time>2017-04-16T12:33:43.000Z</time>
      </trkpt>
      <trkpt lat="43.57005" lon="2.9165">
        <ele>284.2</ele>
        <time>2017-04-16T12:33:45.000Z</time>
      </trkpt>
      <trkpt lat="43.57007" lon="2.91648">
        <ele>284.6</ele>
        <time>2017-04-16T12:33:47.000Z</time>
      </trkpt>
      <trkpt lat="43.57008" lon="2.91646">
        <ele>284.8</ele>
        <time>2017-04-16T12:33:48.000Z</time>
      </trkpt>
      <trkpt lat="43.57013" lon="2.91642">
        <ele>285.2</ele>
        <time>2017-04-16T12:33:51.000Z</time>
      </trkpt>
      <trkpt lat="43.57019" lon="2.9163">
        <ele>285.8</ele>
        <time>2017-04-16T12:33:56.000Z</time>
      </trkpt>
      <trkpt lat="43.5702" lon="2.91619">
        <ele>286.2</ele>
        <time>2017-04-16T12:34:00.000Z</time>
      </trkpt>
      <trkpt lat="43.57021" lon="2.91616">
        <ele>286.6</ele>
        <time>2017-04-16T12:34:01.000Z</time>
      </trkpt>
      <trkpt lat="43.57021" lon="2.91613">
        <ele>286.8</ele>
        <time>2017-04-16T12:34:02.000Z</time>
      </trkpt>
      <trkpt lat="43.57022" lon="2.9161">
        <ele>287.2</ele>
        <time>2017-04-16T12:34:03.000Z</time>
      </trkpt>
      <trkpt lat="43.57024" lon="2.91605">
        <ele>287.8</ele>
        <time>2017-04-16T12:34:05.000Z</time>
      </trkpt>
      <trkpt lat="43.57027" lon="2.91601">
        <ele>288.4</ele>
        <time>2017-04-16T12:34:07.000Z</time>
      </trkpt>
      <trkpt lat="43.57028" lon="2.916">
        <ele>288.8</ele>
        <time>2017-04-16T12:34:08.000Z</time>
      </trkpt>
      <trkpt lat="43.5703" lon="2.91599">
        <ele>289</ele>
        <time>2017-04-16T12:34:09.000Z</time>
      </trkpt>
      <trkpt lat="43.57034" lon="2.91599">
        <ele>289.4</ele>
        <time>2017-04-16T12:34:11.000Z</time>
      </trkpt>
      <trkpt lat="43.57035" lon="2.91599">
        <ele>289.4</ele>
        <time>2017-04-16T12:34:12.000Z</time>
      </trkpt>
      <trkpt lat="43.57038" lon="2.91601">
        <ele>290</ele>
        <time>2017-04-16T12:34:14.000Z</time>
      </trkpt>
      <trkpt lat="43.57038" lon="2.91605">
        <ele>290.6</ele>
        <time>2017-04-16T12:34:16.000Z</time>
      </trkpt>
      <trkpt lat="43.57038" lon="2.9161">
        <ele>291.2</ele>
        <time>2017-04-16T12:34:18.000Z</time>
      </trkpt>
      <trkpt lat="43.57036" lon="2.91616">
        <ele>291.6</ele>
        <time>2017-04-16T12:34:20.000Z</time>
      </trkpt>
      <trkpt lat="43.57033" lon="2.9162">
        <ele>291.8</ele>
        <time>2017-04-16T12:34:22.000Z</time>
      </trkpt>
      <trkpt lat="43.5703" lon="2.91629">
        <ele>292.2</ele>
        <time>2017-04-16T12:34:26.000Z</time>
      </trkpt>
      <trkpt lat="43.57026" lon="2.91636">
        <ele>293.2</ele>
        <time>2017-04-16T12:34:29.000Z</time>
      </trkpt>
      <trkpt lat="43.57026" lon="2.9164">
        <ele>293.4</ele>
        <time>2017-04-16T12:34:30.000Z</time>
      </trkpt>
      <trkpt lat="43.57025" lon="2.91649">
        <ele>293.6</ele>
        <time>2017-04-16T12:34:32.000Z</time>
      </trkpt>
      <trkpt lat="43.57026" lon="2.91663">
        <ele>294.2</ele>
        <time>2017-04-16T12:34:35.000Z</time>
      </trkpt>
      <trkpt lat="43.57027" lon="2.91671">
        <ele>294.4</ele>
        <time>2017-04-16T12:34:37.000Z</time>
      </trkpt>
      <trkpt lat="43.57026" lon="2.91682">
        <ele>295.2</ele>
        <time>2017-04-16T12:34:40.000Z</time>
      </trkpt>
      <trkpt lat="43.57026" lon="2.91689">
        <ele>295.8</ele>
        <time>2017-04-16T12:34:42.000Z</time>
      </trkpt>
      <trkpt lat="43.57027" lon="2.91694">
        <ele>296</ele>
        <time>2017-04-16T12:34:44.000Z</time>
      </trkpt>
      <trkpt lat="43.57028" lon="2.91697">
        <ele>296.2</ele>
        <time>2017-04-16T12:34:45.000Z</time>
      </trkpt>
      <trkpt lat="43.57029" lon="2.917">
        <ele>296.6</ele>
        <time>2017-04-16T12:34:46.000Z</time>
      </trkpt>
      <trkpt lat="43.57031" lon="2.91704">
        <ele>297.2</ele>
        <time>2017-04-16T12:34:48.000Z</time>
      </trkpt>
      <trkpt lat="43.57036" lon="2.91708">
        <ele>297.8</ele>
        <time>2017-04-16T12:34:50.000Z</time>
      </trkpt>
      <trkpt lat="43.5704" lon="2.91711">
        <ele>298.2</ele>
        <time>2017-04-16T12:34:52.000Z</time>
      </trkpt>
      <trkpt lat="43.57044" lon="2.91715">
        <ele>298.4</ele>
        <time>2017-04-16T12:34:54.000Z</time>
      </trkpt>
      <trkpt lat="43.57057" lon="2.91722">
        <ele>299.2</ele>
        <time>2017-04-16T12:35:01.000Z</time>
      </trkpt>
      <trkpt lat="43.57059" lon="2.91723">
        <ele>299.2</ele>
        <time>2017-04-16T12:35:03.000Z</time>
      </trkpt>
      <trkpt lat="43.57064" lon="2.91722">
        <ele>299.6</ele>
        <time>2017-04-16T12:35:06.000Z</time>
      </trkpt>
      <trkpt lat="43.57067" lon="2.9172">
        <ele>300</ele>
        <time>2017-04-16T12:35:08.000Z</time>
      </trkpt>
      <trkpt lat="43.57071" lon="2.91723">
        <ele>300.4</ele>
        <time>2017-04-16T12:35:10.000Z</time>
      </trkpt>
      <trkpt lat="43.57073" lon="2.91725">
        <ele>300.6</ele>
        <time>2017-04-16T12:35:11.000Z</time>
      </trkpt>
      <trkpt lat="43.57079" lon="2.91731">
        <ele>301</ele>
        <time>2017-04-16T12:35:14.000Z</time>
      </trkpt>
      <trkpt lat="43.57081" lon="2.91732">
        <ele>301.2</ele>
        <time>2017-04-16T12:35:16.000Z</time>
      </trkpt>
      <trkpt lat="43.57082" lon="2.91736">
        <ele>301.6</ele>
        <time>2017-04-16T12:35:19.000Z</time>
      </trkpt>
      <trkpt lat="43.57083" lon="2.91743">
        <ele>302</ele>
        <time>2017-04-16T12:35:21.000Z</time>
      </trkpt>
      <trkpt lat="43.57084" lon="2.91754">
        <ele>302.4</ele>
        <time>2017-04-16T12:35:23.000Z</time>
      </trkpt>
      <trkpt lat="43.57084" lon="2.91766">
        <ele>302.8</ele>
        <time>2017-04-16T12:35:25.000Z</time>
      </trkpt>
      <trkpt lat="43.57084" lon="2.91776">
        <ele>303</ele>
        <time>2017-04-16T12:35:27.000Z</time>
      </trkpt>
      <trkpt lat="43.5709" lon="2.91793">
        <ele>303.4</ele>
        <time>2017-04-16T12:35:32.000Z</time>
      </trkpt>
      <trkpt lat="43.57091" lon="2.91795">
        <ele>303.6</ele>
        <time>2017-04-16T12:35:33.000Z</time>
      </trkpt>
      <trkpt lat="43.57093" lon="2.918">
        <ele>304.2</ele>
        <time>2017-04-16T12:35:35.000Z</time>
      </trkpt>
      <trkpt lat="43.57095" lon="2.91803">
        <ele>304.6</ele>
        <time>2017-04-16T12:35:37.000Z</time>
      </trkpt>
      <trkpt lat="43.57095" lon="2.91807">
        <ele>304.8</ele>
        <time>2017-04-16T12:35:39.000Z</time>
      </trkpt>
      <trkpt lat="43.57096" lon="2.91812">
        <ele>305</ele>
        <time>2017-04-16T12:35:41.000Z</time>
      </trkpt>
      <trkpt lat="43.57096" lon="2.91815">
        <ele>305.4</ele>
        <time>2017-04-16T12:35:42.000Z</time>
      </trkpt>
      <trkpt lat="43.57098" lon="2.9182">
        <ele>306</ele>
        <time>2017-04-16T12:35:44.000Z</time>
      </trkpt>
      <trkpt lat="43.57099" lon="2.91827">
        <ele>306.4</ele>
        <time>2017-04-16T12:35:46.000Z</time>
      </trkpt>
      <trkpt lat="43.571" lon="2.91833">
        <ele>306.8</ele>
        <time>2017-04-16T12:35:48.000Z</time>
      </trkpt>
      <trkpt lat="43.57101" lon="2.91839">
        <ele>307</ele>
        <time>2017-04-16T12:35:50.000Z</time>
      </trkpt>
      <trkpt lat="43.57106" lon="2.9186">
        <ele>307.8</ele>
        <time>2017-04-16T12:35:56.000Z</time>
      </trkpt>
      <trkpt lat="43.57107" lon="2.91866">
        <ele>308.4</ele>
        <time>2017-04-16T12:35:58.000Z</time>
      </trkpt>
      <trkpt lat="43.57108" lon="2.91872">
        <ele>308.8</ele>
        <time>2017-04-16T12:36:00.000Z</time>
      </trkpt>
      <trkpt lat="43.57109" lon="2.91878">
        <ele>309</ele>
        <time>2017-04-16T12:36:02.000Z</time>
      </trkpt>
      <trkpt lat="43.57111" lon="2.91884">
        <ele>309.4</ele>
        <time>2017-04-16T12:36:04.000Z</time>
      </trkpt>
      <trkpt lat="43.57113" lon="2.91889">
        <ele>309.8</ele>
        <time>2017-04-16T12:36:06.000Z</time>
      </trkpt>
      <trkpt lat="43.57116" lon="2.91895">
        <ele>310.2</ele>
        <time>2017-04-16T12:36:08.000Z</time>
      </trkpt>
      <trkpt lat="43.57117" lon="2.91901">
        <ele>310.6</ele>
        <time>2017-04-16T12:36:10.000Z</time>
      </trkpt>
      <trkpt lat="43.57118" lon="2.91906">
        <ele>311</ele>
        <time>2017-04-16T12:36:12.000Z</time>
      </trkpt>
      <trkpt lat="43.5712" lon="2.91911">
        <ele>311.4</ele>
        <time>2017-04-16T12:36:14.000Z</time>
      </trkpt>
      <trkpt lat="43.57121" lon="2.91921">
        <ele>312</ele>
        <time>2017-04-16T12:36:18.000Z</time>
      </trkpt>
      <trkpt lat="43.57122" lon="2.91928">
        <ele>312.4</ele>
        <time>2017-04-16T12:36:20.000Z</time>
      </trkpt>
      <trkpt lat="43.57122" lon="2.91935">
        <ele>312.8</ele>
        <time>2017-04-16T12:36:22.000Z</time>
      </trkpt>
      <trkpt lat="43.57123" lon="2.91942">
        <ele>313.2</ele>
        <time>2017-04-16T12:36:24.000Z</time>
      </trkpt>
      <trkpt lat="43.57125" lon="2.91947">
        <ele>313.4</ele>
        <time>2017-04-16T12:36:26.000Z</time>
      </trkpt>
      <trkpt lat="43.57127" lon="2.91953">
        <ele>314</ele>
        <time>2017-04-16T12:36:28.000Z</time>
      </trkpt>
      <trkpt lat="43.5713" lon="2.91959">
        <ele>314.4</ele>
        <time>2017-04-16T12:36:30.000Z</time>
      </trkpt>
      <trkpt lat="43.57134" lon="2.91964">
        <ele>315</ele>
        <time>2017-04-16T12:36:32.000Z</time>
      </trkpt>
      <trkpt lat="43.57137" lon="2.91968">
        <ele>315.2</ele>
        <time>2017-04-16T12:36:34.000Z</time>
      </trkpt>
      <trkpt lat="43.57142" lon="2.91972">
        <ele>315.6</ele>
        <time>2017-04-16T12:36:36.000Z</time>
      </trkpt>
      <trkpt lat="43.57145" lon="2.91973">
        <ele>315.8</ele>
        <time>2017-04-16T12:36:37.000Z</time>
      </trkpt>
      <trkpt lat="43.57155" lon="2.91974">
        <ele>316.4</ele>
        <time>2017-04-16T12:36:41.000Z</time>
      </trkpt>
      <trkpt lat="43.57159" lon="2.91975">
        <ele>316.8</ele>
        <time>2017-04-16T12:36:43.000Z</time>
      </trkpt>
      <trkpt lat="43.57163" lon="2.91974">
        <ele>317.2</ele>
        <time>2017-04-16T12:36:45.000Z</time>
      </trkpt>
      <trkpt lat="43.57168" lon="2.91973">
        <ele>317.6</ele>
        <time>2017-04-16T12:36:47.000Z</time>
      </trkpt>
      <trkpt lat="43.57173" lon="2.91971">
        <ele>318</ele>
        <time>2017-04-16T12:36:50.000Z</time>
      </trkpt>
      <trkpt lat="43.57178" lon="2.91972">
        <ele>318.4</ele>
        <time>2017-04-16T12:36:52.000Z</time>
      </trkpt>
      <trkpt lat="43.57182" lon="2.91973">
        <ele>319</ele>
        <time>2017-04-16T12:36:54.000Z</time>
      </trkpt>
      <trkpt lat="43.57186" lon="2.91975">
        <ele>319.4</ele>
        <time>2017-04-16T12:36:56.000Z</time>
      </trkpt>
      <trkpt lat="43.5719" lon="2.91976">
        <ele>319.8</ele>
        <time>2017-04-16T12:36:58.000Z</time>
      </trkpt>
      <trkpt lat="43.57195" lon="2.91975">
        <ele>320</ele>
        <time>2017-04-16T12:37:00.000Z</time>
      </trkpt>
      <trkpt lat="43.57197" lon="2.91975">
        <ele>320.4</ele>
        <time>2017-04-16T12:37:01.000Z</time>
      </trkpt>
      <trkpt lat="43.572" lon="2.91975">
        <ele>321</ele>
        <time>2017-04-16T12:37:03.000Z</time>
      </trkpt>
      <trkpt lat="43.57202" lon="2.91975">
        <ele>321.2</ele>
        <time>2017-04-16T12:37:04.000Z</time>
      </trkpt>
      <trkpt lat="43.57206" lon="2.91978">
        <ele>321.8</ele>
        <time>2017-04-16T12:37:07.000Z</time>
      </trkpt>
      <trkpt lat="43.57209" lon="2.91982">
        <ele>322.4</ele>
        <time>2017-04-16T12:37:10.000Z</time>
      </trkpt>
      <trkpt lat="43.57212" lon="2.91987">
        <ele>323</ele>
        <time>2017-04-16T12:37:11.000Z</time>
      </trkpt>
      <trkpt lat="43.57215" lon="2.91992">
        <ele>323.4</ele>
        <time>2017-04-16T12:37:13.000Z</time>
      </trkpt>
      <trkpt lat="43.57218" lon="2.91996">
        <ele>323.8</ele>
        <time>2017-04-16T12:37:15.000Z</time>
      </trkpt>
      <trkpt lat="43.57219" lon="2.91997">
        <ele>324.2</ele>
        <time>2017-04-16T12:37:16.000Z</time>
      </trkpt>
      <trkpt lat="43.57222" lon="2.91998">
        <ele>324.6</ele>
        <time>2017-04-16T12:37:17.000Z</time>
      </trkpt>
      <trkpt lat="43.57225" lon="2.91998">
        <ele>324.8</ele>
        <time>2017-04-16T12:37:18.000Z</time>
      </trkpt>
      <trkpt lat="43.57236" lon="2.91999">
        <ele>325.6</ele>
        <time>2017-04-16T12:37:21.000Z</time>
      </trkpt>
      <trkpt lat="43.57239" lon="2.92">
        <ele>325.8</ele>
        <time>2017-04-16T12:37:23.000Z</time>
      </trkpt>
      <trkpt lat="43.57242" lon="2.92005">
        <ele>326.2</ele>
        <time>2017-04-16T12:37:25.000Z</time>
      </trkpt>
      <trkpt lat="43.57243" lon="2.92017">
        <ele>327</ele>
        <time>2017-04-16T12:37:28.000Z</time>
      </trkpt>
      <trkpt lat="43.57242" lon="2.92025">
        <ele>327.4</ele>
        <time>2017-04-16T12:37:30.000Z</time>
      </trkpt>
      <trkpt lat="43.57241" lon="2.92031">
        <ele>327.8</ele>
        <time>2017-04-16T12:37:32.000Z</time>
      </trkpt>
      <trkpt lat="43.5724" lon="2.92036">
        <ele>328.2</ele>
        <time>2017-04-16T12:37:34.000Z</time>
      </trkpt>
      <trkpt lat="43.5724" lon="2.92039">
        <ele>328.6</ele>
        <time>2017-04-16T12:37:35.000Z</time>
      </trkpt>
      <trkpt lat="43.5724" lon="2.92043">
        <ele>329.2</ele>
        <time>2017-04-16T12:37:37.000Z</time>
      </trkpt>
      <trkpt lat="43.5724" lon="2.92047">
        <ele>329.6</ele>
        <time>2017-04-16T12:37:39.000Z</time>
      </trkpt>
      <trkpt lat="43.57241" lon="2.92052">
        <ele>330</ele>
        <time>2017-04-16T12:37:41.000Z</time>
      </trkpt>
      <trkpt lat="43.57241" lon="2.92057">
        <ele>330.4</ele>
        <time>2017-04-16T12:37:43.000Z</time>
      </trkpt>
      <trkpt lat="43.57239" lon="2.9207">
        <ele>331</ele>
        <time>2017-04-16T12:37:50.000Z</time>
      </trkpt>
      <trkpt lat="43.57236" lon="2.92075">
        <ele>331.4</ele>
        <time>2017-04-16T12:37:52.000Z</time>
      </trkpt>
      <trkpt lat="43.57234" lon="2.92079">
        <ele>332</ele>
        <time>2017-04-16T12:37:54.000Z</time>
      </trkpt>
      <trkpt lat="43.57232" lon="2.9208">
        <ele>332.2</ele>
        <time>2017-04-16T12:37:55.000Z</time>
      </trkpt>
      <trkpt lat="43.5723" lon="2.92082">
        <ele>332.4</ele>
        <time>2017-04-16T12:37:56.000Z</time>
      </trkpt>
      <trkpt lat="43.57226" lon="2.92087">
        <ele>332.6</ele>
        <time>2017-04-16T12:37:58.000Z</time>
      </trkpt>
      <trkpt lat="43.57222" lon="2.9209">
        <ele>333</ele>
        <time>2017-04-16T12:38:00.000Z</time>
      </trkpt>
      <trkpt lat="43.57216" lon="2.92096">
        <ele>333.6</ele>
        <time>2017-04-16T12:38:04.000Z</time>
      </trkpt>
      <trkpt lat="43.57216" lon="2.92098">
        <ele>333.8</ele>
        <time>2017-04-16T12:38:05.000Z</time>
      </trkpt>
      <trkpt lat="43.57215" lon="2.921">
        <ele>334</ele>
        <time>2017-04-16T12:38:06.000Z</time>
      </trkpt>
      <trkpt lat="43.57214" lon="2.92101">
        <ele>334.2</ele>
        <time>2017-04-16T12:38:07.000Z</time>
      </trkpt>
      <trkpt lat="43.57214" lon="2.92103">
        <ele>334.4</ele>
        <time>2017-04-16T12:38:08.000Z</time>
      </trkpt>
      <trkpt lat="43.57211" lon="2.92106">
        <ele>334.8</ele>
        <time>2017-04-16T12:38:10.000Z</time>
      </trkpt>
      <trkpt lat="43.57208" lon="2.9211">
        <ele>335.2</ele>
        <time>2017-04-16T12:38:12.000Z</time>
      </trkpt>
      <trkpt lat="43.57203" lon="2.92118">
        <ele>335.8</ele>
        <time>2017-04-16T12:38:16.000Z</time>
      </trkpt>
      <trkpt lat="43.57201" lon="2.92122">
        <ele>336.2</ele>
        <time>2017-04-16T12:38:18.000Z</time>
      </trkpt>
      <trkpt lat="43.57199" lon="2.92126">
        <ele>336.6</ele>
        <time>2017-04-16T12:38:20.000Z</time>
      </trkpt>
      <trkpt lat="43.57198" lon="2.92131">
        <ele>337</ele>
        <time>2017-04-16T12:38:22.000Z</time>
      </trkpt>
      <trkpt lat="43.57197" lon="2.92136">
        <ele>337.2</ele>
        <time>2017-04-16T12:38:24.000Z</time>
      </trkpt>
      <trkpt lat="43.57193" lon="2.92151">
        <ele>337.8</ele>
        <time>2017-04-16T12:38:31.000Z</time>
      </trkpt>
      <trkpt lat="43.57193" lon="2.92154">
        <ele>338</ele>
        <time>2017-04-16T12:38:32.000Z</time>
      </trkpt>
      <trkpt lat="43.57193" lon="2.9216">
        <ele>338.6</ele>
        <time>2017-04-16T12:38:34.000Z</time>
      </trkpt>
      <trkpt lat="43.57195" lon="2.9217">
        <ele>339</ele>
        <time>2017-04-16T12:38:36.000Z</time>
      </trkpt>
      <trkpt lat="43.57196" lon="2.92179">
        <ele>339.2</ele>
        <time>2017-04-16T12:38:38.000Z</time>
      </trkpt>
      <trkpt lat="43.57196" lon="2.92188">
        <ele>339.4</ele>
        <time>2017-04-16T12:38:40.000Z</time>
      </trkpt>
      <trkpt lat="43.57196" lon="2.92191">
        <ele>339.6</ele>
        <time>2017-04-16T12:38:41.000Z</time>
      </trkpt>
      <trkpt lat="43.57198" lon="2.92201">
        <ele>340</ele>
        <time>2017-04-16T12:38:44.000Z</time>
      </trkpt>
      <trkpt lat="43.572" lon="2.92206">
        <ele>340.6</ele>
        <time>2017-04-16T12:38:46.000Z</time>
      </trkpt>
      <trkpt lat="43.57203" lon="2.92211">
        <ele>341</ele>
        <time>2017-04-16T12:38:48.000Z</time>
      </trkpt>
      <trkpt lat="43.57209" lon="2.92216">
        <ele>341.2</ele>
        <time>2017-04-16T12:38:50.000Z</time>
      </trkpt>
      <trkpt lat="43.57214" lon="2.9222">
        <ele>341.6</ele>
        <time>2017-04-16T12:38:52.000Z</time>
      </trkpt>
      <trkpt lat="43.57224" lon="2.92224">
        <ele>342.2</ele>
        <time>2017-04-16T12:38:56.000Z</time>
      </trkpt>
      <trkpt lat="43.57229" lon="2.92225">
        <ele>342.6</ele>
        <time>2017-04-16T12:38:58.000Z</time>
      </trkpt>
      <trkpt lat="43.57233" lon="2.92226">
        <ele>343</ele>
        <time>2017-04-16T12:39:00.000Z</time>
      </trkpt>
      <trkpt lat="43.57237" lon="2.92228">
        <ele>343.4</ele>
        <time>2017-04-16T12:39:02.000Z</time>
      </trkpt>
      <trkpt lat="43.57241" lon="2.92229">
        <ele>343.6</ele>
        <time>2017-04-16T12:39:04.000Z</time>
      </trkpt>
      <trkpt lat="43.57248" lon="2.92229">
        <ele>344</ele>
        <time>2017-04-16T12:39:07.000Z</time>
      </trkpt>
      <trkpt lat="43.57256" lon="2.92226">
        <ele>344.4</ele>
        <time>2017-04-16T12:39:10.000Z</time>
      </trkpt>
      <trkpt lat="43.5726" lon="2.92226">
        <ele>344.8</ele>
        <time>2017-04-16T12:39:12.000Z</time>
      </trkpt>
      <trkpt lat="43.57261" lon="2.92227">
        <ele>345</ele>
        <time>2017-04-16T12:39:13.000Z</time>
      </trkpt>
      <trkpt lat="43.57263" lon="2.92229">
        <ele>345.2</ele>
        <time>2017-04-16T12:39:14.000Z</time>
      </trkpt>
      <trkpt lat="43.57267" lon="2.92232">
        <ele>345.6</ele>
        <time>2017-04-16T12:39:16.000Z</time>
      </trkpt>
      <trkpt lat="43.57271" lon="2.92235">
        <ele>345.8</ele>
        <time>2017-04-16T12:39:18.000Z</time>
      </trkpt>
      <trkpt lat="43.57285" lon="2.92242">
        <ele>346.2</ele>
        <time>2017-04-16T12:39:24.000Z</time>
      </trkpt>
      <trkpt lat="43.57291" lon="2.92247">
        <ele>346.6</ele>
        <time>2017-04-16T12:39:27.000Z</time>
      </trkpt>
      <trkpt lat="43.57296" lon="2.9225">
        <ele>347</ele>
        <time>2017-04-16T12:39:30.000Z</time>
      </trkpt>
      <trkpt lat="43.57299" lon="2.92253">
        <ele>347.4</ele>
        <time>2017-04-16T12:39:31.000Z</time>
      </trkpt>
      <trkpt lat="43.57304" lon="2.92255">
        <ele>347.8</ele>
        <time>2017-04-16T12:39:33.000Z</time>
      </trkpt>
      <trkpt lat="43.57309" lon="2.92257">
        <ele>348</ele>
        <time>2017-04-16T12:39:35.000Z</time>
      </trkpt>
      <trkpt lat="43.57318" lon="2.92262">
        <ele>348.6</ele>
        <time>2017-04-16T12:39:39.000Z</time>
      </trkpt>
      <trkpt lat="43.57321" lon="2.92265">
        <ele>349</ele>
        <time>2017-04-16T12:39:41.000Z</time>
      </trkpt>
      <trkpt lat="43.57325" lon="2.92267">
        <ele>349.4</ele>
        <time>2017-04-16T12:39:43.000Z</time>
      </trkpt>
      <trkpt lat="43.57328" lon="2.92267">
        <ele>349.6</ele>
        <time>2017-04-16T12:39:44.000Z</time>
      </trkpt>
      <trkpt lat="43.57334" lon="2.92267">
        <ele>350.4</ele>
        <time>2017-04-16T12:39:47.000Z</time>
      </trkpt>
      <trkpt lat="43.57336" lon="2.92267">
        <ele>350.6</ele>
        <time>2017-04-16T12:39:48.000Z</time>
      </trkpt>
      <trkpt lat="43.57343" lon="2.92266">
        <ele>351.4</ele>
        <time>2017-04-16T12:39:51.000Z</time>
      </trkpt>
      <trkpt lat="43.57345" lon="2.92266">
        <ele>351.6</ele>
        <time>2017-04-16T12:39:52.000Z</time>
      </trkpt>
      <trkpt lat="43.57351" lon="2.92266">
        <ele>352</ele>
        <time>2017-04-16T12:39:55.000Z</time>
      </trkpt>
      <trkpt lat="43.57352" lon="2.92265">
        <ele>352.2</ele>
        <time>2017-04-16T12:39:56.000Z</time>
      </trkpt>
      <trkpt lat="43.57358" lon="2.92267">
        <ele>352.6</ele>
        <time>2017-04-16T12:39:59.000Z</time>
      </trkpt>
      <trkpt lat="43.57362" lon="2.92267">
        <ele>353.2</ele>
        <time>2017-04-16T12:40:01.000Z</time>
      </trkpt>
      <trkpt lat="43.57366" lon="2.92267">
        <ele>353.6</ele>
        <time>2017-04-16T12:40:03.000Z</time>
      </trkpt>
      <trkpt lat="43.57371" lon="2.92268">
        <ele>354</ele>
        <time>2017-04-16T12:40:05.000Z</time>
      </trkpt>
      <trkpt lat="43.57375" lon="2.9227">
        <ele>354.2</ele>
        <time>2017-04-16T12:40:07.000Z</time>
      </trkpt>
      <trkpt lat="43.57381" lon="2.92275">
        <ele>354.8</ele>
        <time>2017-04-16T12:40:10.000Z</time>
      </trkpt>
      <trkpt lat="43.57385" lon="2.92278">
        <ele>355.2</ele>
        <time>2017-04-16T12:40:12.000Z</time>
      </trkpt>
      <trkpt lat="43.57388" lon="2.92279">
        <ele>355.4</ele>
        <time>2017-04-16T12:40:13.000Z</time>
      </trkpt>
      <trkpt lat="43.5739" lon="2.92281">
        <ele>355.6</ele>
        <time>2017-04-16T12:40:14.000Z</time>
      </trkpt>
      <trkpt lat="43.57396" lon="2.92283">
        <ele>356</ele>
        <time>2017-04-16T12:40:16.000Z</time>
      </trkpt>
      <trkpt lat="43.57401" lon="2.92283">
        <ele>356.2</ele>
        <time>2017-04-16T12:40:18.000Z</time>
      </trkpt>
      <trkpt lat="43.57414" lon="2.92288">
        <ele>357</ele>
        <time>2017-04-16T12:40:24.000Z</time>
      </trkpt>
      <trkpt lat="43.57417" lon="2.92292">
        <ele>357.4</ele>
        <time>2017-04-16T12:40:26.000Z</time>
      </trkpt>
      <trkpt lat="43.5742" lon="2.92296">
        <ele>357.8</ele>
        <time>2017-04-16T12:40:28.000Z</time>
      </trkpt>
      <trkpt lat="43.57423" lon="2.923">
        <ele>358.2</ele>
        <time>2017-04-16T12:40:30.000Z</time>
      </trkpt>
      <trkpt lat="43.57426" lon="2.92306">
        <ele>358.4</ele>
        <time>2017-04-16T12:40:32.000Z</time>
      </trkpt>
      <trkpt lat="43.57433" lon="2.92318">
        <ele>359</ele>
        <time>2017-04-16T12:40:37.000Z</time>
      </trkpt>
      <trkpt lat="43.57436" lon="2.92322">
        <ele>359.6</ele>
        <time>2017-04-16T12:40:39.000Z</time>
      </trkpt>
      <trkpt lat="43.57439" lon="2.92326">
        <ele>360</ele>
        <time>2017-04-16T12:40:41.000Z</time>
      </trkpt>
      <trkpt lat="43.57442" lon="2.9233">
        <ele>360.2</ele>
        <time>2017-04-16T12:40:43.000Z</time>
      </trkpt>
      <trkpt lat="43.57446" lon="2.92335">
        <ele>360.6</ele>
        <time>2017-04-16T12:40:45.000Z</time>
      </trkpt>
      <trkpt lat="43.57456" lon="2.92345">
        <ele>361.2</ele>
        <time>2017-04-16T12:40:51.000Z</time>
      </trkpt>
      <trkpt lat="43.57459" lon="2.9235">
        <ele>361.8</ele>
        <time>2017-04-16T12:40:53.000Z</time>
      </trkpt>
      <trkpt lat="43.57461" lon="2.92354">
        <ele>362.2</ele>
        <time>2017-04-16T12:40:55.000Z</time>
      </trkpt>
      <trkpt lat="43.57463" lon="2.92359">
        <ele>362.4</ele>
        <time>2017-04-16T12:40:57.000Z</time>
      </trkpt>
      <trkpt lat="43.57465" lon="2.92365">
        <ele>362.8</ele>
        <time>2017-04-16T12:40:59.000Z</time>
      </trkpt>
      <trkpt lat="43.57468" lon="2.92373">
        <ele>363.2</ele>
        <time>2017-04-16T12:41:02.000Z</time>
      </trkpt>
      <trkpt lat="43.57469" lon="2.92376">
        <ele>363.8</ele>
        <time>2017-04-16T12:41:04.000Z</time>
      </trkpt>
      <trkpt lat="43.57472" lon="2.92378">
        <ele>364.2</ele>
        <time>2017-04-16T12:41:06.000Z</time>
      </trkpt>
      <trkpt lat="43.57475" lon="2.92378">
        <ele>364.4</ele>
        <time>2017-04-16T12:41:08.000Z</time>
      </trkpt>
      <trkpt lat="43.57479" lon="2.92377">
        <ele>365</ele>
        <time>2017-04-16T12:41:10.000Z</time>
      </trkpt>
      <trkpt lat="43.57483" lon="2.92375">
        <ele>365.4</ele>
        <time>2017-04-16T12:41:12.000Z</time>
      </trkpt>
      <trkpt lat="43.57486" lon="2.92372">
        <ele>366</ele>
        <time>2017-04-16T12:41:14.000Z</time>
      </trkpt>
      <trkpt lat="43.57489" lon="2.9237">
        <ele>366.4</ele>
        <time>2017-04-16T12:41:16.000Z</time>
      </trkpt>
      <trkpt lat="43.57491" lon="2.92367">
        <ele>366.6</ele>
        <time>2017-04-16T12:41:18.000Z</time>
      </trkpt>
      <trkpt lat="43.57493" lon="2.92365">
        <ele>367</ele>
        <time>2017-04-16T12:41:20.000Z</time>
      </trkpt>
      <trkpt lat="43.57497" lon="2.92362">
        <ele>367.6</ele>
        <time>2017-04-16T12:41:22.000Z</time>
      </trkpt>
      <trkpt lat="43.57501" lon="2.92359">
        <ele>368</ele>
        <time>2017-04-16T12:41:24.000Z</time>
      </trkpt>
      <trkpt lat="43.57505" lon="2.92356">
        <ele>368.4</ele>
        <time>2017-04-16T12:41:26.000Z</time>
      </trkpt>
      <trkpt lat="43.57508" lon="2.92353">
        <ele>368.8</ele>
        <time>2017-04-16T12:41:28.000Z</time>
      </trkpt>
      <trkpt lat="43.57519" lon="2.92344">
        <ele>369.2</ele>
        <time>2017-04-16T12:41:34.000Z</time>
      </trkpt>
      <trkpt lat="43.57523" lon="2.92343">
        <ele>369.6</ele>
        <time>2017-04-16T12:41:35.000Z</time>
      </trkpt>
      <trkpt lat="43.57526" lon="2.92341">
        <ele>370.2</ele>
        <time>2017-04-16T12:41:37.000Z</time>
      </trkpt>
      <trkpt lat="43.57529" lon="2.92338">
        <ele>370.6</ele>
        <time>2017-04-16T12:41:39.000Z</time>
      </trkpt>
      <trkpt lat="43.57532" lon="2.92337">
        <ele>370.8</ele>
        <time>2017-04-16T12:41:41.000Z</time>
      </trkpt>
      <trkpt lat="43.57535" lon="2.92336">
        <ele>371</ele>
        <time>2017-04-16T12:41:43.000Z</time>
      </trkpt>
      <trkpt lat="43.57545" lon="2.92332">
        <ele>371.4</ele>
        <time>2017-04-16T12:41:47.000Z</time>
      </trkpt>
      <trkpt lat="43.57554" lon="2.92328">
        <ele>371.8</ele>
        <time>2017-04-16T12:41:51.000Z</time>
      </trkpt>
      <trkpt lat="43.57555" lon="2.92327">
        <ele>372</ele>
        <time>2017-04-16T12:41:52.000Z</time>
      </trkpt>
      <trkpt lat="43.57558" lon="2.92327">
        <ele>372.4</ele>
        <time>2017-04-16T12:41:54.000Z</time>
      </trkpt>
      <trkpt lat="43.57561" lon="2.92327">
        <ele>372.8</ele>
        <time>2017-04-16T12:41:56.000Z</time>
      </trkpt>
      <trkpt lat="43.57564" lon="2.92326">
        <ele>373</ele>
        <time>2017-04-16T12:41:58.000Z</time>
      </trkpt>
      <trkpt lat="43.57567" lon="2.92326">
        <ele>373.2</ele>
        <time>2017-04-16T12:42:00.000Z</time>
      </trkpt>
      <trkpt lat="43.57568" lon="2.92327">
        <ele>373.4</ele>
        <time>2017-04-16T12:42:01.000Z</time>
      </trkpt>
      <trkpt lat="43.5757" lon="2.92327">
        <ele>373.6</ele>
        <time>2017-04-16T12:42:02.000Z</time>
      </trkpt>
      <trkpt lat="43.57573" lon="2.92329">
        <ele>374.2</ele>
        <time>2017-04-16T12:42:04.000Z</time>
      </trkpt>
      <trkpt lat="43.57578" lon="2.9233">
        <ele>374.6</ele>
        <time>2017-04-16T12:42:06.000Z</time>
      </trkpt>
      <trkpt lat="43.57585" lon="2.92329">
        <ele>374.8</ele>
        <time>2017-04-16T12:42:08.000Z</time>
      </trkpt>
      <trkpt lat="43.57591" lon="2.92326">
        <ele>375.4</ele>
        <time>2017-04-16T12:42:10.000Z</time>
      </trkpt>
      <trkpt lat="43.57597" lon="2.92322">
        <ele>376</ele>
        <time>2017-04-16T12:42:12.000Z</time>
      </trkpt>
      <trkpt lat="43.57599" lon="2.92319">
        <ele>376.2</ele>
        <time>2017-04-16T12:42:13.000Z</time>
      </trkpt>
      <trkpt lat="43.57601" lon="2.92317">
        <ele>376.4</ele>
        <time>2017-04-16T12:42:14.000Z</time>
      </trkpt>
      <trkpt lat="43.57603" lon="2.92313">
        <ele>376.8</ele>
        <time>2017-04-16T12:42:16.000Z</time>
      </trkpt>
      <trkpt lat="43.57606" lon="2.92309">
        <ele>377</ele>
        <time>2017-04-16T12:42:18.000Z</time>
      </trkpt>
      <trkpt lat="43.57609" lon="2.92303">
        <ele>377.4</ele>
        <time>2017-04-16T12:42:20.000Z</time>
      </trkpt>
      <trkpt lat="43.57613" lon="2.923">
        <ele>377.8</ele>
        <time>2017-04-16T12:42:22.000Z</time>
      </trkpt>
      <trkpt lat="43.57616" lon="2.92297">
        <ele>378.2</ele>
        <time>2017-04-16T12:42:24.000Z</time>
      </trkpt>
      <trkpt lat="43.57618" lon="2.92296">
        <ele>378.4</ele>
        <time>2017-04-16T12:42:25.000Z</time>
      </trkpt>
      <trkpt lat="43.57619" lon="2.92295">
        <ele>378.6</ele>
        <time>2017-04-16T12:42:26.000Z</time>
      </trkpt>
      <trkpt lat="43.57623" lon="2.92292">
        <ele>379</ele>
        <time>2017-04-16T12:42:28.000Z</time>
      </trkpt>
      <trkpt lat="43.57628" lon="2.92287">
        <ele>379.2</ele>
        <time>2017-04-16T12:42:30.000Z</time>
      </trkpt>
      <trkpt lat="43.57637" lon="2.92277">
        <ele>379.8</ele>
        <time>2017-04-16T12:42:35.000Z</time>
      </trkpt>
      <trkpt lat="43.57644" lon="2.92275">
        <ele>380.2</ele>
        <time>2017-04-16T12:42:41.000Z</time>
      </trkpt>
      <trkpt lat="43.57645" lon="2.92274">
        <ele>380.6</ele>
        <time>2017-04-16T12:42:42.000Z</time>
      </trkpt>
      <trkpt lat="43.57647" lon="2.92273">
        <ele>380.8</ele>
        <time>2017-04-16T12:42:43.000Z</time>
      </trkpt>
      <trkpt lat="43.57649" lon="2.92271">
        <ele>381</ele>
        <time>2017-04-16T12:42:45.000Z</time>
      </trkpt>
      <trkpt lat="43.57652" lon="2.92269">
        <ele>381.4</ele>
        <time>2017-04-16T12:42:47.000Z</time>
      </trkpt>
      <trkpt lat="43.57655" lon="2.92266">
        <ele>381.8</ele>
        <time>2017-04-16T12:42:49.000Z</time>
      </trkpt>
      <trkpt lat="43.57659" lon="2.92263">
        <ele>382.4</ele>
        <time>2017-04-16T12:42:51.000Z</time>
      </trkpt>
      <trkpt lat="43.57662" lon="2.9226">
        <ele>382.8</ele>
        <time>2017-04-16T12:42:53.000Z</time>
      </trkpt>
      <trkpt lat="43.57666" lon="2.92258">
        <ele>383.2</ele>
        <time>2017-04-16T12:42:55.000Z</time>
      </trkpt>
      <trkpt lat="43.57669" lon="2.92257">
        <ele>383.4</ele>
        <time>2017-04-16T12:42:57.000Z</time>
      </trkpt>
      <trkpt lat="43.57678" lon="2.92248">
        <ele>384.2</ele>
        <time>2017-04-16T12:43:02.000Z</time>
      </trkpt>
      <trkpt lat="43.57683" lon="2.92242">
        <ele>384.8</ele>
        <time>2017-04-16T12:43:04.000Z</time>
      </trkpt>
      <trkpt lat="43.57686" lon="2.92236">
        <ele>385.2</ele>
        <time>2017-04-16T12:43:06.000Z</time>
      </trkpt>
      <trkpt lat="43.57688" lon="2.92232">
        <ele>385.6</ele>
        <time>2017-04-16T12:43:08.000Z</time>
      </trkpt>
      <trkpt lat="43.57688" lon="2.9223">
        <ele>385.6</ele>
        <time>2017-04-16T12:43:09.000Z</time>
      </trkpt>
      <trkpt lat="43.57688" lon="2.92228">
        <ele>385.8</ele>
        <time>2017-04-16T12:43:10.000Z</time>
      </trkpt>
      <trkpt lat="43.57683" lon="2.92224">
        <ele>386.2</ele>
        <time>2017-04-16T12:43:14.000Z</time>
      </trkpt>
      <trkpt lat="43.57682" lon="2.92224">
        <ele>386.4</ele>
        <time>2017-04-16T12:43:15.000Z</time>
      </trkpt>
      <trkpt lat="43.57678" lon="2.92226">
        <ele>386.4</ele>
        <time>2017-04-16T12:43:18.000Z</time>
      </trkpt>
      <trkpt lat="43.57675" lon="2.92229">
        <ele>386.8</ele>
        <time>2017-04-16T12:43:21.000Z</time>
      </trkpt>
      <trkpt lat="43.57674" lon="2.9223">
        <ele>387.2</ele>
        <time>2017-04-16T12:43:22.000Z</time>
      </trkpt>
      <trkpt lat="43.57671" lon="2.92231">
        <ele>387.6</ele>
        <time>2017-04-16T12:43:24.000Z</time>
      </trkpt>
      <trkpt lat="43.5767" lon="2.92232">
        <ele>387.6</ele>
        <time>2017-04-16T12:43:25.000Z</time>
      </trkpt>
      <trkpt lat="43.57666" lon="2.92233">
        <ele>388</ele>
        <time>2017-04-16T12:43:27.000Z</time>
      </trkpt>
      <trkpt lat="43.5766" lon="2.92236">
        <ele>388.6</ele>
        <time>2017-04-16T12:43:30.000Z</time>
      </trkpt>
      <trkpt lat="43.57655" lon="2.92239">
        <ele>389.2</ele>
        <time>2017-04-16T12:43:32.000Z</time>
      </trkpt>
      <trkpt lat="43.57654" lon="2.92239">
        <ele>389.4</ele>
        <time>2017-04-16T12:43:33.000Z</time>
      </trkpt>
      <trkpt lat="43.57652" lon="2.92241">
        <ele>389.6</ele>
        <time>2017-04-16T12:43:34.000Z</time>
      </trkpt>
      <trkpt lat="43.57649" lon="2.92242">
        <ele>390</ele>
        <time>2017-04-16T12:43:36.000Z</time>
      </trkpt>
      <trkpt lat="43.57646" lon="2.92242">
        <ele>390.4</ele>
        <time>2017-04-16T12:43:39.000Z</time>
      </trkpt>
      <trkpt lat="43.57642" lon="2.92241">
        <ele>391</ele>
        <time>2017-04-16T12:43:40.000Z</time>
      </trkpt>
      <trkpt lat="43.57639" lon="2.9224">
        <ele>391.6</ele>
        <time>2017-04-16T12:43:42.000Z</time>
      </trkpt>
      <trkpt lat="43.57636" lon="2.9224">
        <ele>392</ele>
        <time>2017-04-16T12:43:44.000Z</time>
      </trkpt>
      <trkpt lat="43.57632" lon="2.9224">
        <ele>392.2</ele>
        <time>2017-04-16T12:43:46.000Z</time>
      </trkpt>
      <trkpt lat="43.57631" lon="2.92241">
        <ele>392.4</ele>
        <time>2017-04-16T12:43:47.000Z</time>
      </trkpt>
      <trkpt lat="43.57629" lon="2.92241">
        <ele>392.8</ele>
        <time>2017-04-16T12:43:48.000Z</time>
      </trkpt>
      <trkpt lat="43.57626" lon="2.9224">
        <ele>393.4</ele>
        <time>2017-04-16T12:43:50.000Z</time>
      </trkpt>
      <trkpt lat="43.57624" lon="2.9224">
        <ele>393.8</ele>
        <time>2017-04-16T12:43:52.000Z</time>
      </trkpt>
      <trkpt lat="43.57623" lon="2.92239">
        <ele>394.2</ele>
        <time>2017-04-16T12:43:54.000Z</time>
      </trkpt>
      <trkpt lat="43.57621" lon="2.92238">
        <ele>394.6</ele>
        <time>2017-04-16T12:43:56.000Z</time>
      </trkpt>
      <trkpt lat="43.57619" lon="2.92238">
        <ele>395</ele>
        <time>2017-04-16T12:43:58.000Z</time>
      </trkpt>
      <trkpt lat="43.57616" lon="2.9224">
        <ele>395.6</ele>
        <time>2017-04-16T12:44:00.000Z</time>
      </trkpt>
      <trkpt lat="43.57614" lon="2.92241">
        <ele>396</ele>
        <time>2017-04-16T12:44:02.000Z</time>
      </trkpt>
      <trkpt lat="43.57613" lon="2.92242">
        <ele>396.2</ele>
        <time>2017-04-16T12:44:03.000Z</time>
      </trkpt>
      <trkpt lat="43.57613" lon="2.92243">
        <ele>396.4</ele>
        <time>2017-04-16T12:44:04.000Z</time>
      </trkpt>
      <trkpt lat="43.57611" lon="2.92246">
        <ele>397</ele>
        <time>2017-04-16T12:44:06.000Z</time>
      </trkpt>
      <trkpt lat="43.57609" lon="2.92251">
        <ele>397.6</ele>
        <time>2017-04-16T12:44:08.000Z</time>
      </trkpt>
      <trkpt lat="43.57606" lon="2.92256">
        <ele>398</ele>
        <time>2017-04-16T12:44:10.000Z</time>
      </trkpt>
      <trkpt lat="43.57602" lon="2.92259">
        <ele>398.6</ele>
        <time>2017-04-16T12:44:12.000Z</time>
      </trkpt>
      <trkpt lat="43.57598" lon="2.92264">
        <ele>398.8</ele>
        <time>2017-04-16T12:44:14.000Z</time>
      </trkpt>
      <trkpt lat="43.57595" lon="2.92267">
        <ele>399</ele>
        <time>2017-04-16T12:44:15.000Z</time>
      </trkpt>
      <trkpt lat="43.57586" lon="2.92267">
        <ele>399.8</ele>
        <time>2017-04-16T12:44:20.000Z</time>
      </trkpt>
      <trkpt lat="43.57584" lon="2.92263">
        <ele>400.2</ele>
        <time>2017-04-16T12:44:22.000Z</time>
      </trkpt>
      <trkpt lat="43.57581" lon="2.9226">
        <ele>400.6</ele>
        <time>2017-04-16T12:44:24.000Z</time>
      </trkpt>
      <trkpt lat="43.57579" lon="2.92257">
        <ele>401.2</ele>
        <time>2017-04-16T12:44:26.000Z</time>
      </trkpt>
      <trkpt lat="43.57578" lon="2.92255">
        <ele>401.4</ele>
        <time>2017-04-16T12:44:27.000Z</time>
      </trkpt>
      <trkpt lat="43.57574" lon="2.92253">
        <ele>402.4</ele>
        <time>2017-04-16T12:44:30.000Z</time>
      </trkpt>
      <trkpt lat="43.5757" lon="2.92253">
        <ele>402.8</ele>
        <time>2017-04-16T12:44:32.000Z</time>
      </trkpt>
      <trkpt lat="43.57568" lon="2.92252">
        <ele>403.2</ele>
        <time>2017-04-16T12:44:33.000Z</time>
      </trkpt>
      <trkpt lat="43.57565" lon="2.92252">
        <ele>403.6</ele>
        <time>2017-04-16T12:44:34.000Z</time>
      </trkpt>
      <trkpt lat="43.5756" lon="2.92249">
        <ele>404.4</ele>
        <time>2017-04-16T12:44:37.000Z</time>
      </trkpt>
      <trkpt lat="43.57557" lon="2.92246">
        <ele>404.8</ele>
        <time>2017-04-16T12:44:39.000Z</time>
      </trkpt>
      <trkpt lat="43.57556" lon="2.92244">
        <ele>405</ele>
        <time>2017-04-16T12:44:40.000Z</time>
      </trkpt>
      <trkpt lat="43.57556" lon="2.92242">
        <ele>405.2</ele>
        <time>2017-04-16T12:44:41.000Z</time>
      </trkpt>
      <trkpt lat="43.57556" lon="2.92236">
        <ele>405.6</ele>
        <time>2017-04-16T12:44:44.000Z</time>
      </trkpt>
      <trkpt lat="43.57558" lon="2.92233">
        <ele>406</ele>
        <time>2017-04-16T12:44:46.000Z</time>
      </trkpt>
      <trkpt lat="43.57558" lon="2.92232">
        <ele>406.4</ele>
        <time>2017-04-16T12:44:47.000Z</time>
      </trkpt>
      <trkpt lat="43.57563" lon="2.92229">
        <ele>407</ele>
        <time>2017-04-16T12:44:50.000Z</time>
      </trkpt>
      <trkpt lat="43.57564" lon="2.92229">
        <ele>407.2</ele>
        <time>2017-04-16T12:44:51.000Z</time>
      </trkpt>
      <trkpt lat="43.57568" lon="2.9223">
        <ele>407.6</ele>
        <time>2017-04-16T12:44:54.000Z</time>
      </trkpt>
      <trkpt lat="43.57569" lon="2.9223">
        <ele>408</ele>
        <time>2017-04-16T12:44:55.000Z</time>
      </trkpt>
      <trkpt lat="43.57572" lon="2.9223">
        <ele>408.6</ele>
        <time>2017-04-16T12:44:57.000Z</time>
      </trkpt>
      <trkpt lat="43.57574" lon="2.92229">
        <ele>409</ele>
        <time>2017-04-16T12:44:59.000Z</time>
      </trkpt>
      <trkpt lat="43.57575" lon="2.92228">
        <ele>409.2</ele>
        <time>2017-04-16T12:45:00.000Z</time>
      </trkpt>
      <trkpt lat="43.57576" lon="2.92227">
        <ele>409.4</ele>
        <time>2017-04-16T12:45:01.000Z</time>
      </trkpt>
      <trkpt lat="43.57579" lon="2.92226">
        <ele>410</ele>
        <time>2017-04-16T12:45:03.000Z</time>
      </trkpt>
      <trkpt lat="43.57582" lon="2.92224">
        <ele>410.6</ele>
        <time>2017-04-16T12:45:05.000Z</time>
      </trkpt>
      <trkpt lat="43.57584" lon="2.92224">
        <ele>411</ele>
        <time>2017-04-16T12:45:07.000Z</time>
      </trkpt>
      <trkpt lat="43.57587" lon="2.92224">
        <ele>411.4</ele>
        <time>2017-04-16T12:45:09.000Z</time>
      </trkpt>
      <trkpt lat="43.5759" lon="2.92224">
        <ele>411.6</ele>
        <time>2017-04-16T12:45:11.000Z</time>
      </trkpt>
      <trkpt lat="43.57594" lon="2.92223">
        <ele>412.2</ele>
        <time>2017-04-16T12:45:14.000Z</time>
      </trkpt>
      <trkpt lat="43.57596" lon="2.92221">
        <ele>412.8</ele>
        <time>2017-04-16T12:45:16.000Z</time>
      </trkpt>
      <trkpt lat="43.57598" lon="2.9222">
        <ele>413</ele>
        <time>2017-04-16T12:45:17.000Z</time>
      </trkpt>
      <trkpt lat="43.57599" lon="2.9222">
        <ele>413.2</ele>
        <time>2017-04-16T12:45:18.000Z</time>
      </trkpt>
      <trkpt lat="43.57602" lon="2.92218">
        <ele>413.6</ele>
        <time>2017-04-16T12:45:20.000Z</time>
      </trkpt>
      <trkpt lat="43.57605" lon="2.92215">
        <ele>414</ele>
        <time>2017-04-16T12:45:22.000Z</time>
      </trkpt>
      <trkpt lat="43.57614" lon="2.92209">
        <ele>414.4</ele>
        <time>2017-04-16T12:45:28.000Z</time>
      </trkpt>
      <trkpt lat="43.57616" lon="2.92208">
        <ele>414.8</ele>
        <time>2017-04-16T12:45:30.000Z</time>
      </trkpt>
      <trkpt lat="43.57618" lon="2.92207">
        <ele>415</ele>
        <time>2017-04-16T12:45:31.000Z</time>
      </trkpt>
      <trkpt lat="43.5762" lon="2.92206">
        <ele>415.4</ele>
        <time>2017-04-16T12:45:33.000Z</time>
      </trkpt>
      <trkpt lat="43.57621" lon="2.922">
        <ele>416</ele>
        <time>2017-04-16T12:45:36.000Z</time>
      </trkpt>
      <trkpt lat="43.5762" lon="2.92196">
        <ele>416.2</ele>
        <time>2017-04-16T12:45:38.000Z</time>
      </trkpt>
      <trkpt lat="43.5762" lon="2.92195">
        <ele>416.4</ele>
        <time>2017-04-16T12:45:39.000Z</time>
      </trkpt>
      <trkpt lat="43.57618" lon="2.92192">
        <ele>417</ele>
        <time>2017-04-16T12:45:41.000Z</time>
      </trkpt>
      <trkpt lat="43.57617" lon="2.92191">
        <ele>417.2</ele>
        <time>2017-04-16T12:45:42.000Z</time>
      </trkpt>
      <trkpt lat="43.57613" lon="2.92192">
        <ele>417.8</ele>
        <time>2017-04-16T12:45:46.000Z</time>
      </trkpt>
      <trkpt lat="43.57611" lon="2.92192">
        <ele>418.2</ele>
        <time>2017-04-16T12:45:47.000Z</time>
      </trkpt>
      <trkpt lat="43.57604" lon="2.92192">
        <ele>418.6</ele>
        <time>2017-04-16T12:45:53.000Z</time>
      </trkpt>
      <trkpt lat="43.57603" lon="2.92192">
        <ele>418.8</ele>
        <time>2017-04-16T12:45:54.000Z</time>
      </trkpt>
      <trkpt lat="43.57591" lon="2.92194">
        <ele>419.2</ele>
        <time>2017-04-16T12:46:03.000Z</time>
      </trkpt>
      <trkpt lat="43.57587" lon="2.92192">
        <ele>419.4</ele>
        <time>2017-04-16T12:46:06.000Z</time>
      </trkpt>
      <trkpt lat="43.57584" lon="2.92191">
        <ele>419.8</ele>
        <time>2017-04-16T12:46:08.000Z</time>
      </trkpt>
      <trkpt lat="43.5758" lon="2.92191">
        <ele>420</ele>
        <time>2017-04-16T12:46:10.000Z</time>
      </trkpt>
      <trkpt lat="43.57577" lon="2.92191">
        <ele>420.4</ele>
        <time>2017-04-16T12:46:12.000Z</time>
      </trkpt>
      <trkpt lat="43.57573" lon="2.92192">
        <ele>420.6</ele>
        <time>2017-04-16T12:46:14.000Z</time>
      </trkpt>
      <trkpt lat="43.57562" lon="2.92191">
        <ele>421</ele>
        <time>2017-04-16T12:46:21.000Z</time>
      </trkpt>
      <trkpt lat="43.57552" lon="2.92189">
        <ele>421.4</ele>
        <time>2017-04-16T12:46:27.000Z</time>
      </trkpt>
      <trkpt lat="43.57548" lon="2.92189">
        <ele>421.8</ele>
        <time>2017-04-16T12:46:29.000Z</time>
      </trkpt>
      <trkpt lat="43.57545" lon="2.92188">
        <ele>422</ele>
        <time>2017-04-16T12:46:31.000Z</time>
      </trkpt>
      <trkpt lat="43.57541" lon="2.92187">
        <ele>422.4</ele>
        <time>2017-04-16T12:46:33.000Z</time>
      </trkpt>
      <trkpt lat="43.57538" lon="2.92186">
        <ele>422.6</ele>
        <time>2017-04-16T12:46:35.000Z</time>
      </trkpt>
      <trkpt lat="43.57533" lon="2.92183">
        <ele>423</ele>
        <time>2017-04-16T12:46:39.000Z</time>
      </trkpt>
      <trkpt lat="43.57532" lon="2.9218">
        <ele>423.6</ele>
        <time>2017-04-16T12:46:41.000Z</time>
      </trkpt>
      <trkpt lat="43.57531" lon="2.92178">
        <ele>423.8</ele>
        <time>2017-04-16T12:46:42.000Z</time>
      </trkpt>
      <trkpt lat="43.5753" lon="2.92177">
        <ele>424</ele>
        <time>2017-04-16T12:46:43.000Z</time>
      </trkpt>
      <trkpt lat="43.5753" lon="2.92175">
        <ele>424.2</ele>
        <time>2017-04-16T12:46:44.000Z</time>
      </trkpt>
      <trkpt lat="43.57529" lon="2.92173">
        <ele>424.4</ele>
        <time>2017-04-16T12:46:45.000Z</time>
      </trkpt>
      <trkpt lat="43.57529" lon="2.9217">
        <ele>424.8</ele>
        <time>2017-04-16T12:46:46.000Z</time>
      </trkpt>
      <trkpt lat="43.57528" lon="2.92166">
        <ele>425.4</ele>
        <time>2017-04-16T12:46:48.000Z</time>
      </trkpt>
      <trkpt lat="43.57528" lon="2.92163">
        <ele>425.6</ele>
        <time>2017-04-16T12:46:49.000Z</time>
      </trkpt>
      <trkpt lat="43.57529" lon="2.92156">
        <ele>426.6</ele>
        <time>2017-04-16T12:46:52.000Z</time>
      </trkpt>
      <trkpt lat="43.5753" lon="2.92152">
        <ele>427.2</ele>
        <time>2017-04-16T12:46:54.000Z</time>
      </trkpt>
      <trkpt lat="43.5753" lon="2.92148">
        <ele>427.8</ele>
        <time>2017-04-16T12:46:56.000Z</time>
      </trkpt>
      <trkpt lat="43.57531" lon="2.92144">
        <ele>428.4</ele>
        <time>2017-04-16T12:46:58.000Z</time>
      </trkpt>
      <trkpt lat="43.57531" lon="2.9214">
        <ele>429.2</ele>
        <time>2017-04-16T12:47:00.000Z</time>
      </trkpt>
      <trkpt lat="43.57532" lon="2.92138">
        <ele>429.6</ele>
        <time>2017-04-16T12:47:01.000Z</time>
      </trkpt>
      <trkpt lat="43.57534" lon="2.92134">
        <ele>430.2</ele>
        <time>2017-04-16T12:47:03.000Z</time>
      </trkpt>
      <trkpt lat="43.57535" lon="2.92132">
        <ele>430.8</ele>
        <time>2017-04-16T12:47:05.000Z</time>
      </trkpt>
      <trkpt lat="43.57536" lon="2.92129">
        <ele>431.6</ele>
        <time>2017-04-16T12:47:07.000Z</time>
      </trkpt>
      <trkpt lat="43.57535" lon="2.92128">
        <ele>431.8</ele>
        <time>2017-04-16T12:47:08.000Z</time>
      </trkpt>
      <trkpt lat="43.57536" lon="2.92124">
        <ele>432.6</ele>
        <time>2017-04-16T12:47:11.000Z</time>
      </trkpt>
      <trkpt lat="43.57537" lon="2.92122">
        <ele>433</ele>
        <time>2017-04-16T12:47:13.000Z</time>
      </trkpt>
      <trkpt lat="43.57537" lon="2.92122">
        <ele>433</ele>
        <time>2017-04-16T12:47:14.000Z</time>
      </trkpt>
      <trkpt lat="43.57536" lon="2.92122">
        <ele>434.4</ele>
        <time>2017-04-16T12:47:35.000Z</time>
      </trkpt>
      <trkpt lat="43.57537" lon="2.92121">
        <ele>434.6</ele>
        <time>2017-04-16T12:47:36.000Z</time>
      </trkpt>
      <trkpt lat="43.57537" lon="2.92121">
        <ele>434.8</ele>
        <time>2017-04-16T12:47:37.000Z</time>
      </trkpt>
      <trkpt lat="43.57537" lon="2.92121">
        <ele>435</ele>
        <time>2017-04-16T12:47:38.000Z</time>
      </trkpt>
      <trkpt lat="43.57539" lon="2.92121">
        <ele>435.4</ele>
        <time>2017-04-16T12:47:40.000Z</time>
      </trkpt>
      <trkpt lat="43.5754" lon="2.92122">
        <ele>435.8</ele>
        <time>2017-04-16T12:47:42.000Z</time>
      </trkpt>
      <trkpt lat="43.57542" lon="2.92121">
        <ele>436</ele>
        <time>2017-04-16T12:47:44.000Z</time>
      </trkpt>
      <trkpt lat="43.57554" lon="2.92119">
        <ele>436.8</ele>
        <time>2017-04-16T12:47:54.000Z</time>
      </trkpt>
      <trkpt lat="43.57556" lon="2.92118">
        <ele>437.2</ele>
        <time>2017-04-16T12:47:56.000Z</time>
      </trkpt>
      <trkpt lat="43.57559" lon="2.92118">
        <ele>437.4</ele>
        <time>2017-04-16T12:47:58.000Z</time>
      </trkpt>
      <trkpt lat="43.57562" lon="2.92117">
        <ele>437.8</ele>
        <time>2017-04-16T12:48:00.000Z</time>
      </trkpt>
      <trkpt lat="43.57564" lon="2.92116">
        <ele>438</ele>
        <time>2017-04-16T12:48:02.000Z</time>
      </trkpt>
      <trkpt lat="43.57571" lon="2.92116">
        <ele>438.4</ele>
        <time>2017-04-16T12:48:08.000Z</time>
      </trkpt>
      <trkpt lat="43.57575" lon="2.92116">
        <ele>438.6</ele>
        <time>2017-04-16T12:48:13.000Z</time>
      </trkpt>
      <trkpt lat="43.5758" lon="2.92116">
        <ele>439</ele>
        <time>2017-04-16T12:48:21.000Z</time>
      </trkpt>
      <trkpt lat="43.57582" lon="2.92116">
        <ele>439.4</ele>
        <time>2017-04-16T12:48:23.000Z</time>
      </trkpt>
      <trkpt lat="43.57584" lon="2.92116">
        <ele>439.6</ele>
        <time>2017-04-16T12:48:25.000Z</time>
      </trkpt>
      <trkpt lat="43.57585" lon="2.92116">
        <ele>439.8</ele>
        <time>2017-04-16T12:48:27.000Z</time>
      </trkpt>
      <trkpt lat="43.57586" lon="2.92117">
        <ele>440</ele>
        <time>2017-04-16T12:48:30.000Z</time>
      </trkpt>
      <trkpt lat="43.57589" lon="2.92119">
        <ele>440.4</ele>
        <time>2017-04-16T12:48:34.000Z</time>
      </trkpt>
      <trkpt lat="43.57589" lon="2.9212">
        <ele>440.6</ele>
        <time>2017-04-16T12:48:36.000Z</time>
      </trkpt>
      <trkpt lat="43.57589" lon="2.92122">
        <ele>440.8</ele>
        <time>2017-04-16T12:48:38.000Z</time>
      </trkpt>
      <trkpt lat="43.5759" lon="2.92123">
        <ele>441.2</ele>
        <time>2017-04-16T12:48:40.000Z</time>
      </trkpt>
      <trkpt lat="43.57592" lon="2.92123">
        <ele>441.6</ele>
        <time>2017-04-16T12:48:42.000Z</time>
      </trkpt>
      <trkpt lat="43.57593" lon="2.92124">
        <ele>442</ele>
        <time>2017-04-16T12:48:44.000Z</time>
      </trkpt>
      <trkpt lat="43.57594" lon="2.92124">
        <ele>442.2</ele>
        <time>2017-04-16T12:48:46.000Z</time>
      </trkpt>
      <trkpt lat="43.57595" lon="2.92124">
        <ele>442.6</ele>
        <time>2017-04-16T12:48:47.000Z</time>
      </trkpt>
      <trkpt lat="43.57597" lon="2.92124">
        <ele>443</ele>
        <time>2017-04-16T12:48:50.000Z</time>
      </trkpt>
      <trkpt lat="43.57599" lon="2.92123">
        <ele>443.4</ele>
        <time>2017-04-16T12:48:51.000Z</time>
      </trkpt>
      <trkpt lat="43.57601" lon="2.92122">
        <ele>443.8</ele>
        <time>2017-04-16T12:48:53.000Z</time>
      </trkpt>
      <trkpt lat="43.57604" lon="2.9212">
        <ele>444</ele>
        <time>2017-04-16T12:48:55.000Z</time>
      </trkpt>
      <trkpt lat="43.57606" lon="2.92118">
        <ele>444.6</ele>
        <time>2017-04-16T12:48:57.000Z</time>
      </trkpt>
      <trkpt lat="43.57608" lon="2.92118">
        <ele>445.2</ele>
        <time>2017-04-16T12:48:59.000Z</time>
      </trkpt>
      <trkpt lat="43.5761" lon="2.92118">
        <ele>445.6</ele>
        <time>2017-04-16T12:49:01.000Z</time>
      </trkpt>
      <trkpt lat="43.57612" lon="2.92118">
        <ele>446</ele>
        <time>2017-04-16T12:49:03.000Z</time>
      </trkpt>
      <trkpt lat="43.57614" lon="2.92118">
        <ele>446.2</ele>
        <time>2017-04-16T12:49:05.000Z</time>
      </trkpt>
      <trkpt lat="43.57622" lon="2.92119">
        <ele>447.2</ele>
        <time>2017-04-16T12:49:13.000Z</time>
      </trkpt>
      <trkpt lat="43.57624" lon="2.92119">
        <ele>447.6</ele>
        <time>2017-04-16T12:49:15.000Z</time>
      </trkpt>
      <trkpt lat="43.57626" lon="2.92119">
        <ele>448</ele>
        <time>2017-04-16T12:49:17.000Z</time>
      </trkpt>
      <trkpt lat="43.57628" lon="2.92119">
        <ele>448.4</ele>
        <time>2017-04-16T12:49:19.000Z</time>
      </trkpt>
      <trkpt lat="43.57631" lon="2.92119">
        <ele>448.6</ele>
        <time>2017-04-16T12:49:21.000Z</time>
      </trkpt>
      <trkpt lat="43.57633" lon="2.92118">
        <ele>449</ele>
        <time>2017-04-16T12:49:23.000Z</time>
      </trkpt>
      <trkpt lat="43.57635" lon="2.92119">
        <ele>449.6</ele>
        <time>2017-04-16T12:49:25.000Z</time>
      </trkpt>
      <trkpt lat="43.57637" lon="2.92119">
        <ele>450</ele>
        <time>2017-04-16T12:49:27.000Z</time>
      </trkpt>
      <trkpt lat="43.57638" lon="2.92119">
        <ele>450</ele>
        <time>2017-04-16T12:49:28.000Z</time>
      </trkpt>
      <trkpt lat="43.57639" lon="2.92118">
        <ele>450.6</ele>
        <time>2017-04-16T12:49:32.000Z</time>
      </trkpt>
      <trkpt lat="43.57639" lon="2.92118">
        <ele>450.8</ele>
        <time>2017-04-16T12:49:33.000Z</time>
      </trkpt>
      <trkpt lat="43.5764" lon="2.92119">
        <ele>451</ele>
        <time>2017-04-16T12:49:35.000Z</time>
      </trkpt>
      <trkpt lat="43.57643" lon="2.92119">
        <ele>451.4</ele>
        <time>2017-04-16T12:49:39.000Z</time>
      </trkpt>
      <trkpt lat="43.57644" lon="2.92119">
        <ele>451.8</ele>
        <time>2017-04-16T12:49:41.000Z</time>
      </trkpt>
      <trkpt lat="43.57646" lon="2.92118">
        <ele>452.2</ele>
        <time>2017-04-16T12:49:43.000Z</time>
      </trkpt>
      <trkpt lat="43.57648" lon="2.92117">
        <ele>452.6</ele>
        <time>2017-04-16T12:49:45.000Z</time>
      </trkpt>
      <trkpt lat="43.5765" lon="2.92115">
        <ele>453</ele>
        <time>2017-04-16T12:49:47.000Z</time>
      </trkpt>
      <trkpt lat="43.57651" lon="2.92114">
        <ele>453.6</ele>
        <time>2017-04-16T12:49:49.000Z</time>
      </trkpt>
      <trkpt lat="43.57652" lon="2.92112">
        <ele>454.2</ele>
        <time>2017-04-16T12:49:51.000Z</time>
      </trkpt>
      <trkpt lat="43.57653" lon="2.92111">
        <ele>454.6</ele>
        <time>2017-04-16T12:49:52.000Z</time>
      </trkpt>
      <trkpt lat="43.57655" lon="2.9211">
        <ele>455.2</ele>
        <time>2017-04-16T12:49:54.000Z</time>
      </trkpt>
      <trkpt lat="43.57656" lon="2.92109">
        <ele>455.8</ele>
        <time>2017-04-16T12:49:56.000Z</time>
      </trkpt>
      <trkpt lat="43.57657" lon="2.92108">
        <ele>456.4</ele>
        <time>2017-04-16T12:49:58.000Z</time>
      </trkpt>
      <trkpt lat="43.57657" lon="2.92108">
        <ele>456.6</ele>
        <time>2017-04-16T12:49:59.000Z</time>
      </trkpt>
      <trkpt lat="43.57658" lon="2.92107">
        <ele>457.6</ele>
        <time>2017-04-16T12:50:02.000Z</time>
      </trkpt>
      <trkpt lat="43.57658" lon="2.92106">
        <ele>458</ele>
        <time>2017-04-16T12:50:03.000Z</time>
      </trkpt>
      <trkpt lat="43.57657" lon="2.92106">
        <ele>458.2</ele>
        <time>2017-04-16T12:50:04.000Z</time>
      </trkpt>
      <trkpt lat="43.57657" lon="2.92106">
        <ele>458.4</ele>
        <time>2017-04-16T12:50:05.000Z</time>
      </trkpt>
      <trkpt lat="43.57658" lon="2.92105">
        <ele>458.8</ele>
        <time>2017-04-16T12:50:07.000Z</time>
      </trkpt>
      <trkpt lat="43.57658" lon="2.92104">
        <ele>459.2</ele>
        <time>2017-04-16T12:50:09.000Z</time>
      </trkpt>
      <trkpt lat="43.57659" lon="2.92104">
        <ele>459.4</ele>
        <time>2017-04-16T12:50:11.000Z</time>
      </trkpt>
      <trkpt lat="43.57662" lon="2.92102">
        <ele>460.8</ele>
        <time>2017-04-16T12:50:18.000Z</time>
      </trkpt>
      <trkpt lat="43.57662" lon="2.92101">
        <ele>461</ele>
        <time>2017-04-16T12:50:19.000Z</time>
      </trkpt>
      <trkpt lat="43.57663" lon="2.921">
        <ele>461</ele>
        <time>2017-04-16T12:50:20.000Z</time>
      </trkpt>
      <trkpt lat="43.57664" lon="2.92099">
        <ele>461.4</ele>
        <time>2017-04-16T12:50:22.000Z</time>
      </trkpt>
      <trkpt lat="43.57665" lon="2.92098">
        <ele>461.4</ele>
        <time>2017-04-16T12:50:23.000Z</time>
      </trkpt>
      <trkpt lat="43.57666" lon="2.92096">
        <ele>461.6</ele>
        <time>2017-04-16T12:50:25.000Z</time>
      </trkpt>
      <trkpt lat="43.57668" lon="2.92094">
        <ele>461.8</ele>
        <time>2017-04-16T12:50:27.000Z</time>
      </trkpt>
      <trkpt lat="43.57671" lon="2.92092">
        <ele>462.2</ele>
        <time>2017-04-16T12:50:30.000Z</time>
      </trkpt>
      <trkpt lat="43.57672" lon="2.92091">
        <ele>462.8</ele>
        <time>2017-04-16T12:50:32.000Z</time>
      </trkpt>
      <trkpt lat="43.57673" lon="2.92089">
        <ele>463.2</ele>
        <time>2017-04-16T12:50:34.000Z</time>
      </trkpt>
      <trkpt lat="43.57674" lon="2.92088">
        <ele>463.4</ele>
        <time>2017-04-16T12:50:36.000Z</time>
      </trkpt>
      <trkpt lat="43.57675" lon="2.92086">
        <ele>463.8</ele>
        <time>2017-04-16T12:50:38.000Z</time>
      </trkpt>
      <trkpt lat="43.57677" lon="2.92085">
        <ele>464.4</ele>
        <time>2017-04-16T12:50:40.000Z</time>
      </trkpt>
      <trkpt lat="43.57678" lon="2.92083">
        <ele>465</ele>
        <time>2017-04-16T12:50:42.000Z</time>
      </trkpt>
      <trkpt lat="43.57679" lon="2.92081">
        <ele>465.2</ele>
        <time>2017-04-16T12:50:44.000Z</time>
      </trkpt>
      <trkpt lat="43.57679" lon="2.9208">
        <ele>465.6</ele>
        <time>2017-04-16T12:50:46.000Z</time>
      </trkpt>
      <trkpt lat="43.57681" lon="2.92077">
        <ele>466.2</ele>
        <time>2017-04-16T12:50:50.000Z</time>
      </trkpt>
      <trkpt lat="43.57681" lon="2.92076">
        <ele>466.8</ele>
        <time>2017-04-16T12:50:52.000Z</time>
      </trkpt>
      <trkpt lat="43.57682" lon="2.92074">
        <ele>467.4</ele>
        <time>2017-04-16T12:50:54.000Z</time>
      </trkpt>
      <trkpt lat="43.57683" lon="2.92072">
        <ele>467.6</ele>
        <time>2017-04-16T12:50:56.000Z</time>
      </trkpt>
      <trkpt lat="43.57684" lon="2.9207">
        <ele>468</ele>
        <time>2017-04-16T12:50:58.000Z</time>
      </trkpt>
      <trkpt lat="43.57685" lon="2.92066">
        <ele>468.6</ele>
        <time>2017-04-16T12:51:03.000Z</time>
      </trkpt>
      <trkpt lat="43.57686" lon="2.92065">
        <ele>468.6</ele>
        <time>2017-04-16T12:51:04.000Z</time>
      </trkpt>
      <trkpt lat="43.57692" lon="2.92061">
        <ele>469.2</ele>
        <time>2017-04-16T12:51:10.000Z</time>
      </trkpt>
      <trkpt lat="43.57694" lon="2.9206">
        <ele>469.6</ele>
        <time>2017-04-16T12:51:12.000Z</time>
      </trkpt>
      <trkpt lat="43.57694" lon="2.92058">
        <ele>470</ele>
        <time>2017-04-16T12:51:14.000Z</time>
      </trkpt>
      <trkpt lat="43.57695" lon="2.92057">
        <ele>470.2</ele>
        <time>2017-04-16T12:51:16.000Z</time>
      </trkpt>
      <trkpt lat="43.57695" lon="2.92056">
        <ele>470.4</ele>
        <time>2017-04-16T12:51:18.000Z</time>
      </trkpt>
      <trkpt lat="43.57697" lon="2.92053">
        <ele>471</ele>
        <time>2017-04-16T12:51:22.000Z</time>
      </trkpt>
      <trkpt lat="43.57698" lon="2.92051">
        <ele>471.4</ele>
        <time>2017-04-16T12:51:24.000Z</time>
      </trkpt>
      <trkpt lat="43.57699" lon="2.92049">
        <ele>471.8</ele>
        <time>2017-04-16T12:51:26.000Z</time>
      </trkpt>
      <trkpt lat="43.577" lon="2.92047">
        <ele>472.2</ele>
        <time>2017-04-16T12:51:28.000Z</time>
      </trkpt>
      <trkpt lat="43.57701" lon="2.92045">
        <ele>472.4</ele>
        <time>2017-04-16T12:51:30.000Z</time>
      </trkpt>
      <trkpt lat="43.57702" lon="2.92042">
        <ele>473</ele>
        <time>2017-04-16T12:51:33.000Z</time>
      </trkpt>
      <trkpt lat="43.57703" lon="2.92041">
        <ele>473.6</ele>
        <time>2017-04-16T12:51:35.000Z</time>
      </trkpt>
      <trkpt lat="43.57703" lon="2.92039">
        <ele>474</ele>
        <time>2017-04-16T12:51:37.000Z</time>
      </trkpt>
      <trkpt lat="43.57703" lon="2.92038">
        <ele>474.6</ele>
        <time>2017-04-16T12:51:39.000Z</time>
      </trkpt>
      <trkpt lat="43.57704" lon="2.92037">
        <ele>475</ele>
        <time>2017-04-16T12:51:40.000Z</time>
      </trkpt>
      <trkpt lat="43.57703" lon="2.92034">
        <ele>475.8</ele>
        <time>2017-04-16T12:51:43.000Z</time>
      </trkpt>
      <trkpt lat="43.57704" lon="2.92033">
        <ele>476.2</ele>
        <time>2017-04-16T12:51:45.000Z</time>
      </trkpt>
      <trkpt lat="43.57704" lon="2.92032">
        <ele>476.6</ele>
        <time>2017-04-16T12:51:47.000Z</time>
      </trkpt>
      <trkpt lat="43.57705" lon="2.9203">
        <ele>477.2</ele>
        <time>2017-04-16T12:51:50.000Z</time>
      </trkpt>
      <trkpt lat="43.57707" lon="2.92028">
        <ele>477.8</ele>
        <time>2017-04-16T12:51:52.000Z</time>
      </trkpt>
      <trkpt lat="43.57708" lon="2.92027">
        <ele>478.2</ele>
        <time>2017-04-16T12:51:54.000Z</time>
      </trkpt>
      <trkpt lat="43.57709" lon="2.92025">
        <ele>478.6</ele>
        <time>2017-04-16T12:51:56.000Z</time>
      </trkpt>
      <trkpt lat="43.5771" lon="2.92023">
        <ele>479</ele>
        <time>2017-04-16T12:51:58.000Z</time>
      </trkpt>
      <trkpt lat="43.57712" lon="2.92017">
        <ele>479.4</ele>
        <time>2017-04-16T12:52:04.000Z</time>
      </trkpt>
      <trkpt lat="43.57714" lon="2.92015">
        <ele>480.2</ele>
        <time>2017-04-16T12:52:06.000Z</time>
      </trkpt>
      <trkpt lat="43.57715" lon="2.92015">
        <ele>480.4</ele>
        <time>2017-04-16T12:52:07.000Z</time>
      </trkpt>
      <trkpt lat="43.57716" lon="2.92014">
        <ele>480.6</ele>
        <time>2017-04-16T12:52:08.000Z</time>
      </trkpt>
      <trkpt lat="43.57718" lon="2.92013">
        <ele>480.8</ele>
        <time>2017-04-16T12:52:10.000Z</time>
      </trkpt>
      <trkpt lat="43.5772" lon="2.92011">
        <ele>481.2</ele>
        <time>2017-04-16T12:52:12.000Z</time>
      </trkpt>
      <trkpt lat="43.5772" lon="2.92009">
        <ele>481.2</ele>
        <time>2017-04-16T12:52:13.000Z</time>
      </trkpt>
      <trkpt lat="43.57722" lon="2.92003">
        <ele>481.8</ele>
        <time>2017-04-16T12:52:18.000Z</time>
      </trkpt>
      <trkpt lat="43.57723" lon="2.92">
        <ele>482.2</ele>
        <time>2017-04-16T12:52:20.000Z</time>
      </trkpt>
      <trkpt lat="43.57724" lon="2.91997">
        <ele>482.6</ele>
        <time>2017-04-16T12:52:22.000Z</time>
      </trkpt>
      <trkpt lat="43.57724" lon="2.91994">
        <ele>483</ele>
        <time>2017-04-16T12:52:24.000Z</time>
      </trkpt>
      <trkpt lat="43.57725" lon="2.91992">
        <ele>483.2</ele>
        <time>2017-04-16T12:52:26.000Z</time>
      </trkpt>
      <trkpt lat="43.57726" lon="2.91982">
        <ele>483.8</ele>
        <time>2017-04-16T12:52:34.000Z</time>
      </trkpt>
      <trkpt lat="43.57726" lon="2.91979">
        <ele>483.8</ele>
        <time>2017-04-16T12:52:36.000Z</time>
      </trkpt>
      <trkpt lat="43.57727" lon="2.91974">
        <ele>484.2</ele>
        <time>2017-04-16T12:52:40.000Z</time>
      </trkpt>
      <trkpt lat="43.57728" lon="2.91972">
        <ele>484.6</ele>
        <time>2017-04-16T12:52:42.000Z</time>
      </trkpt>
      <trkpt lat="43.57728" lon="2.9197">
        <ele>485</ele>
        <time>2017-04-16T12:52:44.000Z</time>
      </trkpt>
      <trkpt lat="43.57729" lon="2.91968">
        <ele>485.2</ele>
        <time>2017-04-16T12:52:46.000Z</time>
      </trkpt>
      <trkpt lat="43.57729" lon="2.91966">
        <ele>485.4</ele>
        <time>2017-04-16T12:52:48.000Z</time>
      </trkpt>
      <trkpt lat="43.5773" lon="2.91964">
        <ele>485.6</ele>
        <time>2017-04-16T12:52:50.000Z</time>
      </trkpt>
      <trkpt lat="43.5773" lon="2.91961">
        <ele>486.4</ele>
        <time>2017-04-16T12:52:53.000Z</time>
      </trkpt>
      <trkpt lat="43.5773" lon="2.91959">
        <ele>486.8</ele>
        <time>2017-04-16T12:52:55.000Z</time>
      </trkpt>
      <trkpt lat="43.57731" lon="2.91958">
        <ele>487</ele>
        <time>2017-04-16T12:52:57.000Z</time>
      </trkpt>
      <trkpt lat="43.57732" lon="2.91956">
        <ele>487.4</ele>
        <time>2017-04-16T12:52:59.000Z</time>
      </trkpt>
      <trkpt lat="43.57734" lon="2.91954">
        <ele>487.8</ele>
        <time>2017-04-16T12:53:01.000Z</time>
      </trkpt>
      <trkpt lat="43.57735" lon="2.91952">
        <ele>488.2</ele>
        <time>2017-04-16T12:53:03.000Z</time>
      </trkpt>
      <trkpt lat="43.57737" lon="2.9195">
        <ele>488.6</ele>
        <time>2017-04-16T12:53:05.000Z</time>
      </trkpt>
      <trkpt lat="43.57738" lon="2.91948">
        <ele>489</ele>
        <time>2017-04-16T12:53:07.000Z</time>
      </trkpt>
      <trkpt lat="43.57739" lon="2.91947">
        <ele>489.2</ele>
        <time>2017-04-16T12:53:08.000Z</time>
      </trkpt>
      <trkpt lat="43.57739" lon="2.91946">
        <ele>489.2</ele>
        <time>2017-04-16T12:53:09.000Z</time>
      </trkpt>
      <trkpt lat="43.57743" lon="2.91941">
        <ele>490</ele>
        <time>2017-04-16T12:53:14.000Z</time>
      </trkpt>
      <trkpt lat="43.57744" lon="2.91939">
        <ele>490.4</ele>
        <time>2017-04-16T12:53:16.000Z</time>
      </trkpt>
      <trkpt lat="43.57745" lon="2.91938">
        <ele>490.8</ele>
        <time>2017-04-16T12:53:18.000Z</time>
      </trkpt>
      <trkpt lat="43.57747" lon="2.91936">
        <ele>491.2</ele>
        <time>2017-04-16T12:53:20.000Z</time>
      </trkpt>
      <trkpt lat="43.57748" lon="2.91934">
        <ele>491.4</ele>
        <time>2017-04-16T12:53:22.000Z</time>
      </trkpt>
      <trkpt lat="43.57748" lon="2.91931">
        <ele>491.6</ele>
        <time>2017-04-16T12:53:24.000Z</time>
      </trkpt>
      <trkpt lat="43.57749" lon="2.91929">
        <ele>492</ele>
        <time>2017-04-16T12:53:26.000Z</time>
      </trkpt>
      <trkpt lat="43.5775" lon="2.91927">
        <ele>492.4</ele>
        <time>2017-04-16T12:53:28.000Z</time>
      </trkpt>
      <trkpt lat="43.5775" lon="2.91925">
        <ele>492.6</ele>
        <time>2017-04-16T12:53:29.000Z</time>
      </trkpt>
      <trkpt lat="43.5775" lon="2.91924">
        <ele>492.8</ele>
        <time>2017-04-16T12:53:30.000Z</time>
      </trkpt>
      <trkpt lat="43.57751" lon="2.91922">
        <ele>493.2</ele>
        <time>2017-04-16T12:53:32.000Z</time>
      </trkpt>
      <trkpt lat="43.57752" lon="2.91919">
        <ele>493.4</ele>
        <time>2017-04-16T12:53:34.000Z</time>
      </trkpt>
      <trkpt lat="43.57752" lon="2.91918">
        <ele>493.6</ele>
        <time>2017-04-16T12:53:35.000Z</time>
      </trkpt>
      <trkpt lat="43.57756" lon="2.91908">
        <ele>494.2</ele>
        <time>2017-04-16T12:53:43.000Z</time>
      </trkpt>
      <trkpt lat="43.57758" lon="2.91901">
        <ele>494.4</ele>
        <time>2017-04-16T12:53:49.000Z</time>
      </trkpt>
      <trkpt lat="43.57761" lon="2.91895">
        <ele>494.6</ele>
        <time>2017-04-16T12:53:53.000Z</time>
      </trkpt>
      <trkpt lat="43.57762" lon="2.91894">
        <ele>494.8</ele>
        <time>2017-04-16T12:53:54.000Z</time>
      </trkpt>
      <trkpt lat="43.57763" lon="2.9189">
        <ele>495.4</ele>
        <time>2017-04-16T12:53:57.000Z</time>
      </trkpt>
      <trkpt lat="43.57763" lon="2.91888">
        <ele>495.6</ele>
        <time>2017-04-16T12:53:59.000Z</time>
      </trkpt>
      <trkpt lat="43.57763" lon="2.91886">
        <ele>495.8</ele>
        <time>2017-04-16T12:54:01.000Z</time>
      </trkpt>
      <trkpt lat="43.57764" lon="2.91883">
        <ele>496.2</ele>
        <time>2017-04-16T12:54:04.000Z</time>
      </trkpt>
      <trkpt lat="43.57764" lon="2.91882">
        <ele>496.6</ele>
        <time>2017-04-16T12:54:05.000Z</time>
      </trkpt>
      <trkpt lat="43.57765" lon="2.91881">
        <ele>496.8</ele>
        <time>2017-04-16T12:54:06.000Z</time>
      </trkpt>
      <trkpt lat="43.57765" lon="2.91879">
        <ele>497.2</ele>
        <time>2017-04-16T12:54:08.000Z</time>
      </trkpt>
      <trkpt lat="43.57766" lon="2.91877">
        <ele>497.4</ele>
        <time>2017-04-16T12:54:10.000Z</time>
      </trkpt>
      <trkpt lat="43.57766" lon="2.91874">
        <ele>497.8</ele>
        <time>2017-04-16T12:54:12.000Z</time>
      </trkpt>
      <trkpt lat="43.5777" lon="2.91868">
        <ele>498.6</ele>
        <time>2017-04-16T12:54:19.000Z</time>
      </trkpt>
      <trkpt lat="43.57772" lon="2.91866">
        <ele>499</ele>
        <time>2017-04-16T12:54:21.000Z</time>
      </trkpt>
      <trkpt lat="43.57773" lon="2.91864">
        <ele>499.4</ele>
        <time>2017-04-16T12:54:23.000Z</time>
      </trkpt>
      <trkpt lat="43.57775" lon="2.91863">
        <ele>499.6</ele>
        <time>2017-04-16T12:54:25.000Z</time>
      </trkpt>
      <trkpt lat="43.57776" lon="2.91862">
        <ele>499.8</ele>
        <time>2017-04-16T12:54:27.000Z</time>
      </trkpt>
      <trkpt lat="43.57777" lon="2.91862">
        <ele>500.2</ele>
        <time>2017-04-16T12:54:28.000Z</time>
      </trkpt>
      <trkpt lat="43.57777" lon="2.91861">
        <ele>500.8</ele>
        <time>2017-04-16T12:54:30.000Z</time>
      </trkpt>
      <trkpt lat="43.57778" lon="2.91859">
        <ele>501.2</ele>
        <time>2017-04-16T12:54:32.000Z</time>
      </trkpt>
      <trkpt lat="43.57778" lon="2.91857">
        <ele>501.6</ele>
        <time>2017-04-16T12:54:34.000Z</time>
      </trkpt>
      <trkpt lat="43.57779" lon="2.91856">
        <ele>501.8</ele>
        <time>2017-04-16T12:54:36.000Z</time>
      </trkpt>
      <trkpt lat="43.57779" lon="2.91847">
        <ele>502.6</ele>
        <time>2017-04-16T12:54:44.000Z</time>
      </trkpt>
      <trkpt lat="43.5778" lon="2.91845">
        <ele>502.8</ele>
        <time>2017-04-16T12:54:47.000Z</time>
      </trkpt>
      <trkpt lat="43.57781" lon="2.91844">
        <ele>502.8</ele>
        <time>2017-04-16T12:54:51.000Z</time>
      </trkpt>
      <trkpt lat="43.57782" lon="2.91844">
        <ele>503.2</ele>
        <time>2017-04-16T12:54:53.000Z</time>
      </trkpt>
      <trkpt lat="43.57783" lon="2.91843">
        <ele>503.6</ele>
        <time>2017-04-16T12:54:55.000Z</time>
      </trkpt>
      <trkpt lat="43.57785" lon="2.91841">
        <ele>503.8</ele>
        <time>2017-04-16T12:54:57.000Z</time>
      </trkpt>
      <trkpt lat="43.57787" lon="2.9184">
        <ele>504</ele>
        <time>2017-04-16T12:54:59.000Z</time>
      </trkpt>
      <trkpt lat="43.57788" lon="2.91838">
        <ele>504.2</ele>
        <time>2017-04-16T12:55:01.000Z</time>
      </trkpt>
      <trkpt lat="43.57792" lon="2.91832">
        <ele>505</ele>
        <time>2017-04-16T12:55:10.000Z</time>
      </trkpt>
      <trkpt lat="43.57792" lon="2.9183">
        <ele>505.4</ele>
        <time>2017-04-16T12:55:11.000Z</time>
      </trkpt>
      <trkpt lat="43.57792" lon="2.91827">
        <ele>505.8</ele>
        <time>2017-04-16T12:55:13.000Z</time>
      </trkpt>
      <trkpt lat="43.57792" lon="2.91824">
        <ele>506</ele>
        <time>2017-04-16T12:55:15.000Z</time>
      </trkpt>
      <trkpt lat="43.57793" lon="2.91822">
        <ele>506.4</ele>
        <time>2017-04-16T12:55:17.000Z</time>
      </trkpt>
      <trkpt lat="43.57793" lon="2.91821">
        <ele>506.6</ele>
        <time>2017-04-16T12:55:18.000Z</time>
      </trkpt>
      <trkpt lat="43.57794" lon="2.91819">
        <ele>507.2</ele>
        <time>2017-04-16T12:55:20.000Z</time>
      </trkpt>
      <trkpt lat="43.57796" lon="2.91819">
        <ele>507.6</ele>
        <time>2017-04-16T12:55:22.000Z</time>
      </trkpt>
      <trkpt lat="43.57797" lon="2.91818">
        <ele>508</ele>
        <time>2017-04-16T12:55:24.000Z</time>
      </trkpt>
      <trkpt lat="43.57797" lon="2.91817">
        <ele>508.2</ele>
        <time>2017-04-16T12:55:26.000Z</time>
      </trkpt>
      <trkpt lat="43.57798" lon="2.91812">
        <ele>508.8</ele>
        <time>2017-04-16T12:55:31.000Z</time>
      </trkpt>
      <trkpt lat="43.57798" lon="2.91811">
        <ele>509.4</ele>
        <time>2017-04-16T12:55:33.000Z</time>
      </trkpt>
      <trkpt lat="43.57798" lon="2.91809">
        <ele>509.8</ele>
        <time>2017-04-16T12:55:35.000Z</time>
      </trkpt>
      <trkpt lat="43.57799" lon="2.91807">
        <ele>510.2</ele>
        <time>2017-04-16T12:55:37.000Z</time>
      </trkpt>
      <trkpt lat="43.57799" lon="2.91805">
        <ele>510.4</ele>
        <time>2017-04-16T12:55:39.000Z</time>
      </trkpt>
      <trkpt lat="43.578" lon="2.91798">
        <ele>511.2</ele>
        <time>2017-04-16T12:55:47.000Z</time>
      </trkpt>
      <trkpt lat="43.578" lon="2.91796">
        <ele>511.6</ele>
        <time>2017-04-16T12:55:49.000Z</time>
      </trkpt>
      <trkpt lat="43.578" lon="2.91796">
        <ele>512</ele>
        <time>2017-04-16T12:55:51.000Z</time>
      </trkpt>
      <trkpt lat="43.57802" lon="2.91795">
        <ele>512.4</ele>
        <time>2017-04-16T12:55:53.000Z</time>
      </trkpt>
      <trkpt lat="43.57804" lon="2.91794">
        <ele>512.6</ele>
        <time>2017-04-16T12:55:55.000Z</time>
      </trkpt>
      <trkpt lat="43.57805" lon="2.91793">
        <ele>513</ele>
        <time>2017-04-16T12:55:57.000Z</time>
      </trkpt>
      <trkpt lat="43.57807" lon="2.91792">
        <ele>513.6</ele>
        <time>2017-04-16T12:55:59.000Z</time>
      </trkpt>
      <trkpt lat="43.57808" lon="2.9179">
        <ele>514</ele>
        <time>2017-04-16T12:56:01.000Z</time>
      </trkpt>
      <trkpt lat="43.57809" lon="2.91788">
        <ele>514.6</ele>
        <time>2017-04-16T12:56:03.000Z</time>
      </trkpt>
      <trkpt lat="43.57811" lon="2.91786">
        <ele>515.2</ele>
        <time>2017-04-16T12:56:05.000Z</time>
      </trkpt>
      <trkpt lat="43.57812" lon="2.91785">
        <ele>515.6</ele>
        <time>2017-04-16T12:56:07.000Z</time>
      </trkpt>
      <trkpt lat="43.57813" lon="2.91784">
        <ele>516.2</ele>
        <time>2017-04-16T12:56:10.000Z</time>
      </trkpt>
      <trkpt lat="43.57814" lon="2.91782">
        <ele>516.4</ele>
        <time>2017-04-16T12:56:11.000Z</time>
      </trkpt>
      <trkpt lat="43.57815" lon="2.9178">
        <ele>517</ele>
        <time>2017-04-16T12:56:13.000Z</time>
      </trkpt>
      <trkpt lat="43.57816" lon="2.91779">
        <ele>517.6</ele>
        <time>2017-04-16T12:56:15.000Z</time>
      </trkpt>
      <trkpt lat="43.57817" lon="2.91778">
        <ele>518</ele>
        <time>2017-04-16T12:56:17.000Z</time>
      </trkpt>
      <trkpt lat="43.57818" lon="2.91776">
        <ele>518.4</ele>
        <time>2017-04-16T12:56:19.000Z</time>
      </trkpt>
      <trkpt lat="43.57819" lon="2.91775">
        <ele>518.8</ele>
        <time>2017-04-16T12:56:21.000Z</time>
      </trkpt>
      <trkpt lat="43.57819" lon="2.91774">
        <ele>519</ele>
        <time>2017-04-16T12:56:23.000Z</time>
      </trkpt>
      <trkpt lat="43.5782" lon="2.91773">
        <ele>519.6</ele>
        <time>2017-04-16T12:56:25.000Z</time>
      </trkpt>
      <trkpt lat="43.5782" lon="2.91773">
        <ele>519.8</ele>
        <time>2017-04-16T12:56:26.000Z</time>
      </trkpt>
      <trkpt lat="43.57821" lon="2.91771">
        <ele>520.2</ele>
        <time>2017-04-16T12:56:28.000Z</time>
      </trkpt>
      <trkpt lat="43.57822" lon="2.91769">
        <ele>520.6</ele>
        <time>2017-04-16T12:56:30.000Z</time>
      </trkpt>
      <trkpt lat="43.57822" lon="2.91768">
        <ele>520.8</ele>
        <time>2017-04-16T12:56:32.000Z</time>
      </trkpt>
      <trkpt lat="43.57822" lon="2.91766">
        <ele>521.2</ele>
        <time>2017-04-16T12:56:34.000Z</time>
      </trkpt>
      <trkpt lat="43.57822" lon="2.91764">
        <ele>521.8</ele>
        <time>2017-04-16T12:56:37.000Z</time>
      </trkpt>
      <trkpt lat="43.57823" lon="2.91763">
        <ele>522</ele>
        <time>2017-04-16T12:56:38.000Z</time>
      </trkpt>
      <trkpt lat="43.57823" lon="2.91763">
        <ele>522.2</ele>
        <time>2017-04-16T12:56:39.000Z</time>
      </trkpt>
      <trkpt lat="43.57822" lon="2.91761">
        <ele>523.4</ele>
        <time>2017-04-16T12:56:47.000Z</time>
      </trkpt>
      <trkpt lat="43.57823" lon="2.9176">
        <ele>523.4</ele>
        <time>2017-04-16T12:56:48.000Z</time>
      </trkpt>
      <trkpt lat="43.57823" lon="2.9176">
        <ele>523.4</ele>
        <time>2017-04-16T12:56:49.000Z</time>
      </trkpt>
      <trkpt lat="43.57823" lon="2.91759">
        <ele>523.6</ele>
        <time>2017-04-16T12:56:50.000Z</time>
      </trkpt>
      <trkpt lat="43.57824" lon="2.91757">
        <ele>523.6</ele>
        <time>2017-04-16T12:56:52.000Z</time>
      </trkpt>
      <trkpt lat="43.57826" lon="2.91755">
        <ele>523.8</ele>
        <time>2017-04-16T12:56:54.000Z</time>
      </trkpt>
      <trkpt lat="43.57828" lon="2.91753">
        <ele>524.2</ele>
        <time>2017-04-16T12:56:58.000Z</time>
      </trkpt>
      <trkpt lat="43.57829" lon="2.91751">
        <ele>524.6</ele>
        <time>2017-04-16T12:57:00.000Z</time>
      </trkpt>
      <trkpt lat="43.57831" lon="2.9175">
        <ele>524.8</ele>
        <time>2017-04-16T12:57:02.000Z</time>
      </trkpt>
      <trkpt lat="43.57832" lon="2.91749">
        <ele>525.2</ele>
        <time>2017-04-16T12:57:04.000Z</time>
      </trkpt>
      <trkpt lat="43.57833" lon="2.91748">
        <ele>525.4</ele>
        <time>2017-04-16T12:57:06.000Z</time>
      </trkpt>
      <trkpt lat="43.57833" lon="2.91747">
        <ele>525.6</ele>
        <time>2017-04-16T12:57:07.000Z</time>
      </trkpt>
      <trkpt lat="43.57834" lon="2.91746">
        <ele>526.2</ele>
        <time>2017-04-16T12:57:10.000Z</time>
      </trkpt>
      <trkpt lat="43.57834" lon="2.91744">
        <ele>526.6</ele>
        <time>2017-04-16T12:57:11.000Z</time>
      </trkpt>
      <trkpt lat="43.57836" lon="2.91743">
        <ele>527</ele>
        <time>2017-04-16T12:57:13.000Z</time>
      </trkpt>
      <trkpt lat="43.57837" lon="2.91742">
        <ele>527.2</ele>
        <time>2017-04-16T12:57:15.000Z</time>
      </trkpt>
      <trkpt lat="43.57839" lon="2.91738">
        <ele>527.8</ele>
        <time>2017-04-16T12:57:19.000Z</time>
      </trkpt>
      <trkpt lat="43.5784" lon="2.91737">
        <ele>528.4</ele>
        <time>2017-04-16T12:57:21.000Z</time>
      </trkpt>
      <trkpt lat="43.57841" lon="2.91736">
        <ele>528.8</ele>
        <time>2017-04-16T12:57:23.000Z</time>
      </trkpt>
      <trkpt lat="43.57842" lon="2.91735">
        <ele>529</ele>
        <time>2017-04-16T12:57:25.000Z</time>
      </trkpt>
      <trkpt lat="43.57843" lon="2.91733">
        <ele>529.4</ele>
        <time>2017-04-16T12:57:27.000Z</time>
      </trkpt>
      <trkpt lat="43.57845" lon="2.91729">
        <ele>530.2</ele>
        <time>2017-04-16T12:57:33.000Z</time>
      </trkpt>
      <trkpt lat="43.57846" lon="2.91727">
        <ele>530.6</ele>
        <time>2017-04-16T12:57:35.000Z</time>
      </trkpt>
      <trkpt lat="43.57846" lon="2.91726">
        <ele>531</ele>
        <time>2017-04-16T12:57:37.000Z</time>
      </trkpt>
      <trkpt lat="43.57847" lon="2.91725">
        <ele>531.2</ele>
        <time>2017-04-16T12:57:39.000Z</time>
      </trkpt>
      <trkpt lat="43.57849" lon="2.91724">
        <ele>531.6</ele>
        <time>2017-04-16T12:57:41.000Z</time>
      </trkpt>
      <trkpt lat="43.57853" lon="2.9172">
        <ele>532.2</ele>
        <time>2017-04-16T12:57:47.000Z</time>
      </trkpt>
      <trkpt lat="43.57855" lon="2.91719">
        <ele>532.6</ele>
        <time>2017-04-16T12:57:49.000Z</time>
      </trkpt>
      <trkpt lat="43.57856" lon="2.91718">
        <ele>533</ele>
        <time>2017-04-16T12:57:51.000Z</time>
      </trkpt>
      <trkpt lat="43.57857" lon="2.91716">
        <ele>533.4</ele>
        <time>2017-04-16T12:57:53.000Z</time>
      </trkpt>
      <trkpt lat="43.57858" lon="2.91714">
        <ele>533.6</ele>
        <time>2017-04-16T12:57:55.000Z</time>
      </trkpt>
      <trkpt lat="43.5786" lon="2.91709">
        <ele>534.2</ele>
        <time>2017-04-16T12:58:02.000Z</time>
      </trkpt>
      <trkpt lat="43.57861" lon="2.91709">
        <ele>534.8</ele>
        <time>2017-04-16T12:58:04.000Z</time>
      </trkpt>
      <trkpt lat="43.57862" lon="2.91708">
        <ele>535</ele>
        <time>2017-04-16T12:58:06.000Z</time>
      </trkpt>
      <trkpt lat="43.57862" lon="2.91707">
        <ele>535.4</ele>
        <time>2017-04-16T12:58:08.000Z</time>
      </trkpt>
      <trkpt lat="43.57862" lon="2.91705">
        <ele>535.6</ele>
        <time>2017-04-16T12:58:10.000Z</time>
      </trkpt>
      <trkpt lat="43.57863" lon="2.91703">
        <ele>536</ele>
        <time>2017-04-16T12:58:12.000Z</time>
      </trkpt>
      <trkpt lat="43.57863" lon="2.91701">
        <ele>536.6</ele>
        <time>2017-04-16T12:58:14.000Z</time>
      </trkpt>
      <trkpt lat="43.57864" lon="2.91699">
        <ele>537</ele>
        <time>2017-04-16T12:58:17.000Z</time>
      </trkpt>
      <trkpt lat="43.57864" lon="2.91698">
        <ele>537.2</ele>
        <time>2017-04-16T12:58:18.000Z</time>
      </trkpt>
      <trkpt lat="43.57865" lon="2.91696">
        <ele>537.6</ele>
        <time>2017-04-16T12:58:20.000Z</time>
      </trkpt>
      <trkpt lat="43.57866" lon="2.91695">
        <ele>537.8</ele>
        <time>2017-04-16T12:58:21.000Z</time>
      </trkpt>
      <trkpt lat="43.57867" lon="2.91692">
        <ele>538.4</ele>
        <time>2017-04-16T12:58:23.000Z</time>
      </trkpt>
      <trkpt lat="43.57868" lon="2.9169">
        <ele>538.8</ele>
        <time>2017-04-16T12:58:25.000Z</time>
      </trkpt>
      <trkpt lat="43.57868" lon="2.91689">
        <ele>539</ele>
        <time>2017-04-16T12:58:26.000Z</time>
      </trkpt>
      <trkpt lat="43.5787" lon="2.91686">
        <ele>540</ele>
        <time>2017-04-16T12:58:34.000Z</time>
      </trkpt>
      <trkpt lat="43.57871" lon="2.91685">
        <ele>540</ele>
        <time>2017-04-16T12:58:35.000Z</time>
      </trkpt>
      <trkpt lat="43.57871" lon="2.91685">
        <ele>540.2</ele>
        <time>2017-04-16T12:58:36.000Z</time>
      </trkpt>
      <trkpt lat="43.57872" lon="2.91684">
        <ele>540.4</ele>
        <time>2017-04-16T12:58:38.000Z</time>
      </trkpt>
      <trkpt lat="43.57873" lon="2.91683">
        <ele>540.8</ele>
        <time>2017-04-16T12:58:39.000Z</time>
      </trkpt>
      <trkpt lat="43.57875" lon="2.91682">
        <ele>541.2</ele>
        <time>2017-04-16T12:58:41.000Z</time>
      </trkpt>
      <trkpt lat="43.57876" lon="2.91681">
        <ele>541.4</ele>
        <time>2017-04-16T12:58:43.000Z</time>
      </trkpt>
      <trkpt lat="43.57878" lon="2.9168">
        <ele>541.8</ele>
        <time>2017-04-16T12:58:45.000Z</time>
      </trkpt>
      <trkpt lat="43.57879" lon="2.9168">
        <ele>542</ele>
        <time>2017-04-16T12:58:46.000Z</time>
      </trkpt>
      <trkpt lat="43.57881" lon="2.9168">
        <ele>542.6</ele>
        <time>2017-04-16T12:58:48.000Z</time>
      </trkpt>
      <trkpt lat="43.57883" lon="2.9168">
        <ele>543</ele>
        <time>2017-04-16T12:58:50.000Z</time>
      </trkpt>
      <trkpt lat="43.57884" lon="2.91679">
        <ele>543.4</ele>
        <time>2017-04-16T12:58:52.000Z</time>
      </trkpt>
      <trkpt lat="43.57886" lon="2.91678">
        <ele>543.6</ele>
        <time>2017-04-16T12:58:54.000Z</time>
      </trkpt>
      <trkpt lat="43.57887" lon="2.91677">
        <ele>544</ele>
        <time>2017-04-16T12:58:55.000Z</time>
      </trkpt>
      <trkpt lat="43.57889" lon="2.91676">
        <ele>544.6</ele>
        <time>2017-04-16T12:58:57.000Z</time>
      </trkpt>
      <trkpt lat="43.5789" lon="2.91673">
        <ele>545</ele>
        <time>2017-04-16T12:58:59.000Z</time>
      </trkpt>
      <trkpt lat="43.57891" lon="2.91671">
        <ele>545.4</ele>
        <time>2017-04-16T12:59:01.000Z</time>
      </trkpt>
      <trkpt lat="43.57891" lon="2.91669">
        <ele>545.8</ele>
        <time>2017-04-16T12:59:03.000Z</time>
      </trkpt>
      <trkpt lat="43.57892" lon="2.91667">
        <ele>546.4</ele>
        <time>2017-04-16T12:59:06.000Z</time>
      </trkpt>
      <trkpt lat="43.57893" lon="2.91665">
        <ele>547</ele>
        <time>2017-04-16T12:59:08.000Z</time>
      </trkpt>
      <trkpt lat="43.57893" lon="2.91663">
        <ele>547.8</ele>
        <time>2017-04-16T12:59:10.000Z</time>
      </trkpt>
      <trkpt lat="43.57894" lon="2.91662">
        <ele>548.4</ele>
        <time>2017-04-16T12:59:12.000Z</time>
      </trkpt>
      <trkpt lat="43.57896" lon="2.91661">
        <ele>549.2</ele>
        <time>2017-04-16T12:59:14.000Z</time>
      </trkpt>
      <trkpt lat="43.57897" lon="2.9166">
        <ele>549.6</ele>
        <time>2017-04-16T12:59:16.000Z</time>
      </trkpt>
      <trkpt lat="43.57899" lon="2.91658">
        <ele>550</ele>
        <time>2017-04-16T12:59:18.000Z</time>
      </trkpt>
      <trkpt lat="43.579" lon="2.91657">
        <ele>550.6</ele>
        <time>2017-04-16T12:59:20.000Z</time>
      </trkpt>
      <trkpt lat="43.57901" lon="2.91657">
        <ele>551.2</ele>
        <time>2017-04-16T12:59:22.000Z</time>
      </trkpt>
      <trkpt lat="43.57901" lon="2.91657">
        <ele>551.6</ele>
        <time>2017-04-16T12:59:23.000Z</time>
      </trkpt>
      <trkpt lat="43.57902" lon="2.91656">
        <ele>552.8</ele>
        <time>2017-04-16T12:59:30.000Z</time>
      </trkpt>
      <trkpt lat="43.57903" lon="2.91656">
        <ele>553</ele>
        <time>2017-04-16T12:59:31.000Z</time>
      </trkpt>
      <trkpt lat="43.57904" lon="2.91656">
        <ele>553</ele>
        <time>2017-04-16T12:59:33.000Z</time>
      </trkpt>
      <trkpt lat="43.57907" lon="2.91656">
        <ele>553.2</ele>
        <time>2017-04-16T12:59:34.000Z</time>
      </trkpt>
      <trkpt lat="43.57916" lon="2.91664">
        <ele>553.8</ele>
        <time>2017-04-16T12:59:44.000Z</time>
      </trkpt>
      <trkpt lat="43.5792" lon="2.91673">
        <ele>553.8</ele>
        <time>2017-04-16T12:59:52.000Z</time>
      </trkpt>
      <trkpt lat="43.57921" lon="2.91674">
        <ele>554</ele>
        <time>2017-04-16T12:59:53.000Z</time>
      </trkpt>
      <trkpt lat="43.57921" lon="2.91675">
        <ele>554.4</ele>
        <time>2017-04-16T12:59:54.000Z</time>
      </trkpt>
      <trkpt lat="43.57923" lon="2.91679">
        <ele>554.8</ele>
        <time>2017-04-16T12:59:57.000Z</time>
      </trkpt>
      <trkpt lat="43.57924" lon="2.9168">
        <ele>555</ele>
        <time>2017-04-16T12:59:59.000Z</time>
      </trkpt>
      <trkpt lat="43.57925" lon="2.91681">
        <ele>555.2</ele>
        <time>2017-04-16T13:00:00.000Z</time>
      </trkpt>
      <trkpt lat="43.57926" lon="2.91682">
        <ele>555.2</ele>
        <time>2017-04-16T13:00:01.000Z</time>
      </trkpt>
      <trkpt lat="43.57929" lon="2.91684">
        <ele>555.6</ele>
        <time>2017-04-16T13:00:04.000Z</time>
      </trkpt>
      <trkpt lat="43.57934" lon="2.91688">
        <ele>556</ele>
        <time>2017-04-16T13:00:10.000Z</time>
      </trkpt>
      <trkpt lat="43.57936" lon="2.9169">
        <ele>556.4</ele>
        <time>2017-04-16T13:00:11.000Z</time>
      </trkpt>
      <trkpt lat="43.57936" lon="2.91691">
        <ele>556.6</ele>
        <time>2017-04-16T13:00:12.000Z</time>
      </trkpt>
      <trkpt lat="43.57938" lon="2.91692">
        <ele>557</ele>
        <time>2017-04-16T13:00:14.000Z</time>
      </trkpt>
      <trkpt lat="43.57938" lon="2.91693">
        <ele>557.2</ele>
        <time>2017-04-16T13:00:15.000Z</time>
      </trkpt>
      <trkpt lat="43.57939" lon="2.91694">
        <ele>557.4</ele>
        <time>2017-04-16T13:00:17.000Z</time>
      </trkpt>
      <trkpt lat="43.57944" lon="2.91702">
        <ele>558</ele>
        <time>2017-04-16T13:00:27.000Z</time>
      </trkpt>
      <trkpt lat="43.57949" lon="2.91709">
        <ele>558.4</ele>
        <time>2017-04-16T13:00:35.000Z</time>
      </trkpt>
      <trkpt lat="43.57951" lon="2.91711">
        <ele>558.8</ele>
        <time>2017-04-16T13:00:37.000Z</time>
      </trkpt>
      <trkpt lat="43.57953" lon="2.91712">
        <ele>559.2</ele>
        <time>2017-04-16T13:00:39.000Z</time>
      </trkpt>
      <trkpt lat="43.57954" lon="2.91713">
        <ele>559.4</ele>
        <time>2017-04-16T13:00:41.000Z</time>
      </trkpt>
      <trkpt lat="43.57955" lon="2.91715">
        <ele>559.6</ele>
        <time>2017-04-16T13:00:43.000Z</time>
      </trkpt>
      <trkpt lat="43.57956" lon="2.91719">
        <ele>560.2</ele>
        <time>2017-04-16T13:00:47.000Z</time>
      </trkpt>
      <trkpt lat="43.57958" lon="2.91722">
        <ele>560.6</ele>
        <time>2017-04-16T13:00:50.000Z</time>
      </trkpt>
      <trkpt lat="43.57959" lon="2.91724">
        <ele>561</ele>
        <time>2017-04-16T13:00:51.000Z</time>
      </trkpt>
      <trkpt lat="43.5796" lon="2.91726">
        <ele>561.4</ele>
        <time>2017-04-16T13:00:53.000Z</time>
      </trkpt>
      <trkpt lat="43.57962" lon="2.91728">
        <ele>561.6</ele>
        <time>2017-04-16T13:00:55.000Z</time>
      </trkpt>
      <trkpt lat="43.57967" lon="2.91732">
        <ele>562.4</ele>
        <time>2017-04-16T13:01:02.000Z</time>
      </trkpt>
      <trkpt lat="43.57968" lon="2.91734">
        <ele>563</ele>
        <time>2017-04-16T13:01:04.000Z</time>
      </trkpt>
      <trkpt lat="43.57969" lon="2.91735">
        <ele>563.4</ele>
        <time>2017-04-16T13:01:06.000Z</time>
      </trkpt>
      <trkpt lat="43.5797" lon="2.91737">
        <ele>563.8</ele>
        <time>2017-04-16T13:01:08.000Z</time>
      </trkpt>
      <trkpt lat="43.57971" lon="2.91739">
        <ele>564</ele>
        <time>2017-04-16T13:01:10.000Z</time>
      </trkpt>
      <trkpt lat="43.57973" lon="2.91743">
        <ele>564.8</ele>
        <time>2017-04-16T13:01:14.000Z</time>
      </trkpt>
      <trkpt lat="43.57973" lon="2.91746">
        <ele>565.2</ele>
        <time>2017-04-16T13:01:16.000Z</time>
      </trkpt>
      <trkpt lat="43.57974" lon="2.91748">
        <ele>565.6</ele>
        <time>2017-04-16T13:01:18.000Z</time>
      </trkpt>
      <trkpt lat="43.57975" lon="2.9175">
        <ele>566</ele>
        <time>2017-04-16T13:01:20.000Z</time>
      </trkpt>
      <trkpt lat="43.57975" lon="2.91751">
        <ele>566.2</ele>
        <time>2017-04-16T13:01:22.000Z</time>
      </trkpt>
      <trkpt lat="43.57976" lon="2.91754">
        <ele>566.8</ele>
        <time>2017-04-16T13:01:25.000Z</time>
      </trkpt>
      <trkpt lat="43.57977" lon="2.91757">
        <ele>567.2</ele>
        <time>2017-04-16T13:01:27.000Z</time>
      </trkpt>
      <trkpt lat="43.57978" lon="2.91759">
        <ele>567.6</ele>
        <time>2017-04-16T13:01:29.000Z</time>
      </trkpt>
      <trkpt lat="43.57979" lon="2.91761">
        <ele>568</ele>
        <time>2017-04-16T13:01:31.000Z</time>
      </trkpt>
      <trkpt lat="43.5798" lon="2.91762">
        <ele>568.2</ele>
        <time>2017-04-16T13:01:33.000Z</time>
      </trkpt>
      <trkpt lat="43.57983" lon="2.91765">
        <ele>569</ele>
        <time>2017-04-16T13:01:38.000Z</time>
      </trkpt>
      <trkpt lat="43.57984" lon="2.91766">
        <ele>569.4</ele>
        <time>2017-04-16T13:01:40.000Z</time>
      </trkpt>
      <trkpt lat="43.57984" lon="2.91767">
        <ele>569.8</ele>
        <time>2017-04-16T13:01:42.000Z</time>
      </trkpt>
      <trkpt lat="43.57985" lon="2.91768">
        <ele>570.2</ele>
        <time>2017-04-16T13:01:44.000Z</time>
      </trkpt>
      <trkpt lat="43.57986" lon="2.9177">
        <ele>570.4</ele>
        <time>2017-04-16T13:01:46.000Z</time>
      </trkpt>
      <trkpt lat="43.57991" lon="2.91783">
        <ele>571.2</ele>
        <time>2017-04-16T13:01:57.000Z</time>
      </trkpt>
      <trkpt lat="43.57992" lon="2.91785">
        <ele>571.4</ele>
        <time>2017-04-16T13:01:59.000Z</time>
      </trkpt>
      <trkpt lat="43.57994" lon="2.91787">
        <ele>571.8</ele>
        <time>2017-04-16T13:02:01.000Z</time>
      </trkpt>
      <trkpt lat="43.57994" lon="2.91787">
        <ele>572</ele>
        <time>2017-04-16T13:02:02.000Z</time>
      </trkpt>
      <trkpt lat="43.57996" lon="2.91789">
        <ele>572.4</ele>
        <time>2017-04-16T13:02:05.000Z</time>
      </trkpt>
      <trkpt lat="43.57997" lon="2.9179">
        <ele>572.6</ele>
        <time>2017-04-16T13:02:07.000Z</time>
      </trkpt>
      <trkpt lat="43.58" lon="2.91794">
        <ele>573.2</ele>
        <time>2017-04-16T13:02:14.000Z</time>
      </trkpt>
      <trkpt lat="43.58001" lon="2.91795">
        <ele>573.2</ele>
        <time>2017-04-16T13:02:16.000Z</time>
      </trkpt>
      <trkpt lat="43.58002" lon="2.91793">
        <ele>575.4</ele>
        <time>2017-04-16T13:03:14.000Z</time>
      </trkpt>
      <trkpt lat="43.58002" lon="2.91792">
        <ele>575.8</ele>
        <time>2017-04-16T13:03:15.000Z</time>
      </trkpt>
      <trkpt lat="43.58003" lon="2.91789">
        <ele>576.8</ele>
        <time>2017-04-16T13:03:17.000Z</time>
      </trkpt>
      <trkpt lat="43.58004" lon="2.91785">
        <ele>577.4</ele>
        <time>2017-04-16T13:03:19.000Z</time>
      </trkpt>
      <trkpt lat="43.58004" lon="2.91781">
        <ele>578</ele>
        <time>2017-04-16T13:03:21.000Z</time>
      </trkpt>
      <trkpt lat="43.58005" lon="2.91776">
        <ele>578.6</ele>
        <time>2017-04-16T13:03:23.000Z</time>
      </trkpt>
      <trkpt lat="43.58003" lon="2.91763">
        <ele>579.6</ele>
        <time>2017-04-16T13:03:30.000Z</time>
      </trkpt>
      <trkpt lat="43.58001" lon="2.9175">
        <ele>580.2</ele>
        <time>2017-04-16T13:03:43.000Z</time>
      </trkpt>
      <trkpt lat="43.58001" lon="2.91742">
        <ele>580.6</ele>
        <time>2017-04-16T13:03:53.000Z</time>
      </trkpt>
      <trkpt lat="43.58001" lon="2.9174">
        <ele>581</ele>
        <time>2017-04-16T13:03:55.000Z</time>
      </trkpt>
      <trkpt lat="43.58001" lon="2.91738">
        <ele>581.2</ele>
        <time>2017-04-16T13:03:57.000Z</time>
      </trkpt>
      <trkpt lat="43.58002" lon="2.91735">
        <ele>581.6</ele>
        <time>2017-04-16T13:03:59.000Z</time>
      </trkpt>
      <trkpt lat="43.58003" lon="2.91732">
        <ele>581.8</ele>
        <time>2017-04-16T13:04:01.000Z</time>
      </trkpt>
      <trkpt lat="43.58004" lon="2.91729">
        <ele>582</ele>
        <time>2017-04-16T13:04:03.000Z</time>
      </trkpt>
      <trkpt lat="43.58004" lon="2.91726">
        <ele>582.6</ele>
        <time>2017-04-16T13:04:05.000Z</time>
      </trkpt>
      <trkpt lat="43.58004" lon="2.91723">
        <ele>583</ele>
        <time>2017-04-16T13:04:07.000Z</time>
      </trkpt>
      <trkpt lat="43.58003" lon="2.91718">
        <ele>583.6</ele>
        <time>2017-04-16T13:04:10.000Z</time>
      </trkpt>
      <trkpt lat="43.58003" lon="2.91715">
        <ele>584.2</ele>
        <time>2017-04-16T13:04:12.000Z</time>
      </trkpt>
      <trkpt lat="43.58003" lon="2.91713">
        <ele>584.8</ele>
        <time>2017-04-16T13:04:14.000Z</time>
      </trkpt>
      <trkpt lat="43.58003" lon="2.91711">
        <ele>585</ele>
        <time>2017-04-16T13:04:16.000Z</time>
      </trkpt>
      <trkpt lat="43.58003" lon="2.91708">
        <ele>585.4</ele>
        <time>2017-04-16T13:04:18.000Z</time>
      </trkpt>
      <trkpt lat="43.58004" lon="2.91706">
        <ele>585.8</ele>
        <time>2017-04-16T13:04:20.000Z</time>
      </trkpt>
      <trkpt lat="43.58005" lon="2.91704">
        <ele>586.4</ele>
        <time>2017-04-16T13:04:22.000Z</time>
      </trkpt>
      <trkpt lat="43.58006" lon="2.91702">
        <ele>586.8</ele>
        <time>2017-04-16T13:04:24.000Z</time>
      </trkpt>
      <trkpt lat="43.58006" lon="2.91699">
        <ele>587.2</ele>
        <time>2017-04-16T13:04:26.000Z</time>
      </trkpt>
      <trkpt lat="43.58005" lon="2.91697">
        <ele>587.6</ele>
        <time>2017-04-16T13:04:28.000Z</time>
      </trkpt>
      <trkpt lat="43.58002" lon="2.91685">
        <ele>588.4</ele>
        <time>2017-04-16T13:04:38.000Z</time>
      </trkpt>
      <trkpt lat="43.58001" lon="2.91678">
        <ele>588.8</ele>
        <time>2017-04-16T13:04:43.000Z</time>
      </trkpt>
      <trkpt lat="43.57999" lon="2.91676">
        <ele>589.2</ele>
        <time>2017-04-16T13:04:45.000Z</time>
      </trkpt>
      <trkpt lat="43.57998" lon="2.91674">
        <ele>589.4</ele>
        <time>2017-04-16T13:04:47.000Z</time>
      </trkpt>
      <trkpt lat="43.57996" lon="2.91673">
        <ele>589.8</ele>
        <time>2017-04-16T13:04:50.000Z</time>
      </trkpt>
      <trkpt lat="43.57994" lon="2.91671">
        <ele>590.2</ele>
        <time>2017-04-16T13:04:51.000Z</time>
      </trkpt>
      <trkpt lat="43.57993" lon="2.91669">
        <ele>590.8</ele>
        <time>2017-04-16T13:04:53.000Z</time>
      </trkpt>
      <trkpt lat="43.57992" lon="2.91668">
        <ele>591.2</ele>
        <time>2017-04-16T13:04:55.000Z</time>
      </trkpt>
      <trkpt lat="43.57991" lon="2.91666">
        <ele>591.6</ele>
        <time>2017-04-16T13:04:57.000Z</time>
      </trkpt>
      <trkpt lat="43.57991" lon="2.91664">
        <ele>591.8</ele>
        <time>2017-04-16T13:04:59.000Z</time>
      </trkpt>
      <trkpt lat="43.57991" lon="2.91663">
        <ele>592.2</ele>
        <time>2017-04-16T13:05:00.000Z</time>
      </trkpt>
      <trkpt lat="43.57993" lon="2.91662">
        <ele>593.6</ele>
        <time>2017-04-16T13:05:07.000Z</time>
      </trkpt>
      <trkpt lat="43.57994" lon="2.9166">
        <ele>593.8</ele>
        <time>2017-04-16T13:05:10.000Z</time>
      </trkpt>
      <trkpt lat="43.57996" lon="2.91658">
        <ele>594.2</ele>
        <time>2017-04-16T13:05:11.000Z</time>
      </trkpt>
      <trkpt lat="43.57997" lon="2.91656">
        <ele>594.2</ele>
        <time>2017-04-16T13:05:13.000Z</time>
      </trkpt>
      <trkpt lat="43.57998" lon="2.91655">
        <ele>594.6</ele>
        <time>2017-04-16T13:05:14.000Z</time>
      </trkpt>
      <trkpt lat="43.58" lon="2.91653">
        <ele>595</ele>
        <time>2017-04-16T13:05:16.000Z</time>
      </trkpt>
      <trkpt lat="43.58001" lon="2.9165">
        <ele>595.4</ele>
        <time>2017-04-16T13:05:18.000Z</time>
      </trkpt>
      <trkpt lat="43.58002" lon="2.91647">
        <ele>595.8</ele>
        <time>2017-04-16T13:05:20.000Z</time>
      </trkpt>
      <trkpt lat="43.58002" lon="2.91644">
        <ele>596</ele>
        <time>2017-04-16T13:05:22.000Z</time>
      </trkpt>
      <trkpt lat="43.58003" lon="2.91636">
        <ele>596.8</ele>
        <time>2017-04-16T13:05:30.000Z</time>
      </trkpt>
      <trkpt lat="43.58003" lon="2.91634">
        <ele>597.2</ele>
        <time>2017-04-16T13:05:32.000Z</time>
      </trkpt>
      <trkpt lat="43.58002" lon="2.91632">
        <ele>597.6</ele>
        <time>2017-04-16T13:05:34.000Z</time>
      </trkpt>
      <trkpt lat="43.58002" lon="2.91631">
        <ele>597.8</ele>
        <time>2017-04-16T13:05:36.000Z</time>
      </trkpt>
      <trkpt lat="43.58002" lon="2.91628">
        <ele>598.2</ele>
        <time>2017-04-16T13:05:38.000Z</time>
      </trkpt>
      <trkpt lat="43.58002" lon="2.91622">
        <ele>598.6</ele>
        <time>2017-04-16T13:05:42.000Z</time>
      </trkpt>
      <trkpt lat="43.58001" lon="2.91619">
        <ele>599.2</ele>
        <time>2017-04-16T13:05:44.000Z</time>
      </trkpt>
      <trkpt lat="43.58" lon="2.91616">
        <ele>599.6</ele>
        <time>2017-04-16T13:05:46.000Z</time>
      </trkpt>
      <trkpt lat="43.58" lon="2.91615">
        <ele>599.8</ele>
        <time>2017-04-16T13:05:48.000Z</time>
      </trkpt>
      <trkpt lat="43.58001" lon="2.91614">
        <ele>600.4</ele>
        <time>2017-04-16T13:05:52.000Z</time>
      </trkpt>
      <trkpt lat="43.58002" lon="2.91614">
        <ele>600.4</ele>
        <time>2017-04-16T13:05:54.000Z</time>
      </trkpt>
      <trkpt lat="43.58" lon="2.91611">
        <ele>600.8</ele>
        <time>2017-04-16T13:05:59.000Z</time>
      </trkpt>
      <trkpt lat="43.57999" lon="2.91608">
        <ele>601.6</ele>
        <time>2017-04-16T13:06:03.000Z</time>
      </trkpt>
      <trkpt lat="43.57998" lon="2.91608">
        <ele>601.8</ele>
        <time>2017-04-16T13:06:04.000Z</time>
      </trkpt>
      <trkpt lat="43.57998" lon="2.91607">
        <ele>602</ele>
        <time>2017-04-16T13:06:05.000Z</time>
      </trkpt>
      <trkpt lat="43.57998" lon="2.91606">
        <ele>602.2</ele>
        <time>2017-04-16T13:06:07.000Z</time>
      </trkpt>
      <trkpt lat="43.57997" lon="2.91605">
        <ele>602.4</ele>
        <time>2017-04-16T13:06:08.000Z</time>
      </trkpt>
      <trkpt lat="43.57997" lon="2.91603">
        <ele>602.6</ele>
        <time>2017-04-16T13:06:10.000Z</time>
      </trkpt>
      <trkpt lat="43.57996" lon="2.91602">
        <ele>602.6</ele>
        <time>2017-04-16T13:06:11.000Z</time>
      </trkpt>
      <trkpt lat="43.57993" lon="2.91597">
        <ele>602.8</ele>
        <time>2017-04-16T13:06:14.000Z</time>
      </trkpt>
      <trkpt lat="43.57988" lon="2.91585">
        <ele>603</ele>
        <time>2017-04-16T13:06:19.000Z</time>
      </trkpt>
      <trkpt lat="43.57987" lon="2.91581">
        <ele>603</ele>
        <time>2017-04-16T13:06:21.000Z</time>
      </trkpt>
      <trkpt lat="43.57985" lon="2.91571">
        <ele>603.2</ele>
        <time>2017-04-16T13:06:28.000Z</time>
      </trkpt>
      <trkpt lat="43.57983" lon="2.9157">
        <ele>603.4</ele>
        <time>2017-04-16T13:06:31.000Z</time>
      </trkpt>
      <trkpt lat="43.57981" lon="2.91568">
        <ele>603.8</ele>
        <time>2017-04-16T13:06:32.000Z</time>
      </trkpt>
      <trkpt lat="43.5798" lon="2.91564">
        <ele>604.2</ele>
        <time>2017-04-16T13:06:34.000Z</time>
      </trkpt>
      <trkpt lat="43.57979" lon="2.91563">
        <ele>604.2</ele>
        <time>2017-04-16T13:06:35.000Z</time>
      </trkpt>
      <trkpt lat="43.57977" lon="2.91561">
        <ele>604.4</ele>
        <time>2017-04-16T13:06:36.000Z</time>
      </trkpt>
      <trkpt lat="43.57975" lon="2.91558">
        <ele>604.6</ele>
        <time>2017-04-16T13:06:38.000Z</time>
      </trkpt>
      <trkpt lat="43.57971" lon="2.9155">
        <ele>605</ele>
        <time>2017-04-16T13:06:45.000Z</time>
      </trkpt>
      <trkpt lat="43.57969" lon="2.91546">
        <ele>605.4</ele>
        <time>2017-04-16T13:06:50.000Z</time>
      </trkpt>
      <trkpt lat="43.57968" lon="2.91544">
        <ele>605.8</ele>
        <time>2017-04-16T13:06:51.000Z</time>
      </trkpt>
      <trkpt lat="43.57966" lon="2.91543">
        <ele>606.2</ele>
        <time>2017-04-16T13:06:53.000Z</time>
      </trkpt>
      <trkpt lat="43.57965" lon="2.91541">
        <ele>606.4</ele>
        <time>2017-04-16T13:06:55.000Z</time>
      </trkpt>
      <trkpt lat="43.57965" lon="2.9154">
        <ele>606.8</ele>
        <time>2017-04-16T13:06:56.000Z</time>
      </trkpt>
      <trkpt lat="43.57964" lon="2.91538">
        <ele>607.4</ele>
        <time>2017-04-16T13:06:58.000Z</time>
      </trkpt>
      <trkpt lat="43.57965" lon="2.91536">
        <ele>607.8</ele>
        <time>2017-04-16T13:07:00.000Z</time>
      </trkpt>
      <trkpt lat="43.57965" lon="2.91534">
        <ele>608.2</ele>
        <time>2017-04-16T13:07:02.000Z</time>
      </trkpt>
      <trkpt lat="43.57965" lon="2.91532">
        <ele>608.6</ele>
        <time>2017-04-16T13:07:04.000Z</time>
      </trkpt>
      <trkpt lat="43.57964" lon="2.91525">
        <ele>609.4</ele>
        <time>2017-04-16T13:07:10.000Z</time>
      </trkpt>
      <trkpt lat="43.57964" lon="2.91523">
        <ele>610</ele>
        <time>2017-04-16T13:07:12.000Z</time>
      </trkpt>
      <trkpt lat="43.57964" lon="2.91521">
        <ele>610.4</ele>
        <time>2017-04-16T13:07:14.000Z</time>
      </trkpt>
      <trkpt lat="43.57963" lon="2.91519">
        <ele>610.8</ele>
        <time>2017-04-16T13:07:16.000Z</time>
      </trkpt>
      <trkpt lat="43.57963" lon="2.91516">
        <ele>611</ele>
        <time>2017-04-16T13:07:18.000Z</time>
      </trkpt>
      <trkpt lat="43.57964" lon="2.91506">
        <ele>611.8</ele>
        <time>2017-04-16T13:07:26.000Z</time>
      </trkpt>
      <trkpt lat="43.57964" lon="2.91504">
        <ele>612.4</ele>
        <time>2017-04-16T13:07:27.000Z</time>
      </trkpt>
      <trkpt lat="43.57964" lon="2.91503">
        <ele>612.6</ele>
        <time>2017-04-16T13:07:29.000Z</time>
      </trkpt>
      <trkpt lat="43.57964" lon="2.91501">
        <ele>613</ele>
        <time>2017-04-16T13:07:31.000Z</time>
      </trkpt>
      <trkpt lat="43.57963" lon="2.91499">
        <ele>613.2</ele>
        <time>2017-04-16T13:07:34.000Z</time>
      </trkpt>
      <trkpt lat="43.57962" lon="2.91498">
        <ele>613.4</ele>
        <time>2017-04-16T13:07:35.000Z</time>
      </trkpt>
      <trkpt lat="43.57961" lon="2.91496">
        <ele>613.8</ele>
        <time>2017-04-16T13:07:37.000Z</time>
      </trkpt>
      <trkpt lat="43.5796" lon="2.91495">
        <ele>614.2</ele>
        <time>2017-04-16T13:07:39.000Z</time>
      </trkpt>
      <trkpt lat="43.57958" lon="2.91494">
        <ele>614.6</ele>
        <time>2017-04-16T13:07:41.000Z</time>
      </trkpt>
      <trkpt lat="43.57957" lon="2.91493">
        <ele>615</ele>
        <time>2017-04-16T13:07:43.000Z</time>
      </trkpt>
      <trkpt lat="43.57956" lon="2.91492">
        <ele>615.2</ele>
        <time>2017-04-16T13:07:45.000Z</time>
      </trkpt>
      <trkpt lat="43.57953" lon="2.91489">
        <ele>615.8</ele>
        <time>2017-04-16T13:07:50.000Z</time>
      </trkpt>
      <trkpt lat="43.57952" lon="2.91488">
        <ele>616.4</ele>
        <time>2017-04-16T13:07:51.000Z</time>
      </trkpt>
      <trkpt lat="43.57951" lon="2.91487">
        <ele>616.8</ele>
        <time>2017-04-16T13:07:53.000Z</time>
      </trkpt>
      <trkpt lat="43.5795" lon="2.91486">
        <ele>617</ele>
        <time>2017-04-16T13:07:55.000Z</time>
      </trkpt>
      <trkpt lat="43.57949" lon="2.91485">
        <ele>617.4</ele>
        <time>2017-04-16T13:07:57.000Z</time>
      </trkpt>
      <trkpt lat="43.57949" lon="2.91484">
        <ele>617.6</ele>
        <time>2017-04-16T13:08:00.000Z</time>
      </trkpt>
      <trkpt lat="43.57947" lon="2.91485">
        <ele>620</ele>
        <time>2017-04-16T13:08:18.000Z</time>
      </trkpt>
      <trkpt lat="43.57946" lon="2.91485">
        <ele>620</ele>
        <time>2017-04-16T13:08:19.000Z</time>
      </trkpt>
      <trkpt lat="43.57946" lon="2.91484">
        <ele>620</ele>
        <time>2017-04-16T13:08:20.000Z</time>
      </trkpt>
      <trkpt lat="43.57945" lon="2.91483">
        <ele>620.2</ele>
        <time>2017-04-16T13:08:21.000Z</time>
      </trkpt>
      <trkpt lat="43.57943" lon="2.91482">
        <ele>620.2</ele>
        <time>2017-04-16T13:08:24.000Z</time>
      </trkpt>
      <trkpt lat="43.57941" lon="2.91481">
        <ele>620.2</ele>
        <time>2017-04-16T13:08:25.000Z</time>
      </trkpt>
      <trkpt lat="43.57939" lon="2.91479">
        <ele>620.4</ele>
        <time>2017-04-16T13:08:27.000Z</time>
      </trkpt>
      <trkpt lat="43.57933" lon="2.91478">
        <ele>620.6</ele>
        <time>2017-04-16T13:08:37.000Z</time>
      </trkpt>
      <trkpt lat="43.57932" lon="2.91479">
        <ele>621</ele>
        <time>2017-04-16T13:08:39.000Z</time>
      </trkpt>
      <trkpt lat="43.57931" lon="2.91479">
        <ele>621.4</ele>
        <time>2017-04-16T13:08:41.000Z</time>
      </trkpt>
      <trkpt lat="43.57929" lon="2.91478">
        <ele>621.6</ele>
        <time>2017-04-16T13:08:42.000Z</time>
      </trkpt>
      <trkpt lat="43.57928" lon="2.91477">
        <ele>621.8</ele>
        <time>2017-04-16T13:08:44.000Z</time>
      </trkpt>
      <trkpt lat="43.5792" lon="2.91479">
        <ele>622.4</ele>
        <time>2017-04-16T13:08:53.000Z</time>
      </trkpt>
      <trkpt lat="43.57917" lon="2.91478">
        <ele>622.4</ele>
        <time>2017-04-16T13:08:57.000Z</time>
      </trkpt>
      <trkpt lat="43.57915" lon="2.91478">
        <ele>622.4</ele>
        <time>2017-04-16T13:09:00.000Z</time>
      </trkpt>
      <trkpt lat="43.57906" lon="2.91479">
        <ele>622.6</ele>
        <time>2017-04-16T13:09:05.000Z</time>
      </trkpt>
      <trkpt lat="43.57889" lon="2.91483">
        <ele>622.6</ele>
        <time>2017-04-16T13:09:14.000Z</time>
      </trkpt>
      <trkpt lat="43.57874" lon="2.91487">
        <ele>622.6</ele>
        <time>2017-04-16T13:09:21.000Z</time>
      </trkpt>
      <trkpt lat="43.57867" lon="2.91489">
        <ele>622.8</ele>
        <time>2017-04-16T13:09:25.000Z</time>
      </trkpt>
      <trkpt lat="43.57864" lon="2.9149">
        <ele>623.2</ele>
        <time>2017-04-16T13:09:27.000Z</time>
      </trkpt>
      <trkpt lat="43.5786" lon="2.91492">
        <ele>623.4</ele>
        <time>2017-04-16T13:09:30.000Z</time>
      </trkpt>
      <trkpt lat="43.57858" lon="2.91494">
        <ele>623.8</ele>
        <time>2017-04-16T13:09:31.000Z</time>
      </trkpt>
      <trkpt lat="43.57855" lon="2.91496">
        <ele>624</ele>
        <time>2017-04-16T13:09:33.000Z</time>
      </trkpt>
      <trkpt lat="43.57844" lon="2.91503">
        <ele>624.2</ele>
        <time>2017-04-16T13:09:38.000Z</time>
      </trkpt>
      <trkpt lat="43.57828" lon="2.91509">
        <ele>624.4</ele>
        <time>2017-04-16T13:09:43.000Z</time>
      </trkpt>
      <trkpt lat="43.57817" lon="2.91509">
        <ele>624.8</ele>
        <time>2017-04-16T13:09:50.000Z</time>
      </trkpt>
      <trkpt lat="43.57815" lon="2.91508">
        <ele>625.2</ele>
        <time>2017-04-16T13:09:52.000Z</time>
      </trkpt>
      <trkpt lat="43.57812" lon="2.91508">
        <ele>625.4</ele>
        <time>2017-04-16T13:09:54.000Z</time>
      </trkpt>
      <trkpt lat="43.5781" lon="2.91507">
        <ele>625.8</ele>
        <time>2017-04-16T13:09:56.000Z</time>
      </trkpt>
      <trkpt lat="43.57808" lon="2.91506">
        <ele>626.4</ele>
        <time>2017-04-16T13:09:58.000Z</time>
      </trkpt>
      <trkpt lat="43.57806" lon="2.91504">
        <ele>626.8</ele>
        <time>2017-04-16T13:10:00.000Z</time>
      </trkpt>
      <trkpt lat="43.57805" lon="2.91503">
        <ele>627</ele>
        <time>2017-04-16T13:10:01.000Z</time>
      </trkpt>
      <trkpt lat="43.57805" lon="2.91498">
        <ele>627.6</ele>
        <time>2017-04-16T13:10:04.000Z</time>
      </trkpt>
      <trkpt lat="43.57806" lon="2.91491">
        <ele>628.2</ele>
        <time>2017-04-16T13:10:10.000Z</time>
      </trkpt>
      <trkpt lat="43.57807" lon="2.9149">
        <ele>628.8</ele>
        <time>2017-04-16T13:10:11.000Z</time>
      </trkpt>
      <trkpt lat="43.57808" lon="2.91488">
        <ele>629.2</ele>
        <time>2017-04-16T13:10:13.000Z</time>
      </trkpt>
      <trkpt lat="43.57808" lon="2.91488">
        <ele>629.4</ele>
        <time>2017-04-16T13:10:14.000Z</time>
      </trkpt>
      <trkpt lat="43.57809" lon="2.91487">
        <ele>629.8</ele>
        <time>2017-04-16T13:10:17.000Z</time>
      </trkpt>
      <trkpt lat="43.57809" lon="2.91486">
        <ele>630</ele>
        <time>2017-04-16T13:10:18.000Z</time>
      </trkpt>
      <trkpt lat="43.57811" lon="2.91485">
        <ele>630.2</ele>
        <time>2017-04-16T13:10:20.000Z</time>
      </trkpt>
      <trkpt lat="43.57817" lon="2.91477">
        <ele>630.8</ele>
        <time>2017-04-16T13:10:30.000Z</time>
      </trkpt>
      <trkpt lat="43.57819" lon="2.91476">
        <ele>631.2</ele>
        <time>2017-04-16T13:10:31.000Z</time>
      </trkpt>
      <trkpt lat="43.57821" lon="2.91474">
        <ele>631.8</ele>
        <time>2017-04-16T13:10:33.000Z</time>
      </trkpt>
      <trkpt lat="43.57822" lon="2.91473">
        <ele>632.6</ele>
        <time>2017-04-16T13:10:35.000Z</time>
      </trkpt>
      <trkpt lat="43.57825" lon="2.91471">
        <ele>633.4</ele>
        <time>2017-04-16T13:10:38.000Z</time>
      </trkpt>
      <trkpt lat="43.57826" lon="2.9147">
        <ele>633.6</ele>
        <time>2017-04-16T13:10:39.000Z</time>
      </trkpt>
      <trkpt lat="43.57828" lon="2.91469">
        <ele>633.8</ele>
        <time>2017-04-16T13:10:41.000Z</time>
      </trkpt>
      <trkpt lat="43.57828" lon="2.91468">
        <ele>634</ele>
        <time>2017-04-16T13:10:42.000Z</time>
      </trkpt>
      <trkpt lat="43.57831" lon="2.91467">
        <ele>635</ele>
        <time>2017-04-16T13:10:45.000Z</time>
      </trkpt>
      <trkpt lat="43.57833" lon="2.91466">
        <ele>635.6</ele>
        <time>2017-04-16T13:10:47.000Z</time>
      </trkpt>
      <trkpt lat="43.57834" lon="2.91465">
        <ele>636</ele>
        <time>2017-04-16T13:10:49.000Z</time>
      </trkpt>
      <trkpt lat="43.57835" lon="2.91464">
        <ele>636.2</ele>
        <time>2017-04-16T13:10:51.000Z</time>
      </trkpt>
      <trkpt lat="43.57841" lon="2.91461">
        <ele>637</ele>
        <time>2017-04-16T13:10:58.000Z</time>
      </trkpt>
      <trkpt lat="43.57849" lon="2.91456">
        <ele>637.4</ele>
        <time>2017-04-16T13:11:07.000Z</time>
      </trkpt>
      <trkpt lat="43.57853" lon="2.91451">
        <ele>637.8</ele>
        <time>2017-04-16T13:11:14.000Z</time>
      </trkpt>
      <trkpt lat="43.57855" lon="2.9145">
        <ele>638.2</ele>
        <time>2017-04-16T13:11:16.000Z</time>
      </trkpt>
      <trkpt lat="43.57857" lon="2.91449">
        <ele>638.4</ele>
        <time>2017-04-16T13:11:18.000Z</time>
      </trkpt>
      <trkpt lat="43.57859" lon="2.91448">
        <ele>638.6</ele>
        <time>2017-04-16T13:11:20.000Z</time>
      </trkpt>
      <trkpt lat="43.57861" lon="2.91446">
        <ele>638.8</ele>
        <time>2017-04-16T13:11:22.000Z</time>
      </trkpt>
      <trkpt lat="43.57867" lon="2.91441">
        <ele>639.6</ele>
        <time>2017-04-16T13:11:28.000Z</time>
      </trkpt>
      <trkpt lat="43.57868" lon="2.9144">
        <ele>640</ele>
        <time>2017-04-16T13:11:30.000Z</time>
      </trkpt>
      <trkpt lat="43.5787" lon="2.91438">
        <ele>640.4</ele>
        <time>2017-04-16T13:11:32.000Z</time>
      </trkpt>
      <trkpt lat="43.57873" lon="2.91437">
        <ele>640.8</ele>
        <time>2017-04-16T13:11:34.000Z</time>
      </trkpt>
      <trkpt lat="43.57875" lon="2.91435">
        <ele>641</ele>
        <time>2017-04-16T13:11:36.000Z</time>
      </trkpt>
      <trkpt lat="43.57882" lon="2.91431">
        <ele>641.8</ele>
        <time>2017-04-16T13:11:43.000Z</time>
      </trkpt>
      <trkpt lat="43.57883" lon="2.91429">
        <ele>642.2</ele>
        <time>2017-04-16T13:11:45.000Z</time>
      </trkpt>
      <trkpt lat="43.57886" lon="2.91428">
        <ele>642.6</ele>
        <time>2017-04-16T13:11:47.000Z</time>
      </trkpt>
      <trkpt lat="43.57888" lon="2.91427">
        <ele>643</ele>
        <time>2017-04-16T13:11:50.000Z</time>
      </trkpt>
      <trkpt lat="43.5789" lon="2.91425">
        <ele>643.2</ele>
        <time>2017-04-16T13:11:51.000Z</time>
      </trkpt>
      <trkpt lat="43.57895" lon="2.91421">
        <ele>643.6</ele>
        <time>2017-04-16T13:11:56.000Z</time>
      </trkpt>
      <trkpt lat="43.57901" lon="2.91418">
        <ele>644.2</ele>
        <time>2017-04-16T13:12:03.000Z</time>
      </trkpt>
      <trkpt lat="43.57902" lon="2.91417">
        <ele>644.6</ele>
        <time>2017-04-16T13:12:05.000Z</time>
      </trkpt>
      <trkpt lat="43.57903" lon="2.91415">
        <ele>644.8</ele>
        <time>2017-04-16T13:12:07.000Z</time>
      </trkpt>
      <trkpt lat="43.57905" lon="2.91413">
        <ele>645.2</ele>
        <time>2017-04-16T13:12:10.000Z</time>
      </trkpt>
      <trkpt lat="43.57906" lon="2.91412">
        <ele>645.4</ele>
        <time>2017-04-16T13:12:11.000Z</time>
      </trkpt>
      <trkpt lat="43.57908" lon="2.91409">
        <ele>645.8</ele>
        <time>2017-04-16T13:12:14.000Z</time>
      </trkpt>
      <trkpt lat="43.57909" lon="2.91409">
        <ele>646.4</ele>
        <time>2017-04-16T13:12:16.000Z</time>
      </trkpt>
      <trkpt lat="43.5791" lon="2.91407">
        <ele>646.8</ele>
        <time>2017-04-16T13:12:18.000Z</time>
      </trkpt>
      <trkpt lat="43.57911" lon="2.91406">
        <ele>647</ele>
        <time>2017-04-16T13:12:21.000Z</time>
      </trkpt>
      <trkpt lat="43.57912" lon="2.91404">
        <ele>647.4</ele>
        <time>2017-04-16T13:12:23.000Z</time>
      </trkpt>
      <trkpt lat="43.57916" lon="2.91398">
        <ele>648</ele>
        <time>2017-04-16T13:12:30.000Z</time>
      </trkpt>
      <trkpt lat="43.57917" lon="2.91397">
        <ele>648</ele>
        <time>2017-04-16T13:12:33.000Z</time>
      </trkpt>
      <trkpt lat="43.57918" lon="2.91397">
        <ele>648.4</ele>
        <time>2017-04-16T13:12:34.000Z</time>
      </trkpt>
      <trkpt lat="43.5792" lon="2.91396">
        <ele>648.8</ele>
        <time>2017-04-16T13:12:36.000Z</time>
      </trkpt>
      <trkpt lat="43.57921" lon="2.91394">
        <ele>649.2</ele>
        <time>2017-04-16T13:12:38.000Z</time>
      </trkpt>
      <trkpt lat="43.57923" lon="2.91393">
        <ele>649.6</ele>
        <time>2017-04-16T13:12:40.000Z</time>
      </trkpt>
      <trkpt lat="43.57924" lon="2.91392">
        <ele>650.2</ele>
        <time>2017-04-16T13:12:43.000Z</time>
      </trkpt>
      <trkpt lat="43.57925" lon="2.91391">
        <ele>650.8</ele>
        <time>2017-04-16T13:12:45.000Z</time>
      </trkpt>
      <trkpt lat="43.57925" lon="2.9139">
        <ele>651</ele>
        <time>2017-04-16T13:12:46.000Z</time>
      </trkpt>
      <trkpt lat="43.57926" lon="2.91389">
        <ele>652</ele>
        <time>2017-04-16T13:12:48.000Z</time>
      </trkpt>
      <trkpt lat="43.57927" lon="2.91388">
        <ele>652.6</ele>
        <time>2017-04-16T13:12:51.000Z</time>
      </trkpt>
      <trkpt lat="43.57928" lon="2.91387">
        <ele>653</ele>
        <time>2017-04-16T13:12:52.000Z</time>
      </trkpt>
      <trkpt lat="43.57929" lon="2.91387">
        <ele>653.4</ele>
        <time>2017-04-16T13:12:54.000Z</time>
      </trkpt>
      <trkpt lat="43.5793" lon="2.91386">
        <ele>653.8</ele>
        <time>2017-04-16T13:12:56.000Z</time>
      </trkpt>
      <trkpt lat="43.5794" lon="2.91384">
        <ele>654.8</ele>
        <time>2017-04-16T13:13:10.000Z</time>
      </trkpt>
      <trkpt lat="43.57944" lon="2.91383">
        <ele>654.8</ele>
        <time>2017-04-16T13:13:15.000Z</time>
      </trkpt>
      <trkpt lat="43.57944" lon="2.9138">
        <ele>655.8</ele>
        <time>2017-04-16T13:13:21.000Z</time>
      </trkpt>
      <trkpt lat="43.57944" lon="2.9138">
        <ele>655.8</ele>
        <time>2017-04-16T13:13:22.000Z</time>
      </trkpt>
      <trkpt lat="43.57945" lon="2.91379">
        <ele>656.2</ele>
        <time>2017-04-16T13:13:24.000Z</time>
      </trkpt>
      <trkpt lat="43.57946" lon="2.91378">
        <ele>656.4</ele>
        <time>2017-04-16T13:13:27.000Z</time>
      </trkpt>
      <trkpt lat="43.57946" lon="2.91377">
        <ele>656.4</ele>
        <time>2017-04-16T13:13:29.000Z</time>
      </trkpt>
      <trkpt lat="43.57947" lon="2.91377">
        <ele>656.8</ele>
        <time>2017-04-16T13:13:30.000Z</time>
      </trkpt>
      <trkpt lat="43.57948" lon="2.91376">
        <ele>657.2</ele>
        <time>2017-04-16T13:13:32.000Z</time>
      </trkpt>
      <trkpt lat="43.57949" lon="2.91374">
        <ele>657.6</ele>
        <time>2017-04-16T13:13:33.000Z</time>
      </trkpt>
      <trkpt lat="43.5795" lon="2.91373">
        <ele>658</ele>
        <time>2017-04-16T13:13:35.000Z</time>
      </trkpt>
      <trkpt lat="43.57952" lon="2.91371">
        <ele>658.2</ele>
        <time>2017-04-16T13:13:37.000Z</time>
      </trkpt>
      <trkpt lat="43.57954" lon="2.91369">
        <ele>658.6</ele>
        <time>2017-04-16T13:13:42.000Z</time>
      </trkpt>
      <trkpt lat="43.57954" lon="2.91367">
        <ele>659</ele>
        <time>2017-04-16T13:13:44.000Z</time>
      </trkpt>
      <trkpt lat="43.57954" lon="2.91367">
        <ele>659.4</ele>
        <time>2017-04-16T13:13:46.000Z</time>
      </trkpt>
      <trkpt lat="43.57954" lon="2.91366">
        <ele>660</ele>
        <time>2017-04-16T13:13:47.000Z</time>
      </trkpt>
      <trkpt lat="43.57955" lon="2.91366">
        <ele>660.6</ele>
        <time>2017-04-16T13:13:48.000Z</time>
      </trkpt>
      <trkpt lat="43.57956" lon="2.91365">
        <ele>661.2</ele>
        <time>2017-04-16T13:13:51.000Z</time>
      </trkpt>
      <trkpt lat="43.57957" lon="2.91364">
        <ele>661.8</ele>
        <time>2017-04-16T13:13:53.000Z</time>
      </trkpt>
      <trkpt lat="43.57958" lon="2.91364">
        <ele>662.2</ele>
        <time>2017-04-16T13:13:55.000Z</time>
      </trkpt>
      <trkpt lat="43.57959" lon="2.91362">
        <ele>662.6</ele>
        <time>2017-04-16T13:13:57.000Z</time>
      </trkpt>
      <trkpt lat="43.57963" lon="2.9136">
        <ele>663.6</ele>
        <time>2017-04-16T13:14:03.000Z</time>
      </trkpt>
      <trkpt lat="43.57964" lon="2.9136">
        <ele>664.2</ele>
        <time>2017-04-16T13:14:04.000Z</time>
      </trkpt>
      <trkpt lat="43.57964" lon="2.91358">
        <ele>664.6</ele>
        <time>2017-04-16T13:14:06.000Z</time>
      </trkpt>
      <trkpt lat="43.57966" lon="2.91358">
        <ele>665</ele>
        <time>2017-04-16T13:14:09.000Z</time>
      </trkpt>
      <trkpt lat="43.57968" lon="2.91357">
        <ele>665.4</ele>
        <time>2017-04-16T13:14:11.000Z</time>
      </trkpt>
      <trkpt lat="43.57974" lon="2.91358">
        <ele>666</ele>
        <time>2017-04-16T13:14:18.000Z</time>
      </trkpt>
      <trkpt lat="43.57977" lon="2.9136">
        <ele>666.4</ele>
        <time>2017-04-16T13:14:22.000Z</time>
      </trkpt>
      <trkpt lat="43.57978" lon="2.9136">
        <ele>667</ele>
        <time>2017-04-16T13:14:23.000Z</time>
      </trkpt>
      <trkpt lat="43.57979" lon="2.91361">
        <ele>667.4</ele>
        <time>2017-04-16T13:14:26.000Z</time>
      </trkpt>
      <trkpt lat="43.5798" lon="2.91362">
        <ele>667.6</ele>
        <time>2017-04-16T13:14:28.000Z</time>
      </trkpt>
      <trkpt lat="43.57982" lon="2.91363">
        <ele>667.8</ele>
        <time>2017-04-16T13:14:30.000Z</time>
      </trkpt>
      <trkpt lat="43.57989" lon="2.91367">
        <ele>668.6</ele>
        <time>2017-04-16T13:14:39.000Z</time>
      </trkpt>
      <trkpt lat="43.57996" lon="2.91367">
        <ele>669</ele>
        <time>2017-04-16T13:14:46.000Z</time>
      </trkpt>
      <trkpt lat="43.57997" lon="2.91367">
        <ele>669.2</ele>
        <time>2017-04-16T13:14:47.000Z</time>
      </trkpt>
      <trkpt lat="43.58" lon="2.91367">
        <ele>669.8</ele>
        <time>2017-04-16T13:14:50.000Z</time>
      </trkpt>
      <trkpt lat="43.58001" lon="2.91368">
        <ele>670</ele>
        <time>2017-04-16T13:14:51.000Z</time>
      </trkpt>
      <trkpt lat="43.58003" lon="2.91369">
        <ele>670.4</ele>
        <time>2017-04-16T13:14:53.000Z</time>
      </trkpt>
      <trkpt lat="43.58008" lon="2.91371">
        <ele>671</ele>
        <time>2017-04-16T13:14:58.000Z</time>
      </trkpt>
      <trkpt lat="43.58008" lon="2.91371">
        <ele>671.2</ele>
        <time>2017-04-16T13:15:00.000Z</time>
      </trkpt>
      <trkpt lat="43.58009" lon="2.9137">
        <ele>671.4</ele>
        <time>2017-04-16T13:15:01.000Z</time>
      </trkpt>
      <trkpt lat="43.5801" lon="2.9137">
        <ele>671.8</ele>
        <time>2017-04-16T13:15:02.000Z</time>
      </trkpt>
      <trkpt lat="43.58012" lon="2.91369">
        <ele>672.2</ele>
        <time>2017-04-16T13:15:04.000Z</time>
      </trkpt>
      <trkpt lat="43.58013" lon="2.91367">
        <ele>672.4</ele>
        <time>2017-04-16T13:15:07.000Z</time>
      </trkpt>
      <trkpt lat="43.58014" lon="2.91361">
        <ele>673.2</ele>
        <time>2017-04-16T13:15:13.000Z</time>
      </trkpt>
      <trkpt lat="43.58014" lon="2.91359">
        <ele>673.8</ele>
        <time>2017-04-16T13:15:14.000Z</time>
      </trkpt>
      <trkpt lat="43.58013" lon="2.91357">
        <ele>674.2</ele>
        <time>2017-04-16T13:15:17.000Z</time>
      </trkpt>
      <trkpt lat="43.58013" lon="2.91355">
        <ele>674.4</ele>
        <time>2017-04-16T13:15:18.000Z</time>
      </trkpt>
      <trkpt lat="43.58013" lon="2.91353">
        <ele>674.6</ele>
        <time>2017-04-16T13:15:20.000Z</time>
      </trkpt>
      <trkpt lat="43.58012" lon="2.91352">
        <ele>675</ele>
        <time>2017-04-16T13:15:22.000Z</time>
      </trkpt>
      <trkpt lat="43.58011" lon="2.9135">
        <ele>675.6</ele>
        <time>2017-04-16T13:15:23.000Z</time>
      </trkpt>
      <trkpt lat="43.5801" lon="2.91348">
        <ele>676</ele>
        <time>2017-04-16T13:15:25.000Z</time>
      </trkpt>
      <trkpt lat="43.58008" lon="2.91346">
        <ele>676.4</ele>
        <time>2017-04-16T13:15:27.000Z</time>
      </trkpt>
      <trkpt lat="43.58007" lon="2.91344">
        <ele>676.6</ele>
        <time>2017-04-16T13:15:30.000Z</time>
      </trkpt>
      <trkpt lat="43.58006" lon="2.9134">
        <ele>677.2</ele>
        <time>2017-04-16T13:15:34.000Z</time>
      </trkpt>
      <trkpt lat="43.58005" lon="2.91338">
        <ele>677.8</ele>
        <time>2017-04-16T13:15:35.000Z</time>
      </trkpt>
      <trkpt lat="43.58003" lon="2.91336">
        <ele>678.2</ele>
        <time>2017-04-16T13:15:38.000Z</time>
      </trkpt>
      <trkpt lat="43.58002" lon="2.91334">
        <ele>678.4</ele>
        <time>2017-04-16T13:15:39.000Z</time>
      </trkpt>
      <trkpt lat="43.58" lon="2.91332">
        <ele>678.8</ele>
        <time>2017-04-16T13:15:42.000Z</time>
      </trkpt>
      <trkpt lat="43.57993" lon="2.91324">
        <ele>679.4</ele>
        <time>2017-04-16T13:15:50.000Z</time>
      </trkpt>
      <trkpt lat="43.57988" lon="2.91319">
        <ele>679.6</ele>
        <time>2017-04-16T13:15:56.000Z</time>
      </trkpt>
      <trkpt lat="43.57983" lon="2.91311">
        <ele>679.8</ele>
        <time>2017-04-16T13:16:04.000Z</time>
      </trkpt>
      <trkpt lat="43.57981" lon="2.91308">
        <ele>680</ele>
        <time>2017-04-16T13:16:07.000Z</time>
      </trkpt>
      <trkpt lat="43.57981" lon="2.91306">
        <ele>680.4</ele>
        <time>2017-04-16T13:16:10.000Z</time>
      </trkpt>
      <trkpt lat="43.5798" lon="2.91304">
        <ele>680.6</ele>
        <time>2017-04-16T13:16:12.000Z</time>
      </trkpt>
      <trkpt lat="43.5798" lon="2.91302">
        <ele>681</ele>
        <time>2017-04-16T13:16:13.000Z</time>
      </trkpt>
      <trkpt lat="43.57979" lon="2.91299">
        <ele>681.4</ele>
        <time>2017-04-16T13:16:16.000Z</time>
      </trkpt>
      <trkpt lat="43.57979" lon="2.91297">
        <ele>682</ele>
        <time>2017-04-16T13:16:18.000Z</time>
      </trkpt>
      <trkpt lat="43.57978" lon="2.91295">
        <ele>682.4</ele>
        <time>2017-04-16T13:16:21.000Z</time>
      </trkpt>
      <trkpt lat="43.57978" lon="2.91294">
        <ele>682.8</ele>
        <time>2017-04-16T13:16:22.000Z</time>
      </trkpt>
      <trkpt lat="43.57977" lon="2.91292">
        <ele>683.4</ele>
        <time>2017-04-16T13:16:23.000Z</time>
      </trkpt>
      <trkpt lat="43.57977" lon="2.91289">
        <ele>684</ele>
        <time>2017-04-16T13:16:26.000Z</time>
      </trkpt>
      <trkpt lat="43.57976" lon="2.91287">
        <ele>684.4</ele>
        <time>2017-04-16T13:16:28.000Z</time>
      </trkpt>
      <trkpt lat="43.57976" lon="2.91284">
        <ele>684.8</ele>
        <time>2017-04-16T13:16:30.000Z</time>
      </trkpt>
      <trkpt lat="43.57975" lon="2.91278">
        <ele>685.6</ele>
        <time>2017-04-16T13:16:34.000Z</time>
      </trkpt>
      <trkpt lat="43.57976" lon="2.91276">
        <ele>686.2</ele>
        <time>2017-04-16T13:16:36.000Z</time>
      </trkpt>
      <trkpt lat="43.57976" lon="2.91275">
        <ele>686.8</ele>
        <time>2017-04-16T13:16:37.000Z</time>
      </trkpt>
      <trkpt lat="43.57977" lon="2.91273">
        <ele>687.6</ele>
        <time>2017-04-16T13:16:39.000Z</time>
      </trkpt>
      <trkpt lat="43.57978" lon="2.91271">
        <ele>688.4</ele>
        <time>2017-04-16T13:16:40.000Z</time>
      </trkpt>
      <trkpt lat="43.57979" lon="2.91269">
        <ele>689</ele>
        <time>2017-04-16T13:16:43.000Z</time>
      </trkpt>
      <trkpt lat="43.57981" lon="2.91268">
        <ele>689.4</ele>
        <time>2017-04-16T13:16:44.000Z</time>
      </trkpt>
      <trkpt lat="43.57988" lon="2.91264">
        <ele>690.8</ele>
        <time>2017-04-16T13:16:56.000Z</time>
      </trkpt>
      <trkpt lat="43.57992" lon="2.9126">
        <ele>691.2</ele>
        <time>2017-04-16T13:16:59.000Z</time>
      </trkpt>
      <trkpt lat="43.57994" lon="2.91259">
        <ele>691.6</ele>
        <time>2017-04-16T13:17:01.000Z</time>
      </trkpt>
      <trkpt lat="43.57996" lon="2.91258">
        <ele>692</ele>
        <time>2017-04-16T13:17:03.000Z</time>
      </trkpt>
      <trkpt lat="43.57998" lon="2.91257">
        <ele>692.4</ele>
        <time>2017-04-16T13:17:06.000Z</time>
      </trkpt>
      <trkpt lat="43.57999" lon="2.91256">
        <ele>692.6</ele>
        <time>2017-04-16T13:17:07.000Z</time>
      </trkpt>
      <trkpt lat="43.58" lon="2.91255">
        <ele>693.2</ele>
        <time>2017-04-16T13:17:09.000Z</time>
      </trkpt>
      <trkpt lat="43.58001" lon="2.91254">
        <ele>693.8</ele>
        <time>2017-04-16T13:17:10.000Z</time>
      </trkpt>
      <trkpt lat="43.58003" lon="2.91254">
        <ele>694.4</ele>
        <time>2017-04-16T13:17:12.000Z</time>
      </trkpt>
      <trkpt lat="43.58004" lon="2.91253">
        <ele>694.8</ele>
        <time>2017-04-16T13:17:15.000Z</time>
      </trkpt>
      <trkpt lat="43.58006" lon="2.91253">
        <ele>695.2</ele>
        <time>2017-04-16T13:17:17.000Z</time>
      </trkpt>
      <trkpt lat="43.58011" lon="2.91253">
        <ele>696.2</ele>
        <time>2017-04-16T13:17:23.000Z</time>
      </trkpt>
      <trkpt lat="43.58013" lon="2.91254">
        <ele>696.8</ele>
        <time>2017-04-16T13:17:26.000Z</time>
      </trkpt>
      <trkpt lat="43.58014" lon="2.91255">
        <ele>697.2</ele>
        <time>2017-04-16T13:17:28.000Z</time>
      </trkpt>
      <trkpt lat="43.58015" lon="2.91255">
        <ele>697.6</ele>
        <time>2017-04-16T13:17:30.000Z</time>
      </trkpt>
      <trkpt lat="43.58016" lon="2.91255">
        <ele>697.8</ele>
        <time>2017-04-16T13:17:31.000Z</time>
      </trkpt>
      <trkpt lat="43.58017" lon="2.91255">
        <ele>698</ele>
        <time>2017-04-16T13:17:34.000Z</time>
      </trkpt>
      <trkpt lat="43.58023" lon="2.91252">
        <ele>698.6</ele>
        <time>2017-04-16T13:17:41.000Z</time>
      </trkpt>
      <trkpt lat="43.58027" lon="2.9125">
        <ele>699</ele>
        <time>2017-04-16T13:17:47.000Z</time>
      </trkpt>
      <trkpt lat="43.58028" lon="2.91249">
        <ele>699.4</ele>
        <time>2017-04-16T13:17:50.000Z</time>
      </trkpt>
      <trkpt lat="43.58029" lon="2.91248">
        <ele>699.6</ele>
        <time>2017-04-16T13:17:51.000Z</time>
      </trkpt>
      <trkpt lat="43.5803" lon="2.91248">
        <ele>700</ele>
        <time>2017-04-16T13:17:53.000Z</time>
      </trkpt>
      <trkpt lat="43.58032" lon="2.91248">
        <ele>700.2</ele>
        <time>2017-04-16T13:17:56.000Z</time>
      </trkpt>
      <trkpt lat="43.58033" lon="2.91247">
        <ele>700.6</ele>
        <time>2017-04-16T13:17:58.000Z</time>
      </trkpt>
      <trkpt lat="43.58035" lon="2.91247">
        <ele>701</ele>
        <time>2017-04-16T13:18:00.000Z</time>
      </trkpt>
      <trkpt lat="43.58036" lon="2.91247">
        <ele>701.4</ele>
        <time>2017-04-16T13:18:02.000Z</time>
      </trkpt>
      <trkpt lat="43.58037" lon="2.91246">
        <ele>701.6</ele>
        <time>2017-04-16T13:18:04.000Z</time>
      </trkpt>
      <trkpt lat="43.58038" lon="2.91246">
        <ele>702</ele>
        <time>2017-04-16T13:18:05.000Z</time>
      </trkpt>
      <trkpt lat="43.58039" lon="2.91246">
        <ele>702.6</ele>
        <time>2017-04-16T13:18:07.000Z</time>
      </trkpt>
      <trkpt lat="43.58041" lon="2.91246">
        <ele>703.2</ele>
        <time>2017-04-16T13:18:09.000Z</time>
      </trkpt>
      <trkpt lat="43.58042" lon="2.91246">
        <ele>703.6</ele>
        <time>2017-04-16T13:18:11.000Z</time>
      </trkpt>
      <trkpt lat="43.58044" lon="2.91247">
        <ele>703.8</ele>
        <time>2017-04-16T13:18:13.000Z</time>
      </trkpt>
      <trkpt lat="43.58054" lon="2.91247">
        <ele>704.8</ele>
        <time>2017-04-16T13:18:24.000Z</time>
      </trkpt>
      <trkpt lat="43.58056" lon="2.91247">
        <ele>705.2</ele>
        <time>2017-04-16T13:18:26.000Z</time>
      </trkpt>
      <trkpt lat="43.58058" lon="2.91248">
        <ele>705.6</ele>
        <time>2017-04-16T13:18:28.000Z</time>
      </trkpt>
      <trkpt lat="43.5806" lon="2.91249">
        <ele>706</ele>
        <time>2017-04-16T13:18:30.000Z</time>
      </trkpt>
      <trkpt lat="43.58061" lon="2.9125">
        <ele>706.4</ele>
        <time>2017-04-16T13:18:32.000Z</time>
      </trkpt>
      <trkpt lat="43.58062" lon="2.9125">
        <ele>707</ele>
        <time>2017-04-16T13:18:34.000Z</time>
      </trkpt>
      <trkpt lat="43.58064" lon="2.9125">
        <ele>707.4</ele>
        <time>2017-04-16T13:18:36.000Z</time>
      </trkpt>
      <trkpt lat="43.58065" lon="2.9125">
        <ele>707.8</ele>
        <time>2017-04-16T13:18:38.000Z</time>
      </trkpt>
      <trkpt lat="43.58067" lon="2.9125">
        <ele>708.2</ele>
        <time>2017-04-16T13:18:40.000Z</time>
      </trkpt>
      <trkpt lat="43.58074" lon="2.91249">
        <ele>708.8</ele>
        <time>2017-04-16T13:18:48.000Z</time>
      </trkpt>
      <trkpt lat="43.58075" lon="2.91249">
        <ele>709.2</ele>
        <time>2017-04-16T13:18:49.000Z</time>
      </trkpt>
      <trkpt lat="43.58077" lon="2.91249">
        <ele>709.6</ele>
        <time>2017-04-16T13:18:51.000Z</time>
      </trkpt>
      <trkpt lat="43.58078" lon="2.91249">
        <ele>710</ele>
        <time>2017-04-16T13:18:53.000Z</time>
      </trkpt>
      <trkpt lat="43.5808" lon="2.91249">
        <ele>710.2</ele>
        <time>2017-04-16T13:18:55.000Z</time>
      </trkpt>
      <trkpt lat="43.58082" lon="2.91249">
        <ele>710.4</ele>
        <time>2017-04-16T13:18:57.000Z</time>
      </trkpt>
      <trkpt lat="43.58089" lon="2.91248">
        <ele>711.2</ele>
        <time>2017-04-16T13:19:07.000Z</time>
      </trkpt>
      <trkpt lat="43.58098" lon="2.91247">
        <ele>711.4</ele>
        <time>2017-04-16T13:19:18.000Z</time>
      </trkpt>
      <trkpt lat="43.58101" lon="2.91246">
        <ele>711.6</ele>
        <time>2017-04-16T13:19:22.000Z</time>
      </trkpt>
      <trkpt lat="43.58102" lon="2.91245">
        <ele>712</ele>
        <time>2017-04-16T13:19:24.000Z</time>
      </trkpt>
      <trkpt lat="43.58104" lon="2.91245">
        <ele>712.4</ele>
        <time>2017-04-16T13:19:26.000Z</time>
      </trkpt>
      <trkpt lat="43.58105" lon="2.91245">
        <ele>712.6</ele>
        <time>2017-04-16T13:19:28.000Z</time>
      </trkpt>
      <trkpt lat="43.58107" lon="2.91245">
        <ele>713</ele>
        <time>2017-04-16T13:19:30.000Z</time>
      </trkpt>
      <trkpt lat="43.58108" lon="2.91244">
        <ele>713.6</ele>
        <time>2017-04-16T13:19:32.000Z</time>
      </trkpt>
      <trkpt lat="43.5811" lon="2.91243">
        <ele>714.2</ele>
        <time>2017-04-16T13:19:34.000Z</time>
      </trkpt>
      <trkpt lat="43.58112" lon="2.91243">
        <ele>714.4</ele>
        <time>2017-04-16T13:19:36.000Z</time>
      </trkpt>
      <trkpt lat="43.58114" lon="2.91243">
        <ele>714.8</ele>
        <time>2017-04-16T13:19:38.000Z</time>
      </trkpt>
      <trkpt lat="43.58124" lon="2.91246">
        <ele>715.8</ele>
        <time>2017-04-16T13:19:51.000Z</time>
      </trkpt>
      <trkpt lat="43.58125" lon="2.91246">
        <ele>716</ele>
        <time>2017-04-16T13:19:52.000Z</time>
      </trkpt>
      <trkpt lat="43.58127" lon="2.91247">
        <ele>716.4</ele>
        <time>2017-04-16T13:19:54.000Z</time>
      </trkpt>
      <trkpt lat="43.58129" lon="2.91247">
        <ele>716.6</ele>
        <time>2017-04-16T13:19:55.000Z</time>
      </trkpt>
      <trkpt lat="43.5813" lon="2.91247">
        <ele>717</ele>
        <time>2017-04-16T13:19:56.000Z</time>
      </trkpt>
      <trkpt lat="43.58131" lon="2.91248">
        <ele>717.6</ele>
        <time>2017-04-16T13:19:58.000Z</time>
      </trkpt>
      <trkpt lat="43.58133" lon="2.91249">
        <ele>718.2</ele>
        <time>2017-04-16T13:20:01.000Z</time>
      </trkpt>
      <trkpt lat="43.58135" lon="2.9125">
        <ele>718.8</ele>
        <time>2017-04-16T13:20:03.000Z</time>
      </trkpt>
      <trkpt lat="43.58136" lon="2.91251">
        <ele>719.6</ele>
        <time>2017-04-16T13:20:05.000Z</time>
      </trkpt>
      <trkpt lat="43.58139" lon="2.91251">
        <ele>720.6</ele>
        <time>2017-04-16T13:20:07.000Z</time>
      </trkpt>
      <trkpt lat="43.5814" lon="2.91252">
        <ele>721.4</ele>
        <time>2017-04-16T13:20:10.000Z</time>
      </trkpt>
      <trkpt lat="43.58142" lon="2.91252">
        <ele>722</ele>
        <time>2017-04-16T13:20:12.000Z</time>
      </trkpt>
      <trkpt lat="43.58143" lon="2.91253">
        <ele>722.4</ele>
        <time>2017-04-16T13:20:13.000Z</time>
      </trkpt>
      <trkpt lat="43.58145" lon="2.91253">
        <ele>722.8</ele>
        <time>2017-04-16T13:20:15.000Z</time>
      </trkpt>
      <trkpt lat="43.5815" lon="2.91256">
        <ele>723.8</ele>
        <time>2017-04-16T13:20:22.000Z</time>
      </trkpt>
      <trkpt lat="43.58156" lon="2.91261">
        <ele>724.2</ele>
        <time>2017-04-16T13:20:30.000Z</time>
      </trkpt>
      <trkpt lat="43.58161" lon="2.91266">
        <ele>724.6</ele>
        <time>2017-04-16T13:20:36.000Z</time>
      </trkpt>
      <trkpt lat="43.58163" lon="2.91267">
        <ele>725</ele>
        <time>2017-04-16T13:20:39.000Z</time>
      </trkpt>
      <trkpt lat="43.58165" lon="2.91267">
        <ele>725.4</ele>
        <time>2017-04-16T13:20:40.000Z</time>
      </trkpt>
      <trkpt lat="43.58167" lon="2.91267">
        <ele>725.6</ele>
        <time>2017-04-16T13:20:42.000Z</time>
      </trkpt>
      <trkpt lat="43.58168" lon="2.91267">
        <ele>726</ele>
        <time>2017-04-16T13:20:44.000Z</time>
      </trkpt>
      <trkpt lat="43.5817" lon="2.91266">
        <ele>726.4</ele>
        <time>2017-04-16T13:20:45.000Z</time>
      </trkpt>
      <trkpt lat="43.58171" lon="2.91265">
        <ele>726.8</ele>
        <time>2017-04-16T13:20:46.000Z</time>
      </trkpt>
      <trkpt lat="43.58172" lon="2.91265">
        <ele>727</ele>
        <time>2017-04-16T13:20:47.000Z</time>
      </trkpt>
      <trkpt lat="43.58174" lon="2.91264">
        <ele>727.2</ele>
        <time>2017-04-16T13:20:50.000Z</time>
      </trkpt>
      <trkpt lat="43.58176" lon="2.91263">
        <ele>727.6</ele>
        <time>2017-04-16T13:20:51.000Z</time>
      </trkpt>
      <trkpt lat="43.58177" lon="2.91263">
        <ele>727.6</ele>
        <time>2017-04-16T13:20:53.000Z</time>
      </trkpt>
      <trkpt lat="43.58179" lon="2.91262">
        <ele>727.4</ele>
        <time>2017-04-16T13:20:55.000Z</time>
      </trkpt>
      <trkpt lat="43.5818" lon="2.91262">
        <ele>727.6</ele>
        <time>2017-04-16T13:20:58.000Z</time>
      </trkpt>
      <trkpt lat="43.58182" lon="2.91262">
        <ele>728.2</ele>
        <time>2017-04-16T13:20:59.000Z</time>
      </trkpt>
      <trkpt lat="43.58184" lon="2.91261">
        <ele>729</ele>
        <time>2017-04-16T13:21:02.000Z</time>
      </trkpt>
      <trkpt lat="43.58185" lon="2.91259">
        <ele>730.2</ele>
        <time>2017-04-16T13:21:04.000Z</time>
      </trkpt>
      <trkpt lat="43.58187" lon="2.91258">
        <ele>731</ele>
        <time>2017-04-16T13:21:07.000Z</time>
      </trkpt>
      <trkpt lat="43.58189" lon="2.91257">
        <ele>731.8</ele>
        <time>2017-04-16T13:21:08.000Z</time>
      </trkpt>
      <trkpt lat="43.5819" lon="2.91256">
        <ele>732.4</ele>
        <time>2017-04-16T13:21:10.000Z</time>
      </trkpt>
      <trkpt lat="43.58192" lon="2.91256">
        <ele>732.8</ele>
        <time>2017-04-16T13:21:13.000Z</time>
      </trkpt>
      <trkpt lat="43.58199" lon="2.91256">
        <ele>734</ele>
        <time>2017-04-16T13:21:22.000Z</time>
      </trkpt>
      <trkpt lat="43.58201" lon="2.91256">
        <ele>734.4</ele>
        <time>2017-04-16T13:21:24.000Z</time>
      </trkpt>
      <trkpt lat="43.58202" lon="2.91256">
        <ele>734.8</ele>
        <time>2017-04-16T13:21:25.000Z</time>
      </trkpt>
      <trkpt lat="43.58204" lon="2.91256">
        <ele>735.2</ele>
        <time>2017-04-16T13:21:28.000Z</time>
      </trkpt>
      <trkpt lat="43.58206" lon="2.91257">
        <ele>735.4</ele>
        <time>2017-04-16T13:21:30.000Z</time>
      </trkpt>
      <trkpt lat="43.58206" lon="2.91257">
        <ele>735.8</ele>
        <time>2017-04-16T13:21:31.000Z</time>
      </trkpt>
      <trkpt lat="43.58208" lon="2.91257">
        <ele>736.4</ele>
        <time>2017-04-16T13:21:32.000Z</time>
      </trkpt>
      <trkpt lat="43.5821" lon="2.91256">
        <ele>736.8</ele>
        <time>2017-04-16T13:21:35.000Z</time>
      </trkpt>
      <trkpt lat="43.58212" lon="2.91256">
        <ele>737.2</ele>
        <time>2017-04-16T13:21:36.000Z</time>
      </trkpt>
      <trkpt lat="43.58214" lon="2.91256">
        <ele>737.6</ele>
        <time>2017-04-16T13:21:38.000Z</time>
      </trkpt>
      <trkpt lat="43.58215" lon="2.91256">
        <ele>737.8</ele>
        <time>2017-04-16T13:21:39.000Z</time>
      </trkpt>
      <trkpt lat="43.58222" lon="2.91254">
        <ele>738.4</ele>
        <time>2017-04-16T13:21:48.000Z</time>
      </trkpt>
      <trkpt lat="43.5823" lon="2.91249">
        <ele>738.8</ele>
        <time>2017-04-16T13:21:57.000Z</time>
      </trkpt>
      <trkpt lat="43.58234" lon="2.91248">
        <ele>739.2</ele>
        <time>2017-04-16T13:22:03.000Z</time>
      </trkpt>
      <trkpt lat="43.58235" lon="2.91247">
        <ele>739.4</ele>
        <time>2017-04-16T13:22:04.000Z</time>
      </trkpt>
      <trkpt lat="43.58236" lon="2.91247">
        <ele>739.8</ele>
        <time>2017-04-16T13:22:07.000Z</time>
      </trkpt>
      <trkpt lat="43.58238" lon="2.91247">
        <ele>740</ele>
        <time>2017-04-16T13:22:09.000Z</time>
      </trkpt>
      <trkpt lat="43.5824" lon="2.91248">
        <ele>740.2</ele>
        <time>2017-04-16T13:22:11.000Z</time>
      </trkpt>
      <trkpt lat="43.58241" lon="2.91249">
        <ele>740.6</ele>
        <time>2017-04-16T13:22:13.000Z</time>
      </trkpt>
      <trkpt lat="43.58242" lon="2.91251">
        <ele>741.2</ele>
        <time>2017-04-16T13:22:14.000Z</time>
      </trkpt>
      <trkpt lat="43.58243" lon="2.91253">
        <ele>741.6</ele>
        <time>2017-04-16T13:22:17.000Z</time>
      </trkpt>
      <trkpt lat="43.58243" lon="2.91256">
        <ele>742</ele>
        <time>2017-04-16T13:22:19.000Z</time>
      </trkpt>
      <trkpt lat="43.58244" lon="2.91258">
        <ele>742.2</ele>
        <time>2017-04-16T13:22:20.000Z</time>
      </trkpt>
      <trkpt lat="43.58249" lon="2.91269">
        <ele>742.8</ele>
        <time>2017-04-16T13:22:29.000Z</time>
      </trkpt>
      <trkpt lat="43.5825" lon="2.91271">
        <ele>742.8</ele>
        <time>2017-04-16T13:22:30.000Z</time>
      </trkpt>
      <trkpt lat="43.5825" lon="2.91272">
        <ele>743</ele>
        <time>2017-04-16T13:22:31.000Z</time>
      </trkpt>
      <trkpt lat="43.58257" lon="2.9128">
        <ele>743.2</ele>
        <time>2017-04-16T13:22:39.000Z</time>
      </trkpt>
      <trkpt lat="43.5826" lon="2.91282">
        <ele>743.2</ele>
        <time>2017-04-16T13:22:42.000Z</time>
      </trkpt>
      <trkpt lat="43.58262" lon="2.91283">
        <ele>743.4</ele>
        <time>2017-04-16T13:22:44.000Z</time>
      </trkpt>
      <trkpt lat="43.58263" lon="2.91283">
        <ele>743.8</ele>
        <time>2017-04-16T13:22:46.000Z</time>
      </trkpt>
      <trkpt lat="43.58265" lon="2.91284">
        <ele>744</ele>
        <time>2017-04-16T13:22:48.000Z</time>
      </trkpt>
      <trkpt lat="43.58267" lon="2.91285">
        <ele>744.4</ele>
        <time>2017-04-16T13:22:50.000Z</time>
      </trkpt>
      <trkpt lat="43.58269" lon="2.91286">
        <ele>744.6</ele>
        <time>2017-04-16T13:22:52.000Z</time>
      </trkpt>
      <trkpt lat="43.58271" lon="2.91287">
        <ele>745</ele>
        <time>2017-04-16T13:22:54.000Z</time>
      </trkpt>
      <trkpt lat="43.58272" lon="2.91287">
        <ele>745.2</ele>
        <time>2017-04-16T13:22:55.000Z</time>
      </trkpt>
      <trkpt lat="43.58275" lon="2.91289">
        <ele>746</ele>
        <time>2017-04-16T13:22:58.000Z</time>
      </trkpt>
      <trkpt lat="43.58277" lon="2.9129">
        <ele>746.4</ele>
        <time>2017-04-16T13:23:00.000Z</time>
      </trkpt>
      <trkpt lat="43.58279" lon="2.9129">
        <ele>746.6</ele>
        <time>2017-04-16T13:23:02.000Z</time>
      </trkpt>
      <trkpt lat="43.58288" lon="2.91291">
        <ele>747.6</ele>
        <time>2017-04-16T13:23:13.000Z</time>
      </trkpt>
      <trkpt lat="43.5829" lon="2.91292">
        <ele>748</ele>
        <time>2017-04-16T13:23:15.000Z</time>
      </trkpt>
      <trkpt lat="43.5829" lon="2.91294">
        <ele>748.4</ele>
        <time>2017-04-16T13:23:17.000Z</time>
      </trkpt>
      <trkpt lat="43.58291" lon="2.91295">
        <ele>748.6</ele>
        <time>2017-04-16T13:23:19.000Z</time>
      </trkpt>
      <trkpt lat="43.58293" lon="2.91296">
        <ele>749</ele>
        <time>2017-04-16T13:23:21.000Z</time>
      </trkpt>
      <trkpt lat="43.58301" lon="2.91303">
        <ele>749.8</ele>
        <time>2017-04-16T13:23:32.000Z</time>
      </trkpt>
      <trkpt lat="43.58302" lon="2.91303">
        <ele>750.2</ele>
        <time>2017-04-16T13:23:34.000Z</time>
      </trkpt>
      <trkpt lat="43.58303" lon="2.91303">
        <ele>750.8</ele>
        <time>2017-04-16T13:23:36.000Z</time>
      </trkpt>
      <trkpt lat="43.58303" lon="2.91303">
        <ele>751</ele>
        <time>2017-04-16T13:23:37.000Z</time>
      </trkpt>
      <trkpt lat="43.58303" lon="2.91302">
        <ele>751.6</ele>
        <time>2017-04-16T13:23:39.000Z</time>
      </trkpt>
      <trkpt lat="43.58304" lon="2.91301">
        <ele>751.8</ele>
        <time>2017-04-16T13:23:40.000Z</time>
      </trkpt>
      <trkpt lat="43.58304" lon="2.91301">
        <ele>752.2</ele>
        <time>2017-04-16T13:23:41.000Z</time>
      </trkpt>
      <trkpt lat="43.58305" lon="2.91299">
        <ele>752.6</ele>
        <time>2017-04-16T13:23:44.000Z</time>
      </trkpt>
      <trkpt lat="43.58305" lon="2.91299">
        <ele>752.8</ele>
        <time>2017-04-16T13:23:45.000Z</time>
      </trkpt>
      <trkpt lat="43.58306" lon="2.91299">
        <ele>753</ele>
        <time>2017-04-16T13:23:47.000Z</time>
      </trkpt>
      <trkpt lat="43.58307" lon="2.91299">
        <ele>753.2</ele>
        <time>2017-04-16T13:23:49.000Z</time>
      </trkpt>
      <trkpt lat="43.58312" lon="2.91296">
        <ele>753.8</ele>
        <time>2017-04-16T13:23:56.000Z</time>
      </trkpt>
      <trkpt lat="43.58313" lon="2.91295">
        <ele>754.4</ele>
        <time>2017-04-16T13:23:58.000Z</time>
      </trkpt>
      <trkpt lat="43.58315" lon="2.91294">
        <ele>754.8</ele>
        <time>2017-04-16T13:24:00.000Z</time>
      </trkpt>
      <trkpt lat="43.58315" lon="2.91294">
        <ele>755</ele>
        <time>2017-04-16T13:24:01.000Z</time>
      </trkpt>
      <trkpt lat="43.58316" lon="2.91295">
        <ele>755.6</ele>
        <time>2017-04-16T13:24:03.000Z</time>
      </trkpt>
      <trkpt lat="43.58321" lon="2.91296">
        <ele>758</ele>
        <time>2017-04-16T13:24:18.000Z</time>
      </trkpt>
      <trkpt lat="43.58322" lon="2.91295">
        <ele>758.2</ele>
        <time>2017-04-16T13:24:19.000Z</time>
      </trkpt>
      <trkpt lat="43.58322" lon="2.91295">
        <ele>758.4</ele>
        <time>2017-04-16T13:24:20.000Z</time>
      </trkpt>
      <trkpt lat="43.58323" lon="2.91295">
        <ele>758.6</ele>
        <time>2017-04-16T13:24:21.000Z</time>
      </trkpt>
      <trkpt lat="43.58324" lon="2.91294">
        <ele>759</ele>
        <time>2017-04-16T13:24:23.000Z</time>
      </trkpt>
      <trkpt lat="43.58326" lon="2.91293">
        <ele>759.2</ele>
        <time>2017-04-16T13:24:25.000Z</time>
      </trkpt>
      <trkpt lat="43.58326" lon="2.91292">
        <ele>759.6</ele>
        <time>2017-04-16T13:24:26.000Z</time>
      </trkpt>
      <trkpt lat="43.58328" lon="2.91292">
        <ele>760</ele>
        <time>2017-04-16T13:24:28.000Z</time>
      </trkpt>
      <trkpt lat="43.5833" lon="2.91291">
        <ele>760.4</ele>
        <time>2017-04-16T13:24:30.000Z</time>
      </trkpt>
      <trkpt lat="43.58332" lon="2.9129">
        <ele>760.8</ele>
        <time>2017-04-16T13:24:32.000Z</time>
      </trkpt>
      <trkpt lat="43.58334" lon="2.91289">
        <ele>761.2</ele>
        <time>2017-04-16T13:24:34.000Z</time>
      </trkpt>
      <trkpt lat="43.58339" lon="2.91285">
        <ele>761.6</ele>
        <time>2017-04-16T13:24:39.000Z</time>
      </trkpt>
      <trkpt lat="43.58342" lon="2.91283">
        <ele>762</ele>
        <time>2017-04-16T13:24:42.000Z</time>
      </trkpt>
      <trkpt lat="43.58344" lon="2.91281">
        <ele>762.4</ele>
        <time>2017-04-16T13:24:44.000Z</time>
      </trkpt>
      <trkpt lat="43.58346" lon="2.9128">
        <ele>762.8</ele>
        <time>2017-04-16T13:24:46.000Z</time>
      </trkpt>
      <trkpt lat="43.58348" lon="2.9128">
        <ele>763.2</ele>
        <time>2017-04-16T13:24:48.000Z</time>
      </trkpt>
      <trkpt lat="43.5835" lon="2.91279">
        <ele>763.4</ele>
        <time>2017-04-16T13:24:50.000Z</time>
      </trkpt>
      <trkpt lat="43.58359" lon="2.9128">
        <ele>764</ele>
        <time>2017-04-16T13:25:00.000Z</time>
      </trkpt>
      <trkpt lat="43.58364" lon="2.91279">
        <ele>764.4</ele>
        <time>2017-04-16T13:25:05.000Z</time>
      </trkpt>
      <trkpt lat="43.58366" lon="2.91278">
        <ele>764.8</ele>
        <time>2017-04-16T13:25:07.000Z</time>
      </trkpt>
      <trkpt lat="43.58368" lon="2.91278">
        <ele>765.2</ele>
        <time>2017-04-16T13:25:09.000Z</time>
      </trkpt>
      <trkpt lat="43.58369" lon="2.91278">
        <ele>765.4</ele>
        <time>2017-04-16T13:25:11.000Z</time>
      </trkpt>
      <trkpt lat="43.58371" lon="2.91278">
        <ele>765.8</ele>
        <time>2017-04-16T13:25:13.000Z</time>
      </trkpt>
      <trkpt lat="43.58373" lon="2.91278">
        <ele>766.4</ele>
        <time>2017-04-16T13:25:15.000Z</time>
      </trkpt>
      <trkpt lat="43.58375" lon="2.91277">
        <ele>766.8</ele>
        <time>2017-04-16T13:25:17.000Z</time>
      </trkpt>
      <trkpt lat="43.58377" lon="2.91276">
        <ele>767</ele>
        <time>2017-04-16T13:25:19.000Z</time>
      </trkpt>
      <trkpt lat="43.58379" lon="2.91276">
        <ele>767.4</ele>
        <time>2017-04-16T13:25:21.000Z</time>
      </trkpt>
      <trkpt lat="43.58382" lon="2.91276">
        <ele>768</ele>
        <time>2017-04-16T13:25:25.000Z</time>
      </trkpt>
      <trkpt lat="43.58384" lon="2.91276">
        <ele>768.4</ele>
        <time>2017-04-16T13:25:27.000Z</time>
      </trkpt>
      <trkpt lat="43.58386" lon="2.91276">
        <ele>769</ele>
        <time>2017-04-16T13:25:29.000Z</time>
      </trkpt>
      <trkpt lat="43.58388" lon="2.91275">
        <ele>769.2</ele>
        <time>2017-04-16T13:25:31.000Z</time>
      </trkpt>
      <trkpt lat="43.5839" lon="2.91275">
        <ele>769.6</ele>
        <time>2017-04-16T13:25:33.000Z</time>
      </trkpt>
      <trkpt lat="43.58393" lon="2.91274">
        <ele>769.8</ele>
        <time>2017-04-16T13:25:36.000Z</time>
      </trkpt>
      <trkpt lat="43.58398" lon="2.91273">
        <ele>770.2</ele>
        <time>2017-04-16T13:25:40.000Z</time>
      </trkpt>
      <trkpt lat="43.58401" lon="2.91272">
        <ele>770.4</ele>
        <time>2017-04-16T13:25:42.000Z</time>
      </trkpt>
      <trkpt lat="43.58403" lon="2.91271">
        <ele>771</ele>
        <time>2017-04-16T13:25:44.000Z</time>
      </trkpt>
      <trkpt lat="43.58406" lon="2.9127">
        <ele>771.4</ele>
        <time>2017-04-16T13:25:46.000Z</time>
      </trkpt>
      <trkpt lat="43.5841" lon="2.91269">
        <ele>771.6</ele>
        <time>2017-04-16T13:25:48.000Z</time>
      </trkpt>
      <trkpt lat="43.58415" lon="2.91268">
        <ele>771.8</ele>
        <time>2017-04-16T13:25:50.000Z</time>
      </trkpt>
      <trkpt lat="43.58435" lon="2.91259">
        <ele>772.4</ele>
        <time>2017-04-16T13:25:57.000Z</time>
      </trkpt>
      <trkpt lat="43.58445" lon="2.91249">
        <ele>772.6</ele>
        <time>2017-04-16T13:26:02.000Z</time>
      </trkpt>
      <trkpt lat="43.58451" lon="2.9124">
        <ele>772.8</ele>
        <time>2017-04-16T13:26:07.000Z</time>
      </trkpt>
      <trkpt lat="43.58456" lon="2.9123">
        <ele>772.8</ele>
        <time>2017-04-16T13:26:13.000Z</time>
      </trkpt>
      <trkpt lat="43.58459" lon="2.91229">
        <ele>772.8</ele>
        <time>2017-04-16T13:26:15.000Z</time>
      </trkpt>
      <trkpt lat="43.58463" lon="2.91228">
        <ele>773</ele>
        <time>2017-04-16T13:26:17.000Z</time>
      </trkpt>
      <trkpt lat="43.58466" lon="2.91227">
        <ele>773.4</ele>
        <time>2017-04-16T13:26:19.000Z</time>
      </trkpt>
      <trkpt lat="43.5847" lon="2.91226">
        <ele>773.8</ele>
        <time>2017-04-16T13:26:21.000Z</time>
      </trkpt>
      <trkpt lat="43.58474" lon="2.91225">
        <ele>774</ele>
        <time>2017-04-16T13:26:23.000Z</time>
      </trkpt>
      <trkpt lat="43.58477" lon="2.91225">
        <ele>774.2</ele>
        <time>2017-04-16T13:26:25.000Z</time>
      </trkpt>
      <trkpt lat="43.58481" lon="2.91223">
        <ele>774.6</ele>
        <time>2017-04-16T13:26:27.000Z</time>
      </trkpt>
      <trkpt lat="43.58484" lon="2.91222">
        <ele>775</ele>
        <time>2017-04-16T13:26:29.000Z</time>
      </trkpt>
      <trkpt lat="43.58487" lon="2.91219">
        <ele>775.8</ele>
        <time>2017-04-16T13:26:34.000Z</time>
      </trkpt>
      <trkpt lat="43.58489" lon="2.91219">
        <ele>776</ele>
        <time>2017-04-16T13:26:36.000Z</time>
      </trkpt>
      <trkpt lat="43.58491" lon="2.91219">
        <ele>776.2</ele>
        <time>2017-04-16T13:26:38.000Z</time>
      </trkpt>
      <trkpt lat="43.58493" lon="2.91219">
        <ele>776.4</ele>
        <time>2017-04-16T13:26:40.000Z</time>
      </trkpt>
      <trkpt lat="43.58495" lon="2.91218">
        <ele>776.8</ele>
        <time>2017-04-16T13:26:43.000Z</time>
      </trkpt>
      <trkpt lat="43.58496" lon="2.91217">
        <ele>777.2</ele>
        <time>2017-04-16T13:26:45.000Z</time>
      </trkpt>
      <trkpt lat="43.58498" lon="2.91217">
        <ele>777.6</ele>
        <time>2017-04-16T13:26:47.000Z</time>
      </trkpt>
      <trkpt lat="43.585" lon="2.91216">
        <ele>777.8</ele>
        <time>2017-04-16T13:26:49.000Z</time>
      </trkpt>
      <trkpt lat="43.58502" lon="2.91214">
        <ele>778</ele>
        <time>2017-04-16T13:26:51.000Z</time>
      </trkpt>
      <trkpt lat="43.58505" lon="2.91213">
        <ele>778.4</ele>
        <time>2017-04-16T13:26:53.000Z</time>
      </trkpt>
      <trkpt lat="43.58507" lon="2.91212">
        <ele>779</ele>
        <time>2017-04-16T13:26:55.000Z</time>
      </trkpt>
      <trkpt lat="43.58509" lon="2.91212">
        <ele>779.4</ele>
        <time>2017-04-16T13:26:57.000Z</time>
      </trkpt>
      <trkpt lat="43.5851" lon="2.91212">
        <ele>779.8</ele>
        <time>2017-04-16T13:26:59.000Z</time>
      </trkpt>
      <trkpt lat="43.58513" lon="2.91211">
        <ele>780</ele>
        <time>2017-04-16T13:27:01.000Z</time>
      </trkpt>
      <trkpt lat="43.5852" lon="2.9121">
        <ele>780.6</ele>
        <time>2017-04-16T13:27:08.000Z</time>
      </trkpt>
      <trkpt lat="43.58525" lon="2.91208">
        <ele>781</ele>
        <time>2017-04-16T13:27:14.000Z</time>
      </trkpt>
      <trkpt lat="43.58528" lon="2.91208">
        <ele>781.4</ele>
        <time>2017-04-16T13:27:16.000Z</time>
      </trkpt>
      <trkpt lat="43.58531" lon="2.91208">
        <ele>781.8</ele>
        <time>2017-04-16T13:27:18.000Z</time>
      </trkpt>
      <trkpt lat="43.58533" lon="2.91208">
        <ele>782</ele>
        <time>2017-04-16T13:27:20.000Z</time>
      </trkpt>
      <trkpt lat="43.58535" lon="2.91207">
        <ele>782.2</ele>
        <time>2017-04-16T13:27:22.000Z</time>
      </trkpt>
      <trkpt lat="43.58539" lon="2.91205">
        <ele>782.8</ele>
        <time>2017-04-16T13:27:29.000Z</time>
      </trkpt>
      <trkpt lat="43.58547" lon="2.91201">
        <ele>783</ele>
        <time>2017-04-16T13:27:39.000Z</time>
      </trkpt>
      <trkpt lat="43.5855" lon="2.912">
        <ele>783.4</ele>
        <time>2017-04-16T13:27:42.000Z</time>
      </trkpt>
      <trkpt lat="43.58551" lon="2.91199">
        <ele>783.6</ele>
        <time>2017-04-16T13:27:43.000Z</time>
      </trkpt>
      <trkpt lat="43.58553" lon="2.91196">
        <ele>784</ele>
        <time>2017-04-16T13:27:46.000Z</time>
      </trkpt>
      <trkpt lat="43.58554" lon="2.91194">
        <ele>784.4</ele>
        <time>2017-04-16T13:27:48.000Z</time>
      </trkpt>
      <trkpt lat="43.58555" lon="2.91194">
        <ele>784.6</ele>
        <time>2017-04-16T13:27:50.000Z</time>
      </trkpt>
      <trkpt lat="43.58562" lon="2.91193">
        <ele>785</ele>
        <time>2017-04-16T13:27:57.000Z</time>
      </trkpt>
      <trkpt lat="43.58564" lon="2.91192">
        <ele>785.2</ele>
        <time>2017-04-16T13:27:59.000Z</time>
      </trkpt>
      <trkpt lat="43.58566" lon="2.91193">
        <ele>785.8</ele>
        <time>2017-04-16T13:28:02.000Z</time>
      </trkpt>
      <trkpt lat="43.58568" lon="2.91192">
        <ele>786.2</ele>
        <time>2017-04-16T13:28:04.000Z</time>
      </trkpt>
      <trkpt lat="43.5857" lon="2.91192">
        <ele>786.4</ele>
        <time>2017-04-16T13:28:06.000Z</time>
      </trkpt>
      <trkpt lat="43.58572" lon="2.91191">
        <ele>786.8</ele>
        <time>2017-04-16T13:28:08.000Z</time>
      </trkpt>
      <trkpt lat="43.58573" lon="2.91191">
        <ele>787</ele>
        <time>2017-04-16T13:28:09.000Z</time>
      </trkpt>
      <trkpt lat="43.58575" lon="2.91191">
        <ele>787.6</ele>
        <time>2017-04-16T13:28:11.000Z</time>
      </trkpt>
      <trkpt lat="43.58577" lon="2.91192">
        <ele>788.2</ele>
        <time>2017-04-16T13:28:13.000Z</time>
      </trkpt>
      <trkpt lat="43.58579" lon="2.91192">
        <ele>788.6</ele>
        <time>2017-04-16T13:28:15.000Z</time>
      </trkpt>
      <trkpt lat="43.58579" lon="2.91191">
        <ele>788.6</ele>
        <time>2017-04-16T13:28:16.000Z</time>
      </trkpt>
      <trkpt lat="43.5858" lon="2.9119">
        <ele>788.8</ele>
        <time>2017-04-16T13:28:17.000Z</time>
      </trkpt>
      <trkpt lat="43.58588" lon="2.9119">
        <ele>790</ele>
        <time>2017-04-16T13:28:27.000Z</time>
      </trkpt>
      <trkpt lat="43.58589" lon="2.91189">
        <ele>790.4</ele>
        <time>2017-04-16T13:28:29.000Z</time>
      </trkpt>
      <trkpt lat="43.5859" lon="2.91189">
        <ele>790.8</ele>
        <time>2017-04-16T13:28:31.000Z</time>
      </trkpt>
      <trkpt lat="43.58591" lon="2.91188">
        <ele>791</ele>
        <time>2017-04-16T13:28:33.000Z</time>
      </trkpt>
      <trkpt lat="43.58592" lon="2.91187">
        <ele>791.2</ele>
        <time>2017-04-16T13:28:35.000Z</time>
      </trkpt>
      <trkpt lat="43.58594" lon="2.91186">
        <ele>791.6</ele>
        <time>2017-04-16T13:28:37.000Z</time>
      </trkpt>
      <trkpt lat="43.58595" lon="2.91184">
        <ele>792.2</ele>
        <time>2017-04-16T13:28:39.000Z</time>
      </trkpt>
      <trkpt lat="43.58595" lon="2.91183">
        <ele>792.6</ele>
        <time>2017-04-16T13:28:41.000Z</time>
      </trkpt>
      <trkpt lat="43.58596" lon="2.91182">
        <ele>792.8</ele>
        <time>2017-04-16T13:28:43.000Z</time>
      </trkpt>
      <trkpt lat="43.58597" lon="2.91182">
        <ele>793.2</ele>
        <time>2017-04-16T13:28:45.000Z</time>
      </trkpt>
      <trkpt lat="43.58603" lon="2.91179">
        <ele>793.8</ele>
        <time>2017-04-16T13:28:55.000Z</time>
      </trkpt>
      <trkpt lat="43.58604" lon="2.91179">
        <ele>794.2</ele>
        <time>2017-04-16T13:28:57.000Z</time>
      </trkpt>
      <trkpt lat="43.58606" lon="2.91179">
        <ele>794.6</ele>
        <time>2017-04-16T13:28:59.000Z</time>
      </trkpt>
      <trkpt lat="43.58607" lon="2.91179">
        <ele>794.8</ele>
        <time>2017-04-16T13:29:01.000Z</time>
      </trkpt>
      <trkpt lat="43.58608" lon="2.91179">
        <ele>795.2</ele>
        <time>2017-04-16T13:29:03.000Z</time>
      </trkpt>
      <trkpt lat="43.5861" lon="2.91179">
        <ele>795.4</ele>
        <time>2017-04-16T13:29:05.000Z</time>
      </trkpt>
      <trkpt lat="43.58615" lon="2.91178">
        <ele>796</ele>
        <time>2017-04-16T13:29:11.000Z</time>
      </trkpt>
      <trkpt lat="43.58617" lon="2.91177">
        <ele>796.4</ele>
        <time>2017-04-16T13:29:13.000Z</time>
      </trkpt>
      <trkpt lat="43.58619" lon="2.91176">
        <ele>796.8</ele>
        <time>2017-04-16T13:29:15.000Z</time>
      </trkpt>
      <trkpt lat="43.5862" lon="2.91176">
        <ele>797.2</ele>
        <time>2017-04-16T13:29:17.000Z</time>
      </trkpt>
      <trkpt lat="43.58622" lon="2.91175">
        <ele>797.4</ele>
        <time>2017-04-16T13:29:19.000Z</time>
      </trkpt>
      <trkpt lat="43.58625" lon="2.91175">
        <ele>797.6</ele>
        <time>2017-04-16T13:29:21.000Z</time>
      </trkpt>
      <trkpt lat="43.58632" lon="2.91173">
        <ele>798.2</ele>
        <time>2017-04-16T13:29:29.000Z</time>
      </trkpt>
      <trkpt lat="43.58634" lon="2.91172">
        <ele>798.6</ele>
        <time>2017-04-16T13:29:31.000Z</time>
      </trkpt>
      <trkpt lat="43.58635" lon="2.91172">
        <ele>799</ele>
        <time>2017-04-16T13:29:33.000Z</time>
      </trkpt>
      <trkpt lat="43.58637" lon="2.91172">
        <ele>799.2</ele>
        <time>2017-04-16T13:29:35.000Z</time>
      </trkpt>
      <trkpt lat="43.58639" lon="2.91172">
        <ele>799.6</ele>
        <time>2017-04-16T13:29:37.000Z</time>
      </trkpt>
      <trkpt lat="43.58649" lon="2.91172">
        <ele>800.4</ele>
        <time>2017-04-16T13:29:47.000Z</time>
      </trkpt>
      <trkpt lat="43.5865" lon="2.91172">
        <ele>800.8</ele>
        <time>2017-04-16T13:29:49.000Z</time>
      </trkpt>
      <trkpt lat="43.58652" lon="2.91172">
        <ele>801</ele>
        <time>2017-04-16T13:29:51.000Z</time>
      </trkpt>
      <trkpt lat="43.58654" lon="2.91171">
        <ele>801.4</ele>
        <time>2017-04-16T13:29:53.000Z</time>
      </trkpt>
      <trkpt lat="43.58656" lon="2.91171">
        <ele>801.6</ele>
        <time>2017-04-16T13:29:55.000Z</time>
      </trkpt>
      <trkpt lat="43.5866" lon="2.91172">
        <ele>802.2</ele>
        <time>2017-04-16T13:30:00.000Z</time>
      </trkpt>
      <trkpt lat="43.58662" lon="2.91172">
        <ele>802.6</ele>
        <time>2017-04-16T13:30:02.000Z</time>
      </trkpt>
      <trkpt lat="43.58664" lon="2.91174">
        <ele>803</ele>
        <time>2017-04-16T13:30:04.000Z</time>
      </trkpt>
      <trkpt lat="43.58665" lon="2.91175">
        <ele>803.2</ele>
        <time>2017-04-16T13:30:06.000Z</time>
      </trkpt>
      <trkpt lat="43.58667" lon="2.91176">
        <ele>803.4</ele>
        <time>2017-04-16T13:30:08.000Z</time>
      </trkpt>
      <trkpt lat="43.58673" lon="2.91179">
        <ele>804.2</ele>
        <time>2017-04-16T13:30:14.000Z</time>
      </trkpt>
      <trkpt lat="43.58675" lon="2.91181">
        <ele>804.6</ele>
        <time>2017-04-16T13:30:16.000Z</time>
      </trkpt>
      <trkpt lat="43.58676" lon="2.91183">
        <ele>805</ele>
        <time>2017-04-16T13:30:18.000Z</time>
      </trkpt>
      <trkpt lat="43.58678" lon="2.91185">
        <ele>805.4</ele>
        <time>2017-04-16T13:30:20.000Z</time>
      </trkpt>
      <trkpt lat="43.58679" lon="2.91187">
        <ele>805.6</ele>
        <time>2017-04-16T13:30:22.000Z</time>
      </trkpt>
      <trkpt lat="43.58681" lon="2.91189">
        <ele>805.8</ele>
        <time>2017-04-16T13:30:24.000Z</time>
      </trkpt>
      <trkpt lat="43.58686" lon="2.91195">
        <ele>806.2</ele>
        <time>2017-04-16T13:30:31.000Z</time>
      </trkpt>
      <trkpt lat="43.58688" lon="2.91196">
        <ele>806.6</ele>
        <time>2017-04-16T13:30:33.000Z</time>
      </trkpt>
      <trkpt lat="43.58689" lon="2.91199">
        <ele>807</ele>
        <time>2017-04-16T13:30:35.000Z</time>
      </trkpt>
      <trkpt lat="43.58691" lon="2.91202">
        <ele>807.4</ele>
        <time>2017-04-16T13:30:37.000Z</time>
      </trkpt>
      <trkpt lat="43.58692" lon="2.91205">
        <ele>807.6</ele>
        <time>2017-04-16T13:30:39.000Z</time>
      </trkpt>
      <trkpt lat="43.58694" lon="2.91209">
        <ele>807.8</ele>
        <time>2017-04-16T13:30:41.000Z</time>
      </trkpt>
      <trkpt lat="43.587" lon="2.91226">
        <ele>808.4</ele>
        <time>2017-04-16T13:30:50.000Z</time>
      </trkpt>
      <trkpt lat="43.58703" lon="2.91242">
        <ele>808.6</ele>
        <time>2017-04-16T13:30:57.000Z</time>
      </trkpt>
      <trkpt lat="43.58704" lon="2.91244">
        <ele>808.6</ele>
        <time>2017-04-16T13:30:58.000Z</time>
      </trkpt>
      <trkpt lat="43.58706" lon="2.9125">
        <ele>808.6</ele>
        <time>2017-04-16T13:31:02.000Z</time>
      </trkpt>
      <trkpt lat="43.58707" lon="2.91252">
        <ele>808.8</ele>
        <time>2017-04-16T13:31:04.000Z</time>
      </trkpt>
      <trkpt lat="43.58708" lon="2.91253">
        <ele>808.8</ele>
        <time>2017-04-16T13:31:06.000Z</time>
      </trkpt>
      <trkpt lat="43.58708" lon="2.91255">
        <ele>809</ele>
        <time>2017-04-16T13:31:08.000Z</time>
      </trkpt>
      <trkpt lat="43.58709" lon="2.91257">
        <ele>809.4</ele>
        <time>2017-04-16T13:31:10.000Z</time>
      </trkpt>
      <trkpt lat="43.5871" lon="2.91258">
        <ele>809.6</ele>
        <time>2017-04-16T13:31:12.000Z</time>
      </trkpt>
      <trkpt lat="43.58711" lon="2.9126">
        <ele>809.8</ele>
        <time>2017-04-16T13:31:14.000Z</time>
      </trkpt>
      <trkpt lat="43.58713" lon="2.91263">
        <ele>810</ele>
        <time>2017-04-16T13:31:16.000Z</time>
      </trkpt>
      <trkpt lat="43.58713" lon="2.91265">
        <ele>810.2</ele>
        <time>2017-04-16T13:31:17.000Z</time>
      </trkpt>
      <trkpt lat="43.58714" lon="2.91269">
        <ele>810.4</ele>
        <time>2017-04-16T13:31:20.000Z</time>
      </trkpt>
      <trkpt lat="43.58714" lon="2.91272">
        <ele>810.4</ele>
        <time>2017-04-16T13:31:22.000Z</time>
      </trkpt>
      <trkpt lat="43.58715" lon="2.91276">
        <ele>810.8</ele>
        <time>2017-04-16T13:31:26.000Z</time>
      </trkpt>
      <trkpt lat="43.58717" lon="2.91278">
        <ele>811.2</ele>
        <time>2017-04-16T13:31:28.000Z</time>
      </trkpt>
      <trkpt lat="43.58718" lon="2.91279">
        <ele>811.6</ele>
        <time>2017-04-16T13:31:30.000Z</time>
      </trkpt>
      <trkpt lat="43.5872" lon="2.9128">
        <ele>811.8</ele>
        <time>2017-04-16T13:31:32.000Z</time>
      </trkpt>
      <trkpt lat="43.58721" lon="2.91281">
        <ele>812</ele>
        <time>2017-04-16T13:31:34.000Z</time>
      </trkpt>
      <trkpt lat="43.58727" lon="2.91288">
        <ele>812.6</ele>
        <time>2017-04-16T13:31:43.000Z</time>
      </trkpt>
      <trkpt lat="43.58735" lon="2.91297">
        <ele>812.8</ele>
        <time>2017-04-16T13:31:53.000Z</time>
      </trkpt>
      <trkpt lat="43.58744" lon="2.91302">
        <ele>813</ele>
        <time>2017-04-16T13:32:01.000Z</time>
      </trkpt>
      <trkpt lat="43.58745" lon="2.91303">
        <ele>813</ele>
        <time>2017-04-16T13:32:02.000Z</time>
      </trkpt>
      <trkpt lat="43.58748" lon="2.91305">
        <ele>813.4</ele>
        <time>2017-04-16T13:32:05.000Z</time>
      </trkpt>
      <trkpt lat="43.58751" lon="2.91306">
        <ele>813.8</ele>
        <time>2017-04-16T13:32:07.000Z</time>
      </trkpt>
      <trkpt lat="43.58753" lon="2.91308">
        <ele>814</ele>
        <time>2017-04-16T13:32:09.000Z</time>
      </trkpt>
      <trkpt lat="43.58756" lon="2.91309">
        <ele>814.2</ele>
        <time>2017-04-16T13:32:11.000Z</time>
      </trkpt>
      <trkpt lat="43.58765" lon="2.9131">
        <ele>814.6</ele>
        <time>2017-04-16T13:32:16.000Z</time>
      </trkpt>
      <trkpt lat="43.58771" lon="2.9131">
        <ele>815</ele>
        <time>2017-04-16T13:32:19.000Z</time>
      </trkpt>
      <trkpt lat="43.58775" lon="2.9131">
        <ele>815.4</ele>
        <time>2017-04-16T13:32:21.000Z</time>
      </trkpt>
      <trkpt lat="43.58779" lon="2.91311">
        <ele>815.8</ele>
        <time>2017-04-16T13:32:23.000Z</time>
      </trkpt>
      <trkpt lat="43.58783" lon="2.91312">
        <ele>816</ele>
        <time>2017-04-16T13:32:25.000Z</time>
      </trkpt>
      <trkpt lat="43.58787" lon="2.91313">
        <ele>816.2</ele>
        <time>2017-04-16T13:32:27.000Z</time>
      </trkpt>
      <trkpt lat="43.58797" lon="2.9131">
        <ele>816.8</ele>
        <time>2017-04-16T13:32:33.000Z</time>
      </trkpt>
      <trkpt lat="43.58799" lon="2.91308">
        <ele>816.8</ele>
        <time>2017-04-16T13:32:35.000Z</time>
      </trkpt>
      <trkpt lat="43.58802" lon="2.91307">
        <ele>817.4</ele>
        <time>2017-04-16T13:32:37.000Z</time>
      </trkpt>
      <trkpt lat="43.58806" lon="2.91306">
        <ele>817.8</ele>
        <time>2017-04-16T13:32:40.000Z</time>
      </trkpt>
      <trkpt lat="43.58808" lon="2.91306">
        <ele>818.2</ele>
        <time>2017-04-16T13:32:42.000Z</time>
      </trkpt>
      <trkpt lat="43.58811" lon="2.91305">
        <ele>818.6</ele>
        <time>2017-04-16T13:32:44.000Z</time>
      </trkpt>
      <trkpt lat="43.58813" lon="2.91304">
        <ele>819.2</ele>
        <time>2017-04-16T13:32:46.000Z</time>
      </trkpt>
      <trkpt lat="43.58813" lon="2.91304">
        <ele>819.4</ele>
        <time>2017-04-16T13:32:47.000Z</time>
      </trkpt>
      <trkpt lat="43.58818" lon="2.9131">
        <ele>821.6</ele>
        <time>2017-04-16T13:33:37.000Z</time>
      </trkpt>
      <trkpt lat="43.58819" lon="2.9131">
        <ele>821.6</ele>
        <time>2017-04-16T13:33:38.000Z</time>
      </trkpt>
      <trkpt lat="43.5882" lon="2.91309">
        <ele>821.6</ele>
        <time>2017-04-16T13:33:39.000Z</time>
      </trkpt>
      <trkpt lat="43.58821" lon="2.91309">
        <ele>821.6</ele>
        <time>2017-04-16T13:33:40.000Z</time>
      </trkpt>
      <trkpt lat="43.58823" lon="2.91308">
        <ele>821.6</ele>
        <time>2017-04-16T13:33:42.000Z</time>
      </trkpt>
      <trkpt lat="43.58827" lon="2.91307">
        <ele>821.8</ele>
        <time>2017-04-16T13:33:46.000Z</time>
      </trkpt>
      <trkpt lat="43.58828" lon="2.91306">
        <ele>822.2</ele>
        <time>2017-04-16T13:33:48.000Z</time>
      </trkpt>
      <trkpt lat="43.58829" lon="2.91305">
        <ele>822.6</ele>
        <time>2017-04-16T13:33:50.000Z</time>
      </trkpt>
      <trkpt lat="43.58831" lon="2.91304">
        <ele>822.8</ele>
        <time>2017-04-16T13:33:52.000Z</time>
      </trkpt>
      <trkpt lat="43.58832" lon="2.91303">
        <ele>823</ele>
        <time>2017-04-16T13:33:54.000Z</time>
      </trkpt>
      <trkpt lat="43.58836" lon="2.913">
        <ele>823.4</ele>
        <time>2017-04-16T13:33:57.000Z</time>
      </trkpt>
      <trkpt lat="43.58838" lon="2.91299">
        <ele>823.8</ele>
        <time>2017-04-16T13:33:59.000Z</time>
      </trkpt>
      <trkpt lat="43.5884" lon="2.91297">
        <ele>824.2</ele>
        <time>2017-04-16T13:34:01.000Z</time>
      </trkpt>
      <trkpt lat="43.58842" lon="2.91296">
        <ele>824.6</ele>
        <time>2017-04-16T13:34:03.000Z</time>
      </trkpt>
      <trkpt lat="43.58844" lon="2.91294">
        <ele>824.8</ele>
        <time>2017-04-16T13:34:05.000Z</time>
      </trkpt>
      <trkpt lat="43.58849" lon="2.91289">
        <ele>825.4</ele>
        <time>2017-04-16T13:34:13.000Z</time>
      </trkpt>
      <trkpt lat="43.58852" lon="2.91287">
        <ele>825.8</ele>
        <time>2017-04-16T13:34:17.000Z</time>
      </trkpt>
      <trkpt lat="43.58853" lon="2.91286">
        <ele>826.2</ele>
        <time>2017-04-16T13:34:19.000Z</time>
      </trkpt>
      <trkpt lat="43.58854" lon="2.91285">
        <ele>826.6</ele>
        <time>2017-04-16T13:34:21.000Z</time>
      </trkpt>
      <trkpt lat="43.58856" lon="2.91284">
        <ele>826.8</ele>
        <time>2017-04-16T13:34:23.000Z</time>
      </trkpt>
      <trkpt lat="43.58858" lon="2.91283">
        <ele>827</ele>
        <time>2017-04-16T13:34:25.000Z</time>
      </trkpt>
      <trkpt lat="43.5886" lon="2.91282">
        <ele>827.4</ele>
        <time>2017-04-16T13:34:27.000Z</time>
      </trkpt>
      <trkpt lat="43.58861" lon="2.91281">
        <ele>827.8</ele>
        <time>2017-04-16T13:34:29.000Z</time>
      </trkpt>
      <trkpt lat="43.58863" lon="2.9128">
        <ele>828.2</ele>
        <time>2017-04-16T13:34:31.000Z</time>
      </trkpt>
      <trkpt lat="43.58865" lon="2.9128">
        <ele>828.6</ele>
        <time>2017-04-16T13:34:33.000Z</time>
      </trkpt>
      <trkpt lat="43.58867" lon="2.9128">
        <ele>828.8</ele>
        <time>2017-04-16T13:34:35.000Z</time>
      </trkpt>
      <trkpt lat="43.58874" lon="2.91279">
        <ele>829.6</ele>
        <time>2017-04-16T13:34:43.000Z</time>
      </trkpt>
      <trkpt lat="43.58875" lon="2.91279">
        <ele>830</ele>
        <time>2017-04-16T13:34:44.000Z</time>
      </trkpt>
      <trkpt lat="43.58878" lon="2.91278">
        <ele>830.4</ele>
        <time>2017-04-16T13:34:47.000Z</time>
      </trkpt>
      <trkpt lat="43.58879" lon="2.91277">
        <ele>830.8</ele>
        <time>2017-04-16T13:34:49.000Z</time>
      </trkpt>
      <trkpt lat="43.58881" lon="2.91276">
        <ele>831</ele>
        <time>2017-04-16T13:34:51.000Z</time>
      </trkpt>
      <trkpt lat="43.58886" lon="2.91275">
        <ele>831.6</ele>
        <time>2017-04-16T13:34:56.000Z</time>
      </trkpt>
      <trkpt lat="43.58888" lon="2.91275">
        <ele>832</ele>
        <time>2017-04-16T13:34:58.000Z</time>
      </trkpt>
      <trkpt lat="43.5889" lon="2.91274">
        <ele>832.4</ele>
        <time>2017-04-16T13:35:00.000Z</time>
      </trkpt>
      <trkpt lat="43.58892" lon="2.91274">
        <ele>832.8</ele>
        <time>2017-04-16T13:35:02.000Z</time>
      </trkpt>
      <trkpt lat="43.58893" lon="2.91274">
        <ele>833</ele>
        <time>2017-04-16T13:35:04.000Z</time>
      </trkpt>
      <trkpt lat="43.589" lon="2.91272">
        <ele>833.6</ele>
        <time>2017-04-16T13:35:11.000Z</time>
      </trkpt>
      <trkpt lat="43.58902" lon="2.91271">
        <ele>833.8</ele>
        <time>2017-04-16T13:35:13.000Z</time>
      </trkpt>
      <trkpt lat="43.58904" lon="2.9127">
        <ele>834.4</ele>
        <time>2017-04-16T13:35:15.000Z</time>
      </trkpt>
      <trkpt lat="43.58906" lon="2.9127">
        <ele>834.6</ele>
        <time>2017-04-16T13:35:17.000Z</time>
      </trkpt>
      <trkpt lat="43.58908" lon="2.9127">
        <ele>835</ele>
        <time>2017-04-16T13:35:19.000Z</time>
      </trkpt>
      <trkpt lat="43.58909" lon="2.91269">
        <ele>835.2</ele>
        <time>2017-04-16T13:35:21.000Z</time>
      </trkpt>
      <trkpt lat="43.5891" lon="2.91269">
        <ele>835.4</ele>
        <time>2017-04-16T13:35:22.000Z</time>
      </trkpt>
      <trkpt lat="43.58912" lon="2.91268">
        <ele>836</ele>
        <time>2017-04-16T13:35:24.000Z</time>
      </trkpt>
      <trkpt lat="43.58914" lon="2.91268">
        <ele>836.4</ele>
        <time>2017-04-16T13:35:26.000Z</time>
      </trkpt>
      <trkpt lat="43.58916" lon="2.91267">
        <ele>836.8</ele>
        <time>2017-04-16T13:35:28.000Z</time>
      </trkpt>
      <trkpt lat="43.58917" lon="2.91267">
        <ele>837</ele>
        <time>2017-04-16T13:35:30.000Z</time>
      </trkpt>
      <trkpt lat="43.58918" lon="2.91267">
        <ele>837.4</ele>
        <time>2017-04-16T13:35:31.000Z</time>
      </trkpt>
      <trkpt lat="43.58919" lon="2.91267">
        <ele>837.8</ele>
        <time>2017-04-16T13:35:33.000Z</time>
      </trkpt>
      <trkpt lat="43.58921" lon="2.91267">
        <ele>838.4</ele>
        <time>2017-04-16T13:35:35.000Z</time>
      </trkpt>
      <trkpt lat="43.58922" lon="2.91267">
        <ele>838.6</ele>
        <time>2017-04-16T13:35:37.000Z</time>
      </trkpt>
      <trkpt lat="43.58923" lon="2.91267">
        <ele>839</ele>
        <time>2017-04-16T13:35:39.000Z</time>
      </trkpt>
      <trkpt lat="43.58927" lon="2.91265">
        <ele>839.6</ele>
        <time>2017-04-16T13:35:44.000Z</time>
      </trkpt>
      <trkpt lat="43.58928" lon="2.91264">
        <ele>840.2</ele>
        <time>2017-04-16T13:35:46.000Z</time>
      </trkpt>
      <trkpt lat="43.5893" lon="2.91263">
        <ele>840.6</ele>
        <time>2017-04-16T13:35:48.000Z</time>
      </trkpt>
      <trkpt lat="43.58931" lon="2.91262">
        <ele>840.8</ele>
        <time>2017-04-16T13:35:50.000Z</time>
      </trkpt>
      <trkpt lat="43.58933" lon="2.91262">
        <ele>841.2</ele>
        <time>2017-04-16T13:35:52.000Z</time>
      </trkpt>
      <trkpt lat="43.58934" lon="2.91262">
        <ele>841.6</ele>
        <time>2017-04-16T13:35:54.000Z</time>
      </trkpt>
      <trkpt lat="43.58935" lon="2.91262">
        <ele>842</ele>
        <time>2017-04-16T13:35:56.000Z</time>
      </trkpt>
      <trkpt lat="43.58937" lon="2.91261">
        <ele>842.6</ele>
        <time>2017-04-16T13:35:58.000Z</time>
      </trkpt>
      <trkpt lat="43.58938" lon="2.91261">
        <ele>843</ele>
        <time>2017-04-16T13:36:00.000Z</time>
      </trkpt>
      <trkpt lat="43.58939" lon="2.9126">
        <ele>843.2</ele>
        <time>2017-04-16T13:36:02.000Z</time>
      </trkpt>
      <trkpt lat="43.58943" lon="2.91259">
        <ele>844</ele>
        <time>2017-04-16T13:36:08.000Z</time>
      </trkpt>
      <trkpt lat="43.58945" lon="2.91258">
        <ele>844.6</ele>
        <time>2017-04-16T13:36:10.000Z</time>
      </trkpt>
      <trkpt lat="43.58947" lon="2.91257">
        <ele>845</ele>
        <time>2017-04-16T13:36:12.000Z</time>
      </trkpt>
      <trkpt lat="43.58948" lon="2.91257">
        <ele>845.2</ele>
        <time>2017-04-16T13:36:14.000Z</time>
      </trkpt>
      <trkpt lat="43.5895" lon="2.91256">
        <ele>845.6</ele>
        <time>2017-04-16T13:36:16.000Z</time>
      </trkpt>
      <trkpt lat="43.5895" lon="2.91256">
        <ele>845.8</ele>
        <time>2017-04-16T13:36:17.000Z</time>
      </trkpt>
      <trkpt lat="43.58952" lon="2.91255">
        <ele>846.4</ele>
        <time>2017-04-16T13:36:19.000Z</time>
      </trkpt>
      <trkpt lat="43.58953" lon="2.91254">
        <ele>846.8</ele>
        <time>2017-04-16T13:36:21.000Z</time>
      </trkpt>
      <trkpt lat="43.58955" lon="2.91254">
        <ele>847.2</ele>
        <time>2017-04-16T13:36:23.000Z</time>
      </trkpt>
      <trkpt lat="43.58956" lon="2.91255">
        <ele>847.4</ele>
        <time>2017-04-16T13:36:25.000Z</time>
      </trkpt>
      <trkpt lat="43.5896" lon="2.91253">
        <ele>848.2</ele>
        <time>2017-04-16T13:36:30.000Z</time>
      </trkpt>
      <trkpt lat="43.58961" lon="2.91253">
        <ele>848.6</ele>
        <time>2017-04-16T13:36:32.000Z</time>
      </trkpt>
      <trkpt lat="43.58963" lon="2.91253">
        <ele>849</ele>
        <time>2017-04-16T13:36:34.000Z</time>
      </trkpt>
      <trkpt lat="43.58964" lon="2.91253">
        <ele>849.4</ele>
        <time>2017-04-16T13:36:36.000Z</time>
      </trkpt>
      <trkpt lat="43.58966" lon="2.91254">
        <ele>849.6</ele>
        <time>2017-04-16T13:36:38.000Z</time>
      </trkpt>
      <trkpt lat="43.58967" lon="2.91254">
        <ele>849.8</ele>
        <time>2017-04-16T13:36:39.000Z</time>
      </trkpt>
      <trkpt lat="43.58968" lon="2.91254">
        <ele>850.4</ele>
        <time>2017-04-16T13:36:41.000Z</time>
      </trkpt>
      <trkpt lat="43.5897" lon="2.91253">
        <ele>850.8</ele>
        <time>2017-04-16T13:36:43.000Z</time>
      </trkpt>
      <trkpt lat="43.58972" lon="2.91253">
        <ele>851.2</ele>
        <time>2017-04-16T13:36:45.000Z</time>
      </trkpt>
      <trkpt lat="43.58974" lon="2.91253">
        <ele>851.6</ele>
        <time>2017-04-16T13:36:47.000Z</time>
      </trkpt>
      <trkpt lat="43.58984" lon="2.91253">
        <ele>852.2</ele>
        <time>2017-04-16T13:36:56.000Z</time>
      </trkpt>
      <trkpt lat="43.58988" lon="2.91252">
        <ele>852.6</ele>
        <time>2017-04-16T13:37:01.000Z</time>
      </trkpt>
      <trkpt lat="43.5899" lon="2.91252">
        <ele>853</ele>
        <time>2017-04-16T13:37:03.000Z</time>
      </trkpt>
      <trkpt lat="43.58992" lon="2.91252">
        <ele>853.4</ele>
        <time>2017-04-16T13:37:05.000Z</time>
      </trkpt>
      <trkpt lat="43.58994" lon="2.91252">
        <ele>853.8</ele>
        <time>2017-04-16T13:37:07.000Z</time>
      </trkpt>
      <trkpt lat="43.58996" lon="2.91252">
        <ele>854</ele>
        <time>2017-04-16T13:37:09.000Z</time>
      </trkpt>
      <trkpt lat="43.59001" lon="2.91253">
        <ele>854.6</ele>
        <time>2017-04-16T13:37:14.000Z</time>
      </trkpt>
      <trkpt lat="43.59003" lon="2.91254">
        <ele>855</ele>
        <time>2017-04-16T13:37:16.000Z</time>
      </trkpt>
      <trkpt lat="43.59004" lon="2.91255">
        <ele>855.2</ele>
        <time>2017-04-16T13:37:17.000Z</time>
      </trkpt>
      <trkpt lat="43.59006" lon="2.91256">
        <ele>855.8</ele>
        <time>2017-04-16T13:37:20.000Z</time>
      </trkpt>
      <trkpt lat="43.59008" lon="2.91257">
        <ele>856</ele>
        <time>2017-04-16T13:37:22.000Z</time>
      </trkpt>
      <trkpt lat="43.59009" lon="2.91258">
        <ele>856.2</ele>
        <time>2017-04-16T13:37:23.000Z</time>
      </trkpt>
      <trkpt lat="43.59014" lon="2.91261">
        <ele>856.8</ele>
        <time>2017-04-16T13:37:28.000Z</time>
      </trkpt>
      <trkpt lat="43.59016" lon="2.91262">
        <ele>857.2</ele>
        <time>2017-04-16T13:37:30.000Z</time>
      </trkpt>
      <trkpt lat="43.59019" lon="2.91263">
        <ele>857.6</ele>
        <time>2017-04-16T13:37:32.000Z</time>
      </trkpt>
      <trkpt lat="43.59021" lon="2.91263">
        <ele>857.8</ele>
        <time>2017-04-16T13:37:34.000Z</time>
      </trkpt>
      <trkpt lat="43.59023" lon="2.91265">
        <ele>858.2</ele>
        <time>2017-04-16T13:37:36.000Z</time>
      </trkpt>
      <trkpt lat="43.59032" lon="2.9127">
        <ele>859</ele>
        <time>2017-04-16T13:37:43.000Z</time>
      </trkpt>
      <trkpt lat="43.59034" lon="2.91271">
        <ele>859.4</ele>
        <time>2017-04-16T13:37:45.000Z</time>
      </trkpt>
      <trkpt lat="43.59037" lon="2.91273">
        <ele>859.8</ele>
        <time>2017-04-16T13:37:47.000Z</time>
      </trkpt>
      <trkpt lat="43.5904" lon="2.91275">
        <ele>860.2</ele>
        <time>2017-04-16T13:37:49.000Z</time>
      </trkpt>
      <trkpt lat="43.59043" lon="2.91277">
        <ele>860.6</ele>
        <time>2017-04-16T13:37:51.000Z</time>
      </trkpt>
      <trkpt lat="43.59046" lon="2.91279">
        <ele>860.8</ele>
        <time>2017-04-16T13:37:53.000Z</time>
      </trkpt>
      <trkpt lat="43.59056" lon="2.91284">
        <ele>861.2</ele>
        <time>2017-04-16T13:37:59.000Z</time>
      </trkpt>
      <trkpt lat="43.59064" lon="2.91286">
        <ele>861.6</ele>
        <time>2017-04-16T13:38:04.000Z</time>
      </trkpt>
      <trkpt lat="43.59066" lon="2.91285">
        <ele>862</ele>
        <time>2017-04-16T13:38:06.000Z</time>
      </trkpt>
      <trkpt lat="43.59069" lon="2.91285">
        <ele>862.4</ele>
        <time>2017-04-16T13:38:08.000Z</time>
      </trkpt>
      <trkpt lat="43.59072" lon="2.91284">
        <ele>862.8</ele>
        <time>2017-04-16T13:38:10.000Z</time>
      </trkpt>
      <trkpt lat="43.59073" lon="2.91284">
        <ele>863</ele>
        <time>2017-04-16T13:38:12.000Z</time>
      </trkpt>
      <trkpt lat="43.59078" lon="2.91282">
        <ele>863.6</ele>
        <time>2017-04-16T13:38:19.000Z</time>
      </trkpt>
      <trkpt lat="43.59078" lon="2.91282">
        <ele>863.6</ele>
        <time>2017-04-16T13:38:20.000Z</time>
      </trkpt>
      <trkpt lat="43.59079" lon="2.91282">
        <ele>865.8</ele>
        <time>2017-04-16T13:38:49.000Z</time>
      </trkpt>
      <trkpt lat="43.59079" lon="2.91282">
        <ele>865.8</ele>
        <time>2017-04-16T13:38:50.000Z</time>
      </trkpt>
      <trkpt lat="43.59079" lon="2.91281">
        <ele>866</ele>
        <time>2017-04-16T13:38:51.000Z</time>
      </trkpt>
      <trkpt lat="43.5908" lon="2.9128">
        <ele>866.4</ele>
        <time>2017-04-16T13:38:53.000Z</time>
      </trkpt>
      <trkpt lat="43.59081" lon="2.91279">
        <ele>866.8</ele>
        <time>2017-04-16T13:38:55.000Z</time>
      </trkpt>
      <trkpt lat="43.59082" lon="2.91277">
        <ele>867</ele>
        <time>2017-04-16T13:38:57.000Z</time>
      </trkpt>
      <trkpt lat="43.59082" lon="2.91275">
        <ele>867.2</ele>
        <time>2017-04-16T13:38:59.000Z</time>
      </trkpt>
      <trkpt lat="43.59083" lon="2.91269">
        <ele>867.8</ele>
        <time>2017-04-16T13:39:06.000Z</time>
      </trkpt>
      <trkpt lat="43.59084" lon="2.91266">
        <ele>868</ele>
        <time>2017-04-16T13:39:10.000Z</time>
      </trkpt>
      <trkpt lat="43.59084" lon="2.91264">
        <ele>868.6</ele>
        <time>2017-04-16T13:39:12.000Z</time>
      </trkpt>
      <trkpt lat="43.59085" lon="2.91263">
        <ele>868.8</ele>
        <time>2017-04-16T13:39:14.000Z</time>
      </trkpt>
      <trkpt lat="43.59085" lon="2.91261">
        <ele>869.2</ele>
        <time>2017-04-16T13:39:16.000Z</time>
      </trkpt>
      <trkpt lat="43.59086" lon="2.9126">
        <ele>869.4</ele>
        <time>2017-04-16T13:39:18.000Z</time>
      </trkpt>
      <trkpt lat="43.59087" lon="2.91254">
        <ele>870.2</ele>
        <time>2017-04-16T13:39:27.000Z</time>
      </trkpt>
      <trkpt lat="43.59088" lon="2.91253">
        <ele>870.6</ele>
        <time>2017-04-16T13:39:29.000Z</time>
      </trkpt>
      <trkpt lat="43.59088" lon="2.91251">
        <ele>871</ele>
        <time>2017-04-16T13:39:31.000Z</time>
      </trkpt>
      <trkpt lat="43.59089" lon="2.9125">
        <ele>871.2</ele>
        <time>2017-04-16T13:39:33.000Z</time>
      </trkpt>
      <trkpt lat="43.5909" lon="2.91244">
        <ele>873.8</ele>
        <time>2017-04-16T13:39:44.000Z</time>
      </trkpt>
      <trkpt lat="43.5909" lon="2.91243">
        <ele>874.2</ele>
        <time>2017-04-16T13:39:45.000Z</time>
      </trkpt>
      <trkpt lat="43.5909" lon="2.91243">
        <ele>874.4</ele>
        <time>2017-04-16T13:39:46.000Z</time>
      </trkpt>
      <trkpt lat="43.5909" lon="2.91242">
        <ele>874.6</ele>
        <time>2017-04-16T13:39:47.000Z</time>
      </trkpt>
      <trkpt lat="43.5909" lon="2.91241">
        <ele>875</ele>
        <time>2017-04-16T13:39:49.000Z</time>
      </trkpt>
      <trkpt lat="43.5909" lon="2.91239">
        <ele>875.2</ele>
        <time>2017-04-16T13:39:51.000Z</time>
      </trkpt>
      <trkpt lat="43.5909" lon="2.91238">
        <ele>875.6</ele>
        <time>2017-04-16T13:39:53.000Z</time>
      </trkpt>
      <trkpt lat="43.5909" lon="2.91237">
        <ele>876.2</ele>
        <time>2017-04-16T13:39:55.000Z</time>
      </trkpt>
      <trkpt lat="43.5909" lon="2.91236">
        <ele>876.6</ele>
        <time>2017-04-16T13:39:57.000Z</time>
      </trkpt>
      <trkpt lat="43.5909" lon="2.91235">
        <ele>877</ele>
        <time>2017-04-16T13:39:59.000Z</time>
      </trkpt>
      <trkpt lat="43.59091" lon="2.91234">
        <ele>877.4</ele>
        <time>2017-04-16T13:40:01.000Z</time>
      </trkpt>
      <trkpt lat="43.59092" lon="2.91229">
        <ele>878.2</ele>
        <time>2017-04-16T13:40:09.000Z</time>
      </trkpt>
      <trkpt lat="43.59092" lon="2.91227">
        <ele>878.8</ele>
        <time>2017-04-16T13:40:11.000Z</time>
      </trkpt>
      <trkpt lat="43.59092" lon="2.91226">
        <ele>879.2</ele>
        <time>2017-04-16T13:40:13.000Z</time>
      </trkpt>
      <trkpt lat="43.59093" lon="2.91224">
        <ele>879.6</ele>
        <time>2017-04-16T13:40:15.000Z</time>
      </trkpt>
      <trkpt lat="43.59093" lon="2.91223">
        <ele>879.8</ele>
        <time>2017-04-16T13:40:17.000Z</time>
      </trkpt>
      <trkpt lat="43.59093" lon="2.91221">
        <ele>880.2</ele>
        <time>2017-04-16T13:40:19.000Z</time>
      </trkpt>
      <trkpt lat="43.59093" lon="2.91221">
        <ele>880.4</ele>
        <time>2017-04-16T13:40:20.000Z</time>
      </trkpt>
      <trkpt lat="43.59093" lon="2.91219">
        <ele>881</ele>
        <time>2017-04-16T13:40:22.000Z</time>
      </trkpt>
      <trkpt lat="43.59093" lon="2.91218">
        <ele>881.4</ele>
        <time>2017-04-16T13:40:24.000Z</time>
      </trkpt>
      <trkpt lat="43.59093" lon="2.91217">
        <ele>881.6</ele>
        <time>2017-04-16T13:40:26.000Z</time>
      </trkpt>
      <trkpt lat="43.59093" lon="2.91216">
        <ele>882</ele>
        <time>2017-04-16T13:40:27.000Z</time>
      </trkpt>
      <trkpt lat="43.59094" lon="2.91215">
        <ele>882.6</ele>
        <time>2017-04-16T13:40:29.000Z</time>
      </trkpt>
      <trkpt lat="43.59094" lon="2.91214">
        <ele>883</ele>
        <time>2017-04-16T13:40:31.000Z</time>
      </trkpt>
      <trkpt lat="43.59095" lon="2.91212">
        <ele>883.6</ele>
        <time>2017-04-16T13:40:33.000Z</time>
      </trkpt>
      <trkpt lat="43.59096" lon="2.91211">
        <ele>884.2</ele>
        <time>2017-04-16T13:40:35.000Z</time>
      </trkpt>
      <trkpt lat="43.59096" lon="2.91209">
        <ele>884.8</ele>
        <time>2017-04-16T13:40:37.000Z</time>
      </trkpt>
      <trkpt lat="43.59096" lon="2.91208">
        <ele>885.2</ele>
        <time>2017-04-16T13:40:39.000Z</time>
      </trkpt>
      <trkpt lat="43.59096" lon="2.91206">
        <ele>885.6</ele>
        <time>2017-04-16T13:40:41.000Z</time>
      </trkpt>
      <trkpt lat="43.59097" lon="2.91205">
        <ele>886.2</ele>
        <time>2017-04-16T13:40:43.000Z</time>
      </trkpt>
      <trkpt lat="43.59097" lon="2.91204">
        <ele>886.8</ele>
        <time>2017-04-16T13:40:45.000Z</time>
      </trkpt>
      <trkpt lat="43.59098" lon="2.91202">
        <ele>887.2</ele>
        <time>2017-04-16T13:40:47.000Z</time>
      </trkpt>
      <trkpt lat="43.59098" lon="2.91201">
        <ele>887.6</ele>
        <time>2017-04-16T13:40:49.000Z</time>
      </trkpt>
      <trkpt lat="43.59099" lon="2.91199">
        <ele>887.8</ele>
        <time>2017-04-16T13:40:51.000Z</time>
      </trkpt>
      <trkpt lat="43.59099" lon="2.91198">
        <ele>888.2</ele>
        <time>2017-04-16T13:40:52.000Z</time>
      </trkpt>
      <trkpt lat="43.59099" lon="2.91196">
        <ele>888.8</ele>
        <time>2017-04-16T13:40:54.000Z</time>
      </trkpt>
      <trkpt lat="43.591" lon="2.91194">
        <ele>889.4</ele>
        <time>2017-04-16T13:40:56.000Z</time>
      </trkpt>
      <trkpt lat="43.591" lon="2.91192">
        <ele>890.2</ele>
        <time>2017-04-16T13:40:58.000Z</time>
      </trkpt>
      <trkpt lat="43.591" lon="2.9119">
        <ele>890.8</ele>
        <time>2017-04-16T13:41:00.000Z</time>
      </trkpt>
      <trkpt lat="43.59101" lon="2.91189">
        <ele>891.4</ele>
        <time>2017-04-16T13:41:02.000Z</time>
      </trkpt>
      <trkpt lat="43.59101" lon="2.91187">
        <ele>891.8</ele>
        <time>2017-04-16T13:41:04.000Z</time>
      </trkpt>
      <trkpt lat="43.59104" lon="2.9118">
        <ele>892.8</ele>
        <time>2017-04-16T13:41:13.000Z</time>
      </trkpt>
      <trkpt lat="43.59105" lon="2.91179">
        <ele>893.2</ele>
        <time>2017-04-16T13:41:16.000Z</time>
      </trkpt>
      <trkpt lat="43.59105" lon="2.91177">
        <ele>893.6</ele>
        <time>2017-04-16T13:41:18.000Z</time>
      </trkpt>
      <trkpt lat="43.59106" lon="2.91176">
        <ele>894</ele>
        <time>2017-04-16T13:41:20.000Z</time>
      </trkpt>
      <trkpt lat="43.59106" lon="2.91174">
        <ele>894.4</ele>
        <time>2017-04-16T13:41:22.000Z</time>
      </trkpt>
      <trkpt lat="43.59106" lon="2.91172">
        <ele>894.6</ele>
        <time>2017-04-16T13:41:24.000Z</time>
      </trkpt>
      <trkpt lat="43.59106" lon="2.91171">
        <ele>895</ele>
        <time>2017-04-16T13:41:26.000Z</time>
      </trkpt>
      <trkpt lat="43.59106" lon="2.91169">
        <ele>895.6</ele>
        <time>2017-04-16T13:41:28.000Z</time>
      </trkpt>
      <trkpt lat="43.59106" lon="2.91168">
        <ele>896</ele>
        <time>2017-04-16T13:41:30.000Z</time>
      </trkpt>
      <trkpt lat="43.59106" lon="2.91167">
        <ele>896.4</ele>
        <time>2017-04-16T13:41:32.000Z</time>
      </trkpt>
      <trkpt lat="43.59106" lon="2.91166">
        <ele>896.8</ele>
        <time>2017-04-16T13:41:34.000Z</time>
      </trkpt>
      <trkpt lat="43.59106" lon="2.91164">
        <ele>897</ele>
        <time>2017-04-16T13:41:37.000Z</time>
      </trkpt>
      <trkpt lat="43.59106" lon="2.91161">
        <ele>898.4</ele>
        <time>2017-04-16T13:41:42.000Z</time>
      </trkpt>
      <trkpt lat="43.59106" lon="2.91161">
        <ele>898.4</ele>
        <time>2017-04-16T13:41:43.000Z</time>
      </trkpt>
      <trkpt lat="43.59106" lon="2.9116">
        <ele>898.6</ele>
        <time>2017-04-16T13:41:44.000Z</time>
      </trkpt>
      <trkpt lat="43.59106" lon="2.91159">
        <ele>898.8</ele>
        <time>2017-04-16T13:41:45.000Z</time>
      </trkpt>
      <trkpt lat="43.59106" lon="2.91157">
        <ele>899</ele>
        <time>2017-04-16T13:41:47.000Z</time>
      </trkpt>
      <trkpt lat="43.59107" lon="2.91156">
        <ele>899.2</ele>
        <time>2017-04-16T13:41:49.000Z</time>
      </trkpt>
      <trkpt lat="43.59107" lon="2.91154">
        <ele>899.4</ele>
        <time>2017-04-16T13:41:51.000Z</time>
      </trkpt>
      <trkpt lat="43.59107" lon="2.91153">
        <ele>899.6</ele>
        <time>2017-04-16T13:41:52.000Z</time>
      </trkpt>
      <trkpt lat="43.59108" lon="2.91152">
        <ele>900.2</ele>
        <time>2017-04-16T13:41:54.000Z</time>
      </trkpt>
      <trkpt lat="43.59108" lon="2.9115">
        <ele>900.6</ele>
        <time>2017-04-16T13:41:56.000Z</time>
      </trkpt>
      <trkpt lat="43.59108" lon="2.91149">
        <ele>901</ele>
        <time>2017-04-16T13:41:58.000Z</time>
      </trkpt>
      <trkpt lat="43.59109" lon="2.91148">
        <ele>901.2</ele>
        <time>2017-04-16T13:42:00.000Z</time>
      </trkpt>
      <trkpt lat="43.59109" lon="2.91147">
        <ele>901.6</ele>
        <time>2017-04-16T13:42:01.000Z</time>
      </trkpt>
      <trkpt lat="43.59109" lon="2.91146">
        <ele>902.2</ele>
        <time>2017-04-16T13:42:03.000Z</time>
      </trkpt>
      <trkpt lat="43.59109" lon="2.91145">
        <ele>902.6</ele>
        <time>2017-04-16T13:42:05.000Z</time>
      </trkpt>
      <trkpt lat="43.59109" lon="2.91144">
        <ele>903</ele>
        <time>2017-04-16T13:42:07.000Z</time>
      </trkpt>
      <trkpt lat="43.59109" lon="2.91142">
        <ele>903.4</ele>
        <time>2017-04-16T13:42:09.000Z</time>
      </trkpt>
      <trkpt lat="43.59109" lon="2.91141">
        <ele>904.2</ele>
        <time>2017-04-16T13:42:11.000Z</time>
      </trkpt>
      <trkpt lat="43.59109" lon="2.91139">
        <ele>904.6</ele>
        <time>2017-04-16T13:42:13.000Z</time>
      </trkpt>
      <trkpt lat="43.5911" lon="2.91137">
        <ele>905.2</ele>
        <time>2017-04-16T13:42:15.000Z</time>
      </trkpt>
      <trkpt lat="43.59111" lon="2.91135">
        <ele>905.4</ele>
        <time>2017-04-16T13:42:17.000Z</time>
      </trkpt>
      <trkpt lat="43.59111" lon="2.91135">
        <ele>905.6</ele>
        <time>2017-04-16T13:42:18.000Z</time>
      </trkpt>
      <trkpt lat="43.59112" lon="2.91134">
        <ele>905.8</ele>
        <time>2017-04-16T13:42:20.000Z</time>
      </trkpt>
      <trkpt lat="43.59112" lon="2.91133">
        <ele>906.2</ele>
        <time>2017-04-16T13:42:21.000Z</time>
      </trkpt>
      <trkpt lat="43.59113" lon="2.91133">
        <ele>906.8</ele>
        <time>2017-04-16T13:42:23.000Z</time>
      </trkpt>
      <trkpt lat="43.59113" lon="2.91131">
        <ele>907.2</ele>
        <time>2017-04-16T13:42:25.000Z</time>
      </trkpt>
      <trkpt lat="43.59113" lon="2.91131">
        <ele>907.4</ele>
        <time>2017-04-16T13:42:26.000Z</time>
      </trkpt>
      <trkpt lat="43.59113" lon="2.9113">
        <ele>907.8</ele>
        <time>2017-04-16T13:42:28.000Z</time>
      </trkpt>
      <trkpt lat="43.59113" lon="2.91129">
        <ele>907.8</ele>
        <time>2017-04-16T13:42:29.000Z</time>
      </trkpt>
      <trkpt lat="43.59113" lon="2.91128">
        <ele>908</ele>
        <time>2017-04-16T13:42:31.000Z</time>
      </trkpt>
      <trkpt lat="43.59112" lon="2.91128">
        <ele>908.4</ele>
        <time>2017-04-16T13:42:35.000Z</time>
      </trkpt>
      <trkpt lat="43.5911" lon="2.91127">
        <ele>908.6</ele>
        <time>2017-04-16T13:42:38.000Z</time>
      </trkpt>
      <trkpt lat="43.59109" lon="2.91127">
        <ele>908.6</ele>
        <time>2017-04-16T13:42:40.000Z</time>
      </trkpt>
      <trkpt lat="43.59108" lon="2.91126">
        <ele>908.8</ele>
        <time>2017-04-16T13:42:43.000Z</time>
      </trkpt>
      <trkpt lat="43.59107" lon="2.91126">
        <ele>908.8</ele>
        <time>2017-04-16T13:42:45.000Z</time>
      </trkpt>
      <trkpt lat="43.59105" lon="2.91125">
        <ele>909.2</ele>
        <time>2017-04-16T13:42:48.000Z</time>
      </trkpt>
      <trkpt lat="43.59103" lon="2.91125">
        <ele>909.4</ele>
        <time>2017-04-16T13:42:50.000Z</time>
      </trkpt>
      <trkpt lat="43.59101" lon="2.91124">
        <ele>909.8</ele>
        <time>2017-04-16T13:42:52.000Z</time>
      </trkpt>
      <trkpt lat="43.59099" lon="2.91123">
        <ele>910</ele>
        <time>2017-04-16T13:42:54.000Z</time>
      </trkpt>
      <trkpt lat="43.59098" lon="2.91122">
        <ele>910.2</ele>
        <time>2017-04-16T13:42:56.000Z</time>
      </trkpt>
      <trkpt lat="43.59094" lon="2.91121">
        <ele>911</ele>
        <time>2017-04-16T13:43:03.000Z</time>
      </trkpt>
      <trkpt lat="43.59092" lon="2.9112">
        <ele>911.4</ele>
        <time>2017-04-16T13:43:05.000Z</time>
      </trkpt>
      <trkpt lat="43.59091" lon="2.9112">
        <ele>911.6</ele>
        <time>2017-04-16T13:43:07.000Z</time>
      </trkpt>
      <trkpt lat="43.5909" lon="2.91119">
        <ele>912</ele>
        <time>2017-04-16T13:43:09.000Z</time>
      </trkpt>
      <trkpt lat="43.59089" lon="2.91118">
        <ele>912.2</ele>
        <time>2017-04-16T13:43:11.000Z</time>
      </trkpt>
      <trkpt lat="43.59084" lon="2.91116">
        <ele>913</ele>
        <time>2017-04-16T13:43:19.000Z</time>
      </trkpt>
      <trkpt lat="43.59082" lon="2.91116">
        <ele>913.4</ele>
        <time>2017-04-16T13:43:21.000Z</time>
      </trkpt>
      <trkpt lat="43.5908" lon="2.91116">
        <ele>913.8</ele>
        <time>2017-04-16T13:43:23.000Z</time>
      </trkpt>
      <trkpt lat="43.59079" lon="2.91116">
        <ele>914</ele>
        <time>2017-04-16T13:43:24.000Z</time>
      </trkpt>
      <trkpt lat="43.59077" lon="2.91116">
        <ele>914.4</ele>
        <time>2017-04-16T13:43:27.000Z</time>
      </trkpt>
      <trkpt lat="43.59076" lon="2.91116">
        <ele>914.4</ele>
        <time>2017-04-16T13:43:28.000Z</time>
      </trkpt>
      <trkpt lat="43.59075" lon="2.91116">
        <ele>914.6</ele>
        <time>2017-04-16T13:43:29.000Z</time>
      </trkpt>
      <trkpt lat="43.59074" lon="2.91116">
        <ele>914.6</ele>
        <time>2017-04-16T13:43:30.000Z</time>
      </trkpt>
      <trkpt lat="43.59073" lon="2.91117">
        <ele>914.8</ele>
        <time>2017-04-16T13:43:31.000Z</time>
      </trkpt>
      <trkpt lat="43.59067" lon="2.91118">
        <ele>915</ele>
        <time>2017-04-16T13:43:36.000Z</time>
      </trkpt>
      <trkpt lat="43.59065" lon="2.91119">
        <ele>915</ele>
        <time>2017-04-16T13:43:37.000Z</time>
      </trkpt>
      <trkpt lat="43.59055" lon="2.91122">
        <ele>915.2</ele>
        <time>2017-04-16T13:43:43.000Z</time>
      </trkpt>
      <trkpt lat="43.59052" lon="2.91122">
        <ele>915.4</ele>
        <time>2017-04-16T13:43:45.000Z</time>
      </trkpt>
      <trkpt lat="43.59048" lon="2.91123">
        <ele>915.8</ele>
        <time>2017-04-16T13:43:47.000Z</time>
      </trkpt>
      <trkpt lat="43.59046" lon="2.91124">
        <ele>916</ele>
        <time>2017-04-16T13:43:48.000Z</time>
      </trkpt>
      <trkpt lat="43.59041" lon="2.91124">
        <ele>916.4</ele>
        <time>2017-04-16T13:43:51.000Z</time>
      </trkpt>
      <trkpt lat="43.59039" lon="2.91125">
        <ele>916.6</ele>
        <time>2017-04-16T13:43:53.000Z</time>
      </trkpt>
      <trkpt lat="43.59037" lon="2.91126">
        <ele>916.8</ele>
        <time>2017-04-16T13:43:57.000Z</time>
      </trkpt>
      <trkpt lat="43.59037" lon="2.91125">
        <ele>917</ele>
        <time>2017-04-16T13:43:59.000Z</time>
      </trkpt>
      <trkpt lat="43.59036" lon="2.91125">
        <ele>917</ele>
        <time>2017-04-16T13:44:01.000Z</time>
      </trkpt>
      <trkpt lat="43.59032" lon="2.91124">
        <ele>917.2</ele>
        <time>2017-04-16T13:44:08.000Z</time>
      </trkpt>
      <trkpt lat="43.59026" lon="2.91124">
        <ele>917.4</ele>
        <time>2017-04-16T13:44:15.000Z</time>
      </trkpt>
      <trkpt lat="43.59024" lon="2.91124">
        <ele>917.4</ele>
        <time>2017-04-16T13:44:17.000Z</time>
      </trkpt>
      <trkpt lat="43.5902" lon="2.91124">
        <ele>917.4</ele>
        <time>2017-04-16T13:44:21.000Z</time>
      </trkpt>
      <trkpt lat="43.5901" lon="2.91123">
        <ele>917.4</ele>
        <time>2017-04-16T13:44:29.000Z</time>
      </trkpt>
      <trkpt lat="43.59004" lon="2.91122">
        <ele>917.4</ele>
        <time>2017-04-16T13:44:35.000Z</time>
      </trkpt>
      <trkpt lat="43.59003" lon="2.91122">
        <ele>917.2</ele>
        <time>2017-04-16T13:44:36.000Z</time>
      </trkpt>
      <trkpt lat="43.59001" lon="2.91122">
        <ele>916.8</ele>
        <time>2017-04-16T13:44:38.000Z</time>
      </trkpt>
      <trkpt lat="43.58999" lon="2.91122">
        <ele>916.6</ele>
        <time>2017-04-16T13:44:40.000Z</time>
      </trkpt>
      <trkpt lat="43.58996" lon="2.91122">
        <ele>916.2</ele>
        <time>2017-04-16T13:44:42.000Z</time>
      </trkpt>
      <trkpt lat="43.58994" lon="2.91121">
        <ele>916</ele>
        <time>2017-04-16T13:44:44.000Z</time>
      </trkpt>
      <trkpt lat="43.58987" lon="2.9112">
        <ele>915.6</ele>
        <time>2017-04-16T13:44:50.000Z</time>
      </trkpt>
      <trkpt lat="43.58986" lon="2.9112">
        <ele>915.6</ele>
        <time>2017-04-16T13:44:52.000Z</time>
      </trkpt>
      <trkpt lat="43.58986" lon="2.9112">
        <ele>915.6</ele>
        <time>2017-04-16T13:44:53.000Z</time>
      </trkpt>
      <trkpt lat="43.58984" lon="2.9112">
        <ele>915.4</ele>
        <time>2017-04-16T13:44:56.000Z</time>
      </trkpt>
      <trkpt lat="43.58983" lon="2.9112">
        <ele>915.4</ele>
        <time>2017-04-16T13:45:04.000Z</time>
      </trkpt>
      <trkpt lat="43.58982" lon="2.9112">
        <ele>915.4</ele>
        <time>2017-04-16T13:45:05.000Z</time>
      </trkpt>
      <trkpt lat="43.58982" lon="2.9112">
        <ele>915.2</ele>
        <time>2017-04-16T13:45:06.000Z</time>
      </trkpt>
      <trkpt lat="43.5898" lon="2.91121">
        <ele>915.2</ele>
        <time>2017-04-16T13:45:16.000Z</time>
      </trkpt>
      <trkpt lat="43.58979" lon="2.9112">
        <ele>915.2</ele>
        <time>2017-04-16T13:45:19.000Z</time>
      </trkpt>
      <trkpt lat="43.58978" lon="2.9112">
        <ele>915.2</ele>
        <time>2017-04-16T13:45:20.000Z</time>
      </trkpt>
      <trkpt lat="43.58972" lon="2.91116">
        <ele>915.2</ele>
        <time>2017-04-16T13:45:26.000Z</time>
      </trkpt>
      <trkpt lat="43.58965" lon="2.91112">
        <ele>915.2</ele>
        <time>2017-04-16T13:45:33.000Z</time>
      </trkpt>
      <trkpt lat="43.5896" lon="2.91109">
        <ele>915.2</ele>
        <time>2017-04-16T13:45:40.000Z</time>
      </trkpt>
      <trkpt lat="43.58955" lon="2.91107">
        <ele>915.2</ele>
        <time>2017-04-16T13:45:47.000Z</time>
      </trkpt>
      <trkpt lat="43.58954" lon="2.91105">
        <ele>915.2</ele>
        <time>2017-04-16T13:45:50.000Z</time>
      </trkpt>
      <trkpt lat="43.58953" lon="2.91104">
        <ele>915.2</ele>
        <time>2017-04-16T13:45:52.000Z</time>
      </trkpt>
      <trkpt lat="43.58952" lon="2.91103">
        <ele>915.2</ele>
        <time>2017-04-16T13:45:55.000Z</time>
      </trkpt>
      <trkpt lat="43.58951" lon="2.91103">
        <ele>915.2</ele>
        <time>2017-04-16T13:45:56.000Z</time>
      </trkpt>
      <trkpt lat="43.58944" lon="2.91101">
        <ele>915.2</ele>
        <time>2017-04-16T13:46:05.000Z</time>
      </trkpt>
      <trkpt lat="43.5894" lon="2.911">
        <ele>915.2</ele>
        <time>2017-04-16T13:46:11.000Z</time>
      </trkpt>
      <trkpt lat="43.58938" lon="2.91099">
        <ele>915.8</ele>
        <time>2017-04-16T13:46:14.000Z</time>
      </trkpt>
      <trkpt lat="43.58937" lon="2.91098">
        <ele>916</ele>
        <time>2017-04-16T13:46:15.000Z</time>
      </trkpt>
      <trkpt lat="43.58937" lon="2.91097">
        <ele>916</ele>
        <time>2017-04-16T13:46:16.000Z</time>
      </trkpt>
      <trkpt lat="43.58939" lon="2.91095">
        <ele>916.4</ele>
        <time>2017-04-16T13:46:19.000Z</time>
      </trkpt>
      <trkpt lat="43.5894" lon="2.91094">
        <ele>916.6</ele>
        <time>2017-04-16T13:46:21.000Z</time>
      </trkpt>
      <trkpt lat="43.58942" lon="2.91094">
        <ele>916.6</ele>
        <time>2017-04-16T13:46:23.000Z</time>
      </trkpt>
      <trkpt lat="43.58946" lon="2.91093">
        <ele>917.2</ele>
        <time>2017-04-16T13:46:30.000Z</time>
      </trkpt>
      <trkpt lat="43.58948" lon="2.91092">
        <ele>917.8</ele>
        <time>2017-04-16T13:46:33.000Z</time>
      </trkpt>
      <trkpt lat="43.58949" lon="2.91092">
        <ele>918.2</ele>
        <time>2017-04-16T13:46:35.000Z</time>
      </trkpt>
      <trkpt lat="43.5895" lon="2.91092">
        <ele>918.4</ele>
        <time>2017-04-16T13:46:37.000Z</time>
      </trkpt>
      <trkpt lat="43.58951" lon="2.91092">
        <ele>918.6</ele>
        <time>2017-04-16T13:46:39.000Z</time>
      </trkpt>
      <trkpt lat="43.58952" lon="2.91092">
        <ele>918.8</ele>
        <time>2017-04-16T13:46:41.000Z</time>
      </trkpt>
      <trkpt lat="43.58952" lon="2.91092">
        <ele>918.8</ele>
        <time>2017-04-16T13:46:42.000Z</time>
      </trkpt>
      <trkpt lat="43.58954" lon="2.91092">
        <ele>919.2</ele>
        <time>2017-04-16T13:46:47.000Z</time>
      </trkpt>
      <trkpt lat="43.58955" lon="2.91091">
        <ele>919.2</ele>
        <time>2017-04-16T13:46:49.000Z</time>
      </trkpt>
      <trkpt lat="43.58953" lon="2.9109">
        <ele>919.8</ele>
        <time>2017-04-16T13:46:53.000Z</time>
      </trkpt>
      <trkpt lat="43.58953" lon="2.9109">
        <ele>920</ele>
        <time>2017-04-16T13:46:54.000Z</time>
      </trkpt>
      <trkpt lat="43.58952" lon="2.91089">
        <ele>920.2</ele>
        <time>2017-04-16T13:46:55.000Z</time>
      </trkpt>
      <trkpt lat="43.58952" lon="2.91089">
        <ele>920.4</ele>
        <time>2017-04-16T13:46:56.000Z</time>
      </trkpt>
      <trkpt lat="43.5895" lon="2.91088">
        <ele>920.6</ele>
        <time>2017-04-16T13:46:58.000Z</time>
      </trkpt>
      <trkpt lat="43.5895" lon="2.91087">
        <ele>920.6</ele>
        <time>2017-04-16T13:46:59.000Z</time>
      </trkpt>
      <trkpt lat="43.58948" lon="2.91086">
        <ele>921.2</ele>
        <time>2017-04-16T13:47:02.000Z</time>
      </trkpt>
      <trkpt lat="43.58947" lon="2.91084">
        <ele>921.6</ele>
        <time>2017-04-16T13:47:04.000Z</time>
      </trkpt>
      <trkpt lat="43.58946" lon="2.91083">
        <ele>922</ele>
        <time>2017-04-16T13:47:06.000Z</time>
      </trkpt>
      <trkpt lat="43.58945" lon="2.91082">
        <ele>922.2</ele>
        <time>2017-04-16T13:47:08.000Z</time>
      </trkpt>
      <trkpt lat="43.58944" lon="2.91081">
        <ele>922.4</ele>
        <time>2017-04-16T13:47:09.000Z</time>
      </trkpt>
      <trkpt lat="43.58941" lon="2.9108">
        <ele>923.2</ele>
        <time>2017-04-16T13:47:15.000Z</time>
      </trkpt>
      <trkpt lat="43.58939" lon="2.9108">
        <ele>923.8</ele>
        <time>2017-04-16T13:47:17.000Z</time>
      </trkpt>
      <trkpt lat="43.58938" lon="2.9108">
        <ele>924.2</ele>
        <time>2017-04-16T13:47:19.000Z</time>
      </trkpt>
      <trkpt lat="43.58937" lon="2.91079">
        <ele>924.6</ele>
        <time>2017-04-16T13:47:21.000Z</time>
      </trkpt>
      <trkpt lat="43.58936" lon="2.91078">
        <ele>924.8</ele>
        <time>2017-04-16T13:47:23.000Z</time>
      </trkpt>
      <trkpt lat="43.58933" lon="2.91075">
        <ele>925.6</ele>
        <time>2017-04-16T13:47:29.000Z</time>
      </trkpt>
      <trkpt lat="43.58932" lon="2.91075">
        <ele>926</ele>
        <time>2017-04-16T13:47:31.000Z</time>
      </trkpt>
      <trkpt lat="43.58931" lon="2.91074">
        <ele>926.4</ele>
        <time>2017-04-16T13:47:33.000Z</time>
      </trkpt>
      <trkpt lat="43.5893" lon="2.91074">
        <ele>926.6</ele>
        <time>2017-04-16T13:47:35.000Z</time>
      </trkpt>
      <trkpt lat="43.58929" lon="2.91073">
        <ele>927.2</ele>
        <time>2017-04-16T13:47:37.000Z</time>
      </trkpt>
      <trkpt lat="43.58928" lon="2.91073">
        <ele>927.4</ele>
        <time>2017-04-16T13:47:38.000Z</time>
      </trkpt>
      <trkpt lat="43.58927" lon="2.91072">
        <ele>928</ele>
        <time>2017-04-16T13:47:40.000Z</time>
      </trkpt>
      <trkpt lat="43.58925" lon="2.91071">
        <ele>928.4</ele>
        <time>2017-04-16T13:47:42.000Z</time>
      </trkpt>
      <trkpt lat="43.58924" lon="2.9107">
        <ele>928.6</ele>
        <time>2017-04-16T13:47:44.000Z</time>
      </trkpt>
      <trkpt lat="43.58922" lon="2.91069">
        <ele>929</ele>
        <time>2017-04-16T13:47:46.000Z</time>
      </trkpt>
      <trkpt lat="43.58916" lon="2.91064">
        <ele>929.6</ele>
        <time>2017-04-16T13:47:54.000Z</time>
      </trkpt>
      <trkpt lat="43.58914" lon="2.91063">
        <ele>929.6</ele>
        <time>2017-04-16T13:47:56.000Z</time>
      </trkpt>
      <trkpt lat="43.58913" lon="2.91062">
        <ele>930</ele>
        <time>2017-04-16T13:47:58.000Z</time>
      </trkpt>
      <trkpt lat="43.58911" lon="2.91061">
        <ele>930.4</ele>
        <time>2017-04-16T13:48:00.000Z</time>
      </trkpt>
      <trkpt lat="43.5891" lon="2.91061">
        <ele>930.8</ele>
        <time>2017-04-16T13:48:02.000Z</time>
      </trkpt>
      <trkpt lat="43.58908" lon="2.9106">
        <ele>931</ele>
        <time>2017-04-16T13:48:04.000Z</time>
      </trkpt>
      <trkpt lat="43.58907" lon="2.91058">
        <ele>931.2</ele>
        <time>2017-04-16T13:48:06.000Z</time>
      </trkpt>
      <trkpt lat="43.58906" lon="2.91058">
        <ele>931.4</ele>
        <time>2017-04-16T13:48:09.000Z</time>
      </trkpt>
      <trkpt lat="43.58902" lon="2.91056">
        <ele>931.8</ele>
        <time>2017-04-16T13:48:15.000Z</time>
      </trkpt>
      <trkpt lat="43.58897" lon="2.91054">
        <ele>932.2</ele>
        <time>2017-04-16T13:48:22.000Z</time>
      </trkpt>
      <trkpt lat="43.58896" lon="2.91053">
        <ele>932.6</ele>
        <time>2017-04-16T13:48:24.000Z</time>
      </trkpt>
      <trkpt lat="43.58895" lon="2.91052">
        <ele>933</ele>
        <time>2017-04-16T13:48:26.000Z</time>
      </trkpt>
      <trkpt lat="43.58894" lon="2.91052">
        <ele>933.2</ele>
        <time>2017-04-16T13:48:27.000Z</time>
      </trkpt>
      <trkpt lat="43.58893" lon="2.91052">
        <ele>933.8</ele>
        <time>2017-04-16T13:48:29.000Z</time>
      </trkpt>
      <trkpt lat="43.58891" lon="2.91051">
        <ele>934.2</ele>
        <time>2017-04-16T13:48:31.000Z</time>
      </trkpt>
      <trkpt lat="43.5889" lon="2.9105">
        <ele>934.6</ele>
        <time>2017-04-16T13:48:33.000Z</time>
      </trkpt>
      <trkpt lat="43.58889" lon="2.9105">
        <ele>935</ele>
        <time>2017-04-16T13:48:35.000Z</time>
      </trkpt>
      <trkpt lat="43.58887" lon="2.91049">
        <ele>935.2</ele>
        <time>2017-04-16T13:48:37.000Z</time>
      </trkpt>
      <trkpt lat="43.58881" lon="2.91044">
        <ele>935.8</ele>
        <time>2017-04-16T13:48:45.000Z</time>
      </trkpt>
      <trkpt lat="43.58877" lon="2.91041">
        <ele>936</ele>
        <time>2017-04-16T13:48:51.000Z</time>
      </trkpt>
      <trkpt lat="43.58871" lon="2.91036">
        <ele>936.2</ele>
        <time>2017-04-16T13:48:59.000Z</time>
      </trkpt>
      <trkpt lat="43.58867" lon="2.9103">
        <ele>936.2</ele>
        <time>2017-04-16T13:49:06.000Z</time>
      </trkpt>
      <trkpt lat="43.58866" lon="2.91029">
        <ele>936.4</ele>
        <time>2017-04-16T13:49:07.000Z</time>
      </trkpt>
      <trkpt lat="43.58866" lon="2.91027">
        <ele>936.8</ele>
        <time>2017-04-16T13:49:09.000Z</time>
      </trkpt>
      <trkpt lat="43.58865" lon="2.91025">
        <ele>937</ele>
        <time>2017-04-16T13:49:11.000Z</time>
      </trkpt>
      <trkpt lat="43.58864" lon="2.91023">
        <ele>937.4</ele>
        <time>2017-04-16T13:49:13.000Z</time>
      </trkpt>
      <trkpt lat="43.58863" lon="2.91021">
        <ele>937.6</ele>
        <time>2017-04-16T13:49:15.000Z</time>
      </trkpt>
      <trkpt lat="43.58859" lon="2.91013">
        <ele>938</ele>
        <time>2017-04-16T13:49:23.000Z</time>
      </trkpt>
      <trkpt lat="43.58857" lon="2.91009">
        <ele>938.4</ele>
        <time>2017-04-16T13:49:29.000Z</time>
      </trkpt>
      <trkpt lat="43.58856" lon="2.91007">
        <ele>938.8</ele>
        <time>2017-04-16T13:49:31.000Z</time>
      </trkpt>
      <trkpt lat="43.58856" lon="2.91007">
        <ele>939</ele>
        <time>2017-04-16T13:49:32.000Z</time>
      </trkpt>
      <trkpt lat="43.58855" lon="2.91006">
        <ele>939.4</ele>
        <time>2017-04-16T13:49:35.000Z</time>
      </trkpt>
      <trkpt lat="43.58855" lon="2.91005">
        <ele>939.4</ele>
        <time>2017-04-16T13:49:36.000Z</time>
      </trkpt>
      <trkpt lat="43.58855" lon="2.91004">
        <ele>939.6</ele>
        <time>2017-04-16T13:49:38.000Z</time>
      </trkpt>
      <trkpt lat="43.58855" lon="2.91003">
        <ele>939.8</ele>
        <time>2017-04-16T13:49:40.000Z</time>
      </trkpt>
      <trkpt lat="43.58855" lon="2.91002">
        <ele>940</ele>
        <time>2017-04-16T13:49:42.000Z</time>
      </trkpt>
      <trkpt lat="43.58856" lon="2.91001">
        <ele>940.4</ele>
        <time>2017-04-16T13:49:45.000Z</time>
      </trkpt>
      <trkpt lat="43.58857" lon="2.91">
        <ele>940.8</ele>
        <time>2017-04-16T13:49:47.000Z</time>
      </trkpt>
      <trkpt lat="43.58858" lon="2.90999">
        <ele>941.2</ele>
        <time>2017-04-16T13:49:49.000Z</time>
      </trkpt>
      <trkpt lat="43.58858" lon="2.90999">
        <ele>941.4</ele>
        <time>2017-04-16T13:49:51.000Z</time>
      </trkpt>
      <trkpt lat="43.58859" lon="2.90998">
        <ele>941.6</ele>
        <time>2017-04-16T13:49:53.000Z</time>
      </trkpt>
      <trkpt lat="43.58861" lon="2.90998">
        <ele>942</ele>
        <time>2017-04-16T13:49:55.000Z</time>
      </trkpt>
      <trkpt lat="43.58861" lon="2.90998">
        <ele>942.4</ele>
        <time>2017-04-16T13:49:56.000Z</time>
      </trkpt>
      <trkpt lat="43.58861" lon="2.90997">
        <ele>942.8</ele>
        <time>2017-04-16T13:49:58.000Z</time>
      </trkpt>
      <trkpt lat="43.58861" lon="2.90996">
        <ele>943</ele>
        <time>2017-04-16T13:49:59.000Z</time>
      </trkpt>
      <trkpt lat="43.58862" lon="2.90995">
        <ele>943.4</ele>
        <time>2017-04-16T13:50:01.000Z</time>
      </trkpt>
      <trkpt lat="43.58862" lon="2.90994">
        <ele>943.6</ele>
        <time>2017-04-16T13:50:03.000Z</time>
      </trkpt>
      <trkpt lat="43.58863" lon="2.90993">
        <ele>943.8</ele>
        <time>2017-04-16T13:50:05.000Z</time>
      </trkpt>
      <trkpt lat="43.58863" lon="2.90992">
        <ele>944.4</ele>
        <time>2017-04-16T13:50:08.000Z</time>
      </trkpt>
      <trkpt lat="43.58863" lon="2.90992">
        <ele>944.6</ele>
        <time>2017-04-16T13:50:09.000Z</time>
      </trkpt>
      <trkpt lat="43.58864" lon="2.90991">
        <ele>945</ele>
        <time>2017-04-16T13:50:11.000Z</time>
      </trkpt>
      <trkpt lat="43.58865" lon="2.9099">
        <ele>945.4</ele>
        <time>2017-04-16T13:50:13.000Z</time>
      </trkpt>
      <trkpt lat="43.58865" lon="2.90989">
        <ele>945.6</ele>
        <time>2017-04-16T13:50:14.000Z</time>
      </trkpt>
      <trkpt lat="43.58867" lon="2.90989">
        <ele>946.2</ele>
        <time>2017-04-16T13:50:19.000Z</time>
      </trkpt>
      <trkpt lat="43.58868" lon="2.90989">
        <ele>946.2</ele>
        <time>2017-04-16T13:50:20.000Z</time>
      </trkpt>
      <trkpt lat="43.58869" lon="2.90989">
        <ele>946.4</ele>
        <time>2017-04-16T13:50:22.000Z</time>
      </trkpt>
      <trkpt lat="43.58869" lon="2.90986">
        <ele>946.8</ele>
        <time>2017-04-16T13:50:26.000Z</time>
      </trkpt>
      <trkpt lat="43.5887" lon="2.90985">
        <ele>947.2</ele>
        <time>2017-04-16T13:50:28.000Z</time>
      </trkpt>
      <trkpt lat="43.5887" lon="2.90984">
        <ele>947.6</ele>
        <time>2017-04-16T13:50:30.000Z</time>
      </trkpt>
      <trkpt lat="43.58871" lon="2.90983">
        <ele>948</ele>
        <time>2017-04-16T13:50:32.000Z</time>
      </trkpt>
      <trkpt lat="43.58872" lon="2.90983">
        <ele>948.2</ele>
        <time>2017-04-16T13:50:34.000Z</time>
      </trkpt>
      <trkpt lat="43.58874" lon="2.90982">
        <ele>949.4</ele>
        <time>2017-04-16T13:50:39.000Z</time>
      </trkpt>
      <trkpt lat="43.58874" lon="2.90982">
        <ele>949.6</ele>
        <time>2017-04-16T13:50:40.000Z</time>
      </trkpt>
      <trkpt lat="43.58874" lon="2.90982">
        <ele>949.6</ele>
        <time>2017-04-16T13:50:41.000Z</time>
      </trkpt>
      <trkpt lat="43.58875" lon="2.90981">
        <ele>950</ele>
        <time>2017-04-16T13:50:43.000Z</time>
      </trkpt>
      <trkpt lat="43.58875" lon="2.90981">
        <ele>950.4</ele>
        <time>2017-04-16T13:50:44.000Z</time>
      </trkpt>
      <trkpt lat="43.58876" lon="2.9098">
        <ele>951</ele>
        <time>2017-04-16T13:50:46.000Z</time>
      </trkpt>
      <trkpt lat="43.58876" lon="2.9098">
        <ele>951.4</ele>
        <time>2017-04-16T13:50:47.000Z</time>
      </trkpt>
      <trkpt lat="43.58876" lon="2.90978">
        <ele>952</ele>
        <time>2017-04-16T13:50:50.000Z</time>
      </trkpt>
      <trkpt lat="43.58877" lon="2.90978">
        <ele>952.2</ele>
        <time>2017-04-16T13:50:51.000Z</time>
      </trkpt>
      <trkpt lat="43.58877" lon="2.90977">
        <ele>952.4</ele>
        <time>2017-04-16T13:50:52.000Z</time>
      </trkpt>
      <trkpt lat="43.58877" lon="2.90976">
        <ele>952.6</ele>
        <time>2017-04-16T13:50:53.000Z</time>
      </trkpt>
      <trkpt lat="43.58877" lon="2.90975">
        <ele>952.8</ele>
        <time>2017-04-16T13:50:55.000Z</time>
      </trkpt>
      <trkpt lat="43.58879" lon="2.90971">
        <ele>953.6</ele>
        <time>2017-04-16T13:51:04.000Z</time>
      </trkpt>
      <trkpt lat="43.58879" lon="2.9097">
        <ele>954.2</ele>
        <time>2017-04-16T13:51:06.000Z</time>
      </trkpt>
      <trkpt lat="43.5888" lon="2.90969">
        <ele>954.6</ele>
        <time>2017-04-16T13:51:08.000Z</time>
      </trkpt>
      <trkpt lat="43.58881" lon="2.90969">
        <ele>954.8</ele>
        <time>2017-04-16T13:51:10.000Z</time>
      </trkpt>
      <trkpt lat="43.58882" lon="2.90969">
        <ele>955</ele>
        <time>2017-04-16T13:51:12.000Z</time>
      </trkpt>
      <trkpt lat="43.58882" lon="2.90969">
        <ele>955.2</ele>
        <time>2017-04-16T13:51:13.000Z</time>
      </trkpt>
      <trkpt lat="43.58884" lon="2.90969">
        <ele>955.6</ele>
        <time>2017-04-16T13:51:17.000Z</time>
      </trkpt>
      <trkpt lat="43.58885" lon="2.90968">
        <ele>955.8</ele>
        <time>2017-04-16T13:51:19.000Z</time>
      </trkpt>
      <trkpt lat="43.58885" lon="2.90967">
        <ele>956.2</ele>
        <time>2017-04-16T13:51:21.000Z</time>
      </trkpt>
      <trkpt lat="43.58886" lon="2.90966">
        <ele>956.6</ele>
        <time>2017-04-16T13:51:23.000Z</time>
      </trkpt>
      <trkpt lat="43.58886" lon="2.90965">
        <ele>957</ele>
        <time>2017-04-16T13:51:25.000Z</time>
      </trkpt>
      <trkpt lat="43.58886" lon="2.90963">
        <ele>957.2</ele>
        <time>2017-04-16T13:51:27.000Z</time>
      </trkpt>
      <trkpt lat="43.58887" lon="2.9096">
        <ele>957.8</ele>
        <time>2017-04-16T13:51:34.000Z</time>
      </trkpt>
      <trkpt lat="43.58888" lon="2.9096">
        <ele>958.2</ele>
        <time>2017-04-16T13:51:35.000Z</time>
      </trkpt>
      <trkpt lat="43.58889" lon="2.9096">
        <ele>958.6</ele>
        <time>2017-04-16T13:51:37.000Z</time>
      </trkpt>
      <trkpt lat="43.58889" lon="2.9096">
        <ele>958.8</ele>
        <time>2017-04-16T13:51:38.000Z</time>
      </trkpt>
      <trkpt lat="43.5889" lon="2.90959">
        <ele>959</ele>
        <time>2017-04-16T13:51:40.000Z</time>
      </trkpt>
      <trkpt lat="43.58891" lon="2.90958">
        <ele>959.2</ele>
        <time>2017-04-16T13:51:42.000Z</time>
      </trkpt>
      <trkpt lat="43.58892" lon="2.90958">
        <ele>959.4</ele>
        <time>2017-04-16T13:51:44.000Z</time>
      </trkpt>
      <trkpt lat="43.58894" lon="2.90956">
        <ele>960</ele>
        <time>2017-04-16T13:51:49.000Z</time>
      </trkpt>
      <trkpt lat="43.58894" lon="2.90956">
        <ele>960.2</ele>
        <time>2017-04-16T13:51:50.000Z</time>
      </trkpt>
      <trkpt lat="43.58895" lon="2.90955">
        <ele>961</ele>
        <time>2017-04-16T13:51:54.000Z</time>
      </trkpt>
      <trkpt lat="43.58895" lon="2.90955">
        <ele>961.2</ele>
        <time>2017-04-16T13:51:55.000Z</time>
      </trkpt>
      <trkpt lat="43.58895" lon="2.90954">
        <ele>961.2</ele>
        <time>2017-04-16T13:51:56.000Z</time>
      </trkpt>
      <trkpt lat="43.58896" lon="2.90954">
        <ele>961.4</ele>
        <time>2017-04-16T13:51:57.000Z</time>
      </trkpt>
      <trkpt lat="43.58896" lon="2.90954">
        <ele>961.4</ele>
        <time>2017-04-16T13:51:58.000Z</time>
      </trkpt>
      <trkpt lat="43.58896" lon="2.90953">
        <ele>961.8</ele>
        <time>2017-04-16T13:52:02.000Z</time>
      </trkpt>
      <trkpt lat="43.58897" lon="2.90953">
        <ele>961.8</ele>
        <time>2017-04-16T13:52:03.000Z</time>
      </trkpt>
      <trkpt lat="43.58898" lon="2.90953">
        <ele>962</ele>
        <time>2017-04-16T13:52:05.000Z</time>
      </trkpt>
      <trkpt lat="43.58899" lon="2.90952">
        <ele>962.2</ele>
        <time>2017-04-16T13:52:08.000Z</time>
      </trkpt>
      <trkpt lat="43.589" lon="2.90951">
        <ele>962.8</ele>
        <time>2017-04-16T13:52:10.000Z</time>
      </trkpt>
      <trkpt lat="43.58901" lon="2.90951">
        <ele>963.2</ele>
        <time>2017-04-16T13:52:12.000Z</time>
      </trkpt>
      <trkpt lat="43.58902" lon="2.9095">
        <ele>963.4</ele>
        <time>2017-04-16T13:52:14.000Z</time>
      </trkpt>
      <trkpt lat="43.58903" lon="2.90949">
        <ele>963.8</ele>
        <time>2017-04-16T13:52:16.000Z</time>
      </trkpt>
      <trkpt lat="43.58903" lon="2.90949">
        <ele>964.2</ele>
        <time>2017-04-16T13:52:18.000Z</time>
      </trkpt>
      <trkpt lat="43.58904" lon="2.90949">
        <ele>964.8</ele>
        <time>2017-04-16T13:52:20.000Z</time>
      </trkpt>
      <trkpt lat="43.58905" lon="2.90949">
        <ele>965.2</ele>
        <time>2017-04-16T13:52:22.000Z</time>
      </trkpt>
      <trkpt lat="43.58906" lon="2.90949">
        <ele>965.6</ele>
        <time>2017-04-16T13:52:24.000Z</time>
      </trkpt>
      <trkpt lat="43.58907" lon="2.90949">
        <ele>965.8</ele>
        <time>2017-04-16T13:52:26.000Z</time>
      </trkpt>
      <trkpt lat="43.58913" lon="2.90949">
        <ele>966.6</ele>
        <time>2017-04-16T13:52:38.000Z</time>
      </trkpt>
      <trkpt lat="43.58916" lon="2.90949">
        <ele>967.8</ele>
        <time>2017-04-16T13:52:46.000Z</time>
      </trkpt>
      <trkpt lat="43.58916" lon="2.90949">
        <ele>967.8</ele>
        <time>2017-04-16T13:52:47.000Z</time>
      </trkpt>
      <trkpt lat="43.58917" lon="2.90949">
        <ele>968</ele>
        <time>2017-04-16T13:52:48.000Z</time>
      </trkpt>
      <trkpt lat="43.58918" lon="2.90949">
        <ele>968</ele>
        <time>2017-04-16T13:52:49.000Z</time>
      </trkpt>
      <trkpt lat="43.58919" lon="2.90949">
        <ele>968.2</ele>
        <time>2017-04-16T13:52:51.000Z</time>
      </trkpt>
      <trkpt lat="43.58919" lon="2.90949">
        <ele>968.4</ele>
        <time>2017-04-16T13:52:52.000Z</time>
      </trkpt>
      <trkpt lat="43.5892" lon="2.90949">
        <ele>968.8</ele>
        <time>2017-04-16T13:52:54.000Z</time>
      </trkpt>
      <trkpt lat="43.58921" lon="2.90949">
        <ele>969</ele>
        <time>2017-04-16T13:52:55.000Z</time>
      </trkpt>
      <trkpt lat="43.58921" lon="2.90948">
        <ele>969.4</ele>
        <time>2017-04-16T13:52:57.000Z</time>
      </trkpt>
      <trkpt lat="43.58922" lon="2.90948">
        <ele>969.8</ele>
        <time>2017-04-16T13:52:59.000Z</time>
      </trkpt>
      <trkpt lat="43.58924" lon="2.90948">
        <ele>970</ele>
        <time>2017-04-16T13:53:01.000Z</time>
      </trkpt>
      <trkpt lat="43.58924" lon="2.90948">
        <ele>970.4</ele>
        <time>2017-04-16T13:53:02.000Z</time>
      </trkpt>
      <trkpt lat="43.58925" lon="2.90948">
        <ele>971</ele>
        <time>2017-04-16T13:53:04.000Z</time>
      </trkpt>
      <trkpt lat="43.58926" lon="2.90947">
        <ele>971.4</ele>
        <time>2017-04-16T13:53:06.000Z</time>
      </trkpt>
      <trkpt lat="43.58927" lon="2.90947">
        <ele>971.8</ele>
        <time>2017-04-16T13:53:08.000Z</time>
      </trkpt>
      <trkpt lat="43.58928" lon="2.90946">
        <ele>972</ele>
        <time>2017-04-16T13:53:10.000Z</time>
      </trkpt>
      <trkpt lat="43.58932" lon="2.90945">
        <ele>973</ele>
        <time>2017-04-16T13:53:17.000Z</time>
      </trkpt>
      <trkpt lat="43.58933" lon="2.90945">
        <ele>973.4</ele>
        <time>2017-04-16T13:53:19.000Z</time>
      </trkpt>
      <trkpt lat="43.58934" lon="2.90945">
        <ele>973.8</ele>
        <time>2017-04-16T13:53:21.000Z</time>
      </trkpt>
      <trkpt lat="43.58935" lon="2.90945">
        <ele>974.2</ele>
        <time>2017-04-16T13:53:23.000Z</time>
      </trkpt>
      <trkpt lat="43.58936" lon="2.90944">
        <ele>974.4</ele>
        <time>2017-04-16T13:53:25.000Z</time>
      </trkpt>
      <trkpt lat="43.58938" lon="2.90943">
        <ele>975</ele>
        <time>2017-04-16T13:53:30.000Z</time>
      </trkpt>
      <trkpt lat="43.58938" lon="2.90942">
        <ele>975.6</ele>
        <time>2017-04-16T13:53:32.000Z</time>
      </trkpt>
      <trkpt lat="43.58939" lon="2.90942">
        <ele>976</ele>
        <time>2017-04-16T13:53:34.000Z</time>
      </trkpt>
      <trkpt lat="43.5894" lon="2.90941">
        <ele>976.2</ele>
        <time>2017-04-16T13:53:36.000Z</time>
      </trkpt>
      <trkpt lat="43.58941" lon="2.90942">
        <ele>976.6</ele>
        <time>2017-04-16T13:53:38.000Z</time>
      </trkpt>
      <trkpt lat="43.58943" lon="2.90941">
        <ele>977.2</ele>
        <time>2017-04-16T13:53:43.000Z</time>
      </trkpt>
      <trkpt lat="43.58944" lon="2.90941">
        <ele>977.6</ele>
        <time>2017-04-16T13:53:45.000Z</time>
      </trkpt>
      <trkpt lat="43.58945" lon="2.9094">
        <ele>978</ele>
        <time>2017-04-16T13:53:47.000Z</time>
      </trkpt>
      <trkpt lat="43.58946" lon="2.90941">
        <ele>978.4</ele>
        <time>2017-04-16T13:53:49.000Z</time>
      </trkpt>
      <trkpt lat="43.58947" lon="2.90943">
        <ele>978.6</ele>
        <time>2017-04-16T13:53:51.000Z</time>
      </trkpt>
      <trkpt lat="43.58949" lon="2.90947">
        <ele>979.2</ele>
        <time>2017-04-16T13:53:58.000Z</time>
      </trkpt>
      <trkpt lat="43.5895" lon="2.90948">
        <ele>979.4</ele>
        <time>2017-04-16T13:54:02.000Z</time>
      </trkpt>
      <trkpt lat="43.5895" lon="2.9095">
        <ele>979.4</ele>
        <time>2017-04-16T13:54:05.000Z</time>
      </trkpt>
      <trkpt lat="43.58951" lon="2.90953">
        <ele>979.6</ele>
        <time>2017-04-16T13:54:11.000Z</time>
      </trkpt>
      <trkpt lat="43.58952" lon="2.90956">
        <ele>979.8</ele>
        <time>2017-04-16T13:54:17.000Z</time>
      </trkpt>
      <trkpt lat="43.58953" lon="2.90957">
        <ele>980.2</ele>
        <time>2017-04-16T13:54:20.000Z</time>
      </trkpt>
      <trkpt lat="43.58954" lon="2.90958">
        <ele>980.4</ele>
        <time>2017-04-16T13:54:22.000Z</time>
      </trkpt>
      <trkpt lat="43.58954" lon="2.90957">
        <ele>980.8</ele>
        <time>2017-04-16T13:54:24.000Z</time>
      </trkpt>
      <trkpt lat="43.58955" lon="2.90955">
        <ele>981</ele>
        <time>2017-04-16T13:54:26.000Z</time>
      </trkpt>
      <trkpt lat="43.58955" lon="2.90954">
        <ele>981.4</ele>
        <time>2017-04-16T13:54:28.000Z</time>
      </trkpt>
      <trkpt lat="43.58958" lon="2.90953">
        <ele>983</ele>
        <time>2017-04-16T13:54:38.000Z</time>
      </trkpt>
      <trkpt lat="43.58959" lon="2.90954">
        <ele>983.2</ele>
        <time>2017-04-16T13:54:40.000Z</time>
      </trkpt>
      <trkpt lat="43.58959" lon="2.90954">
        <ele>983.4</ele>
        <time>2017-04-16T13:54:41.000Z</time>
      </trkpt>
      <trkpt lat="43.5896" lon="2.90955">
        <ele>983.4</ele>
        <time>2017-04-16T13:54:43.000Z</time>
      </trkpt>
      <trkpt lat="43.5896" lon="2.90955">
        <ele>983.4</ele>
        <time>2017-04-16T13:54:44.000Z</time>
      </trkpt>
      <trkpt lat="43.58961" lon="2.90956">
        <ele>983.6</ele>
        <time>2017-04-16T13:54:46.000Z</time>
      </trkpt>
      <trkpt lat="43.58962" lon="2.90956">
        <ele>983.8</ele>
        <time>2017-04-16T13:54:48.000Z</time>
      </trkpt>
      <trkpt lat="43.58963" lon="2.90956">
        <ele>984.2</ele>
        <time>2017-04-16T13:54:50.000Z</time>
      </trkpt>
      <trkpt lat="43.58964" lon="2.90956">
        <ele>984.6</ele>
        <time>2017-04-16T13:54:52.000Z</time>
      </trkpt>
      <trkpt lat="43.58964" lon="2.90956">
        <ele>984.8</ele>
        <time>2017-04-16T13:54:54.000Z</time>
      </trkpt>
      <trkpt lat="43.58966" lon="2.90956">
        <ele>985.2</ele>
        <time>2017-04-16T13:54:56.000Z</time>
      </trkpt>
      <trkpt lat="43.58967" lon="2.90956">
        <ele>985.2</ele>
        <time>2017-04-16T13:54:58.000Z</time>
      </trkpt>
      <trkpt lat="43.58969" lon="2.90959">
        <ele>985.6</ele>
        <time>2017-04-16T13:55:05.000Z</time>
      </trkpt>
      <trkpt lat="43.5897" lon="2.90958">
        <ele>985.8</ele>
        <time>2017-04-16T13:55:07.000Z</time>
      </trkpt>
      <trkpt lat="43.5897" lon="2.90958">
        <ele>986</ele>
        <time>2017-04-16T13:55:08.000Z</time>
      </trkpt>
      <trkpt lat="43.58971" lon="2.90957">
        <ele>986.4</ele>
        <time>2017-04-16T13:55:10.000Z</time>
      </trkpt>
      <trkpt lat="43.58972" lon="2.90957">
        <ele>986.8</ele>
        <time>2017-04-16T13:55:12.000Z</time>
      </trkpt>
      <trkpt lat="43.58974" lon="2.90957">
        <ele>987.2</ele>
        <time>2017-04-16T13:55:14.000Z</time>
      </trkpt>
      <trkpt lat="43.58975" lon="2.90957">
        <ele>987.4</ele>
        <time>2017-04-16T13:55:16.000Z</time>
      </trkpt>
      <trkpt lat="43.5898" lon="2.90954">
        <ele>987.8</ele>
        <time>2017-04-16T13:55:23.000Z</time>
      </trkpt>
      <trkpt lat="43.58981" lon="2.90955">
        <ele>987.8</ele>
        <time>2017-04-16T13:55:25.000Z</time>
      </trkpt>
      <trkpt lat="43.58983" lon="2.90954">
        <ele>987.4</ele>
        <time>2017-04-16T13:55:38.000Z</time>
      </trkpt>
      <trkpt lat="43.58983" lon="2.90953">
        <ele>987.4</ele>
        <time>2017-04-16T13:55:39.000Z</time>
      </trkpt>
      <trkpt lat="43.58983" lon="2.90952">
        <ele>987.6</ele>
        <time>2017-04-16T13:55:41.000Z</time>
      </trkpt>
      <trkpt lat="43.58984" lon="2.90951">
        <ele>988</ele>
        <time>2017-04-16T13:55:43.000Z</time>
      </trkpt>
      <trkpt lat="43.58984" lon="2.9095">
        <ele>988.6</ele>
        <time>2017-04-16T13:55:45.000Z</time>
      </trkpt>
      <trkpt lat="43.58985" lon="2.90938">
        <ele>993</ele>
        <time>2017-04-16T13:56:29.000Z</time>
      </trkpt>
      <trkpt lat="43.58984" lon="2.90937">
        <ele>993</ele>
        <time>2017-04-16T13:56:30.000Z</time>
      </trkpt>
      <trkpt lat="43.58984" lon="2.90936">
        <ele>993</ele>
        <time>2017-04-16T13:56:31.000Z</time>
      </trkpt>
      <trkpt lat="43.58983" lon="2.90935">
        <ele>993</ele>
        <time>2017-04-16T13:56:32.000Z</time>
      </trkpt>
      <trkpt lat="43.58983" lon="2.90933">
        <ele>993</ele>
        <time>2017-04-16T13:56:34.000Z</time>
      </trkpt>
      <trkpt lat="43.58982" lon="2.90931">
        <ele>993.2</ele>
        <time>2017-04-16T13:56:36.000Z</time>
      </trkpt>
      <trkpt lat="43.5898" lon="2.9093">
        <ele>993.2</ele>
        <time>2017-04-16T13:56:38.000Z</time>
      </trkpt>
      <trkpt lat="43.58979" lon="2.90929">
        <ele>993.2</ele>
        <time>2017-04-16T13:56:40.000Z</time>
      </trkpt>
      <trkpt lat="43.58978" lon="2.90929">
        <ele>995</ele>
        <time>2017-04-16T14:00:06.000Z</time>
      </trkpt>
      <trkpt lat="43.58978" lon="2.90929">
        <ele>995</ele>
        <time>2017-04-16T14:00:07.000Z</time>
      </trkpt>
      <trkpt lat="43.58978" lon="2.90928">
        <ele>995</ele>
        <time>2017-04-16T14:00:08.000Z</time>
      </trkpt>
      <trkpt lat="43.58977" lon="2.90927">
        <ele>995</ele>
        <time>2017-04-16T14:00:09.000Z</time>
      </trkpt>
      <trkpt lat="43.58976" lon="2.90924">
        <ele>995</ele>
        <time>2017-04-16T14:00:10.000Z</time>
      </trkpt>
      <trkpt lat="43.58976" lon="2.90922">
        <ele>995</ele>
        <time>2017-04-16T14:00:11.000Z</time>
      </trkpt>
      <trkpt lat="43.58972" lon="2.90914">
        <ele>994.8</ele>
        <time>2017-04-16T14:00:13.000Z</time>
      </trkpt>
      <trkpt lat="43.58971" lon="2.90908">
        <ele>994.4</ele>
        <time>2017-04-16T14:00:14.000Z</time>
      </trkpt>
      <trkpt lat="43.58971" lon="2.90901">
        <ele>994</ele>
        <time>2017-04-16T14:00:15.000Z</time>
      </trkpt>
      <trkpt lat="43.58968" lon="2.90889">
        <ele>993</ele>
        <time>2017-04-16T14:00:17.000Z</time>
      </trkpt>
      <trkpt lat="43.58968" lon="2.90874">
        <ele>991.6</ele>
        <time>2017-04-16T14:00:19.000Z</time>
      </trkpt>
      <trkpt lat="43.58967" lon="2.90868">
        <ele>991</ele>
        <time>2017-04-16T14:00:20.000Z</time>
      </trkpt>
      <trkpt lat="43.58967" lon="2.90853">
        <ele>989.4</ele>
        <time>2017-04-16T14:00:22.000Z</time>
      </trkpt>
      <trkpt lat="43.58968" lon="2.90842">
        <ele>988.8</ele>
        <time>2017-04-16T14:00:23.000Z</time>
      </trkpt>
      <trkpt lat="43.58967" lon="2.90833">
        <ele>988.2</ele>
        <time>2017-04-16T14:00:24.000Z</time>
      </trkpt>
      <trkpt lat="43.58962" lon="2.9083">
        <ele>987.2</ele>
        <time>2017-04-16T14:00:25.000Z</time>
      </trkpt>
      <trkpt lat="43.58953" lon="2.90834">
        <ele>985.4</ele>
        <time>2017-04-16T14:00:27.000Z</time>
      </trkpt>
      <trkpt lat="43.58943" lon="2.90848">
        <ele>983.4</ele>
        <time>2017-04-16T14:00:29.000Z</time>
      </trkpt>
      <trkpt lat="43.58938" lon="2.90853">
        <ele>982.6</ele>
        <time>2017-04-16T14:00:30.000Z</time>
      </trkpt>
      <trkpt lat="43.58924" lon="2.90862">
        <ele>979.2</ele>
        <time>2017-04-16T14:00:33.000Z</time>
      </trkpt>
      <trkpt lat="43.58914" lon="2.90867">
        <ele>977</ele>
        <time>2017-04-16T14:00:35.000Z</time>
      </trkpt>
      <trkpt lat="43.5891" lon="2.90871">
        <ele>975.8</ele>
        <time>2017-04-16T14:00:36.000Z</time>
      </trkpt>
      <trkpt lat="43.58905" lon="2.90876">
        <ele>974.6</ele>
        <time>2017-04-16T14:00:37.000Z</time>
      </trkpt>
      <trkpt lat="43.58896" lon="2.90885">
        <ele>972.4</ele>
        <time>2017-04-16T14:00:39.000Z</time>
      </trkpt>
      <trkpt lat="43.5889" lon="2.90889">
        <ele>971.2</ele>
        <time>2017-04-16T14:00:40.000Z</time>
      </trkpt>
      <trkpt lat="43.5888" lon="2.90896">
        <ele>969.2</ele>
        <time>2017-04-16T14:00:42.000Z</time>
      </trkpt>
      <trkpt lat="43.58875" lon="2.909">
        <ele>968</ele>
        <time>2017-04-16T14:00:43.000Z</time>
      </trkpt>
      <trkpt lat="43.5887" lon="2.90904">
        <ele>967</ele>
        <time>2017-04-16T14:00:44.000Z</time>
      </trkpt>
      <trkpt lat="43.58853" lon="2.90915">
        <ele>963.6</ele>
        <time>2017-04-16T14:00:47.000Z</time>
      </trkpt>
      <trkpt lat="43.58843" lon="2.90911">
        <ele>961.2</ele>
        <time>2017-04-16T14:00:49.000Z</time>
      </trkpt>
      <trkpt lat="43.58837" lon="2.90903">
        <ele>959</ele>
        <time>2017-04-16T14:00:51.000Z</time>
      </trkpt>
      <trkpt lat="43.5884" lon="2.90896">
        <ele>957.4</ele>
        <time>2017-04-16T14:00:53.000Z</time>
      </trkpt>
      <trkpt lat="43.58846" lon="2.90891">
        <ele>956</ele>
        <time>2017-04-16T14:00:55.000Z</time>
      </trkpt>
      <trkpt lat="43.58851" lon="2.90888">
        <ele>955.2</ele>
        <time>2017-04-16T14:00:56.000Z</time>
      </trkpt>
      <trkpt lat="43.58856" lon="2.90882">
        <ele>953.6</ele>
        <time>2017-04-16T14:00:58.000Z</time>
      </trkpt>
      <trkpt lat="43.58859" lon="2.90878">
        <ele>953</ele>
        <time>2017-04-16T14:00:59.000Z</time>
      </trkpt>
      <trkpt lat="43.58862" lon="2.90874">
        <ele>952.6</ele>
        <time>2017-04-16T14:01:00.000Z</time>
      </trkpt>
      <trkpt lat="43.58865" lon="2.90871">
        <ele>952</ele>
        <time>2017-04-16T14:01:01.000Z</time>
      </trkpt>
      <trkpt lat="43.58876" lon="2.9086">
        <ele>950.8</ele>
        <time>2017-04-16T14:01:04.000Z</time>
      </trkpt>
      <trkpt lat="43.5888" lon="2.90856">
        <ele>950.6</ele>
        <time>2017-04-16T14:01:05.000Z</time>
      </trkpt>
      <trkpt lat="43.58898" lon="2.90834">
        <ele>949.4</ele>
        <time>2017-04-16T14:01:10.000Z</time>
      </trkpt>
      <trkpt lat="43.58916" lon="2.90803">
        <ele>948.4</ele>
        <time>2017-04-16T14:01:17.000Z</time>
      </trkpt>
      <trkpt lat="43.5893" lon="2.90774">
        <ele>948</ele>
        <time>2017-04-16T14:01:23.000Z</time>
      </trkpt>
      <trkpt lat="43.5894" lon="2.90752">
        <ele>948</ele>
        <time>2017-04-16T14:01:28.000Z</time>
      </trkpt>
      <trkpt lat="43.58943" lon="2.90749">
        <ele>947.8</ele>
        <time>2017-04-16T14:01:29.000Z</time>
      </trkpt>
      <trkpt lat="43.58954" lon="2.90745">
        <ele>947.8</ele>
        <time>2017-04-16T14:01:32.000Z</time>
      </trkpt>
      <trkpt lat="43.58959" lon="2.90744">
        <ele>947.8</ele>
        <time>2017-04-16T14:01:33.000Z</time>
      </trkpt>
      <trkpt lat="43.58964" lon="2.90743">
        <ele>947.6</ele>
        <time>2017-04-16T14:01:34.000Z</time>
      </trkpt>
      <trkpt lat="43.58972" lon="2.90742">
        <ele>947</ele>
        <time>2017-04-16T14:01:36.000Z</time>
      </trkpt>
      <trkpt lat="43.58976" lon="2.90742">
        <ele>946.6</ele>
        <time>2017-04-16T14:01:37.000Z</time>
      </trkpt>
      <trkpt lat="43.58981" lon="2.90743">
        <ele>946.2</ele>
        <time>2017-04-16T14:01:38.000Z</time>
      </trkpt>
      <trkpt lat="43.58984" lon="2.90744">
        <ele>945.8</ele>
        <time>2017-04-16T14:01:39.000Z</time>
      </trkpt>
      <trkpt lat="43.58993" lon="2.90745">
        <ele>945.2</ele>
        <time>2017-04-16T14:01:41.000Z</time>
      </trkpt>
      <trkpt lat="43.59001" lon="2.90746">
        <ele>944.8</ele>
        <time>2017-04-16T14:01:43.000Z</time>
      </trkpt>
      <trkpt lat="43.59005" lon="2.90748">
        <ele>944.6</ele>
        <time>2017-04-16T14:01:44.000Z</time>
      </trkpt>
      <trkpt lat="43.59009" lon="2.90749">
        <ele>944.4</ele>
        <time>2017-04-16T14:01:45.000Z</time>
      </trkpt>
      <trkpt lat="43.59013" lon="2.90753">
        <ele>944</ele>
        <time>2017-04-16T14:01:46.000Z</time>
      </trkpt>
      <trkpt lat="43.59022" lon="2.90758">
        <ele>943.4</ele>
        <time>2017-04-16T14:01:48.000Z</time>
      </trkpt>
      <trkpt lat="43.59028" lon="2.9076">
        <ele>942.8</ele>
        <time>2017-04-16T14:01:49.000Z</time>
      </trkpt>
      <trkpt lat="43.59035" lon="2.90759">
        <ele>942.4</ele>
        <time>2017-04-16T14:01:50.000Z</time>
      </trkpt>
      <trkpt lat="43.59043" lon="2.90758">
        <ele>941.6</ele>
        <time>2017-04-16T14:01:51.000Z</time>
      </trkpt>
      <trkpt lat="43.59058" lon="2.90753">
        <ele>940.2</ele>
        <time>2017-04-16T14:01:53.000Z</time>
      </trkpt>
      <trkpt lat="43.59067" lon="2.9075">
        <ele>939.4</ele>
        <time>2017-04-16T14:01:54.000Z</time>
      </trkpt>
      <trkpt lat="43.59081" lon="2.90733">
        <ele>936.6</ele>
        <time>2017-04-16T14:01:57.000Z</time>
      </trkpt>
      <trkpt lat="43.59067" lon="2.90722">
        <ele>934.4</ele>
        <time>2017-04-16T14:01:59.000Z</time>
      </trkpt>
      <trkpt lat="43.59059" lon="2.9072">
        <ele>933.4</ele>
        <time>2017-04-16T14:02:00.000Z</time>
      </trkpt>
      <trkpt lat="43.59048" lon="2.90717">
        <ele>932</ele>
        <time>2017-04-16T14:02:01.000Z</time>
      </trkpt>
      <trkpt lat="43.59039" lon="2.90711">
        <ele>931</ele>
        <time>2017-04-16T14:02:02.000Z</time>
      </trkpt>
      <trkpt lat="43.5901" lon="2.90694">
        <ele>926.8</ele>
        <time>2017-04-16T14:02:05.000Z</time>
      </trkpt>
      <trkpt lat="43.59003" lon="2.90687">
        <ele>925.4</ele>
        <time>2017-04-16T14:02:06.000Z</time>
      </trkpt>
      <trkpt lat="43.58994" lon="2.9068">
        <ele>923.8</ele>
        <time>2017-04-16T14:02:07.000Z</time>
      </trkpt>
      <trkpt lat="43.58983" lon="2.90675">
        <ele>922.4</ele>
        <time>2017-04-16T14:02:08.000Z</time>
      </trkpt>
      <trkpt lat="43.58949" lon="2.9066">
        <ele>917.8</ele>
        <time>2017-04-16T14:02:11.000Z</time>
      </trkpt>
      <trkpt lat="43.58939" lon="2.9065">
        <ele>916.4</ele>
        <time>2017-04-16T14:02:12.000Z</time>
      </trkpt>
      <trkpt lat="43.58908" lon="2.90621">
        <ele>912</ele>
        <time>2017-04-16T14:02:15.000Z</time>
      </trkpt>
      <trkpt lat="43.58895" lon="2.90607">
        <ele>910.6</ele>
        <time>2017-04-16T14:02:16.000Z</time>
      </trkpt>
      <trkpt lat="43.58885" lon="2.90598">
        <ele>909.4</ele>
        <time>2017-04-16T14:02:17.000Z</time>
      </trkpt>
      <trkpt lat="43.58876" lon="2.90589">
        <ele>908</ele>
        <time>2017-04-16T14:02:18.000Z</time>
      </trkpt>
      <trkpt lat="43.58865" lon="2.90584">
        <ele>906.8</ele>
        <time>2017-04-16T14:02:19.000Z</time>
      </trkpt>
      <trkpt lat="43.58856" lon="2.90578">
        <ele>905.6</ele>
        <time>2017-04-16T14:02:20.000Z</time>
      </trkpt>
      <trkpt lat="43.58841" lon="2.90571">
        <ele>903.4</ele>
        <time>2017-04-16T14:02:22.000Z</time>
      </trkpt>
      <trkpt lat="43.58835" lon="2.90576">
        <ele>902.2</ele>
        <time>2017-04-16T14:02:23.000Z</time>
      </trkpt>
      <trkpt lat="43.5883" lon="2.90587">
        <ele>900.2</ele>
        <time>2017-04-16T14:02:25.000Z</time>
      </trkpt>
      <trkpt lat="43.5883" lon="2.90602">
        <ele>898.4</ele>
        <time>2017-04-16T14:02:27.000Z</time>
      </trkpt>
      <trkpt lat="43.58831" lon="2.9061">
        <ele>897.8</ele>
        <time>2017-04-16T14:02:28.000Z</time>
      </trkpt>
      <trkpt lat="43.58831" lon="2.90618">
        <ele>897</ele>
        <time>2017-04-16T14:02:29.000Z</time>
      </trkpt>
      <trkpt lat="43.58831" lon="2.90626">
        <ele>896.6</ele>
        <time>2017-04-16T14:02:30.000Z</time>
      </trkpt>
      <trkpt lat="43.58826" lon="2.90663">
        <ele>894.4</ele>
        <time>2017-04-16T14:02:34.000Z</time>
      </trkpt>
      <trkpt lat="43.58823" lon="2.90685">
        <ele>893.4</ele>
        <time>2017-04-16T14:02:36.000Z</time>
      </trkpt>
      <trkpt lat="43.58822" lon="2.90695">
        <ele>892.6</ele>
        <time>2017-04-16T14:02:37.000Z</time>
      </trkpt>
      <trkpt lat="43.5882" lon="2.90704">
        <ele>891.8</ele>
        <time>2017-04-16T14:02:38.000Z</time>
      </trkpt>
      <trkpt lat="43.58819" lon="2.90715">
        <ele>889.2</ele>
        <time>2017-04-16T14:02:41.000Z</time>
      </trkpt>
      <trkpt lat="43.58818" lon="2.90715">
        <ele>888.2</ele>
        <time>2017-04-16T14:02:42.000Z</time>
      </trkpt>
      <trkpt lat="43.58813" lon="2.90691">
        <ele>885.2</ele>
        <time>2017-04-16T14:02:45.000Z</time>
      </trkpt>
      <trkpt lat="43.58808" lon="2.9067">
        <ele>883.6</ele>
        <time>2017-04-16T14:02:47.000Z</time>
      </trkpt>
      <trkpt lat="43.58801" lon="2.90651">
        <ele>882</ele>
        <time>2017-04-16T14:02:49.000Z</time>
      </trkpt>
      <trkpt lat="43.58797" lon="2.90642">
        <ele>881.2</ele>
        <time>2017-04-16T14:02:50.000Z</time>
      </trkpt>
      <trkpt lat="43.58787" lon="2.90633">
        <ele>880</ele>
        <time>2017-04-16T14:02:52.000Z</time>
      </trkpt>
      <trkpt lat="43.58784" lon="2.90638">
        <ele>879</ele>
        <time>2017-04-16T14:02:54.000Z</time>
      </trkpt>
      <trkpt lat="43.58789" lon="2.90653">
        <ele>877.8</ele>
        <time>2017-04-16T14:02:56.000Z</time>
      </trkpt>
      <trkpt lat="43.58793" lon="2.90662">
        <ele>877.4</ele>
        <time>2017-04-16T14:02:57.000Z</time>
      </trkpt>
      <trkpt lat="43.58798" lon="2.90696">
        <ele>875.6</ele>
        <time>2017-04-16T14:03:00.000Z</time>
      </trkpt>
      <trkpt lat="43.58798" lon="2.90704">
        <ele>874.8</ele>
        <time>2017-04-16T14:03:01.000Z</time>
      </trkpt>
      <trkpt lat="43.58797" lon="2.9071">
        <ele>874</ele>
        <time>2017-04-16T14:03:02.000Z</time>
      </trkpt>
      <trkpt lat="43.58793" lon="2.90715">
        <ele>871.6</ele>
        <time>2017-04-16T14:03:05.000Z</time>
      </trkpt>
      <trkpt lat="43.58793" lon="2.9071">
        <ele>870.6</ele>
        <time>2017-04-16T14:03:06.000Z</time>
      </trkpt>
      <trkpt lat="43.58791" lon="2.907">
        <ele>869</ele>
        <time>2017-04-16T14:03:08.000Z</time>
      </trkpt>
      <trkpt lat="43.5879" lon="2.90697">
        <ele>868.4</ele>
        <time>2017-04-16T14:03:09.000Z</time>
      </trkpt>
      <trkpt lat="43.58787" lon="2.90685">
        <ele>866.8</ele>
        <time>2017-04-16T14:03:12.000Z</time>
      </trkpt>
      <trkpt lat="43.58786" lon="2.90689">
        <ele>865.8</ele>
        <time>2017-04-16T14:03:14.000Z</time>
      </trkpt>
      <trkpt lat="43.58785" lon="2.90709">
        <ele>865</ele>
        <time>2017-04-16T14:03:17.000Z</time>
      </trkpt>
      <trkpt lat="43.58783" lon="2.90716">
        <ele>864.2</ele>
        <time>2017-04-16T14:03:19.000Z</time>
      </trkpt>
      <trkpt lat="43.58775" lon="2.9072">
        <ele>863</ele>
        <time>2017-04-16T14:03:21.000Z</time>
      </trkpt>
      <trkpt lat="43.58769" lon="2.90723">
        <ele>862.4</ele>
        <time>2017-04-16T14:03:22.000Z</time>
      </trkpt>
      <trkpt lat="43.58764" lon="2.90727">
        <ele>861.8</ele>
        <time>2017-04-16T14:03:23.000Z</time>
      </trkpt>
      <trkpt lat="43.58761" lon="2.90736">
        <ele>861.4</ele>
        <time>2017-04-16T14:03:24.000Z</time>
      </trkpt>
      <trkpt lat="43.5876" lon="2.90745">
        <ele>861</ele>
        <time>2017-04-16T14:03:25.000Z</time>
      </trkpt>
      <trkpt lat="43.58757" lon="2.90752">
        <ele>860.4</ele>
        <time>2017-04-16T14:03:26.000Z</time>
      </trkpt>
      <trkpt lat="43.58751" lon="2.90766">
        <ele>859.2</ele>
        <time>2017-04-16T14:03:28.000Z</time>
      </trkpt>
      <trkpt lat="43.58749" lon="2.90771">
        <ele>858.6</ele>
        <time>2017-04-16T14:03:29.000Z</time>
      </trkpt>
      <trkpt lat="43.58742" lon="2.90779">
        <ele>857</ele>
        <time>2017-04-16T14:03:31.000Z</time>
      </trkpt>
      <trkpt lat="43.58739" lon="2.90784">
        <ele>856.2</ele>
        <time>2017-04-16T14:03:32.000Z</time>
      </trkpt>
      <trkpt lat="43.58738" lon="2.90789">
        <ele>855.2</ele>
        <time>2017-04-16T14:03:33.000Z</time>
      </trkpt>
      <trkpt lat="43.58734" lon="2.90799">
        <ele>853.6</ele>
        <time>2017-04-16T14:03:35.000Z</time>
      </trkpt>
      <trkpt lat="43.58731" lon="2.90802">
        <ele>852.6</ele>
        <time>2017-04-16T14:03:36.000Z</time>
      </trkpt>
      <trkpt lat="43.58728" lon="2.90808">
        <ele>851.8</ele>
        <time>2017-04-16T14:03:37.000Z</time>
      </trkpt>
      <trkpt lat="43.58715" lon="2.90824">
        <ele>849.4</ele>
        <time>2017-04-16T14:03:40.000Z</time>
      </trkpt>
      <trkpt lat="43.58707" lon="2.90835">
        <ele>848</ele>
        <time>2017-04-16T14:03:42.000Z</time>
      </trkpt>
      <trkpt lat="43.58704" lon="2.90843">
        <ele>847.2</ele>
        <time>2017-04-16T14:03:43.000Z</time>
      </trkpt>
      <trkpt lat="43.58697" lon="2.90856">
        <ele>845.8</ele>
        <time>2017-04-16T14:03:45.000Z</time>
      </trkpt>
      <trkpt lat="43.58692" lon="2.90862">
        <ele>844.8</ele>
        <time>2017-04-16T14:03:46.000Z</time>
      </trkpt>
      <trkpt lat="43.58682" lon="2.90873">
        <ele>843.4</ele>
        <time>2017-04-16T14:03:48.000Z</time>
      </trkpt>
      <trkpt lat="43.5868" lon="2.90876">
        <ele>842.4</ele>
        <time>2017-04-16T14:03:49.000Z</time>
      </trkpt>
      <trkpt lat="43.58677" lon="2.90875">
        <ele>841.6</ele>
        <time>2017-04-16T14:03:50.000Z</time>
      </trkpt>
      <trkpt lat="43.58676" lon="2.90874">
        <ele>841</ele>
        <time>2017-04-16T14:03:51.000Z</time>
      </trkpt>
      <trkpt lat="43.58676" lon="2.90868">
        <ele>840.2</ele>
        <time>2017-04-16T14:03:52.000Z</time>
      </trkpt>
      <trkpt lat="43.5868" lon="2.90854">
        <ele>838.6</ele>
        <time>2017-04-16T14:03:54.000Z</time>
      </trkpt>
      <trkpt lat="43.58689" lon="2.90844">
        <ele>837.4</ele>
        <time>2017-04-16T14:03:56.000Z</time>
      </trkpt>
      <trkpt lat="43.58693" lon="2.90837">
        <ele>836.6</ele>
        <time>2017-04-16T14:03:57.000Z</time>
      </trkpt>
      <trkpt lat="43.58694" lon="2.90823">
        <ele>835.4</ele>
        <time>2017-04-16T14:03:59.000Z</time>
      </trkpt>
      <trkpt lat="43.58695" lon="2.90817">
        <ele>834.6</ele>
        <time>2017-04-16T14:04:00.000Z</time>
      </trkpt>
      <trkpt lat="43.58695" lon="2.90809">
        <ele>834</ele>
        <time>2017-04-16T14:04:01.000Z</time>
      </trkpt>
      <trkpt lat="43.58697" lon="2.90794">
        <ele>832.6</ele>
        <time>2017-04-16T14:04:03.000Z</time>
      </trkpt>
      <trkpt lat="43.58701" lon="2.90775">
        <ele>831</ele>
        <time>2017-04-16T14:04:05.000Z</time>
      </trkpt>
      <trkpt lat="43.58701" lon="2.90766">
        <ele>830.2</ele>
        <time>2017-04-16T14:04:06.000Z</time>
      </trkpt>
      <trkpt lat="43.58702" lon="2.90759">
        <ele>829.4</ele>
        <time>2017-04-16T14:04:07.000Z</time>
      </trkpt>
      <trkpt lat="43.58701" lon="2.90754">
        <ele>827.4</ele>
        <time>2017-04-16T14:04:09.000Z</time>
      </trkpt>
      <trkpt lat="43.58697" lon="2.90761">
        <ele>825.4</ele>
        <time>2017-04-16T14:04:11.000Z</time>
      </trkpt>
      <trkpt lat="43.58694" lon="2.90767">
        <ele>824.6</ele>
        <time>2017-04-16T14:04:12.000Z</time>
      </trkpt>
      <trkpt lat="43.5869" lon="2.90778">
        <ele>823</ele>
        <time>2017-04-16T14:04:14.000Z</time>
      </trkpt>
      <trkpt lat="43.58685" lon="2.90784">
        <ele>822</ele>
        <time>2017-04-16T14:04:15.000Z</time>
      </trkpt>
      <trkpt lat="43.58677" lon="2.90797">
        <ele>820.4</ele>
        <time>2017-04-16T14:04:17.000Z</time>
      </trkpt>
      <trkpt lat="43.58676" lon="2.90808">
        <ele>819.6</ele>
        <time>2017-04-16T14:04:18.000Z</time>
      </trkpt>
      <trkpt lat="43.58676" lon="2.90822">
        <ele>818</ele>
        <time>2017-04-16T14:04:20.000Z</time>
      </trkpt>
      <trkpt lat="43.58676" lon="2.90826">
        <ele>817</ele>
        <time>2017-04-16T14:04:21.000Z</time>
      </trkpt>
      <trkpt lat="43.58677" lon="2.90823">
        <ele>815.4</ele>
        <time>2017-04-16T14:04:23.000Z</time>
      </trkpt>
      <trkpt lat="43.58678" lon="2.90819">
        <ele>814.6</ele>
        <time>2017-04-16T14:04:24.000Z</time>
      </trkpt>
      <trkpt lat="43.58674" lon="2.90808">
        <ele>813</ele>
        <time>2017-04-16T14:04:26.000Z</time>
      </trkpt>
      <trkpt lat="43.58672" lon="2.90795">
        <ele>811.6</ele>
        <time>2017-04-16T14:04:28.000Z</time>
      </trkpt>
      <trkpt lat="43.58667" lon="2.90793">
        <ele>810</ele>
        <time>2017-04-16T14:04:30.000Z</time>
      </trkpt>
      <trkpt lat="43.58664" lon="2.90797">
        <ele>809.2</ele>
        <time>2017-04-16T14:04:31.000Z</time>
      </trkpt>
      <trkpt lat="43.58663" lon="2.90802">
        <ele>808.6</ele>
        <time>2017-04-16T14:04:32.000Z</time>
      </trkpt>
      <trkpt lat="43.58661" lon="2.90819">
        <ele>807.2</ele>
        <time>2017-04-16T14:04:34.000Z</time>
      </trkpt>
      <trkpt lat="43.58651" lon="2.9084">
        <ele>805</ele>
        <time>2017-04-16T14:04:37.000Z</time>
      </trkpt>
      <trkpt lat="43.58647" lon="2.90849">
        <ele>804</ele>
        <time>2017-04-16T14:04:38.000Z</time>
      </trkpt>
      <trkpt lat="43.58642" lon="2.90855">
        <ele>803.2</ele>
        <time>2017-04-16T14:04:39.000Z</time>
      </trkpt>
      <trkpt lat="43.58637" lon="2.90861">
        <ele>802.4</ele>
        <time>2017-04-16T14:04:40.000Z</time>
      </trkpt>
      <trkpt lat="43.58629" lon="2.90873">
        <ele>800.6</ele>
        <time>2017-04-16T14:04:42.000Z</time>
      </trkpt>
      <trkpt lat="43.5862" lon="2.90887">
        <ele>798.6</ele>
        <time>2017-04-16T14:04:44.000Z</time>
      </trkpt>
      <trkpt lat="43.58614" lon="2.90894">
        <ele>797.8</ele>
        <time>2017-04-16T14:04:45.000Z</time>
      </trkpt>
      <trkpt lat="43.58609" lon="2.909">
        <ele>796.6</ele>
        <time>2017-04-16T14:04:46.000Z</time>
      </trkpt>
      <trkpt lat="43.58605" lon="2.90905">
        <ele>794.6</ele>
        <time>2017-04-16T14:04:48.000Z</time>
      </trkpt>
      <trkpt lat="43.58603" lon="2.90905">
        <ele>793.6</ele>
        <time>2017-04-16T14:04:49.000Z</time>
      </trkpt>
      <trkpt lat="43.58611" lon="2.90887">
        <ele>791</ele>
        <time>2017-04-16T14:04:52.000Z</time>
      </trkpt>
      <trkpt lat="43.58616" lon="2.90875">
        <ele>789.4</ele>
        <time>2017-04-16T14:04:54.000Z</time>
      </trkpt>
      <trkpt lat="43.58618" lon="2.90868">
        <ele>788.6</ele>
        <time>2017-04-16T14:04:55.000Z</time>
      </trkpt>
      <trkpt lat="43.58621" lon="2.90861">
        <ele>788</ele>
        <time>2017-04-16T14:04:56.000Z</time>
      </trkpt>
      <trkpt lat="43.58622" lon="2.90854">
        <ele>787.2</ele>
        <time>2017-04-16T14:04:57.000Z</time>
      </trkpt>
      <trkpt lat="43.58622" lon="2.90847">
        <ele>786.4</ele>
        <time>2017-04-16T14:04:58.000Z</time>
      </trkpt>
      <trkpt lat="43.58617" lon="2.90826">
        <ele>784.8</ele>
        <time>2017-04-16T14:05:00.000Z</time>
      </trkpt>
      <trkpt lat="43.58617" lon="2.90817">
        <ele>784</ele>
        <time>2017-04-16T14:05:01.000Z</time>
      </trkpt>
      <trkpt lat="43.5862" lon="2.90805">
        <ele>782.4</ele>
        <time>2017-04-16T14:05:03.000Z</time>
      </trkpt>
      <trkpt lat="43.58624" lon="2.90798">
        <ele>781.4</ele>
        <time>2017-04-16T14:05:04.000Z</time>
      </trkpt>
      <trkpt lat="43.58626" lon="2.9079">
        <ele>780.6</ele>
        <time>2017-04-16T14:05:05.000Z</time>
      </trkpt>
      <trkpt lat="43.58627" lon="2.90784">
        <ele>780</ele>
        <time>2017-04-16T14:05:06.000Z</time>
      </trkpt>
      <trkpt lat="43.58626" lon="2.9077">
        <ele>778.8</ele>
        <time>2017-04-16T14:05:08.000Z</time>
      </trkpt>
      <trkpt lat="43.58624" lon="2.90763">
        <ele>777.6</ele>
        <time>2017-04-16T14:05:10.000Z</time>
      </trkpt>
      <trkpt lat="43.58621" lon="2.90761">
        <ele>776.4</ele>
        <time>2017-04-16T14:05:12.000Z</time>
      </trkpt>
      <trkpt lat="43.58621" lon="2.90774">
        <ele>775.4</ele>
        <time>2017-04-16T14:05:14.000Z</time>
      </trkpt>
      <trkpt lat="43.58619" lon="2.90783">
        <ele>774.6</ele>
        <time>2017-04-16T14:05:15.000Z</time>
      </trkpt>
      <trkpt lat="43.58615" lon="2.90791">
        <ele>774</ele>
        <time>2017-04-16T14:05:16.000Z</time>
      </trkpt>
      <trkpt lat="43.5861" lon="2.908">
        <ele>773.6</ele>
        <time>2017-04-16T14:05:17.000Z</time>
      </trkpt>
      <trkpt lat="43.58604" lon="2.90805">
        <ele>772.8</ele>
        <time>2017-04-16T14:05:18.000Z</time>
      </trkpt>
      <trkpt lat="43.58595" lon="2.90817">
        <ele>771.6</ele>
        <time>2017-04-16T14:05:20.000Z</time>
      </trkpt>
      <trkpt lat="43.58596" lon="2.90827">
        <ele>770.8</ele>
        <time>2017-04-16T14:05:21.000Z</time>
      </trkpt>
      <trkpt lat="43.58589" lon="2.90842">
        <ele>769.2</ele>
        <time>2017-04-16T14:05:23.000Z</time>
      </trkpt>
      <trkpt lat="43.58577" lon="2.90851">
        <ele>767.4</ele>
        <time>2017-04-16T14:05:25.000Z</time>
      </trkpt>
      <trkpt lat="43.58567" lon="2.90859">
        <ele>765.6</ele>
        <time>2017-04-16T14:05:27.000Z</time>
      </trkpt>
      <trkpt lat="43.58562" lon="2.90864">
        <ele>764.6</ele>
        <time>2017-04-16T14:05:28.000Z</time>
      </trkpt>
      <trkpt lat="43.58558" lon="2.9087">
        <ele>763.4</ele>
        <time>2017-04-16T14:05:29.000Z</time>
      </trkpt>
      <trkpt lat="43.58552" lon="2.90879">
        <ele>762.4</ele>
        <time>2017-04-16T14:05:30.000Z</time>
      </trkpt>
      <trkpt lat="43.58534" lon="2.90905">
        <ele>759</ele>
        <time>2017-04-16T14:05:33.000Z</time>
      </trkpt>
      <trkpt lat="43.58527" lon="2.90911">
        <ele>758</ele>
        <time>2017-04-16T14:05:34.000Z</time>
      </trkpt>
      <trkpt lat="43.58518" lon="2.90917">
        <ele>755.8</ele>
        <time>2017-04-16T14:05:36.000Z</time>
      </trkpt>
      <trkpt lat="43.58518" lon="2.90909">
        <ele>752</ele>
        <time>2017-04-16T14:05:39.000Z</time>
      </trkpt>
      <trkpt lat="43.58524" lon="2.90898">
        <ele>750</ele>
        <time>2017-04-16T14:05:41.000Z</time>
      </trkpt>
      <trkpt lat="43.58528" lon="2.90892">
        <ele>748.8</ele>
        <time>2017-04-16T14:05:42.000Z</time>
      </trkpt>
      <trkpt lat="43.58533" lon="2.90875">
        <ele>746.8</ele>
        <time>2017-04-16T14:05:44.000Z</time>
      </trkpt>
      <trkpt lat="43.58536" lon="2.90858">
        <ele>745</ele>
        <time>2017-04-16T14:05:46.000Z</time>
      </trkpt>
      <trkpt lat="43.58539" lon="2.9084">
        <ele>743.2</ele>
        <time>2017-04-16T14:05:48.000Z</time>
      </trkpt>
      <trkpt lat="43.5854" lon="2.9083">
        <ele>742.2</ele>
        <time>2017-04-16T14:05:49.000Z</time>
      </trkpt>
      <trkpt lat="43.58544" lon="2.90812">
        <ele>740.2</ele>
        <time>2017-04-16T14:05:51.000Z</time>
      </trkpt>
      <trkpt lat="43.58547" lon="2.90802">
        <ele>738</ele>
        <time>2017-04-16T14:05:53.000Z</time>
      </trkpt>
      <trkpt lat="43.58547" lon="2.90802">
        <ele>737</ele>
        <time>2017-04-16T14:05:54.000Z</time>
      </trkpt>
      <trkpt lat="43.58545" lon="2.90803">
        <ele>735.8</ele>
        <time>2017-04-16T14:05:55.000Z</time>
      </trkpt>
      <trkpt lat="43.58541" lon="2.9081">
        <ele>733.8</ele>
        <time>2017-04-16T14:05:57.000Z</time>
      </trkpt>
      <trkpt lat="43.58537" lon="2.90815">
        <ele>732.6</ele>
        <time>2017-04-16T14:05:58.000Z</time>
      </trkpt>
      <trkpt lat="43.58534" lon="2.90819">
        <ele>731.8</ele>
        <time>2017-04-16T14:05:59.000Z</time>
      </trkpt>
      <trkpt lat="43.58531" lon="2.90826">
        <ele>730.8</ele>
        <time>2017-04-16T14:06:00.000Z</time>
      </trkpt>
      <trkpt lat="43.58527" lon="2.90831">
        <ele>729.8</ele>
        <time>2017-04-16T14:06:01.000Z</time>
      </trkpt>
      <trkpt lat="43.58519" lon="2.90847">
        <ele>728.2</ele>
        <time>2017-04-16T14:06:03.000Z</time>
      </trkpt>
      <trkpt lat="43.58515" lon="2.90855">
        <ele>727.2</ele>
        <time>2017-04-16T14:06:04.000Z</time>
      </trkpt>
      <trkpt lat="43.58509" lon="2.90868">
        <ele>725.2</ele>
        <time>2017-04-16T14:06:06.000Z</time>
      </trkpt>
      <trkpt lat="43.58507" lon="2.90869">
        <ele>724.2</ele>
        <time>2017-04-16T14:06:07.000Z</time>
      </trkpt>
      <trkpt lat="43.585" lon="2.90866">
        <ele>721.2</ele>
        <time>2017-04-16T14:06:10.000Z</time>
      </trkpt>
      <trkpt lat="43.585" lon="2.90859">
        <ele>720.2</ele>
        <time>2017-04-16T14:06:11.000Z</time>
      </trkpt>
      <trkpt lat="43.58505" lon="2.90848">
        <ele>718.4</ele>
        <time>2017-04-16T14:06:13.000Z</time>
      </trkpt>
      <trkpt lat="43.58509" lon="2.90835">
        <ele>717.4</ele>
        <time>2017-04-16T14:06:14.000Z</time>
      </trkpt>
      <trkpt lat="43.58513" lon="2.90816">
        <ele>715.8</ele>
        <time>2017-04-16T14:06:16.000Z</time>
      </trkpt>
      <trkpt lat="43.58516" lon="2.90807">
        <ele>714.8</ele>
        <time>2017-04-16T14:06:17.000Z</time>
      </trkpt>
      <trkpt lat="43.58519" lon="2.90798">
        <ele>714</ele>
        <time>2017-04-16T14:06:18.000Z</time>
      </trkpt>
      <trkpt lat="43.58515" lon="2.90788">
        <ele>710.8</ele>
        <time>2017-04-16T14:06:21.000Z</time>
      </trkpt>
      <trkpt lat="43.58504" lon="2.90793">
        <ele>709</ele>
        <time>2017-04-16T14:06:23.000Z</time>
      </trkpt>
      <trkpt lat="43.58494" lon="2.90805">
        <ele>707.2</ele>
        <time>2017-04-16T14:06:25.000Z</time>
      </trkpt>
      <trkpt lat="43.58487" lon="2.90813">
        <ele>706.4</ele>
        <time>2017-04-16T14:06:26.000Z</time>
      </trkpt>
      <trkpt lat="43.58479" lon="2.90821">
        <ele>705.4</ele>
        <time>2017-04-16T14:06:27.000Z</time>
      </trkpt>
      <trkpt lat="43.58459" lon="2.90837">
        <ele>703.4</ele>
        <time>2017-04-16T14:06:29.000Z</time>
      </trkpt>
      <trkpt lat="43.58454" lon="2.90842">
        <ele>702.4</ele>
        <time>2017-04-16T14:06:30.000Z</time>
      </trkpt>
      <trkpt lat="43.58441" lon="2.90862">
        <ele>698.6</ele>
        <time>2017-04-16T14:06:33.000Z</time>
      </trkpt>
      <trkpt lat="43.58431" lon="2.90883">
        <ele>696</ele>
        <time>2017-04-16T14:06:35.000Z</time>
      </trkpt>
      <trkpt lat="43.58425" lon="2.90891">
        <ele>694.6</ele>
        <time>2017-04-16T14:06:36.000Z</time>
      </trkpt>
      <trkpt lat="43.58418" lon="2.90897">
        <ele>693.4</ele>
        <time>2017-04-16T14:06:37.000Z</time>
      </trkpt>
      <trkpt lat="43.58406" lon="2.90922">
        <ele>689.4</ele>
        <time>2017-04-16T14:06:40.000Z</time>
      </trkpt>
      <trkpt lat="43.58399" lon="2.90929">
        <ele>688.2</ele>
        <time>2017-04-16T14:06:41.000Z</time>
      </trkpt>
      <trkpt lat="43.58391" lon="2.90934">
        <ele>686.8</ele>
        <time>2017-04-16T14:06:42.000Z</time>
      </trkpt>
      <trkpt lat="43.58374" lon="2.90936">
        <ele>684.2</ele>
        <time>2017-04-16T14:06:44.000Z</time>
      </trkpt>
      <trkpt lat="43.58363" lon="2.90936">
        <ele>681.6</ele>
        <time>2017-04-16T14:06:46.000Z</time>
      </trkpt>
      <trkpt lat="43.58363" lon="2.9094">
        <ele>680.4</ele>
        <time>2017-04-16T14:06:47.000Z</time>
      </trkpt>
      <trkpt lat="43.58362" lon="2.9094">
        <ele>679.4</ele>
        <time>2017-04-16T14:06:48.000Z</time>
      </trkpt>
      <trkpt lat="43.58363" lon="2.90943">
        <ele>678</ele>
        <time>2017-04-16T14:06:49.000Z</time>
      </trkpt>
      <trkpt lat="43.58369" lon="2.90941">
        <ele>676.8</ele>
        <time>2017-04-16T14:06:50.000Z</time>
      </trkpt>
      <trkpt lat="43.58387" lon="2.90935">
        <ele>673.8</ele>
        <time>2017-04-16T14:06:53.000Z</time>
      </trkpt>
      <trkpt lat="43.58394" lon="2.90933">
        <ele>672.8</ele>
        <time>2017-04-16T14:06:54.000Z</time>
      </trkpt>
      <trkpt lat="43.58399" lon="2.90926">
        <ele>671</ele>
        <time>2017-04-16T14:06:56.000Z</time>
      </trkpt>
      <trkpt lat="43.584" lon="2.90916">
        <ele>669</ele>
        <time>2017-04-16T14:06:58.000Z</time>
      </trkpt>
      <trkpt lat="43.58399" lon="2.90908">
        <ele>668</ele>
        <time>2017-04-16T14:06:59.000Z</time>
      </trkpt>
      <trkpt lat="43.58399" lon="2.90902">
        <ele>667</ele>
        <time>2017-04-16T14:07:00.000Z</time>
      </trkpt>
      <trkpt lat="43.584" lon="2.90895">
        <ele>666</ele>
        <time>2017-04-16T14:07:01.000Z</time>
      </trkpt>
      <trkpt lat="43.58403" lon="2.90887">
        <ele>665</ele>
        <time>2017-04-16T14:07:02.000Z</time>
      </trkpt>
      <trkpt lat="43.58408" lon="2.90879">
        <ele>664</ele>
        <time>2017-04-16T14:07:03.000Z</time>
      </trkpt>
      <trkpt lat="43.58411" lon="2.90874">
        <ele>663</ele>
        <time>2017-04-16T14:07:04.000Z</time>
      </trkpt>
      <trkpt lat="43.58412" lon="2.9087">
        <ele>662</ele>
        <time>2017-04-16T14:07:05.000Z</time>
      </trkpt>
      <trkpt lat="43.58404" lon="2.90868">
        <ele>659</ele>
        <time>2017-04-16T14:07:08.000Z</time>
      </trkpt>
      <trkpt lat="43.58397" lon="2.90872">
        <ele>658</ele>
        <time>2017-04-16T14:07:09.000Z</time>
      </trkpt>
      <trkpt lat="43.58383" lon="2.90881">
        <ele>655.8</ele>
        <time>2017-04-16T14:07:11.000Z</time>
      </trkpt>
      <trkpt lat="43.58374" lon="2.90886">
        <ele>654.8</ele>
        <time>2017-04-16T14:07:12.000Z</time>
      </trkpt>
      <trkpt lat="43.58367" lon="2.90888">
        <ele>653.4</ele>
        <time>2017-04-16T14:07:13.000Z</time>
      </trkpt>
      <trkpt lat="43.58352" lon="2.90894">
        <ele>651</ele>
        <time>2017-04-16T14:07:15.000Z</time>
      </trkpt>
      <trkpt lat="43.58336" lon="2.90903">
        <ele>648.6</ele>
        <time>2017-04-16T14:07:17.000Z</time>
      </trkpt>
      <trkpt lat="43.58329" lon="2.9091">
        <ele>647.4</ele>
        <time>2017-04-16T14:07:18.000Z</time>
      </trkpt>
      <trkpt lat="43.58321" lon="2.90916">
        <ele>646</ele>
        <time>2017-04-16T14:07:19.000Z</time>
      </trkpt>
      <trkpt lat="43.58313" lon="2.90922">
        <ele>644.8</ele>
        <time>2017-04-16T14:07:20.000Z</time>
      </trkpt>
      <trkpt lat="43.58292" lon="2.90936">
        <ele>640.6</ele>
        <time>2017-04-16T14:07:23.000Z</time>
      </trkpt>
      <trkpt lat="43.58284" lon="2.90938">
        <ele>639.4</ele>
        <time>2017-04-16T14:07:24.000Z</time>
      </trkpt>
      <trkpt lat="43.58258" lon="2.90945">
        <ele>635.6</ele>
        <time>2017-04-16T14:07:27.000Z</time>
      </trkpt>
      <trkpt lat="43.58252" lon="2.90941">
        <ele>634.4</ele>
        <time>2017-04-16T14:07:28.000Z</time>
      </trkpt>
      <trkpt lat="43.58244" lon="2.90938">
        <ele>633.2</ele>
        <time>2017-04-16T14:07:29.000Z</time>
      </trkpt>
      <trkpt lat="43.58237" lon="2.90934">
        <ele>632</ele>
        <time>2017-04-16T14:07:30.000Z</time>
      </trkpt>
      <trkpt lat="43.5821" lon="2.9093">
        <ele>628.4</ele>
        <time>2017-04-16T14:07:33.000Z</time>
      </trkpt>
      <trkpt lat="43.58201" lon="2.90934">
        <ele>627.4</ele>
        <time>2017-04-16T14:07:34.000Z</time>
      </trkpt>
      <trkpt lat="43.58181" lon="2.90941">
        <ele>625.2</ele>
        <time>2017-04-16T14:07:36.000Z</time>
      </trkpt>
      <trkpt lat="43.58173" lon="2.90941">
        <ele>624.2</ele>
        <time>2017-04-16T14:07:37.000Z</time>
      </trkpt>
      <trkpt lat="43.58156" lon="2.90941">
        <ele>622.2</ele>
        <time>2017-04-16T14:07:39.000Z</time>
      </trkpt>
      <trkpt lat="43.5814" lon="2.90937">
        <ele>620.2</ele>
        <time>2017-04-16T14:07:41.000Z</time>
      </trkpt>
      <trkpt lat="43.58131" lon="2.90935">
        <ele>619.2</ele>
        <time>2017-04-16T14:07:42.000Z</time>
      </trkpt>
      <trkpt lat="43.58122" lon="2.90933">
        <ele>618.2</ele>
        <time>2017-04-16T14:07:43.000Z</time>
      </trkpt>
      <trkpt lat="43.58112" lon="2.90931">
        <ele>617.2</ele>
        <time>2017-04-16T14:07:44.000Z</time>
      </trkpt>
      <trkpt lat="43.58104" lon="2.90928">
        <ele>616.4</ele>
        <time>2017-04-16T14:07:45.000Z</time>
      </trkpt>
      <trkpt lat="43.58094" lon="2.90924">
        <ele>615.4</ele>
        <time>2017-04-16T14:07:46.000Z</time>
      </trkpt>
      <trkpt lat="43.58077" lon="2.90913">
        <ele>614</ele>
        <time>2017-04-16T14:07:48.000Z</time>
      </trkpt>
      <trkpt lat="43.58069" lon="2.9091">
        <ele>613.2</ele>
        <time>2017-04-16T14:07:49.000Z</time>
      </trkpt>
      <trkpt lat="43.58058" lon="2.90904">
        <ele>611.8</ele>
        <time>2017-04-16T14:07:51.000Z</time>
      </trkpt>
      <trkpt lat="43.58057" lon="2.90899">
        <ele>611.2</ele>
        <time>2017-04-16T14:07:52.000Z</time>
      </trkpt>
      <trkpt lat="43.58057" lon="2.90899">
        <ele>610.8</ele>
        <time>2017-04-16T14:07:53.000Z</time>
      </trkpt>
      <trkpt lat="43.58061" lon="2.90899">
        <ele>610</ele>
        <time>2017-04-16T14:07:54.000Z</time>
      </trkpt>
      <trkpt lat="43.58076" lon="2.90902">
        <ele>608.6</ele>
        <time>2017-04-16T14:07:56.000Z</time>
      </trkpt>
      <trkpt lat="43.58081" lon="2.909">
        <ele>607.8</ele>
        <time>2017-04-16T14:07:57.000Z</time>
      </trkpt>
      <trkpt lat="43.58089" lon="2.90899">
        <ele>607</ele>
        <time>2017-04-16T14:07:58.000Z</time>
      </trkpt>
      <trkpt lat="43.58103" lon="2.90895">
        <ele>605</ele>
        <time>2017-04-16T14:08:00.000Z</time>
      </trkpt>
      <trkpt lat="43.58109" lon="2.90892">
        <ele>604.2</ele>
        <time>2017-04-16T14:08:01.000Z</time>
      </trkpt>
      <trkpt lat="43.58115" lon="2.90889">
        <ele>603</ele>
        <time>2017-04-16T14:08:02.000Z</time>
      </trkpt>
      <trkpt lat="43.58128" lon="2.90883">
        <ele>600.8</ele>
        <time>2017-04-16T14:08:04.000Z</time>
      </trkpt>
      <trkpt lat="43.58142" lon="2.90877">
        <ele>598.4</ele>
        <time>2017-04-16T14:08:06.000Z</time>
      </trkpt>
      <trkpt lat="43.58149" lon="2.90873">
        <ele>597.4</ele>
        <time>2017-04-16T14:08:07.000Z</time>
      </trkpt>
      <trkpt lat="43.58168" lon="2.90863">
        <ele>593.6</ele>
        <time>2017-04-16T14:08:10.000Z</time>
      </trkpt>
      <trkpt lat="43.5818" lon="2.90856">
        <ele>591</ele>
        <time>2017-04-16T14:08:12.000Z</time>
      </trkpt>
      <trkpt lat="43.58183" lon="2.90849">
        <ele>589.8</ele>
        <time>2017-04-16T14:08:13.000Z</time>
      </trkpt>
      <trkpt lat="43.58186" lon="2.90843">
        <ele>588.6</ele>
        <time>2017-04-16T14:08:14.000Z</time>
      </trkpt>
      <trkpt lat="43.58189" lon="2.90836">
        <ele>586</ele>
        <time>2017-04-16T14:08:16.000Z</time>
      </trkpt>
      <trkpt lat="43.58184" lon="2.90833">
        <ele>583.4</ele>
        <time>2017-04-16T14:08:18.000Z</time>
      </trkpt>
      <trkpt lat="43.58172" lon="2.90835">
        <ele>581</ele>
        <time>2017-04-16T14:08:20.000Z</time>
      </trkpt>
      <trkpt lat="43.58167" lon="2.90834">
        <ele>580</ele>
        <time>2017-04-16T14:08:21.000Z</time>
      </trkpt>
      <trkpt lat="43.58161" lon="2.90829">
        <ele>577.8</ele>
        <time>2017-04-16T14:08:23.000Z</time>
      </trkpt>
      <trkpt lat="43.58157" lon="2.90824">
        <ele>576.8</ele>
        <time>2017-04-16T14:08:24.000Z</time>
      </trkpt>
      <trkpt lat="43.5815" lon="2.90814">
        <ele>574.6</ele>
        <time>2017-04-16T14:08:26.000Z</time>
      </trkpt>
      <trkpt lat="43.58139" lon="2.90801">
        <ele>572.2</ele>
        <time>2017-04-16T14:08:28.000Z</time>
      </trkpt>
      <trkpt lat="43.58135" lon="2.90797">
        <ele>571.2</ele>
        <time>2017-04-16T14:08:29.000Z</time>
      </trkpt>
      <trkpt lat="43.58129" lon="2.90793">
        <ele>570</ele>
        <time>2017-04-16T14:08:30.000Z</time>
      </trkpt>
      <trkpt lat="43.58119" lon="2.90786">
        <ele>567.6</ele>
        <time>2017-04-16T14:08:32.000Z</time>
      </trkpt>
      <trkpt lat="43.58115" lon="2.90783">
        <ele>566.4</ele>
        <time>2017-04-16T14:08:33.000Z</time>
      </trkpt>
      <trkpt lat="43.58109" lon="2.90768">
        <ele>564.2</ele>
        <time>2017-04-16T14:08:35.000Z</time>
      </trkpt>
      <trkpt lat="43.58105" lon="2.90761">
        <ele>563.2</ele>
        <time>2017-04-16T14:08:36.000Z</time>
      </trkpt>
      <trkpt lat="43.58099" lon="2.90752">
        <ele>562</ele>
        <time>2017-04-16T14:08:37.000Z</time>
      </trkpt>
      <trkpt lat="43.58088" lon="2.90738">
        <ele>560.2</ele>
        <time>2017-04-16T14:08:39.000Z</time>
      </trkpt>
      <trkpt lat="43.58082" lon="2.90734">
        <ele>559</ele>
        <time>2017-04-16T14:08:40.000Z</time>
      </trkpt>
      <trkpt lat="43.58077" lon="2.90731">
        <ele>558</ele>
        <time>2017-04-16T14:08:41.000Z</time>
      </trkpt>
      <trkpt lat="43.58065" lon="2.90726">
        <ele>554.6</ele>
        <time>2017-04-16T14:08:44.000Z</time>
      </trkpt>
      <trkpt lat="43.58061" lon="2.90723">
        <ele>553.6</ele>
        <time>2017-04-16T14:08:45.000Z</time>
      </trkpt>
      <trkpt lat="43.58042" lon="2.90707">
        <ele>550.2</ele>
        <time>2017-04-16T14:08:48.000Z</time>
      </trkpt>
      <trkpt lat="43.5803" lon="2.90696">
        <ele>548</ele>
        <time>2017-04-16T14:08:50.000Z</time>
      </trkpt>
      <trkpt lat="43.58023" lon="2.90694">
        <ele>546.8</ele>
        <time>2017-04-16T14:08:51.000Z</time>
      </trkpt>
      <trkpt lat="43.58018" lon="2.90692">
        <ele>545.6</ele>
        <time>2017-04-16T14:08:52.000Z</time>
      </trkpt>
      <trkpt lat="43.58005" lon="2.9069">
        <ele>543.2</ele>
        <time>2017-04-16T14:08:54.000Z</time>
      </trkpt>
      <trkpt lat="43.58002" lon="2.9069">
        <ele>542</ele>
        <time>2017-04-16T14:08:55.000Z</time>
      </trkpt>
      <trkpt lat="43.58" lon="2.90687">
        <ele>540.8</ele>
        <time>2017-04-16T14:08:56.000Z</time>
      </trkpt>
      <trkpt lat="43.58002" lon="2.90681">
        <ele>538.4</ele>
        <time>2017-04-16T14:08:58.000Z</time>
      </trkpt>
      <trkpt lat="43.58006" lon="2.90678">
        <ele>537.4</ele>
        <time>2017-04-16T14:08:59.000Z</time>
      </trkpt>
      <trkpt lat="43.58022" lon="2.9067">
        <ele>534.6</ele>
        <time>2017-04-16T14:09:02.000Z</time>
      </trkpt>
      <trkpt lat="43.58034" lon="2.90663">
        <ele>533</ele>
        <time>2017-04-16T14:09:04.000Z</time>
      </trkpt>
      <trkpt lat="43.58039" lon="2.90662">
        <ele>532.2</ele>
        <time>2017-04-16T14:09:05.000Z</time>
      </trkpt>
      <trkpt lat="43.58043" lon="2.9066">
        <ele>531.6</ele>
        <time>2017-04-16T14:09:06.000Z</time>
      </trkpt>
      <trkpt lat="43.58048" lon="2.90658">
        <ele>530.6</ele>
        <time>2017-04-16T14:09:07.000Z</time>
      </trkpt>
      <trkpt lat="43.58056" lon="2.90656">
        <ele>529</ele>
        <time>2017-04-16T14:09:09.000Z</time>
      </trkpt>
      <trkpt lat="43.58062" lon="2.90657">
        <ele>528.4</ele>
        <time>2017-04-16T14:09:10.000Z</time>
      </trkpt>
      <trkpt lat="43.58064" lon="2.90658">
        <ele>527.6</ele>
        <time>2017-04-16T14:09:11.000Z</time>
      </trkpt>
      <trkpt lat="43.58065" lon="2.90656">
        <ele>526</ele>
        <time>2017-04-16T14:09:13.000Z</time>
      </trkpt>
      <trkpt lat="43.58063" lon="2.90655">
        <ele>524.4</ele>
        <time>2017-04-16T14:09:15.000Z</time>
      </trkpt>
      <trkpt lat="43.58064" lon="2.90653">
        <ele>523.6</ele>
        <time>2017-04-16T14:09:16.000Z</time>
      </trkpt>
      <trkpt lat="43.58064" lon="2.90652">
        <ele>522</ele>
        <time>2017-04-16T14:09:18.000Z</time>
      </trkpt>
      <trkpt lat="43.58064" lon="2.9065">
        <ele>521.2</ele>
        <time>2017-04-16T14:09:19.000Z</time>
      </trkpt>
      <trkpt lat="43.58061" lon="2.90643">
        <ele>519.6</ele>
        <time>2017-04-16T14:09:21.000Z</time>
      </trkpt>
      <trkpt lat="43.58054" lon="2.90641">
        <ele>518</ele>
        <time>2017-04-16T14:09:23.000Z</time>
      </trkpt>
      <trkpt lat="43.58046" lon="2.9064">
        <ele>516.4</ele>
        <time>2017-04-16T14:09:25.000Z</time>
      </trkpt>
      <trkpt lat="43.5804" lon="2.90644">
        <ele>515</ele>
        <time>2017-04-16T14:09:27.000Z</time>
      </trkpt>
      <trkpt lat="43.58037" lon="2.90643">
        <ele>514.4</ele>
        <time>2017-04-16T14:09:28.000Z</time>
      </trkpt>
      <trkpt lat="43.58029" lon="2.90644">
        <ele>513.4</ele>
        <time>2017-04-16T14:09:30.000Z</time>
      </trkpt>
      <trkpt lat="43.58024" lon="2.90645">
        <ele>513</ele>
        <time>2017-04-16T14:09:31.000Z</time>
      </trkpt>
      <trkpt lat="43.58019" lon="2.90644">
        <ele>512.6</ele>
        <time>2017-04-16T14:09:32.000Z</time>
      </trkpt>
      <trkpt lat="43.58014" lon="2.90644">
        <ele>512.2</ele>
        <time>2017-04-16T14:09:33.000Z</time>
      </trkpt>
      <trkpt lat="43.58003" lon="2.90643">
        <ele>511.4</ele>
        <time>2017-04-16T14:09:35.000Z</time>
      </trkpt>
      <trkpt lat="43.57995" lon="2.90637">
        <ele>510.8</ele>
        <time>2017-04-16T14:09:36.000Z</time>
      </trkpt>
      <trkpt lat="43.57982" lon="2.90636">
        <ele>509.6</ele>
        <time>2017-04-16T14:09:38.000Z</time>
      </trkpt>
      <trkpt lat="43.57976" lon="2.90636">
        <ele>508.8</ele>
        <time>2017-04-16T14:09:39.000Z</time>
      </trkpt>
      <trkpt lat="43.57964" lon="2.90641">
        <ele>507.2</ele>
        <time>2017-04-16T14:09:41.000Z</time>
      </trkpt>
      <trkpt lat="43.57959" lon="2.90642">
        <ele>506.4</ele>
        <time>2017-04-16T14:09:42.000Z</time>
      </trkpt>
      <trkpt lat="43.57941" lon="2.90646">
        <ele>503.6</ele>
        <time>2017-04-16T14:09:45.000Z</time>
      </trkpt>
      <trkpt lat="43.57927" lon="2.90652">
        <ele>502</ele>
        <time>2017-04-16T14:09:47.000Z</time>
      </trkpt>
      <trkpt lat="43.5792" lon="2.90652">
        <ele>501</ele>
        <time>2017-04-16T14:09:48.000Z</time>
      </trkpt>
      <trkpt lat="43.57905" lon="2.90653">
        <ele>499</ele>
        <time>2017-04-16T14:09:50.000Z</time>
      </trkpt>
      <trkpt lat="43.57893" lon="2.90656">
        <ele>497</ele>
        <time>2017-04-16T14:09:52.000Z</time>
      </trkpt>
      <trkpt lat="43.57881" lon="2.90659">
        <ele>494.8</ele>
        <time>2017-04-16T14:09:54.000Z</time>
      </trkpt>
      <trkpt lat="43.57877" lon="2.90661">
        <ele>493.8</ele>
        <time>2017-04-16T14:09:55.000Z</time>
      </trkpt>
      <trkpt lat="43.57865" lon="2.90676">
        <ele>490.4</ele>
        <time>2017-04-16T14:09:58.000Z</time>
      </trkpt>
      <trkpt lat="43.57859" lon="2.90683">
        <ele>489.4</ele>
        <time>2017-04-16T14:09:59.000Z</time>
      </trkpt>
      <trkpt lat="43.57846" lon="2.90695">
        <ele>487.4</ele>
        <time>2017-04-16T14:10:01.000Z</time>
      </trkpt>
      <trkpt lat="43.57838" lon="2.90698">
        <ele>486.4</ele>
        <time>2017-04-16T14:10:02.000Z</time>
      </trkpt>
      <trkpt lat="43.57824" lon="2.90707">
        <ele>484.2</ele>
        <time>2017-04-16T14:10:04.000Z</time>
      </trkpt>
      <trkpt lat="43.57819" lon="2.90711">
        <ele>482</ele>
        <time>2017-04-16T14:10:06.000Z</time>
      </trkpt>
      <trkpt lat="43.57819" lon="2.9071">
        <ele>481</ele>
        <time>2017-04-16T14:10:07.000Z</time>
      </trkpt>
      <trkpt lat="43.57821" lon="2.90709">
        <ele>480.2</ele>
        <time>2017-04-16T14:10:08.000Z</time>
      </trkpt>
      <trkpt lat="43.57824" lon="2.90707">
        <ele>479.2</ele>
        <time>2017-04-16T14:10:09.000Z</time>
      </trkpt>
      <trkpt lat="43.57828" lon="2.90702">
        <ele>478.2</ele>
        <time>2017-04-16T14:10:10.000Z</time>
      </trkpt>
      <trkpt lat="43.57836" lon="2.9069">
        <ele>476.6</ele>
        <time>2017-04-16T14:10:12.000Z</time>
      </trkpt>
      <trkpt lat="43.57848" lon="2.90672">
        <ele>474</ele>
        <time>2017-04-16T14:10:15.000Z</time>
      </trkpt>
      <trkpt lat="43.57846" lon="2.90668">
        <ele>473.2</ele>
        <time>2017-04-16T14:10:16.000Z</time>
      </trkpt>
      <trkpt lat="43.57839" lon="2.90673">
        <ele>471.4</ele>
        <time>2017-04-16T14:10:18.000Z</time>
      </trkpt>
      <trkpt lat="43.57832" lon="2.90671">
        <ele>469.4</ele>
        <time>2017-04-16T14:10:20.000Z</time>
      </trkpt>
      <trkpt lat="43.57833" lon="2.90668">
        <ele>467.8</ele>
        <time>2017-04-16T14:10:22.000Z</time>
      </trkpt>
      <trkpt lat="43.57833" lon="2.90666">
        <ele>466.8</ele>
        <time>2017-04-16T14:10:23.000Z</time>
      </trkpt>
      <trkpt lat="43.57834" lon="2.90664">
        <ele>466</ele>
        <time>2017-04-16T14:10:24.000Z</time>
      </trkpt>
      <trkpt lat="43.57835" lon="2.90665">
        <ele>464.4</ele>
        <time>2017-04-16T14:10:26.000Z</time>
      </trkpt>
      <trkpt lat="43.57834" lon="2.90665">
        <ele>463.6</ele>
        <time>2017-04-16T14:10:27.000Z</time>
      </trkpt>
      <trkpt lat="43.57832" lon="2.90666">
        <ele>462.8</ele>
        <time>2017-04-16T14:10:28.000Z</time>
      </trkpt>
      <trkpt lat="43.5783" lon="2.90664">
        <ele>461.8</ele>
        <time>2017-04-16T14:10:29.000Z</time>
      </trkpt>
      <trkpt lat="43.57823" lon="2.90664">
        <ele>461</ele>
        <time>2017-04-16T14:10:30.000Z</time>
      </trkpt>
      <trkpt lat="43.57818" lon="2.90665">
        <ele>460.4</ele>
        <time>2017-04-16T14:10:31.000Z</time>
      </trkpt>
      <trkpt lat="43.57813" lon="2.90669">
        <ele>459.4</ele>
        <time>2017-04-16T14:10:32.000Z</time>
      </trkpt>
      <trkpt lat="43.57803" lon="2.9068">
        <ele>457.8</ele>
        <time>2017-04-16T14:10:34.000Z</time>
      </trkpt>
      <trkpt lat="43.57799" lon="2.90683">
        <ele>456.8</ele>
        <time>2017-04-16T14:10:35.000Z</time>
      </trkpt>
      <trkpt lat="43.57794" lon="2.9068">
        <ele>455.2</ele>
        <time>2017-04-16T14:10:37.000Z</time>
      </trkpt>
      <trkpt lat="43.57791" lon="2.90673">
        <ele>454.4</ele>
        <time>2017-04-16T14:10:38.000Z</time>
      </trkpt>
      <trkpt lat="43.57782" lon="2.90661">
        <ele>452.8</ele>
        <time>2017-04-16T14:10:40.000Z</time>
      </trkpt>
      <trkpt lat="43.57779" lon="2.9066">
        <ele>452.2</ele>
        <time>2017-04-16T14:10:41.000Z</time>
      </trkpt>
      <trkpt lat="43.57768" lon="2.90663">
        <ele>450.6</ele>
        <time>2017-04-16T14:10:43.000Z</time>
      </trkpt>
      <trkpt lat="43.57765" lon="2.90668">
        <ele>449.8</ele>
        <time>2017-04-16T14:10:44.000Z</time>
      </trkpt>
      <trkpt lat="43.5776" lon="2.90672">
        <ele>448.4</ele>
        <time>2017-04-16T14:10:46.000Z</time>
      </trkpt>
      <trkpt lat="43.57757" lon="2.90675">
        <ele>447.8</ele>
        <time>2017-04-16T14:10:47.000Z</time>
      </trkpt>
      <trkpt lat="43.57749" lon="2.90676">
        <ele>445.8</ele>
        <time>2017-04-16T14:10:50.000Z</time>
      </trkpt>
      <trkpt lat="43.57744" lon="2.90677">
        <ele>444.4</ele>
        <time>2017-04-16T14:10:52.000Z</time>
      </trkpt>
      <trkpt lat="43.57741" lon="2.90678">
        <ele>443.6</ele>
        <time>2017-04-16T14:10:53.000Z</time>
      </trkpt>
      <trkpt lat="43.57737" lon="2.9068">
        <ele>442.2</ele>
        <time>2017-04-16T14:10:55.000Z</time>
      </trkpt>
      <trkpt lat="43.57735" lon="2.9068">
        <ele>441.4</ele>
        <time>2017-04-16T14:10:56.000Z</time>
      </trkpt>
      <trkpt lat="43.57733" lon="2.9068">
        <ele>440.6</ele>
        <time>2017-04-16T14:10:57.000Z</time>
      </trkpt>
      <trkpt lat="43.57731" lon="2.9068">
        <ele>440</ele>
        <time>2017-04-16T14:10:58.000Z</time>
      </trkpt>
      <trkpt lat="43.57729" lon="2.90681">
        <ele>439.2</ele>
        <time>2017-04-16T14:10:59.000Z</time>
      </trkpt>
      <trkpt lat="43.57724" lon="2.90684">
        <ele>437.6</ele>
        <time>2017-04-16T14:11:01.000Z</time>
      </trkpt>
      <trkpt lat="43.57721" lon="2.90687">
        <ele>436.8</ele>
        <time>2017-04-16T14:11:02.000Z</time>
      </trkpt>
      <trkpt lat="43.57717" lon="2.90697">
        <ele>435.4</ele>
        <time>2017-04-16T14:11:04.000Z</time>
      </trkpt>
      <trkpt lat="43.57713" lon="2.90702">
        <ele>434.6</ele>
        <time>2017-04-16T14:11:05.000Z</time>
      </trkpt>
      <trkpt lat="43.5771" lon="2.90703">
        <ele>433.8</ele>
        <time>2017-04-16T14:11:06.000Z</time>
      </trkpt>
      <trkpt lat="43.57707" lon="2.90704">
        <ele>433</ele>
        <time>2017-04-16T14:11:07.000Z</time>
      </trkpt>
      <trkpt lat="43.57699" lon="2.90706">
        <ele>431.6</ele>
        <time>2017-04-16T14:11:09.000Z</time>
      </trkpt>
      <trkpt lat="43.57696" lon="2.90706">
        <ele>430.6</ele>
        <time>2017-04-16T14:11:10.000Z</time>
      </trkpt>
      <trkpt lat="43.57692" lon="2.90707">
        <ele>430</ele>
        <time>2017-04-16T14:11:11.000Z</time>
      </trkpt>
      <trkpt lat="43.57687" lon="2.9071">
        <ele>429.2</ele>
        <time>2017-04-16T14:11:12.000Z</time>
      </trkpt>
      <trkpt lat="43.57683" lon="2.9071">
        <ele>428.6</ele>
        <time>2017-04-16T14:11:13.000Z</time>
      </trkpt>
      <trkpt lat="43.57677" lon="2.90713">
        <ele>427.8</ele>
        <time>2017-04-16T14:11:14.000Z</time>
      </trkpt>
      <trkpt lat="43.57671" lon="2.9072">
        <ele>427</ele>
        <time>2017-04-16T14:11:15.000Z</time>
      </trkpt>
      <trkpt lat="43.57665" lon="2.90723">
        <ele>426.2</ele>
        <time>2017-04-16T14:11:16.000Z</time>
      </trkpt>
      <trkpt lat="43.5766" lon="2.90726">
        <ele>425.4</ele>
        <time>2017-04-16T14:11:17.000Z</time>
      </trkpt>
      <trkpt lat="43.57649" lon="2.90725">
        <ele>423.8</ele>
        <time>2017-04-16T14:11:19.000Z</time>
      </trkpt>
      <trkpt lat="43.57641" lon="2.90723">
        <ele>422</ele>
        <time>2017-04-16T14:11:21.000Z</time>
      </trkpt>
      <trkpt lat="43.57637" lon="2.90722">
        <ele>421.2</ele>
        <time>2017-04-16T14:11:22.000Z</time>
      </trkpt>
      <trkpt lat="43.57632" lon="2.90721">
        <ele>420.2</ele>
        <time>2017-04-16T14:11:23.000Z</time>
      </trkpt>
      <trkpt lat="43.57628" lon="2.90722">
        <ele>419.2</ele>
        <time>2017-04-16T14:11:24.000Z</time>
      </trkpt>
      <trkpt lat="43.57612" lon="2.90727">
        <ele>416.2</ele>
        <time>2017-04-16T14:11:27.000Z</time>
      </trkpt>
      <trkpt lat="43.57597" lon="2.90731">
        <ele>414.2</ele>
        <time>2017-04-16T14:11:29.000Z</time>
      </trkpt>
      <trkpt lat="43.5759" lon="2.90734">
        <ele>413</ele>
        <time>2017-04-16T14:11:30.000Z</time>
      </trkpt>
      <trkpt lat="43.57586" lon="2.90735">
        <ele>412</ele>
        <time>2017-04-16T14:11:31.000Z</time>
      </trkpt>
      <trkpt lat="43.5758" lon="2.90736">
        <ele>410</ele>
        <time>2017-04-16T14:11:33.000Z</time>
      </trkpt>
      <trkpt lat="43.57574" lon="2.90732">
        <ele>408.4</ele>
        <time>2017-04-16T14:11:35.000Z</time>
      </trkpt>
      <trkpt lat="43.57564" lon="2.90732">
        <ele>407.2</ele>
        <time>2017-04-16T14:11:37.000Z</time>
      </trkpt>
      <trkpt lat="43.57555" lon="2.90733">
        <ele>406.2</ele>
        <time>2017-04-16T14:11:39.000Z</time>
      </trkpt>
      <trkpt lat="43.57551" lon="2.90734">
        <ele>405.6</ele>
        <time>2017-04-16T14:11:40.000Z</time>
      </trkpt>
      <trkpt lat="43.57546" lon="2.90734">
        <ele>405</ele>
        <time>2017-04-16T14:11:41.000Z</time>
      </trkpt>
      <trkpt lat="43.57536" lon="2.90741">
        <ele>403.4</ele>
        <time>2017-04-16T14:11:44.000Z</time>
      </trkpt>
      <trkpt lat="43.57528" lon="2.90746">
        <ele>402.2</ele>
        <time>2017-04-16T14:11:46.000Z</time>
      </trkpt>
      <trkpt lat="43.57516" lon="2.90749">
        <ele>401.4</ele>
        <time>2017-04-16T14:11:48.000Z</time>
      </trkpt>
      <trkpt lat="43.57511" lon="2.90752">
        <ele>401</ele>
        <time>2017-04-16T14:11:49.000Z</time>
      </trkpt>
      <trkpt lat="43.57496" lon="2.90759">
        <ele>399.8</ele>
        <time>2017-04-16T14:11:52.000Z</time>
      </trkpt>
      <trkpt lat="43.57484" lon="2.90764">
        <ele>399</ele>
        <time>2017-04-16T14:11:54.000Z</time>
      </trkpt>
      <trkpt lat="43.57471" lon="2.90769">
        <ele>398.4</ele>
        <time>2017-04-16T14:11:56.000Z</time>
      </trkpt>
      <trkpt lat="43.57466" lon="2.90774">
        <ele>397.8</ele>
        <time>2017-04-16T14:11:57.000Z</time>
      </trkpt>
      <trkpt lat="43.57462" lon="2.90783">
        <ele>397.4</ele>
        <time>2017-04-16T14:11:58.000Z</time>
      </trkpt>
      <trkpt lat="43.57445" lon="2.90792">
        <ele>396.2</ele>
        <time>2017-04-16T14:12:01.000Z</time>
      </trkpt>
      <trkpt lat="43.5744" lon="2.90792">
        <ele>395.4</ele>
        <time>2017-04-16T14:12:03.000Z</time>
      </trkpt>
      <trkpt lat="43.57434" lon="2.90794">
        <ele>394.6</ele>
        <time>2017-04-16T14:12:05.000Z</time>
      </trkpt>
      <trkpt lat="43.57431" lon="2.90795">
        <ele>394.2</ele>
        <time>2017-04-16T14:12:06.000Z</time>
      </trkpt>
      <trkpt lat="43.57425" lon="2.90797">
        <ele>394</ele>
        <time>2017-04-16T14:12:07.000Z</time>
      </trkpt>
      <trkpt lat="43.57418" lon="2.90798">
        <ele>393.4</ele>
        <time>2017-04-16T14:12:09.000Z</time>
      </trkpt>
      <trkpt lat="43.57414" lon="2.908">
        <ele>392.8</ele>
        <time>2017-04-16T14:12:11.000Z</time>
      </trkpt>
      <trkpt lat="43.5741" lon="2.90805">
        <ele>392</ele>
        <time>2017-04-16T14:12:13.000Z</time>
      </trkpt>
      <trkpt lat="43.57409" lon="2.90808">
        <ele>391.6</ele>
        <time>2017-04-16T14:12:14.000Z</time>
      </trkpt>
      <trkpt lat="43.57393" lon="2.90818">
        <ele>390.2</ele>
        <time>2017-04-16T14:12:17.000Z</time>
      </trkpt>
      <trkpt lat="43.57387" lon="2.9082">
        <ele>390</ele>
        <time>2017-04-16T14:12:18.000Z</time>
      </trkpt>
      <trkpt lat="43.57371" lon="2.90824">
        <ele>389</ele>
        <time>2017-04-16T14:12:21.000Z</time>
      </trkpt>
      <trkpt lat="43.57363" lon="2.90828">
        <ele>388.6</ele>
        <time>2017-04-16T14:12:23.000Z</time>
      </trkpt>
      <trkpt lat="43.57359" lon="2.90832">
        <ele>388.2</ele>
        <time>2017-04-16T14:12:24.000Z</time>
      </trkpt>
      <trkpt lat="43.57352" lon="2.9084">
        <ele>387.4</ele>
        <time>2017-04-16T14:12:26.000Z</time>
      </trkpt>
      <trkpt lat="43.5735" lon="2.90842">
        <ele>387.2</ele>
        <time>2017-04-16T14:12:27.000Z</time>
      </trkpt>
      <trkpt lat="43.57348" lon="2.90845">
        <ele>386.6</ele>
        <time>2017-04-16T14:12:28.000Z</time>
      </trkpt>
      <trkpt lat="43.5734" lon="2.90852">
        <ele>385.8</ele>
        <time>2017-04-16T14:12:30.000Z</time>
      </trkpt>
      <trkpt lat="43.57335" lon="2.90855">
        <ele>385.6</ele>
        <time>2017-04-16T14:12:31.000Z</time>
      </trkpt>
      <trkpt lat="43.57323" lon="2.90868">
        <ele>384</ele>
        <time>2017-04-16T14:12:34.000Z</time>
      </trkpt>
      <trkpt lat="43.57317" lon="2.90875">
        <ele>383.6</ele>
        <time>2017-04-16T14:12:35.000Z</time>
      </trkpt>
      <trkpt lat="43.57312" lon="2.9088">
        <ele>383</ele>
        <time>2017-04-16T14:12:36.000Z</time>
      </trkpt>
      <trkpt lat="43.57301" lon="2.90894">
        <ele>382</ele>
        <time>2017-04-16T14:12:38.000Z</time>
      </trkpt>
      <trkpt lat="43.57289" lon="2.90908">
        <ele>381.2</ele>
        <time>2017-04-16T14:12:40.000Z</time>
      </trkpt>
      <trkpt lat="43.57282" lon="2.90912">
        <ele>380.6</ele>
        <time>2017-04-16T14:12:41.000Z</time>
      </trkpt>
      <trkpt lat="43.57277" lon="2.90916">
        <ele>380</ele>
        <time>2017-04-16T14:12:42.000Z</time>
      </trkpt>
      <trkpt lat="43.57269" lon="2.90936">
        <ele>378.6</ele>
        <time>2017-04-16T14:12:45.000Z</time>
      </trkpt>
      <trkpt lat="43.57264" lon="2.90944">
        <ele>378</ele>
        <time>2017-04-16T14:12:46.000Z</time>
      </trkpt>
      <trkpt lat="43.57248" lon="2.90968">
        <ele>375.8</ele>
        <time>2017-04-16T14:12:49.000Z</time>
      </trkpt>
      <trkpt lat="43.57245" lon="2.90976">
        <ele>375</ele>
        <time>2017-04-16T14:12:50.000Z</time>
      </trkpt>
      <trkpt lat="43.57242" lon="2.90981">
        <ele>374.2</ele>
        <time>2017-04-16T14:12:51.000Z</time>
      </trkpt>
      <trkpt lat="43.57234" lon="2.90986">
        <ele>372.4</ele>
        <time>2017-04-16T14:12:53.000Z</time>
      </trkpt>
      <trkpt lat="43.5723" lon="2.90991">
        <ele>371.6</ele>
        <time>2017-04-16T14:12:54.000Z</time>
      </trkpt>
      <trkpt lat="43.57226" lon="2.90998">
        <ele>370.6</ele>
        <time>2017-04-16T14:12:55.000Z</time>
      </trkpt>
      <trkpt lat="43.57218" lon="2.91016">
        <ele>368.6</ele>
        <time>2017-04-16T14:12:57.000Z</time>
      </trkpt>
      <trkpt lat="43.57214" lon="2.91026">
        <ele>367.6</ele>
        <time>2017-04-16T14:12:58.000Z</time>
      </trkpt>
      <trkpt lat="43.5721" lon="2.91059">
        <ele>364.2</ele>
        <time>2017-04-16T14:13:01.000Z</time>
      </trkpt>
      <trkpt lat="43.57209" lon="2.91066">
        <ele>363</ele>
        <time>2017-04-16T14:13:02.000Z</time>
      </trkpt>
      <trkpt lat="43.57205" lon="2.9107">
        <ele>361.8</ele>
        <time>2017-04-16T14:13:03.000Z</time>
      </trkpt>
      <trkpt lat="43.572" lon="2.91077">
        <ele>359.6</ele>
        <time>2017-04-16T14:13:05.000Z</time>
      </trkpt>
      <trkpt lat="43.57198" lon="2.91079">
        <ele>358.2</ele>
        <time>2017-04-16T14:13:06.000Z</time>
      </trkpt>
      <trkpt lat="43.57197" lon="2.91086">
        <ele>357.2</ele>
        <time>2017-04-16T14:13:07.000Z</time>
      </trkpt>
      <trkpt lat="43.57196" lon="2.91091">
        <ele>356</ele>
        <time>2017-04-16T14:13:08.000Z</time>
      </trkpt>
      <trkpt lat="43.57196" lon="2.91102">
        <ele>354</ele>
        <time>2017-04-16T14:13:10.000Z</time>
      </trkpt>
      <trkpt lat="43.57199" lon="2.91106">
        <ele>352.8</ele>
        <time>2017-04-16T14:13:11.000Z</time>
      </trkpt>
      <trkpt lat="43.57201" lon="2.91117">
        <ele>350.8</ele>
        <time>2017-04-16T14:13:13.000Z</time>
      </trkpt>
      <trkpt lat="43.57201" lon="2.91121">
        <ele>349.6</ele>
        <time>2017-04-16T14:13:14.000Z</time>
      </trkpt>
      <trkpt lat="43.57199" lon="2.91126">
        <ele>348.6</ele>
        <time>2017-04-16T14:13:15.000Z</time>
      </trkpt>
      <trkpt lat="43.57195" lon="2.91133">
        <ele>347.4</ele>
        <time>2017-04-16T14:13:16.000Z</time>
      </trkpt>
      <trkpt lat="43.5719" lon="2.91143">
        <ele>345</ele>
        <time>2017-04-16T14:13:18.000Z</time>
      </trkpt>
      <trkpt lat="43.57186" lon="2.91149">
        <ele>342.6</ele>
        <time>2017-04-16T14:13:20.000Z</time>
      </trkpt>
      <trkpt lat="43.57183" lon="2.91149">
        <ele>341.6</ele>
        <time>2017-04-16T14:13:21.000Z</time>
      </trkpt>
      <trkpt lat="43.57165" lon="2.91152">
        <ele>338</ele>
        <time>2017-04-16T14:13:24.000Z</time>
      </trkpt>
      <trkpt lat="43.57158" lon="2.91156">
        <ele>336.8</ele>
        <time>2017-04-16T14:13:25.000Z</time>
      </trkpt>
      <trkpt lat="43.57146" lon="2.91163">
        <ele>334.4</ele>
        <time>2017-04-16T14:13:27.000Z</time>
      </trkpt>
      <trkpt lat="43.57141" lon="2.91167">
        <ele>333.2</ele>
        <time>2017-04-16T14:13:28.000Z</time>
      </trkpt>
      <trkpt lat="43.5713" lon="2.91174">
        <ele>330.6</ele>
        <time>2017-04-16T14:13:30.000Z</time>
      </trkpt>
      <trkpt lat="43.57116" lon="2.91184">
        <ele>326.4</ele>
        <time>2017-04-16T14:13:33.000Z</time>
      </trkpt>
      <trkpt lat="43.57113" lon="2.91188">
        <ele>325.2</ele>
        <time>2017-04-16T14:13:34.000Z</time>
      </trkpt>
      <trkpt lat="43.57108" lon="2.91195">
        <ele>323.8</ele>
        <time>2017-04-16T14:13:35.000Z</time>
      </trkpt>
      <trkpt lat="43.57105" lon="2.91202">
        <ele>322.4</ele>
        <time>2017-04-16T14:13:36.000Z</time>
      </trkpt>
      <trkpt lat="43.57087" lon="2.91215">
        <ele>318.6</ele>
        <time>2017-04-16T14:13:39.000Z</time>
      </trkpt>
      <trkpt lat="43.5708" lon="2.91218">
        <ele>317.4</ele>
        <time>2017-04-16T14:13:40.000Z</time>
      </trkpt>
      <trkpt lat="43.57071" lon="2.91222">
        <ele>315.2</ele>
        <time>2017-04-16T14:13:42.000Z</time>
      </trkpt>
      <trkpt lat="43.57066" lon="2.91226">
        <ele>314.2</ele>
        <time>2017-04-16T14:13:43.000Z</time>
      </trkpt>
      <trkpt lat="43.57064" lon="2.91231">
        <ele>313</ele>
        <time>2017-04-16T14:13:44.000Z</time>
      </trkpt>
      <trkpt lat="43.57059" lon="2.9124">
        <ele>311</ele>
        <time>2017-04-16T14:13:46.000Z</time>
      </trkpt>
      <trkpt lat="43.57054" lon="2.91245">
        <ele>310</ele>
        <time>2017-04-16T14:13:47.000Z</time>
      </trkpt>
      <trkpt lat="43.57049" lon="2.91251">
        <ele>308.8</ele>
        <time>2017-04-16T14:13:48.000Z</time>
      </trkpt>
      <trkpt lat="43.57039" lon="2.91266">
        <ele>306.8</ele>
        <time>2017-04-16T14:13:50.000Z</time>
      </trkpt>
      <trkpt lat="43.57034" lon="2.91273">
        <ele>305.6</ele>
        <time>2017-04-16T14:13:51.000Z</time>
      </trkpt>
      <trkpt lat="43.57026" lon="2.91286">
        <ele>303.4</ele>
        <time>2017-04-16T14:13:53.000Z</time>
      </trkpt>
      <trkpt lat="43.57016" lon="2.91291">
        <ele>299.4</ele>
        <time>2017-04-16T14:13:56.000Z</time>
      </trkpt>
      <trkpt lat="43.57013" lon="2.91293">
        <ele>298.2</ele>
        <time>2017-04-16T14:13:57.000Z</time>
      </trkpt>
      <trkpt lat="43.57003" lon="2.91306">
        <ele>294.6</ele>
        <time>2017-04-16T14:14:00.000Z</time>
      </trkpt>
      <trkpt lat="43.56998" lon="2.91313">
        <ele>293.4</ele>
        <time>2017-04-16T14:14:01.000Z</time>
      </trkpt>
      <trkpt lat="43.56993" lon="2.91321">
        <ele>292.2</ele>
        <time>2017-04-16T14:14:02.000Z</time>
      </trkpt>
      <trkpt lat="43.56989" lon="2.9133">
        <ele>291</ele>
        <time>2017-04-16T14:14:03.000Z</time>
      </trkpt>
      <trkpt lat="43.56983" lon="2.91342">
        <ele>288.8</ele>
        <time>2017-04-16T14:14:05.000Z</time>
      </trkpt>
      <trkpt lat="43.56978" lon="2.91346">
        <ele>287.6</ele>
        <time>2017-04-16T14:14:06.000Z</time>
      </trkpt>
      <trkpt lat="43.56971" lon="2.91361">
        <ele>285.4</ele>
        <time>2017-04-16T14:14:08.000Z</time>
      </trkpt>
      <trkpt lat="43.56966" lon="2.91369">
        <ele>284.2</ele>
        <time>2017-04-16T14:14:09.000Z</time>
      </trkpt>
      <trkpt lat="43.56961" lon="2.91381">
        <ele>282.2</ele>
        <time>2017-04-16T14:14:11.000Z</time>
      </trkpt>
      <trkpt lat="43.56956" lon="2.91394">
        <ele>280.2</ele>
        <time>2017-04-16T14:14:13.000Z</time>
      </trkpt>
      <trkpt lat="43.56954" lon="2.91399">
        <ele>279.2</ele>
        <time>2017-04-16T14:14:14.000Z</time>
      </trkpt>
      <trkpt lat="43.56951" lon="2.91404">
        <ele>278.4</ele>
        <time>2017-04-16T14:14:15.000Z</time>
      </trkpt>
      <trkpt lat="43.56946" lon="2.91408">
        <ele>277.4</ele>
        <time>2017-04-16T14:14:16.000Z</time>
      </trkpt>
      <trkpt lat="43.56935" lon="2.91416">
        <ele>275.8</ele>
        <time>2017-04-16T14:14:18.000Z</time>
      </trkpt>
      <trkpt lat="43.56929" lon="2.91421">
        <ele>275</ele>
        <time>2017-04-16T14:14:19.000Z</time>
      </trkpt>
      <trkpt lat="43.56917" lon="2.91427">
        <ele>273.4</ele>
        <time>2017-04-16T14:14:21.000Z</time>
      </trkpt>
      <trkpt lat="43.56904" lon="2.91429">
        <ele>271.4</ele>
        <time>2017-04-16T14:14:23.000Z</time>
      </trkpt>
      <trkpt lat="43.56899" lon="2.91432">
        <ele>270.6</ele>
        <time>2017-04-16T14:14:24.000Z</time>
      </trkpt>
      <trkpt lat="43.56893" lon="2.91436">
        <ele>269.8</ele>
        <time>2017-04-16T14:14:25.000Z</time>
      </trkpt>
      <trkpt lat="43.56888" lon="2.9144">
        <ele>268.8</ele>
        <time>2017-04-16T14:14:26.000Z</time>
      </trkpt>
      <trkpt lat="43.56877" lon="2.91451">
        <ele>267.2</ele>
        <time>2017-04-16T14:14:28.000Z</time>
      </trkpt>
      <trkpt lat="43.56875" lon="2.91457">
        <ele>266.6</ele>
        <time>2017-04-16T14:14:29.000Z</time>
      </trkpt>
      <trkpt lat="43.56869" lon="2.91465">
        <ele>265.6</ele>
        <time>2017-04-16T14:14:30.000Z</time>
      </trkpt>
      <trkpt lat="43.56861" lon="2.91473">
        <ele>263.8</ele>
        <time>2017-04-16T14:14:32.000Z</time>
      </trkpt>
      <trkpt lat="43.56856" lon="2.91478">
        <ele>263</ele>
        <time>2017-04-16T14:14:33.000Z</time>
      </trkpt>
      <trkpt lat="43.56841" lon="2.915">
        <ele>259.6</ele>
        <time>2017-04-16T14:14:36.000Z</time>
      </trkpt>
      <trkpt lat="43.56834" lon="2.91514">
        <ele>257.4</ele>
        <time>2017-04-16T14:14:38.000Z</time>
      </trkpt>
      <trkpt lat="43.56835" lon="2.91523">
        <ele>256.2</ele>
        <time>2017-04-16T14:14:39.000Z</time>
      </trkpt>
      <trkpt lat="43.56836" lon="2.91531">
        <ele>255</ele>
        <time>2017-04-16T14:14:40.000Z</time>
      </trkpt>
      <trkpt lat="43.56842" lon="2.91542">
        <ele>252.4</ele>
        <time>2017-04-16T14:14:42.000Z</time>
      </trkpt>
      <trkpt lat="43.56849" lon="2.91542">
        <ele>249.8</ele>
        <time>2017-04-16T14:14:44.000Z</time>
      </trkpt>
      <trkpt lat="43.56851" lon="2.91539">
        <ele>248.6</ele>
        <time>2017-04-16T14:14:45.000Z</time>
      </trkpt>
      <trkpt lat="43.5686" lon="2.91537">
        <ele>246.4</ele>
        <time>2017-04-16T14:14:47.000Z</time>
      </trkpt>
      <trkpt lat="43.56865" lon="2.91539">
        <ele>245.2</ele>
        <time>2017-04-16T14:14:48.000Z</time>
      </trkpt>
      <trkpt lat="43.56875" lon="2.91542">
        <ele>242.6</ele>
        <time>2017-04-16T14:14:51.000Z</time>
      </trkpt>
      <trkpt lat="43.5688" lon="2.91547">
        <ele>241.8</ele>
        <time>2017-04-16T14:14:52.000Z</time>
      </trkpt>
      <trkpt lat="43.56891" lon="2.91554">
        <ele>240.4</ele>
        <time>2017-04-16T14:14:54.000Z</time>
      </trkpt>
      <trkpt lat="43.56908" lon="2.91552">
        <ele>238.8</ele>
        <time>2017-04-16T14:14:56.000Z</time>
      </trkpt>
      <trkpt lat="43.56917" lon="2.9155">
        <ele>238</ele>
        <time>2017-04-16T14:14:57.000Z</time>
      </trkpt>
      <trkpt lat="43.56923" lon="2.91561">
        <ele>235.4</ele>
        <time>2017-04-16T14:15:00.000Z</time>
      </trkpt>
      <trkpt lat="43.56922" lon="2.91567">
        <ele>234.6</ele>
        <time>2017-04-16T14:15:01.000Z</time>
      </trkpt>
      <trkpt lat="43.56918" lon="2.9158">
        <ele>233.4</ele>
        <time>2017-04-16T14:15:03.000Z</time>
      </trkpt>
      <trkpt lat="43.56916" lon="2.91586">
        <ele>233</ele>
        <time>2017-04-16T14:15:04.000Z</time>
      </trkpt>
      <trkpt lat="43.56915" lon="2.91592">
        <ele>232.4</ele>
        <time>2017-04-16T14:15:05.000Z</time>
      </trkpt>
      <trkpt lat="43.56903" lon="2.91609">
        <ele>232</ele>
        <time>2017-04-16T14:15:08.000Z</time>
      </trkpt>
      <trkpt lat="43.56899" lon="2.91612">
        <ele>231.8</ele>
        <time>2017-04-16T14:15:09.000Z</time>
      </trkpt>
      <trkpt lat="43.56893" lon="2.91621">
        <ele>231.4</ele>
        <time>2017-04-16T14:15:12.000Z</time>
      </trkpt>
      <trkpt lat="43.56893" lon="2.91624">
        <ele>231.2</ele>
        <time>2017-04-16T14:15:14.000Z</time>
      </trkpt>
      <trkpt lat="43.56894" lon="2.91625">
        <ele>231.2</ele>
        <time>2017-04-16T14:15:17.000Z</time>
      </trkpt>
      <trkpt lat="43.5689" lon="2.9163">
        <ele>230.4</ele>
        <time>2017-04-16T14:20:27.000Z</time>
      </trkpt>
      <trkpt lat="43.56891" lon="2.91631">
        <ele>230.4</ele>
        <time>2017-04-16T14:20:28.000Z</time>
      </trkpt>
      <trkpt lat="43.56891" lon="2.91634">
        <ele>230.4</ele>
        <time>2017-04-16T14:20:30.000Z</time>
      </trkpt>
      <trkpt lat="43.56893" lon="2.91639">
        <ele>230.4</ele>
        <time>2017-04-16T14:20:32.000Z</time>
      </trkpt>
      <trkpt lat="43.56894" lon="2.91645">
        <ele>230.4</ele>
        <time>2017-04-16T14:20:34.000Z</time>
      </trkpt>
      <trkpt lat="43.56895" lon="2.9165">
        <ele>230.4</ele>
        <time>2017-04-16T14:20:36.000Z</time>
      </trkpt>
      <trkpt lat="43.56895" lon="2.91653">
        <ele>230.8</ele>
        <time>2017-04-16T14:20:37.000Z</time>
      </trkpt>
      <trkpt lat="43.56897" lon="2.91659">
        <ele>231</ele>
        <time>2017-04-16T14:20:39.000Z</time>
      </trkpt>
      <trkpt lat="43.56897" lon="2.91664">
        <ele>231.4</ele>
        <time>2017-04-16T14:20:41.000Z</time>
      </trkpt>
      <trkpt lat="43.56898" lon="2.91667">
        <ele>231.6</ele>
        <time>2017-04-16T14:20:42.000Z</time>
      </trkpt>
      <trkpt lat="43.56896" lon="2.9167">
        <ele>231.8</ele>
        <time>2017-04-16T14:20:45.000Z</time>
      </trkpt>
      <trkpt lat="43.56895" lon="2.91671">
        <ele>232</ele>
        <time>2017-04-16T14:20:46.000Z</time>
      </trkpt>
      <trkpt lat="43.56892" lon="2.91673">
        <ele>232.8</ele>
        <time>2017-04-16T14:20:49.000Z</time>
      </trkpt>
      <trkpt lat="43.56892" lon="2.91674">
        <ele>233</ele>
        <time>2017-04-16T14:20:50.000Z</time>
      </trkpt>
      <trkpt lat="43.5689" lon="2.91677">
        <ele>233.4</ele>
        <time>2017-04-16T14:20:53.000Z</time>
      </trkpt>
      <trkpt lat="43.56889" lon="2.91681">
        <ele>233.6</ele>
        <time>2017-04-16T14:20:55.000Z</time>
      </trkpt>
      <trkpt lat="43.56888" lon="2.91694">
        <ele>234.4</ele>
        <time>2017-04-16T14:21:01.000Z</time>
      </trkpt>
      <trkpt lat="43.56886" lon="2.91699">
        <ele>235</ele>
        <time>2017-04-16T14:21:03.000Z</time>
      </trkpt>
      <trkpt lat="43.56885" lon="2.91703">
        <ele>235.2</ele>
        <time>2017-04-16T14:21:05.000Z</time>
      </trkpt>
      <trkpt lat="43.56884" lon="2.91707">
        <ele>235.6</ele>
        <time>2017-04-16T14:21:07.000Z</time>
      </trkpt>
      <trkpt lat="43.56884" lon="2.91709">
        <ele>235.8</ele>
        <time>2017-04-16T14:21:09.000Z</time>
      </trkpt>
      <trkpt lat="43.56884" lon="2.91713">
        <ele>236.2</ele>
        <time>2017-04-16T14:21:11.000Z</time>
      </trkpt>
      <trkpt lat="43.56884" lon="2.91718">
        <ele>236.8</ele>
        <time>2017-04-16T14:21:13.000Z</time>
      </trkpt>
      <trkpt lat="43.56884" lon="2.9172">
        <ele>237</ele>
        <time>2017-04-16T14:21:14.000Z</time>
      </trkpt>
      <trkpt lat="43.56885" lon="2.91723">
        <ele>237.2</ele>
        <time>2017-04-16T14:21:15.000Z</time>
      </trkpt>
      <trkpt lat="43.56884" lon="2.91726">
        <ele>237.6</ele>
        <time>2017-04-16T14:21:17.000Z</time>
      </trkpt>
      <trkpt lat="43.56881" lon="2.91729">
        <ele>237.8</ele>
        <time>2017-04-16T14:21:19.000Z</time>
      </trkpt>
      <trkpt lat="43.5688" lon="2.91739">
        <ele>238.2</ele>
        <time>2017-04-16T14:21:23.000Z</time>
      </trkpt>
      <trkpt lat="43.56881" lon="2.91761">
        <ele>238.6</ele>
        <time>2017-04-16T14:21:30.000Z</time>
      </trkpt>
      <trkpt lat="43.56879" lon="2.91769">
        <ele>238.8</ele>
        <time>2017-04-16T14:21:32.000Z</time>
      </trkpt>
      <trkpt lat="43.56866" lon="2.91825">
        <ele>238.8</ele>
        <time>2017-04-16T14:21:38.000Z</time>
      </trkpt>
      <trkpt lat="43.56867" lon="2.91839">
        <ele>238.8</ele>
        <time>2017-04-16T14:21:39.000Z</time>
      </trkpt>
      <trkpt lat="43.56867" lon="2.9185">
        <ele>238.6</ele>
        <time>2017-04-16T14:21:40.000Z</time>
      </trkpt>
      <trkpt lat="43.56865" lon="2.91861">
        <ele>238.4</ele>
        <time>2017-04-16T14:21:41.000Z</time>
      </trkpt>
      <trkpt lat="43.56849" lon="2.91888">
        <ele>238</ele>
        <time>2017-04-16T14:21:44.000Z</time>
      </trkpt>
      <trkpt lat="43.56842" lon="2.91895">
        <ele>237.6</ele>
        <time>2017-04-16T14:21:45.000Z</time>
      </trkpt>
      <trkpt lat="43.56836" lon="2.91904">
        <ele>237.4</ele>
        <time>2017-04-16T14:21:46.000Z</time>
      </trkpt>
      <trkpt lat="43.5683" lon="2.91912">
        <ele>237</ele>
        <time>2017-04-16T14:21:47.000Z</time>
      </trkpt>
      <trkpt lat="43.5682" lon="2.91928">
        <ele>236.6</ele>
        <time>2017-04-16T14:21:49.000Z</time>
      </trkpt>
      <trkpt lat="43.56811" lon="2.91944">
        <ele>236</ele>
        <time>2017-04-16T14:21:51.000Z</time>
      </trkpt>
      <trkpt lat="43.56802" lon="2.91958">
        <ele>235.4</ele>
        <time>2017-04-16T14:21:53.000Z</time>
      </trkpt>
      <trkpt lat="43.56796" lon="2.91964">
        <ele>235</ele>
        <time>2017-04-16T14:21:54.000Z</time>
      </trkpt>
      <trkpt lat="43.5679" lon="2.91969">
        <ele>234.8</ele>
        <time>2017-04-16T14:21:55.000Z</time>
      </trkpt>
      <trkpt lat="43.56775" lon="2.91977">
        <ele>234.4</ele>
        <time>2017-04-16T14:21:57.000Z</time>
      </trkpt>
      <trkpt lat="43.5676" lon="2.91983">
        <ele>233.8</ele>
        <time>2017-04-16T14:21:59.000Z</time>
      </trkpt>
      <trkpt lat="43.56754" lon="2.91987">
        <ele>233.4</ele>
        <time>2017-04-16T14:22:00.000Z</time>
      </trkpt>
      <trkpt lat="43.5675" lon="2.91989">
        <ele>233.2</ele>
        <time>2017-04-16T14:22:01.000Z</time>
      </trkpt>
      <trkpt lat="43.56747" lon="2.91993">
        <ele>232.6</ele>
        <time>2017-04-16T14:22:02.000Z</time>
      </trkpt>
      <trkpt lat="43.56747" lon="2.91996">
        <ele>232</ele>
        <time>2017-04-16T14:22:03.000Z</time>
      </trkpt>
      <trkpt lat="43.56749" lon="2.91998">
        <ele>231.6</ele>
        <time>2017-04-16T14:22:04.000Z</time>
      </trkpt>
      <trkpt lat="43.56751" lon="2.92002">
        <ele>231</ele>
        <time>2017-04-16T14:22:05.000Z</time>
      </trkpt>
      <trkpt lat="43.56757" lon="2.92008">
        <ele>230</ele>
        <time>2017-04-16T14:22:07.000Z</time>
      </trkpt>
      <trkpt lat="43.56765" lon="2.9201">
        <ele>229</ele>
        <time>2017-04-16T14:22:09.000Z</time>
      </trkpt>
      <trkpt lat="43.5677" lon="2.9201">
        <ele>228.6</ele>
        <time>2017-04-16T14:22:10.000Z</time>
      </trkpt>
      <trkpt lat="43.56776" lon="2.9201">
        <ele>228.4</ele>
        <time>2017-04-16T14:22:11.000Z</time>
      </trkpt>
      <trkpt lat="43.56782" lon="2.92008">
        <ele>228</ele>
        <time>2017-04-16T14:22:12.000Z</time>
      </trkpt>
      <trkpt lat="43.56788" lon="2.92007">
        <ele>227.8</ele>
        <time>2017-04-16T14:22:13.000Z</time>
      </trkpt>
      <trkpt lat="43.56794" lon="2.92005">
        <ele>227.6</ele>
        <time>2017-04-16T14:22:14.000Z</time>
      </trkpt>
      <trkpt lat="43.56818" lon="2.91997">
        <ele>226.8</ele>
        <time>2017-04-16T14:22:18.000Z</time>
      </trkpt>
      <trkpt lat="43.56838" lon="2.92003">
        <ele>225.8</ele>
        <time>2017-04-16T14:22:21.000Z</time>
      </trkpt>
      <trkpt lat="43.56851" lon="2.92016">
        <ele>225.4</ele>
        <time>2017-04-16T14:22:23.000Z</time>
      </trkpt>
      <trkpt lat="43.56857" lon="2.92023">
        <ele>225.2</ele>
        <time>2017-04-16T14:22:24.000Z</time>
      </trkpt>
      <trkpt lat="43.56864" lon="2.9203">
        <ele>225</ele>
        <time>2017-04-16T14:22:25.000Z</time>
      </trkpt>
      <trkpt lat="43.56871" lon="2.92035">
        <ele>224.6</ele>
        <time>2017-04-16T14:22:26.000Z</time>
      </trkpt>
      <trkpt lat="43.56885" lon="2.92036">
        <ele>224</ele>
        <time>2017-04-16T14:22:28.000Z</time>
      </trkpt>
      <trkpt lat="43.56894" lon="2.92033">
        <ele>223.6</ele>
        <time>2017-04-16T14:22:29.000Z</time>
      </trkpt>
      <trkpt lat="43.56915" lon="2.92024">
        <ele>223</ele>
        <time>2017-04-16T14:22:32.000Z</time>
      </trkpt>
      <trkpt lat="43.56922" lon="2.92025">
        <ele>222.8</ele>
        <time>2017-04-16T14:22:33.000Z</time>
      </trkpt>
      <trkpt lat="43.56928" lon="2.92027">
        <ele>222.6</ele>
        <time>2017-04-16T14:22:34.000Z</time>
      </trkpt>
      <trkpt lat="43.56942" lon="2.92049">
        <ele>222.2</ele>
        <time>2017-04-16T14:22:37.000Z</time>
      </trkpt>
      <trkpt lat="43.56944" lon="2.92061">
        <ele>221.8</ele>
        <time>2017-04-16T14:22:38.000Z</time>
      </trkpt>
      <trkpt lat="43.56941" lon="2.92085">
        <ele>221.4</ele>
        <time>2017-04-16T14:22:40.000Z</time>
      </trkpt>
      <trkpt lat="43.5693" lon="2.92102">
        <ele>221</ele>
        <time>2017-04-16T14:22:42.000Z</time>
      </trkpt>
      <trkpt lat="43.56915" lon="2.92107">
        <ele>220.6</ele>
        <time>2017-04-16T14:22:44.000Z</time>
      </trkpt>
      <trkpt lat="43.56907" lon="2.9211">
        <ele>220.4</ele>
        <time>2017-04-16T14:22:45.000Z</time>
      </trkpt>
      <trkpt lat="43.569" lon="2.92112">
        <ele>220.4</ele>
        <time>2017-04-16T14:22:46.000Z</time>
      </trkpt>
      <trkpt lat="43.56888" lon="2.9212">
        <ele>219.8</ele>
        <time>2017-04-16T14:22:48.000Z</time>
      </trkpt>
      <trkpt lat="43.56875" lon="2.9213">
        <ele>219.4</ele>
        <time>2017-04-16T14:22:50.000Z</time>
      </trkpt>
      <trkpt lat="43.56869" lon="2.92136">
        <ele>219</ele>
        <time>2017-04-16T14:22:51.000Z</time>
      </trkpt>
      <trkpt lat="43.56864" lon="2.92142">
        <ele>218.8</ele>
        <time>2017-04-16T14:22:52.000Z</time>
      </trkpt>
      <trkpt lat="43.56856" lon="2.9216">
        <ele>218.6</ele>
        <time>2017-04-16T14:22:54.000Z</time>
      </trkpt>
      <trkpt lat="43.56853" lon="2.9217">
        <ele>218.4</ele>
        <time>2017-04-16T14:22:55.000Z</time>
      </trkpt>
      <trkpt lat="43.56851" lon="2.9218">
        <ele>218</ele>
        <time>2017-04-16T14:22:56.000Z</time>
      </trkpt>
      <trkpt lat="43.56849" lon="2.9219">
        <ele>217.8</ele>
        <time>2017-04-16T14:22:57.000Z</time>
      </trkpt>
      <trkpt lat="43.56849" lon="2.922">
        <ele>217.4</ele>
        <time>2017-04-16T14:22:58.000Z</time>
      </trkpt>
      <trkpt lat="43.56846" lon="2.92219">
        <ele>217</ele>
        <time>2017-04-16T14:23:00.000Z</time>
      </trkpt>
      <trkpt lat="43.56844" lon="2.92235">
        <ele>216.6</ele>
        <time>2017-04-16T14:23:02.000Z</time>
      </trkpt>
      <trkpt lat="43.56844" lon="2.92243">
        <ele>216.4</ele>
        <time>2017-04-16T14:23:03.000Z</time>
      </trkpt>
      <trkpt lat="43.56844" lon="2.92251">
        <ele>216.2</ele>
        <time>2017-04-16T14:23:04.000Z</time>
      </trkpt>
      <trkpt lat="43.56844" lon="2.92265">
        <ele>216</ele>
        <time>2017-04-16T14:23:06.000Z</time>
      </trkpt>
      <trkpt lat="43.56849" lon="2.92321">
        <ele>215.4</ele>
        <time>2017-04-16T14:23:13.000Z</time>
      </trkpt>
      <trkpt lat="43.5685" lon="2.9233">
        <ele>215.4</ele>
        <time>2017-04-16T14:23:14.000Z</time>
      </trkpt>
      <trkpt lat="43.56843" lon="2.92366">
        <ele>215.2</ele>
        <time>2017-04-16T14:23:18.000Z</time>
      </trkpt>
      <trkpt lat="43.56833" lon="2.92407">
        <ele>215.2</ele>
        <time>2017-04-16T14:23:22.000Z</time>
      </trkpt>
      <trkpt lat="43.56825" lon="2.92427">
        <ele>215</ele>
        <time>2017-04-16T14:23:24.000Z</time>
      </trkpt>
      <trkpt lat="43.5682" lon="2.92437">
        <ele>214.6</ele>
        <time>2017-04-16T14:23:25.000Z</time>
      </trkpt>
      <trkpt lat="43.56815" lon="2.92447">
        <ele>214.4</ele>
        <time>2017-04-16T14:23:26.000Z</time>
      </trkpt>
      <trkpt lat="43.56804" lon="2.9247">
        <ele>214.2</ele>
        <time>2017-04-16T14:23:28.000Z</time>
      </trkpt>
      <trkpt lat="43.568" lon="2.92483">
        <ele>214</ele>
        <time>2017-04-16T14:23:29.000Z</time>
      </trkpt>
      <trkpt lat="43.56792" lon="2.92508">
        <ele>213.6</ele>
        <time>2017-04-16T14:23:31.000Z</time>
      </trkpt>
      <trkpt lat="43.56795" lon="2.92535">
        <ele>212.8</ele>
        <time>2017-04-16T14:23:33.000Z</time>
      </trkpt>
      <trkpt lat="43.56817" lon="2.92548">
        <ele>212</ele>
        <time>2017-04-16T14:23:35.000Z</time>
      </trkpt>
      <trkpt lat="43.56836" lon="2.92537">
        <ele>211.2</ele>
        <time>2017-04-16T14:23:37.000Z</time>
      </trkpt>
      <trkpt lat="43.56844" lon="2.92511">
        <ele>210.2</ele>
        <time>2017-04-16T14:23:39.000Z</time>
      </trkpt>
      <trkpt lat="43.56847" lon="2.92498">
        <ele>209.6</ele>
        <time>2017-04-16T14:23:40.000Z</time>
      </trkpt>
      <trkpt lat="43.56854" lon="2.92471">
        <ele>208.4</ele>
        <time>2017-04-16T14:23:42.000Z</time>
      </trkpt>
      <trkpt lat="43.56858" lon="2.92466">
        <ele>207.6</ele>
        <time>2017-04-16T14:23:43.000Z</time>
      </trkpt>
      <trkpt lat="43.56871" lon="2.92451">
        <ele>205.4</ele>
        <time>2017-04-16T14:23:46.000Z</time>
      </trkpt>
      <trkpt lat="43.56884" lon="2.92467">
        <ele>204.2</ele>
        <time>2017-04-16T14:23:48.000Z</time>
      </trkpt>
      <trkpt lat="43.56891" lon="2.92492">
        <ele>203.2</ele>
        <time>2017-04-16T14:23:50.000Z</time>
      </trkpt>
      <trkpt lat="43.56892" lon="2.925">
        <ele>202.8</ele>
        <time>2017-04-16T14:23:51.000Z</time>
      </trkpt>
      <trkpt lat="43.56892" lon="2.92538">
        <ele>201.2</ele>
        <time>2017-04-16T14:23:57.000Z</time>
      </trkpt>
      <trkpt lat="43.56881" lon="2.92556">
        <ele>200.4</ele>
        <time>2017-04-16T14:24:02.000Z</time>
      </trkpt>
      <trkpt lat="43.56868" lon="2.92575">
        <ele>200.2</ele>
        <time>2017-04-16T14:24:07.000Z</time>
      </trkpt>
      <trkpt lat="43.56864" lon="2.92582">
        <ele>200.4</ele>
        <time>2017-04-16T14:24:09.000Z</time>
      </trkpt>
      <trkpt lat="43.56861" lon="2.92586">
        <ele>200.6</ele>
        <time>2017-04-16T14:24:11.000Z</time>
      </trkpt>
      <trkpt lat="43.56855" lon="2.92593">
        <ele>200.8</ele>
        <time>2017-04-16T14:24:13.000Z</time>
      </trkpt>
      <trkpt lat="43.56847" lon="2.92603">
        <ele>201</ele>
        <time>2017-04-16T14:24:15.000Z</time>
      </trkpt>
      <trkpt lat="43.56842" lon="2.92608">
        <ele>201</ele>
        <time>2017-04-16T14:24:16.000Z</time>
      </trkpt>
      <trkpt lat="43.56829" lon="2.9262">
        <ele>200.8</ele>
        <time>2017-04-16T14:24:18.000Z</time>
      </trkpt>
      <trkpt lat="43.56814" lon="2.92633">
        <ele>200.4</ele>
        <time>2017-04-16T14:24:20.000Z</time>
      </trkpt>
      <trkpt lat="43.56797" lon="2.92647">
        <ele>199.8</ele>
        <time>2017-04-16T14:24:22.000Z</time>
      </trkpt>
      <trkpt lat="43.5678" lon="2.92663">
        <ele>199</ele>
        <time>2017-04-16T14:24:24.000Z</time>
      </trkpt>
      <trkpt lat="43.56773" lon="2.92675">
        <ele>198.4</ele>
        <time>2017-04-16T14:24:25.000Z</time>
      </trkpt>
      <trkpt lat="43.5675" lon="2.9271">
        <ele>196.6</ele>
        <time>2017-04-16T14:24:28.000Z</time>
      </trkpt>
      <trkpt lat="43.56745" lon="2.92725">
        <ele>196</ele>
        <time>2017-04-16T14:24:29.000Z</time>
      </trkpt>
      <trkpt lat="43.56748" lon="2.92762">
        <ele>194.6</ele>
        <time>2017-04-16T14:24:31.000Z</time>
      </trkpt>
      <trkpt lat="43.56753" lon="2.92776">
        <ele>193.8</ele>
        <time>2017-04-16T14:24:32.000Z</time>
      </trkpt>
      <trkpt lat="43.56756" lon="2.92791">
        <ele>193.2</ele>
        <time>2017-04-16T14:24:33.000Z</time>
      </trkpt>
      <trkpt lat="43.56754" lon="2.92808">
        <ele>192.6</ele>
        <time>2017-04-16T14:24:34.000Z</time>
      </trkpt>
      <trkpt lat="43.5675" lon="2.9282">
        <ele>191.8</ele>
        <time>2017-04-16T14:24:35.000Z</time>
      </trkpt>
      <trkpt lat="43.56742" lon="2.92843">
        <ele>190.4</ele>
        <time>2017-04-16T14:24:37.000Z</time>
      </trkpt>
      <trkpt lat="43.56735" lon="2.92854">
        <ele>190</ele>
        <time>2017-04-16T14:24:38.000Z</time>
      </trkpt>
      <trkpt lat="43.56729" lon="2.92863">
        <ele>189.4</ele>
        <time>2017-04-16T14:24:39.000Z</time>
      </trkpt>
      <trkpt lat="43.56718" lon="2.92881">
        <ele>188.6</ele>
        <time>2017-04-16T14:24:41.000Z</time>
      </trkpt>
      <trkpt lat="43.56707" lon="2.929">
        <ele>187.8</ele>
        <time>2017-04-16T14:24:43.000Z</time>
      </trkpt>
      <trkpt lat="43.56701" lon="2.9291">
        <ele>187.4</ele>
        <time>2017-04-16T14:24:44.000Z</time>
      </trkpt>
      <trkpt lat="43.56695" lon="2.92921">
        <ele>186.8</ele>
        <time>2017-04-16T14:24:45.000Z</time>
      </trkpt>
      <trkpt lat="43.5669" lon="2.92932">
        <ele>186.4</ele>
        <time>2017-04-16T14:24:46.000Z</time>
      </trkpt>
      <trkpt lat="43.56684" lon="2.92943">
        <ele>185.8</ele>
        <time>2017-04-16T14:24:47.000Z</time>
      </trkpt>
      <trkpt lat="43.56676" lon="2.92953">
        <ele>185.2</ele>
        <time>2017-04-16T14:24:48.000Z</time>
      </trkpt>
      <trkpt lat="43.5666" lon="2.92974">
        <ele>184</ele>
        <time>2017-04-16T14:24:50.000Z</time>
      </trkpt>
      <trkpt lat="43.56654" lon="2.92985">
        <ele>183.4</ele>
        <time>2017-04-16T14:24:51.000Z</time>
      </trkpt>
      <trkpt lat="43.5664" lon="2.93008">
        <ele>182.2</ele>
        <time>2017-04-16T14:24:53.000Z</time>
      </trkpt>
      <trkpt lat="43.56634" lon="2.93027">
        <ele>181</ele>
        <time>2017-04-16T14:24:55.000Z</time>
      </trkpt>
      <trkpt lat="43.56632" lon="2.93034">
        <ele>180.2</ele>
        <time>2017-04-16T14:24:56.000Z</time>
      </trkpt>
      <trkpt lat="43.56632" lon="2.93038">
        <ele>179.4</ele>
        <time>2017-04-16T14:24:57.000Z</time>
      </trkpt>
      <trkpt lat="43.56641" lon="2.93036">
        <ele>178</ele>
        <time>2017-04-16T14:24:59.000Z</time>
      </trkpt>
      <trkpt lat="43.5665" lon="2.93024">
        <ele>176.8</ele>
        <time>2017-04-16T14:25:01.000Z</time>
      </trkpt>
      <trkpt lat="43.56651" lon="2.93014">
        <ele>176.2</ele>
        <time>2017-04-16T14:25:02.000Z</time>
      </trkpt>
      <trkpt lat="43.56654" lon="2.93009">
        <ele>175.6</ele>
        <time>2017-04-16T14:25:03.000Z</time>
      </trkpt>
      <trkpt lat="43.56657" lon="2.9301">
        <ele>175</ele>
        <time>2017-04-16T14:25:04.000Z</time>
      </trkpt>
      <trkpt lat="43.56656" lon="2.93025">
        <ele>173.8</ele>
        <time>2017-04-16T14:25:06.000Z</time>
      </trkpt>
      <trkpt lat="43.56654" lon="2.93037">
        <ele>173</ele>
        <time>2017-04-16T14:25:07.000Z</time>
      </trkpt>
      <trkpt lat="43.56652" lon="2.93062">
        <ele>171.4</ele>
        <time>2017-04-16T14:25:09.000Z</time>
      </trkpt>
      <trkpt lat="43.56653" lon="2.93078">
        <ele>170.6</ele>
        <time>2017-04-16T14:25:10.000Z</time>
      </trkpt>
      <trkpt lat="43.56654" lon="2.93092">
        <ele>169.8</ele>
        <time>2017-04-16T14:25:11.000Z</time>
      </trkpt>
      <trkpt lat="43.56653" lon="2.93107">
        <ele>169</ele>
        <time>2017-04-16T14:25:12.000Z</time>
      </trkpt>
      <trkpt lat="43.56651" lon="2.93154">
        <ele>165.8</ele>
        <time>2017-04-16T14:25:15.000Z</time>
      </trkpt>
      <trkpt lat="43.56648" lon="2.9317">
        <ele>164.8</ele>
        <time>2017-04-16T14:25:16.000Z</time>
      </trkpt>
      <trkpt lat="43.56638" lon="2.93216">
        <ele>161.2</ele>
        <time>2017-04-16T14:25:19.000Z</time>
      </trkpt>
      <trkpt lat="43.56632" lon="2.93244">
        <ele>158.8</ele>
        <time>2017-04-16T14:25:21.000Z</time>
      </trkpt>
      <trkpt lat="43.56631" lon="2.93258">
        <ele>157.8</ele>
        <time>2017-04-16T14:25:22.000Z</time>
      </trkpt>
      <trkpt lat="43.56631" lon="2.93275">
        <ele>156.4</ele>
        <time>2017-04-16T14:25:23.000Z</time>
      </trkpt>
      <trkpt lat="43.56634" lon="2.93315">
        <ele>154</ele>
        <time>2017-04-16T14:25:25.000Z</time>
      </trkpt>
      <trkpt lat="43.56633" lon="2.9333">
        <ele>152.8</ele>
        <time>2017-04-16T14:25:26.000Z</time>
      </trkpt>
      <trkpt lat="43.56627" lon="2.93342">
        <ele>151.4</ele>
        <time>2017-04-16T14:25:27.000Z</time>
      </trkpt>
      <trkpt lat="43.56624" lon="2.93352">
        <ele>150.2</ele>
        <time>2017-04-16T14:25:28.000Z</time>
      </trkpt>
      <trkpt lat="43.56625" lon="2.93387">
        <ele>146.6</ele>
        <time>2017-04-16T14:25:31.000Z</time>
      </trkpt>
      <trkpt lat="43.56628" lon="2.93398">
        <ele>145.4</ele>
        <time>2017-04-16T14:25:32.000Z</time>
      </trkpt>
      <trkpt lat="43.56633" lon="2.93408">
        <ele>144.2</ele>
        <time>2017-04-16T14:25:33.000Z</time>
      </trkpt>
      <trkpt lat="43.56645" lon="2.93421">
        <ele>142.2</ele>
        <time>2017-04-16T14:25:35.000Z</time>
      </trkpt>
      <trkpt lat="43.5666" lon="2.93426">
        <ele>140</ele>
        <time>2017-04-16T14:25:37.000Z</time>
      </trkpt>
      <trkpt lat="43.56667" lon="2.93436">
        <ele>139</ele>
        <time>2017-04-16T14:25:38.000Z</time>
      </trkpt>
      <trkpt lat="43.56688" lon="2.93464">
        <ele>135.6</ele>
        <time>2017-04-16T14:25:41.000Z</time>
      </trkpt>
      <trkpt lat="43.56696" lon="2.93475">
        <ele>134.4</ele>
        <time>2017-04-16T14:25:42.000Z</time>
      </trkpt>
      <trkpt lat="43.56705" lon="2.93485">
        <ele>133.2</ele>
        <time>2017-04-16T14:25:43.000Z</time>
      </trkpt>
      <trkpt lat="43.56713" lon="2.93493">
        <ele>132.2</ele>
        <time>2017-04-16T14:25:44.000Z</time>
      </trkpt>
      <trkpt lat="43.56726" lon="2.93501">
        <ele>130.2</ele>
        <time>2017-04-16T14:25:46.000Z</time>
      </trkpt>
      <trkpt lat="43.56728" lon="2.93518">
        <ele>128</ele>
        <time>2017-04-16T14:25:49.000Z</time>
      </trkpt>
      <trkpt lat="43.56727" lon="2.93526">
        <ele>126.4</ele>
        <time>2017-04-16T14:25:51.000Z</time>
      </trkpt>
      <trkpt lat="43.56727" lon="2.93527">
        <ele>125.8</ele>
        <time>2017-04-16T14:25:52.000Z</time>
      </trkpt>
      <trkpt lat="43.56728" lon="2.93527">
        <ele>124.4</ele>
        <time>2017-04-16T14:25:55.000Z</time>
      </trkpt>
      <trkpt lat="43.56728" lon="2.93527">
        <ele>123.6</ele>
        <time>2017-04-16T14:25:57.000Z</time>
      </trkpt>
      <trkpt lat="43.56724" lon="2.93533">
        <ele>121.8</ele>
        <time>2017-04-16T14:26:04.000Z</time>
      </trkpt>
      <trkpt lat="43.56722" lon="2.93537">
        <ele>122</ele>
        <time>2017-04-16T14:26:07.000Z</time>
      </trkpt>
      <trkpt lat="43.56721" lon="2.93541">
        <ele>122</ele>
        <time>2017-04-16T14:26:09.000Z</time>
      </trkpt>
      <trkpt lat="43.56721" lon="2.93546">
        <ele>122</ele>
        <time>2017-04-16T14:26:11.000Z</time>
      </trkpt>
      <trkpt lat="43.56721" lon="2.93549">
        <ele>122</ele>
        <time>2017-04-16T14:26:13.000Z</time>
      </trkpt>
      <trkpt lat="43.56722" lon="2.93551">
        <ele>122.2</ele>
        <time>2017-04-16T14:26:15.000Z</time>
      </trkpt>
      <trkpt lat="43.56722" lon="2.93552">
        <ele>122.4</ele>
        <time>2017-04-16T14:26:20.000Z</time>
      </trkpt>
      <trkpt lat="43.56722" lon="2.93553">
        <ele>122.6</ele>
        <time>2017-04-16T14:26:21.000Z</time>
      </trkpt>
      <trkpt lat="43.56722" lon="2.93556">
        <ele>123</ele>
        <time>2017-04-16T14:26:23.000Z</time>
      </trkpt>
      <trkpt lat="43.56721" lon="2.93557">
        <ele>123</ele>
        <time>2017-04-16T14:26:24.000Z</time>
      </trkpt>
      <trkpt lat="43.5672" lon="2.93559">
        <ele>123.2</ele>
        <time>2017-04-16T14:26:25.000Z</time>
      </trkpt>
      <trkpt lat="43.56718" lon="2.93563">
        <ele>123.6</ele>
        <time>2017-04-16T14:26:27.000Z</time>
      </trkpt>
      <trkpt lat="43.56719" lon="2.93565">
        <ele>124.2</ele>
        <time>2017-04-16T14:26:29.000Z</time>
      </trkpt>
      <trkpt lat="43.56719" lon="2.93566">
        <ele>124.6</ele>
        <time>2017-04-16T14:26:31.000Z</time>
      </trkpt>
      <trkpt lat="43.56719" lon="2.93568">
        <ele>125</ele>
        <time>2017-04-16T14:26:33.000Z</time>
      </trkpt>
      <trkpt lat="43.56721" lon="2.93571">
        <ele>125.2</ele>
        <time>2017-04-16T14:26:35.000Z</time>
      </trkpt>
      <trkpt lat="43.56725" lon="2.93574">
        <ele>125.8</ele>
        <time>2017-04-16T14:26:39.000Z</time>
      </trkpt>
      <trkpt lat="43.56726" lon="2.93575">
        <ele>126.4</ele>
        <time>2017-04-16T14:26:41.000Z</time>
      </trkpt>
      <trkpt lat="43.56725" lon="2.93577">
        <ele>126.8</ele>
        <time>2017-04-16T14:26:43.000Z</time>
      </trkpt>
      <trkpt lat="43.56723" lon="2.93584">
        <ele>127.4</ele>
        <time>2017-04-16T14:26:47.000Z</time>
      </trkpt>
      <trkpt lat="43.56723" lon="2.93586">
        <ele>127.4</ele>
        <time>2017-04-16T14:26:48.000Z</time>
      </trkpt>
      <trkpt lat="43.5672" lon="2.93587">
        <ele>127.8</ele>
        <time>2017-04-16T14:26:51.000Z</time>
      </trkpt>
      <trkpt lat="43.56709" lon="2.93597">
        <ele>128</ele>
        <time>2017-04-16T14:26:56.000Z</time>
      </trkpt>
      <trkpt lat="43.56693" lon="2.93614">
        <ele>128.2</ele>
        <time>2017-04-16T14:27:01.000Z</time>
      </trkpt>
      <trkpt lat="43.5667" lon="2.93639">
        <ele>128.4</ele>
        <time>2017-04-16T14:27:06.000Z</time>
      </trkpt>
      <trkpt lat="43.5666" lon="2.93649">
        <ele>128.2</ele>
        <time>2017-04-16T14:27:08.000Z</time>
      </trkpt>
      <trkpt lat="43.56655" lon="2.93652">
        <ele>128</ele>
        <time>2017-04-16T14:27:09.000Z</time>
      </trkpt>
      <trkpt lat="43.56649" lon="2.93653">
        <ele>127.8</ele>
        <time>2017-04-16T14:27:10.000Z</time>
      </trkpt>
      <trkpt lat="43.56638" lon="2.93648">
        <ele>127.2</ele>
        <time>2017-04-16T14:27:12.000Z</time>
      </trkpt>
      <trkpt lat="43.56631" lon="2.93644">
        <ele>127</ele>
        <time>2017-04-16T14:27:13.000Z</time>
      </trkpt>
      <trkpt lat="43.56609" lon="2.93639">
        <ele>126</ele>
        <time>2017-04-16T14:27:16.000Z</time>
      </trkpt>
      <trkpt lat="43.56591" lon="2.93642">
        <ele>125.2</ele>
        <time>2017-04-16T14:27:18.000Z</time>
      </trkpt>
      <trkpt lat="43.56573" lon="2.93648">
        <ele>124.4</ele>
        <time>2017-04-16T14:27:20.000Z</time>
      </trkpt>
      <trkpt lat="43.56564" lon="2.93654">
        <ele>124</ele>
        <time>2017-04-16T14:27:21.000Z</time>
      </trkpt>
      <trkpt lat="43.56546" lon="2.93665">
        <ele>123</ele>
        <time>2017-04-16T14:27:23.000Z</time>
      </trkpt>
      <trkpt lat="43.56534" lon="2.93686">
        <ele>122</ele>
        <time>2017-04-16T14:27:25.000Z</time>
      </trkpt>
      <trkpt lat="43.5653" lon="2.93699">
        <ele>121.2</ele>
        <time>2017-04-16T14:27:26.000Z</time>
      </trkpt>
      <trkpt lat="43.56527" lon="2.93714">
        <ele>120.6</ele>
        <time>2017-04-16T14:27:27.000Z</time>
      </trkpt>
      <trkpt lat="43.56524" lon="2.93727">
        <ele>120</ele>
        <time>2017-04-16T14:27:28.000Z</time>
      </trkpt>
      <trkpt lat="43.56521" lon="2.93741">
        <ele>119.4</ele>
        <time>2017-04-16T14:27:29.000Z</time>
      </trkpt>
      <trkpt lat="43.56518" lon="2.93753">
        <ele>118.6</ele>
        <time>2017-04-16T14:27:30.000Z</time>
      </trkpt>
      <trkpt lat="43.56509" lon="2.93769">
        <ele>117.2</ele>
        <time>2017-04-16T14:27:32.000Z</time>
      </trkpt>
      <trkpt lat="43.56499" lon="2.93776">
        <ele>115.8</ele>
        <time>2017-04-16T14:27:34.000Z</time>
      </trkpt>
      <trkpt lat="43.56495" lon="2.93776">
        <ele>115</ele>
        <time>2017-04-16T14:27:35.000Z</time>
      </trkpt>
      <trkpt lat="43.56492" lon="2.93776">
        <ele>114.2</ele>
        <time>2017-04-16T14:27:36.000Z</time>
      </trkpt>
      <trkpt lat="43.5649" lon="2.93776">
        <ele>113.6</ele>
        <time>2017-04-16T14:27:37.000Z</time>
      </trkpt>
      <trkpt lat="43.56489" lon="2.93775">
        <ele>112.8</ele>
        <time>2017-04-16T14:27:38.000Z</time>
      </trkpt>
      <trkpt lat="43.56489" lon="2.93779">
        <ele>111.4</ele>
        <time>2017-04-16T14:27:41.000Z</time>
      </trkpt>
      <trkpt lat="43.56489" lon="2.93781">
        <ele>110.6</ele>
        <time>2017-04-16T14:27:43.000Z</time>
      </trkpt>
      <trkpt lat="43.56484" lon="2.93781">
        <ele>108</ele>
        <time>2017-04-16T14:27:56.000Z</time>
      </trkpt>
      <trkpt lat="43.56481" lon="2.93777">
        <ele>108</ele>
        <time>2017-04-16T14:28:00.000Z</time>
      </trkpt>
      <trkpt lat="43.56481" lon="2.93775">
        <ele>108.2</ele>
        <time>2017-04-16T14:28:02.000Z</time>
      </trkpt>
      <trkpt lat="43.56483" lon="2.93778">
        <ele>108.4</ele>
        <time>2017-04-16T14:28:04.000Z</time>
      </trkpt>
      <trkpt lat="43.56485" lon="2.93787">
        <ele>108.6</ele>
        <time>2017-04-16T14:28:06.000Z</time>
      </trkpt>
      <trkpt lat="43.56488" lon="2.93797">
        <ele>108.8</ele>
        <time>2017-04-16T14:28:08.000Z</time>
      </trkpt>
      <trkpt lat="43.56489" lon="2.93802">
        <ele>108.8</ele>
        <time>2017-04-16T14:28:09.000Z</time>
      </trkpt>
      <trkpt lat="43.56494" lon="2.93831">
        <ele>109</ele>
        <time>2017-04-16T14:28:14.000Z</time>
      </trkpt>
      <trkpt lat="43.56498" lon="2.93854">
        <ele>109</ele>
        <time>2017-04-16T14:28:18.000Z</time>
      </trkpt>
      <trkpt lat="43.56501" lon="2.9388">
        <ele>109.2</ele>
        <time>2017-04-16T14:28:22.000Z</time>
      </trkpt>
      <trkpt lat="43.56511" lon="2.93918">
        <ele>109.2</ele>
        <time>2017-04-16T14:28:27.000Z</time>
      </trkpt>
      <trkpt lat="43.56513" lon="2.93926">
        <ele>109.2</ele>
        <time>2017-04-16T14:28:28.000Z</time>
      </trkpt>
      <trkpt lat="43.56526" lon="2.93978">
        <ele>109.2</ele>
        <time>2017-04-16T14:28:34.000Z</time>
      </trkpt>
      <trkpt lat="43.5653" lon="2.93987">
        <ele>109.2</ele>
        <time>2017-04-16T14:28:35.000Z</time>
      </trkpt>
      <trkpt lat="43.56535" lon="2.94004">
        <ele>109.2</ele>
        <time>2017-04-16T14:28:37.000Z</time>
      </trkpt>
      <trkpt lat="43.56538" lon="2.94046">
        <ele>109.2</ele>
        <time>2017-04-16T14:28:42.000Z</time>
      </trkpt>
      <trkpt lat="43.56543" lon="2.94077">
        <ele>109.2</ele>
        <time>2017-04-16T14:28:46.000Z</time>
      </trkpt>
      <trkpt lat="43.56539" lon="2.94121">
        <ele>109.2</ele>
        <time>2017-04-16T14:28:51.000Z</time>
      </trkpt>
      <trkpt lat="43.56542" lon="2.94148">
        <ele>109.2</ele>
        <time>2017-04-16T14:28:54.000Z</time>
      </trkpt>
      <trkpt lat="43.5655" lon="2.9419">
        <ele>109.2</ele>
        <time>2017-04-16T14:28:59.000Z</time>
      </trkpt>
      <trkpt lat="43.5655" lon="2.94197">
        <ele>109.2</ele>
        <time>2017-04-16T14:29:00.000Z</time>
      </trkpt>
      <trkpt lat="43.56547" lon="2.94223">
        <ele>109.2</ele>
        <time>2017-04-16T14:29:04.000Z</time>
      </trkpt>
      <trkpt lat="43.56548" lon="2.94249">
        <ele>109.4</ele>
        <time>2017-04-16T14:29:08.000Z</time>
      </trkpt>
      <trkpt lat="43.56548" lon="2.94263">
        <ele>109.8</ele>
        <time>2017-04-16T14:29:10.000Z</time>
      </trkpt>
      <trkpt lat="43.56549" lon="2.94269">
        <ele>110</ele>
        <time>2017-04-16T14:29:11.000Z</time>
      </trkpt>
      <trkpt lat="43.5655" lon="2.94277">
        <ele>110.2</ele>
        <time>2017-04-16T14:29:12.000Z</time>
      </trkpt>
      <trkpt lat="43.56551" lon="2.94289">
        <ele>110.4</ele>
        <time>2017-04-16T14:29:14.000Z</time>
      </trkpt>
      <trkpt lat="43.56552" lon="2.94295">
        <ele>110.4</ele>
        <time>2017-04-16T14:29:15.000Z</time>
      </trkpt>
      <trkpt lat="43.56553" lon="2.94314">
        <ele>110.6</ele>
        <time>2017-04-16T14:29:18.000Z</time>
      </trkpt>
      <trkpt lat="43.56553" lon="2.94348">
        <ele>111</ele>
        <time>2017-04-16T14:29:23.000Z</time>
      </trkpt>
      <trkpt lat="43.56556" lon="2.94356">
        <ele>111</ele>
        <time>2017-04-16T14:29:24.000Z</time>
      </trkpt>
      <trkpt lat="43.56568" lon="2.94396">
        <ele>111.2</ele>
        <time>2017-04-16T14:29:29.000Z</time>
      </trkpt>
      <trkpt lat="43.5657" lon="2.94403">
        <ele>111.4</ele>
        <time>2017-04-16T14:29:30.000Z</time>
      </trkpt>
      <trkpt lat="43.5657" lon="2.94409">
        <ele>111.6</ele>
        <time>2017-04-16T14:29:31.000Z</time>
      </trkpt>
      <trkpt lat="43.56571" lon="2.94416">
        <ele>111.8</ele>
        <time>2017-04-16T14:29:32.000Z</time>
      </trkpt>
      <trkpt lat="43.56571" lon="2.9443">
        <ele>112</ele>
        <time>2017-04-16T14:29:34.000Z</time>
      </trkpt>
      <trkpt lat="43.56571" lon="2.94436">
        <ele>112.2</ele>
        <time>2017-04-16T14:29:35.000Z</time>
      </trkpt>
      <trkpt lat="43.56577" lon="2.94452">
        <ele>112.6</ele>
        <time>2017-04-16T14:29:38.000Z</time>
      </trkpt>
      <trkpt lat="43.56579" lon="2.94457">
        <ele>112.6</ele>
        <time>2017-04-16T14:29:39.000Z</time>
      </trkpt>
      <trkpt lat="43.56595" lon="2.94488">
        <ele>113</ele>
        <time>2017-04-16T14:29:44.000Z</time>
      </trkpt>
      <trkpt lat="43.56598" lon="2.94494">
        <ele>113</ele>
        <time>2017-04-16T14:29:45.000Z</time>
      </trkpt>
      <trkpt lat="43.56608" lon="2.94516">
        <ele>113.2</ele>
        <time>2017-04-16T14:29:48.000Z</time>
      </trkpt>
      <trkpt lat="43.56611" lon="2.94526">
        <ele>113.6</ele>
        <time>2017-04-16T14:29:49.000Z</time>
      </trkpt>
      <trkpt lat="43.56614" lon="2.94534">
        <ele>113.8</ele>
        <time>2017-04-16T14:29:50.000Z</time>
      </trkpt>
      <trkpt lat="43.5662" lon="2.94551">
        <ele>114</ele>
        <time>2017-04-16T14:29:52.000Z</time>
      </trkpt>
      <trkpt lat="43.56628" lon="2.94567">
        <ele>114.4</ele>
        <time>2017-04-16T14:29:54.000Z</time>
      </trkpt>
      <trkpt lat="43.56635" lon="2.94582">
        <ele>114.6</ele>
        <time>2017-04-16T14:29:56.000Z</time>
      </trkpt>
      <trkpt lat="43.56639" lon="2.94589">
        <ele>114.6</ele>
        <time>2017-04-16T14:29:57.000Z</time>
      </trkpt>
      <trkpt lat="43.56646" lon="2.94603">
        <ele>114.8</ele>
        <time>2017-04-16T14:29:59.000Z</time>
      </trkpt>
      <trkpt lat="43.5666" lon="2.94636">
        <ele>115</ele>
        <time>2017-04-16T14:30:04.000Z</time>
      </trkpt>
      <trkpt lat="43.56662" lon="2.94643">
        <ele>115.2</ele>
        <time>2017-04-16T14:30:05.000Z</time>
      </trkpt>
      <trkpt lat="43.56675" lon="2.94686">
        <ele>115.2</ele>
        <time>2017-04-16T14:30:10.000Z</time>
      </trkpt>
      <trkpt lat="43.56686" lon="2.94728">
        <ele>115.4</ele>
        <time>2017-04-16T14:30:15.000Z</time>
      </trkpt>
      <trkpt lat="43.56691" lon="2.94744">
        <ele>115.4</ele>
        <time>2017-04-16T14:30:17.000Z</time>
      </trkpt>
      <trkpt lat="43.567" lon="2.94786">
        <ele>115.4</ele>
        <time>2017-04-16T14:30:22.000Z</time>
      </trkpt>
      <trkpt lat="43.56709" lon="2.94836">
        <ele>115.4</ele>
        <time>2017-04-16T14:30:28.000Z</time>
      </trkpt>
      <trkpt lat="43.56712" lon="2.94871">
        <ele>115.4</ele>
        <time>2017-04-16T14:30:32.000Z</time>
      </trkpt>
      <trkpt lat="43.56708" lon="2.94904">
        <ele>115.4</ele>
        <time>2017-04-16T14:30:36.000Z</time>
      </trkpt>
      <trkpt lat="43.56699" lon="2.94935">
        <ele>115.4</ele>
        <time>2017-04-16T14:30:40.000Z</time>
      </trkpt>
      <trkpt lat="43.56694" lon="2.94962">
        <ele>115.4</ele>
        <time>2017-04-16T14:30:43.000Z</time>
      </trkpt>
      <trkpt lat="43.56681" lon="2.95004">
        <ele>115.6</ele>
        <time>2017-04-16T14:30:48.000Z</time>
      </trkpt>
      <trkpt lat="43.56677" lon="2.95022">
        <ele>116</ele>
        <time>2017-04-16T14:30:50.000Z</time>
      </trkpt>
      <trkpt lat="43.56674" lon="2.95038">
        <ele>116.2</ele>
        <time>2017-04-16T14:30:52.000Z</time>
      </trkpt>
      <trkpt lat="43.5667" lon="2.95055">
        <ele>116.6</ele>
        <time>2017-04-16T14:30:54.000Z</time>
      </trkpt>
      <trkpt lat="43.56667" lon="2.95072">
        <ele>116.8</ele>
        <time>2017-04-16T14:30:56.000Z</time>
      </trkpt>
      <trkpt lat="43.5666" lon="2.9511">
        <ele>117</ele>
        <time>2017-04-16T14:31:01.000Z</time>
      </trkpt>
      <trkpt lat="43.56658" lon="2.95118">
        <ele>117</ele>
        <time>2017-04-16T14:31:02.000Z</time>
      </trkpt>
      <trkpt lat="43.56658" lon="2.95126">
        <ele>117.2</ele>
        <time>2017-04-16T14:31:03.000Z</time>
      </trkpt>
      <trkpt lat="43.56656" lon="2.95143">
        <ele>117.2</ele>
        <time>2017-04-16T14:31:05.000Z</time>
      </trkpt>
      <trkpt lat="43.56656" lon="2.95169">
        <ele>117.2</ele>
        <time>2017-04-16T14:31:08.000Z</time>
      </trkpt>
      <trkpt lat="43.56658" lon="2.95195">
        <ele>117.4</ele>
        <time>2017-04-16T14:31:11.000Z</time>
      </trkpt>
      <trkpt lat="43.56657" lon="2.95234">
        <ele>117.6</ele>
        <time>2017-04-16T14:31:16.000Z</time>
      </trkpt>
      <trkpt lat="43.56658" lon="2.95242">
        <ele>117.8</ele>
        <time>2017-04-16T14:31:17.000Z</time>
      </trkpt>
      <trkpt lat="43.56658" lon="2.95252">
        <ele>118</ele>
        <time>2017-04-16T14:31:18.000Z</time>
      </trkpt>
      <trkpt lat="43.56659" lon="2.95268">
        <ele>118.2</ele>
        <time>2017-04-16T14:31:20.000Z</time>
      </trkpt>
      <trkpt lat="43.5666" lon="2.95276">
        <ele>118.4</ele>
        <time>2017-04-16T14:31:21.000Z</time>
      </trkpt>
      <trkpt lat="43.56659" lon="2.95285">
        <ele>118.6</ele>
        <time>2017-04-16T14:31:22.000Z</time>
      </trkpt>
      <trkpt lat="43.5666" lon="2.95301">
        <ele>118.6</ele>
        <time>2017-04-16T14:31:24.000Z</time>
      </trkpt>
      <trkpt lat="43.56659" lon="2.95307">
        <ele>118.8</ele>
        <time>2017-04-16T14:31:25.000Z</time>
      </trkpt>
      <trkpt lat="43.56658" lon="2.95321">
        <ele>119</ele>
        <time>2017-04-16T14:31:27.000Z</time>
      </trkpt>
      <trkpt lat="43.56663" lon="2.95361">
        <ele>119.2</ele>
        <time>2017-04-16T14:31:32.000Z</time>
      </trkpt>
      <trkpt lat="43.56667" lon="2.95413">
        <ele>119.4</ele>
        <time>2017-04-16T14:31:38.000Z</time>
      </trkpt>
      <trkpt lat="43.56671" lon="2.95448">
        <ele>119.4</ele>
        <time>2017-04-16T14:31:43.000Z</time>
      </trkpt>
      <trkpt lat="43.56671" lon="2.95472">
        <ele>119.4</ele>
        <time>2017-04-16T14:31:46.000Z</time>
      </trkpt>
      <trkpt lat="43.56674" lon="2.95511">
        <ele>119.4</ele>
        <time>2017-04-16T14:31:50.000Z</time>
      </trkpt>
      <trkpt lat="43.56673" lon="2.95537">
        <ele>119.4</ele>
        <time>2017-04-16T14:31:53.000Z</time>
      </trkpt>
      <trkpt lat="43.56673" lon="2.95585">
        <ele>119.6</ele>
        <time>2017-04-16T14:31:59.000Z</time>
      </trkpt>
      <trkpt lat="43.56673" lon="2.95594">
        <ele>119.6</ele>
        <time>2017-04-16T14:32:00.000Z</time>
      </trkpt>
      <trkpt lat="43.56673" lon="2.95603">
        <ele>119.8</ele>
        <time>2017-04-16T14:32:01.000Z</time>
      </trkpt>
      <trkpt lat="43.56673" lon="2.95621">
        <ele>120.2</ele>
        <time>2017-04-16T14:32:03.000Z</time>
      </trkpt>
      <trkpt lat="43.56673" lon="2.9564">
        <ele>120.4</ele>
        <time>2017-04-16T14:32:05.000Z</time>
      </trkpt>
      <trkpt lat="43.56671" lon="2.95659">
        <ele>120.8</ele>
        <time>2017-04-16T14:32:07.000Z</time>
      </trkpt>
      <trkpt lat="43.5667" lon="2.95679">
        <ele>121</ele>
        <time>2017-04-16T14:32:09.000Z</time>
      </trkpt>
      <trkpt lat="43.56669" lon="2.95719">
        <ele>121.2</ele>
        <time>2017-04-16T14:32:14.000Z</time>
      </trkpt>
      <trkpt lat="43.5667" lon="2.95727">
        <ele>121.4</ele>
        <time>2017-04-16T14:32:15.000Z</time>
      </trkpt>
      <trkpt lat="43.5667" lon="2.95786">
        <ele>121.6</ele>
        <time>2017-04-16T14:32:22.000Z</time>
      </trkpt>
      <trkpt lat="43.56668" lon="2.95834">
        <ele>121.8</ele>
        <time>2017-04-16T14:32:27.000Z</time>
      </trkpt>
      <trkpt lat="43.56668" lon="2.95853">
        <ele>122.2</ele>
        <time>2017-04-16T14:32:29.000Z</time>
      </trkpt>
      <trkpt lat="43.56669" lon="2.95871">
        <ele>122.6</ele>
        <time>2017-04-16T14:32:31.000Z</time>
      </trkpt>
      <trkpt lat="43.5667" lon="2.95891">
        <ele>122.8</ele>
        <time>2017-04-16T14:32:33.000Z</time>
      </trkpt>
      <trkpt lat="43.56672" lon="2.95909">
        <ele>123</ele>
        <time>2017-04-16T14:32:35.000Z</time>
      </trkpt>
      <trkpt lat="43.56673" lon="2.95928">
        <ele>123.2</ele>
        <time>2017-04-16T14:32:37.000Z</time>
      </trkpt>
      <trkpt lat="43.56677" lon="2.95945">
        <ele>123.4</ele>
        <time>2017-04-16T14:32:41.000Z</time>
      </trkpt>
      <trkpt lat="43.56676" lon="2.95947">
        <ele>123.4</ele>
        <time>2017-04-16T14:32:42.000Z</time>
      </trkpt>
      <trkpt lat="43.56672" lon="2.95966">
        <ele>123.6</ele>
        <time>2017-04-16T14:32:47.000Z</time>
      </trkpt>
      <trkpt lat="43.56673" lon="2.95986">
        <ele>123.8</ele>
        <time>2017-04-16T14:32:50.000Z</time>
      </trkpt>
      <trkpt lat="43.56679" lon="2.96007">
        <ele>123.8</ele>
        <time>2017-04-16T14:32:54.000Z</time>
      </trkpt>
      <trkpt lat="43.56684" lon="2.96034">
        <ele>123.8</ele>
        <time>2017-04-16T14:32:58.000Z</time>
      </trkpt>
      <trkpt lat="43.5669" lon="2.96062">
        <ele>123.8</ele>
        <time>2017-04-16T14:33:02.000Z</time>
      </trkpt>
      <trkpt lat="43.56702" lon="2.96118">
        <ele>123.8</ele>
        <time>2017-04-16T14:33:09.000Z</time>
      </trkpt>
      <trkpt lat="43.56718" lon="2.96174">
        <ele>124</ele>
        <time>2017-04-16T14:33:16.000Z</time>
      </trkpt>
      <trkpt lat="43.56734" lon="2.96225">
        <ele>124</ele>
        <time>2017-04-16T14:33:22.000Z</time>
      </trkpt>
      <trkpt lat="43.56752" lon="2.96279">
        <ele>124</ele>
        <time>2017-04-16T14:33:28.000Z</time>
      </trkpt>
      <trkpt lat="43.56771" lon="2.96328">
        <ele>124</ele>
        <time>2017-04-16T14:33:34.000Z</time>
      </trkpt>
      <trkpt lat="43.56797" lon="2.96387">
        <ele>124</ele>
        <time>2017-04-16T14:33:41.000Z</time>
      </trkpt>
      <trkpt lat="43.56814" lon="2.96425">
        <ele>124</ele>
        <time>2017-04-16T14:33:46.000Z</time>
      </trkpt>
      <trkpt lat="43.56816" lon="2.96433">
        <ele>124</ele>
        <time>2017-04-16T14:33:47.000Z</time>
      </trkpt>
      <trkpt lat="43.56828" lon="2.96464">
        <ele>124</ele>
        <time>2017-04-16T14:33:52.000Z</time>
      </trkpt>
      <trkpt lat="43.5683" lon="2.96471">
        <ele>124</ele>
        <time>2017-04-16T14:33:55.000Z</time>
      </trkpt>
      <trkpt lat="43.56828" lon="2.96471">
        <ele>124</ele>
        <time>2017-04-16T14:33:56.000Z</time>
      </trkpt>
      <trkpt lat="43.56817" lon="2.96469">
        <ele>124</ele>
        <time>2017-04-16T14:33:59.000Z</time>
      </trkpt>
      <trkpt lat="43.56813" lon="2.9647">
        <ele>124</ele>
        <time>2017-04-16T14:34:00.000Z</time>
      </trkpt>
      <trkpt lat="43.568" lon="2.96474">
        <ele>124</ele>
        <time>2017-04-16T14:34:03.000Z</time>
      </trkpt>
      <trkpt lat="43.5679" lon="2.96478">
        <ele>123.6</ele>
        <time>2017-04-16T14:34:05.000Z</time>
      </trkpt>
      <trkpt lat="43.56777" lon="2.96486">
        <ele>123.4</ele>
        <time>2017-04-16T14:34:07.000Z</time>
      </trkpt>
      <trkpt lat="43.56762" lon="2.96494">
        <ele>123</ele>
        <time>2017-04-16T14:34:09.000Z</time>
      </trkpt>
      <trkpt lat="43.56754" lon="2.965">
        <ele>122.6</ele>
        <time>2017-04-16T14:34:10.000Z</time>
      </trkpt>
      <trkpt lat="43.56742" lon="2.96519">
        <ele>121.8</ele>
        <time>2017-04-16T14:34:12.000Z</time>
      </trkpt>
      <trkpt lat="43.56738" lon="2.96527">
        <ele>121.4</ele>
        <time>2017-04-16T14:34:13.000Z</time>
      </trkpt>
      <trkpt lat="43.56734" lon="2.96534">
        <ele>120.8</ele>
        <time>2017-04-16T14:34:14.000Z</time>
      </trkpt>
      <trkpt lat="43.56733" lon="2.96539">
        <ele>120</ele>
        <time>2017-04-16T14:34:15.000Z</time>
      </trkpt>
      <trkpt lat="43.56727" lon="2.96542">
        <ele>119</ele>
        <time>2017-04-16T14:34:17.000Z</time>
      </trkpt>
      <trkpt lat="43.56722" lon="2.96542">
        <ele>118.2</ele>
        <time>2017-04-16T14:34:18.000Z</time>
      </trkpt>
      <trkpt lat="43.56718" lon="2.96542">
        <ele>117.6</ele>
        <time>2017-04-16T14:34:19.000Z</time>
      </trkpt>
      <trkpt lat="43.56712" lon="2.96542">
        <ele>117</ele>
        <time>2017-04-16T14:34:20.000Z</time>
      </trkpt>
      <trkpt lat="43.56707" lon="2.96542">
        <ele>116.4</ele>
        <time>2017-04-16T14:34:21.000Z</time>
      </trkpt>
      <trkpt lat="43.56689" lon="2.96548">
        <ele>115.2</ele>
        <time>2017-04-16T14:34:24.000Z</time>
      </trkpt>
      <trkpt lat="43.56686" lon="2.96551">
        <ele>114.8</ele>
        <time>2017-04-16T14:34:25.000Z</time>
      </trkpt>
      <trkpt lat="43.56682" lon="2.96552">
        <ele>114.6</ele>
        <time>2017-04-16T14:34:26.000Z</time>
      </trkpt>
      <trkpt lat="43.56679" lon="2.96554">
        <ele>114</ele>
        <time>2017-04-16T14:34:28.000Z</time>
      </trkpt>
      <trkpt lat="43.56677" lon="2.96562">
        <ele>113.4</ele>
        <time>2017-04-16T14:34:30.000Z</time>
      </trkpt>
      <trkpt lat="43.56677" lon="2.96573">
        <ele>112.6</ele>
        <time>2017-04-16T14:34:32.000Z</time>
      </trkpt>
      <trkpt lat="43.56677" lon="2.9658">
        <ele>112.2</ele>
        <time>2017-04-16T14:34:33.000Z</time>
      </trkpt>
      <trkpt lat="43.56677" lon="2.96587">
        <ele>112</ele>
        <time>2017-04-16T14:34:34.000Z</time>
      </trkpt>
      <trkpt lat="43.56676" lon="2.966">
        <ele>111.6</ele>
        <time>2017-04-16T14:34:36.000Z</time>
      </trkpt>
      <trkpt lat="43.56675" lon="2.96613">
        <ele>111.2</ele>
        <time>2017-04-16T14:34:38.000Z</time>
      </trkpt>
      <trkpt lat="43.56663" lon="2.96654">
        <ele>110.4</ele>
        <time>2017-04-16T14:34:44.000Z</time>
      </trkpt>
      <trkpt lat="43.5666" lon="2.96661">
        <ele>110.4</ele>
        <time>2017-04-16T14:34:45.000Z</time>
      </trkpt>
      <trkpt lat="43.56637" lon="2.96719">
        <ele>109.8</ele>
        <time>2017-04-16T14:34:52.000Z</time>
      </trkpt>
      <trkpt lat="43.56617" lon="2.9678">
        <ele>109.6</ele>
        <time>2017-04-16T14:34:58.000Z</time>
      </trkpt>
      <trkpt lat="43.5661" lon="2.96802">
        <ele>109</ele>
        <time>2017-04-16T14:35:00.000Z</time>
      </trkpt>
      <trkpt lat="43.56604" lon="2.96824">
        <ele>108.8</ele>
        <time>2017-04-16T14:35:02.000Z</time>
      </trkpt>
      <trkpt lat="43.56598" lon="2.96847">
        <ele>108.4</ele>
        <time>2017-04-16T14:35:04.000Z</time>
      </trkpt>
      <trkpt lat="43.56591" lon="2.96875">
        <ele>108.2</ele>
        <time>2017-04-16T14:35:06.000Z</time>
      </trkpt>
      <trkpt lat="43.56587" lon="2.96894">
        <ele>107.8</ele>
        <time>2017-04-16T14:35:08.000Z</time>
      </trkpt>
      <trkpt lat="43.56582" lon="2.96922">
        <ele>107.4</ele>
        <time>2017-04-16T14:35:10.000Z</time>
      </trkpt>
      <trkpt lat="43.56579" lon="2.96949">
        <ele>107</ele>
        <time>2017-04-16T14:35:12.000Z</time>
      </trkpt>
      <trkpt lat="43.56578" lon="2.9697">
        <ele>106.6</ele>
        <time>2017-04-16T14:35:14.000Z</time>
      </trkpt>
      <trkpt lat="43.56578" lon="2.96984">
        <ele>106.4</ele>
        <time>2017-04-16T14:35:15.000Z</time>
      </trkpt>
      <trkpt lat="43.56578" lon="2.96996">
        <ele>106.4</ele>
        <time>2017-04-16T14:35:16.000Z</time>
      </trkpt>
      <trkpt lat="43.56578" lon="2.97009">
        <ele>106</ele>
        <time>2017-04-16T14:35:17.000Z</time>
      </trkpt>
      <trkpt lat="43.56579" lon="2.97036">
        <ele>105.4</ele>
        <time>2017-04-16T14:35:19.000Z</time>
      </trkpt>
      <trkpt lat="43.5658" lon="2.97049">
        <ele>105.2</ele>
        <time>2017-04-16T14:35:20.000Z</time>
      </trkpt>
      <trkpt lat="43.56583" lon="2.97089">
        <ele>104.6</ele>
        <time>2017-04-16T14:35:23.000Z</time>
      </trkpt>
      <trkpt lat="43.56581" lon="2.97102">
        <ele>104.6</ele>
        <time>2017-04-16T14:35:24.000Z</time>
      </trkpt>
      <trkpt lat="43.56579" lon="2.97115">
        <ele>104.4</ele>
        <time>2017-04-16T14:35:25.000Z</time>
      </trkpt>
      <trkpt lat="43.56578" lon="2.97128">
        <ele>104</ele>
        <time>2017-04-16T14:35:26.000Z</time>
      </trkpt>
      <trkpt lat="43.56574" lon="2.97154">
        <ele>103.4</ele>
        <time>2017-04-16T14:35:28.000Z</time>
      </trkpt>
      <trkpt lat="43.56569" lon="2.9718">
        <ele>103</ele>
        <time>2017-04-16T14:35:30.000Z</time>
      </trkpt>
      <trkpt lat="43.56565" lon="2.97205">
        <ele>102.6</ele>
        <time>2017-04-16T14:35:32.000Z</time>
      </trkpt>
      <trkpt lat="43.56564" lon="2.97218">
        <ele>102.2</ele>
        <time>2017-04-16T14:35:33.000Z</time>
      </trkpt>
      <trkpt lat="43.56561" lon="2.97244">
        <ele>101.6</ele>
        <time>2017-04-16T14:35:35.000Z</time>
      </trkpt>
      <trkpt lat="43.56557" lon="2.97269">
        <ele>101.2</ele>
        <time>2017-04-16T14:35:37.000Z</time>
      </trkpt>
      <trkpt lat="43.56556" lon="2.97282">
        <ele>101</ele>
        <time>2017-04-16T14:35:38.000Z</time>
      </trkpt>
      <trkpt lat="43.56557" lon="2.97308">
        <ele>100.6</ele>
        <time>2017-04-16T14:35:40.000Z</time>
      </trkpt>
      <trkpt lat="43.56559" lon="2.97332">
        <ele>100</ele>
        <time>2017-04-16T14:35:42.000Z</time>
      </trkpt>
      <trkpt lat="43.56562" lon="2.97342">
        <ele>99.8</ele>
        <time>2017-04-16T14:35:43.000Z</time>
      </trkpt>
      <trkpt lat="43.56569" lon="2.97374">
        <ele>99</ele>
        <time>2017-04-16T14:35:46.000Z</time>
      </trkpt>
      <trkpt lat="43.56574" lon="2.97387">
        <ele>98.6</ele>
        <time>2017-04-16T14:35:48.000Z</time>
      </trkpt>
      <trkpt lat="43.56576" lon="2.97394">
        <ele>98</ele>
        <time>2017-04-16T14:35:50.000Z</time>
      </trkpt>
      <trkpt lat="43.56577" lon="2.97395">
        <ele>97.4</ele>
        <time>2017-04-16T14:35:52.000Z</time>
      </trkpt>
      <trkpt lat="43.56577" lon="2.97396">
        <ele>97.2</ele>
        <time>2017-04-16T14:35:53.000Z</time>
      </trkpt>
      <trkpt lat="43.56568" lon="2.97394">
        <ele>96.4</ele>
        <time>2017-04-16T14:35:56.000Z</time>
      </trkpt>
      <trkpt lat="43.5656" lon="2.97393">
        <ele>96.2</ele>
        <time>2017-04-16T14:35:58.000Z</time>
      </trkpt>
      <trkpt lat="43.56547" lon="2.97396">
        <ele>95.8</ele>
        <time>2017-04-16T14:36:01.000Z</time>
      </trkpt>
      <trkpt lat="43.56528" lon="2.97412">
        <ele>95.2</ele>
        <time>2017-04-16T14:36:05.000Z</time>
      </trkpt>
      <trkpt lat="43.56517" lon="2.97423">
        <ele>94.6</ele>
        <time>2017-04-16T14:36:07.000Z</time>
      </trkpt>
      <trkpt lat="43.5651" lon="2.97428">
        <ele>94.4</ele>
        <time>2017-04-16T14:36:08.000Z</time>
      </trkpt>
      <trkpt lat="43.56492" lon="2.97443">
        <ele>94</ele>
        <time>2017-04-16T14:36:11.000Z</time>
      </trkpt>
      <trkpt lat="43.5648" lon="2.97453">
        <ele>93.8</ele>
        <time>2017-04-16T14:36:13.000Z</time>
      </trkpt>
      <trkpt lat="43.5645" lon="2.9748">
        <ele>93.2</ele>
        <time>2017-04-16T14:36:18.000Z</time>
      </trkpt>
      <trkpt lat="43.5642" lon="2.97503">
        <ele>93</ele>
        <time>2017-04-16T14:36:23.000Z</time>
      </trkpt>
      <trkpt lat="43.56415" lon="2.97508">
        <ele>93</ele>
        <time>2017-04-16T14:36:24.000Z</time>
      </trkpt>
      <trkpt lat="43.56394" lon="2.97525">
        <ele>92.8</ele>
        <time>2017-04-16T14:36:28.000Z</time>
      </trkpt>
      <trkpt lat="43.56389" lon="2.9753">
        <ele>92.8</ele>
        <time>2017-04-16T14:36:29.000Z</time>
      </trkpt>
      <trkpt lat="43.56373" lon="2.97542">
        <ele>92.2</ele>
        <time>2017-04-16T14:36:32.000Z</time>
      </trkpt>
      <trkpt lat="43.56367" lon="2.97545">
        <ele>92</ele>
        <time>2017-04-16T14:36:33.000Z</time>
      </trkpt>
      <trkpt lat="43.56361" lon="2.97548">
        <ele>91.8</ele>
        <time>2017-04-16T14:36:34.000Z</time>
      </trkpt>
      <trkpt lat="43.56347" lon="2.97554">
        <ele>91.6</ele>
        <time>2017-04-16T14:36:36.000Z</time>
      </trkpt>
      <trkpt lat="43.56333" lon="2.97559">
        <ele>91.4</ele>
        <time>2017-04-16T14:36:38.000Z</time>
      </trkpt>
      <trkpt lat="43.56327" lon="2.97563">
        <ele>91.2</ele>
        <time>2017-04-16T14:36:39.000Z</time>
      </trkpt>
      <trkpt lat="43.56315" lon="2.97577">
        <ele>91</ele>
        <time>2017-04-16T14:36:42.000Z</time>
      </trkpt>
      <trkpt lat="43.56313" lon="2.97582">
        <ele>91</ele>
        <time>2017-04-16T14:36:43.000Z</time>
      </trkpt>
      <trkpt lat="43.56311" lon="2.97592">
        <ele>90.8</ele>
        <time>2017-04-16T14:36:47.000Z</time>
      </trkpt>
      <trkpt lat="43.56308" lon="2.97597">
        <ele>90.6</ele>
        <time>2017-04-16T14:36:52.000Z</time>
      </trkpt>
      <trkpt lat="43.56308" lon="2.97598">
        <ele>91</ele>
        <time>2017-04-16T14:36:54.000Z</time>
      </trkpt>
      <trkpt lat="43.56307" lon="2.97598">
        <ele>91.2</ele>
        <time>2017-04-16T14:36:55.000Z</time>
      </trkpt>
      <trkpt lat="43.56307" lon="2.97599">
        <ele>91.4</ele>
        <time>2017-04-16T14:36:57.000Z</time>
      </trkpt>
      <trkpt lat="43.56307" lon="2.97601">
        <ele>91.6</ele>
        <time>2017-04-16T14:36:59.000Z</time>
      </trkpt>
      <trkpt lat="43.56307" lon="2.97602">
        <ele>91.8</ele>
        <time>2017-04-16T14:37:01.000Z</time>
      </trkpt>
      <trkpt lat="43.56306" lon="2.97604">
        <ele>92</ele>
        <time>2017-04-16T14:37:03.000Z</time>
      </trkpt>
      <trkpt lat="43.56307" lon="2.97605">
        <ele>92</ele>
        <time>2017-04-16T14:37:04.000Z</time>
      </trkpt>
      <trkpt lat="43.56303" lon="2.97607">
        <ele>92.2</ele>
        <time>2017-04-16T14:37:08.000Z</time>
      </trkpt>
      <trkpt lat="43.56307" lon="2.97614">
        <ele>93.6</ele>
        <time>2017-04-16T14:37:19.000Z</time>
      </trkpt>
      <trkpt lat="43.56307" lon="2.97614">
        <ele>93.6</ele>
        <time>2017-04-16T14:37:20.000Z</time>
      </trkpt>
      <trkpt lat="43.56307" lon="2.97616">
        <ele>93.8</ele>
        <time>2017-04-16T14:37:21.000Z</time>
      </trkpt>
      <trkpt lat="43.56308" lon="2.97617">
        <ele>93.8</ele>
        <time>2017-04-16T14:37:22.000Z</time>
      </trkpt>
      <trkpt lat="43.56308" lon="2.97618">
        <ele>94</ele>
        <time>2017-04-16T14:37:23.000Z</time>
      </trkpt>
      <trkpt lat="43.56312" lon="2.9762">
        <ele>94.6</ele>
        <time>2017-04-16T14:39:24.000Z</time>
      </trkpt>
      <trkpt lat="43.56312" lon="2.9762">
        <ele>94.6</ele>
        <time>2017-04-16T14:39:25.000Z</time>
      </trkpt>
      <trkpt lat="43.56312" lon="2.9762">
        <ele>94.6</ele>
        <time>2017-04-16T14:39:26.000Z</time>
      </trkpt>
      <trkpt lat="43.56305" lon="2.97619">
        <ele>94.6</ele>
        <time>2017-04-16T14:40:19.000Z</time>
      </trkpt>
      <trkpt lat="43.56304" lon="2.97619">
        <ele>94.6</ele>
        <time>2017-04-16T14:40:20.000Z</time>
      </trkpt>
      <trkpt lat="43.56304" lon="2.97621">
        <ele>94.6</ele>
        <time>2017-04-16T14:40:22.000Z</time>
      </trkpt>
      <trkpt lat="43.56305" lon="2.97627">
        <ele>92.6</ele>
        <time>2017-04-16T14:43:49.000Z</time>
      </trkpt>
      <trkpt lat="43.56304" lon="2.97628">
        <ele>92.6</ele>
        <time>2017-04-16T14:43:50.000Z</time>
      </trkpt>
      <trkpt lat="43.56304" lon="2.97628">
        <ele>92.6</ele>
        <time>2017-04-16T14:43:51.000Z</time>
      </trkpt>
      <trkpt lat="43.56303" lon="2.97629">
        <ele>92.6</ele>
        <time>2017-04-16T14:43:52.000Z</time>
      </trkpt>
      <trkpt lat="43.56303" lon="2.97632">
        <ele>92.6</ele>
        <time>2017-04-16T14:43:54.000Z</time>
      </trkpt>
      <trkpt lat="43.56303" lon="2.97635">
        <ele>92.6</ele>
        <time>2017-04-16T14:43:56.000Z</time>
      </trkpt>
      <trkpt lat="43.56303" lon="2.97638">
        <ele>92.6</ele>
        <time>2017-04-16T14:43:58.000Z</time>
      </trkpt>
      <trkpt lat="43.56303" lon="2.9764">
        <ele>92.8</ele>
        <time>2017-04-16T14:43:59.000Z</time>
      </trkpt>
      <trkpt lat="43.56303" lon="2.97643">
        <ele>93.2</ele>
        <time>2017-04-16T14:44:01.000Z</time>
      </trkpt>
      <trkpt lat="43.56303" lon="2.97645">
        <ele>93.4</ele>
        <time>2017-04-16T14:44:03.000Z</time>
      </trkpt>
      <trkpt lat="43.56301" lon="2.97647">
        <ele>93.6</ele>
        <time>2017-04-16T14:44:05.000Z</time>
      </trkpt>
      <trkpt lat="43.563" lon="2.97649">
        <ele>93.8</ele>
        <time>2017-04-16T14:44:07.000Z</time>
      </trkpt>
      <trkpt lat="43.56299" lon="2.97653">
        <ele>94.4</ele>
        <time>2017-04-16T14:44:11.000Z</time>
      </trkpt>
      <trkpt lat="43.56299" lon="2.97655">
        <ele>94.8</ele>
        <time>2017-04-16T14:44:13.000Z</time>
      </trkpt>
      <trkpt lat="43.56298" lon="2.97657">
        <ele>95.2</ele>
        <time>2017-04-16T14:44:15.000Z</time>
      </trkpt>
      <trkpt lat="43.56297" lon="2.97659">
        <ele>95.4</ele>
        <time>2017-04-16T14:44:17.000Z</time>
      </trkpt>
      <trkpt lat="43.56296" lon="2.97662">
        <ele>95.8</ele>
        <time>2017-04-16T14:44:19.000Z</time>
      </trkpt>
      <trkpt lat="43.5629" lon="2.97668">
        <ele>96.2</ele>
        <time>2017-04-16T14:44:25.000Z</time>
      </trkpt>
      <trkpt lat="43.56289" lon="2.9767">
        <ele>96.2</ele>
        <time>2017-04-16T14:44:26.000Z</time>
      </trkpt>
      <trkpt lat="43.56276" lon="2.97685">
        <ele>96.6</ele>
        <time>2017-04-16T14:44:33.000Z</time>
      </trkpt>
      <trkpt lat="43.56264" lon="2.97699">
        <ele>96.6</ele>
        <time>2017-04-16T14:44:40.000Z</time>
      </trkpt>
      <trkpt lat="43.56262" lon="2.97703">
        <ele>96.6</ele>
        <time>2017-04-16T14:44:44.000Z</time>
      </trkpt>
      <trkpt lat="43.56263" lon="2.97704">
        <ele>96.6</ele>
        <time>2017-04-16T14:44:45.000Z</time>
      </trkpt>
      <trkpt lat="43.56263" lon="2.97713">
        <ele>96.8</ele>
        <time>2017-04-16T14:44:49.000Z</time>
      </trkpt>
      <trkpt lat="43.56261" lon="2.9772">
        <ele>97.4</ele>
        <time>2017-04-16T14:44:52.000Z</time>
      </trkpt>
      <trkpt lat="43.56261" lon="2.97721">
        <ele>97.6</ele>
        <time>2017-04-16T14:44:53.000Z</time>
      </trkpt>
      <trkpt lat="43.56259" lon="2.97725">
        <ele>97.8</ele>
        <time>2017-04-16T14:44:55.000Z</time>
      </trkpt>
      <trkpt lat="43.56258" lon="2.97729">
        <ele>98</ele>
        <time>2017-04-16T14:44:57.000Z</time>
      </trkpt>
      <trkpt lat="43.56257" lon="2.97733">
        <ele>98.2</ele>
        <time>2017-04-16T14:44:58.000Z</time>
      </trkpt>
      <trkpt lat="43.56254" lon="2.97741">
        <ele>98.8</ele>
        <time>2017-04-16T14:45:00.000Z</time>
      </trkpt>
      <trkpt lat="43.56249" lon="2.97748">
        <ele>99.2</ele>
        <time>2017-04-16T14:45:02.000Z</time>
      </trkpt>
      <trkpt lat="43.56244" lon="2.97754">
        <ele>99.4</ele>
        <time>2017-04-16T14:45:04.000Z</time>
      </trkpt>
      <trkpt lat="43.56239" lon="2.97762">
        <ele>99.6</ele>
        <time>2017-04-16T14:45:06.000Z</time>
      </trkpt>
      <trkpt lat="43.56228" lon="2.97787">
        <ele>100.2</ele>
        <time>2017-04-16T14:45:11.000Z</time>
      </trkpt>
      <trkpt lat="43.56225" lon="2.97792">
        <ele>100.2</ele>
        <time>2017-04-16T14:45:12.000Z</time>
      </trkpt>
      <trkpt lat="43.5621" lon="2.97823">
        <ele>100.4</ele>
        <time>2017-04-16T14:45:16.000Z</time>
      </trkpt>
      <trkpt lat="43.56203" lon="2.97847">
        <ele>99.8</ele>
        <time>2017-04-16T14:45:19.000Z</time>
      </trkpt>
      <trkpt lat="43.56204" lon="2.97854">
        <ele>99.6</ele>
        <time>2017-04-16T14:45:21.000Z</time>
      </trkpt>
      <trkpt lat="43.56205" lon="2.97861">
        <ele>99.4</ele>
        <time>2017-04-16T14:45:23.000Z</time>
      </trkpt>
      <trkpt lat="43.56204" lon="2.9787">
        <ele>99.2</ele>
        <time>2017-04-16T14:45:25.000Z</time>
      </trkpt>
      <trkpt lat="43.56201" lon="2.97885">
        <ele>99.2</ele>
        <time>2017-04-16T14:45:28.000Z</time>
      </trkpt>
      <trkpt lat="43.56199" lon="2.97896">
        <ele>99.4</ele>
        <time>2017-04-16T14:45:30.000Z</time>
      </trkpt>
      <trkpt lat="43.56197" lon="2.97906">
        <ele>99.6</ele>
        <time>2017-04-16T14:45:32.000Z</time>
      </trkpt>
      <trkpt lat="43.56196" lon="2.97915">
        <ele>99.8</ele>
        <time>2017-04-16T14:45:34.000Z</time>
      </trkpt>
      <trkpt lat="43.56194" lon="2.97925">
        <ele>100</ele>
        <time>2017-04-16T14:45:36.000Z</time>
      </trkpt>
      <trkpt lat="43.56191" lon="2.97953">
        <ele>100.2</ele>
        <time>2017-04-16T14:45:41.000Z</time>
      </trkpt>
      <trkpt lat="43.56192" lon="2.97973">
        <ele>100.4</ele>
        <time>2017-04-16T14:45:45.000Z</time>
      </trkpt>
      <trkpt lat="43.56195" lon="2.98004">
        <ele>100.4</ele>
        <time>2017-04-16T14:45:52.000Z</time>
      </trkpt>
      <trkpt lat="43.56198" lon="2.98023">
        <ele>100.6</ele>
        <time>2017-04-16T14:45:56.000Z</time>
      </trkpt>
      <trkpt lat="43.562" lon="2.98031">
        <ele>101</ele>
        <time>2017-04-16T14:45:58.000Z</time>
      </trkpt>
      <trkpt lat="43.56202" lon="2.98037">
        <ele>101.2</ele>
        <time>2017-04-16T14:46:00.000Z</time>
      </trkpt>
      <trkpt lat="43.56203" lon="2.98043">
        <ele>101.6</ele>
        <time>2017-04-16T14:46:02.000Z</time>
      </trkpt>
      <trkpt lat="43.56205" lon="2.98048">
        <ele>101.8</ele>
        <time>2017-04-16T14:46:04.000Z</time>
      </trkpt>
      <trkpt lat="43.56208" lon="2.98054">
        <ele>102</ele>
        <time>2017-04-16T14:46:06.000Z</time>
      </trkpt>
      <trkpt lat="43.56209" lon="2.98056">
        <ele>102.4</ele>
        <time>2017-04-16T14:46:07.000Z</time>
      </trkpt>
      <trkpt lat="43.56209" lon="2.98066">
        <ele>103</ele>
        <time>2017-04-16T14:46:10.000Z</time>
      </trkpt>
      <trkpt lat="43.56212" lon="2.98072">
        <ele>103.4</ele>
        <time>2017-04-16T14:46:12.000Z</time>
      </trkpt>
      <trkpt lat="43.56214" lon="2.98076">
        <ele>103.4</ele>
        <time>2017-04-16T14:46:13.000Z</time>
      </trkpt>
      <trkpt lat="43.56215" lon="2.98078">
        <ele>103.6</ele>
        <time>2017-04-16T14:46:14.000Z</time>
      </trkpt>
      <trkpt lat="43.5622" lon="2.98085">
        <ele>104</ele>
        <time>2017-04-16T14:46:17.000Z</time>
      </trkpt>
      <trkpt lat="43.56223" lon="2.9809">
        <ele>104.6</ele>
        <time>2017-04-16T14:46:19.000Z</time>
      </trkpt>
      <trkpt lat="43.56223" lon="2.98092">
        <ele>104.8</ele>
        <time>2017-04-16T14:46:20.000Z</time>
      </trkpt>
      <trkpt lat="43.56223" lon="2.98095">
        <ele>105</ele>
        <time>2017-04-16T14:46:21.000Z</time>
      </trkpt>
      <trkpt lat="43.56222" lon="2.98101">
        <ele>105.4</ele>
        <time>2017-04-16T14:46:23.000Z</time>
      </trkpt>
      <trkpt lat="43.56226" lon="2.98105">
        <ele>105.6</ele>
        <time>2017-04-16T14:46:25.000Z</time>
      </trkpt>
      <trkpt lat="43.56229" lon="2.98112">
        <ele>106</ele>
        <time>2017-04-16T14:46:28.000Z</time>
      </trkpt>
      <trkpt lat="43.56231" lon="2.98117">
        <ele>106.4</ele>
        <time>2017-04-16T14:46:30.000Z</time>
      </trkpt>
      <trkpt lat="43.56233" lon="2.98121">
        <ele>106.8</ele>
        <time>2017-04-16T14:46:32.000Z</time>
      </trkpt>
      <trkpt lat="43.56234" lon="2.98123">
        <ele>107</ele>
        <time>2017-04-16T14:46:33.000Z</time>
      </trkpt>
      <trkpt lat="43.56234" lon="2.98125">
        <ele>107.2</ele>
        <time>2017-04-16T14:46:34.000Z</time>
      </trkpt>
      <trkpt lat="43.56235" lon="2.98128">
        <ele>107.6</ele>
        <time>2017-04-16T14:46:36.000Z</time>
      </trkpt>
      <trkpt lat="43.56236" lon="2.9813">
        <ele>107.8</ele>
        <time>2017-04-16T14:46:37.000Z</time>
      </trkpt>
      <trkpt lat="43.56236" lon="2.98131">
        <ele>107.8</ele>
        <time>2017-04-16T14:46:38.000Z</time>
      </trkpt>
      <trkpt lat="43.56237" lon="2.98135">
        <ele>108</ele>
        <time>2017-04-16T14:46:40.000Z</time>
      </trkpt>
      <trkpt lat="43.56241" lon="2.98139">
        <ele>108.6</ele>
        <time>2017-04-16T14:46:43.000Z</time>
      </trkpt>
      <trkpt lat="43.56244" lon="2.98142">
        <ele>109</ele>
        <time>2017-04-16T14:46:45.000Z</time>
      </trkpt>
      <trkpt lat="43.56246" lon="2.98145">
        <ele>109.4</ele>
        <time>2017-04-16T14:46:47.000Z</time>
      </trkpt>
      <trkpt lat="43.56247" lon="2.98147">
        <ele>109.6</ele>
        <time>2017-04-16T14:46:48.000Z</time>
      </trkpt>
      <trkpt lat="43.5625" lon="2.98151">
        <ele>110</ele>
        <time>2017-04-16T14:46:51.000Z</time>
      </trkpt>
      <trkpt lat="43.56256" lon="2.98157">
        <ele>110.8</ele>
        <time>2017-04-16T14:46:56.000Z</time>
      </trkpt>
      <trkpt lat="43.56257" lon="2.98159">
        <ele>111</ele>
        <time>2017-04-16T14:46:57.000Z</time>
      </trkpt>
      <trkpt lat="43.5626" lon="2.9816">
        <ele>111.6</ele>
        <time>2017-04-16T14:47:00.000Z</time>
      </trkpt>
      <trkpt lat="43.56261" lon="2.98161">
        <ele>112.2</ele>
        <time>2017-04-16T14:47:02.000Z</time>
      </trkpt>
      <trkpt lat="43.56262" lon="2.98163">
        <ele>112.8</ele>
        <time>2017-04-16T14:47:04.000Z</time>
      </trkpt>
      <trkpt lat="43.56265" lon="2.98166">
        <ele>113.2</ele>
        <time>2017-04-16T14:47:06.000Z</time>
      </trkpt>
      <trkpt lat="43.56268" lon="2.9817">
        <ele>113.6</ele>
        <time>2017-04-16T14:47:08.000Z</time>
      </trkpt>
      <trkpt lat="43.56269" lon="2.98173">
        <ele>114</ele>
        <time>2017-04-16T14:47:09.000Z</time>
      </trkpt>
      <trkpt lat="43.56271" lon="2.98176">
        <ele>114.8</ele>
        <time>2017-04-16T14:47:11.000Z</time>
      </trkpt>
      <trkpt lat="43.56272" lon="2.98179">
        <ele>115.2</ele>
        <time>2017-04-16T14:47:13.000Z</time>
      </trkpt>
      <trkpt lat="43.56274" lon="2.98181">
        <ele>115.6</ele>
        <time>2017-04-16T14:47:15.000Z</time>
      </trkpt>
      <trkpt lat="43.56274" lon="2.98182">
        <ele>116</ele>
        <time>2017-04-16T14:47:17.000Z</time>
      </trkpt>
      <trkpt lat="43.56274" lon="2.98183">
        <ele>116.4</ele>
        <time>2017-04-16T14:47:18.000Z</time>
      </trkpt>
      <trkpt lat="43.56273" lon="2.98185">
        <ele>117</ele>
        <time>2017-04-16T14:47:20.000Z</time>
      </trkpt>
      <trkpt lat="43.56273" lon="2.98187">
        <ele>117.2</ele>
        <time>2017-04-16T14:47:21.000Z</time>
      </trkpt>
      <trkpt lat="43.56273" lon="2.9819">
        <ele>117.8</ele>
        <time>2017-04-16T14:47:24.000Z</time>
      </trkpt>
      <trkpt lat="43.56273" lon="2.98191">
        <ele>118</ele>
        <time>2017-04-16T14:47:25.000Z</time>
      </trkpt>
      <trkpt lat="43.56274" lon="2.98191">
        <ele>118.4</ele>
        <time>2017-04-16T14:47:27.000Z</time>
      </trkpt>
      <trkpt lat="43.56274" lon="2.98191">
        <ele>118.4</ele>
        <time>2017-04-16T14:47:28.000Z</time>
      </trkpt>
      <trkpt lat="43.56274" lon="2.98191">
        <ele>118.6</ele>
        <time>2017-04-16T14:47:29.000Z</time>
      </trkpt>
      <trkpt lat="43.56275" lon="2.98193">
        <ele>119</ele>
        <time>2017-04-16T14:47:31.000Z</time>
      </trkpt>
      <trkpt lat="43.56275" lon="2.98194">
        <ele>119.2</ele>
        <time>2017-04-16T14:47:32.000Z</time>
      </trkpt>
      <trkpt lat="43.56275" lon="2.98195">
        <ele>119.6</ele>
        <time>2017-04-16T14:47:34.000Z</time>
      </trkpt>
      <trkpt lat="43.56275" lon="2.98197">
        <ele>120</ele>
        <time>2017-04-16T14:47:36.000Z</time>
      </trkpt>
      <trkpt lat="43.56275" lon="2.98198">
        <ele>120.4</ele>
        <time>2017-04-16T14:47:38.000Z</time>
      </trkpt>
      <trkpt lat="43.56275" lon="2.98199">
        <ele>120.6</ele>
        <time>2017-04-16T14:47:39.000Z</time>
      </trkpt>
      <trkpt lat="43.56279" lon="2.98204">
        <ele>120.8</ele>
        <time>2017-04-16T14:47:42.000Z</time>
      </trkpt>
      <trkpt lat="43.56283" lon="2.98222">
        <ele>121.4</ele>
        <time>2017-04-16T14:47:52.000Z</time>
      </trkpt>
      <trkpt lat="43.56284" lon="2.98224">
        <ele>121.6</ele>
        <time>2017-04-16T14:47:54.000Z</time>
      </trkpt>
      <trkpt lat="43.56284" lon="2.98227">
        <ele>122</ele>
        <time>2017-04-16T14:47:56.000Z</time>
      </trkpt>
      <trkpt lat="43.56284" lon="2.9823">
        <ele>122.4</ele>
        <time>2017-04-16T14:47:58.000Z</time>
      </trkpt>
      <trkpt lat="43.56286" lon="2.98233">
        <ele>122.8</ele>
        <time>2017-04-16T14:48:00.000Z</time>
      </trkpt>
      <trkpt lat="43.56289" lon="2.98235">
        <ele>123</ele>
        <time>2017-04-16T14:48:02.000Z</time>
      </trkpt>
      <trkpt lat="43.56289" lon="2.98236">
        <ele>123</ele>
        <time>2017-04-16T14:48:03.000Z</time>
      </trkpt>
      <trkpt lat="43.56288" lon="2.98243">
        <ele>125.2</ele>
        <time>2017-04-16T14:48:38.000Z</time>
      </trkpt>
      <trkpt lat="43.56288" lon="2.98245">
        <ele>125.2</ele>
        <time>2017-04-16T14:48:39.000Z</time>
      </trkpt>
      <trkpt lat="43.56289" lon="2.98247">
        <ele>125.2</ele>
        <time>2017-04-16T14:48:40.000Z</time>
      </trkpt>
      <trkpt lat="43.56289" lon="2.98249">
        <ele>125.4</ele>
        <time>2017-04-16T14:48:41.000Z</time>
      </trkpt>
      <trkpt lat="43.5629" lon="2.98252">
        <ele>125.4</ele>
        <time>2017-04-16T14:48:43.000Z</time>
      </trkpt>
      <trkpt lat="43.56289" lon="2.98254">
        <ele>125.6</ele>
        <time>2017-04-16T14:48:45.000Z</time>
      </trkpt>
      <trkpt lat="43.56287" lon="2.98257">
        <ele>125.6</ele>
        <time>2017-04-16T14:48:47.000Z</time>
      </trkpt>
      <trkpt lat="43.56285" lon="2.98266">
        <ele>126</ele>
        <time>2017-04-16T14:48:52.000Z</time>
      </trkpt>
      <trkpt lat="43.56286" lon="2.98269">
        <ele>126.4</ele>
        <time>2017-04-16T14:48:54.000Z</time>
      </trkpt>
      <trkpt lat="43.56286" lon="2.98272">
        <ele>126.6</ele>
        <time>2017-04-16T14:48:56.000Z</time>
      </trkpt>
      <trkpt lat="43.56286" lon="2.98275">
        <ele>126.8</ele>
        <time>2017-04-16T14:48:58.000Z</time>
      </trkpt>
      <trkpt lat="43.56285" lon="2.98278">
        <ele>127</ele>
        <time>2017-04-16T14:49:00.000Z</time>
      </trkpt>
      <trkpt lat="43.56285" lon="2.98282">
        <ele>127.4</ele>
        <time>2017-04-16T14:49:03.000Z</time>
      </trkpt>
      <trkpt lat="43.56286" lon="2.98283">
        <ele>127.6</ele>
        <time>2017-04-16T14:49:05.000Z</time>
      </trkpt>
      <trkpt lat="43.56286" lon="2.98284">
        <ele>128.2</ele>
        <time>2017-04-16T14:49:07.000Z</time>
      </trkpt>
      <trkpt lat="43.56286" lon="2.98287">
        <ele>128.4</ele>
        <time>2017-04-16T14:49:09.000Z</time>
      </trkpt>
      <trkpt lat="43.56286" lon="2.98289">
        <ele>128.8</ele>
        <time>2017-04-16T14:49:11.000Z</time>
      </trkpt>
      <trkpt lat="43.56287" lon="2.98291">
        <ele>129</ele>
        <time>2017-04-16T14:49:13.000Z</time>
      </trkpt>
      <trkpt lat="43.56286" lon="2.98296">
        <ele>129.6</ele>
        <time>2017-04-16T14:49:17.000Z</time>
      </trkpt>
      <trkpt lat="43.56286" lon="2.98298">
        <ele>130</ele>
        <time>2017-04-16T14:49:19.000Z</time>
      </trkpt>
      <trkpt lat="43.56286" lon="2.98299">
        <ele>130.4</ele>
        <time>2017-04-16T14:49:21.000Z</time>
      </trkpt>
      <trkpt lat="43.56288" lon="2.983">
        <ele>130.8</ele>
        <time>2017-04-16T14:49:23.000Z</time>
      </trkpt>
      <trkpt lat="43.56289" lon="2.98301">
        <ele>131</ele>
        <time>2017-04-16T14:49:25.000Z</time>
      </trkpt>
      <trkpt lat="43.5629" lon="2.98301">
        <ele>131.2</ele>
        <time>2017-04-16T14:49:26.000Z</time>
      </trkpt>
      <trkpt lat="43.56291" lon="2.98307">
        <ele>131.8</ele>
        <time>2017-04-16T14:49:31.000Z</time>
      </trkpt>
      <trkpt lat="43.5629" lon="2.98311">
        <ele>132.2</ele>
        <time>2017-04-16T14:49:33.000Z</time>
      </trkpt>
      <trkpt lat="43.5629" lon="2.98315">
        <ele>132.6</ele>
        <time>2017-04-16T14:49:35.000Z</time>
      </trkpt>
      <trkpt lat="43.5629" lon="2.98319">
        <ele>133</ele>
        <time>2017-04-16T14:49:37.000Z</time>
      </trkpt>
      <trkpt lat="43.5629" lon="2.98322">
        <ele>133.2</ele>
        <time>2017-04-16T14:49:39.000Z</time>
      </trkpt>
      <trkpt lat="43.56292" lon="2.98332">
        <ele>133.8</ele>
        <time>2017-04-16T14:49:44.000Z</time>
      </trkpt>
      <trkpt lat="43.56292" lon="2.98335">
        <ele>134.2</ele>
        <time>2017-04-16T14:49:46.000Z</time>
      </trkpt>
      <trkpt lat="43.56291" lon="2.98337">
        <ele>134.6</ele>
        <time>2017-04-16T14:49:48.000Z</time>
      </trkpt>
      <trkpt lat="43.56292" lon="2.98337">
        <ele>135</ele>
        <time>2017-04-16T14:49:50.000Z</time>
      </trkpt>
      <trkpt lat="43.56293" lon="2.98337">
        <ele>135.2</ele>
        <time>2017-04-16T14:49:52.000Z</time>
      </trkpt>
      <trkpt lat="43.56293" lon="2.98337">
        <ele>135.4</ele>
        <time>2017-04-16T14:49:53.000Z</time>
      </trkpt>
      <trkpt lat="43.56293" lon="2.98339">
        <ele>135.6</ele>
        <time>2017-04-16T14:49:56.000Z</time>
      </trkpt>
      <trkpt lat="43.56293" lon="2.98344">
        <ele>135.8</ele>
        <time>2017-04-16T14:50:01.000Z</time>
      </trkpt>
      <trkpt lat="43.56292" lon="2.98347">
        <ele>136.2</ele>
        <time>2017-04-16T14:50:03.000Z</time>
      </trkpt>
      <trkpt lat="43.56292" lon="2.98351">
        <ele>136.8</ele>
        <time>2017-04-16T14:50:05.000Z</time>
      </trkpt>
      <trkpt lat="43.56291" lon="2.98357">
        <ele>137.2</ele>
        <time>2017-04-16T14:50:07.000Z</time>
      </trkpt>
      <trkpt lat="43.56292" lon="2.98361">
        <ele>137.4</ele>
        <time>2017-04-16T14:50:09.000Z</time>
      </trkpt>
      <trkpt lat="43.56292" lon="2.98365">
        <ele>137.8</ele>
        <time>2017-04-16T14:50:11.000Z</time>
      </trkpt>
      <trkpt lat="43.56292" lon="2.98374">
        <ele>138.6</ele>
        <time>2017-04-16T14:50:18.000Z</time>
      </trkpt>
      <trkpt lat="43.56292" lon="2.98376">
        <ele>139</ele>
        <time>2017-04-16T14:50:20.000Z</time>
      </trkpt>
      <trkpt lat="43.56292" lon="2.98378">
        <ele>139.4</ele>
        <time>2017-04-16T14:50:22.000Z</time>
      </trkpt>
      <trkpt lat="43.56292" lon="2.9838">
        <ele>139.8</ele>
        <time>2017-04-16T14:50:24.000Z</time>
      </trkpt>
      <trkpt lat="43.56292" lon="2.98383">
        <ele>140</ele>
        <time>2017-04-16T14:50:26.000Z</time>
      </trkpt>
      <trkpt lat="43.56292" lon="2.98391">
        <ele>140.6</ele>
        <time>2017-04-16T14:50:31.000Z</time>
      </trkpt>
      <trkpt lat="43.56293" lon="2.98395">
        <ele>141.2</ele>
        <time>2017-04-16T14:50:33.000Z</time>
      </trkpt>
      <trkpt lat="43.56293" lon="2.98398">
        <ele>141.6</ele>
        <time>2017-04-16T14:50:35.000Z</time>
      </trkpt>
      <trkpt lat="43.56293" lon="2.98402">
        <ele>141.8</ele>
        <time>2017-04-16T14:50:37.000Z</time>
      </trkpt>
      <trkpt lat="43.56293" lon="2.98405">
        <ele>142.2</ele>
        <time>2017-04-16T14:50:39.000Z</time>
      </trkpt>
      <trkpt lat="43.56296" lon="2.98413">
        <ele>142.8</ele>
        <time>2017-04-16T14:50:45.000Z</time>
      </trkpt>
      <trkpt lat="43.56296" lon="2.98416">
        <ele>143.4</ele>
        <time>2017-04-16T14:50:47.000Z</time>
      </trkpt>
      <trkpt lat="43.56296" lon="2.98418">
        <ele>143.8</ele>
        <time>2017-04-16T14:50:49.000Z</time>
      </trkpt>
      <trkpt lat="43.56295" lon="2.98421">
        <ele>144</ele>
        <time>2017-04-16T14:50:51.000Z</time>
      </trkpt>
      <trkpt lat="43.56295" lon="2.98425">
        <ele>144.4</ele>
        <time>2017-04-16T14:50:53.000Z</time>
      </trkpt>
      <trkpt lat="43.56298" lon="2.98434">
        <ele>145.2</ele>
        <time>2017-04-16T14:51:01.000Z</time>
      </trkpt>
      <trkpt lat="43.56298" lon="2.98437">
        <ele>145.6</ele>
        <time>2017-04-16T14:51:03.000Z</time>
      </trkpt>
      <trkpt lat="43.56298" lon="2.98441">
        <ele>146</ele>
        <time>2017-04-16T14:51:05.000Z</time>
      </trkpt>
      <trkpt lat="43.56298" lon="2.98444">
        <ele>146.2</ele>
        <time>2017-04-16T14:51:07.000Z</time>
      </trkpt>
      <trkpt lat="43.56298" lon="2.98446">
        <ele>146.6</ele>
        <time>2017-04-16T14:51:09.000Z</time>
      </trkpt>
      <trkpt lat="43.56298" lon="2.98452">
        <ele>147.2</ele>
        <time>2017-04-16T14:51:14.000Z</time>
      </trkpt>
      <trkpt lat="43.56298" lon="2.98454">
        <ele>147.6</ele>
        <time>2017-04-16T14:51:16.000Z</time>
      </trkpt>
      <trkpt lat="43.56298" lon="2.98454">
        <ele>148</ele>
        <time>2017-04-16T14:51:18.000Z</time>
      </trkpt>
      <trkpt lat="43.56297" lon="2.98454">
        <ele>148.4</ele>
        <time>2017-04-16T14:51:21.000Z</time>
      </trkpt>
      <trkpt lat="43.56298" lon="2.98455">
        <ele>148.6</ele>
        <time>2017-04-16T14:51:23.000Z</time>
      </trkpt>
      <trkpt lat="43.56298" lon="2.98456">
        <ele>148.8</ele>
        <time>2017-04-16T14:51:25.000Z</time>
      </trkpt>
      <trkpt lat="43.56298" lon="2.98458">
        <ele>149.2</ele>
        <time>2017-04-16T14:51:27.000Z</time>
      </trkpt>
      <trkpt lat="43.56298" lon="2.9846">
        <ele>149.8</ele>
        <time>2017-04-16T14:51:29.000Z</time>
      </trkpt>
      <trkpt lat="43.56298" lon="2.98463">
        <ele>150</ele>
        <time>2017-04-16T14:51:31.000Z</time>
      </trkpt>
      <trkpt lat="43.56297" lon="2.98465">
        <ele>150.4</ele>
        <time>2017-04-16T14:51:33.000Z</time>
      </trkpt>
      <trkpt lat="43.56296" lon="2.98466">
        <ele>150.8</ele>
        <time>2017-04-16T14:51:36.000Z</time>
      </trkpt>
      <trkpt lat="43.56296" lon="2.9847">
        <ele>151</ele>
        <time>2017-04-16T14:51:38.000Z</time>
      </trkpt>
      <trkpt lat="43.56298" lon="2.98472">
        <ele>151.4</ele>
        <time>2017-04-16T14:51:41.000Z</time>
      </trkpt>
      <trkpt lat="43.56299" lon="2.98473">
        <ele>151.8</ele>
        <time>2017-04-16T14:51:43.000Z</time>
      </trkpt>
      <trkpt lat="43.56298" lon="2.98475">
        <ele>152.2</ele>
        <time>2017-04-16T14:51:45.000Z</time>
      </trkpt>
      <trkpt lat="43.56297" lon="2.98477">
        <ele>152.4</ele>
        <time>2017-04-16T14:51:47.000Z</time>
      </trkpt>
      <trkpt lat="43.56296" lon="2.9848">
        <ele>152.8</ele>
        <time>2017-04-16T14:51:49.000Z</time>
      </trkpt>
      <trkpt lat="43.56295" lon="2.98485">
        <ele>153.2</ele>
        <time>2017-04-16T14:51:52.000Z</time>
      </trkpt>
      <trkpt lat="43.56295" lon="2.98489">
        <ele>153.8</ele>
        <time>2017-04-16T14:51:54.000Z</time>
      </trkpt>
      <trkpt lat="43.56295" lon="2.98493">
        <ele>154</ele>
        <time>2017-04-16T14:51:56.000Z</time>
      </trkpt>
      <trkpt lat="43.56295" lon="2.98497">
        <ele>154.4</ele>
        <time>2017-04-16T14:51:58.000Z</time>
      </trkpt>
      <trkpt lat="43.56294" lon="2.985">
        <ele>154.6</ele>
        <time>2017-04-16T14:52:00.000Z</time>
      </trkpt>
      <trkpt lat="43.56293" lon="2.98515">
        <ele>155.4</ele>
        <time>2017-04-16T14:52:07.000Z</time>
      </trkpt>
      <trkpt lat="43.56292" lon="2.98519">
        <ele>156</ele>
        <time>2017-04-16T14:52:09.000Z</time>
      </trkpt>
      <trkpt lat="43.56292" lon="2.98522">
        <ele>156.4</ele>
        <time>2017-04-16T14:52:11.000Z</time>
      </trkpt>
      <trkpt lat="43.56292" lon="2.98524">
        <ele>156.6</ele>
        <time>2017-04-16T14:52:13.000Z</time>
      </trkpt>
      <trkpt lat="43.56291" lon="2.98525">
        <ele>157</ele>
        <time>2017-04-16T14:52:15.000Z</time>
      </trkpt>
      <trkpt lat="43.56289" lon="2.98531">
        <ele>157.6</ele>
        <time>2017-04-16T14:52:20.000Z</time>
      </trkpt>
      <trkpt lat="43.56288" lon="2.98533">
        <ele>158</ele>
        <time>2017-04-16T14:52:22.000Z</time>
      </trkpt>
      <trkpt lat="43.56287" lon="2.98535">
        <ele>158.4</ele>
        <time>2017-04-16T14:52:24.000Z</time>
      </trkpt>
      <trkpt lat="43.56286" lon="2.98536">
        <ele>158.8</ele>
        <time>2017-04-16T14:52:26.000Z</time>
      </trkpt>
      <trkpt lat="43.56285" lon="2.98537">
        <ele>159</ele>
        <time>2017-04-16T14:52:28.000Z</time>
      </trkpt>
      <trkpt lat="43.56281" lon="2.98543">
        <ele>159.8</ele>
        <time>2017-04-16T14:52:35.000Z</time>
      </trkpt>
      <trkpt lat="43.56279" lon="2.98544">
        <ele>160.4</ele>
        <time>2017-04-16T14:52:37.000Z</time>
      </trkpt>
      <trkpt lat="43.56278" lon="2.98547">
        <ele>160.8</ele>
        <time>2017-04-16T14:52:39.000Z</time>
      </trkpt>
      <trkpt lat="43.56276" lon="2.98549">
        <ele>161</ele>
        <time>2017-04-16T14:52:41.000Z</time>
      </trkpt>
      <trkpt lat="43.56275" lon="2.98552">
        <ele>161.2</ele>
        <time>2017-04-16T14:52:43.000Z</time>
      </trkpt>
      <trkpt lat="43.56273" lon="2.98555">
        <ele>161.8</ele>
        <time>2017-04-16T14:52:47.000Z</time>
      </trkpt>
      <trkpt lat="43.56273" lon="2.98556">
        <ele>162.2</ele>
        <time>2017-04-16T14:52:48.000Z</time>
      </trkpt>
      <trkpt lat="43.5627" lon="2.98558">
        <ele>162.8</ele>
        <time>2017-04-16T14:52:51.000Z</time>
      </trkpt>
      <trkpt lat="43.56268" lon="2.98559">
        <ele>163</ele>
        <time>2017-04-16T14:52:53.000Z</time>
      </trkpt>
      <trkpt lat="43.56267" lon="2.98557">
        <ele>163.2</ele>
        <time>2017-04-16T14:52:55.000Z</time>
      </trkpt>
      <trkpt lat="43.56264" lon="2.9855">
        <ele>163.6</ele>
        <time>2017-04-16T14:52:58.000Z</time>
      </trkpt>
      <trkpt lat="43.56255" lon="2.98526">
        <ele>163.6</ele>
        <time>2017-04-16T14:53:05.000Z</time>
      </trkpt>
      <trkpt lat="43.56254" lon="2.98524">
        <ele>163.8</ele>
        <time>2017-04-16T14:53:06.000Z</time>
      </trkpt>
      <trkpt lat="43.56252" lon="2.98519">
        <ele>164.2</ele>
        <time>2017-04-16T14:53:08.000Z</time>
      </trkpt>
      <trkpt lat="43.56249" lon="2.98514">
        <ele>164.8</ele>
        <time>2017-04-16T14:53:10.000Z</time>
      </trkpt>
      <trkpt lat="43.56248" lon="2.98512">
        <ele>164.8</ele>
        <time>2017-04-16T14:53:11.000Z</time>
      </trkpt>
      <trkpt lat="43.56245" lon="2.98506">
        <ele>165</ele>
        <time>2017-04-16T14:53:13.000Z</time>
      </trkpt>
      <trkpt lat="43.56242" lon="2.98502">
        <ele>165</ele>
        <time>2017-04-16T14:53:15.000Z</time>
      </trkpt>
      <trkpt lat="43.5624" lon="2.98498">
        <ele>165.2</ele>
        <time>2017-04-16T14:53:17.000Z</time>
      </trkpt>
      <trkpt lat="43.56238" lon="2.98494">
        <ele>165.2</ele>
        <time>2017-04-16T14:53:19.000Z</time>
      </trkpt>
      <trkpt lat="43.56235" lon="2.98487">
        <ele>165.4</ele>
        <time>2017-04-16T14:53:23.000Z</time>
      </trkpt>
      <trkpt lat="43.56234" lon="2.98483">
        <ele>165.8</ele>
        <time>2017-04-16T14:53:25.000Z</time>
      </trkpt>
      <trkpt lat="43.56232" lon="2.98481">
        <ele>166.2</ele>
        <time>2017-04-16T14:53:27.000Z</time>
      </trkpt>
      <trkpt lat="43.56229" lon="2.98477">
        <ele>166.4</ele>
        <time>2017-04-16T14:53:29.000Z</time>
      </trkpt>
      <trkpt lat="43.56226" lon="2.98474">
        <ele>166.6</ele>
        <time>2017-04-16T14:53:31.000Z</time>
      </trkpt>
      <trkpt lat="43.56222" lon="2.98472">
        <ele>167</ele>
        <time>2017-04-16T14:53:33.000Z</time>
      </trkpt>
      <trkpt lat="43.56219" lon="2.98468">
        <ele>167.4</ele>
        <time>2017-04-16T14:53:35.000Z</time>
      </trkpt>
      <trkpt lat="43.56217" lon="2.98465">
        <ele>167.8</ele>
        <time>2017-04-16T14:53:37.000Z</time>
      </trkpt>
      <trkpt lat="43.56214" lon="2.98461">
        <ele>168.2</ele>
        <time>2017-04-16T14:53:39.000Z</time>
      </trkpt>
      <trkpt lat="43.56213" lon="2.9846">
        <ele>168.2</ele>
        <time>2017-04-16T14:53:40.000Z</time>
      </trkpt>
      <trkpt lat="43.56199" lon="2.98455">
        <ele>169</ele>
        <time>2017-04-16T14:53:48.000Z</time>
      </trkpt>
      <trkpt lat="43.56197" lon="2.98455">
        <ele>169.2</ele>
        <time>2017-04-16T14:53:49.000Z</time>
      </trkpt>
      <trkpt lat="43.56194" lon="2.98454">
        <ele>169.6</ele>
        <time>2017-04-16T14:53:51.000Z</time>
      </trkpt>
      <trkpt lat="43.56192" lon="2.98454">
        <ele>169.8</ele>
        <time>2017-04-16T14:53:52.000Z</time>
      </trkpt>
      <trkpt lat="43.56183" lon="2.98456">
        <ele>170.2</ele>
        <time>2017-04-16T14:53:55.000Z</time>
      </trkpt>
      <trkpt lat="43.56179" lon="2.98456">
        <ele>170.4</ele>
        <time>2017-04-16T14:53:57.000Z</time>
      </trkpt>
      <trkpt lat="43.56172" lon="2.98453">
        <ele>171</ele>
        <time>2017-04-16T14:54:01.000Z</time>
      </trkpt>
      <trkpt lat="43.56169" lon="2.98452">
        <ele>171.6</ele>
        <time>2017-04-16T14:54:03.000Z</time>
      </trkpt>
      <trkpt lat="43.56166" lon="2.98451">
        <ele>172</ele>
        <time>2017-04-16T14:54:05.000Z</time>
      </trkpt>
      <trkpt lat="43.56163" lon="2.98451">
        <ele>172.4</ele>
        <time>2017-04-16T14:54:07.000Z</time>
      </trkpt>
      <trkpt lat="43.56161" lon="2.98452">
        <ele>172.6</ele>
        <time>2017-04-16T14:54:09.000Z</time>
      </trkpt>
      <trkpt lat="43.56151" lon="2.98455">
        <ele>173.2</ele>
        <time>2017-04-16T14:54:15.000Z</time>
      </trkpt>
      <trkpt lat="43.56147" lon="2.98455">
        <ele>173.8</ele>
        <time>2017-04-16T14:54:18.000Z</time>
      </trkpt>
      <trkpt lat="43.56145" lon="2.98456">
        <ele>174</ele>
        <time>2017-04-16T14:54:19.000Z</time>
      </trkpt>
      <trkpt lat="43.56143" lon="2.98456">
        <ele>174.2</ele>
        <time>2017-04-16T14:54:20.000Z</time>
      </trkpt>
      <trkpt lat="43.5614" lon="2.98456">
        <ele>174.6</ele>
        <time>2017-04-16T14:54:22.000Z</time>
      </trkpt>
      <trkpt lat="43.56137" lon="2.98456">
        <ele>174.8</ele>
        <time>2017-04-16T14:54:24.000Z</time>
      </trkpt>
      <trkpt lat="43.56123" lon="2.98455">
        <ele>175.6</ele>
        <time>2017-04-16T14:54:33.000Z</time>
      </trkpt>
      <trkpt lat="43.5612" lon="2.98457">
        <ele>175.8</ele>
        <time>2017-04-16T14:54:35.000Z</time>
      </trkpt>
      <trkpt lat="43.56117" lon="2.98458">
        <ele>176.2</ele>
        <time>2017-04-16T14:54:37.000Z</time>
      </trkpt>
      <trkpt lat="43.56113" lon="2.98459">
        <ele>176.6</ele>
        <time>2017-04-16T14:54:39.000Z</time>
      </trkpt>
      <trkpt lat="43.56109" lon="2.98461">
        <ele>176.8</ele>
        <time>2017-04-16T14:54:41.000Z</time>
      </trkpt>
      <trkpt lat="43.56105" lon="2.98461">
        <ele>177</ele>
        <time>2017-04-16T14:54:43.000Z</time>
      </trkpt>
      <trkpt lat="43.56095" lon="2.98461">
        <ele>177.6</ele>
        <time>2017-04-16T14:54:48.000Z</time>
      </trkpt>
      <trkpt lat="43.56091" lon="2.9846">
        <ele>178.2</ele>
        <time>2017-04-16T14:54:50.000Z</time>
      </trkpt>
      <trkpt lat="43.56089" lon="2.98461">
        <ele>178.4</ele>
        <time>2017-04-16T14:54:52.000Z</time>
      </trkpt>
      <trkpt lat="43.56085" lon="2.98461">
        <ele>178.8</ele>
        <time>2017-04-16T14:54:54.000Z</time>
      </trkpt>
      <trkpt lat="43.56082" lon="2.98461">
        <ele>179</ele>
        <time>2017-04-16T14:54:56.000Z</time>
      </trkpt>
      <trkpt lat="43.56067" lon="2.9846">
        <ele>179.8</ele>
        <time>2017-04-16T14:55:05.000Z</time>
      </trkpt>
      <trkpt lat="43.56063" lon="2.9846">
        <ele>180.4</ele>
        <time>2017-04-16T14:55:07.000Z</time>
      </trkpt>
      <trkpt lat="43.5606" lon="2.9846">
        <ele>180.8</ele>
        <time>2017-04-16T14:55:09.000Z</time>
      </trkpt>
      <trkpt lat="43.56057" lon="2.98459">
        <ele>181</ele>
        <time>2017-04-16T14:55:11.000Z</time>
      </trkpt>
      <trkpt lat="43.56054" lon="2.98459">
        <ele>181.4</ele>
        <time>2017-04-16T14:55:13.000Z</time>
      </trkpt>
      <trkpt lat="43.56043" lon="2.98455">
        <ele>182</ele>
        <time>2017-04-16T14:55:20.000Z</time>
      </trkpt>
      <trkpt lat="43.5604" lon="2.98454">
        <ele>182.6</ele>
        <time>2017-04-16T14:55:22.000Z</time>
      </trkpt>
      <trkpt lat="43.56036" lon="2.98453">
        <ele>183</ele>
        <time>2017-04-16T14:55:24.000Z</time>
      </trkpt>
      <trkpt lat="43.56032" lon="2.98454">
        <ele>183.2</ele>
        <time>2017-04-16T14:55:26.000Z</time>
      </trkpt>
      <trkpt lat="43.56028" lon="2.98454">
        <ele>183.4</ele>
        <time>2017-04-16T14:55:28.000Z</time>
      </trkpt>
      <trkpt lat="43.56027" lon="2.98454">
        <ele>183.8</ele>
        <time>2017-04-16T14:55:29.000Z</time>
      </trkpt>
      <trkpt lat="43.56023" lon="2.98454">
        <ele>184.4</ele>
        <time>2017-04-16T14:55:31.000Z</time>
      </trkpt>
      <trkpt lat="43.5602" lon="2.98455">
        <ele>184.8</ele>
        <time>2017-04-16T14:55:33.000Z</time>
      </trkpt>
      <trkpt lat="43.56016" lon="2.98455">
        <ele>185.2</ele>
        <time>2017-04-16T14:55:35.000Z</time>
      </trkpt>
      <trkpt lat="43.56012" lon="2.98455">
        <ele>185.4</ele>
        <time>2017-04-16T14:55:37.000Z</time>
      </trkpt>
      <trkpt lat="43.56001" lon="2.98456">
        <ele>186</ele>
        <time>2017-04-16T14:55:42.000Z</time>
      </trkpt>
      <trkpt lat="43.55996" lon="2.98456">
        <ele>186.6</ele>
        <time>2017-04-16T14:55:45.000Z</time>
      </trkpt>
      <trkpt lat="43.55993" lon="2.98456">
        <ele>187</ele>
        <time>2017-04-16T14:55:47.000Z</time>
      </trkpt>
      <trkpt lat="43.55991" lon="2.98456">
        <ele>187.4</ele>
        <time>2017-04-16T14:55:49.000Z</time>
      </trkpt>
      <trkpt lat="43.55988" lon="2.98455">
        <ele>187.6</ele>
        <time>2017-04-16T14:55:51.000Z</time>
      </trkpt>
      <trkpt lat="43.55978" lon="2.98454">
        <ele>188</ele>
        <time>2017-04-16T14:55:56.000Z</time>
      </trkpt>
      <trkpt lat="43.55971" lon="2.98454">
        <ele>188.4</ele>
        <time>2017-04-16T14:55:59.000Z</time>
      </trkpt>
      <trkpt lat="43.55967" lon="2.98453">
        <ele>188.8</ele>
        <time>2017-04-16T14:56:01.000Z</time>
      </trkpt>
      <trkpt lat="43.55963" lon="2.98452">
        <ele>189.2</ele>
        <time>2017-04-16T14:56:03.000Z</time>
      </trkpt>
      <trkpt lat="43.55958" lon="2.98451">
        <ele>189.6</ele>
        <time>2017-04-16T14:56:05.000Z</time>
      </trkpt>
      <trkpt lat="43.55954" lon="2.98451">
        <ele>189.8</ele>
        <time>2017-04-16T14:56:07.000Z</time>
      </trkpt>
      <trkpt lat="43.55944" lon="2.9845">
        <ele>190.4</ele>
        <time>2017-04-16T14:56:12.000Z</time>
      </trkpt>
      <trkpt lat="43.5594" lon="2.98448">
        <ele>191</ele>
        <time>2017-04-16T14:56:14.000Z</time>
      </trkpt>
      <trkpt lat="43.55937" lon="2.98447">
        <ele>191.4</ele>
        <time>2017-04-16T14:56:16.000Z</time>
      </trkpt>
      <trkpt lat="43.55934" lon="2.98446">
        <ele>191.6</ele>
        <time>2017-04-16T14:56:18.000Z</time>
      </trkpt>
      <trkpt lat="43.55932" lon="2.98445">
        <ele>191.8</ele>
        <time>2017-04-16T14:56:19.000Z</time>
      </trkpt>
      <trkpt lat="43.55921" lon="2.98446">
        <ele>192.6</ele>
        <time>2017-04-16T14:56:26.000Z</time>
      </trkpt>
      <trkpt lat="43.55919" lon="2.98446">
        <ele>192.8</ele>
        <time>2017-04-16T14:56:27.000Z</time>
      </trkpt>
      <trkpt lat="43.55918" lon="2.98447">
        <ele>193.2</ele>
        <time>2017-04-16T14:56:28.000Z</time>
      </trkpt>
      <trkpt lat="43.55914" lon="2.98449">
        <ele>193.4</ele>
        <time>2017-04-16T14:56:30.000Z</time>
      </trkpt>
      <trkpt lat="43.55913" lon="2.9845">
        <ele>193.6</ele>
        <time>2017-04-16T14:56:31.000Z</time>
      </trkpt>
      <trkpt lat="43.55908" lon="2.98452">
        <ele>194</ele>
        <time>2017-04-16T14:56:34.000Z</time>
      </trkpt>
      <trkpt lat="43.55906" lon="2.98452">
        <ele>194.4</ele>
        <time>2017-04-16T14:56:35.000Z</time>
      </trkpt>
      <trkpt lat="43.55904" lon="2.98453">
        <ele>194.6</ele>
        <time>2017-04-16T14:56:36.000Z</time>
      </trkpt>
      <trkpt lat="43.55899" lon="2.98454">
        <ele>195.4</ele>
        <time>2017-04-16T14:56:39.000Z</time>
      </trkpt>
      <trkpt lat="43.55895" lon="2.98454">
        <ele>195.6</ele>
        <time>2017-04-16T14:56:41.000Z</time>
      </trkpt>
      <trkpt lat="43.55891" lon="2.98456">
        <ele>196</ele>
        <time>2017-04-16T14:56:43.000Z</time>
      </trkpt>
      <trkpt lat="43.55882" lon="2.98459">
        <ele>196.6</ele>
        <time>2017-04-16T14:56:48.000Z</time>
      </trkpt>
      <trkpt lat="43.55878" lon="2.9846">
        <ele>197.2</ele>
        <time>2017-04-16T14:56:50.000Z</time>
      </trkpt>
      <trkpt lat="43.55876" lon="2.9846">
        <ele>197.6</ele>
        <time>2017-04-16T14:56:52.000Z</time>
      </trkpt>
      <trkpt lat="43.55874" lon="2.9846">
        <ele>197.6</ele>
        <time>2017-04-16T14:56:53.000Z</time>
      </trkpt>
      <trkpt lat="43.55874" lon="2.98465">
        <ele>198</ele>
        <time>2017-04-16T14:56:56.000Z</time>
      </trkpt>
      <trkpt lat="43.55874" lon="2.98466">
        <ele>198.6</ele>
        <time>2017-04-16T14:56:57.000Z</time>
      </trkpt>
      <trkpt lat="43.55876" lon="2.98469">
        <ele>198.8</ele>
        <time>2017-04-16T14:56:58.000Z</time>
      </trkpt>
      <trkpt lat="43.55879" lon="2.98471">
        <ele>199.2</ele>
        <time>2017-04-16T14:57:00.000Z</time>
      </trkpt>
      <trkpt lat="43.55883" lon="2.98471">
        <ele>199.4</ele>
        <time>2017-04-16T14:57:02.000Z</time>
      </trkpt>
      <trkpt lat="43.55887" lon="2.98469">
        <ele>199.8</ele>
        <time>2017-04-16T14:57:04.000Z</time>
      </trkpt>
      <trkpt lat="43.55889" lon="2.98468">
        <ele>199.8</ele>
        <time>2017-04-16T14:57:05.000Z</time>
      </trkpt>
      <trkpt lat="43.55891" lon="2.98466">
        <ele>200</ele>
        <time>2017-04-16T14:57:06.000Z</time>
      </trkpt>
      <trkpt lat="43.55895" lon="2.98465">
        <ele>200.2</ele>
        <time>2017-04-16T14:57:08.000Z</time>
      </trkpt>
      <trkpt lat="43.55899" lon="2.98465">
        <ele>200.8</ele>
        <time>2017-04-16T14:57:10.000Z</time>
      </trkpt>
      <trkpt lat="43.55902" lon="2.98465">
        <ele>201.2</ele>
        <time>2017-04-16T14:57:12.000Z</time>
      </trkpt>
      <trkpt lat="43.55905" lon="2.98466">
        <ele>201.6</ele>
        <time>2017-04-16T14:57:14.000Z</time>
      </trkpt>
      <trkpt lat="43.55909" lon="2.98466">
        <ele>201.8</ele>
        <time>2017-04-16T14:57:16.000Z</time>
      </trkpt>
      <trkpt lat="43.55921" lon="2.98467">
        <ele>202.4</ele>
        <time>2017-04-16T14:57:22.000Z</time>
      </trkpt>
      <trkpt lat="43.55929" lon="2.9847">
        <ele>202.6</ele>
        <time>2017-04-16T14:57:26.000Z</time>
      </trkpt>
      <trkpt lat="43.55932" lon="2.98473">
        <ele>202.8</ele>
        <time>2017-04-16T14:57:28.000Z</time>
      </trkpt>
      <trkpt lat="43.55936" lon="2.98474">
        <ele>203.2</ele>
        <time>2017-04-16T14:57:30.000Z</time>
      </trkpt>
      <trkpt lat="43.55939" lon="2.98477">
        <ele>203.6</ele>
        <time>2017-04-16T14:57:32.000Z</time>
      </trkpt>
      <trkpt lat="43.55943" lon="2.9848">
        <ele>204</ele>
        <time>2017-04-16T14:57:34.000Z</time>
      </trkpt>
      <trkpt lat="43.55945" lon="2.9848">
        <ele>204</ele>
        <time>2017-04-16T14:57:35.000Z</time>
      </trkpt>
      <trkpt lat="43.55947" lon="2.98481">
        <ele>204.2</ele>
        <time>2017-04-16T14:57:36.000Z</time>
      </trkpt>
      <trkpt lat="43.55953" lon="2.98484">
        <ele>204.6</ele>
        <time>2017-04-16T14:57:39.000Z</time>
      </trkpt>
      <trkpt lat="43.55957" lon="2.98485">
        <ele>205</ele>
        <time>2017-04-16T14:57:41.000Z</time>
      </trkpt>
      <trkpt lat="43.5596" lon="2.98486">
        <ele>205.4</ele>
        <time>2017-04-16T14:57:43.000Z</time>
      </trkpt>
      <trkpt lat="43.55964" lon="2.98487">
        <ele>205.8</ele>
        <time>2017-04-16T14:57:45.000Z</time>
      </trkpt>
      <trkpt lat="43.55967" lon="2.98489">
        <ele>206</ele>
        <time>2017-04-16T14:57:47.000Z</time>
      </trkpt>
      <trkpt lat="43.55973" lon="2.98492">
        <ele>206.6</ele>
        <time>2017-04-16T14:57:51.000Z</time>
      </trkpt>
      <trkpt lat="43.55975" lon="2.98494">
        <ele>207.2</ele>
        <time>2017-04-16T14:57:53.000Z</time>
      </trkpt>
      <trkpt lat="43.55977" lon="2.98496">
        <ele>207.6</ele>
        <time>2017-04-16T14:57:55.000Z</time>
      </trkpt>
      <trkpt lat="43.5598" lon="2.98498">
        <ele>207.8</ele>
        <time>2017-04-16T14:57:57.000Z</time>
      </trkpt>
      <trkpt lat="43.55984" lon="2.98501">
        <ele>208</ele>
        <time>2017-04-16T14:57:59.000Z</time>
      </trkpt>
      <trkpt lat="43.55997" lon="2.98509">
        <ele>208.6</ele>
        <time>2017-04-16T14:58:06.000Z</time>
      </trkpt>
      <trkpt lat="43.56002" lon="2.98513">
        <ele>209</ele>
        <time>2017-04-16T14:58:09.000Z</time>
      </trkpt>
      <trkpt lat="43.56005" lon="2.98515">
        <ele>209.4</ele>
        <time>2017-04-16T14:58:11.000Z</time>
      </trkpt>
      <trkpt lat="43.56008" lon="2.98517">
        <ele>209.8</ele>
        <time>2017-04-16T14:58:13.000Z</time>
      </trkpt>
      <trkpt lat="43.56011" lon="2.98519">
        <ele>210</ele>
        <time>2017-04-16T14:58:15.000Z</time>
      </trkpt>
      <trkpt lat="43.56013" lon="2.98521">
        <ele>210.2</ele>
        <time>2017-04-16T14:58:17.000Z</time>
      </trkpt>
      <trkpt lat="43.56015" lon="2.98521">
        <ele>210.4</ele>
        <time>2017-04-16T14:58:18.000Z</time>
      </trkpt>
      <trkpt lat="43.56018" lon="2.98524">
        <ele>210.8</ele>
        <time>2017-04-16T14:58:21.000Z</time>
      </trkpt>
      <trkpt lat="43.5602" lon="2.98525">
        <ele>211</ele>
        <time>2017-04-16T14:58:22.000Z</time>
      </trkpt>
      <trkpt lat="43.56024" lon="2.98528">
        <ele>211.8</ele>
        <time>2017-04-16T14:58:25.000Z</time>
      </trkpt>
      <trkpt lat="43.56027" lon="2.9853">
        <ele>212</ele>
        <time>2017-04-16T14:58:27.000Z</time>
      </trkpt>
      <trkpt lat="43.5603" lon="2.98532">
        <ele>212.4</ele>
        <time>2017-04-16T14:58:29.000Z</time>
      </trkpt>
      <trkpt lat="43.56039" lon="2.98537">
        <ele>212.8</ele>
        <time>2017-04-16T14:58:34.000Z</time>
      </trkpt>
      <trkpt lat="43.56043" lon="2.98541">
        <ele>213.2</ele>
        <time>2017-04-16T14:58:37.000Z</time>
      </trkpt>
      <trkpt lat="43.56046" lon="2.98544">
        <ele>213.6</ele>
        <time>2017-04-16T14:58:39.000Z</time>
      </trkpt>
      <trkpt lat="43.56049" lon="2.98546">
        <ele>214</ele>
        <time>2017-04-16T14:58:41.000Z</time>
      </trkpt>
      <trkpt lat="43.56052" lon="2.98549">
        <ele>214.4</ele>
        <time>2017-04-16T14:58:43.000Z</time>
      </trkpt>
      <trkpt lat="43.56055" lon="2.9855">
        <ele>214.6</ele>
        <time>2017-04-16T14:58:45.000Z</time>
      </trkpt>
      <trkpt lat="43.56063" lon="2.98556">
        <ele>215.2</ele>
        <time>2017-04-16T14:58:50.000Z</time>
      </trkpt>
      <trkpt lat="43.56065" lon="2.98559">
        <ele>215.8</ele>
        <time>2017-04-16T14:58:52.000Z</time>
      </trkpt>
      <trkpt lat="43.56068" lon="2.98561">
        <ele>216.2</ele>
        <time>2017-04-16T14:58:54.000Z</time>
      </trkpt>
      <trkpt lat="43.5607" lon="2.98564">
        <ele>216.4</ele>
        <time>2017-04-16T14:58:56.000Z</time>
      </trkpt>
      <trkpt lat="43.56073" lon="2.98567">
        <ele>216.8</ele>
        <time>2017-04-16T14:58:58.000Z</time>
      </trkpt>
      <trkpt lat="43.56074" lon="2.98567">
        <ele>216.8</ele>
        <time>2017-04-16T14:58:59.000Z</time>
      </trkpt>
      <trkpt lat="43.56075" lon="2.98568">
        <ele>217.2</ele>
        <time>2017-04-16T14:59:00.000Z</time>
      </trkpt>
      <trkpt lat="43.56077" lon="2.98569">
        <ele>217.6</ele>
        <time>2017-04-16T14:59:02.000Z</time>
      </trkpt>
      <trkpt lat="43.56079" lon="2.98571">
        <ele>218</ele>
        <time>2017-04-16T14:59:04.000Z</time>
      </trkpt>
      <trkpt lat="43.56083" lon="2.98573">
        <ele>218.4</ele>
        <time>2017-04-16T14:59:06.000Z</time>
      </trkpt>
      <trkpt lat="43.56085" lon="2.98576">
        <ele>219</ele>
        <time>2017-04-16T14:59:08.000Z</time>
      </trkpt>
      <trkpt lat="43.56088" lon="2.9858">
        <ele>219.6</ele>
        <time>2017-04-16T14:59:10.000Z</time>
      </trkpt>
      <trkpt lat="43.56091" lon="2.98583">
        <ele>220</ele>
        <time>2017-04-16T14:59:12.000Z</time>
      </trkpt>
      <trkpt lat="43.56093" lon="2.98587">
        <ele>220.4</ele>
        <time>2017-04-16T14:59:14.000Z</time>
      </trkpt>
      <trkpt lat="43.56095" lon="2.98591">
        <ele>220.6</ele>
        <time>2017-04-16T14:59:16.000Z</time>
      </trkpt>
      <trkpt lat="43.561" lon="2.98601">
        <ele>221.4</ele>
        <time>2017-04-16T14:59:20.000Z</time>
      </trkpt>
      <trkpt lat="43.56101" lon="2.98603">
        <ele>221.6</ele>
        <time>2017-04-16T14:59:21.000Z</time>
      </trkpt>
      <trkpt lat="43.56103" lon="2.98611">
        <ele>222.4</ele>
        <time>2017-04-16T14:59:24.000Z</time>
      </trkpt>
      <trkpt lat="43.56104" lon="2.98613">
        <ele>222.4</ele>
        <time>2017-04-16T14:59:25.000Z</time>
      </trkpt>
      <trkpt lat="43.56106" lon="2.9862">
        <ele>223</ele>
        <time>2017-04-16T14:59:28.000Z</time>
      </trkpt>
      <trkpt lat="43.56107" lon="2.98622">
        <ele>223.2</ele>
        <time>2017-04-16T14:59:29.000Z</time>
      </trkpt>
      <trkpt lat="43.56109" lon="2.98627">
        <ele>223.8</ele>
        <time>2017-04-16T14:59:31.000Z</time>
      </trkpt>
      <trkpt lat="43.5611" lon="2.98632">
        <ele>224.4</ele>
        <time>2017-04-16T14:59:33.000Z</time>
      </trkpt>
      <trkpt lat="43.56112" lon="2.98637">
        <ele>224.6</ele>
        <time>2017-04-16T14:59:35.000Z</time>
      </trkpt>
      <trkpt lat="43.56112" lon="2.98639">
        <ele>225</ele>
        <time>2017-04-16T14:59:36.000Z</time>
      </trkpt>
      <trkpt lat="43.56114" lon="2.98643">
        <ele>225.6</ele>
        <time>2017-04-16T14:59:38.000Z</time>
      </trkpt>
      <trkpt lat="43.56116" lon="2.98647">
        <ele>226.2</ele>
        <time>2017-04-16T14:59:40.000Z</time>
      </trkpt>
      <trkpt lat="43.56117" lon="2.98649">
        <ele>226.4</ele>
        <time>2017-04-16T14:59:41.000Z</time>
      </trkpt>
      <trkpt lat="43.56118" lon="2.98653">
        <ele>227</ele>
        <time>2017-04-16T14:59:43.000Z</time>
      </trkpt>
      <trkpt lat="43.56119" lon="2.98658">
        <ele>227.6</ele>
        <time>2017-04-16T14:59:45.000Z</time>
      </trkpt>
      <trkpt lat="43.56119" lon="2.9866">
        <ele>227.8</ele>
        <time>2017-04-16T14:59:46.000Z</time>
      </trkpt>
      <trkpt lat="43.56119" lon="2.98664">
        <ele>228.4</ele>
        <time>2017-04-16T14:59:48.000Z</time>
      </trkpt>
      <trkpt lat="43.56119" lon="2.98666">
        <ele>228.6</ele>
        <time>2017-04-16T14:59:49.000Z</time>
      </trkpt>
      <trkpt lat="43.56119" lon="2.98671">
        <ele>229</ele>
        <time>2017-04-16T14:59:51.000Z</time>
      </trkpt>
      <trkpt lat="43.5612" lon="2.98678">
        <ele>229.4</ele>
        <time>2017-04-16T14:59:54.000Z</time>
      </trkpt>
      <trkpt lat="43.56121" lon="2.98688">
        <ele>229.6</ele>
        <time>2017-04-16T14:59:58.000Z</time>
      </trkpt>
      <trkpt lat="43.56126" lon="2.98701">
        <ele>230</ele>
        <time>2017-04-16T15:00:03.000Z</time>
      </trkpt>
      <trkpt lat="43.56126" lon="2.98708">
        <ele>230.2</ele>
        <time>2017-04-16T15:00:06.000Z</time>
      </trkpt>
      <trkpt lat="43.56119" lon="2.98712">
        <ele>230.2</ele>
        <time>2017-04-16T15:00:12.000Z</time>
      </trkpt>
      <trkpt lat="43.56114" lon="2.987">
        <ele>230.4</ele>
        <time>2017-04-16T15:00:18.000Z</time>
      </trkpt>
      <trkpt lat="43.56114" lon="2.98698">
        <ele>230.4</ele>
        <time>2017-04-16T15:00:19.000Z</time>
      </trkpt>
      <trkpt lat="43.56114" lon="2.98695">
        <ele>230.6</ele>
        <time>2017-04-16T15:00:20.000Z</time>
      </trkpt>
      <trkpt lat="43.56114" lon="2.98691">
        <ele>231</ele>
        <time>2017-04-16T15:00:22.000Z</time>
      </trkpt>
      <trkpt lat="43.56114" lon="2.98689">
        <ele>231</ele>
        <time>2017-04-16T15:00:23.000Z</time>
      </trkpt>
      <trkpt lat="43.56113" lon="2.98688">
        <ele>231.2</ele>
        <time>2017-04-16T15:00:24.000Z</time>
      </trkpt>
      <trkpt lat="43.56111" lon="2.98684">
        <ele>231.4</ele>
        <time>2017-04-16T15:00:26.000Z</time>
      </trkpt>
      <trkpt lat="43.5611" lon="2.98682">
        <ele>231.6</ele>
        <time>2017-04-16T15:00:27.000Z</time>
      </trkpt>
      <trkpt lat="43.56109" lon="2.98681">
        <ele>231.8</ele>
        <time>2017-04-16T15:00:28.000Z</time>
      </trkpt>
      <trkpt lat="43.56106" lon="2.98676">
        <ele>232.4</ele>
        <time>2017-04-16T15:00:30.000Z</time>
      </trkpt>
      <trkpt lat="43.56104" lon="2.98673">
        <ele>232.8</ele>
        <time>2017-04-16T15:00:32.000Z</time>
      </trkpt>
      <trkpt lat="43.56101" lon="2.9867">
        <ele>233</ele>
        <time>2017-04-16T15:00:34.000Z</time>
      </trkpt>
      <trkpt lat="43.56099" lon="2.98666">
        <ele>233.4</ele>
        <time>2017-04-16T15:00:36.000Z</time>
      </trkpt>
      <trkpt lat="43.56091" lon="2.98652">
        <ele>234.2</ele>
        <time>2017-04-16T15:00:43.000Z</time>
      </trkpt>
      <trkpt lat="43.56088" lon="2.98649">
        <ele>234.6</ele>
        <time>2017-04-16T15:00:45.000Z</time>
      </trkpt>
      <trkpt lat="43.56085" lon="2.98645">
        <ele>235</ele>
        <time>2017-04-16T15:00:47.000Z</time>
      </trkpt>
      <trkpt lat="43.56083" lon="2.98643">
        <ele>235.4</ele>
        <time>2017-04-16T15:00:49.000Z</time>
      </trkpt>
      <trkpt lat="43.5608" lon="2.9864">
        <ele>235.6</ele>
        <time>2017-04-16T15:00:51.000Z</time>
      </trkpt>
      <trkpt lat="43.56077" lon="2.98637">
        <ele>235.8</ele>
        <time>2017-04-16T15:00:53.000Z</time>
      </trkpt>
      <trkpt lat="43.56071" lon="2.98631">
        <ele>236.2</ele>
        <time>2017-04-16T15:00:57.000Z</time>
      </trkpt>
      <trkpt lat="43.56068" lon="2.98629">
        <ele>236.8</ele>
        <time>2017-04-16T15:00:59.000Z</time>
      </trkpt>
      <trkpt lat="43.56064" lon="2.98625">
        <ele>237</ele>
        <time>2017-04-16T15:01:01.000Z</time>
      </trkpt>
      <trkpt lat="43.5606" lon="2.98622">
        <ele>237.4</ele>
        <time>2017-04-16T15:01:03.000Z</time>
      </trkpt>
      <trkpt lat="43.56057" lon="2.98618">
        <ele>237.6</ele>
        <time>2017-04-16T15:01:05.000Z</time>
      </trkpt>
      <trkpt lat="43.56055" lon="2.98616">
        <ele>237.8</ele>
        <time>2017-04-16T15:01:06.000Z</time>
      </trkpt>
      <trkpt lat="43.56048" lon="2.98609">
        <ele>238.2</ele>
        <time>2017-04-16T15:01:11.000Z</time>
      </trkpt>
      <trkpt lat="43.56042" lon="2.98609">
        <ele>238.6</ele>
        <time>2017-04-16T15:01:14.000Z</time>
      </trkpt>
      <trkpt lat="43.56039" lon="2.98609">
        <ele>239</ele>
        <time>2017-04-16T15:01:16.000Z</time>
      </trkpt>
      <trkpt lat="43.56035" lon="2.98609">
        <ele>239.4</ele>
        <time>2017-04-16T15:01:18.000Z</time>
      </trkpt>
      <trkpt lat="43.56032" lon="2.98608">
        <ele>239.6</ele>
        <time>2017-04-16T15:01:20.000Z</time>
      </trkpt>
      <trkpt lat="43.56028" lon="2.98607">
        <ele>239.8</ele>
        <time>2017-04-16T15:01:22.000Z</time>
      </trkpt>
      <trkpt lat="43.56021" lon="2.98604">
        <ele>240.4</ele>
        <time>2017-04-16T15:01:27.000Z</time>
      </trkpt>
      <trkpt lat="43.56018" lon="2.98603">
        <ele>241</ele>
        <time>2017-04-16T15:01:29.000Z</time>
      </trkpt>
      <trkpt lat="43.56016" lon="2.98602">
        <ele>241.4</ele>
        <time>2017-04-16T15:01:31.000Z</time>
      </trkpt>
      <trkpt lat="43.56012" lon="2.98602">
        <ele>241.6</ele>
        <time>2017-04-16T15:01:33.000Z</time>
      </trkpt>
      <trkpt lat="43.56009" lon="2.98601">
        <ele>242</ele>
        <time>2017-04-16T15:01:35.000Z</time>
      </trkpt>
      <trkpt lat="43.56004" lon="2.98599">
        <ele>242.4</ele>
        <time>2017-04-16T15:01:38.000Z</time>
      </trkpt>
      <trkpt lat="43.56" lon="2.98598">
        <ele>243</ele>
        <time>2017-04-16T15:01:40.000Z</time>
      </trkpt>
      <trkpt lat="43.55996" lon="2.98598">
        <ele>243.4</ele>
        <time>2017-04-16T15:01:42.000Z</time>
      </trkpt>
      <trkpt lat="43.55992" lon="2.98597">
        <ele>243.8</ele>
        <time>2017-04-16T15:01:44.000Z</time>
      </trkpt>
      <trkpt lat="43.55987" lon="2.98597">
        <ele>244</ele>
        <time>2017-04-16T15:01:46.000Z</time>
      </trkpt>
      <trkpt lat="43.55982" lon="2.98597">
        <ele>244.4</ele>
        <time>2017-04-16T15:01:49.000Z</time>
      </trkpt>
      <trkpt lat="43.55978" lon="2.98597">
        <ele>245</ele>
        <time>2017-04-16T15:01:51.000Z</time>
      </trkpt>
      <trkpt lat="43.55974" lon="2.98598">
        <ele>245.4</ele>
        <time>2017-04-16T15:01:53.000Z</time>
      </trkpt>
      <trkpt lat="43.5597" lon="2.98599">
        <ele>245.8</ele>
        <time>2017-04-16T15:01:55.000Z</time>
      </trkpt>
      <trkpt lat="43.55967" lon="2.98599">
        <ele>246</ele>
        <time>2017-04-16T15:01:57.000Z</time>
      </trkpt>
      <trkpt lat="43.55961" lon="2.98601">
        <ele>246.6</ele>
        <time>2017-04-16T15:02:01.000Z</time>
      </trkpt>
      <trkpt lat="43.55958" lon="2.98601">
        <ele>247</ele>
        <time>2017-04-16T15:02:03.000Z</time>
      </trkpt>
      <trkpt lat="43.55955" lon="2.98601">
        <ele>247.4</ele>
        <time>2017-04-16T15:02:05.000Z</time>
      </trkpt>
      <trkpt lat="43.55951" lon="2.98602">
        <ele>247.8</ele>
        <time>2017-04-16T15:02:07.000Z</time>
      </trkpt>
      <trkpt lat="43.55947" lon="2.98603">
        <ele>248</ele>
        <time>2017-04-16T15:02:09.000Z</time>
      </trkpt>
      <trkpt lat="43.55937" lon="2.98604">
        <ele>248.6</ele>
        <time>2017-04-16T15:02:14.000Z</time>
      </trkpt>
      <trkpt lat="43.55934" lon="2.986">
        <ele>249.2</ele>
        <time>2017-04-16T15:02:17.000Z</time>
      </trkpt>
      <trkpt lat="43.55932" lon="2.98598">
        <ele>249.6</ele>
        <time>2017-04-16T15:02:19.000Z</time>
      </trkpt>
      <trkpt lat="43.5593" lon="2.98596">
        <ele>250</ele>
        <time>2017-04-16T15:02:21.000Z</time>
      </trkpt>
      <trkpt lat="43.55928" lon="2.98595">
        <ele>250.2</ele>
        <time>2017-04-16T15:02:23.000Z</time>
      </trkpt>
      <trkpt lat="43.55927" lon="2.98595">
        <ele>250.2</ele>
        <time>2017-04-16T15:02:24.000Z</time>
      </trkpt>
      <trkpt lat="43.55927" lon="2.98599">
        <ele>250.6</ele>
        <time>2017-04-16T15:02:28.000Z</time>
      </trkpt>
      <trkpt lat="43.55927" lon="2.986">
        <ele>250.6</ele>
        <time>2017-04-16T15:02:29.000Z</time>
      </trkpt>
      <trkpt lat="43.5593" lon="2.98604">
        <ele>250.8</ele>
        <time>2017-04-16T15:02:32.000Z</time>
      </trkpt>
      <trkpt lat="43.55936" lon="2.98605">
        <ele>251.2</ele>
        <time>2017-04-16T15:02:36.000Z</time>
      </trkpt>
      <trkpt lat="43.55937" lon="2.98605">
        <ele>251.4</ele>
        <time>2017-04-16T15:02:37.000Z</time>
      </trkpt>
      <trkpt lat="43.55939" lon="2.98605">
        <ele>251.6</ele>
        <time>2017-04-16T15:02:38.000Z</time>
      </trkpt>
      <trkpt lat="43.55941" lon="2.98606">
        <ele>251.8</ele>
        <time>2017-04-16T15:02:40.000Z</time>
      </trkpt>
      <trkpt lat="43.55944" lon="2.98607">
        <ele>252.2</ele>
        <time>2017-04-16T15:02:42.000Z</time>
      </trkpt>
      <trkpt lat="43.55945" lon="2.98607">
        <ele>252.2</ele>
        <time>2017-04-16T15:02:43.000Z</time>
      </trkpt>
      <trkpt lat="43.55949" lon="2.98609">
        <ele>252.6</ele>
        <time>2017-04-16T15:02:45.000Z</time>
      </trkpt>
      <trkpt lat="43.55951" lon="2.9861">
        <ele>253.2</ele>
        <time>2017-04-16T15:02:47.000Z</time>
      </trkpt>
      <trkpt lat="43.55955" lon="2.98612">
        <ele>253.6</ele>
        <time>2017-04-16T15:02:49.000Z</time>
      </trkpt>
      <trkpt lat="43.55959" lon="2.98612">
        <ele>254</ele>
        <time>2017-04-16T15:02:51.000Z</time>
      </trkpt>
      <trkpt lat="43.55963" lon="2.98613">
        <ele>254.2</ele>
        <time>2017-04-16T15:02:53.000Z</time>
      </trkpt>
      <trkpt lat="43.55977" lon="2.98619">
        <ele>254.8</ele>
        <time>2017-04-16T15:03:01.000Z</time>
      </trkpt>
      <trkpt lat="43.55979" lon="2.9862">
        <ele>255.2</ele>
        <time>2017-04-16T15:03:02.000Z</time>
      </trkpt>
      <trkpt lat="43.55982" lon="2.98622">
        <ele>255.6</ele>
        <time>2017-04-16T15:03:04.000Z</time>
      </trkpt>
      <trkpt lat="43.55985" lon="2.98623">
        <ele>256</ele>
        <time>2017-04-16T15:03:06.000Z</time>
      </trkpt>
      <trkpt lat="43.55988" lon="2.98623">
        <ele>256.2</ele>
        <time>2017-04-16T15:03:08.000Z</time>
      </trkpt>
      <trkpt lat="43.55991" lon="2.98623">
        <ele>256.4</ele>
        <time>2017-04-16T15:03:10.000Z</time>
      </trkpt>
      <trkpt lat="43.55993" lon="2.98623">
        <ele>256.6</ele>
        <time>2017-04-16T15:03:11.000Z</time>
      </trkpt>
      <trkpt lat="43.56002" lon="2.9863">
        <ele>257</ele>
        <time>2017-04-16T15:03:17.000Z</time>
      </trkpt>
      <trkpt lat="43.56006" lon="2.98634">
        <ele>257.2</ele>
        <time>2017-04-16T15:03:19.000Z</time>
      </trkpt>
      <trkpt lat="43.56009" lon="2.98637">
        <ele>257.8</ele>
        <time>2017-04-16T15:03:21.000Z</time>
      </trkpt>
      <trkpt lat="43.56011" lon="2.98639">
        <ele>258</ele>
        <time>2017-04-16T15:03:22.000Z</time>
      </trkpt>
      <trkpt lat="43.56013" lon="2.98641">
        <ele>258</ele>
        <time>2017-04-16T15:03:23.000Z</time>
      </trkpt>
      <trkpt lat="43.56017" lon="2.98644">
        <ele>258.4</ele>
        <time>2017-04-16T15:03:25.000Z</time>
      </trkpt>
      <trkpt lat="43.5602" lon="2.98648">
        <ele>258.6</ele>
        <time>2017-04-16T15:03:27.000Z</time>
      </trkpt>
      <trkpt lat="43.5603" lon="2.98659">
        <ele>259.2</ele>
        <time>2017-04-16T15:03:34.000Z</time>
      </trkpt>
      <trkpt lat="43.56035" lon="2.98667">
        <ele>259.6</ele>
        <time>2017-04-16T15:03:39.000Z</time>
      </trkpt>
      <trkpt lat="43.56035" lon="2.9867">
        <ele>259.8</ele>
        <time>2017-04-16T15:03:40.000Z</time>
      </trkpt>
      <trkpt lat="43.56036" lon="2.98672">
        <ele>260</ele>
        <time>2017-04-16T15:03:41.000Z</time>
      </trkpt>
      <trkpt lat="43.56038" lon="2.98676">
        <ele>260.4</ele>
        <time>2017-04-16T15:03:43.000Z</time>
      </trkpt>
      <trkpt lat="43.56041" lon="2.9868">
        <ele>260.6</ele>
        <time>2017-04-16T15:03:45.000Z</time>
      </trkpt>
      <trkpt lat="43.56043" lon="2.98682">
        <ele>260.8</ele>
        <time>2017-04-16T15:03:46.000Z</time>
      </trkpt>
      <trkpt lat="43.56048" lon="2.98696">
        <ele>261.4</ele>
        <time>2017-04-16T15:03:51.000Z</time>
      </trkpt>
      <trkpt lat="43.56049" lon="2.98701">
        <ele>262</ele>
        <time>2017-04-16T15:03:53.000Z</time>
      </trkpt>
      <trkpt lat="43.5605" lon="2.98706">
        <ele>262.4</ele>
        <time>2017-04-16T15:03:55.000Z</time>
      </trkpt>
      <trkpt lat="43.56051" lon="2.98711">
        <ele>262.6</ele>
        <time>2017-04-16T15:03:57.000Z</time>
      </trkpt>
      <trkpt lat="43.56053" lon="2.98716">
        <ele>262.8</ele>
        <time>2017-04-16T15:03:59.000Z</time>
      </trkpt>
      <trkpt lat="43.56061" lon="2.98739">
        <ele>263.8</ele>
        <time>2017-04-16T15:04:07.000Z</time>
      </trkpt>
      <trkpt lat="43.56061" lon="2.98744">
        <ele>264.2</ele>
        <time>2017-04-16T15:04:09.000Z</time>
      </trkpt>
      <trkpt lat="43.56062" lon="2.98746">
        <ele>264.4</ele>
        <time>2017-04-16T15:04:10.000Z</time>
      </trkpt>
      <trkpt lat="43.56063" lon="2.98752">
        <ele>264.8</ele>
        <time>2017-04-16T15:04:13.000Z</time>
      </trkpt>
      <trkpt lat="43.56064" lon="2.98757">
        <ele>265.2</ele>
        <time>2017-04-16T15:04:15.000Z</time>
      </trkpt>
      <trkpt lat="43.56064" lon="2.98759">
        <ele>265.4</ele>
        <time>2017-04-16T15:04:16.000Z</time>
      </trkpt>
      <trkpt lat="43.56064" lon="2.98762">
        <ele>266</ele>
        <time>2017-04-16T15:04:18.000Z</time>
      </trkpt>
      <trkpt lat="43.56064" lon="2.98767">
        <ele>266.4</ele>
        <time>2017-04-16T15:04:20.000Z</time>
      </trkpt>
      <trkpt lat="43.56064" lon="2.98769">
        <ele>266.6</ele>
        <time>2017-04-16T15:04:21.000Z</time>
      </trkpt>
      <trkpt lat="43.56064" lon="2.98773">
        <ele>267</ele>
        <time>2017-04-16T15:04:23.000Z</time>
      </trkpt>
      <trkpt lat="43.56065" lon="2.98781">
        <ele>267.6</ele>
        <time>2017-04-16T15:04:27.000Z</time>
      </trkpt>
      <trkpt lat="43.56065" lon="2.98785">
        <ele>268.2</ele>
        <time>2017-04-16T15:04:29.000Z</time>
      </trkpt>
      <trkpt lat="43.56064" lon="2.98789">
        <ele>268.6</ele>
        <time>2017-04-16T15:04:31.000Z</time>
      </trkpt>
      <trkpt lat="43.56063" lon="2.98793">
        <ele>269</ele>
        <time>2017-04-16T15:04:33.000Z</time>
      </trkpt>
      <trkpt lat="43.56063" lon="2.98798">
        <ele>269.2</ele>
        <time>2017-04-16T15:04:35.000Z</time>
      </trkpt>
      <trkpt lat="43.56063" lon="2.98801">
        <ele>269.4</ele>
        <time>2017-04-16T15:04:36.000Z</time>
      </trkpt>
      <trkpt lat="43.56063" lon="2.98816">
        <ele>270</ele>
        <time>2017-04-16T15:04:42.000Z</time>
      </trkpt>
      <trkpt lat="43.56064" lon="2.98819">
        <ele>270.6</ele>
        <time>2017-04-16T15:04:44.000Z</time>
      </trkpt>
      <trkpt lat="43.56064" lon="2.98822">
        <ele>270.8</ele>
        <time>2017-04-16T15:04:45.000Z</time>
      </trkpt>
      <trkpt lat="43.56065" lon="2.98828">
        <ele>271.2</ele>
        <time>2017-04-16T15:04:48.000Z</time>
      </trkpt>
      <trkpt lat="43.56065" lon="2.98832">
        <ele>271.4</ele>
        <time>2017-04-16T15:04:50.000Z</time>
      </trkpt>
      <trkpt lat="43.56065" lon="2.98834">
        <ele>271.6</ele>
        <time>2017-04-16T15:04:51.000Z</time>
      </trkpt>
      <trkpt lat="43.56064" lon="2.98845">
        <ele>272.2</ele>
        <time>2017-04-16T15:04:56.000Z</time>
      </trkpt>
      <trkpt lat="43.56063" lon="2.98849">
        <ele>272.6</ele>
        <time>2017-04-16T15:04:58.000Z</time>
      </trkpt>
      <trkpt lat="43.56065" lon="2.98851">
        <ele>272.8</ele>
        <time>2017-04-16T15:04:59.000Z</time>
      </trkpt>
      <trkpt lat="43.56065" lon="2.98853">
        <ele>273</ele>
        <time>2017-04-16T15:05:00.000Z</time>
      </trkpt>
      <trkpt lat="43.56067" lon="2.98858">
        <ele>273.2</ele>
        <time>2017-04-16T15:05:02.000Z</time>
      </trkpt>
      <trkpt lat="43.56069" lon="2.98862">
        <ele>273.6</ele>
        <time>2017-04-16T15:05:04.000Z</time>
      </trkpt>
      <trkpt lat="43.56069" lon="2.98874">
        <ele>274</ele>
        <time>2017-04-16T15:05:09.000Z</time>
      </trkpt>
      <trkpt lat="43.5607" lon="2.98883">
        <ele>274.2</ele>
        <time>2017-04-16T15:05:13.000Z</time>
      </trkpt>
      <trkpt lat="43.5607" lon="2.9889">
        <ele>274.4</ele>
        <time>2017-04-16T15:05:16.000Z</time>
      </trkpt>
      <trkpt lat="43.56071" lon="2.98891">
        <ele>274.8</ele>
        <time>2017-04-16T15:05:17.000Z</time>
      </trkpt>
      <trkpt lat="43.56074" lon="2.98898">
        <ele>275.2</ele>
        <time>2017-04-16T15:05:20.000Z</time>
      </trkpt>
      <trkpt lat="43.56077" lon="2.98903">
        <ele>275.6</ele>
        <time>2017-04-16T15:05:22.000Z</time>
      </trkpt>
      <trkpt lat="43.56079" lon="2.98909">
        <ele>275.8</ele>
        <time>2017-04-16T15:05:24.000Z</time>
      </trkpt>
      <trkpt lat="43.56083" lon="2.98917">
        <ele>276</ele>
        <time>2017-04-16T15:05:27.000Z</time>
      </trkpt>
      <trkpt lat="43.56084" lon="2.9892">
        <ele>276.4</ele>
        <time>2017-04-16T15:05:28.000Z</time>
      </trkpt>
      <trkpt lat="43.56087" lon="2.98924">
        <ele>276.8</ele>
        <time>2017-04-16T15:05:30.000Z</time>
      </trkpt>
      <trkpt lat="43.56088" lon="2.98929">
        <ele>277.2</ele>
        <time>2017-04-16T15:05:32.000Z</time>
      </trkpt>
      <trkpt lat="43.56089" lon="2.98931">
        <ele>277.4</ele>
        <time>2017-04-16T15:05:33.000Z</time>
      </trkpt>
      <trkpt lat="43.56092" lon="2.98938">
        <ele>277.8</ele>
        <time>2017-04-16T15:05:36.000Z</time>
      </trkpt>
      <trkpt lat="43.56092" lon="2.9894">
        <ele>277.8</ele>
        <time>2017-04-16T15:05:37.000Z</time>
      </trkpt>
      <trkpt lat="43.56094" lon="2.98945">
        <ele>278</ele>
        <time>2017-04-16T15:05:39.000Z</time>
      </trkpt>
      <trkpt lat="43.56096" lon="2.98949">
        <ele>278.4</ele>
        <time>2017-04-16T15:05:41.000Z</time>
      </trkpt>
      <trkpt lat="43.56097" lon="2.98951">
        <ele>278.8</ele>
        <time>2017-04-16T15:05:42.000Z</time>
      </trkpt>
      <trkpt lat="43.56099" lon="2.98955">
        <ele>279.2</ele>
        <time>2017-04-16T15:05:44.000Z</time>
      </trkpt>
      <trkpt lat="43.561" lon="2.98962">
        <ele>279.8</ele>
        <time>2017-04-16T15:05:47.000Z</time>
      </trkpt>
      <trkpt lat="43.561" lon="2.98966">
        <ele>280</ele>
        <time>2017-04-16T15:05:49.000Z</time>
      </trkpt>
      <trkpt lat="43.56101" lon="2.9897">
        <ele>280.2</ele>
        <time>2017-04-16T15:05:51.000Z</time>
      </trkpt>
      <trkpt lat="43.56102" lon="2.98986">
        <ele>280.8</ele>
        <time>2017-04-16T15:05:57.000Z</time>
      </trkpt>
      <trkpt lat="43.56102" lon="2.9899">
        <ele>281.2</ele>
        <time>2017-04-16T15:05:59.000Z</time>
      </trkpt>
      <trkpt lat="43.56103" lon="2.98992">
        <ele>281.4</ele>
        <time>2017-04-16T15:06:00.000Z</time>
      </trkpt>
      <trkpt lat="43.56104" lon="2.98997">
        <ele>282</ele>
        <time>2017-04-16T15:06:03.000Z</time>
      </trkpt>
      <trkpt lat="43.56105" lon="2.99">
        <ele>282.2</ele>
        <time>2017-04-16T15:06:05.000Z</time>
      </trkpt>
      <trkpt lat="43.56106" lon="2.99004">
        <ele>282.6</ele>
        <time>2017-04-16T15:06:07.000Z</time>
      </trkpt>
      <trkpt lat="43.56106" lon="2.99005">
        <ele>282.8</ele>
        <time>2017-04-16T15:06:08.000Z</time>
      </trkpt>
      <trkpt lat="43.56105" lon="2.99007">
        <ele>283</ele>
        <time>2017-04-16T15:06:09.000Z</time>
      </trkpt>
      <trkpt lat="43.56104" lon="2.99009">
        <ele>283.4</ele>
        <time>2017-04-16T15:06:11.000Z</time>
      </trkpt>
      <trkpt lat="43.56102" lon="2.9901">
        <ele>283.6</ele>
        <time>2017-04-16T15:06:12.000Z</time>
      </trkpt>
      <trkpt lat="43.56101" lon="2.99011">
        <ele>283.8</ele>
        <time>2017-04-16T15:06:13.000Z</time>
      </trkpt>
      <trkpt lat="43.56099" lon="2.99011">
        <ele>283.8</ele>
        <time>2017-04-16T15:06:14.000Z</time>
      </trkpt>
      <trkpt lat="43.56097" lon="2.99011">
        <ele>284</ele>
        <time>2017-04-16T15:06:15.000Z</time>
      </trkpt>
      <trkpt lat="43.56094" lon="2.99008">
        <ele>284.4</ele>
        <time>2017-04-16T15:06:19.000Z</time>
      </trkpt>
      <trkpt lat="43.56093" lon="2.99007">
        <ele>284.4</ele>
        <time>2017-04-16T15:06:20.000Z</time>
      </trkpt>
      <trkpt lat="43.56094" lon="2.99003">
        <ele>285</ele>
        <time>2017-04-16T15:10:33.000Z</time>
      </trkpt>
      <trkpt lat="43.56094" lon="2.99002">
        <ele>285</ele>
        <time>2017-04-16T15:10:34.000Z</time>
      </trkpt>
      <trkpt lat="43.56094" lon="2.99001">
        <ele>285</ele>
        <time>2017-04-16T15:10:36.000Z</time>
      </trkpt>
      <trkpt lat="43.56094" lon="2.99">
        <ele>285</ele>
        <time>2017-04-16T15:10:37.000Z</time>
      </trkpt>
      <trkpt lat="43.56094" lon="2.98999">
        <ele>285</ele>
        <time>2017-04-16T15:10:38.000Z</time>
      </trkpt>
      <trkpt lat="43.56094" lon="2.98998">
        <ele>285.2</ele>
        <time>2017-04-16T15:10:39.000Z</time>
      </trkpt>
      <trkpt lat="43.56093" lon="2.98996">
        <ele>285.6</ele>
        <time>2017-04-16T15:10:41.000Z</time>
      </trkpt>
      <trkpt lat="43.56093" lon="2.98995">
        <ele>285.6</ele>
        <time>2017-04-16T15:10:42.000Z</time>
      </trkpt>
      <trkpt lat="43.56092" lon="2.98993">
        <ele>286</ele>
        <time>2017-04-16T15:10:44.000Z</time>
      </trkpt>
      <trkpt lat="43.56091" lon="2.9899">
        <ele>286.2</ele>
        <time>2017-04-16T15:10:47.000Z</time>
      </trkpt>
      <trkpt lat="43.56088" lon="2.98982">
        <ele>287</ele>
        <time>2017-04-16T15:10:56.000Z</time>
      </trkpt>
      <trkpt lat="43.56086" lon="2.98981">
        <ele>287.4</ele>
        <time>2017-04-16T15:10:58.000Z</time>
      </trkpt>
      <trkpt lat="43.56085" lon="2.9898">
        <ele>287.8</ele>
        <time>2017-04-16T15:11:00.000Z</time>
      </trkpt>
      <trkpt lat="43.56084" lon="2.98979">
        <ele>288</ele>
        <time>2017-04-16T15:11:02.000Z</time>
      </trkpt>
      <trkpt lat="43.56083" lon="2.98979">
        <ele>288.2</ele>
        <time>2017-04-16T15:11:04.000Z</time>
      </trkpt>
      <trkpt lat="43.56077" lon="2.98974">
        <ele>288.8</ele>
        <time>2017-04-16T15:11:10.000Z</time>
      </trkpt>
      <trkpt lat="43.56076" lon="2.98973">
        <ele>288.8</ele>
        <time>2017-04-16T15:11:11.000Z</time>
      </trkpt>
      <trkpt lat="43.56068" lon="2.98967">
        <ele>289</ele>
        <time>2017-04-16T15:11:17.000Z</time>
      </trkpt>
      <trkpt lat="43.56065" lon="2.98967">
        <ele>289</ele>
        <time>2017-04-16T15:11:19.000Z</time>
      </trkpt>
      <trkpt lat="43.56062" lon="2.98968">
        <ele>289.2</ele>
        <time>2017-04-16T15:11:21.000Z</time>
      </trkpt>
      <trkpt lat="43.56059" lon="2.98967">
        <ele>289.6</ele>
        <time>2017-04-16T15:11:23.000Z</time>
      </trkpt>
      <trkpt lat="43.56057" lon="2.98965">
        <ele>290</ele>
        <time>2017-04-16T15:11:25.000Z</time>
      </trkpt>
      <trkpt lat="43.56054" lon="2.98962">
        <ele>290.4</ele>
        <time>2017-04-16T15:11:27.000Z</time>
      </trkpt>
      <trkpt lat="43.56053" lon="2.98961">
        <ele>290.4</ele>
        <time>2017-04-16T15:11:28.000Z</time>
      </trkpt>
      <trkpt lat="43.56047" lon="2.98955">
        <ele>291.2</ele>
        <time>2017-04-16T15:11:34.000Z</time>
      </trkpt>
      <trkpt lat="43.56045" lon="2.98952">
        <ele>291.6</ele>
        <time>2017-04-16T15:11:36.000Z</time>
      </trkpt>
      <trkpt lat="43.56043" lon="2.98947">
        <ele>292</ele>
        <time>2017-04-16T15:11:38.000Z</time>
      </trkpt>
      <trkpt lat="43.56041" lon="2.98944">
        <ele>292.2</ele>
        <time>2017-04-16T15:11:40.000Z</time>
      </trkpt>
      <trkpt lat="43.56038" lon="2.9894">
        <ele>292.4</ele>
        <time>2017-04-16T15:11:42.000Z</time>
      </trkpt>
      <trkpt lat="43.56033" lon="2.98934">
        <ele>293</ele>
        <time>2017-04-16T15:11:47.000Z</time>
      </trkpt>
      <trkpt lat="43.5603" lon="2.98931">
        <ele>293.6</ele>
        <time>2017-04-16T15:11:49.000Z</time>
      </trkpt>
      <trkpt lat="43.56029" lon="2.98931">
        <ele>293.8</ele>
        <time>2017-04-16T15:11:50.000Z</time>
      </trkpt>
      <trkpt lat="43.56027" lon="2.98931">
        <ele>294</ele>
        <time>2017-04-16T15:11:51.000Z</time>
      </trkpt>
      <trkpt lat="43.56026" lon="2.98929">
        <ele>294.2</ele>
        <time>2017-04-16T15:11:52.000Z</time>
      </trkpt>
      <trkpt lat="43.56025" lon="2.98928">
        <ele>294.2</ele>
        <time>2017-04-16T15:11:53.000Z</time>
      </trkpt>
      <trkpt lat="43.56023" lon="2.98925">
        <ele>294.6</ele>
        <time>2017-04-16T15:11:55.000Z</time>
      </trkpt>
      <trkpt lat="43.56022" lon="2.98924">
        <ele>294.6</ele>
        <time>2017-04-16T15:11:56.000Z</time>
      </trkpt>
      <trkpt lat="43.5602" lon="2.98921">
        <ele>295</ele>
        <time>2017-04-16T15:11:58.000Z</time>
      </trkpt>
      <trkpt lat="43.56018" lon="2.98917">
        <ele>295.6</ele>
        <time>2017-04-16T15:12:00.000Z</time>
      </trkpt>
      <trkpt lat="43.56016" lon="2.98914">
        <ele>296</ele>
        <time>2017-04-16T15:12:02.000Z</time>
      </trkpt>
      <trkpt lat="43.56015" lon="2.98911">
        <ele>296.4</ele>
        <time>2017-04-16T15:12:04.000Z</time>
      </trkpt>
      <trkpt lat="43.56014" lon="2.98906">
        <ele>296.6</ele>
        <time>2017-04-16T15:12:06.000Z</time>
      </trkpt>
      <trkpt lat="43.56015" lon="2.98888">
        <ele>297</ele>
        <time>2017-04-16T15:12:11.000Z</time>
      </trkpt>
      <trkpt lat="43.56014" lon="2.98878">
        <ele>297.6</ele>
        <time>2017-04-16T15:12:15.000Z</time>
      </trkpt>
      <trkpt lat="43.56013" lon="2.98873">
        <ele>298</ele>
        <time>2017-04-16T15:12:17.000Z</time>
      </trkpt>
      <trkpt lat="43.56012" lon="2.98868">
        <ele>298.4</ele>
        <time>2017-04-16T15:12:19.000Z</time>
      </trkpt>
      <trkpt lat="43.56011" lon="2.98864">
        <ele>298.6</ele>
        <time>2017-04-16T15:12:21.000Z</time>
      </trkpt>
      <trkpt lat="43.56009" lon="2.98861">
        <ele>298.8</ele>
        <time>2017-04-16T15:12:23.000Z</time>
      </trkpt>
      <trkpt lat="43.56008" lon="2.98859">
        <ele>299</ele>
        <time>2017-04-16T15:12:24.000Z</time>
      </trkpt>
      <trkpt lat="43.56005" lon="2.98851">
        <ele>299.6</ele>
        <time>2017-04-16T15:12:29.000Z</time>
      </trkpt>
      <trkpt lat="43.56005" lon="2.98845">
        <ele>300</ele>
        <time>2017-04-16T15:12:31.000Z</time>
      </trkpt>
      <trkpt lat="43.56004" lon="2.98843">
        <ele>300.2</ele>
        <time>2017-04-16T15:12:32.000Z</time>
      </trkpt>
      <trkpt lat="43.56004" lon="2.98838">
        <ele>300.4</ele>
        <time>2017-04-16T15:12:34.000Z</time>
      </trkpt>
      <trkpt lat="43.56003" lon="2.98836">
        <ele>300.6</ele>
        <time>2017-04-16T15:12:35.000Z</time>
      </trkpt>
      <trkpt lat="43.56002" lon="2.98831">
        <ele>300.8</ele>
        <time>2017-04-16T15:12:37.000Z</time>
      </trkpt>
      <trkpt lat="43.56001" lon="2.98825">
        <ele>301</ele>
        <time>2017-04-16T15:12:39.000Z</time>
      </trkpt>
      <trkpt lat="43.55996" lon="2.98809">
        <ele>301.6</ele>
        <time>2017-04-16T15:12:46.000Z</time>
      </trkpt>
      <trkpt lat="43.55994" lon="2.98805">
        <ele>302</ele>
        <time>2017-04-16T15:12:48.000Z</time>
      </trkpt>
      <trkpt lat="43.55992" lon="2.98801">
        <ele>302.4</ele>
        <time>2017-04-16T15:12:50.000Z</time>
      </trkpt>
      <trkpt lat="43.55991" lon="2.98797">
        <ele>302.8</ele>
        <time>2017-04-16T15:12:52.000Z</time>
      </trkpt>
      <trkpt lat="43.55989" lon="2.98794">
        <ele>303</ele>
        <time>2017-04-16T15:12:54.000Z</time>
      </trkpt>
      <trkpt lat="43.55985" lon="2.9879">
        <ele>303.2</ele>
        <time>2017-04-16T15:12:57.000Z</time>
      </trkpt>
      <trkpt lat="43.55982" lon="2.98789">
        <ele>303.6</ele>
        <time>2017-04-16T15:12:59.000Z</time>
      </trkpt>
      <trkpt lat="43.55979" lon="2.98788">
        <ele>304</ele>
        <time>2017-04-16T15:13:01.000Z</time>
      </trkpt>
      <trkpt lat="43.55975" lon="2.98788">
        <ele>304.4</ele>
        <time>2017-04-16T15:13:03.000Z</time>
      </trkpt>
      <trkpt lat="43.55973" lon="2.98787">
        <ele>304.6</ele>
        <time>2017-04-16T15:13:04.000Z</time>
      </trkpt>
      <trkpt lat="43.55971" lon="2.98784">
        <ele>305</ele>
        <time>2017-04-16T15:13:06.000Z</time>
      </trkpt>
      <trkpt lat="43.55963" lon="2.98776">
        <ele>305.6</ele>
        <time>2017-04-16T15:13:11.000Z</time>
      </trkpt>
      <trkpt lat="43.5596" lon="2.98775">
        <ele>306.2</ele>
        <time>2017-04-16T15:13:13.000Z</time>
      </trkpt>
      <trkpt lat="43.55957" lon="2.98774">
        <ele>306.6</ele>
        <time>2017-04-16T15:13:15.000Z</time>
      </trkpt>
      <trkpt lat="43.55953" lon="2.98774">
        <ele>307</ele>
        <time>2017-04-16T15:13:17.000Z</time>
      </trkpt>
      <trkpt lat="43.55952" lon="2.98774">
        <ele>307</ele>
        <time>2017-04-16T15:13:18.000Z</time>
      </trkpt>
      <trkpt lat="43.5595" lon="2.98774">
        <ele>307.2</ele>
        <time>2017-04-16T15:13:19.000Z</time>
      </trkpt>
      <trkpt lat="43.55947" lon="2.98774">
        <ele>307.4</ele>
        <time>2017-04-16T15:13:21.000Z</time>
      </trkpt>
      <trkpt lat="43.55943" lon="2.98772">
        <ele>307.6</ele>
        <time>2017-04-16T15:13:23.000Z</time>
      </trkpt>
      <trkpt lat="43.55941" lon="2.98772">
        <ele>307.8</ele>
        <time>2017-04-16T15:13:24.000Z</time>
      </trkpt>
      <trkpt lat="43.55938" lon="2.98772">
        <ele>308.4</ele>
        <time>2017-04-16T15:13:26.000Z</time>
      </trkpt>
      <trkpt lat="43.55936" lon="2.98772">
        <ele>308.6</ele>
        <time>2017-04-16T15:13:27.000Z</time>
      </trkpt>
      <trkpt lat="43.5593" lon="2.98774">
        <ele>309</ele>
        <time>2017-04-16T15:13:30.000Z</time>
      </trkpt>
      <trkpt lat="43.55928" lon="2.98775">
        <ele>309.4</ele>
        <time>2017-04-16T15:13:32.000Z</time>
      </trkpt>
      <trkpt lat="43.55927" lon="2.98776">
        <ele>309.4</ele>
        <time>2017-04-16T15:13:33.000Z</time>
      </trkpt>
      <trkpt lat="43.55927" lon="2.98785">
        <ele>309.8</ele>
        <time>2017-04-16T15:13:37.000Z</time>
      </trkpt>
      <trkpt lat="43.55929" lon="2.98787">
        <ele>309.8</ele>
        <time>2017-04-16T15:13:38.000Z</time>
      </trkpt>
      <trkpt lat="43.55936" lon="2.98793">
        <ele>310.2</ele>
        <time>2017-04-16T15:13:42.000Z</time>
      </trkpt>
      <trkpt lat="43.55939" lon="2.98793">
        <ele>310.6</ele>
        <time>2017-04-16T15:13:43.000Z</time>
      </trkpt>
      <trkpt lat="43.55945" lon="2.98793">
        <ele>311</ele>
        <time>2017-04-16T15:13:46.000Z</time>
      </trkpt>
      <trkpt lat="43.55947" lon="2.98794">
        <ele>311.2</ele>
        <time>2017-04-16T15:13:47.000Z</time>
      </trkpt>
      <trkpt lat="43.55952" lon="2.98796">
        <ele>311.6</ele>
        <time>2017-04-16T15:13:50.000Z</time>
      </trkpt>
      <trkpt lat="43.55954" lon="2.98798">
        <ele>311.8</ele>
        <time>2017-04-16T15:13:52.000Z</time>
      </trkpt>
      <trkpt lat="43.55957" lon="2.98804">
        <ele>312.6</ele>
        <time>2017-04-16T15:13:55.000Z</time>
      </trkpt>
      <trkpt lat="43.55958" lon="2.98805">
        <ele>312.8</ele>
        <time>2017-04-16T15:13:56.000Z</time>
      </trkpt>
      <trkpt lat="43.55961" lon="2.98811">
        <ele>313.2</ele>
        <time>2017-04-16T15:13:59.000Z</time>
      </trkpt>
      <trkpt lat="43.55964" lon="2.98814">
        <ele>313.6</ele>
        <time>2017-04-16T15:14:01.000Z</time>
      </trkpt>
      <trkpt lat="43.55973" lon="2.98825">
        <ele>314.4</ele>
        <time>2017-04-16T15:14:08.000Z</time>
      </trkpt>
      <trkpt lat="43.55975" lon="2.9883">
        <ele>314.8</ele>
        <time>2017-04-16T15:14:10.000Z</time>
      </trkpt>
      <trkpt lat="43.55976" lon="2.98834">
        <ele>315.2</ele>
        <time>2017-04-16T15:14:12.000Z</time>
      </trkpt>
      <trkpt lat="43.55978" lon="2.9884">
        <ele>315.6</ele>
        <time>2017-04-16T15:14:14.000Z</time>
      </trkpt>
      <trkpt lat="43.55979" lon="2.98845">
        <ele>315.8</ele>
        <time>2017-04-16T15:14:16.000Z</time>
      </trkpt>
      <trkpt lat="43.5598" lon="2.98851">
        <ele>316</ele>
        <time>2017-04-16T15:14:18.000Z</time>
      </trkpt>
      <trkpt lat="43.55982" lon="2.98862">
        <ele>316.6</ele>
        <time>2017-04-16T15:14:23.000Z</time>
      </trkpt>
      <trkpt lat="43.55983" lon="2.98866">
        <ele>317</ele>
        <time>2017-04-16T15:14:25.000Z</time>
      </trkpt>
      <trkpt lat="43.55983" lon="2.9887">
        <ele>317.4</ele>
        <time>2017-04-16T15:14:27.000Z</time>
      </trkpt>
      <trkpt lat="43.55984" lon="2.98873">
        <ele>317.6</ele>
        <time>2017-04-16T15:14:28.000Z</time>
      </trkpt>
      <trkpt lat="43.55984" lon="2.98881">
        <ele>318</ele>
        <time>2017-04-16T15:14:31.000Z</time>
      </trkpt>
      <trkpt lat="43.55984" lon="2.98884">
        <ele>318</ele>
        <time>2017-04-16T15:14:32.000Z</time>
      </trkpt>
      <trkpt lat="43.55984" lon="2.98888">
        <ele>318.2</ele>
        <time>2017-04-16T15:14:34.000Z</time>
      </trkpt>
      <trkpt lat="43.55985" lon="2.98893">
        <ele>318.6</ele>
        <time>2017-04-16T15:14:36.000Z</time>
      </trkpt>
      <trkpt lat="43.55985" lon="2.98899">
        <ele>319.2</ele>
        <time>2017-04-16T15:14:38.000Z</time>
      </trkpt>
      <trkpt lat="43.55985" lon="2.98902">
        <ele>319.4</ele>
        <time>2017-04-16T15:14:39.000Z</time>
      </trkpt>
      <trkpt lat="43.55985" lon="2.98904">
        <ele>319.6</ele>
        <time>2017-04-16T15:14:40.000Z</time>
      </trkpt>
      <trkpt lat="43.55985" lon="2.98909">
        <ele>319.8</ele>
        <time>2017-04-16T15:14:42.000Z</time>
      </trkpt>
      <trkpt lat="43.55985" lon="2.98913">
        <ele>320.2</ele>
        <time>2017-04-16T15:14:44.000Z</time>
      </trkpt>
      <trkpt lat="43.55986" lon="2.98921">
        <ele>320.8</ele>
        <time>2017-04-16T15:14:48.000Z</time>
      </trkpt>
      <trkpt lat="43.55988" lon="2.98925">
        <ele>321.2</ele>
        <time>2017-04-16T15:14:50.000Z</time>
      </trkpt>
      <trkpt lat="43.55989" lon="2.98929">
        <ele>321.6</ele>
        <time>2017-04-16T15:14:52.000Z</time>
      </trkpt>
      <trkpt lat="43.55991" lon="2.98933">
        <ele>322</ele>
        <time>2017-04-16T15:14:54.000Z</time>
      </trkpt>
      <trkpt lat="43.55993" lon="2.98938">
        <ele>322.2</ele>
        <time>2017-04-16T15:14:56.000Z</time>
      </trkpt>
      <trkpt lat="43.56001" lon="2.98956">
        <ele>322.8</ele>
        <time>2017-04-16T15:15:03.000Z</time>
      </trkpt>
      <trkpt lat="43.56002" lon="2.98958">
        <ele>323</ele>
        <time>2017-04-16T15:15:04.000Z</time>
      </trkpt>
      <trkpt lat="43.56005" lon="2.98963">
        <ele>323.4</ele>
        <time>2017-04-16T15:15:06.000Z</time>
      </trkpt>
      <trkpt lat="43.56005" lon="2.98966">
        <ele>323.6</ele>
        <time>2017-04-16T15:15:07.000Z</time>
      </trkpt>
      <trkpt lat="43.56005" lon="2.98968">
        <ele>323.8</ele>
        <time>2017-04-16T15:15:08.000Z</time>
      </trkpt>
      <trkpt lat="43.56005" lon="2.98972">
        <ele>324.2</ele>
        <time>2017-04-16T15:15:10.000Z</time>
      </trkpt>
      <trkpt lat="43.56007" lon="2.98975">
        <ele>324.4</ele>
        <time>2017-04-16T15:15:12.000Z</time>
      </trkpt>
      <trkpt lat="43.56008" lon="2.98976">
        <ele>324.4</ele>
        <time>2017-04-16T15:15:13.000Z</time>
      </trkpt>
      <trkpt lat="43.56012" lon="2.98982">
        <ele>324.8</ele>
        <time>2017-04-16T15:15:16.000Z</time>
      </trkpt>
      <trkpt lat="43.5602" lon="2.98997">
        <ele>325.2</ele>
        <time>2017-04-16T15:15:22.000Z</time>
      </trkpt>
      <trkpt lat="43.56021" lon="2.99002">
        <ele>325.6</ele>
        <time>2017-04-16T15:15:24.000Z</time>
      </trkpt>
      <trkpt lat="43.56023" lon="2.99008">
        <ele>326</ele>
        <time>2017-04-16T15:15:26.000Z</time>
      </trkpt>
      <trkpt lat="43.56025" lon="2.99014">
        <ele>326.2</ele>
        <time>2017-04-16T15:15:28.000Z</time>
      </trkpt>
      <trkpt lat="43.56025" lon="2.99018">
        <ele>326.4</ele>
        <time>2017-04-16T15:15:29.000Z</time>
      </trkpt>
      <trkpt lat="43.56026" lon="2.99021">
        <ele>326.4</ele>
        <time>2017-04-16T15:15:30.000Z</time>
      </trkpt>
      <trkpt lat="43.56029" lon="2.99032">
        <ele>326.8</ele>
        <time>2017-04-16T15:15:35.000Z</time>
      </trkpt>
      <trkpt lat="43.56029" lon="2.99037">
        <ele>327.6</ele>
        <time>2017-04-16T15:15:38.000Z</time>
      </trkpt>
      <trkpt lat="43.56029" lon="2.99039">
        <ele>327.8</ele>
        <time>2017-04-16T15:15:39.000Z</time>
      </trkpt>
      <trkpt lat="43.5603" lon="2.9904">
        <ele>328</ele>
        <time>2017-04-16T15:15:40.000Z</time>
      </trkpt>
      <trkpt lat="43.56029" lon="2.99044">
        <ele>328.2</ele>
        <time>2017-04-16T15:15:42.000Z</time>
      </trkpt>
      <trkpt lat="43.56029" lon="2.99046">
        <ele>328.4</ele>
        <time>2017-04-16T15:15:43.000Z</time>
      </trkpt>
      <trkpt lat="43.56029" lon="2.99053">
        <ele>328.8</ele>
        <time>2017-04-16T15:15:46.000Z</time>
      </trkpt>
      <trkpt lat="43.56029" lon="2.99057">
        <ele>329.2</ele>
        <time>2017-04-16T15:15:49.000Z</time>
      </trkpt>
      <trkpt lat="43.56029" lon="2.99059">
        <ele>329.4</ele>
        <time>2017-04-16T15:15:50.000Z</time>
      </trkpt>
      <trkpt lat="43.56029" lon="2.99061">
        <ele>329.6</ele>
        <time>2017-04-16T15:15:51.000Z</time>
      </trkpt>
      <trkpt lat="43.56029" lon="2.99063">
        <ele>329.8</ele>
        <time>2017-04-16T15:15:52.000Z</time>
      </trkpt>
      <trkpt lat="43.5603" lon="2.99068">
        <ele>330.4</ele>
        <time>2017-04-16T15:15:55.000Z</time>
      </trkpt>
      <trkpt lat="43.56031" lon="2.9907">
        <ele>330.4</ele>
        <time>2017-04-16T15:15:56.000Z</time>
      </trkpt>
      <trkpt lat="43.56031" lon="2.99073">
        <ele>330.6</ele>
        <time>2017-04-16T15:15:57.000Z</time>
      </trkpt>
      <trkpt lat="43.56031" lon="2.99087">
        <ele>331</ele>
        <time>2017-04-16T15:16:02.000Z</time>
      </trkpt>
      <trkpt lat="43.56031" lon="2.99093">
        <ele>331.4</ele>
        <time>2017-04-16T15:16:04.000Z</time>
      </trkpt>
      <trkpt lat="43.56031" lon="2.99099">
        <ele>331.8</ele>
        <time>2017-04-16T15:16:06.000Z</time>
      </trkpt>
      <trkpt lat="43.56031" lon="2.99105">
        <ele>332.2</ele>
        <time>2017-04-16T15:16:08.000Z</time>
      </trkpt>
      <trkpt lat="43.5603" lon="2.9911">
        <ele>332.4</ele>
        <time>2017-04-16T15:16:10.000Z</time>
      </trkpt>
      <trkpt lat="43.56029" lon="2.99112">
        <ele>332.6</ele>
        <time>2017-04-16T15:16:11.000Z</time>
      </trkpt>
      <trkpt lat="43.56028" lon="2.99114">
        <ele>332.8</ele>
        <time>2017-04-16T15:16:12.000Z</time>
      </trkpt>
      <trkpt lat="43.56024" lon="2.99114">
        <ele>333.2</ele>
        <time>2017-04-16T15:16:15.000Z</time>
      </trkpt>
      <trkpt lat="43.56022" lon="2.99111">
        <ele>333.8</ele>
        <time>2017-04-16T15:16:17.000Z</time>
      </trkpt>
      <trkpt lat="43.56021" lon="2.99108">
        <ele>334</ele>
        <time>2017-04-16T15:16:18.000Z</time>
      </trkpt>
      <trkpt lat="43.5602" lon="2.99101">
        <ele>334.4</ele>
        <time>2017-04-16T15:16:21.000Z</time>
      </trkpt>
      <trkpt lat="43.5602" lon="2.99096">
        <ele>334.8</ele>
        <time>2017-04-16T15:16:23.000Z</time>
      </trkpt>
      <trkpt lat="43.56019" lon="2.99085">
        <ele>335.4</ele>
        <time>2017-04-16T15:16:28.000Z</time>
      </trkpt>
      <trkpt lat="43.56019" lon="2.99081">
        <ele>335.8</ele>
        <time>2017-04-16T15:16:30.000Z</time>
      </trkpt>
      <trkpt lat="43.56018" lon="2.99077">
        <ele>336.2</ele>
        <time>2017-04-16T15:16:32.000Z</time>
      </trkpt>
      <trkpt lat="43.56017" lon="2.99072">
        <ele>336.6</ele>
        <time>2017-04-16T15:16:34.000Z</time>
      </trkpt>
      <trkpt lat="43.56016" lon="2.99068">
        <ele>336.8</ele>
        <time>2017-04-16T15:16:36.000Z</time>
      </trkpt>
      <trkpt lat="43.56015" lon="2.99054">
        <ele>337.6</ele>
        <time>2017-04-16T15:16:42.000Z</time>
      </trkpt>
      <trkpt lat="43.56014" lon="2.99051">
        <ele>338</ele>
        <time>2017-04-16T15:16:44.000Z</time>
      </trkpt>
      <trkpt lat="43.56011" lon="2.99046">
        <ele>338.4</ele>
        <time>2017-04-16T15:16:46.000Z</time>
      </trkpt>
      <trkpt lat="43.56008" lon="2.99042">
        <ele>338.8</ele>
        <time>2017-04-16T15:16:48.000Z</time>
      </trkpt>
      <trkpt lat="43.56005" lon="2.99038">
        <ele>339</ele>
        <time>2017-04-16T15:16:50.000Z</time>
      </trkpt>
      <trkpt lat="43.55998" lon="2.99029">
        <ele>339.6</ele>
        <time>2017-04-16T15:16:55.000Z</time>
      </trkpt>
      <trkpt lat="43.55996" lon="2.99026">
        <ele>340.2</ele>
        <time>2017-04-16T15:16:57.000Z</time>
      </trkpt>
      <trkpt lat="43.55993" lon="2.99022">
        <ele>340.6</ele>
        <time>2017-04-16T15:16:59.000Z</time>
      </trkpt>
      <trkpt lat="43.55991" lon="2.99021">
        <ele>340.6</ele>
        <time>2017-04-16T15:17:00.000Z</time>
      </trkpt>
      <trkpt lat="43.55987" lon="2.99017">
        <ele>341</ele>
        <time>2017-04-16T15:17:03.000Z</time>
      </trkpt>
      <trkpt lat="43.55982" lon="2.99011">
        <ele>341.4</ele>
        <time>2017-04-16T15:17:07.000Z</time>
      </trkpt>
      <trkpt lat="43.55981" lon="2.99009">
        <ele>341.8</ele>
        <time>2017-04-16T15:17:08.000Z</time>
      </trkpt>
      <trkpt lat="43.55979" lon="2.99002">
        <ele>342.2</ele>
        <time>2017-04-16T15:17:10.000Z</time>
      </trkpt>
      <trkpt lat="43.55978" lon="2.99">
        <ele>342.4</ele>
        <time>2017-04-16T15:17:11.000Z</time>
      </trkpt>
      <trkpt lat="43.55977" lon="2.98999">
        <ele>342.6</ele>
        <time>2017-04-16T15:17:12.000Z</time>
      </trkpt>
      <trkpt lat="43.55975" lon="2.98994">
        <ele>343</ele>
        <time>2017-04-16T15:17:14.000Z</time>
      </trkpt>
      <trkpt lat="43.55972" lon="2.9899">
        <ele>343.2</ele>
        <time>2017-04-16T15:17:16.000Z</time>
      </trkpt>
      <trkpt lat="43.55971" lon="2.98988">
        <ele>343.4</ele>
        <time>2017-04-16T15:17:17.000Z</time>
      </trkpt>
      <trkpt lat="43.55968" lon="2.98984">
        <ele>344</ele>
        <time>2017-04-16T15:17:19.000Z</time>
      </trkpt>
      <trkpt lat="43.55965" lon="2.98981">
        <ele>344.4</ele>
        <time>2017-04-16T15:17:21.000Z</time>
      </trkpt>
      <trkpt lat="43.55962" lon="2.98977">
        <ele>344.8</ele>
        <time>2017-04-16T15:17:23.000Z</time>
      </trkpt>
      <trkpt lat="43.5596" lon="2.98974">
        <ele>345</ele>
        <time>2017-04-16T15:17:25.000Z</time>
      </trkpt>
      <trkpt lat="43.55949" lon="2.98964">
        <ele>346</ele>
        <time>2017-04-16T15:17:32.000Z</time>
      </trkpt>
      <trkpt lat="43.55946" lon="2.98961">
        <ele>346.4</ele>
        <time>2017-04-16T15:17:34.000Z</time>
      </trkpt>
      <trkpt lat="43.55942" lon="2.98958">
        <ele>346.8</ele>
        <time>2017-04-16T15:17:36.000Z</time>
      </trkpt>
      <trkpt lat="43.55938" lon="2.98955">
        <ele>347</ele>
        <time>2017-04-16T15:17:38.000Z</time>
      </trkpt>
      <trkpt lat="43.55935" lon="2.98951">
        <ele>347.4</ele>
        <time>2017-04-16T15:17:40.000Z</time>
      </trkpt>
      <trkpt lat="43.55925" lon="2.98939">
        <ele>347.8</ele>
        <time>2017-04-16T15:17:46.000Z</time>
      </trkpt>
      <trkpt lat="43.55921" lon="2.98932">
        <ele>348.2</ele>
        <time>2017-04-16T15:17:50.000Z</time>
      </trkpt>
      <trkpt lat="43.55918" lon="2.98929">
        <ele>348.6</ele>
        <time>2017-04-16T15:17:52.000Z</time>
      </trkpt>
      <trkpt lat="43.55916" lon="2.98925">
        <ele>349</ele>
        <time>2017-04-16T15:17:54.000Z</time>
      </trkpt>
      <trkpt lat="43.55913" lon="2.98921">
        <ele>349.2</ele>
        <time>2017-04-16T15:17:56.000Z</time>
      </trkpt>
      <trkpt lat="43.55912" lon="2.9892">
        <ele>349.4</ele>
        <time>2017-04-16T15:17:57.000Z</time>
      </trkpt>
      <trkpt lat="43.55906" lon="2.98918">
        <ele>349.8</ele>
        <time>2017-04-16T15:18:00.000Z</time>
      </trkpt>
      <trkpt lat="43.55904" lon="2.98918">
        <ele>350</ele>
        <time>2017-04-16T15:18:01.000Z</time>
      </trkpt>
      <trkpt lat="43.55898" lon="2.98918">
        <ele>350.8</ele>
        <time>2017-04-16T15:18:04.000Z</time>
      </trkpt>
      <trkpt lat="43.55895" lon="2.98917">
        <ele>351</ele>
        <time>2017-04-16T15:18:06.000Z</time>
      </trkpt>
      <trkpt lat="43.55892" lon="2.98917">
        <ele>351.4</ele>
        <time>2017-04-16T15:18:08.000Z</time>
      </trkpt>
      <trkpt lat="43.5589" lon="2.98916">
        <ele>351.4</ele>
        <time>2017-04-16T15:18:09.000Z</time>
      </trkpt>
      <trkpt lat="43.55886" lon="2.98917">
        <ele>352</ele>
        <time>2017-04-16T15:18:12.000Z</time>
      </trkpt>
      <trkpt lat="43.55885" lon="2.98918">
        <ele>352.2</ele>
        <time>2017-04-16T15:18:13.000Z</time>
      </trkpt>
      <trkpt lat="43.55884" lon="2.9892">
        <ele>352.4</ele>
        <time>2017-04-16T15:18:14.000Z</time>
      </trkpt>
      <trkpt lat="43.55885" lon="2.98922">
        <ele>352.8</ele>
        <time>2017-04-16T15:18:16.000Z</time>
      </trkpt>
      <trkpt lat="43.55887" lon="2.98926">
        <ele>353.2</ele>
        <time>2017-04-16T15:18:18.000Z</time>
      </trkpt>
      <trkpt lat="43.5589" lon="2.98927">
        <ele>353.4</ele>
        <time>2017-04-16T15:18:20.000Z</time>
      </trkpt>
      <trkpt lat="43.55894" lon="2.98929">
        <ele>353.6</ele>
        <time>2017-04-16T15:18:22.000Z</time>
      </trkpt>
      <trkpt lat="43.55899" lon="2.9893">
        <ele>354.2</ele>
        <time>2017-04-16T15:18:25.000Z</time>
      </trkpt>
      <trkpt lat="43.55902" lon="2.98929">
        <ele>354.4</ele>
        <time>2017-04-16T15:18:26.000Z</time>
      </trkpt>
      <trkpt lat="43.55903" lon="2.9893">
        <ele>354.6</ele>
        <time>2017-04-16T15:18:27.000Z</time>
      </trkpt>
      <trkpt lat="43.55907" lon="2.9893">
        <ele>355</ele>
        <time>2017-04-16T15:18:29.000Z</time>
      </trkpt>
      <trkpt lat="43.55911" lon="2.98931">
        <ele>355.4</ele>
        <time>2017-04-16T15:18:31.000Z</time>
      </trkpt>
      <trkpt lat="43.55914" lon="2.98934">
        <ele>355.6</ele>
        <time>2017-04-16T15:18:33.000Z</time>
      </trkpt>
      <trkpt lat="43.55922" lon="2.98943">
        <ele>356.2</ele>
        <time>2017-04-16T15:18:38.000Z</time>
      </trkpt>
      <trkpt lat="43.55931" lon="2.98956">
        <ele>356.4</ele>
        <time>2017-04-16T15:18:44.000Z</time>
      </trkpt>
      <trkpt lat="43.55934" lon="2.98961">
        <ele>356.8</ele>
        <time>2017-04-16T15:18:46.000Z</time>
      </trkpt>
      <trkpt lat="43.55936" lon="2.98967">
        <ele>357.2</ele>
        <time>2017-04-16T15:18:48.000Z</time>
      </trkpt>
      <trkpt lat="43.55937" lon="2.98973">
        <ele>357.4</ele>
        <time>2017-04-16T15:18:50.000Z</time>
      </trkpt>
      <trkpt lat="43.5594" lon="2.98978">
        <ele>357.8</ele>
        <time>2017-04-16T15:18:52.000Z</time>
      </trkpt>
      <trkpt lat="43.55942" lon="2.98984">
        <ele>358</ele>
        <time>2017-04-16T15:18:54.000Z</time>
      </trkpt>
      <trkpt lat="43.55953" lon="2.99004">
        <ele>358.4</ele>
        <time>2017-04-16T15:19:01.000Z</time>
      </trkpt>
      <trkpt lat="43.55955" lon="2.99009">
        <ele>358.8</ele>
        <time>2017-04-16T15:19:03.000Z</time>
      </trkpt>
      <trkpt lat="43.55957" lon="2.99015">
        <ele>359.2</ele>
        <time>2017-04-16T15:19:05.000Z</time>
      </trkpt>
      <trkpt lat="43.55959" lon="2.9902">
        <ele>359.6</ele>
        <time>2017-04-16T15:19:07.000Z</time>
      </trkpt>
      <trkpt lat="43.55962" lon="2.99026">
        <ele>359.8</ele>
        <time>2017-04-16T15:19:09.000Z</time>
      </trkpt>
      <trkpt lat="43.55964" lon="2.99032">
        <ele>360.2</ele>
        <time>2017-04-16T15:19:11.000Z</time>
      </trkpt>
      <trkpt lat="43.55966" lon="2.99037">
        <ele>360.6</ele>
        <time>2017-04-16T15:19:13.000Z</time>
      </trkpt>
      <trkpt lat="43.55968" lon="2.99044">
        <ele>361</ele>
        <time>2017-04-16T15:19:15.000Z</time>
      </trkpt>
      <trkpt lat="43.5597" lon="2.99049">
        <ele>361.4</ele>
        <time>2017-04-16T15:19:17.000Z</time>
      </trkpt>
      <trkpt lat="43.55972" lon="2.99054">
        <ele>361.8</ele>
        <time>2017-04-16T15:19:19.000Z</time>
      </trkpt>
      <trkpt lat="43.55974" lon="2.99059">
        <ele>362</ele>
        <time>2017-04-16T15:19:21.000Z</time>
      </trkpt>
      <trkpt lat="43.55976" lon="2.99064">
        <ele>362.4</ele>
        <time>2017-04-16T15:19:23.000Z</time>
      </trkpt>
      <trkpt lat="43.55978" lon="2.99068">
        <ele>363</ele>
        <time>2017-04-16T15:19:25.000Z</time>
      </trkpt>
      <trkpt lat="43.5598" lon="2.99073">
        <ele>363.4</ele>
        <time>2017-04-16T15:19:27.000Z</time>
      </trkpt>
      <trkpt lat="43.55981" lon="2.99079">
        <ele>363.8</ele>
        <time>2017-04-16T15:19:29.000Z</time>
      </trkpt>
      <trkpt lat="43.55983" lon="2.99085">
        <ele>364.2</ele>
        <time>2017-04-16T15:19:31.000Z</time>
      </trkpt>
      <trkpt lat="43.55985" lon="2.99107">
        <ele>364.8</ele>
        <time>2017-04-16T15:19:38.000Z</time>
      </trkpt>
      <trkpt lat="43.55987" lon="2.99129">
        <ele>365</ele>
        <time>2017-04-16T15:19:45.000Z</time>
      </trkpt>
      <trkpt lat="43.55988" lon="2.99148">
        <ele>365.2</ele>
        <time>2017-04-16T15:19:51.000Z</time>
      </trkpt>
      <trkpt lat="43.55991" lon="2.99157">
        <ele>365.2</ele>
        <time>2017-04-16T15:19:54.000Z</time>
      </trkpt>
      <trkpt lat="43.55992" lon="2.99166">
        <ele>365.4</ele>
        <time>2017-04-16T15:19:57.000Z</time>
      </trkpt>
      <trkpt lat="43.55994" lon="2.99172">
        <ele>365.8</ele>
        <time>2017-04-16T15:19:59.000Z</time>
      </trkpt>
      <trkpt lat="43.55996" lon="2.99176">
        <ele>366.2</ele>
        <time>2017-04-16T15:20:01.000Z</time>
      </trkpt>
      <trkpt lat="43.55997" lon="2.99182">
        <ele>366.4</ele>
        <time>2017-04-16T15:20:03.000Z</time>
      </trkpt>
      <trkpt lat="43.55998" lon="2.99185">
        <ele>366.4</ele>
        <time>2017-04-16T15:20:04.000Z</time>
      </trkpt>
      <trkpt lat="43.55999" lon="2.99189">
        <ele>366.6</ele>
        <time>2017-04-16T15:20:05.000Z</time>
      </trkpt>
      <trkpt lat="43.56006" lon="2.99213">
        <ele>367</ele>
        <time>2017-04-16T15:20:12.000Z</time>
      </trkpt>
      <trkpt lat="43.56009" lon="2.99219">
        <ele>367.4</ele>
        <time>2017-04-16T15:20:14.000Z</time>
      </trkpt>
      <trkpt lat="43.56013" lon="2.99225">
        <ele>367.8</ele>
        <time>2017-04-16T15:20:16.000Z</time>
      </trkpt>
      <trkpt lat="43.56016" lon="2.99231">
        <ele>368</ele>
        <time>2017-04-16T15:20:18.000Z</time>
      </trkpt>
      <trkpt lat="43.5602" lon="2.99237">
        <ele>368.4</ele>
        <time>2017-04-16T15:20:20.000Z</time>
      </trkpt>
      <trkpt lat="43.56023" lon="2.99242">
        <ele>368.6</ele>
        <time>2017-04-16T15:20:22.000Z</time>
      </trkpt>
      <trkpt lat="43.56033" lon="2.99259">
        <ele>369.4</ele>
        <time>2017-04-16T15:20:29.000Z</time>
      </trkpt>
      <trkpt lat="43.56035" lon="2.99263">
        <ele>369.8</ele>
        <time>2017-04-16T15:20:31.000Z</time>
      </trkpt>
      <trkpt lat="43.56037" lon="2.99268">
        <ele>370.2</ele>
        <time>2017-04-16T15:20:33.000Z</time>
      </trkpt>
      <trkpt lat="43.56037" lon="2.9927">
        <ele>370.2</ele>
        <time>2017-04-16T15:20:34.000Z</time>
      </trkpt>
      <trkpt lat="43.56037" lon="2.99272">
        <ele>370.4</ele>
        <time>2017-04-16T15:20:35.000Z</time>
      </trkpt>
      <trkpt lat="43.56035" lon="2.99274">
        <ele>370.6</ele>
        <time>2017-04-16T15:20:37.000Z</time>
      </trkpt>
      <trkpt lat="43.56033" lon="2.99276">
        <ele>370.8</ele>
        <time>2017-04-16T15:20:38.000Z</time>
      </trkpt>
      <trkpt lat="43.56032" lon="2.99277">
        <ele>371</ele>
        <time>2017-04-16T15:20:39.000Z</time>
      </trkpt>
      <trkpt lat="43.5603" lon="2.99277">
        <ele>371.2</ele>
        <time>2017-04-16T15:20:40.000Z</time>
      </trkpt>
      <trkpt lat="43.56028" lon="2.99275">
        <ele>371.6</ele>
        <time>2017-04-16T15:20:41.000Z</time>
      </trkpt>
      <trkpt lat="43.56025" lon="2.99273">
        <ele>372</ele>
        <time>2017-04-16T15:20:43.000Z</time>
      </trkpt>
      <trkpt lat="43.56022" lon="2.99267">
        <ele>372.2</ele>
        <time>2017-04-16T15:20:45.000Z</time>
      </trkpt>
      <trkpt lat="43.56021" lon="2.99265">
        <ele>372.4</ele>
        <time>2017-04-16T15:20:46.000Z</time>
      </trkpt>
      <trkpt lat="43.56009" lon="2.99245">
        <ele>373.2</ele>
        <time>2017-04-16T15:20:56.000Z</time>
      </trkpt>
      <trkpt lat="43.56005" lon="2.99237">
        <ele>373.6</ele>
        <time>2017-04-16T15:21:00.000Z</time>
      </trkpt>
      <trkpt lat="43.56002" lon="2.99233">
        <ele>374</ele>
        <time>2017-04-16T15:21:02.000Z</time>
      </trkpt>
      <trkpt lat="43.55999" lon="2.99229">
        <ele>374.4</ele>
        <time>2017-04-16T15:21:04.000Z</time>
      </trkpt>
      <trkpt lat="43.55996" lon="2.99225">
        <ele>374.6</ele>
        <time>2017-04-16T15:21:06.000Z</time>
      </trkpt>
      <trkpt lat="43.55993" lon="2.99221">
        <ele>374.8</ele>
        <time>2017-04-16T15:21:08.000Z</time>
      </trkpt>
      <trkpt lat="43.55981" lon="2.99203">
        <ele>375.6</ele>
        <time>2017-04-16T15:21:16.000Z</time>
      </trkpt>
      <trkpt lat="43.55978" lon="2.99196">
        <ele>376</ele>
        <time>2017-04-16T15:21:18.000Z</time>
      </trkpt>
      <trkpt lat="43.55976" lon="2.99193">
        <ele>376.4</ele>
        <time>2017-04-16T15:21:20.000Z</time>
      </trkpt>
      <trkpt lat="43.55973" lon="2.99187">
        <ele>376.6</ele>
        <time>2017-04-16T15:21:22.000Z</time>
      </trkpt>
      <trkpt lat="43.5597" lon="2.99181">
        <ele>376.8</ele>
        <time>2017-04-16T15:21:24.000Z</time>
      </trkpt>
      <trkpt lat="43.55965" lon="2.99167">
        <ele>377.4</ele>
        <time>2017-04-16T15:21:29.000Z</time>
      </trkpt>
      <trkpt lat="43.55964" lon="2.99161">
        <ele>378</ele>
        <time>2017-04-16T15:21:31.000Z</time>
      </trkpt>
      <trkpt lat="43.55962" lon="2.99156">
        <ele>378.4</ele>
        <time>2017-04-16T15:21:33.000Z</time>
      </trkpt>
      <trkpt lat="43.55961" lon="2.99152">
        <ele>378.8</ele>
        <time>2017-04-16T15:21:35.000Z</time>
      </trkpt>
      <trkpt lat="43.5596" lon="2.99147">
        <ele>379</ele>
        <time>2017-04-16T15:21:37.000Z</time>
      </trkpt>
      <trkpt lat="43.55958" lon="2.99132">
        <ele>379.8</ele>
        <time>2017-04-16T15:21:43.000Z</time>
      </trkpt>
      <trkpt lat="43.55957" lon="2.99127">
        <ele>380.2</ele>
        <time>2017-04-16T15:21:45.000Z</time>
      </trkpt>
      <trkpt lat="43.55956" lon="2.99122">
        <ele>380.6</ele>
        <time>2017-04-16T15:21:47.000Z</time>
      </trkpt>
      <trkpt lat="43.55954" lon="2.99117">
        <ele>380.8</ele>
        <time>2017-04-16T15:21:49.000Z</time>
      </trkpt>
      <trkpt lat="43.55953" lon="2.99111">
        <ele>381.2</ele>
        <time>2017-04-16T15:21:51.000Z</time>
      </trkpt>
      <trkpt lat="43.55943" lon="2.99087">
        <ele>381.8</ele>
        <time>2017-04-16T15:22:00.000Z</time>
      </trkpt>
      <trkpt lat="43.55937" lon="2.99075">
        <ele>382.2</ele>
        <time>2017-04-16T15:22:05.000Z</time>
      </trkpt>
      <trkpt lat="43.55934" lon="2.99071">
        <ele>382.6</ele>
        <time>2017-04-16T15:22:07.000Z</time>
      </trkpt>
      <trkpt lat="43.55932" lon="2.99068">
        <ele>383</ele>
        <time>2017-04-16T15:22:09.000Z</time>
      </trkpt>
      <trkpt lat="43.55929" lon="2.99065">
        <ele>383.2</ele>
        <time>2017-04-16T15:22:11.000Z</time>
      </trkpt>
      <trkpt lat="43.55926" lon="2.99062">
        <ele>383.4</ele>
        <time>2017-04-16T15:22:13.000Z</time>
      </trkpt>
      <trkpt lat="43.55921" lon="2.99058">
        <ele>383.8</ele>
        <time>2017-04-16T15:22:16.000Z</time>
      </trkpt>
      <trkpt lat="43.55917" lon="2.99056">
        <ele>384.4</ele>
        <time>2017-04-16T15:22:18.000Z</time>
      </trkpt>
      <trkpt lat="43.55914" lon="2.99053">
        <ele>384.8</ele>
        <time>2017-04-16T15:22:20.000Z</time>
      </trkpt>
      <trkpt lat="43.55911" lon="2.9905">
        <ele>385</ele>
        <time>2017-04-16T15:22:22.000Z</time>
      </trkpt>
      <trkpt lat="43.55908" lon="2.99046">
        <ele>385.2</ele>
        <time>2017-04-16T15:22:24.000Z</time>
      </trkpt>
      <trkpt lat="43.55898" lon="2.99039">
        <ele>386</ele>
        <time>2017-04-16T15:22:30.000Z</time>
      </trkpt>
      <trkpt lat="43.55895" lon="2.99037">
        <ele>386.6</ele>
        <time>2017-04-16T15:22:32.000Z</time>
      </trkpt>
      <trkpt lat="43.55893" lon="2.99036">
        <ele>387</ele>
        <time>2017-04-16T15:22:34.000Z</time>
      </trkpt>
      <trkpt lat="43.55893" lon="2.99035">
        <ele>387.2</ele>
        <time>2017-04-16T15:22:35.000Z</time>
      </trkpt>
      <trkpt lat="43.55892" lon="2.99034">
        <ele>388.6</ele>
        <time>2017-04-16T15:23:02.000Z</time>
      </trkpt>
      <trkpt lat="43.55891" lon="2.99034">
        <ele>388.6</ele>
        <time>2017-04-16T15:23:03.000Z</time>
      </trkpt>
      <trkpt lat="43.5589" lon="2.99034">
        <ele>388.6</ele>
        <time>2017-04-16T15:23:04.000Z</time>
      </trkpt>
      <trkpt lat="43.55889" lon="2.99034">
        <ele>388.6</ele>
        <time>2017-04-16T15:23:05.000Z</time>
      </trkpt>
      <trkpt lat="43.55877" lon="2.99035">
        <ele>389</ele>
        <time>2017-04-16T15:23:11.000Z</time>
      </trkpt>
      <trkpt lat="43.55873" lon="2.99036">
        <ele>389.2</ele>
        <time>2017-04-16T15:23:13.000Z</time>
      </trkpt>
      <trkpt lat="43.55869" lon="2.99037">
        <ele>389.6</ele>
        <time>2017-04-16T15:23:15.000Z</time>
      </trkpt>
      <trkpt lat="43.55865" lon="2.99038">
        <ele>389.8</ele>
        <time>2017-04-16T15:23:17.000Z</time>
      </trkpt>
      <trkpt lat="43.55862" lon="2.99038">
        <ele>390</ele>
        <time>2017-04-16T15:23:19.000Z</time>
      </trkpt>
      <trkpt lat="43.55853" lon="2.9904">
        <ele>390.6</ele>
        <time>2017-04-16T15:23:24.000Z</time>
      </trkpt>
      <trkpt lat="43.55851" lon="2.99041">
        <ele>390.8</ele>
        <time>2017-04-16T15:23:25.000Z</time>
      </trkpt>
      <trkpt lat="43.55849" lon="2.99043">
        <ele>391</ele>
        <time>2017-04-16T15:23:26.000Z</time>
      </trkpt>
      <trkpt lat="43.55848" lon="2.99046">
        <ele>391.4</ele>
        <time>2017-04-16T15:23:28.000Z</time>
      </trkpt>
      <trkpt lat="43.55849" lon="2.9905">
        <ele>391.6</ele>
        <time>2017-04-16T15:23:30.000Z</time>
      </trkpt>
      <trkpt lat="43.55851" lon="2.99053">
        <ele>391.8</ele>
        <time>2017-04-16T15:23:32.000Z</time>
      </trkpt>
      <trkpt lat="43.55857" lon="2.99051">
        <ele>392.2</ele>
        <time>2017-04-16T15:23:35.000Z</time>
      </trkpt>
      <trkpt lat="43.55862" lon="2.99045">
        <ele>392.6</ele>
        <time>2017-04-16T15:23:38.000Z</time>
      </trkpt>
      <trkpt lat="43.55866" lon="2.99042">
        <ele>393</ele>
        <time>2017-04-16T15:23:40.000Z</time>
      </trkpt>
      <trkpt lat="43.55868" lon="2.99042">
        <ele>393.2</ele>
        <time>2017-04-16T15:23:41.000Z</time>
      </trkpt>
      <trkpt lat="43.55869" lon="2.99042">
        <ele>393.4</ele>
        <time>2017-04-16T15:23:42.000Z</time>
      </trkpt>
      <trkpt lat="43.55873" lon="2.99042">
        <ele>393.8</ele>
        <time>2017-04-16T15:23:44.000Z</time>
      </trkpt>
      <trkpt lat="43.55875" lon="2.99043">
        <ele>393.8</ele>
        <time>2017-04-16T15:23:45.000Z</time>
      </trkpt>
      <trkpt lat="43.55877" lon="2.99042">
        <ele>394</ele>
        <time>2017-04-16T15:23:46.000Z</time>
      </trkpt>
      <trkpt lat="43.55879" lon="2.99044">
        <ele>394</ele>
        <time>2017-04-16T15:23:47.000Z</time>
      </trkpt>
      <trkpt lat="43.55887" lon="2.99052">
        <ele>394.6</ele>
        <time>2017-04-16T15:23:52.000Z</time>
      </trkpt>
      <trkpt lat="43.55888" lon="2.99054">
        <ele>395</ele>
        <time>2017-04-16T15:23:53.000Z</time>
      </trkpt>
      <trkpt lat="43.5589" lon="2.99057">
        <ele>395.2</ele>
        <time>2017-04-16T15:23:54.000Z</time>
      </trkpt>
      <trkpt lat="43.55893" lon="2.99063">
        <ele>395.6</ele>
        <time>2017-04-16T15:23:56.000Z</time>
      </trkpt>
      <trkpt lat="43.55895" lon="2.99068">
        <ele>395.8</ele>
        <time>2017-04-16T15:23:58.000Z</time>
      </trkpt>
      <trkpt lat="43.55898" lon="2.99073">
        <ele>396</ele>
        <time>2017-04-16T15:24:00.000Z</time>
      </trkpt>
      <trkpt lat="43.55906" lon="2.99085">
        <ele>396.6</ele>
        <time>2017-04-16T15:24:06.000Z</time>
      </trkpt>
      <trkpt lat="43.55917" lon="2.99106">
        <ele>396.8</ele>
        <time>2017-04-16T15:24:14.000Z</time>
      </trkpt>
      <trkpt lat="43.5592" lon="2.99114">
        <ele>397.2</ele>
        <time>2017-04-16T15:24:17.000Z</time>
      </trkpt>
      <trkpt lat="43.55922" lon="2.9912">
        <ele>397.6</ele>
        <time>2017-04-16T15:24:19.000Z</time>
      </trkpt>
      <trkpt lat="43.55923" lon="2.99126">
        <ele>397.8</ele>
        <time>2017-04-16T15:24:21.000Z</time>
      </trkpt>
      <trkpt lat="43.55924" lon="2.99131">
        <ele>398.2</ele>
        <time>2017-04-16T15:24:23.000Z</time>
      </trkpt>
      <trkpt lat="43.55925" lon="2.99137">
        <ele>398.4</ele>
        <time>2017-04-16T15:24:25.000Z</time>
      </trkpt>
      <trkpt lat="43.55928" lon="2.99161">
        <ele>399</ele>
        <time>2017-04-16T15:24:34.000Z</time>
      </trkpt>
      <trkpt lat="43.55931" lon="2.99175">
        <ele>399.2</ele>
        <time>2017-04-16T15:24:39.000Z</time>
      </trkpt>
      <trkpt lat="43.55932" lon="2.9918">
        <ele>399.6</ele>
        <time>2017-04-16T15:24:41.000Z</time>
      </trkpt>
      <trkpt lat="43.55933" lon="2.99185">
        <ele>400</ele>
        <time>2017-04-16T15:24:43.000Z</time>
      </trkpt>
      <trkpt lat="43.55934" lon="2.99191">
        <ele>400.2</ele>
        <time>2017-04-16T15:24:45.000Z</time>
      </trkpt>
      <trkpt lat="43.55933" lon="2.99198">
        <ele>400.4</ele>
        <time>2017-04-16T15:24:47.000Z</time>
      </trkpt>
      <trkpt lat="43.55933" lon="2.99201">
        <ele>400.6</ele>
        <time>2017-04-16T15:24:48.000Z</time>
      </trkpt>
      <trkpt lat="43.55935" lon="2.99216">
        <ele>400.8</ele>
        <time>2017-04-16T15:24:54.000Z</time>
      </trkpt>
      <trkpt lat="43.55941" lon="2.99232">
        <ele>401.2</ele>
        <time>2017-04-16T15:25:00.000Z</time>
      </trkpt>
      <trkpt lat="43.55943" lon="2.99237">
        <ele>401.6</ele>
        <time>2017-04-16T15:25:02.000Z</time>
      </trkpt>
      <trkpt lat="43.55945" lon="2.99242">
        <ele>402</ele>
        <time>2017-04-16T15:25:04.000Z</time>
      </trkpt>
      <trkpt lat="43.55947" lon="2.99247">
        <ele>402.2</ele>
        <time>2017-04-16T15:25:06.000Z</time>
      </trkpt>
      <trkpt lat="43.5595" lon="2.99252">
        <ele>402.4</ele>
        <time>2017-04-16T15:25:08.000Z</time>
      </trkpt>
      <trkpt lat="43.55955" lon="2.99262">
        <ele>403</ele>
        <time>2017-04-16T15:25:12.000Z</time>
      </trkpt>
      <trkpt lat="43.55958" lon="2.99266">
        <ele>403.4</ele>
        <time>2017-04-16T15:25:14.000Z</time>
      </trkpt>
      <trkpt lat="43.55961" lon="2.99271">
        <ele>403.8</ele>
        <time>2017-04-16T15:25:16.000Z</time>
      </trkpt>
      <trkpt lat="43.55964" lon="2.99275">
        <ele>404.2</ele>
        <time>2017-04-16T15:25:18.000Z</time>
      </trkpt>
      <trkpt lat="43.55967" lon="2.9928">
        <ele>404.4</ele>
        <time>2017-04-16T15:25:20.000Z</time>
      </trkpt>
      <trkpt lat="43.55977" lon="2.99292">
        <ele>404.8</ele>
        <time>2017-04-16T15:25:26.000Z</time>
      </trkpt>
      <trkpt lat="43.55979" lon="2.99294">
        <ele>405</ele>
        <time>2017-04-16T15:25:27.000Z</time>
      </trkpt>
      <trkpt lat="43.55986" lon="2.99302">
        <ele>405.2</ele>
        <time>2017-04-16T15:25:32.000Z</time>
      </trkpt>
      <trkpt lat="43.55991" lon="2.99312">
        <ele>405.2</ele>
        <time>2017-04-16T15:25:36.000Z</time>
      </trkpt>
      <trkpt lat="43.55995" lon="2.99318">
        <ele>405.8</ele>
        <time>2017-04-16T15:25:39.000Z</time>
      </trkpt>
      <trkpt lat="43.55998" lon="2.99323">
        <ele>406.2</ele>
        <time>2017-04-16T15:25:41.000Z</time>
      </trkpt>
      <trkpt lat="43.56001" lon="2.99327">
        <ele>406.4</ele>
        <time>2017-04-16T15:25:43.000Z</time>
      </trkpt>
      <trkpt lat="43.56003" lon="2.99331">
        <ele>406.6</ele>
        <time>2017-04-16T15:25:45.000Z</time>
      </trkpt>
      <trkpt lat="43.56012" lon="2.99345">
        <ele>407</ele>
        <time>2017-04-16T15:25:51.000Z</time>
      </trkpt>
      <trkpt lat="43.56016" lon="2.99352">
        <ele>407.4</ele>
        <time>2017-04-16T15:25:54.000Z</time>
      </trkpt>
      <trkpt lat="43.5602" lon="2.99356">
        <ele>407.8</ele>
        <time>2017-04-16T15:25:56.000Z</time>
      </trkpt>
      <trkpt lat="43.56023" lon="2.99359">
        <ele>408.2</ele>
        <time>2017-04-16T15:25:58.000Z</time>
      </trkpt>
      <trkpt lat="43.56026" lon="2.99363">
        <ele>408.6</ele>
        <time>2017-04-16T15:26:00.000Z</time>
      </trkpt>
      <trkpt lat="43.5603" lon="2.99367">
        <ele>408.8</ele>
        <time>2017-04-16T15:26:02.000Z</time>
      </trkpt>
      <trkpt lat="43.5604" lon="2.9938">
        <ele>409.6</ele>
        <time>2017-04-16T15:26:08.000Z</time>
      </trkpt>
      <trkpt lat="43.56043" lon="2.99385">
        <ele>410</ele>
        <time>2017-04-16T15:26:10.000Z</time>
      </trkpt>
      <trkpt lat="43.56045" lon="2.9939">
        <ele>410.4</ele>
        <time>2017-04-16T15:26:12.000Z</time>
      </trkpt>
      <trkpt lat="43.56047" lon="2.99395">
        <ele>410.6</ele>
        <time>2017-04-16T15:26:14.000Z</time>
      </trkpt>
      <trkpt lat="43.56049" lon="2.994">
        <ele>411</ele>
        <time>2017-04-16T15:26:16.000Z</time>
      </trkpt>
      <trkpt lat="43.56052" lon="2.99427">
        <ele>411.4</ele>
        <time>2017-04-16T15:26:24.000Z</time>
      </trkpt>
      <trkpt lat="43.56051" lon="2.99437">
        <ele>411.8</ele>
        <time>2017-04-16T15:26:27.000Z</time>
      </trkpt>
      <trkpt lat="43.56052" lon="2.99444">
        <ele>412.2</ele>
        <time>2017-04-16T15:26:29.000Z</time>
      </trkpt>
      <trkpt lat="43.5605" lon="2.9945">
        <ele>412.6</ele>
        <time>2017-04-16T15:26:31.000Z</time>
      </trkpt>
      <trkpt lat="43.5605" lon="2.99452">
        <ele>412.8</ele>
        <time>2017-04-16T15:26:32.000Z</time>
      </trkpt>
      <trkpt lat="43.56047" lon="2.99461">
        <ele>413</ele>
        <time>2017-04-16T15:26:35.000Z</time>
      </trkpt>
      <trkpt lat="43.56044" lon="2.99469">
        <ele>413.6</ele>
        <time>2017-04-16T15:26:38.000Z</time>
      </trkpt>
      <trkpt lat="43.56041" lon="2.99475">
        <ele>414</ele>
        <time>2017-04-16T15:26:40.000Z</time>
      </trkpt>
      <trkpt lat="43.56038" lon="2.99481">
        <ele>414.4</ele>
        <time>2017-04-16T15:26:42.000Z</time>
      </trkpt>
      <trkpt lat="43.56034" lon="2.99486">
        <ele>414.8</ele>
        <time>2017-04-16T15:26:44.000Z</time>
      </trkpt>
      <trkpt lat="43.56031" lon="2.99492">
        <ele>415</ele>
        <time>2017-04-16T15:26:46.000Z</time>
      </trkpt>
      <trkpt lat="43.56027" lon="2.99499">
        <ele>415.4</ele>
        <time>2017-04-16T15:26:49.000Z</time>
      </trkpt>
      <trkpt lat="43.56024" lon="2.99503">
        <ele>416</ele>
        <time>2017-04-16T15:26:51.000Z</time>
      </trkpt>
      <trkpt lat="43.56023" lon="2.99506">
        <ele>416.4</ele>
        <time>2017-04-16T15:26:53.000Z</time>
      </trkpt>
      <trkpt lat="43.56021" lon="2.9951">
        <ele>416.8</ele>
        <time>2017-04-16T15:26:55.000Z</time>
      </trkpt>
      <trkpt lat="43.56018" lon="2.99515">
        <ele>417</ele>
        <time>2017-04-16T15:26:57.000Z</time>
      </trkpt>
      <trkpt lat="43.56014" lon="2.99524">
        <ele>417.4</ele>
        <time>2017-04-16T15:27:01.000Z</time>
      </trkpt>
      <trkpt lat="43.56009" lon="2.9953">
        <ele>418</ele>
        <time>2017-04-16T15:27:05.000Z</time>
      </trkpt>
      <trkpt lat="43.56007" lon="2.99534">
        <ele>418.4</ele>
        <time>2017-04-16T15:27:07.000Z</time>
      </trkpt>
      <trkpt lat="43.56003" lon="2.99538">
        <ele>418.8</ele>
        <time>2017-04-16T15:27:09.000Z</time>
      </trkpt>
      <trkpt lat="43.55999" lon="2.99543">
        <ele>419</ele>
        <time>2017-04-16T15:27:11.000Z</time>
      </trkpt>
      <trkpt lat="43.55994" lon="2.99548">
        <ele>419.4</ele>
        <time>2017-04-16T15:27:13.000Z</time>
      </trkpt>
      <trkpt lat="43.55985" lon="2.99556">
        <ele>419.6</ele>
        <time>2017-04-16T15:27:17.000Z</time>
      </trkpt>
      <trkpt lat="43.55982" lon="2.99559">
        <ele>419.8</ele>
        <time>2017-04-16T15:27:19.000Z</time>
      </trkpt>
      <trkpt lat="43.55977" lon="2.99561">
        <ele>420.2</ele>
        <time>2017-04-16T15:27:22.000Z</time>
      </trkpt>
      <trkpt lat="43.55973" lon="2.99562">
        <ele>420.6</ele>
        <time>2017-04-16T15:27:24.000Z</time>
      </trkpt>
      <trkpt lat="43.55972" lon="2.99562">
        <ele>420.8</ele>
        <time>2017-04-16T15:27:25.000Z</time>
      </trkpt>
      <trkpt lat="43.55966" lon="2.99564">
        <ele>421.2</ele>
        <time>2017-04-16T15:27:28.000Z</time>
      </trkpt>
      <trkpt lat="43.55961" lon="2.99564">
        <ele>421.4</ele>
        <time>2017-04-16T15:27:30.000Z</time>
      </trkpt>
      <trkpt lat="43.55942" lon="2.99564">
        <ele>422</ele>
        <time>2017-04-16T15:27:37.000Z</time>
      </trkpt>
      <trkpt lat="43.55937" lon="2.99563">
        <ele>422.2</ele>
        <time>2017-04-16T15:27:39.000Z</time>
      </trkpt>
      <trkpt lat="43.55935" lon="2.99563">
        <ele>422.4</ele>
        <time>2017-04-16T15:27:40.000Z</time>
      </trkpt>
      <trkpt lat="43.55933" lon="2.99563">
        <ele>422.6</ele>
        <time>2017-04-16T15:27:41.000Z</time>
      </trkpt>
      <trkpt lat="43.55928" lon="2.99564">
        <ele>423</ele>
        <time>2017-04-16T15:27:43.000Z</time>
      </trkpt>
      <trkpt lat="43.55924" lon="2.99564">
        <ele>423.2</ele>
        <time>2017-04-16T15:27:45.000Z</time>
      </trkpt>
      <trkpt lat="43.55921" lon="2.99567">
        <ele>423.4</ele>
        <time>2017-04-16T15:27:47.000Z</time>
      </trkpt>
      <trkpt lat="43.55911" lon="2.99571">
        <ele>423.8</ele>
        <time>2017-04-16T15:27:52.000Z</time>
      </trkpt>
      <trkpt lat="43.55909" lon="2.99572">
        <ele>424.2</ele>
        <time>2017-04-16T15:27:53.000Z</time>
      </trkpt>
      <trkpt lat="43.55904" lon="2.99574">
        <ele>424.6</ele>
        <time>2017-04-16T15:27:55.000Z</time>
      </trkpt>
      <trkpt lat="43.55899" lon="2.99575">
        <ele>425</ele>
        <time>2017-04-16T15:27:57.000Z</time>
      </trkpt>
      <trkpt lat="43.55896" lon="2.99576">
        <ele>425.2</ele>
        <time>2017-04-16T15:27:59.000Z</time>
      </trkpt>
      <trkpt lat="43.55892" lon="2.99577">
        <ele>425.6</ele>
        <time>2017-04-16T15:28:01.000Z</time>
      </trkpt>
      <trkpt lat="43.55886" lon="2.99581">
        <ele>426</ele>
        <time>2017-04-16T15:28:05.000Z</time>
      </trkpt>
      <trkpt lat="43.55883" lon="2.99582">
        <ele>426.6</ele>
        <time>2017-04-16T15:28:07.000Z</time>
      </trkpt>
      <trkpt lat="43.5588" lon="2.99584">
        <ele>427</ele>
        <time>2017-04-16T15:28:09.000Z</time>
      </trkpt>
      <trkpt lat="43.55876" lon="2.99585">
        <ele>427.2</ele>
        <time>2017-04-16T15:28:11.000Z</time>
      </trkpt>
      <trkpt lat="43.55873" lon="2.99586">
        <ele>427.6</ele>
        <time>2017-04-16T15:28:13.000Z</time>
      </trkpt>
      <trkpt lat="43.55869" lon="2.99588">
        <ele>428</ele>
        <time>2017-04-16T15:28:17.000Z</time>
      </trkpt>
      <trkpt lat="43.55866" lon="2.99591">
        <ele>428.4</ele>
        <time>2017-04-16T15:28:20.000Z</time>
      </trkpt>
      <trkpt lat="43.55863" lon="2.99593">
        <ele>428.8</ele>
        <time>2017-04-16T15:28:22.000Z</time>
      </trkpt>
      <trkpt lat="43.55859" lon="2.99596">
        <ele>429.2</ele>
        <time>2017-04-16T15:28:24.000Z</time>
      </trkpt>
      <trkpt lat="43.55855" lon="2.99598">
        <ele>429.6</ele>
        <time>2017-04-16T15:28:26.000Z</time>
      </trkpt>
      <trkpt lat="43.5585" lon="2.99601">
        <ele>429.8</ele>
        <time>2017-04-16T15:28:28.000Z</time>
      </trkpt>
      <trkpt lat="43.55842" lon="2.99606">
        <ele>430.2</ele>
        <time>2017-04-16T15:28:31.000Z</time>
      </trkpt>
      <trkpt lat="43.55836" lon="2.9961">
        <ele>430.8</ele>
        <time>2017-04-16T15:28:33.000Z</time>
      </trkpt>
      <trkpt lat="43.55831" lon="2.99611">
        <ele>431.2</ele>
        <time>2017-04-16T15:28:35.000Z</time>
      </trkpt>
      <trkpt lat="43.55826" lon="2.99614">
        <ele>431.4</ele>
        <time>2017-04-16T15:28:37.000Z</time>
      </trkpt>
      <trkpt lat="43.55822" lon="2.99616">
        <ele>431.8</ele>
        <time>2017-04-16T15:28:39.000Z</time>
      </trkpt>
      <trkpt lat="43.55815" lon="2.99619">
        <ele>432.2</ele>
        <time>2017-04-16T15:28:43.000Z</time>
      </trkpt>
      <trkpt lat="43.55804" lon="2.99623">
        <ele>432.4</ele>
        <time>2017-04-16T15:28:48.000Z</time>
      </trkpt>
      <trkpt lat="43.55803" lon="2.99624">
        <ele>432.6</ele>
        <time>2017-04-16T15:28:49.000Z</time>
      </trkpt>
      <trkpt lat="43.55798" lon="2.99626">
        <ele>433.2</ele>
        <time>2017-04-16T15:28:51.000Z</time>
      </trkpt>
      <trkpt lat="43.55794" lon="2.99628">
        <ele>433.4</ele>
        <time>2017-04-16T15:28:53.000Z</time>
      </trkpt>
      <trkpt lat="43.55792" lon="2.9963">
        <ele>433.6</ele>
        <time>2017-04-16T15:28:54.000Z</time>
      </trkpt>
      <trkpt lat="43.55787" lon="2.99631">
        <ele>434</ele>
        <time>2017-04-16T15:28:57.000Z</time>
      </trkpt>
      <trkpt lat="43.55778" lon="2.99633">
        <ele>434.4</ele>
        <time>2017-04-16T15:29:02.000Z</time>
      </trkpt>
      <trkpt lat="43.55776" lon="2.99634">
        <ele>434.4</ele>
        <time>2017-04-16T15:29:03.000Z</time>
      </trkpt>
      <trkpt lat="43.55774" lon="2.99635">
        <ele>434.8</ele>
        <time>2017-04-16T15:29:04.000Z</time>
      </trkpt>
      <trkpt lat="43.55771" lon="2.99635">
        <ele>435</ele>
        <time>2017-04-16T15:29:05.000Z</time>
      </trkpt>
      <trkpt lat="43.55767" lon="2.99635">
        <ele>435.6</ele>
        <time>2017-04-16T15:29:08.000Z</time>
      </trkpt>
      <trkpt lat="43.55763" lon="2.99635">
        <ele>435.8</ele>
        <time>2017-04-16T15:29:10.000Z</time>
      </trkpt>
      <trkpt lat="43.55761" lon="2.99634">
        <ele>436.2</ele>
        <time>2017-04-16T15:29:12.000Z</time>
      </trkpt>
      <trkpt lat="43.5575" lon="2.99635">
        <ele>436.8</ele>
        <time>2017-04-16T15:29:17.000Z</time>
      </trkpt>
      <trkpt lat="43.55746" lon="2.99636">
        <ele>437.2</ele>
        <time>2017-04-16T15:29:19.000Z</time>
      </trkpt>
      <trkpt lat="43.55741" lon="2.99637">
        <ele>437.6</ele>
        <time>2017-04-16T15:29:21.000Z</time>
      </trkpt>
      <trkpt lat="43.55737" lon="2.99638">
        <ele>438</ele>
        <time>2017-04-16T15:29:23.000Z</time>
      </trkpt>
      <trkpt lat="43.55735" lon="2.99639">
        <ele>438</ele>
        <time>2017-04-16T15:29:24.000Z</time>
      </trkpt>
      <trkpt lat="43.5573" lon="2.99644">
        <ele>438.6</ele>
        <time>2017-04-16T15:29:28.000Z</time>
      </trkpt>
      <trkpt lat="43.55728" lon="2.99646">
        <ele>439</ele>
        <time>2017-04-16T15:29:29.000Z</time>
      </trkpt>
      <trkpt lat="43.55727" lon="2.99648">
        <ele>439.2</ele>
        <time>2017-04-16T15:29:30.000Z</time>
      </trkpt>
      <trkpt lat="43.55726" lon="2.99648">
        <ele>439.4</ele>
        <time>2017-04-16T15:29:31.000Z</time>
      </trkpt>
      <trkpt lat="43.55722" lon="2.99651">
        <ele>440</ele>
        <time>2017-04-16T15:29:34.000Z</time>
      </trkpt>
      <trkpt lat="43.55719" lon="2.99655">
        <ele>440.2</ele>
        <time>2017-04-16T15:29:36.000Z</time>
      </trkpt>
      <trkpt lat="43.5571" lon="2.99661">
        <ele>440.8</ele>
        <time>2017-04-16T15:29:41.000Z</time>
      </trkpt>
      <trkpt lat="43.55706" lon="2.99662">
        <ele>441.4</ele>
        <time>2017-04-16T15:29:43.000Z</time>
      </trkpt>
      <trkpt lat="43.55704" lon="2.99664">
        <ele>441.8</ele>
        <time>2017-04-16T15:29:45.000Z</time>
      </trkpt>
      <trkpt lat="43.55702" lon="2.99664">
        <ele>442.2</ele>
        <time>2017-04-16T15:29:47.000Z</time>
      </trkpt>
      <trkpt lat="43.557" lon="2.99665">
        <ele>442.4</ele>
        <time>2017-04-16T15:29:49.000Z</time>
      </trkpt>
      <trkpt lat="43.55694" lon="2.99673">
        <ele>442.8</ele>
        <time>2017-04-16T15:29:54.000Z</time>
      </trkpt>
      <trkpt lat="43.55687" lon="2.99681">
        <ele>443.4</ele>
        <time>2017-04-16T15:30:00.000Z</time>
      </trkpt>
      <trkpt lat="43.55684" lon="2.99684">
        <ele>443.8</ele>
        <time>2017-04-16T15:30:02.000Z</time>
      </trkpt>
      <trkpt lat="43.55681" lon="2.99687">
        <ele>444.2</ele>
        <time>2017-04-16T15:30:04.000Z</time>
      </trkpt>
      <trkpt lat="43.55677" lon="2.99689">
        <ele>444.4</ele>
        <time>2017-04-16T15:30:06.000Z</time>
      </trkpt>
      <trkpt lat="43.55672" lon="2.99692">
        <ele>444.6</ele>
        <time>2017-04-16T15:30:08.000Z</time>
      </trkpt>
      <trkpt lat="43.55655" lon="2.99703">
        <ele>445.2</ele>
        <time>2017-04-16T15:30:15.000Z</time>
      </trkpt>
      <trkpt lat="43.55642" lon="2.99716">
        <ele>445.6</ele>
        <time>2017-04-16T15:30:22.000Z</time>
      </trkpt>
      <trkpt lat="43.55638" lon="2.99719">
        <ele>446</ele>
        <time>2017-04-16T15:30:24.000Z</time>
      </trkpt>
      <trkpt lat="43.55634" lon="2.99723">
        <ele>446.4</ele>
        <time>2017-04-16T15:30:26.000Z</time>
      </trkpt>
      <trkpt lat="43.5563" lon="2.99725">
        <ele>446.6</ele>
        <time>2017-04-16T15:30:28.000Z</time>
      </trkpt>
      <trkpt lat="43.55626" lon="2.99729">
        <ele>446.8</ele>
        <time>2017-04-16T15:30:30.000Z</time>
      </trkpt>
      <trkpt lat="43.55615" lon="2.99737">
        <ele>447.2</ele>
        <time>2017-04-16T15:30:36.000Z</time>
      </trkpt>
      <trkpt lat="43.55611" lon="2.9974">
        <ele>447.6</ele>
        <time>2017-04-16T15:30:38.000Z</time>
      </trkpt>
      <trkpt lat="43.55608" lon="2.99743">
        <ele>448</ele>
        <time>2017-04-16T15:30:40.000Z</time>
      </trkpt>
      <trkpt lat="43.55604" lon="2.99748">
        <ele>448.4</ele>
        <time>2017-04-16T15:30:42.000Z</time>
      </trkpt>
      <trkpt lat="43.55601" lon="2.99753">
        <ele>448.6</ele>
        <time>2017-04-16T15:30:44.000Z</time>
      </trkpt>
      <trkpt lat="43.55598" lon="2.99758">
        <ele>448.8</ele>
        <time>2017-04-16T15:30:46.000Z</time>
      </trkpt>
      <trkpt lat="43.55593" lon="2.99768">
        <ele>449.2</ele>
        <time>2017-04-16T15:30:50.000Z</time>
      </trkpt>
      <trkpt lat="43.55589" lon="2.99778">
        <ele>449.4</ele>
        <time>2017-04-16T15:30:55.000Z</time>
      </trkpt>
      <trkpt lat="43.55587" lon="2.99783">
        <ele>449.8</ele>
        <time>2017-04-16T15:30:58.000Z</time>
      </trkpt>
      <trkpt lat="43.55585" lon="2.99788">
        <ele>450.2</ele>
        <time>2017-04-16T15:31:00.000Z</time>
      </trkpt>
      <trkpt lat="43.55582" lon="2.99794">
        <ele>450.6</ele>
        <time>2017-04-16T15:31:02.000Z</time>
      </trkpt>
      <trkpt lat="43.55579" lon="2.99799">
        <ele>450.8</ele>
        <time>2017-04-16T15:31:04.000Z</time>
      </trkpt>
      <trkpt lat="43.55575" lon="2.99806">
        <ele>451</ele>
        <time>2017-04-16T15:31:06.000Z</time>
      </trkpt>
      <trkpt lat="43.55562" lon="2.9982">
        <ele>451.4</ele>
        <time>2017-04-16T15:31:11.000Z</time>
      </trkpt>
      <trkpt lat="43.55557" lon="2.99825">
        <ele>451.8</ele>
        <time>2017-04-16T15:31:13.000Z</time>
      </trkpt>
      <trkpt lat="43.55553" lon="2.9983">
        <ele>452.2</ele>
        <time>2017-04-16T15:31:15.000Z</time>
      </trkpt>
      <trkpt lat="43.55548" lon="2.99834">
        <ele>452.6</ele>
        <time>2017-04-16T15:31:17.000Z</time>
      </trkpt>
      <trkpt lat="43.55544" lon="2.99838">
        <ele>452.8</ele>
        <time>2017-04-16T15:31:19.000Z</time>
      </trkpt>
      <trkpt lat="43.55541" lon="2.99841">
        <ele>453</ele>
        <time>2017-04-16T15:31:21.000Z</time>
      </trkpt>
      <trkpt lat="43.55537" lon="2.99845">
        <ele>453.4</ele>
        <time>2017-04-16T15:31:24.000Z</time>
      </trkpt>
      <trkpt lat="43.5553" lon="2.99856">
        <ele>453.6</ele>
        <time>2017-04-16T15:31:29.000Z</time>
      </trkpt>
      <trkpt lat="43.55521" lon="2.99875">
        <ele>454</ele>
        <time>2017-04-16T15:31:35.000Z</time>
      </trkpt>
      <trkpt lat="43.55518" lon="2.9988">
        <ele>454.4</ele>
        <time>2017-04-16T15:31:37.000Z</time>
      </trkpt>
      <trkpt lat="43.55517" lon="2.99885">
        <ele>454.8</ele>
        <time>2017-04-16T15:31:39.000Z</time>
      </trkpt>
      <trkpt lat="43.55514" lon="2.99891">
        <ele>455</ele>
        <time>2017-04-16T15:31:41.000Z</time>
      </trkpt>
      <trkpt lat="43.55513" lon="2.99898">
        <ele>455.2</ele>
        <time>2017-04-16T15:31:43.000Z</time>
      </trkpt>
      <trkpt lat="43.5551" lon="2.9991">
        <ele>455.8</ele>
        <time>2017-04-16T15:31:47.000Z</time>
      </trkpt>
      <trkpt lat="43.55509" lon="2.99916">
        <ele>456.2</ele>
        <time>2017-04-16T15:31:49.000Z</time>
      </trkpt>
      <trkpt lat="43.55507" lon="2.99922">
        <ele>456.6</ele>
        <time>2017-04-16T15:31:51.000Z</time>
      </trkpt>
      <trkpt lat="43.55506" lon="2.99928">
        <ele>457</ele>
        <time>2017-04-16T15:31:53.000Z</time>
      </trkpt>
      <trkpt lat="43.55506" lon="2.99934">
        <ele>457.2</ele>
        <time>2017-04-16T15:31:55.000Z</time>
      </trkpt>
      <trkpt lat="43.55503" lon="2.99945">
        <ele>457.6</ele>
        <time>2017-04-16T15:31:59.000Z</time>
      </trkpt>
      <trkpt lat="43.55502" lon="2.99947">
        <ele>458</ele>
        <time>2017-04-16T15:32:01.000Z</time>
      </trkpt>
      <trkpt lat="43.55501" lon="2.99949">
        <ele>458.4</ele>
        <time>2017-04-16T15:32:03.000Z</time>
      </trkpt>
      <trkpt lat="43.555" lon="2.99951">
        <ele>459.4</ele>
        <time>2017-04-16T15:32:09.000Z</time>
      </trkpt>
      <trkpt lat="43.55498" lon="2.99951">
        <ele>459.4</ele>
        <time>2017-04-16T15:32:10.000Z</time>
      </trkpt>
      <trkpt lat="43.55497" lon="2.9995">
        <ele>459.6</ele>
        <time>2017-04-16T15:32:11.000Z</time>
      </trkpt>
      <trkpt lat="43.55491" lon="2.99949">
        <ele>459.8</ele>
        <time>2017-04-16T15:32:13.000Z</time>
      </trkpt>
      <trkpt lat="43.55485" lon="2.99948">
        <ele>459.8</ele>
        <time>2017-04-16T15:32:15.000Z</time>
      </trkpt>
      <trkpt lat="43.55482" lon="2.99947">
        <ele>459.8</ele>
        <time>2017-04-16T15:32:16.000Z</time>
      </trkpt>
      <trkpt lat="43.55476" lon="2.99946">
        <ele>459.4</ele>
        <time>2017-04-16T15:32:18.000Z</time>
      </trkpt>
      <trkpt lat="43.55469" lon="2.99945">
        <ele>459.2</ele>
        <time>2017-04-16T15:32:20.000Z</time>
      </trkpt>
      <trkpt lat="43.55463" lon="2.99944">
        <ele>459.2</ele>
        <time>2017-04-16T15:32:22.000Z</time>
      </trkpt>
      <trkpt lat="43.5546" lon="2.99943">
        <ele>459</ele>
        <time>2017-04-16T15:32:23.000Z</time>
      </trkpt>
      <trkpt lat="43.55454" lon="2.99945">
        <ele>458.8</ele>
        <time>2017-04-16T15:32:27.000Z</time>
      </trkpt>
      <trkpt lat="43.55454" lon="2.99951">
        <ele>458.6</ele>
        <time>2017-04-16T15:32:34.000Z</time>
      </trkpt>
      <trkpt lat="43.55454" lon="2.99951">
        <ele>458.6</ele>
        <time>2017-04-16T15:32:35.000Z</time>
      </trkpt>
      <trkpt lat="43.55453" lon="2.99952">
        <ele>458.6</ele>
        <time>2017-04-16T15:32:37.000Z</time>
      </trkpt>
      <trkpt lat="43.55453" lon="2.99953">
        <ele>458.8</ele>
        <time>2017-04-16T15:32:38.000Z</time>
      </trkpt>
      <trkpt lat="43.55452" lon="2.99954">
        <ele>459</ele>
        <time>2017-04-16T15:32:40.000Z</time>
      </trkpt>
      <trkpt lat="43.55452" lon="2.99954">
        <ele>459.2</ele>
        <time>2017-04-16T15:32:41.000Z</time>
      </trkpt>
      <trkpt lat="43.55453" lon="2.9995">
        <ele>460.4</ele>
        <time>2017-04-16T15:36:28.000Z</time>
      </trkpt>
      <trkpt lat="43.55452" lon="2.99949">
        <ele>460.4</ele>
        <time>2017-04-16T15:36:29.000Z</time>
      </trkpt>
      <trkpt lat="43.55449" lon="2.99949">
        <ele>460.4</ele>
        <time>2017-04-16T15:36:30.000Z</time>
      </trkpt>
      <trkpt lat="43.55447" lon="2.99948">
        <ele>460.4</ele>
        <time>2017-04-16T15:36:31.000Z</time>
      </trkpt>
      <trkpt lat="43.55441" lon="2.99947">
        <ele>460.2</ele>
        <time>2017-04-16T15:36:33.000Z</time>
      </trkpt>
      <trkpt lat="43.55436" lon="2.99944">
        <ele>460</ele>
        <time>2017-04-16T15:36:34.000Z</time>
      </trkpt>
      <trkpt lat="43.55431" lon="2.99941">
        <ele>459.8</ele>
        <time>2017-04-16T15:36:35.000Z</time>
      </trkpt>
      <trkpt lat="43.5542" lon="2.99941">
        <ele>459.6</ele>
        <time>2017-04-16T15:36:37.000Z</time>
      </trkpt>
      <trkpt lat="43.55412" lon="2.99941">
        <ele>459.4</ele>
        <time>2017-04-16T15:36:39.000Z</time>
      </trkpt>
      <trkpt lat="43.55402" lon="2.99941">
        <ele>459.2</ele>
        <time>2017-04-16T15:36:41.000Z</time>
      </trkpt>
      <trkpt lat="43.55394" lon="2.99939">
        <ele>459</ele>
        <time>2017-04-16T15:36:43.000Z</time>
      </trkpt>
      <trkpt lat="43.55387" lon="2.99939">
        <ele>458.6</ele>
        <time>2017-04-16T15:36:45.000Z</time>
      </trkpt>
      <trkpt lat="43.55378" lon="2.99937">
        <ele>458.2</ele>
        <time>2017-04-16T15:36:47.000Z</time>
      </trkpt>
      <trkpt lat="43.55372" lon="2.99932">
        <ele>457.8</ele>
        <time>2017-04-16T15:36:49.000Z</time>
      </trkpt>
      <trkpt lat="43.55363" lon="2.99927">
        <ele>457.4</ele>
        <time>2017-04-16T15:36:51.000Z</time>
      </trkpt>
      <trkpt lat="43.55354" lon="2.99921">
        <ele>457.2</ele>
        <time>2017-04-16T15:36:53.000Z</time>
      </trkpt>
      <trkpt lat="43.55338" lon="2.99913">
        <ele>456.8</ele>
        <time>2017-04-16T15:36:56.000Z</time>
      </trkpt>
      <trkpt lat="43.55329" lon="2.99908">
        <ele>456.6</ele>
        <time>2017-04-16T15:36:58.000Z</time>
      </trkpt>
      <trkpt lat="43.55324" lon="2.99905">
        <ele>456.2</ele>
        <time>2017-04-16T15:36:59.000Z</time>
      </trkpt>
      <trkpt lat="43.55317" lon="2.99897">
        <ele>455.8</ele>
        <time>2017-04-16T15:37:01.000Z</time>
      </trkpt>
      <trkpt lat="43.55309" lon="2.99888">
        <ele>455.4</ele>
        <time>2017-04-16T15:37:04.000Z</time>
      </trkpt>
      <trkpt lat="43.55303" lon="2.99878">
        <ele>455.2</ele>
        <time>2017-04-16T15:37:06.000Z</time>
      </trkpt>
      <trkpt lat="43.553" lon="2.99873">
        <ele>455</ele>
        <time>2017-04-16T15:37:07.000Z</time>
      </trkpt>
      <trkpt lat="43.55297" lon="2.99868">
        <ele>455</ele>
        <time>2017-04-16T15:37:08.000Z</time>
      </trkpt>
      <trkpt lat="43.55286" lon="2.99853">
        <ele>454.6</ele>
        <time>2017-04-16T15:37:11.000Z</time>
      </trkpt>
      <trkpt lat="43.55274" lon="2.99829">
        <ele>454.4</ele>
        <time>2017-04-16T15:37:15.000Z</time>
      </trkpt>
      <trkpt lat="43.55271" lon="2.99825">
        <ele>454.2</ele>
        <time>2017-04-16T15:37:16.000Z</time>
      </trkpt>
      <trkpt lat="43.5527" lon="2.9982">
        <ele>454</ele>
        <time>2017-04-16T15:37:17.000Z</time>
      </trkpt>
      <trkpt lat="43.55266" lon="2.99809">
        <ele>453.2</ele>
        <time>2017-04-16T15:37:19.000Z</time>
      </trkpt>
      <trkpt lat="43.55265" lon="2.998">
        <ele>452.4</ele>
        <time>2017-04-16T15:37:21.000Z</time>
      </trkpt>
      <trkpt lat="43.55262" lon="2.99792">
        <ele>451.2</ele>
        <time>2017-04-16T15:37:23.000Z</time>
      </trkpt>
      <trkpt lat="43.55259" lon="2.99785">
        <ele>450</ele>
        <time>2017-04-16T15:37:25.000Z</time>
      </trkpt>
      <trkpt lat="43.55258" lon="2.99781">
        <ele>449.2</ele>
        <time>2017-04-16T15:37:26.000Z</time>
      </trkpt>
      <trkpt lat="43.55255" lon="2.99774">
        <ele>448</ele>
        <time>2017-04-16T15:37:28.000Z</time>
      </trkpt>
      <trkpt lat="43.55254" lon="2.99766">
        <ele>447</ele>
        <time>2017-04-16T15:37:30.000Z</time>
      </trkpt>
      <trkpt lat="43.55253" lon="2.99763">
        <ele>446.6</ele>
        <time>2017-04-16T15:37:31.000Z</time>
      </trkpt>
      <trkpt lat="43.55252" lon="2.99761">
        <ele>446.2</ele>
        <time>2017-04-16T15:37:32.000Z</time>
      </trkpt>
      <trkpt lat="43.55251" lon="2.99756">
        <ele>445.4</ele>
        <time>2017-04-16T15:37:34.000Z</time>
      </trkpt>
      <trkpt lat="43.5525" lon="2.99754">
        <ele>445.2</ele>
        <time>2017-04-16T15:37:35.000Z</time>
      </trkpt>
      <trkpt lat="43.55245" lon="2.99748">
        <ele>444.4</ele>
        <time>2017-04-16T15:37:38.000Z</time>
      </trkpt>
      <trkpt lat="43.55237" lon="2.99738">
        <ele>443.6</ele>
        <time>2017-04-16T15:37:43.000Z</time>
      </trkpt>
      <trkpt lat="43.55226" lon="2.99726">
        <ele>443.4</ele>
        <time>2017-04-16T15:37:47.000Z</time>
      </trkpt>
      <trkpt lat="43.55219" lon="2.99716">
        <ele>443.2</ele>
        <time>2017-04-16T15:37:50.000Z</time>
      </trkpt>
      <trkpt lat="43.55217" lon="2.99705">
        <ele>443</ele>
        <time>2017-04-16T15:37:52.000Z</time>
      </trkpt>
      <trkpt lat="43.55213" lon="2.99692">
        <ele>442.6</ele>
        <time>2017-04-16T15:37:54.000Z</time>
      </trkpt>
      <trkpt lat="43.5521" lon="2.99676">
        <ele>442.2</ele>
        <time>2017-04-16T15:37:56.000Z</time>
      </trkpt>
      <trkpt lat="43.55207" lon="2.99656">
        <ele>441.8</ele>
        <time>2017-04-16T15:37:57.000Z</time>
      </trkpt>
      <trkpt lat="43.55212" lon="2.99644">
        <ele>441.4</ele>
        <time>2017-04-16T15:37:58.000Z</time>
      </trkpt>
      <trkpt lat="43.5521" lon="2.99638">
        <ele>440.8</ele>
        <time>2017-04-16T15:37:59.000Z</time>
      </trkpt>
      <trkpt lat="43.55203" lon="2.9963">
        <ele>439.6</ele>
        <time>2017-04-16T15:38:01.000Z</time>
      </trkpt>
      <trkpt lat="43.552" lon="2.99625">
        <ele>439</ele>
        <time>2017-04-16T15:38:02.000Z</time>
      </trkpt>
      <trkpt lat="43.55203" lon="2.99624">
        <ele>438.4</ele>
        <time>2017-04-16T15:38:03.000Z</time>
      </trkpt>
      <trkpt lat="43.55204" lon="2.9962">
        <ele>437.6</ele>
        <time>2017-04-16T15:38:04.000Z</time>
      </trkpt>
      <trkpt lat="43.55206" lon="2.99611">
        <ele>436.2</ele>
        <time>2017-04-16T15:38:06.000Z</time>
      </trkpt>
      <trkpt lat="43.55206" lon="2.99602">
        <ele>434.8</ele>
        <time>2017-04-16T15:38:08.000Z</time>
      </trkpt>
      <trkpt lat="43.55205" lon="2.99597">
        <ele>433.8</ele>
        <time>2017-04-16T15:38:09.000Z</time>
      </trkpt>
      <trkpt lat="43.55206" lon="2.99591">
        <ele>433.2</ele>
        <time>2017-04-16T15:38:10.000Z</time>
      </trkpt>
      <trkpt lat="43.55205" lon="2.99588">
        <ele>432.4</ele>
        <time>2017-04-16T15:38:11.000Z</time>
      </trkpt>
      <trkpt lat="43.55202" lon="2.99584">
        <ele>431.8</ele>
        <time>2017-04-16T15:38:12.000Z</time>
      </trkpt>
      <trkpt lat="43.55201" lon="2.99579">
        <ele>431.2</ele>
        <time>2017-04-16T15:38:13.000Z</time>
      </trkpt>
      <trkpt lat="43.55199" lon="2.99568">
        <ele>430.2</ele>
        <time>2017-04-16T15:38:15.000Z</time>
      </trkpt>
      <trkpt lat="43.55195" lon="2.99562">
        <ele>429.8</ele>
        <time>2017-04-16T15:38:16.000Z</time>
      </trkpt>
      <trkpt lat="43.55192" lon="2.99557">
        <ele>429.2</ele>
        <time>2017-04-16T15:38:17.000Z</time>
      </trkpt>
      <trkpt lat="43.5519" lon="2.99549">
        <ele>428.2</ele>
        <time>2017-04-16T15:38:19.000Z</time>
      </trkpt>
      <trkpt lat="43.55185" lon="2.99542">
        <ele>427.4</ele>
        <time>2017-04-16T15:38:21.000Z</time>
      </trkpt>
      <trkpt lat="43.55181" lon="2.9955">
        <ele>426.8</ele>
        <time>2017-04-16T15:38:23.000Z</time>
      </trkpt>
      <trkpt lat="43.55181" lon="2.99548">
        <ele>426.6</ele>
        <time>2017-04-16T15:38:24.000Z</time>
      </trkpt>
      <trkpt lat="43.55178" lon="2.99552">
        <ele>426</ele>
        <time>2017-04-16T15:38:25.000Z</time>
      </trkpt>
      <trkpt lat="43.55172" lon="2.99556">
        <ele>425.2</ele>
        <time>2017-04-16T15:38:27.000Z</time>
      </trkpt>
      <trkpt lat="43.55169" lon="2.99562">
        <ele>424.6</ele>
        <time>2017-04-16T15:38:28.000Z</time>
      </trkpt>
      <trkpt lat="43.55165" lon="2.99573">
        <ele>423.2</ele>
        <time>2017-04-16T15:38:30.000Z</time>
      </trkpt>
      <trkpt lat="43.55163" lon="2.99575">
        <ele>422.6</ele>
        <time>2017-04-16T15:38:31.000Z</time>
      </trkpt>
      <trkpt lat="43.55163" lon="2.9958">
        <ele>422</ele>
        <time>2017-04-16T15:38:32.000Z</time>
      </trkpt>
      <trkpt lat="43.5516" lon="2.9958">
        <ele>421.2</ele>
        <time>2017-04-16T15:38:33.000Z</time>
      </trkpt>
      <trkpt lat="43.55156" lon="2.99577">
        <ele>419.8</ele>
        <time>2017-04-16T15:38:35.000Z</time>
      </trkpt>
      <trkpt lat="43.55154" lon="2.99574">
        <ele>419</ele>
        <time>2017-04-16T15:38:36.000Z</time>
      </trkpt>
      <trkpt lat="43.55152" lon="2.99571">
        <ele>418.4</ele>
        <time>2017-04-16T15:38:37.000Z</time>
      </trkpt>
      <trkpt lat="43.5515" lon="2.99568">
        <ele>417.4</ele>
        <time>2017-04-16T15:38:38.000Z</time>
      </trkpt>
      <trkpt lat="43.55143" lon="2.99559">
        <ele>415.6</ele>
        <time>2017-04-16T15:38:40.000Z</time>
      </trkpt>
      <trkpt lat="43.5514" lon="2.99555">
        <ele>414.6</ele>
        <time>2017-04-16T15:38:41.000Z</time>
      </trkpt>
      <trkpt lat="43.55135" lon="2.99547">
        <ele>411.2</ele>
        <time>2017-04-16T15:38:44.000Z</time>
      </trkpt>
      <trkpt lat="43.55131" lon="2.99539">
        <ele>408.8</ele>
        <time>2017-04-16T15:38:46.000Z</time>
      </trkpt>
      <trkpt lat="43.55126" lon="2.99533">
        <ele>406.4</ele>
        <time>2017-04-16T15:38:48.000Z</time>
      </trkpt>
      <trkpt lat="43.55121" lon="2.99521">
        <ele>403.8</ele>
        <time>2017-04-16T15:38:50.000Z</time>
      </trkpt>
      <trkpt lat="43.55119" lon="2.99515">
        <ele>402.6</ele>
        <time>2017-04-16T15:38:51.000Z</time>
      </trkpt>
      <trkpt lat="43.55117" lon="2.99509">
        <ele>401.2</ele>
        <time>2017-04-16T15:38:52.000Z</time>
      </trkpt>
      <trkpt lat="43.55116" lon="2.99503">
        <ele>400</ele>
        <time>2017-04-16T15:38:53.000Z</time>
      </trkpt>
      <trkpt lat="43.55108" lon="2.9949">
        <ele>397.6</ele>
        <time>2017-04-16T15:38:55.000Z</time>
      </trkpt>
      <trkpt lat="43.55099" lon="2.99478">
        <ele>395.6</ele>
        <time>2017-04-16T15:38:57.000Z</time>
      </trkpt>
      <trkpt lat="43.55087" lon="2.99472">
        <ele>394.6</ele>
        <time>2017-04-16T15:38:58.000Z</time>
      </trkpt>
      <trkpt lat="43.55082" lon="2.99474">
        <ele>393.6</ele>
        <time>2017-04-16T15:38:59.000Z</time>
      </trkpt>
      <trkpt lat="43.55082" lon="2.99479">
        <ele>391.6</ele>
        <time>2017-04-16T15:39:01.000Z</time>
      </trkpt>
      <trkpt lat="43.55083" lon="2.99483">
        <ele>390.6</ele>
        <time>2017-04-16T15:39:02.000Z</time>
      </trkpt>
      <trkpt lat="43.55081" lon="2.99487">
        <ele>388.6</ele>
        <time>2017-04-16T15:39:04.000Z</time>
      </trkpt>
      <trkpt lat="43.5508" lon="2.99491">
        <ele>386.4</ele>
        <time>2017-04-16T15:39:06.000Z</time>
      </trkpt>
      <trkpt lat="43.55078" lon="2.99491">
        <ele>384</ele>
        <time>2017-04-16T15:39:08.000Z</time>
      </trkpt>
      <trkpt lat="43.55076" lon="2.99493">
        <ele>383</ele>
        <time>2017-04-16T15:39:09.000Z</time>
      </trkpt>
      <trkpt lat="43.55085" lon="2.99513">
        <ele>379.4</ele>
        <time>2017-04-16T15:39:12.000Z</time>
      </trkpt>
      <trkpt lat="43.55089" lon="2.99523">
        <ele>377</ele>
        <time>2017-04-16T15:39:14.000Z</time>
      </trkpt>
      <trkpt lat="43.5509" lon="2.99532">
        <ele>376</ele>
        <time>2017-04-16T15:39:15.000Z</time>
      </trkpt>
      <trkpt lat="43.55085" lon="2.99541">
        <ele>374.6</ele>
        <time>2017-04-16T15:39:16.000Z</time>
      </trkpt>
      <trkpt lat="43.55077" lon="2.99556">
        <ele>372.2</ele>
        <time>2017-04-16T15:39:18.000Z</time>
      </trkpt>
      <trkpt lat="43.55074" lon="2.99561">
        <ele>370.8</ele>
        <time>2017-04-16T15:39:19.000Z</time>
      </trkpt>
      <trkpt lat="43.55074" lon="2.99559">
        <ele>366.8</ele>
        <time>2017-04-16T15:39:22.000Z</time>
      </trkpt>
      <trkpt lat="43.5507" lon="2.99551">
        <ele>364.2</ele>
        <time>2017-04-16T15:39:24.000Z</time>
      </trkpt>
      <trkpt lat="43.55067" lon="2.99549">
        <ele>363</ele>
        <time>2017-04-16T15:39:25.000Z</time>
      </trkpt>
      <trkpt lat="43.55063" lon="2.99543">
        <ele>361.6</ele>
        <time>2017-04-16T15:39:26.000Z</time>
      </trkpt>
      <trkpt lat="43.5506" lon="2.99534">
        <ele>359.2</ele>
        <time>2017-04-16T15:39:28.000Z</time>
      </trkpt>
      <trkpt lat="43.55059" lon="2.99531">
        <ele>358</ele>
        <time>2017-04-16T15:39:29.000Z</time>
      </trkpt>
      <trkpt lat="43.55054" lon="2.99529">
        <ele>355.8</ele>
        <time>2017-04-16T15:39:31.000Z</time>
      </trkpt>
      <trkpt lat="43.55053" lon="2.99534">
        <ele>352.8</ele>
        <time>2017-04-16T15:39:34.000Z</time>
      </trkpt>
      <trkpt lat="43.55053" lon="2.99534">
        <ele>351.8</ele>
        <time>2017-04-16T15:39:35.000Z</time>
      </trkpt>
      <trkpt lat="43.55053" lon="2.99533">
        <ele>350.8</ele>
        <time>2017-04-16T15:39:36.000Z</time>
      </trkpt>
      <trkpt lat="43.55052" lon="2.99533">
        <ele>349</ele>
        <time>2017-04-16T15:39:38.000Z</time>
      </trkpt>
      <trkpt lat="43.55049" lon="2.99534">
        <ele>347.2</ele>
        <time>2017-04-16T15:39:40.000Z</time>
      </trkpt>
      <trkpt lat="43.55043" lon="2.99541">
        <ele>345.4</ele>
        <time>2017-04-16T15:39:42.000Z</time>
      </trkpt>
      <trkpt lat="43.55035" lon="2.99545">
        <ele>343.6</ele>
        <time>2017-04-16T15:39:44.000Z</time>
      </trkpt>
      <trkpt lat="43.5503" lon="2.99545">
        <ele>342.6</ele>
        <time>2017-04-16T15:39:45.000Z</time>
      </trkpt>
      <trkpt lat="43.5502" lon="2.99549">
        <ele>339.2</ele>
        <time>2017-04-16T15:39:48.000Z</time>
      </trkpt>
      <trkpt lat="43.55017" lon="2.99549">
        <ele>338.2</ele>
        <time>2017-04-16T15:39:49.000Z</time>
      </trkpt>
      <trkpt lat="43.55016" lon="2.99552">
        <ele>335.8</ele>
        <time>2017-04-16T15:39:51.000Z</time>
      </trkpt>
      <trkpt lat="43.5501" lon="2.99551">
        <ele>332.2</ele>
        <time>2017-04-16T15:39:54.000Z</time>
      </trkpt>
      <trkpt lat="43.55008" lon="2.9955">
        <ele>331.2</ele>
        <time>2017-04-16T15:39:55.000Z</time>
      </trkpt>
      <trkpt lat="43.54997" lon="2.99551">
        <ele>327.6</ele>
        <time>2017-04-16T15:39:58.000Z</time>
      </trkpt>
      <trkpt lat="43.54994" lon="2.99549">
        <ele>326.4</ele>
        <time>2017-04-16T15:39:59.000Z</time>
      </trkpt>
      <trkpt lat="43.54992" lon="2.99547">
        <ele>325.2</ele>
        <time>2017-04-16T15:40:00.000Z</time>
      </trkpt>
      <trkpt lat="43.54988" lon="2.99549">
        <ele>324</ele>
        <time>2017-04-16T15:40:01.000Z</time>
      </trkpt>
      <trkpt lat="43.5498" lon="2.9955">
        <ele>322.6</ele>
        <time>2017-04-16T15:40:02.000Z</time>
      </trkpt>
      <trkpt lat="43.54972" lon="2.9955">
        <ele>321.2</ele>
        <time>2017-04-16T15:40:03.000Z</time>
      </trkpt>
      <trkpt lat="43.54966" lon="2.99529">
        <ele>317.6</ele>
        <time>2017-04-16T15:40:06.000Z</time>
      </trkpt>
      <trkpt lat="43.54957" lon="2.99515">
        <ele>315.4</ele>
        <time>2017-04-16T15:40:08.000Z</time>
      </trkpt>
      <trkpt lat="43.54952" lon="2.9951">
        <ele>314.4</ele>
        <time>2017-04-16T15:40:09.000Z</time>
      </trkpt>
      <trkpt lat="43.54949" lon="2.99508">
        <ele>313</ele>
        <time>2017-04-16T15:40:10.000Z</time>
      </trkpt>
      <trkpt lat="43.54948" lon="2.99511">
        <ele>310.6</ele>
        <time>2017-04-16T15:40:12.000Z</time>
      </trkpt>
      <trkpt lat="43.54948" lon="2.99515">
        <ele>308.4</ele>
        <time>2017-04-16T15:40:14.000Z</time>
      </trkpt>
      <trkpt lat="43.54949" lon="2.99517">
        <ele>307.2</ele>
        <time>2017-04-16T15:40:15.000Z</time>
      </trkpt>
      <trkpt lat="43.54948" lon="2.99516">
        <ele>306</ele>
        <time>2017-04-16T15:40:16.000Z</time>
      </trkpt>
      <trkpt lat="43.54946" lon="2.99516">
        <ele>304.8</ele>
        <time>2017-04-16T15:40:17.000Z</time>
      </trkpt>
      <trkpt lat="43.54942" lon="2.99511">
        <ele>303.8</ele>
        <time>2017-04-16T15:40:18.000Z</time>
      </trkpt>
      <trkpt lat="43.5494" lon="2.99507">
        <ele>302.6</ele>
        <time>2017-04-16T15:40:19.000Z</time>
      </trkpt>
      <trkpt lat="43.54938" lon="2.99504">
        <ele>301.4</ele>
        <time>2017-04-16T15:40:20.000Z</time>
      </trkpt>
      <trkpt lat="43.54937" lon="2.99507">
        <ele>300.2</ele>
        <time>2017-04-16T15:40:21.000Z</time>
      </trkpt>
      <trkpt lat="43.54936" lon="2.99517">
        <ele>297.8</ele>
        <time>2017-04-16T15:40:23.000Z</time>
      </trkpt>
      <trkpt lat="43.54935" lon="2.9952">
        <ele>296.8</ele>
        <time>2017-04-16T15:40:24.000Z</time>
      </trkpt>
      <trkpt lat="43.54931" lon="2.99521">
        <ele>295.4</ele>
        <time>2017-04-16T15:40:25.000Z</time>
      </trkpt>
      <trkpt lat="43.54922" lon="2.99518">
        <ele>293</ele>
        <time>2017-04-16T15:40:27.000Z</time>
      </trkpt>
      <trkpt lat="43.54912" lon="2.99508">
        <ele>290.4</ele>
        <time>2017-04-16T15:40:29.000Z</time>
      </trkpt>
      <trkpt lat="43.54913" lon="2.995">
        <ele>289.2</ele>
        <time>2017-04-16T15:40:30.000Z</time>
      </trkpt>
      <trkpt lat="43.54913" lon="2.9949">
        <ele>286.6</ele>
        <time>2017-04-16T15:40:32.000Z</time>
      </trkpt>
      <trkpt lat="43.5491" lon="2.99487">
        <ele>285.2</ele>
        <time>2017-04-16T15:40:33.000Z</time>
      </trkpt>
      <trkpt lat="43.54909" lon="2.99487">
        <ele>284</ele>
        <time>2017-04-16T15:40:34.000Z</time>
      </trkpt>
      <trkpt lat="43.54903" lon="2.99491">
        <ele>281.6</ele>
        <time>2017-04-16T15:40:36.000Z</time>
      </trkpt>
      <trkpt lat="43.549" lon="2.99492">
        <ele>280.6</ele>
        <time>2017-04-16T15:40:37.000Z</time>
      </trkpt>
      <trkpt lat="43.54899" lon="2.99491">
        <ele>279.2</ele>
        <time>2017-04-16T15:40:38.000Z</time>
      </trkpt>
      <trkpt lat="43.54898" lon="2.99486">
        <ele>276.8</ele>
        <time>2017-04-16T15:40:40.000Z</time>
      </trkpt>
      <trkpt lat="43.54897" lon="2.99481">
        <ele>275.6</ele>
        <time>2017-04-16T15:40:41.000Z</time>
      </trkpt>
      <trkpt lat="43.54893" lon="2.99471">
        <ele>273.4</ele>
        <time>2017-04-16T15:40:43.000Z</time>
      </trkpt>
      <trkpt lat="43.5489" lon="2.99464">
        <ele>271.4</ele>
        <time>2017-04-16T15:40:45.000Z</time>
      </trkpt>
      <trkpt lat="43.54885" lon="2.9946">
        <ele>269.2</ele>
        <time>2017-04-16T15:40:47.000Z</time>
      </trkpt>
      <trkpt lat="43.5488" lon="2.99459">
        <ele>267</ele>
        <time>2017-04-16T15:40:49.000Z</time>
      </trkpt>
      <trkpt lat="43.54879" lon="2.99457">
        <ele>264.6</ele>
        <time>2017-04-16T15:40:51.000Z</time>
      </trkpt>
      <trkpt lat="43.54877" lon="2.99455">
        <ele>263.6</ele>
        <time>2017-04-16T15:40:52.000Z</time>
      </trkpt>
      <trkpt lat="43.54874" lon="2.9946">
        <ele>261.4</ele>
        <time>2017-04-16T15:40:54.000Z</time>
      </trkpt>
      <trkpt lat="43.54871" lon="2.99468">
        <ele>259.4</ele>
        <time>2017-04-16T15:40:56.000Z</time>
      </trkpt>
      <trkpt lat="43.5487" lon="2.99475">
        <ele>258.2</ele>
        <time>2017-04-16T15:40:57.000Z</time>
      </trkpt>
      <trkpt lat="43.54867" lon="2.99481">
        <ele>256.2</ele>
        <time>2017-04-16T15:40:59.000Z</time>
      </trkpt>
      <trkpt lat="43.54864" lon="2.99484">
        <ele>255.2</ele>
        <time>2017-04-16T15:41:00.000Z</time>
      </trkpt>
      <trkpt lat="43.5486" lon="2.99487">
        <ele>253</ele>
        <time>2017-04-16T15:41:02.000Z</time>
      </trkpt>
      <trkpt lat="43.54857" lon="2.99489">
        <ele>251.8</ele>
        <time>2017-04-16T15:41:03.000Z</time>
      </trkpt>
      <trkpt lat="43.54856" lon="2.99489">
        <ele>250.6</ele>
        <time>2017-04-16T15:41:04.000Z</time>
      </trkpt>
      <trkpt lat="43.54854" lon="2.99489">
        <ele>249.6</ele>
        <time>2017-04-16T15:41:05.000Z</time>
      </trkpt>
      <trkpt lat="43.54854" lon="2.99485">
        <ele>247.4</ele>
        <time>2017-04-16T15:41:07.000Z</time>
      </trkpt>
      <trkpt lat="43.54853" lon="2.9948">
        <ele>245.4</ele>
        <time>2017-04-16T15:41:09.000Z</time>
      </trkpt>
      <trkpt lat="43.54854" lon="2.99471">
        <ele>243.8</ele>
        <time>2017-04-16T15:41:11.000Z</time>
      </trkpt>
      <trkpt lat="43.54854" lon="2.9946">
        <ele>242.6</ele>
        <time>2017-04-16T15:41:13.000Z</time>
      </trkpt>
      <trkpt lat="43.54853" lon="2.99455">
        <ele>241.8</ele>
        <time>2017-04-16T15:41:14.000Z</time>
      </trkpt>
      <trkpt lat="43.54851" lon="2.99448">
        <ele>240.4</ele>
        <time>2017-04-16T15:41:16.000Z</time>
      </trkpt>
      <trkpt lat="43.5485" lon="2.99445">
        <ele>239.4</ele>
        <time>2017-04-16T15:41:18.000Z</time>
      </trkpt>
      <trkpt lat="43.54848" lon="2.99443">
        <ele>238.8</ele>
        <time>2017-04-16T15:41:19.000Z</time>
      </trkpt>
      <trkpt lat="43.54845" lon="2.99439">
        <ele>237.6</ele>
        <time>2017-04-16T15:41:21.000Z</time>
      </trkpt>
      <trkpt lat="43.54841" lon="2.99433">
        <ele>236.6</ele>
        <time>2017-04-16T15:41:23.000Z</time>
      </trkpt>
      <trkpt lat="43.54838" lon="2.9943">
        <ele>235.8</ele>
        <time>2017-04-16T15:41:24.000Z</time>
      </trkpt>
      <trkpt lat="43.54832" lon="2.99425">
        <ele>234.8</ele>
        <time>2017-04-16T15:41:26.000Z</time>
      </trkpt>
      <trkpt lat="43.5483" lon="2.99424">
        <ele>234</ele>
        <time>2017-04-16T15:41:27.000Z</time>
      </trkpt>
      <trkpt lat="43.54824" lon="2.99419">
        <ele>232.6</ele>
        <time>2017-04-16T15:41:29.000Z</time>
      </trkpt>
      <trkpt lat="43.5482" lon="2.99415">
        <ele>231.8</ele>
        <time>2017-04-16T15:41:30.000Z</time>
      </trkpt>
      <trkpt lat="43.54818" lon="2.99413">
        <ele>231</ele>
        <time>2017-04-16T15:41:31.000Z</time>
      </trkpt>
      <trkpt lat="43.54807" lon="2.99411">
        <ele>228.6</ele>
        <time>2017-04-16T15:41:34.000Z</time>
      </trkpt>
      <trkpt lat="43.54803" lon="2.99412">
        <ele>227.8</ele>
        <time>2017-04-16T15:41:35.000Z</time>
      </trkpt>
      <trkpt lat="43.54799" lon="2.99411">
        <ele>226.2</ele>
        <time>2017-04-16T15:41:37.000Z</time>
      </trkpt>
      <trkpt lat="43.54797" lon="2.9941">
        <ele>224.8</ele>
        <time>2017-04-16T15:41:39.000Z</time>
      </trkpt>
      <trkpt lat="43.54797" lon="2.99409">
        <ele>224</ele>
        <time>2017-04-16T15:41:40.000Z</time>
      </trkpt>
      <trkpt lat="43.54796" lon="2.99408">
        <ele>223.4</ele>
        <time>2017-04-16T15:41:41.000Z</time>
      </trkpt>
      <trkpt lat="43.54795" lon="2.99407">
        <ele>222.8</ele>
        <time>2017-04-16T15:41:42.000Z</time>
      </trkpt>
      <trkpt lat="43.54792" lon="2.99406">
        <ele>221.2</ele>
        <time>2017-04-16T15:41:45.000Z</time>
      </trkpt>
      <trkpt lat="43.54791" lon="2.99404">
        <ele>220.6</ele>
        <time>2017-04-16T15:41:47.000Z</time>
      </trkpt>
      <trkpt lat="43.54791" lon="2.99403">
        <ele>220</ele>
        <time>2017-04-16T15:41:48.000Z</time>
      </trkpt>
      <trkpt lat="43.54789" lon="2.99402">
        <ele>219.4</ele>
        <time>2017-04-16T15:41:49.000Z</time>
      </trkpt>
      <trkpt lat="43.54786" lon="2.994">
        <ele>219</ele>
        <time>2017-04-16T15:41:50.000Z</time>
      </trkpt>
      <trkpt lat="43.54782" lon="2.99399">
        <ele>218.4</ele>
        <time>2017-04-16T15:41:51.000Z</time>
      </trkpt>
      <trkpt lat="43.54778" lon="2.99399">
        <ele>217.8</ele>
        <time>2017-04-16T15:41:52.000Z</time>
      </trkpt>
      <trkpt lat="43.54775" lon="2.99399">
        <ele>216.2</ele>
        <time>2017-04-16T15:41:55.000Z</time>
      </trkpt>
      <trkpt lat="43.54775" lon="2.99399">
        <ele>215.6</ele>
        <time>2017-04-16T15:41:56.000Z</time>
      </trkpt>
      <trkpt lat="43.54774" lon="2.99399">
        <ele>215.2</ele>
        <time>2017-04-16T15:41:57.000Z</time>
      </trkpt>
      <trkpt lat="43.54769" lon="2.99402">
        <ele>214.2</ele>
        <time>2017-04-16T15:41:59.000Z</time>
      </trkpt>
      <trkpt lat="43.54767" lon="2.99404">
        <ele>213.8</ele>
        <time>2017-04-16T15:42:00.000Z</time>
      </trkpt>
      <trkpt lat="43.54751" lon="2.99407">
        <ele>212.8</ele>
        <time>2017-04-16T15:42:03.000Z</time>
      </trkpt>
      <trkpt lat="43.54738" lon="2.99411">
        <ele>211.8</ele>
        <time>2017-04-16T15:42:05.000Z</time>
      </trkpt>
      <trkpt lat="43.54734" lon="2.99415">
        <ele>211.2</ele>
        <time>2017-04-16T15:42:06.000Z</time>
      </trkpt>
      <trkpt lat="43.54727" lon="2.99421">
        <ele>210.2</ele>
        <time>2017-04-16T15:42:08.000Z</time>
      </trkpt>
      <trkpt lat="43.54721" lon="2.99427">
        <ele>209.2</ele>
        <time>2017-04-16T15:42:10.000Z</time>
      </trkpt>
      <trkpt lat="43.54713" lon="2.9943">
        <ele>208</ele>
        <time>2017-04-16T15:42:12.000Z</time>
      </trkpt>
      <trkpt lat="43.54706" lon="2.99432">
        <ele>207.2</ele>
        <time>2017-04-16T15:42:14.000Z</time>
      </trkpt>
      <trkpt lat="43.54703" lon="2.99433">
        <ele>206.6</ele>
        <time>2017-04-16T15:42:15.000Z</time>
      </trkpt>
      <trkpt lat="43.54695" lon="2.99434">
        <ele>205.4</ele>
        <time>2017-04-16T15:42:17.000Z</time>
      </trkpt>
      <trkpt lat="43.54689" lon="2.99433">
        <ele>204.6</ele>
        <time>2017-04-16T15:42:19.000Z</time>
      </trkpt>
      <trkpt lat="43.54686" lon="2.99432">
        <ele>204</ele>
        <time>2017-04-16T15:42:20.000Z</time>
      </trkpt>
      <trkpt lat="43.54682" lon="2.99432">
        <ele>203.4</ele>
        <time>2017-04-16T15:42:21.000Z</time>
      </trkpt>
      <trkpt lat="43.54677" lon="2.99431">
        <ele>203</ele>
        <time>2017-04-16T15:42:22.000Z</time>
      </trkpt>
      <trkpt lat="43.54673" lon="2.99431">
        <ele>202.4</ele>
        <time>2017-04-16T15:42:23.000Z</time>
      </trkpt>
      <trkpt lat="43.54669" lon="2.99431">
        <ele>202</ele>
        <time>2017-04-16T15:42:24.000Z</time>
      </trkpt>
      <trkpt lat="43.54667" lon="2.99432">
        <ele>201.6</ele>
        <time>2017-04-16T15:42:25.000Z</time>
      </trkpt>
      <trkpt lat="43.54663" lon="2.99436">
        <ele>200.6</ele>
        <time>2017-04-16T15:42:27.000Z</time>
      </trkpt>
      <trkpt lat="43.54659" lon="2.99438">
        <ele>199.8</ele>
        <time>2017-04-16T15:42:29.000Z</time>
      </trkpt>
      <trkpt lat="43.54657" lon="2.99438">
        <ele>199.4</ele>
        <time>2017-04-16T15:42:30.000Z</time>
      </trkpt>
      <trkpt lat="43.54653" lon="2.99438">
        <ele>198</ele>
        <time>2017-04-16T15:42:33.000Z</time>
      </trkpt>
      <trkpt lat="43.54653" lon="2.99437">
        <ele>197</ele>
        <time>2017-04-16T15:42:35.000Z</time>
      </trkpt>
      <trkpt lat="43.54653" lon="2.99433">
        <ele>196.6</ele>
        <time>2017-04-16T15:42:36.000Z</time>
      </trkpt>
      <trkpt lat="43.54651" lon="2.99428">
        <ele>196.2</ele>
        <time>2017-04-16T15:42:37.000Z</time>
      </trkpt>
      <trkpt lat="43.54646" lon="2.9943">
        <ele>195.8</ele>
        <time>2017-04-16T15:42:38.000Z</time>
      </trkpt>
      <trkpt lat="43.54651" lon="2.99419">
        <ele>194.4</ele>
        <time>2017-04-16T15:42:41.000Z</time>
      </trkpt>
      <trkpt lat="43.54657" lon="2.99403">
        <ele>193.6</ele>
        <time>2017-04-16T15:42:43.000Z</time>
      </trkpt>
      <trkpt lat="43.54655" lon="2.99396">
        <ele>193.2</ele>
        <time>2017-04-16T15:42:44.000Z</time>
      </trkpt>
      <trkpt lat="43.54651" lon="2.99389">
        <ele>192.8</ele>
        <time>2017-04-16T15:42:45.000Z</time>
      </trkpt>
      <trkpt lat="43.54648" lon="2.99382">
        <ele>192.2</ele>
        <time>2017-04-16T15:42:46.000Z</time>
      </trkpt>
      <trkpt lat="43.54643" lon="2.99372">
        <ele>191.4</ele>
        <time>2017-04-16T15:42:48.000Z</time>
      </trkpt>
      <trkpt lat="43.54642" lon="2.99368">
        <ele>190.8</ele>
        <time>2017-04-16T15:42:49.000Z</time>
      </trkpt>
      <trkpt lat="43.54641" lon="2.99364">
        <ele>190.2</ele>
        <time>2017-04-16T15:42:50.000Z</time>
      </trkpt>
      <trkpt lat="43.5464" lon="2.99359">
        <ele>189.6</ele>
        <time>2017-04-16T15:42:51.000Z</time>
      </trkpt>
      <trkpt lat="43.54638" lon="2.99353">
        <ele>189.2</ele>
        <time>2017-04-16T15:42:52.000Z</time>
      </trkpt>
      <trkpt lat="43.54636" lon="2.99347">
        <ele>188.6</ele>
        <time>2017-04-16T15:42:53.000Z</time>
      </trkpt>
      <trkpt lat="43.54632" lon="2.99334">
        <ele>188</ele>
        <time>2017-04-16T15:42:55.000Z</time>
      </trkpt>
      <trkpt lat="43.54629" lon="2.99329">
        <ele>187.6</ele>
        <time>2017-04-16T15:42:56.000Z</time>
      </trkpt>
      <trkpt lat="43.54627" lon="2.99325">
        <ele>187.4</ele>
        <time>2017-04-16T15:42:57.000Z</time>
      </trkpt>
      <trkpt lat="43.54623" lon="2.99321">
        <ele>186.6</ele>
        <time>2017-04-16T15:42:59.000Z</time>
      </trkpt>
      <trkpt lat="43.54621" lon="2.9932">
        <ele>186.2</ele>
        <time>2017-04-16T15:43:00.000Z</time>
      </trkpt>
      <trkpt lat="43.5462" lon="2.99318">
        <ele>185.8</ele>
        <time>2017-04-16T15:43:01.000Z</time>
      </trkpt>
      <trkpt lat="43.54619" lon="2.99314">
        <ele>185.2</ele>
        <time>2017-04-16T15:43:03.000Z</time>
      </trkpt>
      <trkpt lat="43.5462" lon="2.99312">
        <ele>184.8</ele>
        <time>2017-04-16T15:43:04.000Z</time>
      </trkpt>
      <trkpt lat="43.5462" lon="2.99309">
        <ele>184.6</ele>
        <time>2017-04-16T15:43:05.000Z</time>
      </trkpt>
      <trkpt lat="43.54616" lon="2.99302">
        <ele>184.2</ele>
        <time>2017-04-16T15:43:07.000Z</time>
      </trkpt>
      <trkpt lat="43.54609" lon="2.9929">
        <ele>183.8</ele>
        <time>2017-04-16T15:43:09.000Z</time>
      </trkpt>
      <trkpt lat="43.54606" lon="2.9928">
        <ele>183.6</ele>
        <time>2017-04-16T15:43:11.000Z</time>
      </trkpt>
      <trkpt lat="43.54609" lon="2.99269">
        <ele>183.2</ele>
        <time>2017-04-16T15:43:13.000Z</time>
      </trkpt>
      <trkpt lat="43.54613" lon="2.99259">
        <ele>182.4</ele>
        <time>2017-04-16T15:43:15.000Z</time>
      </trkpt>
      <trkpt lat="43.54615" lon="2.99253">
        <ele>182</ele>
        <time>2017-04-16T15:43:16.000Z</time>
      </trkpt>
      <trkpt lat="43.54617" lon="2.99248">
        <ele>181.6</ele>
        <time>2017-04-16T15:43:17.000Z</time>
      </trkpt>
      <trkpt lat="43.54618" lon="2.99241">
        <ele>181</ele>
        <time>2017-04-16T15:43:18.000Z</time>
      </trkpt>
      <trkpt lat="43.54618" lon="2.99235">
        <ele>180.4</ele>
        <time>2017-04-16T15:43:19.000Z</time>
      </trkpt>
      <trkpt lat="43.54618" lon="2.99232">
        <ele>179.6</ele>
        <time>2017-04-16T15:43:20.000Z</time>
      </trkpt>
      <trkpt lat="43.5462" lon="2.99229">
        <ele>179</ele>
        <time>2017-04-16T15:43:21.000Z</time>
      </trkpt>
      <trkpt lat="43.5462" lon="2.99228">
        <ele>178.2</ele>
        <time>2017-04-16T15:43:22.000Z</time>
      </trkpt>
      <trkpt lat="43.54621" lon="2.99229">
        <ele>177.6</ele>
        <time>2017-04-16T15:43:23.000Z</time>
      </trkpt>
      <trkpt lat="43.54618" lon="2.9923">
        <ele>173.6</ele>
        <time>2017-04-16T15:43:30.000Z</time>
      </trkpt>
      <trkpt lat="43.54619" lon="2.9923">
        <ele>173</ele>
        <time>2017-04-16T15:43:31.000Z</time>
      </trkpt>
      <trkpt lat="43.54619" lon="2.9923">
        <ele>172.6</ele>
        <time>2017-04-16T15:43:32.000Z</time>
      </trkpt>
      <trkpt lat="43.54619" lon="2.99228">
        <ele>170.8</ele>
        <time>2017-04-16T15:43:39.000Z</time>
      </trkpt>
      <trkpt lat="43.54621" lon="2.99227">
        <ele>170.6</ele>
        <time>2017-04-16T15:43:40.000Z</time>
      </trkpt>
      <trkpt lat="43.54621" lon="2.99226">
        <ele>170.4</ele>
        <time>2017-04-16T15:43:41.000Z</time>
      </trkpt>
      <trkpt lat="43.54621" lon="2.99224">
        <ele>170.4</ele>
        <time>2017-04-16T15:43:42.000Z</time>
      </trkpt>
      <trkpt lat="43.54619" lon="2.9922">
        <ele>170</ele>
        <time>2017-04-16T15:43:44.000Z</time>
      </trkpt>
      <trkpt lat="43.54618" lon="2.99217">
        <ele>169.8</ele>
        <time>2017-04-16T15:43:46.000Z</time>
      </trkpt>
      <trkpt lat="43.54617" lon="2.99216">
        <ele>169.8</ele>
        <time>2017-04-16T15:43:48.000Z</time>
      </trkpt>
      <trkpt lat="43.54614" lon="2.99219">
        <ele>169.4</ele>
        <time>2017-04-16T15:43:54.000Z</time>
      </trkpt>
      <trkpt lat="43.54606" lon="2.99214">
        <ele>169.2</ele>
        <time>2017-04-16T15:44:00.000Z</time>
      </trkpt>
      <trkpt lat="43.54607" lon="2.99214">
        <ele>169.2</ele>
        <time>2017-04-16T15:44:01.000Z</time>
      </trkpt>
      <trkpt lat="43.54613" lon="2.99212">
        <ele>169.2</ele>
        <time>2017-04-16T15:44:05.000Z</time>
      </trkpt>
      <trkpt lat="43.54604" lon="2.99204">
        <ele>169.2</ele>
        <time>2017-04-16T15:44:10.000Z</time>
      </trkpt>
      <trkpt lat="43.54604" lon="2.99202">
        <ele>169.2</ele>
        <time>2017-04-16T15:44:14.000Z</time>
      </trkpt>
      <trkpt lat="43.54607" lon="2.992">
        <ele>169</ele>
        <time>2017-04-16T15:44:20.000Z</time>
      </trkpt>
      <trkpt lat="43.54611" lon="2.99197">
        <ele>169</ele>
        <time>2017-04-16T15:44:24.000Z</time>
      </trkpt>
      <trkpt lat="43.54613" lon="2.99194">
        <ele>169</ele>
        <time>2017-04-16T15:44:29.000Z</time>
      </trkpt>
      <trkpt lat="43.5461" lon="2.99192">
        <ele>169</ele>
        <time>2017-04-16T15:44:31.000Z</time>
      </trkpt>
      <trkpt lat="43.54608" lon="2.99191">
        <ele>169</ele>
        <time>2017-04-16T15:44:32.000Z</time>
      </trkpt>
      <trkpt lat="43.54603" lon="2.9919">
        <ele>169</ele>
        <time>2017-04-16T15:44:36.000Z</time>
      </trkpt>
      <trkpt lat="43.5461" lon="2.99185">
        <ele>169</ele>
        <time>2017-04-16T15:44:40.000Z</time>
      </trkpt>
      <trkpt lat="43.54614" lon="2.99186">
        <ele>169.2</ele>
        <time>2017-04-16T15:44:43.000Z</time>
      </trkpt>
      <trkpt lat="43.54616" lon="2.99187">
        <ele>169.4</ele>
        <time>2017-04-16T15:44:44.000Z</time>
      </trkpt>
      <trkpt lat="43.54619" lon="2.99187">
        <ele>169.6</ele>
        <time>2017-04-16T15:44:45.000Z</time>
      </trkpt>
      <trkpt lat="43.54627" lon="2.99186">
        <ele>170</ele>
        <time>2017-04-16T15:44:47.000Z</time>
      </trkpt>
      <trkpt lat="43.54636" lon="2.99186">
        <ele>170.2</ele>
        <time>2017-04-16T15:44:49.000Z</time>
      </trkpt>
      <trkpt lat="43.54644" lon="2.99186">
        <ele>170.6</ele>
        <time>2017-04-16T15:44:51.000Z</time>
      </trkpt>
      <trkpt lat="43.54652" lon="2.99187">
        <ele>171</ele>
        <time>2017-04-16T15:44:53.000Z</time>
      </trkpt>
      <trkpt lat="43.54651" lon="2.99188">
        <ele>171.4</ele>
        <time>2017-04-16T15:44:55.000Z</time>
      </trkpt>
      <trkpt lat="43.54648" lon="2.99188">
        <ele>171.8</ele>
        <time>2017-04-16T15:44:57.000Z</time>
      </trkpt>
      <trkpt lat="43.54648" lon="2.99186">
        <ele>172</ele>
        <time>2017-04-16T15:44:59.000Z</time>
      </trkpt>
      <trkpt lat="43.54645" lon="2.99185">
        <ele>172.2</ele>
        <time>2017-04-16T15:45:01.000Z</time>
      </trkpt>
      <trkpt lat="43.54645" lon="2.99183">
        <ele>173</ele>
        <time>2017-04-16T15:45:08.000Z</time>
      </trkpt>
      <trkpt lat="43.54645" lon="2.99183">
        <ele>173.2</ele>
        <time>2017-04-16T15:45:09.000Z</time>
      </trkpt>
      <trkpt lat="43.54642" lon="2.99183">
        <ele>173.4</ele>
        <time>2017-04-16T15:45:10.000Z</time>
      </trkpt>
      <trkpt lat="43.54628" lon="2.99186">
        <ele>173.6</ele>
        <time>2017-04-16T15:45:11.000Z</time>
      </trkpt>
      <trkpt lat="43.54619" lon="2.99183">
        <ele>173.8</ele>
        <time>2017-04-16T15:45:12.000Z</time>
      </trkpt>
      <trkpt lat="43.54611" lon="2.9918">
        <ele>174</ele>
        <time>2017-04-16T15:45:13.000Z</time>
      </trkpt>
      <trkpt lat="43.54606" lon="2.99178">
        <ele>174.2</ele>
        <time>2017-04-16T15:45:15.000Z</time>
      </trkpt>
      <trkpt lat="43.54601" lon="2.99176">
        <ele>174.4</ele>
        <time>2017-04-16T15:45:17.000Z</time>
      </trkpt>
      <trkpt lat="43.54598" lon="2.99171">
        <ele>174.8</ele>
        <time>2017-04-16T15:45:22.000Z</time>
      </trkpt>
      <trkpt lat="43.54596" lon="2.99171">
        <ele>174.8</ele>
        <time>2017-04-16T15:45:23.000Z</time>
      </trkpt>
      <trkpt lat="43.54591" lon="2.99168">
        <ele>175</ele>
        <time>2017-04-16T15:45:27.000Z</time>
      </trkpt>
      <trkpt lat="43.54591" lon="2.99166">
        <ele>175</ele>
        <time>2017-04-16T15:45:29.000Z</time>
      </trkpt>
      <trkpt lat="43.54595" lon="2.99166">
        <ele>175.2</ele>
        <time>2017-04-16T15:45:32.000Z</time>
      </trkpt>
      <trkpt lat="43.54596" lon="2.99166">
        <ele>175.6</ele>
        <time>2017-04-16T15:45:34.000Z</time>
      </trkpt>
      <trkpt lat="43.54595" lon="2.99165">
        <ele>175.8</ele>
        <time>2017-04-16T15:45:35.000Z</time>
      </trkpt>
      <trkpt lat="43.54592" lon="2.99164">
        <ele>176.2</ele>
        <time>2017-04-16T15:45:38.000Z</time>
      </trkpt>
      <trkpt lat="43.54592" lon="2.99164">
        <ele>176.4</ele>
        <time>2017-04-16T15:45:39.000Z</time>
      </trkpt>
      <trkpt lat="43.54591" lon="2.99164">
        <ele>176.6</ele>
        <time>2017-04-16T15:45:41.000Z</time>
      </trkpt>
      <trkpt lat="43.54592" lon="2.99163">
        <ele>176.6</ele>
        <time>2017-04-16T15:45:43.000Z</time>
      </trkpt>
      <trkpt lat="43.54593" lon="2.99162">
        <ele>177</ele>
        <time>2017-04-16T15:45:45.000Z</time>
      </trkpt>
      <trkpt lat="43.54594" lon="2.99162">
        <ele>177.2</ele>
        <time>2017-04-16T15:45:46.000Z</time>
      </trkpt>
      <trkpt lat="43.54596" lon="2.9916">
        <ele>177.8</ele>
        <time>2017-04-16T15:45:49.000Z</time>
      </trkpt>
      <trkpt lat="43.54599" lon="2.99159">
        <ele>178</ele>
        <time>2017-04-16T15:45:50.000Z</time>
      </trkpt>
      <trkpt lat="43.546" lon="2.99158">
        <ele>178</ele>
        <time>2017-04-16T15:45:51.000Z</time>
      </trkpt>
      <trkpt lat="43.54602" lon="2.99158">
        <ele>178.2</ele>
        <time>2017-04-16T15:45:52.000Z</time>
      </trkpt>
      <trkpt lat="43.54606" lon="2.99157">
        <ele>178.6</ele>
        <time>2017-04-16T15:45:54.000Z</time>
      </trkpt>
      <trkpt lat="43.54608" lon="2.99156">
        <ele>178.8</ele>
        <time>2017-04-16T15:45:55.000Z</time>
      </trkpt>
      <trkpt lat="43.5461" lon="2.99155">
        <ele>179.6</ele>
        <time>2017-04-16T15:45:58.000Z</time>
      </trkpt>
      <trkpt lat="43.54611" lon="2.99152">
        <ele>180</ele>
        <time>2017-04-16T15:46:00.000Z</time>
      </trkpt>
      <trkpt lat="43.54612" lon="2.99151">
        <ele>180</ele>
        <time>2017-04-16T15:46:01.000Z</time>
      </trkpt>
      <trkpt lat="43.54614" lon="2.99141">
        <ele>181</ele>
        <time>2017-04-16T15:46:11.000Z</time>
      </trkpt>
      <trkpt lat="43.54613" lon="2.99139">
        <ele>181.2</ele>
        <time>2017-04-16T15:46:13.000Z</time>
      </trkpt>
      <trkpt lat="43.54611" lon="2.99137">
        <ele>181.6</ele>
        <time>2017-04-16T15:46:15.000Z</time>
      </trkpt>
      <trkpt lat="43.5461" lon="2.99134">
        <ele>182</ele>
        <time>2017-04-16T15:46:17.000Z</time>
      </trkpt>
      <trkpt lat="43.54612" lon="2.99131">
        <ele>182.2</ele>
        <time>2017-04-16T15:46:19.000Z</time>
      </trkpt>
      <trkpt lat="43.54614" lon="2.9913">
        <ele>182.4</ele>
        <time>2017-04-16T15:46:21.000Z</time>
      </trkpt>
      <trkpt lat="43.54616" lon="2.99128">
        <ele>183</ele>
        <time>2017-04-16T15:46:27.000Z</time>
      </trkpt>
      <trkpt lat="43.54616" lon="2.99126">
        <ele>183.6</ele>
        <time>2017-04-16T15:46:29.000Z</time>
      </trkpt>
      <trkpt lat="43.54616" lon="2.99126">
        <ele>184</ele>
        <time>2017-04-16T15:46:31.000Z</time>
      </trkpt>
      <trkpt lat="43.54616" lon="2.99123">
        <ele>184.2</ele>
        <time>2017-04-16T15:46:33.000Z</time>
      </trkpt>
      <trkpt lat="43.54617" lon="2.9912">
        <ele>184.4</ele>
        <time>2017-04-16T15:46:35.000Z</time>
      </trkpt>
      <trkpt lat="43.54618" lon="2.99119">
        <ele>184.6</ele>
        <time>2017-04-16T15:46:37.000Z</time>
      </trkpt>
      <trkpt lat="43.54619" lon="2.99117">
        <ele>184.8</ele>
        <time>2017-04-16T15:46:39.000Z</time>
      </trkpt>
      <trkpt lat="43.54618" lon="2.99109">
        <ele>185.2</ele>
        <time>2017-04-16T15:46:44.000Z</time>
      </trkpt>
      <trkpt lat="43.54617" lon="2.99106">
        <ele>185.8</ele>
        <time>2017-04-16T15:46:46.000Z</time>
      </trkpt>
      <trkpt lat="43.54616" lon="2.99103">
        <ele>186</ele>
        <time>2017-04-16T15:46:48.000Z</time>
      </trkpt>
      <trkpt lat="43.54615" lon="2.99101">
        <ele>186.4</ele>
        <time>2017-04-16T15:46:50.000Z</time>
      </trkpt>
      <trkpt lat="43.54615" lon="2.99098">
        <ele>186.6</ele>
        <time>2017-04-16T15:46:52.000Z</time>
      </trkpt>
      <trkpt lat="43.54615" lon="2.99097">
        <ele>186.6</ele>
        <time>2017-04-16T15:46:53.000Z</time>
      </trkpt>
      <trkpt lat="43.54612" lon="2.99095">
        <ele>187.6</ele>
        <time>2017-04-16T15:46:56.000Z</time>
      </trkpt>
      <trkpt lat="43.54612" lon="2.99092">
        <ele>188</ele>
        <time>2017-04-16T15:46:58.000Z</time>
      </trkpt>
      <trkpt lat="43.54613" lon="2.99089">
        <ele>188.4</ele>
        <time>2017-04-16T15:47:00.000Z</time>
      </trkpt>
      <trkpt lat="43.54612" lon="2.99087">
        <ele>188.6</ele>
        <time>2017-04-16T15:47:02.000Z</time>
      </trkpt>
      <trkpt lat="43.54613" lon="2.99082">
        <ele>189.2</ele>
        <time>2017-04-16T15:47:06.000Z</time>
      </trkpt>
      <trkpt lat="43.54614" lon="2.9908">
        <ele>189.8</ele>
        <time>2017-04-16T15:47:08.000Z</time>
      </trkpt>
      <trkpt lat="43.54615" lon="2.99077">
        <ele>190.2</ele>
        <time>2017-04-16T15:47:10.000Z</time>
      </trkpt>
      <trkpt lat="43.54615" lon="2.99075">
        <ele>190.6</ele>
        <time>2017-04-16T15:47:12.000Z</time>
      </trkpt>
      <trkpt lat="43.54615" lon="2.99073">
        <ele>190.8</ele>
        <time>2017-04-16T15:47:14.000Z</time>
      </trkpt>
      <trkpt lat="43.54618" lon="2.99071">
        <ele>191.4</ele>
        <time>2017-04-16T15:47:17.000Z</time>
      </trkpt>
      <trkpt lat="43.54619" lon="2.9907">
        <ele>192</ele>
        <time>2017-04-16T15:47:19.000Z</time>
      </trkpt>
      <trkpt lat="43.54618" lon="2.99068">
        <ele>192.4</ele>
        <time>2017-04-16T15:47:21.000Z</time>
      </trkpt>
      <trkpt lat="43.54617" lon="2.99066">
        <ele>192.8</ele>
        <time>2017-04-16T15:47:23.000Z</time>
      </trkpt>
      <trkpt lat="43.54618" lon="2.99064">
        <ele>193</ele>
        <time>2017-04-16T15:47:25.000Z</time>
      </trkpt>
      <trkpt lat="43.54623" lon="2.99055">
        <ele>194</ele>
        <time>2017-04-16T15:47:34.000Z</time>
      </trkpt>
      <trkpt lat="43.54623" lon="2.99053">
        <ele>194.4</ele>
        <time>2017-04-16T15:47:36.000Z</time>
      </trkpt>
      <trkpt lat="43.54624" lon="2.99051">
        <ele>194.8</ele>
        <time>2017-04-16T15:47:38.000Z</time>
      </trkpt>
      <trkpt lat="43.54624" lon="2.99049">
        <ele>195</ele>
        <time>2017-04-16T15:47:40.000Z</time>
      </trkpt>
      <trkpt lat="43.54623" lon="2.99048">
        <ele>195.2</ele>
        <time>2017-04-16T15:47:42.000Z</time>
      </trkpt>
      <trkpt lat="43.54623" lon="2.99047">
        <ele>195.6</ele>
        <time>2017-04-16T15:47:43.000Z</time>
      </trkpt>
      <trkpt lat="43.54622" lon="2.99045">
        <ele>196.2</ele>
        <time>2017-04-16T15:47:45.000Z</time>
      </trkpt>
      <trkpt lat="43.54622" lon="2.99043">
        <ele>196.6</ele>
        <time>2017-04-16T15:47:47.000Z</time>
      </trkpt>
      <trkpt lat="43.54621" lon="2.9904">
        <ele>196.8</ele>
        <time>2017-04-16T15:47:49.000Z</time>
      </trkpt>
      <trkpt lat="43.54621" lon="2.99038">
        <ele>197.2</ele>
        <time>2017-04-16T15:47:51.000Z</time>
      </trkpt>
      <trkpt lat="43.54621" lon="2.99036">
        <ele>197.6</ele>
        <time>2017-04-16T15:47:53.000Z</time>
      </trkpt>
      <trkpt lat="43.54621" lon="2.99035">
        <ele>198.2</ele>
        <time>2017-04-16T15:47:55.000Z</time>
      </trkpt>
      <trkpt lat="43.54621" lon="2.99033">
        <ele>198.6</ele>
        <time>2017-04-16T15:47:57.000Z</time>
      </trkpt>
      <trkpt lat="43.54622" lon="2.99032">
        <ele>198.8</ele>
        <time>2017-04-16T15:47:59.000Z</time>
      </trkpt>
      <trkpt lat="43.54622" lon="2.99031">
        <ele>199</ele>
        <time>2017-04-16T15:48:00.000Z</time>
      </trkpt>
      <trkpt lat="43.54629" lon="2.99019">
        <ele>200</ele>
        <time>2017-04-16T15:48:11.000Z</time>
      </trkpt>
      <trkpt lat="43.5463" lon="2.99018">
        <ele>200.2</ele>
        <time>2017-04-16T15:48:12.000Z</time>
      </trkpt>
      <trkpt lat="43.54631" lon="2.99016">
        <ele>200.6</ele>
        <time>2017-04-16T15:48:14.000Z</time>
      </trkpt>
      <trkpt lat="43.54632" lon="2.99015">
        <ele>201</ele>
        <time>2017-04-16T15:48:16.000Z</time>
      </trkpt>
      <trkpt lat="43.54635" lon="2.99013">
        <ele>201.2</ele>
        <time>2017-04-16T15:48:18.000Z</time>
      </trkpt>
      <trkpt lat="43.54636" lon="2.99012">
        <ele>201.6</ele>
        <time>2017-04-16T15:48:20.000Z</time>
      </trkpt>
      <trkpt lat="43.54644" lon="2.99006">
        <ele>202.4</ele>
        <time>2017-04-16T15:48:28.000Z</time>
      </trkpt>
      <trkpt lat="43.54646" lon="2.99006">
        <ele>202.8</ele>
        <time>2017-04-16T15:48:30.000Z</time>
      </trkpt>
      <trkpt lat="43.54646" lon="2.99005">
        <ele>203.2</ele>
        <time>2017-04-16T15:48:32.000Z</time>
      </trkpt>
      <trkpt lat="43.54645" lon="2.99003">
        <ele>203.6</ele>
        <time>2017-04-16T15:48:34.000Z</time>
      </trkpt>
      <trkpt lat="43.54644" lon="2.99002">
        <ele>203.8</ele>
        <time>2017-04-16T15:48:36.000Z</time>
      </trkpt>
      <trkpt lat="43.54641" lon="2.99">
        <ele>204.4</ele>
        <time>2017-04-16T15:48:40.000Z</time>
      </trkpt>
      <trkpt lat="43.5464" lon="2.98998">
        <ele>204.8</ele>
        <time>2017-04-16T15:48:42.000Z</time>
      </trkpt>
      <trkpt lat="43.54638" lon="2.98996">
        <ele>205.2</ele>
        <time>2017-04-16T15:48:44.000Z</time>
      </trkpt>
      <trkpt lat="43.54637" lon="2.98995">
        <ele>205.6</ele>
        <time>2017-04-16T15:48:46.000Z</time>
      </trkpt>
      <trkpt lat="43.54636" lon="2.98993">
        <ele>205.8</ele>
        <time>2017-04-16T15:48:48.000Z</time>
      </trkpt>
      <trkpt lat="43.5463" lon="2.98983">
        <ele>206.4</ele>
        <time>2017-04-16T15:48:57.000Z</time>
      </trkpt>
      <trkpt lat="43.54629" lon="2.98981">
        <ele>206.6</ele>
        <time>2017-04-16T15:48:58.000Z</time>
      </trkpt>
      <trkpt lat="43.54628" lon="2.98975">
        <ele>206.6</ele>
        <time>2017-04-16T15:49:03.000Z</time>
      </trkpt>
      <trkpt lat="43.54634" lon="2.98965">
        <ele>206.8</ele>
        <time>2017-04-16T15:49:13.000Z</time>
      </trkpt>
      <trkpt lat="43.54634" lon="2.98962">
        <ele>207</ele>
        <time>2017-04-16T15:49:17.000Z</time>
      </trkpt>
      <trkpt lat="43.54633" lon="2.98961">
        <ele>207.4</ele>
        <time>2017-04-16T15:49:19.000Z</time>
      </trkpt>
      <trkpt lat="43.54633" lon="2.98959">
        <ele>207.8</ele>
        <time>2017-04-16T15:49:21.000Z</time>
      </trkpt>
      <trkpt lat="43.54634" lon="2.98958">
        <ele>208</ele>
        <time>2017-04-16T15:49:23.000Z</time>
      </trkpt>
      <trkpt lat="43.54635" lon="2.98956">
        <ele>208.2</ele>
        <time>2017-04-16T15:49:25.000Z</time>
      </trkpt>
      <trkpt lat="43.54637" lon="2.98954">
        <ele>208.6</ele>
        <time>2017-04-16T15:49:27.000Z</time>
      </trkpt>
      <trkpt lat="43.54638" lon="2.98953">
        <ele>209</ele>
        <time>2017-04-16T15:49:29.000Z</time>
      </trkpt>
      <trkpt lat="43.54639" lon="2.98952">
        <ele>209.4</ele>
        <time>2017-04-16T15:49:31.000Z</time>
      </trkpt>
      <trkpt lat="43.54639" lon="2.98952">
        <ele>209.6</ele>
        <time>2017-04-16T15:49:32.000Z</time>
      </trkpt>
      <trkpt lat="43.5464" lon="2.98949">
        <ele>210.4</ele>
        <time>2017-04-16T15:49:41.000Z</time>
      </trkpt>
      <trkpt lat="43.5464" lon="2.98948">
        <ele>210.6</ele>
        <time>2017-04-16T15:49:42.000Z</time>
      </trkpt>
      <trkpt lat="43.54641" lon="2.98946">
        <ele>210.6</ele>
        <time>2017-04-16T15:49:44.000Z</time>
      </trkpt>
      <trkpt lat="43.54642" lon="2.98943">
        <ele>211</ele>
        <time>2017-04-16T15:49:48.000Z</time>
      </trkpt>
      <trkpt lat="43.54643" lon="2.98941">
        <ele>211.4</ele>
        <time>2017-04-16T15:49:50.000Z</time>
      </trkpt>
      <trkpt lat="43.54644" lon="2.9894">
        <ele>211.8</ele>
        <time>2017-04-16T15:49:52.000Z</time>
      </trkpt>
      <trkpt lat="43.54644" lon="2.98939">
        <ele>212</ele>
        <time>2017-04-16T15:49:54.000Z</time>
      </trkpt>
      <trkpt lat="43.54643" lon="2.98938">
        <ele>212.2</ele>
        <time>2017-04-16T15:49:56.000Z</time>
      </trkpt>
      <trkpt lat="43.5464" lon="2.98935">
        <ele>212.8</ele>
        <time>2017-04-16T15:50:00.000Z</time>
      </trkpt>
      <trkpt lat="43.54638" lon="2.98934">
        <ele>213.2</ele>
        <time>2017-04-16T15:50:02.000Z</time>
      </trkpt>
      <trkpt lat="43.54636" lon="2.98934">
        <ele>213.6</ele>
        <time>2017-04-16T15:50:04.000Z</time>
      </trkpt>
      <trkpt lat="43.54634" lon="2.98935">
        <ele>214</ele>
        <time>2017-04-16T15:50:06.000Z</time>
      </trkpt>
      <trkpt lat="43.54633" lon="2.98935">
        <ele>214.2</ele>
        <time>2017-04-16T15:50:08.000Z</time>
      </trkpt>
      <trkpt lat="43.54632" lon="2.98936">
        <ele>214.6</ele>
        <time>2017-04-16T15:50:10.000Z</time>
      </trkpt>
      <trkpt lat="43.54631" lon="2.98936">
        <ele>215.2</ele>
        <time>2017-04-16T15:50:12.000Z</time>
      </trkpt>
      <trkpt lat="43.54631" lon="2.98934">
        <ele>215.6</ele>
        <time>2017-04-16T15:50:14.000Z</time>
      </trkpt>
      <trkpt lat="43.54632" lon="2.98933">
        <ele>216</ele>
        <time>2017-04-16T15:50:16.000Z</time>
      </trkpt>
      <trkpt lat="43.54635" lon="2.98931">
        <ele>216.2</ele>
        <time>2017-04-16T15:50:18.000Z</time>
      </trkpt>
      <trkpt lat="43.5464" lon="2.98926">
        <ele>216.8</ele>
        <time>2017-04-16T15:50:25.000Z</time>
      </trkpt>
      <trkpt lat="43.54636" lon="2.98916">
        <ele>217.2</ele>
        <time>2017-04-16T15:50:32.000Z</time>
      </trkpt>
      <trkpt lat="43.54635" lon="2.98914">
        <ele>217.4</ele>
        <time>2017-04-16T15:50:34.000Z</time>
      </trkpt>
      <trkpt lat="43.54634" lon="2.98912">
        <ele>217.8</ele>
        <time>2017-04-16T15:50:36.000Z</time>
      </trkpt>
      <trkpt lat="43.54634" lon="2.98911">
        <ele>218.2</ele>
        <time>2017-04-16T15:50:38.000Z</time>
      </trkpt>
      <trkpt lat="43.54633" lon="2.98909">
        <ele>218.4</ele>
        <time>2017-04-16T15:50:40.000Z</time>
      </trkpt>
      <trkpt lat="43.54633" lon="2.98908">
        <ele>218.6</ele>
        <time>2017-04-16T15:50:41.000Z</time>
      </trkpt>
      <trkpt lat="43.54632" lon="2.98906">
        <ele>219</ele>
        <time>2017-04-16T15:50:44.000Z</time>
      </trkpt>
      <trkpt lat="43.54632" lon="2.98905">
        <ele>219</ele>
        <time>2017-04-16T15:50:45.000Z</time>
      </trkpt>
      <trkpt lat="43.54629" lon="2.98897">
        <ele>219.6</ele>
        <time>2017-04-16T15:50:52.000Z</time>
      </trkpt>
      <trkpt lat="43.54629" lon="2.98894">
        <ele>220</ele>
        <time>2017-04-16T15:50:54.000Z</time>
      </trkpt>
      <trkpt lat="43.54628" lon="2.9889">
        <ele>220.2</ele>
        <time>2017-04-16T15:50:56.000Z</time>
      </trkpt>
      <trkpt lat="43.54627" lon="2.98887">
        <ele>220.6</ele>
        <time>2017-04-16T15:50:58.000Z</time>
      </trkpt>
      <trkpt lat="43.54626" lon="2.98883">
        <ele>220.8</ele>
        <time>2017-04-16T15:51:00.000Z</time>
      </trkpt>
      <trkpt lat="43.54626" lon="2.98882">
        <ele>220.8</ele>
        <time>2017-04-16T15:51:01.000Z</time>
      </trkpt>
      <trkpt lat="43.54628" lon="2.98874">
        <ele>221.2</ele>
        <time>2017-04-16T15:51:07.000Z</time>
      </trkpt>
      <trkpt lat="43.54629" lon="2.98873">
        <ele>221.4</ele>
        <time>2017-04-16T15:51:08.000Z</time>
      </trkpt>
      <trkpt lat="43.54626" lon="2.98865">
        <ele>221.4</ele>
        <time>2017-04-16T15:51:13.000Z</time>
      </trkpt>
      <trkpt lat="43.54625" lon="2.9885">
        <ele>221.4</ele>
        <time>2017-04-16T15:51:17.000Z</time>
      </trkpt>
      <trkpt lat="43.54627" lon="2.98841">
        <ele>221</ele>
        <time>2017-04-16T15:51:19.000Z</time>
      </trkpt>
      <trkpt lat="43.5463" lon="2.98831">
        <ele>220.8</ele>
        <time>2017-04-16T15:51:21.000Z</time>
      </trkpt>
      <trkpt lat="43.54632" lon="2.98825">
        <ele>220.6</ele>
        <time>2017-04-16T15:51:22.000Z</time>
      </trkpt>
      <trkpt lat="43.54633" lon="2.9882">
        <ele>220.6</ele>
        <time>2017-04-16T15:51:23.000Z</time>
      </trkpt>
      <trkpt lat="43.54635" lon="2.98809">
        <ele>220.4</ele>
        <time>2017-04-16T15:51:25.000Z</time>
      </trkpt>
      <trkpt lat="43.54636" lon="2.98802">
        <ele>220.2</ele>
        <time>2017-04-16T15:51:27.000Z</time>
      </trkpt>
      <trkpt lat="43.54636" lon="2.988">
        <ele>220.2</ele>
        <time>2017-04-16T15:51:29.000Z</time>
      </trkpt>
      <trkpt lat="43.54635" lon="2.98798">
        <ele>220</ele>
        <time>2017-04-16T15:51:32.000Z</time>
      </trkpt>
      <trkpt lat="43.54635" lon="2.98794">
        <ele>220</ele>
        <time>2017-04-16T15:51:38.000Z</time>
      </trkpt>
      <trkpt lat="43.54636" lon="2.98793">
        <ele>220.4</ele>
        <time>2017-04-16T15:51:40.000Z</time>
      </trkpt>
      <trkpt lat="43.54637" lon="2.98792">
        <ele>220.6</ele>
        <time>2017-04-16T15:51:42.000Z</time>
      </trkpt>
      <trkpt lat="43.54637" lon="2.98791">
        <ele>220.8</ele>
        <time>2017-04-16T15:51:44.000Z</time>
      </trkpt>
      <trkpt lat="43.54638" lon="2.98789">
        <ele>221</ele>
        <time>2017-04-16T15:51:46.000Z</time>
      </trkpt>
      <trkpt lat="43.54637" lon="2.98786">
        <ele>221.2</ele>
        <time>2017-04-16T15:51:49.000Z</time>
      </trkpt>
      <trkpt lat="43.54636" lon="2.98785">
        <ele>221.4</ele>
        <time>2017-04-16T15:51:53.000Z</time>
      </trkpt>
      <trkpt lat="43.54635" lon="2.98783">
        <ele>221.6</ele>
        <time>2017-04-16T15:51:56.000Z</time>
      </trkpt>
      <trkpt lat="43.54635" lon="2.98781">
        <ele>222</ele>
        <time>2017-04-16T15:51:58.000Z</time>
      </trkpt>
      <trkpt lat="43.54635" lon="2.98779">
        <ele>222.4</ele>
        <time>2017-04-16T15:52:00.000Z</time>
      </trkpt>
      <trkpt lat="43.54635" lon="2.98775">
        <ele>222.8</ele>
        <time>2017-04-16T15:52:02.000Z</time>
      </trkpt>
      <trkpt lat="43.54634" lon="2.98772">
        <ele>223</ele>
        <time>2017-04-16T15:52:04.000Z</time>
      </trkpt>
      <trkpt lat="43.54634" lon="2.9877">
        <ele>223</ele>
        <time>2017-04-16T15:52:05.000Z</time>
      </trkpt>
      <trkpt lat="43.54634" lon="2.98767">
        <ele>223</ele>
        <time>2017-04-16T15:52:06.000Z</time>
      </trkpt>
      <trkpt lat="43.54633" lon="2.98763">
        <ele>222.8</ele>
        <time>2017-04-16T15:52:08.000Z</time>
      </trkpt>
      <trkpt lat="43.54631" lon="2.98757">
        <ele>222.6</ele>
        <time>2017-04-16T15:52:10.000Z</time>
      </trkpt>
      <trkpt lat="43.54628" lon="2.98748">
        <ele>222.4</ele>
        <time>2017-04-16T15:52:12.000Z</time>
      </trkpt>
      <trkpt lat="43.54626" lon="2.98739">
        <ele>222.4</ele>
        <time>2017-04-16T15:52:14.000Z</time>
      </trkpt>
      <trkpt lat="43.54625" lon="2.98735">
        <ele>222.2</ele>
        <time>2017-04-16T15:52:15.000Z</time>
      </trkpt>
      <trkpt lat="43.54624" lon="2.98727">
        <ele>222.2</ele>
        <time>2017-04-16T15:52:19.000Z</time>
      </trkpt>
      <trkpt lat="43.54624" lon="2.9872">
        <ele>222</ele>
        <time>2017-04-16T15:52:24.000Z</time>
      </trkpt>
      <trkpt lat="43.54623" lon="2.98718">
        <ele>222</ele>
        <time>2017-04-16T15:52:26.000Z</time>
      </trkpt>
      <trkpt lat="43.54623" lon="2.98716">
        <ele>222</ele>
        <time>2017-04-16T15:52:37.000Z</time>
      </trkpt>
      <trkpt lat="43.54625" lon="2.98714">
        <ele>222</ele>
        <time>2017-04-16T15:52:40.000Z</time>
      </trkpt>
      <trkpt lat="43.54627" lon="2.98702">
        <ele>221.8</ele>
        <time>2017-04-16T15:52:48.000Z</time>
      </trkpt>
      <trkpt lat="43.54626" lon="2.98698">
        <ele>221.8</ele>
        <time>2017-04-16T15:52:50.000Z</time>
      </trkpt>
      <trkpt lat="43.54625" lon="2.98688">
        <ele>221.8</ele>
        <time>2017-04-16T15:52:58.000Z</time>
      </trkpt>
      <trkpt lat="43.54626" lon="2.98685">
        <ele>221.8</ele>
        <time>2017-04-16T15:53:02.000Z</time>
      </trkpt>
      <trkpt lat="43.54627" lon="2.98684">
        <ele>221.8</ele>
        <time>2017-04-16T15:53:05.000Z</time>
      </trkpt>
      <trkpt lat="43.54627" lon="2.98684">
        <ele>221.8</ele>
        <time>2017-04-16T15:53:07.000Z</time>
      </trkpt>
      <trkpt lat="43.54627" lon="2.98683">
        <ele>221.8</ele>
        <time>2017-04-16T15:53:09.000Z</time>
      </trkpt>
      <trkpt lat="43.54628" lon="2.98683">
        <ele>221.8</ele>
        <time>2017-04-16T15:53:10.000Z</time>
      </trkpt>
      <trkpt lat="43.54628" lon="2.98678">
        <ele>221.8</ele>
        <time>2017-04-16T15:53:13.000Z</time>
      </trkpt>
      <trkpt lat="43.54628" lon="2.98672">
        <ele>221.8</ele>
        <time>2017-04-16T15:53:15.000Z</time>
      </trkpt>
      <trkpt lat="43.54625" lon="2.98658">
        <ele>221.8</ele>
        <time>2017-04-16T15:53:19.000Z</time>
      </trkpt>
      <trkpt lat="43.54625" lon="2.98656">
        <ele>221.8</ele>
        <time>2017-04-16T15:53:20.000Z</time>
      </trkpt>
      <trkpt lat="43.54623" lon="2.98655">
        <ele>221.8</ele>
        <time>2017-04-16T15:53:31.000Z</time>
      </trkpt>
      <trkpt lat="43.54626" lon="2.98651">
        <ele>221.8</ele>
        <time>2017-04-16T15:53:34.000Z</time>
      </trkpt>
      <trkpt lat="43.5463" lon="2.98639">
        <ele>221.8</ele>
        <time>2017-04-16T15:53:40.000Z</time>
      </trkpt>
      <trkpt lat="43.54629" lon="2.98633">
        <ele>221.8</ele>
        <time>2017-04-16T15:53:44.000Z</time>
      </trkpt>
      <trkpt lat="43.54628" lon="2.98628">
        <ele>221.8</ele>
        <time>2017-04-16T15:53:48.000Z</time>
      </trkpt>
      <trkpt lat="43.54628" lon="2.98626">
        <ele>222.2</ele>
        <time>2017-04-16T15:53:50.000Z</time>
      </trkpt>
      <trkpt lat="43.54626" lon="2.98624">
        <ele>222.4</ele>
        <time>2017-04-16T15:53:52.000Z</time>
      </trkpt>
      <trkpt lat="43.54624" lon="2.98622">
        <ele>222.8</ele>
        <time>2017-04-16T15:53:54.000Z</time>
      </trkpt>
      <trkpt lat="43.54624" lon="2.98621">
        <ele>223</ele>
        <time>2017-04-16T15:53:56.000Z</time>
      </trkpt>
      <trkpt lat="43.54624" lon="2.9862">
        <ele>223.2</ele>
        <time>2017-04-16T15:53:58.000Z</time>
      </trkpt>
      <trkpt lat="43.54623" lon="2.98619">
        <ele>223.4</ele>
        <time>2017-04-16T15:54:00.000Z</time>
      </trkpt>
      <trkpt lat="43.54619" lon="2.98615">
        <ele>223.8</ele>
        <time>2017-04-16T15:54:03.000Z</time>
      </trkpt>
      <trkpt lat="43.54617" lon="2.98614">
        <ele>224.2</ele>
        <time>2017-04-16T15:54:05.000Z</time>
      </trkpt>
      <trkpt lat="43.54616" lon="2.98614">
        <ele>224.6</ele>
        <time>2017-04-16T15:54:07.000Z</time>
      </trkpt>
      <trkpt lat="43.54615" lon="2.98614">
        <ele>225</ele>
        <time>2017-04-16T15:54:09.000Z</time>
      </trkpt>
      <trkpt lat="43.54614" lon="2.98613">
        <ele>225.2</ele>
        <time>2017-04-16T15:54:11.000Z</time>
      </trkpt>
      <trkpt lat="43.54609" lon="2.98609">
        <ele>225.8</ele>
        <time>2017-04-16T15:54:17.000Z</time>
      </trkpt>
      <trkpt lat="43.54607" lon="2.98608">
        <ele>226.4</ele>
        <time>2017-04-16T15:54:19.000Z</time>
      </trkpt>
      <trkpt lat="43.54606" lon="2.98606">
        <ele>226.8</ele>
        <time>2017-04-16T15:54:21.000Z</time>
      </trkpt>
      <trkpt lat="43.54605" lon="2.98604">
        <ele>227</ele>
        <time>2017-04-16T15:54:23.000Z</time>
      </trkpt>
      <trkpt lat="43.54605" lon="2.98603">
        <ele>227.2</ele>
        <time>2017-04-16T15:54:25.000Z</time>
      </trkpt>
      <trkpt lat="43.54604" lon="2.98599">
        <ele>227.8</ele>
        <time>2017-04-16T15:54:28.000Z</time>
      </trkpt>
      <trkpt lat="43.54604" lon="2.98598">
        <ele>228</ele>
        <time>2017-04-16T15:54:29.000Z</time>
      </trkpt>
      <trkpt lat="43.54606" lon="2.98593">
        <ele>228.6</ele>
        <time>2017-04-16T15:54:32.000Z</time>
      </trkpt>
      <trkpt lat="43.54607" lon="2.98591">
        <ele>229</ele>
        <time>2017-04-16T15:54:34.000Z</time>
      </trkpt>
      <trkpt lat="43.54607" lon="2.98589">
        <ele>229.4</ele>
        <time>2017-04-16T15:54:36.000Z</time>
      </trkpt>
      <trkpt lat="43.54602" lon="2.98584">
        <ele>230</ele>
        <time>2017-04-16T15:54:43.000Z</time>
      </trkpt>
      <trkpt lat="43.54601" lon="2.98583">
        <ele>230</ele>
        <time>2017-04-16T15:54:44.000Z</time>
      </trkpt>
      <trkpt lat="43.54598" lon="2.9858">
        <ele>230.6</ele>
        <time>2017-04-16T15:54:47.000Z</time>
      </trkpt>
      <trkpt lat="43.54596" lon="2.98579">
        <ele>231</ele>
        <time>2017-04-16T15:54:49.000Z</time>
      </trkpt>
      <trkpt lat="43.54596" lon="2.98578">
        <ele>231.2</ele>
        <time>2017-04-16T15:54:51.000Z</time>
      </trkpt>
      <trkpt lat="43.54595" lon="2.98576">
        <ele>231.6</ele>
        <time>2017-04-16T15:54:53.000Z</time>
      </trkpt>
      <trkpt lat="43.54589" lon="2.98565">
        <ele>232</ele>
        <time>2017-04-16T15:54:59.000Z</time>
      </trkpt>
      <trkpt lat="43.54587" lon="2.98562">
        <ele>232</ele>
        <time>2017-04-16T15:55:00.000Z</time>
      </trkpt>
      <trkpt lat="43.54582" lon="2.98549">
        <ele>232.2</ele>
        <time>2017-04-16T15:55:05.000Z</time>
      </trkpt>
      <trkpt lat="43.54572" lon="2.98535">
        <ele>232.4</ele>
        <time>2017-04-16T15:55:12.000Z</time>
      </trkpt>
      <trkpt lat="43.54566" lon="2.98528">
        <ele>232.4</ele>
        <time>2017-04-16T15:55:18.000Z</time>
      </trkpt>
      <trkpt lat="43.54566" lon="2.98528">
        <ele>232.4</ele>
        <time>2017-04-16T15:55:19.000Z</time>
      </trkpt>
      <trkpt lat="43.54564" lon="2.9853">
        <ele>232.4</ele>
        <time>2017-04-16T15:55:55.000Z</time>
      </trkpt>
      <trkpt lat="43.54562" lon="2.98529">
        <ele>232.4</ele>
        <time>2017-04-16T15:55:58.000Z</time>
      </trkpt>
      <trkpt lat="43.54561" lon="2.98528">
        <ele>232.4</ele>
        <time>2017-04-16T15:56:23.000Z</time>
      </trkpt>
      <trkpt lat="43.54556" lon="2.98527">
        <ele>232.4</ele>
        <time>2017-04-16T15:56:25.000Z</time>
      </trkpt>
      <trkpt lat="43.54547" lon="2.98527">
        <ele>232.4</ele>
        <time>2017-04-16T15:56:26.000Z</time>
      </trkpt>
      <trkpt lat="43.54521" lon="2.98525">
        <ele>232.2</ele>
        <time>2017-04-16T15:56:29.000Z</time>
      </trkpt>
      <trkpt lat="43.54514" lon="2.9853">
        <ele>232</ele>
        <time>2017-04-16T15:56:30.000Z</time>
      </trkpt>
      <trkpt lat="43.545" lon="2.98538">
        <ele>231</ele>
        <time>2017-04-16T15:56:32.000Z</time>
      </trkpt>
      <trkpt lat="43.54495" lon="2.98539">
        <ele>230.6</ele>
        <time>2017-04-16T15:56:33.000Z</time>
      </trkpt>
      <trkpt lat="43.54491" lon="2.98539">
        <ele>230</ele>
        <time>2017-04-16T15:56:34.000Z</time>
      </trkpt>
      <trkpt lat="43.54486" lon="2.98538">
        <ele>229.6</ele>
        <time>2017-04-16T15:56:35.000Z</time>
      </trkpt>
      <trkpt lat="43.54481" lon="2.98539">
        <ele>229</ele>
        <time>2017-04-16T15:56:36.000Z</time>
      </trkpt>
      <trkpt lat="43.54476" lon="2.98537">
        <ele>228.6</ele>
        <time>2017-04-16T15:56:37.000Z</time>
      </trkpt>
      <trkpt lat="43.54469" lon="2.98536">
        <ele>228.2</ele>
        <time>2017-04-16T15:56:38.000Z</time>
      </trkpt>
      <trkpt lat="43.54462" lon="2.98535">
        <ele>227.8</ele>
        <time>2017-04-16T15:56:39.000Z</time>
      </trkpt>
      <trkpt lat="43.54447" lon="2.98532">
        <ele>226.8</ele>
        <time>2017-04-16T15:56:42.000Z</time>
      </trkpt>
      <trkpt lat="43.54442" lon="2.98524">
        <ele>225.8</ele>
        <time>2017-04-16T15:56:44.000Z</time>
      </trkpt>
      <trkpt lat="43.5444" lon="2.98518">
        <ele>225.2</ele>
        <time>2017-04-16T15:56:45.000Z</time>
      </trkpt>
      <trkpt lat="43.5444" lon="2.98501">
        <ele>224.2</ele>
        <time>2017-04-16T15:56:47.000Z</time>
      </trkpt>
      <trkpt lat="43.54442" lon="2.98495">
        <ele>223.4</ele>
        <time>2017-04-16T15:56:48.000Z</time>
      </trkpt>
      <trkpt lat="43.54441" lon="2.98486">
        <ele>222.2</ele>
        <time>2017-04-16T15:56:50.000Z</time>
      </trkpt>
      <trkpt lat="43.54439" lon="2.98482">
        <ele>221.2</ele>
        <time>2017-04-16T15:56:52.000Z</time>
      </trkpt>
      <trkpt lat="43.5444" lon="2.98473">
        <ele>220.4</ele>
        <time>2017-04-16T15:56:54.000Z</time>
      </trkpt>
      <trkpt lat="43.54439" lon="2.98467">
        <ele>220</ele>
        <time>2017-04-16T15:56:55.000Z</time>
      </trkpt>
      <trkpt lat="43.54438" lon="2.98455">
        <ele>219</ele>
        <time>2017-04-16T15:56:57.000Z</time>
      </trkpt>
      <trkpt lat="43.54438" lon="2.98447">
        <ele>218.2</ele>
        <time>2017-04-16T15:56:59.000Z</time>
      </trkpt>
      <trkpt lat="43.54438" lon="2.98439">
        <ele>217.6</ele>
        <time>2017-04-16T15:57:01.000Z</time>
      </trkpt>
      <trkpt lat="43.54439" lon="2.98432">
        <ele>217.4</ele>
        <time>2017-04-16T15:57:03.000Z</time>
      </trkpt>
      <trkpt lat="43.5444" lon="2.98429">
        <ele>217.4</ele>
        <time>2017-04-16T15:57:04.000Z</time>
      </trkpt>
      <trkpt lat="43.54439" lon="2.98423">
        <ele>217.4</ele>
        <time>2017-04-16T15:57:05.000Z</time>
      </trkpt>
      <trkpt lat="43.54438" lon="2.98414">
        <ele>217.2</ele>
        <time>2017-04-16T15:57:07.000Z</time>
      </trkpt>
      <trkpt lat="43.54436" lon="2.9841">
        <ele>217.2</ele>
        <time>2017-04-16T15:57:08.000Z</time>
      </trkpt>
      <trkpt lat="43.54434" lon="2.98405">
        <ele>217.2</ele>
        <time>2017-04-16T15:57:09.000Z</time>
      </trkpt>
      <trkpt lat="43.54432" lon="2.98399">
        <ele>217.2</ele>
        <time>2017-04-16T15:57:10.000Z</time>
      </trkpt>
      <trkpt lat="43.54429" lon="2.98394">
        <ele>217.2</ele>
        <time>2017-04-16T15:57:11.000Z</time>
      </trkpt>
      <trkpt lat="43.54426" lon="2.98389">
        <ele>217</ele>
        <time>2017-04-16T15:57:12.000Z</time>
      </trkpt>
      <trkpt lat="43.54418" lon="2.98382">
        <ele>216.2</ele>
        <time>2017-04-16T15:57:14.000Z</time>
      </trkpt>
      <trkpt lat="43.54412" lon="2.98375">
        <ele>215.4</ele>
        <time>2017-04-16T15:57:16.000Z</time>
      </trkpt>
      <trkpt lat="43.54412" lon="2.98369">
        <ele>215</ele>
        <time>2017-04-16T15:57:17.000Z</time>
      </trkpt>
      <trkpt lat="43.54413" lon="2.98358">
        <ele>214</ele>
        <time>2017-04-16T15:57:19.000Z</time>
      </trkpt>
      <trkpt lat="43.54412" lon="2.9835">
        <ele>213</ele>
        <time>2017-04-16T15:57:21.000Z</time>
      </trkpt>
      <trkpt lat="43.54411" lon="2.98347">
        <ele>211.8</ele>
        <time>2017-04-16T15:57:23.000Z</time>
      </trkpt>
      <trkpt lat="43.54411" lon="2.98345">
        <ele>211.4</ele>
        <time>2017-04-16T15:57:24.000Z</time>
      </trkpt>
      <trkpt lat="43.54412" lon="2.98342">
        <ele>210.8</ele>
        <time>2017-04-16T15:57:25.000Z</time>
      </trkpt>
      <trkpt lat="43.54412" lon="2.98332">
        <ele>209.6</ele>
        <time>2017-04-16T15:57:27.000Z</time>
      </trkpt>
      <trkpt lat="43.54409" lon="2.98325">
        <ele>209.2</ele>
        <time>2017-04-16T15:57:28.000Z</time>
      </trkpt>
      <trkpt lat="43.54407" lon="2.98319">
        <ele>208.8</ele>
        <time>2017-04-16T15:57:29.000Z</time>
      </trkpt>
      <trkpt lat="43.54406" lon="2.98312">
        <ele>208</ele>
        <time>2017-04-16T15:57:30.000Z</time>
      </trkpt>
      <trkpt lat="43.54407" lon="2.98305">
        <ele>207.4</ele>
        <time>2017-04-16T15:57:31.000Z</time>
      </trkpt>
      <trkpt lat="43.54411" lon="2.98292">
        <ele>206</ele>
        <time>2017-04-16T15:57:33.000Z</time>
      </trkpt>
      <trkpt lat="43.5441" lon="2.98284">
        <ele>205.4</ele>
        <time>2017-04-16T15:57:34.000Z</time>
      </trkpt>
      <trkpt lat="43.54405" lon="2.98271">
        <ele>204</ele>
        <time>2017-04-16T15:57:36.000Z</time>
      </trkpt>
      <trkpt lat="43.54404" lon="2.98264">
        <ele>202.8</ele>
        <time>2017-04-16T15:57:38.000Z</time>
      </trkpt>
      <trkpt lat="43.54405" lon="2.98259">
        <ele>201.4</ele>
        <time>2017-04-16T15:57:40.000Z</time>
      </trkpt>
      <trkpt lat="43.54401" lon="2.98256">
        <ele>200.2</ele>
        <time>2017-04-16T15:57:42.000Z</time>
      </trkpt>
      <trkpt lat="43.54394" lon="2.98262">
        <ele>199.4</ele>
        <time>2017-04-16T15:57:44.000Z</time>
      </trkpt>
      <trkpt lat="43.54385" lon="2.98269">
        <ele>198.6</ele>
        <time>2017-04-16T15:57:46.000Z</time>
      </trkpt>
      <trkpt lat="43.5438" lon="2.9827">
        <ele>198</ele>
        <time>2017-04-16T15:57:47.000Z</time>
      </trkpt>
      <trkpt lat="43.54374" lon="2.98268">
        <ele>197.4</ele>
        <time>2017-04-16T15:57:48.000Z</time>
      </trkpt>
      <trkpt lat="43.54361" lon="2.98262">
        <ele>196.4</ele>
        <time>2017-04-16T15:57:50.000Z</time>
      </trkpt>
      <trkpt lat="43.54356" lon="2.9826">
        <ele>195.8</ele>
        <time>2017-04-16T15:57:51.000Z</time>
      </trkpt>
      <trkpt lat="43.54351" lon="2.98259">
        <ele>195.4</ele>
        <time>2017-04-16T15:57:52.000Z</time>
      </trkpt>
      <trkpt lat="43.54346" lon="2.98257">
        <ele>194.6</ele>
        <time>2017-04-16T15:57:53.000Z</time>
      </trkpt>
      <trkpt lat="43.54341" lon="2.98255">
        <ele>193.8</ele>
        <time>2017-04-16T15:57:54.000Z</time>
      </trkpt>
      <trkpt lat="43.54337" lon="2.98251">
        <ele>193.2</ele>
        <time>2017-04-16T15:57:55.000Z</time>
      </trkpt>
      <trkpt lat="43.54332" lon="2.98246">
        <ele>192.8</ele>
        <time>2017-04-16T15:57:56.000Z</time>
      </trkpt>
      <trkpt lat="43.54323" lon="2.98223">
        <ele>190.6</ele>
        <time>2017-04-16T15:57:59.000Z</time>
      </trkpt>
      <trkpt lat="43.54315" lon="2.98206">
        <ele>189</ele>
        <time>2017-04-16T15:58:01.000Z</time>
      </trkpt>
      <trkpt lat="43.54303" lon="2.98195">
        <ele>187.4</ele>
        <time>2017-04-16T15:58:03.000Z</time>
      </trkpt>
      <trkpt lat="43.54296" lon="2.98191">
        <ele>186.4</ele>
        <time>2017-04-16T15:58:04.000Z</time>
      </trkpt>
      <trkpt lat="43.54289" lon="2.98188">
        <ele>185.6</ele>
        <time>2017-04-16T15:58:05.000Z</time>
      </trkpt>
      <trkpt lat="43.54282" lon="2.98184">
        <ele>184.8</ele>
        <time>2017-04-16T15:58:06.000Z</time>
      </trkpt>
      <trkpt lat="43.54269" lon="2.98173">
        <ele>183.2</ele>
        <time>2017-04-16T15:58:08.000Z</time>
      </trkpt>
      <trkpt lat="43.54264" lon="2.98165">
        <ele>182.2</ele>
        <time>2017-04-16T15:58:09.000Z</time>
      </trkpt>
      <trkpt lat="43.54261" lon="2.98156">
        <ele>181.4</ele>
        <time>2017-04-16T15:58:10.000Z</time>
      </trkpt>
      <trkpt lat="43.54258" lon="2.98147">
        <ele>180.6</ele>
        <time>2017-04-16T15:58:11.000Z</time>
      </trkpt>
      <trkpt lat="43.54253" lon="2.98131">
        <ele>179.2</ele>
        <time>2017-04-16T15:58:13.000Z</time>
      </trkpt>
      <trkpt lat="43.54252" lon="2.98124">
        <ele>178.4</ele>
        <time>2017-04-16T15:58:14.000Z</time>
      </trkpt>
      <trkpt lat="43.54251" lon="2.98116">
        <ele>177.6</ele>
        <time>2017-04-16T15:58:15.000Z</time>
      </trkpt>
      <trkpt lat="43.54249" lon="2.98111">
        <ele>177</ele>
        <time>2017-04-16T15:58:16.000Z</time>
      </trkpt>
      <trkpt lat="43.54245" lon="2.98106">
        <ele>176.6</ele>
        <time>2017-04-16T15:58:17.000Z</time>
      </trkpt>
      <trkpt lat="43.54234" lon="2.981">
        <ele>175.6</ele>
        <time>2017-04-16T15:58:19.000Z</time>
      </trkpt>
      <trkpt lat="43.54227" lon="2.98096">
        <ele>174.8</ele>
        <time>2017-04-16T15:58:21.000Z</time>
      </trkpt>
      <trkpt lat="43.54221" lon="2.98094">
        <ele>174</ele>
        <time>2017-04-16T15:58:24.000Z</time>
      </trkpt>
      <trkpt lat="43.54212" lon="2.98085">
        <ele>173</ele>
        <time>2017-04-16T15:58:29.000Z</time>
      </trkpt>
      <trkpt lat="43.54212" lon="2.98083">
        <ele>173</ele>
        <time>2017-04-16T15:58:30.000Z</time>
      </trkpt>
      <trkpt lat="43.54212" lon="2.98081">
        <ele>173.2</ele>
        <time>2017-04-16T15:58:31.000Z</time>
      </trkpt>
      <trkpt lat="43.54211" lon="2.98077">
        <ele>173.4</ele>
        <time>2017-04-16T15:58:32.000Z</time>
      </trkpt>
      <trkpt lat="43.54207" lon="2.98064">
        <ele>173.4</ele>
        <time>2017-04-16T15:58:34.000Z</time>
      </trkpt>
      <trkpt lat="43.54203" lon="2.98049">
        <ele>173.4</ele>
        <time>2017-04-16T15:58:36.000Z</time>
      </trkpt>
      <trkpt lat="43.542" lon="2.98041">
        <ele>173.2</ele>
        <time>2017-04-16T15:58:37.000Z</time>
      </trkpt>
      <trkpt lat="43.54196" lon="2.98034">
        <ele>173</ele>
        <time>2017-04-16T15:58:38.000Z</time>
      </trkpt>
      <trkpt lat="43.54192" lon="2.98029">
        <ele>173</ele>
        <time>2017-04-16T15:58:39.000Z</time>
      </trkpt>
      <trkpt lat="43.54182" lon="2.98012">
        <ele>172.6</ele>
        <time>2017-04-16T15:58:42.000Z</time>
      </trkpt>
      <trkpt lat="43.54179" lon="2.98">
        <ele>172.4</ele>
        <time>2017-04-16T15:58:44.000Z</time>
      </trkpt>
      <trkpt lat="43.54177" lon="2.97993">
        <ele>172.2</ele>
        <time>2017-04-16T15:58:45.000Z</time>
      </trkpt>
      <trkpt lat="43.54173" lon="2.97987">
        <ele>171.8</ele>
        <time>2017-04-16T15:58:46.000Z</time>
      </trkpt>
      <trkpt lat="43.5417" lon="2.9798">
        <ele>171.6</ele>
        <time>2017-04-16T15:58:47.000Z</time>
      </trkpt>
      <trkpt lat="43.54166" lon="2.97976">
        <ele>171</ele>
        <time>2017-04-16T15:58:48.000Z</time>
      </trkpt>
      <trkpt lat="43.54165" lon="2.97973">
        <ele>170.6</ele>
        <time>2017-04-16T15:58:49.000Z</time>
      </trkpt>
      <trkpt lat="43.54166" lon="2.9797">
        <ele>169.8</ele>
        <time>2017-04-16T15:58:50.000Z</time>
      </trkpt>
      <trkpt lat="43.54168" lon="2.97966">
        <ele>168.8</ele>
        <time>2017-04-16T15:58:52.000Z</time>
      </trkpt>
      <trkpt lat="43.54168" lon="2.97963">
        <ele>168</ele>
        <time>2017-04-16T15:58:53.000Z</time>
      </trkpt>
      <trkpt lat="43.54165" lon="2.97959">
        <ele>167.4</ele>
        <time>2017-04-16T15:58:54.000Z</time>
      </trkpt>
      <trkpt lat="43.54159" lon="2.97943">
        <ele>165.2</ele>
        <time>2017-04-16T15:58:57.000Z</time>
      </trkpt>
      <trkpt lat="43.54159" lon="2.97938">
        <ele>164.4</ele>
        <time>2017-04-16T15:58:58.000Z</time>
      </trkpt>
      <trkpt lat="43.54158" lon="2.97932">
        <ele>163</ele>
        <time>2017-04-16T15:59:00.000Z</time>
      </trkpt>
      <trkpt lat="43.54157" lon="2.97929">
        <ele>162</ele>
        <time>2017-04-16T15:59:01.000Z</time>
      </trkpt>
      <trkpt lat="43.54155" lon="2.97922">
        <ele>160.6</ele>
        <time>2017-04-16T15:59:03.000Z</time>
      </trkpt>
      <trkpt lat="43.54155" lon="2.97916">
        <ele>159.6</ele>
        <time>2017-04-16T15:59:04.000Z</time>
      </trkpt>
      <trkpt lat="43.54162" lon="2.97908">
        <ele>157.8</ele>
        <time>2017-04-16T15:59:06.000Z</time>
      </trkpt>
      <trkpt lat="43.54168" lon="2.97906">
        <ele>157</ele>
        <time>2017-04-16T15:59:07.000Z</time>
      </trkpt>
      <trkpt lat="43.54174" lon="2.97903">
        <ele>156.2</ele>
        <time>2017-04-16T15:59:08.000Z</time>
      </trkpt>
      <trkpt lat="43.54179" lon="2.97901">
        <ele>155.2</ele>
        <time>2017-04-16T15:59:09.000Z</time>
      </trkpt>
      <trkpt lat="43.54183" lon="2.97889">
        <ele>153.2</ele>
        <time>2017-04-16T15:59:11.000Z</time>
      </trkpt>
      <trkpt lat="43.54184" lon="2.97883">
        <ele>152</ele>
        <time>2017-04-16T15:59:12.000Z</time>
      </trkpt>
      <trkpt lat="43.54189" lon="2.97871">
        <ele>149.6</ele>
        <time>2017-04-16T15:59:14.000Z</time>
      </trkpt>
      <trkpt lat="43.54194" lon="2.97865">
        <ele>148</ele>
        <time>2017-04-16T15:59:15.000Z</time>
      </trkpt>
      <trkpt lat="43.542" lon="2.97859">
        <ele>146.6</ele>
        <time>2017-04-16T15:59:16.000Z</time>
      </trkpt>
      <trkpt lat="43.54204" lon="2.97852">
        <ele>144.8</ele>
        <time>2017-04-16T15:59:17.000Z</time>
      </trkpt>
      <trkpt lat="43.54208" lon="2.97842">
        <ele>143.2</ele>
        <time>2017-04-16T15:59:18.000Z</time>
      </trkpt>
      <trkpt lat="43.54209" lon="2.97832">
        <ele>141.4</ele>
        <time>2017-04-16T15:59:19.000Z</time>
      </trkpt>
      <trkpt lat="43.54208" lon="2.97823">
        <ele>139.4</ele>
        <time>2017-04-16T15:59:20.000Z</time>
      </trkpt>
      <trkpt lat="43.54208" lon="2.97809">
        <ele>136</ele>
        <time>2017-04-16T15:59:22.000Z</time>
      </trkpt>
      <trkpt lat="43.54209" lon="2.978">
        <ele>132.6</ele>
        <time>2017-04-16T15:59:24.000Z</time>
      </trkpt>
      <trkpt lat="43.54209" lon="2.97794">
        <ele>131</ele>
        <time>2017-04-16T15:59:25.000Z</time>
      </trkpt>
      <trkpt lat="43.54206" lon="2.97787">
        <ele>129.4</ele>
        <time>2017-04-16T15:59:26.000Z</time>
      </trkpt>
      <trkpt lat="43.54205" lon="2.97777">
        <ele>128</ele>
        <time>2017-04-16T15:59:27.000Z</time>
      </trkpt>
      <trkpt lat="43.54208" lon="2.97756">
        <ele>125.4</ele>
        <time>2017-04-16T15:59:29.000Z</time>
      </trkpt>
      <trkpt lat="43.54212" lon="2.97749">
        <ele>124</ele>
        <time>2017-04-16T15:59:30.000Z</time>
      </trkpt>
      <trkpt lat="43.54219" lon="2.97755">
        <ele>121.2</ele>
        <time>2017-04-16T15:59:32.000Z</time>
      </trkpt>
      <trkpt lat="43.54223" lon="2.97755">
        <ele>119.8</ele>
        <time>2017-04-16T15:59:33.000Z</time>
      </trkpt>
      <trkpt lat="43.54233" lon="2.97774">
        <ele>117.2</ele>
        <time>2017-04-16T15:59:35.000Z</time>
      </trkpt>
      <trkpt lat="43.54245" lon="2.97793">
        <ele>114.8</ele>
        <time>2017-04-16T15:59:37.000Z</time>
      </trkpt>
      <trkpt lat="43.54256" lon="2.97811">
        <ele>112.2</ele>
        <time>2017-04-16T15:59:39.000Z</time>
      </trkpt>
      <trkpt lat="43.54261" lon="2.97821">
        <ele>110.8</ele>
        <time>2017-04-16T15:59:40.000Z</time>
      </trkpt>
      <trkpt lat="43.54266" lon="2.97831">
        <ele>109.2</ele>
        <time>2017-04-16T15:59:41.000Z</time>
      </trkpt>
      <trkpt lat="43.54271" lon="2.9784">
        <ele>107.6</ele>
        <time>2017-04-16T15:59:42.000Z</time>
      </trkpt>
      <trkpt lat="43.54275" lon="2.97848">
        <ele>105.8</ele>
        <time>2017-04-16T15:59:43.000Z</time>
      </trkpt>
      <trkpt lat="43.54279" lon="2.97857">
        <ele>104</ele>
        <time>2017-04-16T15:59:44.000Z</time>
      </trkpt>
      <trkpt lat="43.54284" lon="2.97865">
        <ele>102.2</ele>
        <time>2017-04-16T15:59:45.000Z</time>
      </trkpt>
      <trkpt lat="43.54289" lon="2.97872">
        <ele>100.4</ele>
        <time>2017-04-16T15:59:46.000Z</time>
      </trkpt>
      <trkpt lat="43.54294" lon="2.97884">
        <ele>96.8</ele>
        <time>2017-04-16T15:59:48.000Z</time>
      </trkpt>
      <trkpt lat="43.54295" lon="2.97889">
        <ele>93.2</ele>
        <time>2017-04-16T15:59:50.000Z</time>
      </trkpt>
      <trkpt lat="43.54295" lon="2.97891">
        <ele>91.8</ele>
        <time>2017-04-16T15:59:51.000Z</time>
      </trkpt>
      <trkpt lat="43.54296" lon="2.97901">
        <ele>87.8</ele>
        <time>2017-04-16T15:59:54.000Z</time>
      </trkpt>
      <trkpt lat="43.54298" lon="2.97905">
        <ele>86.6</ele>
        <time>2017-04-16T15:59:55.000Z</time>
      </trkpt>
      <trkpt lat="43.54302" lon="2.97912">
        <ele>84.4</ele>
        <time>2017-04-16T15:59:57.000Z</time>
      </trkpt>
      <trkpt lat="43.54303" lon="2.97915">
        <ele>83.6</ele>
        <time>2017-04-16T15:59:58.000Z</time>
      </trkpt>
      <trkpt lat="43.54306" lon="2.97916">
        <ele>81.4</ele>
        <time>2017-04-16T16:00:01.000Z</time>
      </trkpt>
      <trkpt lat="43.54304" lon="2.97912">
        <ele>80.2</ele>
        <time>2017-04-16T16:00:03.000Z</time>
      </trkpt>
      <trkpt lat="43.54299" lon="2.97905">
        <ele>78.6</ele>
        <time>2017-04-16T16:00:07.000Z</time>
      </trkpt>
      <trkpt lat="43.54297" lon="2.97902">
        <ele>78</ele>
        <time>2017-04-16T16:00:09.000Z</time>
      </trkpt>
      <trkpt lat="43.54289" lon="2.9789">
        <ele>76.8</ele>
        <time>2017-04-16T16:00:15.000Z</time>
      </trkpt>
      <trkpt lat="43.54289" lon="2.97887">
        <ele>76.4</ele>
        <time>2017-04-16T16:00:18.000Z</time>
      </trkpt>
      <trkpt lat="43.54289" lon="2.97877">
        <ele>76</ele>
        <time>2017-04-16T16:00:23.000Z</time>
      </trkpt>
      <trkpt lat="43.54285" lon="2.97875">
        <ele>75.8</ele>
        <time>2017-04-16T16:00:26.000Z</time>
      </trkpt>
      <trkpt lat="43.54283" lon="2.97872">
        <ele>75.8</ele>
        <time>2017-04-16T16:00:28.000Z</time>
      </trkpt>
      <trkpt lat="43.54282" lon="2.97877">
        <ele>75.6</ele>
        <time>2017-04-16T16:00:32.000Z</time>
      </trkpt>
      <trkpt lat="43.54283" lon="2.97881">
        <ele>75.6</ele>
        <time>2017-04-16T16:00:34.000Z</time>
      </trkpt>
      <trkpt lat="43.54282" lon="2.97883">
        <ele>75.6</ele>
        <time>2017-04-16T16:00:37.000Z</time>
      </trkpt>
      <trkpt lat="43.54283" lon="2.97888">
        <ele>75.4</ele>
        <time>2017-04-16T16:01:03.000Z</time>
      </trkpt>
      <trkpt lat="43.54284" lon="2.97891">
        <ele>75.4</ele>
        <time>2017-04-16T16:01:05.000Z</time>
      </trkpt>
      <trkpt lat="43.54285" lon="2.97893">
        <ele>75.4</ele>
        <time>2017-04-16T16:01:07.000Z</time>
      </trkpt>
      <trkpt lat="43.54294" lon="2.97911">
        <ele>75.4</ele>
        <time>2017-04-16T16:01:15.000Z</time>
      </trkpt>
      <trkpt lat="43.54296" lon="2.97913">
        <ele>75.4</ele>
        <time>2017-04-16T16:01:16.000Z</time>
      </trkpt>
      <trkpt lat="43.54301" lon="2.97923">
        <ele>75.4</ele>
        <time>2017-04-16T16:01:21.000Z</time>
      </trkpt>
      <trkpt lat="43.54313" lon="2.97939">
        <ele>75.4</ele>
        <time>2017-04-16T16:01:27.000Z</time>
      </trkpt>
      <trkpt lat="43.54323" lon="2.97952">
        <ele>75.4</ele>
        <time>2017-04-16T16:01:32.000Z</time>
      </trkpt>
      <trkpt lat="43.54333" lon="2.97974">
        <ele>75.4</ele>
        <time>2017-04-16T16:01:38.000Z</time>
      </trkpt>
      <trkpt lat="43.54365" lon="2.98008">
        <ele>75.4</ele>
        <time>2017-04-16T16:01:47.000Z</time>
      </trkpt>
      <trkpt lat="43.54368" lon="2.98011">
        <ele>75.4</ele>
        <time>2017-04-16T16:01:48.000Z</time>
      </trkpt>
      <trkpt lat="43.54392" lon="2.98037">
        <ele>75.4</ele>
        <time>2017-04-16T16:01:56.000Z</time>
      </trkpt>
      <trkpt lat="43.54414" lon="2.98059">
        <ele>75.4</ele>
        <time>2017-04-16T16:02:03.000Z</time>
      </trkpt>
      <trkpt lat="43.54423" lon="2.9807">
        <ele>75.6</ele>
        <time>2017-04-16T16:02:06.000Z</time>
      </trkpt>
      <trkpt lat="43.54428" lon="2.98076">
        <ele>76</ele>
        <time>2017-04-16T16:02:08.000Z</time>
      </trkpt>
      <trkpt lat="43.54435" lon="2.98081">
        <ele>76.2</ele>
        <time>2017-04-16T16:02:10.000Z</time>
      </trkpt>
      <trkpt lat="43.54441" lon="2.98084">
        <ele>76.4</ele>
        <time>2017-04-16T16:02:12.000Z</time>
      </trkpt>
      <trkpt lat="43.54448" lon="2.98088">
        <ele>76.6</ele>
        <time>2017-04-16T16:02:14.000Z</time>
      </trkpt>
      <trkpt lat="43.54468" lon="2.98107">
        <ele>77</ele>
        <time>2017-04-16T16:02:21.000Z</time>
      </trkpt>
      <trkpt lat="43.54476" lon="2.98118">
        <ele>77.2</ele>
        <time>2017-04-16T16:02:24.000Z</time>
      </trkpt>
      <trkpt lat="43.54482" lon="2.9813">
        <ele>77.2</ele>
        <time>2017-04-16T16:02:27.000Z</time>
      </trkpt>
      <trkpt lat="43.54489" lon="2.98136">
        <ele>77.2</ele>
        <time>2017-04-16T16:02:29.000Z</time>
      </trkpt>
      <trkpt lat="43.545" lon="2.98145">
        <ele>77.4</ele>
        <time>2017-04-16T16:02:32.000Z</time>
      </trkpt>
      <trkpt lat="43.54518" lon="2.98173">
        <ele>77.4</ele>
        <time>2017-04-16T16:02:38.000Z</time>
      </trkpt>
      <trkpt lat="43.54537" lon="2.98189">
        <ele>77.4</ele>
        <time>2017-04-16T16:02:43.000Z</time>
      </trkpt>
      <trkpt lat="43.54541" lon="2.98191">
        <ele>77.4</ele>
        <time>2017-04-16T16:02:44.000Z</time>
      </trkpt>
      <trkpt lat="43.54545" lon="2.98192">
        <ele>77.4</ele>
        <time>2017-04-16T16:02:45.000Z</time>
      </trkpt>
      <trkpt lat="43.54553" lon="2.98194">
        <ele>77.4</ele>
        <time>2017-04-16T16:02:47.000Z</time>
      </trkpt>
      <trkpt lat="43.54573" lon="2.98193">
        <ele>77.4</ele>
        <time>2017-04-16T16:02:52.000Z</time>
      </trkpt>
      <trkpt lat="43.54588" lon="2.98184">
        <ele>77.6</ele>
        <time>2017-04-16T16:02:56.000Z</time>
      </trkpt>
      <trkpt lat="43.54596" lon="2.98177">
        <ele>78</ele>
        <time>2017-04-16T16:02:58.000Z</time>
      </trkpt>
      <trkpt lat="43.54604" lon="2.98171">
        <ele>78.2</ele>
        <time>2017-04-16T16:03:00.000Z</time>
      </trkpt>
      <trkpt lat="43.54612" lon="2.98166">
        <ele>78.6</ele>
        <time>2017-04-16T16:03:02.000Z</time>
      </trkpt>
      <trkpt lat="43.5462" lon="2.98161">
        <ele>78.8</ele>
        <time>2017-04-16T16:03:04.000Z</time>
      </trkpt>
      <trkpt lat="43.54628" lon="2.98156">
        <ele>78.8</ele>
        <time>2017-04-16T16:03:06.000Z</time>
      </trkpt>
      <trkpt lat="43.54651" lon="2.98135">
        <ele>79.2</ele>
        <time>2017-04-16T16:03:12.000Z</time>
      </trkpt>
      <trkpt lat="43.54655" lon="2.98131">
        <ele>79.2</ele>
        <time>2017-04-16T16:03:13.000Z</time>
      </trkpt>
      <trkpt lat="43.54681" lon="2.98102">
        <ele>79.4</ele>
        <time>2017-04-16T16:03:20.000Z</time>
      </trkpt>
      <trkpt lat="43.54691" lon="2.98087">
        <ele>79.4</ele>
        <time>2017-04-16T16:03:23.000Z</time>
      </trkpt>
      <trkpt lat="43.54698" lon="2.98072">
        <ele>79.6</ele>
        <time>2017-04-16T16:03:26.000Z</time>
      </trkpt>
      <trkpt lat="43.54702" lon="2.98061">
        <ele>80</ele>
        <time>2017-04-16T16:03:28.000Z</time>
      </trkpt>
      <trkpt lat="43.54706" lon="2.9805">
        <ele>80.4</ele>
        <time>2017-04-16T16:03:30.000Z</time>
      </trkpt>
      <trkpt lat="43.54709" lon="2.98039">
        <ele>80.6</ele>
        <time>2017-04-16T16:03:32.000Z</time>
      </trkpt>
      <trkpt lat="43.5471" lon="2.98034">
        <ele>80.8</ele>
        <time>2017-04-16T16:03:33.000Z</time>
      </trkpt>
      <trkpt lat="43.5472" lon="2.98001">
        <ele>81.2</ele>
        <time>2017-04-16T16:03:39.000Z</time>
      </trkpt>
      <trkpt lat="43.54727" lon="2.97983">
        <ele>81.4</ele>
        <time>2017-04-16T16:03:43.000Z</time>
      </trkpt>
      <trkpt lat="43.54734" lon="2.97976">
        <ele>81.8</ele>
        <time>2017-04-16T16:03:45.000Z</time>
      </trkpt>
      <trkpt lat="43.54738" lon="2.97973">
        <ele>82</ele>
        <time>2017-04-16T16:03:46.000Z</time>
      </trkpt>
      <trkpt lat="43.54742" lon="2.9797">
        <ele>82.2</ele>
        <time>2017-04-16T16:03:47.000Z</time>
      </trkpt>
      <trkpt lat="43.54756" lon="2.97966">
        <ele>82.8</ele>
        <time>2017-04-16T16:03:50.000Z</time>
      </trkpt>
      <trkpt lat="43.54765" lon="2.97965">
        <ele>83.2</ele>
        <time>2017-04-16T16:03:52.000Z</time>
      </trkpt>
      <trkpt lat="43.54772" lon="2.97963">
        <ele>83.8</ele>
        <time>2017-04-16T16:03:54.000Z</time>
      </trkpt>
      <trkpt lat="43.54778" lon="2.9796">
        <ele>84.2</ele>
        <time>2017-04-16T16:03:56.000Z</time>
      </trkpt>
      <trkpt lat="43.54785" lon="2.97958">
        <ele>84.6</ele>
        <time>2017-04-16T16:03:58.000Z</time>
      </trkpt>
      <trkpt lat="43.54791" lon="2.97955">
        <ele>85</ele>
        <time>2017-04-16T16:04:00.000Z</time>
      </trkpt>
      <trkpt lat="43.54801" lon="2.97951">
        <ele>85.6</ele>
        <time>2017-04-16T16:04:04.000Z</time>
      </trkpt>
      <trkpt lat="43.54807" lon="2.9795">
        <ele>86.2</ele>
        <time>2017-04-16T16:04:06.000Z</time>
      </trkpt>
      <trkpt lat="43.54813" lon="2.97949">
        <ele>86.6</ele>
        <time>2017-04-16T16:04:08.000Z</time>
      </trkpt>
      <trkpt lat="43.54818" lon="2.9795">
        <ele>87</ele>
        <time>2017-04-16T16:04:10.000Z</time>
      </trkpt>
      <trkpt lat="43.54822" lon="2.97952">
        <ele>87.4</ele>
        <time>2017-04-16T16:04:12.000Z</time>
      </trkpt>
      <trkpt lat="43.54826" lon="2.97955">
        <ele>88</ele>
        <time>2017-04-16T16:04:14.000Z</time>
      </trkpt>
      <trkpt lat="43.5483" lon="2.97958">
        <ele>88.4</ele>
        <time>2017-04-16T16:04:16.000Z</time>
      </trkpt>
      <trkpt lat="43.54835" lon="2.97961">
        <ele>88.8</ele>
        <time>2017-04-16T16:04:18.000Z</time>
      </trkpt>
      <trkpt lat="43.5484" lon="2.97966">
        <ele>89.2</ele>
        <time>2017-04-16T16:04:20.000Z</time>
      </trkpt>
      <trkpt lat="43.54853" lon="2.97982">
        <ele>89.6</ele>
        <time>2017-04-16T16:04:25.000Z</time>
      </trkpt>
      <trkpt lat="43.54865" lon="2.97994">
        <ele>90</ele>
        <time>2017-04-16T16:04:31.000Z</time>
      </trkpt>
      <trkpt lat="43.54883" lon="2.9801">
        <ele>90.2</ele>
        <time>2017-04-16T16:04:38.000Z</time>
      </trkpt>
      <trkpt lat="43.54904" lon="2.98025">
        <ele>90.4</ele>
        <time>2017-04-16T16:04:46.000Z</time>
      </trkpt>
      <trkpt lat="43.54909" lon="2.98028">
        <ele>90.4</ele>
        <time>2017-04-16T16:04:48.000Z</time>
      </trkpt>
      <trkpt lat="43.54926" lon="2.98037">
        <ele>90.4</ele>
        <time>2017-04-16T16:04:54.000Z</time>
      </trkpt>
      <trkpt lat="43.5494" lon="2.98047">
        <ele>90.6</ele>
        <time>2017-04-16T16:04:59.000Z</time>
      </trkpt>
      <trkpt lat="43.54946" lon="2.98052">
        <ele>91</ele>
        <time>2017-04-16T16:05:01.000Z</time>
      </trkpt>
      <trkpt lat="43.54952" lon="2.98055">
        <ele>91.2</ele>
        <time>2017-04-16T16:05:03.000Z</time>
      </trkpt>
      <trkpt lat="43.54958" lon="2.98059">
        <ele>91.4</ele>
        <time>2017-04-16T16:05:05.000Z</time>
      </trkpt>
      <trkpt lat="43.54965" lon="2.98063">
        <ele>91.6</ele>
        <time>2017-04-16T16:05:07.000Z</time>
      </trkpt>
      <trkpt lat="43.54986" lon="2.98079">
        <ele>92</ele>
        <time>2017-04-16T16:05:14.000Z</time>
      </trkpt>
      <trkpt lat="43.55003" lon="2.98092">
        <ele>92.2</ele>
        <time>2017-04-16T16:05:20.000Z</time>
      </trkpt>
      <trkpt lat="43.55005" lon="2.98094">
        <ele>92.4</ele>
        <time>2017-04-16T16:05:21.000Z</time>
      </trkpt>
      <trkpt lat="43.5501" lon="2.98099">
        <ele>92.8</ele>
        <time>2017-04-16T16:05:23.000Z</time>
      </trkpt>
      <trkpt lat="43.55015" lon="2.98105">
        <ele>93.2</ele>
        <time>2017-04-16T16:05:25.000Z</time>
      </trkpt>
      <trkpt lat="43.5502" lon="2.98112">
        <ele>93.4</ele>
        <time>2017-04-16T16:05:27.000Z</time>
      </trkpt>
      <trkpt lat="43.55025" lon="2.98118">
        <ele>93.6</ele>
        <time>2017-04-16T16:05:29.000Z</time>
      </trkpt>
      <trkpt lat="43.55039" lon="2.98138">
        <ele>94</ele>
        <time>2017-04-16T16:05:34.000Z</time>
      </trkpt>
      <trkpt lat="43.55042" lon="2.98152">
        <ele>94.4</ele>
        <time>2017-04-16T16:05:38.000Z</time>
      </trkpt>
      <trkpt lat="43.55043" lon="2.98161">
        <ele>94.8</ele>
        <time>2017-04-16T16:05:40.000Z</time>
      </trkpt>
      <trkpt lat="43.55045" lon="2.98171">
        <ele>95.2</ele>
        <time>2017-04-16T16:05:42.000Z</time>
      </trkpt>
      <trkpt lat="43.5505" lon="2.98181">
        <ele>95.4</ele>
        <time>2017-04-16T16:05:44.000Z</time>
      </trkpt>
      <trkpt lat="43.55054" lon="2.98191">
        <ele>95.6</ele>
        <time>2017-04-16T16:05:46.000Z</time>
      </trkpt>
      <trkpt lat="43.55055" lon="2.98201">
        <ele>96</ele>
        <time>2017-04-16T16:05:48.000Z</time>
      </trkpt>
      <trkpt lat="43.55055" lon="2.98211">
        <ele>96.6</ele>
        <time>2017-04-16T16:05:50.000Z</time>
      </trkpt>
      <trkpt lat="43.55055" lon="2.9822">
        <ele>97</ele>
        <time>2017-04-16T16:05:52.000Z</time>
      </trkpt>
      <trkpt lat="43.55057" lon="2.9823">
        <ele>97.4</ele>
        <time>2017-04-16T16:05:54.000Z</time>
      </trkpt>
      <trkpt lat="43.55058" lon="2.98239">
        <ele>97.8</ele>
        <time>2017-04-16T16:05:56.000Z</time>
      </trkpt>
      <trkpt lat="43.55059" lon="2.98248">
        <ele>98.4</ele>
        <time>2017-04-16T16:05:58.000Z</time>
      </trkpt>
      <trkpt lat="43.55062" lon="2.98256">
        <ele>98.8</ele>
        <time>2017-04-16T16:06:00.000Z</time>
      </trkpt>
      <trkpt lat="43.55068" lon="2.98261">
        <ele>99.2</ele>
        <time>2017-04-16T16:06:02.000Z</time>
      </trkpt>
      <trkpt lat="43.55073" lon="2.98262">
        <ele>99.6</ele>
        <time>2017-04-16T16:06:04.000Z</time>
      </trkpt>
      <trkpt lat="43.5508" lon="2.98261">
        <ele>100</ele>
        <time>2017-04-16T16:06:06.000Z</time>
      </trkpt>
      <trkpt lat="43.55087" lon="2.98258">
        <ele>100.6</ele>
        <time>2017-04-16T16:06:08.000Z</time>
      </trkpt>
      <trkpt lat="43.55096" lon="2.98255">
        <ele>101.2</ele>
        <time>2017-04-16T16:06:10.000Z</time>
      </trkpt>
      <trkpt lat="43.55103" lon="2.98251">
        <ele>101.6</ele>
        <time>2017-04-16T16:06:12.000Z</time>
      </trkpt>
      <trkpt lat="43.55109" lon="2.98246">
        <ele>101.8</ele>
        <time>2017-04-16T16:06:14.000Z</time>
      </trkpt>
      <trkpt lat="43.55124" lon="2.98236">
        <ele>102.4</ele>
        <time>2017-04-16T16:06:19.000Z</time>
      </trkpt>
      <trkpt lat="43.55127" lon="2.98233">
        <ele>102.8</ele>
        <time>2017-04-16T16:06:20.000Z</time>
      </trkpt>
      <trkpt lat="43.55133" lon="2.98229">
        <ele>103.2</ele>
        <time>2017-04-16T16:06:22.000Z</time>
      </trkpt>
      <trkpt lat="43.55138" lon="2.98224">
        <ele>103.6</ele>
        <time>2017-04-16T16:06:24.000Z</time>
      </trkpt>
      <trkpt lat="43.55144" lon="2.98219">
        <ele>104</ele>
        <time>2017-04-16T16:06:26.000Z</time>
      </trkpt>
      <trkpt lat="43.55149" lon="2.98214">
        <ele>104.4</ele>
        <time>2017-04-16T16:06:28.000Z</time>
      </trkpt>
      <trkpt lat="43.55166" lon="2.98203">
        <ele>105</ele>
        <time>2017-04-16T16:06:34.000Z</time>
      </trkpt>
      <trkpt lat="43.55189" lon="2.98192">
        <ele>105.2</ele>
        <time>2017-04-16T16:06:41.000Z</time>
      </trkpt>
      <trkpt lat="43.5521" lon="2.98187">
        <ele>105.6</ele>
        <time>2017-04-16T16:06:47.000Z</time>
      </trkpt>
      <trkpt lat="43.55215" lon="2.98186">
        <ele>106</ele>
        <time>2017-04-16T16:06:49.000Z</time>
      </trkpt>
      <trkpt lat="43.55222" lon="2.98184">
        <ele>106.4</ele>
        <time>2017-04-16T16:06:51.000Z</time>
      </trkpt>
      <trkpt lat="43.55229" lon="2.9818">
        <ele>106.6</ele>
        <time>2017-04-16T16:06:53.000Z</time>
      </trkpt>
      <trkpt lat="43.55236" lon="2.98177">
        <ele>106.8</ele>
        <time>2017-04-16T16:06:55.000Z</time>
      </trkpt>
      <trkpt lat="43.55254" lon="2.98164">
        <ele>107.2</ele>
        <time>2017-04-16T16:07:01.000Z</time>
      </trkpt>
      <trkpt lat="43.5526" lon="2.98159">
        <ele>107.6</ele>
        <time>2017-04-16T16:07:03.000Z</time>
      </trkpt>
      <trkpt lat="43.55264" lon="2.98152">
        <ele>108</ele>
        <time>2017-04-16T16:07:05.000Z</time>
      </trkpt>
      <trkpt lat="43.55269" lon="2.98146">
        <ele>108.4</ele>
        <time>2017-04-16T16:07:07.000Z</time>
      </trkpt>
      <trkpt lat="43.55273" lon="2.9814">
        <ele>108.6</ele>
        <time>2017-04-16T16:07:09.000Z</time>
      </trkpt>
      <trkpt lat="43.55278" lon="2.98133">
        <ele>109</ele>
        <time>2017-04-16T16:07:11.000Z</time>
      </trkpt>
      <trkpt lat="43.55295" lon="2.98117">
        <ele>109.4</ele>
        <time>2017-04-16T16:07:18.000Z</time>
      </trkpt>
      <trkpt lat="43.55306" lon="2.98116">
        <ele>109.8</ele>
        <time>2017-04-16T16:07:21.000Z</time>
      </trkpt>
      <trkpt lat="43.55312" lon="2.98118">
        <ele>110.2</ele>
        <time>2017-04-16T16:07:23.000Z</time>
      </trkpt>
      <trkpt lat="43.55318" lon="2.98124">
        <ele>110.6</ele>
        <time>2017-04-16T16:07:25.000Z</time>
      </trkpt>
      <trkpt lat="43.55324" lon="2.98132">
        <ele>110.8</ele>
        <time>2017-04-16T16:07:27.000Z</time>
      </trkpt>
      <trkpt lat="43.5533" lon="2.9814">
        <ele>111</ele>
        <time>2017-04-16T16:07:29.000Z</time>
      </trkpt>
      <trkpt lat="43.55346" lon="2.98158">
        <ele>111.4</ele>
        <time>2017-04-16T16:07:33.000Z</time>
      </trkpt>
      <trkpt lat="43.55367" lon="2.98183">
        <ele>111.6</ele>
        <time>2017-04-16T16:07:39.000Z</time>
      </trkpt>
      <trkpt lat="43.55371" lon="2.98188">
        <ele>111.4</ele>
        <time>2017-04-16T16:07:40.000Z</time>
      </trkpt>
      <trkpt lat="43.55376" lon="2.98193">
        <ele>111.2</ele>
        <time>2017-04-16T16:07:41.000Z</time>
      </trkpt>
      <trkpt lat="43.55384" lon="2.98203">
        <ele>111</ele>
        <time>2017-04-16T16:07:43.000Z</time>
      </trkpt>
      <trkpt lat="43.55388" lon="2.98208">
        <ele>110.8</ele>
        <time>2017-04-16T16:07:44.000Z</time>
      </trkpt>
      <trkpt lat="43.55392" lon="2.98214">
        <ele>110.8</ele>
        <time>2017-04-16T16:07:45.000Z</time>
      </trkpt>
      <trkpt lat="43.55401" lon="2.98227">
        <ele>110.6</ele>
        <time>2017-04-16T16:07:47.000Z</time>
      </trkpt>
      <trkpt lat="43.5543" lon="2.98261">
        <ele>110.2</ele>
        <time>2017-04-16T16:07:53.000Z</time>
      </trkpt>
      <trkpt lat="43.55435" lon="2.98266">
        <ele>110</ele>
        <time>2017-04-16T16:07:54.000Z</time>
      </trkpt>
      <trkpt lat="43.55445" lon="2.98276">
        <ele>109.6</ele>
        <time>2017-04-16T16:07:56.000Z</time>
      </trkpt>
      <trkpt lat="43.55455" lon="2.98285">
        <ele>109.2</ele>
        <time>2017-04-16T16:07:58.000Z</time>
      </trkpt>
      <trkpt lat="43.55466" lon="2.98294">
        <ele>109</ele>
        <time>2017-04-16T16:08:00.000Z</time>
      </trkpt>
      <trkpt lat="43.55476" lon="2.98302">
        <ele>108.8</ele>
        <time>2017-04-16T16:08:02.000Z</time>
      </trkpt>
      <trkpt lat="43.5549" lon="2.98313">
        <ele>108.4</ele>
        <time>2017-04-16T16:08:05.000Z</time>
      </trkpt>
      <trkpt lat="43.55506" lon="2.9832">
        <ele>108</ele>
        <time>2017-04-16T16:08:08.000Z</time>
      </trkpt>
      <trkpt lat="43.55519" lon="2.98324">
        <ele>107.6</ele>
        <time>2017-04-16T16:08:10.000Z</time>
      </trkpt>
      <trkpt lat="43.55525" lon="2.98327">
        <ele>107.4</ele>
        <time>2017-04-16T16:08:11.000Z</time>
      </trkpt>
      <trkpt lat="43.55542" lon="2.98339">
        <ele>107</ele>
        <time>2017-04-16T16:08:14.000Z</time>
      </trkpt>
      <trkpt lat="43.55552" lon="2.98347">
        <ele>106.6</ele>
        <time>2017-04-16T16:08:16.000Z</time>
      </trkpt>
      <trkpt lat="43.55557" lon="2.9835">
        <ele>106.6</ele>
        <time>2017-04-16T16:08:17.000Z</time>
      </trkpt>
      <trkpt lat="43.55575" lon="2.98356">
        <ele>106.4</ele>
        <time>2017-04-16T16:08:20.000Z</time>
      </trkpt>
      <trkpt lat="43.55589" lon="2.98355">
        <ele>106.2</ele>
        <time>2017-04-16T16:08:22.000Z</time>
      </trkpt>
      <trkpt lat="43.55606" lon="2.98349">
        <ele>105.8</ele>
        <time>2017-04-16T16:08:25.000Z</time>
      </trkpt>
      <trkpt lat="43.55618" lon="2.98345">
        <ele>105.4</ele>
        <time>2017-04-16T16:08:27.000Z</time>
      </trkpt>
      <trkpt lat="43.55631" lon="2.98341">
        <ele>105</ele>
        <time>2017-04-16T16:08:29.000Z</time>
      </trkpt>
      <trkpt lat="43.55637" lon="2.98339">
        <ele>104.8</ele>
        <time>2017-04-16T16:08:30.000Z</time>
      </trkpt>
      <trkpt lat="43.55656" lon="2.98339">
        <ele>104.4</ele>
        <time>2017-04-16T16:08:33.000Z</time>
      </trkpt>
      <trkpt lat="43.55668" lon="2.9834">
        <ele>104.2</ele>
        <time>2017-04-16T16:08:35.000Z</time>
      </trkpt>
      <trkpt lat="43.55679" lon="2.9834">
        <ele>103.8</ele>
        <time>2017-04-16T16:08:37.000Z</time>
      </trkpt>
      <trkpt lat="43.55685" lon="2.9834">
        <ele>103.6</ele>
        <time>2017-04-16T16:08:38.000Z</time>
      </trkpt>
      <trkpt lat="43.55703" lon="2.98342">
        <ele>103</ele>
        <time>2017-04-16T16:08:41.000Z</time>
      </trkpt>
      <trkpt lat="43.55708" lon="2.98344">
        <ele>102.8</ele>
        <time>2017-04-16T16:08:42.000Z</time>
      </trkpt>
      <trkpt lat="43.55724" lon="2.98352">
        <ele>102.4</ele>
        <time>2017-04-16T16:08:45.000Z</time>
      </trkpt>
      <trkpt lat="43.55728" lon="2.98357">
        <ele>102.4</ele>
        <time>2017-04-16T16:08:46.000Z</time>
      </trkpt>
      <trkpt lat="43.55752" lon="2.98362">
        <ele>102</ele>
        <time>2017-04-16T16:08:50.000Z</time>
      </trkpt>
      <trkpt lat="43.5576" lon="2.98348">
        <ele>101.8</ele>
        <time>2017-04-16T16:08:52.000Z</time>
      </trkpt>
      <trkpt lat="43.55769" lon="2.98322">
        <ele>101.8</ele>
        <time>2017-04-16T16:08:55.000Z</time>
      </trkpt>
      <trkpt lat="43.55785" lon="2.98307">
        <ele>101.4</ele>
        <time>2017-04-16T16:08:58.000Z</time>
      </trkpt>
      <trkpt lat="43.55798" lon="2.98304">
        <ele>101</ele>
        <time>2017-04-16T16:09:00.000Z</time>
      </trkpt>
      <trkpt lat="43.55805" lon="2.98303">
        <ele>100.8</ele>
        <time>2017-04-16T16:09:01.000Z</time>
      </trkpt>
      <trkpt lat="43.55811" lon="2.983">
        <ele>100.6</ele>
        <time>2017-04-16T16:09:02.000Z</time>
      </trkpt>
      <trkpt lat="43.55817" lon="2.98296">
        <ele>100.6</ele>
        <time>2017-04-16T16:09:03.000Z</time>
      </trkpt>
      <trkpt lat="43.55822" lon="2.9829">
        <ele>100.4</ele>
        <time>2017-04-16T16:09:04.000Z</time>
      </trkpt>
      <trkpt lat="43.5583" lon="2.9828">
        <ele>100</ele>
        <time>2017-04-16T16:09:06.000Z</time>
      </trkpt>
      <trkpt lat="43.55834" lon="2.98273">
        <ele>99.8</ele>
        <time>2017-04-16T16:09:07.000Z</time>
      </trkpt>
      <trkpt lat="43.55838" lon="2.98266">
        <ele>99.4</ele>
        <time>2017-04-16T16:09:08.000Z</time>
      </trkpt>
      <trkpt lat="43.55847" lon="2.98251">
        <ele>99</ele>
        <time>2017-04-16T16:09:10.000Z</time>
      </trkpt>
      <trkpt lat="43.55854" lon="2.98237">
        <ele>98.6</ele>
        <time>2017-04-16T16:09:12.000Z</time>
      </trkpt>
      <trkpt lat="43.55858" lon="2.9823">
        <ele>98.6</ele>
        <time>2017-04-16T16:09:13.000Z</time>
      </trkpt>
      <trkpt lat="43.5588" lon="2.98208">
        <ele>98</ele>
        <time>2017-04-16T16:09:17.000Z</time>
      </trkpt>
      <trkpt lat="43.55887" lon="2.98205">
        <ele>98</ele>
        <time>2017-04-16T16:09:18.000Z</time>
      </trkpt>
      <trkpt lat="43.55907" lon="2.98183">
        <ele>97.6</ele>
        <time>2017-04-16T16:09:22.000Z</time>
      </trkpt>
      <trkpt lat="43.55932" lon="2.98137">
        <ele>97.2</ele>
        <time>2017-04-16T16:09:28.000Z</time>
      </trkpt>
      <trkpt lat="43.55941" lon="2.98121">
        <ele>96.8</ele>
        <time>2017-04-16T16:09:30.000Z</time>
      </trkpt>
      <trkpt lat="43.55948" lon="2.98106">
        <ele>96.4</ele>
        <time>2017-04-16T16:09:32.000Z</time>
      </trkpt>
      <trkpt lat="43.55956" lon="2.9809">
        <ele>96.2</ele>
        <time>2017-04-16T16:09:34.000Z</time>
      </trkpt>
      <trkpt lat="43.5596" lon="2.98082">
        <ele>96</ele>
        <time>2017-04-16T16:09:35.000Z</time>
      </trkpt>
      <trkpt lat="43.55988" lon="2.9803">
        <ele>95.6</ele>
        <time>2017-04-16T16:09:42.000Z</time>
      </trkpt>
      <trkpt lat="43.56002" lon="2.98009">
        <ele>95.2</ele>
        <time>2017-04-16T16:09:45.000Z</time>
      </trkpt>
      <trkpt lat="43.56011" lon="2.97997">
        <ele>94.6</ele>
        <time>2017-04-16T16:09:47.000Z</time>
      </trkpt>
      <trkpt lat="43.56021" lon="2.97985">
        <ele>94.4</ele>
        <time>2017-04-16T16:09:49.000Z</time>
      </trkpt>
      <trkpt lat="43.56026" lon="2.97979">
        <ele>94.2</ele>
        <time>2017-04-16T16:09:50.000Z</time>
      </trkpt>
      <trkpt lat="43.56036" lon="2.97959">
        <ele>93.8</ele>
        <time>2017-04-16T16:09:53.000Z</time>
      </trkpt>
      <trkpt lat="43.56045" lon="2.97937">
        <ele>93.6</ele>
        <time>2017-04-16T16:09:56.000Z</time>
      </trkpt>
      <trkpt lat="43.56057" lon="2.97879">
        <ele>93.2</ele>
        <time>2017-04-16T16:10:03.000Z</time>
      </trkpt>
      <trkpt lat="43.56055" lon="2.97825">
        <ele>92.8</ele>
        <time>2017-04-16T16:10:09.000Z</time>
      </trkpt>
      <trkpt lat="43.56054" lon="2.97806">
        <ele>92.2</ele>
        <time>2017-04-16T16:10:11.000Z</time>
      </trkpt>
      <trkpt lat="43.56053" lon="2.97787">
        <ele>92</ele>
        <time>2017-04-16T16:10:13.000Z</time>
      </trkpt>
      <trkpt lat="43.56053" lon="2.97769">
        <ele>91.6</ele>
        <time>2017-04-16T16:10:15.000Z</time>
      </trkpt>
      <trkpt lat="43.56054" lon="2.9775">
        <ele>91.4</ele>
        <time>2017-04-16T16:10:17.000Z</time>
      </trkpt>
      <trkpt lat="43.56056" lon="2.97733">
        <ele>91.2</ele>
        <time>2017-04-16T16:10:19.000Z</time>
      </trkpt>
      <trkpt lat="43.56059" lon="2.9771">
        <ele>91</ele>
        <time>2017-04-16T16:10:22.000Z</time>
      </trkpt>
      <trkpt lat="43.56068" lon="2.97684">
        <ele>90.8</ele>
        <time>2017-04-16T16:10:26.000Z</time>
      </trkpt>
      <trkpt lat="43.56085" lon="2.97667">
        <ele>90.6</ele>
        <time>2017-04-16T16:10:30.000Z</time>
      </trkpt>
      <trkpt lat="43.56113" lon="2.97651">
        <ele>90.6</ele>
        <time>2017-04-16T16:10:36.000Z</time>
      </trkpt>
      <trkpt lat="43.56119" lon="2.97648">
        <ele>90.4</ele>
        <time>2017-04-16T16:10:37.000Z</time>
      </trkpt>
      <trkpt lat="43.56128" lon="2.97645">
        <ele>90</ele>
        <time>2017-04-16T16:10:39.000Z</time>
      </trkpt>
      <trkpt lat="43.56137" lon="2.97642">
        <ele>89.6</ele>
        <time>2017-04-16T16:10:41.000Z</time>
      </trkpt>
      <trkpt lat="43.56146" lon="2.97638">
        <ele>89.4</ele>
        <time>2017-04-16T16:10:43.000Z</time>
      </trkpt>
      <trkpt lat="43.56156" lon="2.97635">
        <ele>89.2</ele>
        <time>2017-04-16T16:10:45.000Z</time>
      </trkpt>
      <trkpt lat="43.56188" lon="2.97622">
        <ele>88.8</ele>
        <time>2017-04-16T16:10:52.000Z</time>
      </trkpt>
      <trkpt lat="43.56204" lon="2.97615">
        <ele>88.8</ele>
        <time>2017-04-16T16:10:56.000Z</time>
      </trkpt>
      <trkpt lat="43.56212" lon="2.97611">
        <ele>89.2</ele>
        <time>2017-04-16T16:10:58.000Z</time>
      </trkpt>
      <trkpt lat="43.5622" lon="2.97608">
        <ele>89.4</ele>
        <time>2017-04-16T16:11:00.000Z</time>
      </trkpt>
      <trkpt lat="43.56229" lon="2.97604">
        <ele>89.6</ele>
        <time>2017-04-16T16:11:02.000Z</time>
      </trkpt>
      <trkpt lat="43.56236" lon="2.97601">
        <ele>89.8</ele>
        <time>2017-04-16T16:11:04.000Z</time>
      </trkpt>
      <trkpt lat="43.56255" lon="2.97591">
        <ele>90</ele>
        <time>2017-04-16T16:11:10.000Z</time>
      </trkpt>
      <trkpt lat="43.56267" lon="2.97585">
        <ele>90.2</ele>
        <time>2017-04-16T16:11:14.000Z</time>
      </trkpt>
      <trkpt lat="43.56285" lon="2.97576">
        <ele>90.2</ele>
        <time>2017-04-16T16:11:20.000Z</time>
      </trkpt>
      <trkpt lat="43.56291" lon="2.97573">
        <ele>90.4</ele>
        <time>2017-04-16T16:11:22.000Z</time>
      </trkpt>
      <trkpt lat="43.56294" lon="2.97571">
        <ele>90.6</ele>
        <time>2017-04-16T16:11:23.000Z</time>
      </trkpt>
      <trkpt lat="43.56297" lon="2.97569">
        <ele>90.8</ele>
        <time>2017-04-16T16:11:24.000Z</time>
      </trkpt>
      <trkpt lat="43.56303" lon="2.97566">
        <ele>91.2</ele>
        <time>2017-04-16T16:11:26.000Z</time>
      </trkpt>
      <trkpt lat="43.56308" lon="2.97563">
        <ele>91.4</ele>
        <time>2017-04-16T16:11:28.000Z</time>
      </trkpt>
      <trkpt lat="43.56313" lon="2.9756">
        <ele>91.6</ele>
        <time>2017-04-16T16:11:30.000Z</time>
      </trkpt>
      <trkpt lat="43.56329" lon="2.97555">
        <ele>92</ele>
        <time>2017-04-16T16:11:35.000Z</time>
      </trkpt>
      <trkpt lat="43.56344" lon="2.97549">
        <ele>92.2</ele>
        <time>2017-04-16T16:11:40.000Z</time>
      </trkpt>
      <trkpt lat="43.56354" lon="2.97543">
        <ele>92.4</ele>
        <time>2017-04-16T16:11:43.000Z</time>
      </trkpt>
      <trkpt lat="43.56356" lon="2.97543">
        <ele>92.8</ele>
        <time>2017-04-16T16:11:45.000Z</time>
      </trkpt>
      <trkpt lat="43.56357" lon="2.97543">
        <ele>93.2</ele>
        <time>2017-04-16T16:11:47.000Z</time>
      </trkpt>
      <trkpt lat="43.56357" lon="2.97542">
        <ele>93.4</ele>
        <time>2017-04-16T16:11:49.000Z</time>
      </trkpt>
      <trkpt lat="43.56358" lon="2.97541">
        <ele>93.6</ele>
        <time>2017-04-16T16:11:51.000Z</time>
      </trkpt>
      <trkpt lat="43.56358" lon="2.9754">
        <ele>93.8</ele>
        <time>2017-04-16T16:11:53.000Z</time>
      </trkpt>
      <trkpt lat="43.56369" lon="2.97525">
        <ele>94.2</ele>
        <time>2017-04-16T16:11:59.000Z</time>
      </trkpt>
      <trkpt lat="43.56385" lon="2.97511">
        <ele>94.4</ele>
        <time>2017-04-16T16:12:03.000Z</time>
      </trkpt>
      <trkpt lat="43.56396" lon="2.97507">
        <ele>94.4</ele>
        <time>2017-04-16T16:12:05.000Z</time>
      </trkpt>
      <trkpt lat="43.56423" lon="2.97497">
        <ele>94.4</ele>
        <time>2017-04-16T16:12:10.000Z</time>
      </trkpt>
      <trkpt lat="43.56449" lon="2.97478">
        <ele>94.6</ele>
        <time>2017-04-16T16:12:16.000Z</time>
      </trkpt>
      <trkpt lat="43.5647" lon="2.97461">
        <ele>94.6</ele>
        <time>2017-04-16T16:12:21.000Z</time>
      </trkpt>
      <trkpt lat="43.56483" lon="2.97449">
        <ele>94.6</ele>
        <time>2017-04-16T16:12:24.000Z</time>
      </trkpt>
      <trkpt lat="43.56509" lon="2.97425">
        <ele>94.6</ele>
        <time>2017-04-16T16:12:30.000Z</time>
      </trkpt>
      <trkpt lat="43.56528" lon="2.97408">
        <ele>94.6</ele>
        <time>2017-04-16T16:12:36.000Z</time>
      </trkpt>
      <trkpt lat="43.56533" lon="2.97403">
        <ele>94.8</ele>
        <time>2017-04-16T16:12:38.000Z</time>
      </trkpt>
      <trkpt lat="43.56538" lon="2.97398">
        <ele>95.2</ele>
        <time>2017-04-16T16:12:40.000Z</time>
      </trkpt>
      <trkpt lat="43.56543" lon="2.97393">
        <ele>95.6</ele>
        <time>2017-04-16T16:12:42.000Z</time>
      </trkpt>
      <trkpt lat="43.56548" lon="2.9739">
        <ele>95.8</ele>
        <time>2017-04-16T16:12:44.000Z</time>
      </trkpt>
      <trkpt lat="43.5655" lon="2.97389">
        <ele>96.2</ele>
        <time>2017-04-16T16:12:45.000Z</time>
      </trkpt>
      <trkpt lat="43.56554" lon="2.97384">
        <ele>96.6</ele>
        <time>2017-04-16T16:12:47.000Z</time>
      </trkpt>
      <trkpt lat="43.56557" lon="2.97379">
        <ele>97.2</ele>
        <time>2017-04-16T16:12:49.000Z</time>
      </trkpt>
      <trkpt lat="43.56559" lon="2.97374">
        <ele>97.4</ele>
        <time>2017-04-16T16:12:51.000Z</time>
      </trkpt>
      <trkpt lat="43.56559" lon="2.97365">
        <ele>97.8</ele>
        <time>2017-04-16T16:12:53.000Z</time>
      </trkpt>
      <trkpt lat="43.56556" lon="2.97332">
        <ele>98.4</ele>
        <time>2017-04-16T16:12:59.000Z</time>
      </trkpt>
      <trkpt lat="43.56552" lon="2.97292">
        <ele>98.8</ele>
        <time>2017-04-16T16:13:07.000Z</time>
      </trkpt>
      <trkpt lat="43.56551" lon="2.97283">
        <ele>99</ele>
        <time>2017-04-16T16:13:09.000Z</time>
      </trkpt>
      <trkpt lat="43.56551" lon="2.97273">
        <ele>99.4</ele>
        <time>2017-04-16T16:13:11.000Z</time>
      </trkpt>
      <trkpt lat="43.56552" lon="2.97263">
        <ele>99.6</ele>
        <time>2017-04-16T16:13:13.000Z</time>
      </trkpt>
      <trkpt lat="43.56554" lon="2.97252">
        <ele>100</ele>
        <time>2017-04-16T16:13:15.000Z</time>
      </trkpt>
      <trkpt lat="43.56556" lon="2.97242">
        <ele>100.2</ele>
        <time>2017-04-16T16:13:17.000Z</time>
      </trkpt>
      <trkpt lat="43.56566" lon="2.97195">
        <ele>101</ele>
        <time>2017-04-16T16:13:26.000Z</time>
      </trkpt>
      <trkpt lat="43.56567" lon="2.97185">
        <ele>101.4</ele>
        <time>2017-04-16T16:13:28.000Z</time>
      </trkpt>
      <trkpt lat="43.56569" lon="2.97174">
        <ele>101.6</ele>
        <time>2017-04-16T16:13:30.000Z</time>
      </trkpt>
      <trkpt lat="43.5657" lon="2.97165">
        <ele>102</ele>
        <time>2017-04-16T16:13:32.000Z</time>
      </trkpt>
      <trkpt lat="43.56571" lon="2.97155">
        <ele>102.2</ele>
        <time>2017-04-16T16:13:34.000Z</time>
      </trkpt>
      <trkpt lat="43.56574" lon="2.9713">
        <ele>102.6</ele>
        <time>2017-04-16T16:13:39.000Z</time>
      </trkpt>
      <trkpt lat="43.56575" lon="2.97126">
        <ele>102.8</ele>
        <time>2017-04-16T16:13:40.000Z</time>
      </trkpt>
      <trkpt lat="43.56577" lon="2.97116">
        <ele>103.2</ele>
        <time>2017-04-16T16:13:42.000Z</time>
      </trkpt>
      <trkpt lat="43.56579" lon="2.97106">
        <ele>103.6</ele>
        <time>2017-04-16T16:13:44.000Z</time>
      </trkpt>
      <trkpt lat="43.56581" lon="2.97096">
        <ele>104</ele>
        <time>2017-04-16T16:13:46.000Z</time>
      </trkpt>
      <trkpt lat="43.56582" lon="2.97086">
        <ele>104.2</ele>
        <time>2017-04-16T16:13:48.000Z</time>
      </trkpt>
      <trkpt lat="43.5658" lon="2.97049">
        <ele>104.8</ele>
        <time>2017-04-16T16:13:55.000Z</time>
      </trkpt>
      <trkpt lat="43.56581" lon="2.97044">
        <ele>105.2</ele>
        <time>2017-04-16T16:13:56.000Z</time>
      </trkpt>
      <trkpt lat="43.56581" lon="2.97035">
        <ele>105.6</ele>
        <time>2017-04-16T16:13:58.000Z</time>
      </trkpt>
      <trkpt lat="43.56582" lon="2.97024">
        <ele>106</ele>
        <time>2017-04-16T16:14:00.000Z</time>
      </trkpt>
      <trkpt lat="43.56582" lon="2.97014">
        <ele>106.2</ele>
        <time>2017-04-16T16:14:02.000Z</time>
      </trkpt>
      <trkpt lat="43.56581" lon="2.97004">
        <ele>106.4</ele>
        <time>2017-04-16T16:14:04.000Z</time>
      </trkpt>
      <trkpt lat="43.56576" lon="2.96965">
        <ele>107</ele>
        <time>2017-04-16T16:14:11.000Z</time>
      </trkpt>
      <trkpt lat="43.56583" lon="2.96928">
        <ele>107.2</ele>
        <time>2017-04-16T16:14:18.000Z</time>
      </trkpt>
      <trkpt lat="43.56588" lon="2.96904">
        <ele>107.6</ele>
        <time>2017-04-16T16:14:23.000Z</time>
      </trkpt>
      <trkpt lat="43.56589" lon="2.96894">
        <ele>107.8</ele>
        <time>2017-04-16T16:14:25.000Z</time>
      </trkpt>
      <trkpt lat="43.56591" lon="2.96885">
        <ele>108.2</ele>
        <time>2017-04-16T16:14:27.000Z</time>
      </trkpt>
      <trkpt lat="43.56595" lon="2.96876">
        <ele>108.4</ele>
        <time>2017-04-16T16:14:29.000Z</time>
      </trkpt>
      <trkpt lat="43.56598" lon="2.96867">
        <ele>108.6</ele>
        <time>2017-04-16T16:14:31.000Z</time>
      </trkpt>
      <trkpt lat="43.56604" lon="2.96833">
        <ele>109</ele>
        <time>2017-04-16T16:14:38.000Z</time>
      </trkpt>
      <trkpt lat="43.56612" lon="2.9681">
        <ele>109.4</ele>
        <time>2017-04-16T16:14:43.000Z</time>
      </trkpt>
      <trkpt lat="43.56616" lon="2.96799">
        <ele>109.8</ele>
        <time>2017-04-16T16:14:45.000Z</time>
      </trkpt>
      <trkpt lat="43.5662" lon="2.96791">
        <ele>110.2</ele>
        <time>2017-04-16T16:14:47.000Z</time>
      </trkpt>
      <trkpt lat="43.56624" lon="2.96783">
        <ele>110.4</ele>
        <time>2017-04-16T16:14:49.000Z</time>
      </trkpt>
      <trkpt lat="43.56627" lon="2.96774">
        <ele>110.6</ele>
        <time>2017-04-16T16:14:51.000Z</time>
      </trkpt>
      <trkpt lat="43.56636" lon="2.96746">
        <ele>111</ele>
        <time>2017-04-16T16:14:57.000Z</time>
      </trkpt>
      <trkpt lat="43.56649" lon="2.96708">
        <ele>111.4</ele>
        <time>2017-04-16T16:15:05.000Z</time>
      </trkpt>
      <trkpt lat="43.56654" lon="2.96694">
        <ele>111.4</ele>
        <time>2017-04-16T16:15:08.000Z</time>
      </trkpt>
      <trkpt lat="43.56656" lon="2.96689">
        <ele>111.6</ele>
        <time>2017-04-16T16:15:09.000Z</time>
      </trkpt>
      <trkpt lat="43.56659" lon="2.9668">
        <ele>112</ele>
        <time>2017-04-16T16:15:11.000Z</time>
      </trkpt>
      <trkpt lat="43.56662" lon="2.96671">
        <ele>112.4</ele>
        <time>2017-04-16T16:15:13.000Z</time>
      </trkpt>
      <trkpt lat="43.56666" lon="2.96662">
        <ele>112.6</ele>
        <time>2017-04-16T16:15:15.000Z</time>
      </trkpt>
      <trkpt lat="43.56669" lon="2.96653">
        <ele>112.8</ele>
        <time>2017-04-16T16:15:17.000Z</time>
      </trkpt>
      <trkpt lat="43.56676" lon="2.96625">
        <ele>113.4</ele>
        <time>2017-04-16T16:15:23.000Z</time>
      </trkpt>
      <trkpt lat="43.56677" lon="2.96616">
        <ele>113.8</ele>
        <time>2017-04-16T16:15:25.000Z</time>
      </trkpt>
      <trkpt lat="43.56678" lon="2.96607">
        <ele>114.2</ele>
        <time>2017-04-16T16:15:27.000Z</time>
      </trkpt>
      <trkpt lat="43.56679" lon="2.96597">
        <ele>114.4</ele>
        <time>2017-04-16T16:15:29.000Z</time>
      </trkpt>
      <trkpt lat="43.5668" lon="2.96587">
        <ele>114.8</ele>
        <time>2017-04-16T16:15:31.000Z</time>
      </trkpt>
      <trkpt lat="43.5668" lon="2.96564">
        <ele>115.2</ele>
        <time>2017-04-16T16:15:36.000Z</time>
      </trkpt>
      <trkpt lat="43.56687" lon="2.96551">
        <ele>115.4</ele>
        <time>2017-04-16T16:15:40.000Z</time>
      </trkpt>
      <trkpt lat="43.5669" lon="2.9655">
        <ele>115.4</ele>
        <time>2017-04-16T16:15:41.000Z</time>
      </trkpt>
      <trkpt lat="43.56705" lon="2.96547">
        <ele>115.4</ele>
        <time>2017-04-16T16:15:46.000Z</time>
      </trkpt>
      <trkpt lat="43.56718" lon="2.96543">
        <ele>115.6</ele>
        <time>2017-04-16T16:15:52.000Z</time>
      </trkpt>
      <trkpt lat="43.56733" lon="2.96539">
        <ele>115.8</ele>
        <time>2017-04-16T16:15:57.000Z</time>
      </trkpt>
      <trkpt lat="43.56737" lon="2.96532">
        <ele>116.2</ele>
        <time>2017-04-16T16:15:59.000Z</time>
      </trkpt>
      <trkpt lat="43.5674" lon="2.96526">
        <ele>116.6</ele>
        <time>2017-04-16T16:16:01.000Z</time>
      </trkpt>
      <trkpt lat="43.56742" lon="2.96522">
        <ele>116.8</ele>
        <time>2017-04-16T16:16:03.000Z</time>
      </trkpt>
      <trkpt lat="43.56743" lon="2.9652">
        <ele>117</ele>
        <time>2017-04-16T16:16:05.000Z</time>
      </trkpt>
      <trkpt lat="43.56744" lon="2.96517">
        <ele>117.4</ele>
        <time>2017-04-16T16:16:09.000Z</time>
      </trkpt>
      <trkpt lat="43.56746" lon="2.96515">
        <ele>117.8</ele>
        <time>2017-04-16T16:16:11.000Z</time>
      </trkpt>
      <trkpt lat="43.56747" lon="2.96513">
        <ele>118.2</ele>
        <time>2017-04-16T16:16:13.000Z</time>
      </trkpt>
      <trkpt lat="43.56749" lon="2.96511">
        <ele>118.6</ele>
        <time>2017-04-16T16:16:15.000Z</time>
      </trkpt>
      <trkpt lat="43.5675" lon="2.96508">
        <ele>118.8</ele>
        <time>2017-04-16T16:16:17.000Z</time>
      </trkpt>
      <trkpt lat="43.56754" lon="2.96505">
        <ele>119.4</ele>
        <time>2017-04-16T16:16:22.000Z</time>
      </trkpt>
      <trkpt lat="43.56757" lon="2.96505">
        <ele>119.8</ele>
        <time>2017-04-16T16:16:24.000Z</time>
      </trkpt>
      <trkpt lat="43.56758" lon="2.96503">
        <ele>120.2</ele>
        <time>2017-04-16T16:16:26.000Z</time>
      </trkpt>
      <trkpt lat="43.5676" lon="2.96502">
        <ele>120.6</ele>
        <time>2017-04-16T16:16:28.000Z</time>
      </trkpt>
      <trkpt lat="43.56762" lon="2.96501">
        <ele>120.8</ele>
        <time>2017-04-16T16:16:30.000Z</time>
      </trkpt>
      <trkpt lat="43.56766" lon="2.96498">
        <ele>121.2</ele>
        <time>2017-04-16T16:16:33.000Z</time>
      </trkpt>
      <trkpt lat="43.56769" lon="2.96497">
        <ele>121.6</ele>
        <time>2017-04-16T16:16:36.000Z</time>
      </trkpt>
      <trkpt lat="43.56772" lon="2.96496">
        <ele>122</ele>
        <time>2017-04-16T16:16:38.000Z</time>
      </trkpt>
      <trkpt lat="43.56774" lon="2.96495">
        <ele>122.4</ele>
        <time>2017-04-16T16:16:40.000Z</time>
      </trkpt>
      <trkpt lat="43.56777" lon="2.96495">
        <ele>122.8</ele>
        <time>2017-04-16T16:16:42.000Z</time>
      </trkpt>
      <trkpt lat="43.56779" lon="2.96494">
        <ele>123</ele>
        <time>2017-04-16T16:16:44.000Z</time>
      </trkpt>
      <trkpt lat="43.56784" lon="2.9649">
        <ele>123.4</ele>
        <time>2017-04-16T16:16:48.000Z</time>
      </trkpt>
      <trkpt lat="43.56787" lon="2.96485">
        <ele>123.6</ele>
        <time>2017-04-16T16:16:53.000Z</time>
      </trkpt>
      <trkpt lat="43.56788" lon="2.96482">
        <ele>124</ele>
        <time>2017-04-16T16:16:56.000Z</time>
      </trkpt>
      <trkpt lat="43.56789" lon="2.96481">
        <ele>124.4</ele>
        <time>2017-04-16T16:16:58.000Z</time>
      </trkpt>
      <trkpt lat="43.56791" lon="2.96479">
        <ele>124.8</ele>
        <time>2017-04-16T16:17:00.000Z</time>
      </trkpt>
      <trkpt lat="43.56792" lon="2.96477">
        <ele>125</ele>
        <time>2017-04-16T16:17:02.000Z</time>
      </trkpt>
      <trkpt lat="43.56795" lon="2.96477">
        <ele>125.4</ele>
        <time>2017-04-16T16:17:04.000Z</time>
      </trkpt>
      <trkpt lat="43.56801" lon="2.96472">
        <ele>125.8</ele>
        <time>2017-04-16T16:17:11.000Z</time>
      </trkpt>
      <trkpt lat="43.56806" lon="2.96467">
        <ele>126.2</ele>
        <time>2017-04-16T16:17:15.000Z</time>
      </trkpt>
      <trkpt lat="43.56808" lon="2.96464">
        <ele>126.6</ele>
        <time>2017-04-16T16:17:17.000Z</time>
      </trkpt>
      <trkpt lat="43.56811" lon="2.96463">
        <ele>127</ele>
        <time>2017-04-16T16:17:19.000Z</time>
      </trkpt>
      <trkpt lat="43.56816" lon="2.96463">
        <ele>127.2</ele>
        <time>2017-04-16T16:17:21.000Z</time>
      </trkpt>
      <trkpt lat="43.56818" lon="2.96463">
        <ele>127.4</ele>
        <time>2017-04-16T16:17:22.000Z</time>
      </trkpt>
      <trkpt lat="43.5682" lon="2.96463">
        <ele>127.4</ele>
        <time>2017-04-16T16:17:23.000Z</time>
      </trkpt>
      <trkpt lat="43.56822" lon="2.96461">
        <ele>127.6</ele>
        <time>2017-04-16T16:17:25.000Z</time>
      </trkpt>
      <trkpt lat="43.56813" lon="2.96436">
        <ele>128</ele>
        <time>2017-04-16T16:17:32.000Z</time>
      </trkpt>
      <trkpt lat="43.56797" lon="2.96393">
        <ele>128.2</ele>
        <time>2017-04-16T16:17:41.000Z</time>
      </trkpt>
      <trkpt lat="43.56783" lon="2.96358">
        <ele>128.4</ele>
        <time>2017-04-16T16:17:48.000Z</time>
      </trkpt>
      <trkpt lat="43.56775" lon="2.96336">
        <ele>128.4</ele>
        <time>2017-04-16T16:17:52.000Z</time>
      </trkpt>
      <trkpt lat="43.56767" lon="2.96312">
        <ele>128.4</ele>
        <time>2017-04-16T16:17:56.000Z</time>
      </trkpt>
      <trkpt lat="43.56754" lon="2.96278">
        <ele>128.4</ele>
        <time>2017-04-16T16:18:02.000Z</time>
      </trkpt>
      <trkpt lat="43.56752" lon="2.96273">
        <ele>128.4</ele>
        <time>2017-04-16T16:18:03.000Z</time>
      </trkpt>
      <trkpt lat="43.56737" lon="2.96238">
        <ele>128.4</ele>
        <time>2017-04-16T16:18:10.000Z</time>
      </trkpt>
      <trkpt lat="43.56722" lon="2.96182">
        <ele>128.4</ele>
        <time>2017-04-16T16:18:19.000Z</time>
      </trkpt>
      <trkpt lat="43.56718" lon="2.96171">
        <ele>128.4</ele>
        <time>2017-04-16T16:18:21.000Z</time>
      </trkpt>
      <trkpt lat="43.56711" lon="2.96136">
        <ele>128.4</ele>
        <time>2017-04-16T16:18:27.000Z</time>
      </trkpt>
      <trkpt lat="43.56701" lon="2.96096">
        <ele>128.4</ele>
        <time>2017-04-16T16:18:34.000Z</time>
      </trkpt>
      <trkpt lat="43.56695" lon="2.96073">
        <ele>128.4</ele>
        <time>2017-04-16T16:18:39.000Z</time>
      </trkpt>
      <trkpt lat="43.5669" lon="2.9605">
        <ele>128.4</ele>
        <time>2017-04-16T16:18:44.000Z</time>
      </trkpt>
      <trkpt lat="43.56686" lon="2.96015">
        <ele>128.4</ele>
        <time>2017-04-16T16:18:50.000Z</time>
      </trkpt>
      <trkpt lat="43.56683" lon="2.95981">
        <ele>128.4</ele>
        <time>2017-04-16T16:18:56.000Z</time>
      </trkpt>
      <trkpt lat="43.56682" lon="2.95973">
        <ele>128.4</ele>
        <time>2017-04-16T16:18:58.000Z</time>
      </trkpt>
      <trkpt lat="43.56681" lon="2.9596">
        <ele>128.4</ele>
        <time>2017-04-16T16:19:03.000Z</time>
      </trkpt>
      <trkpt lat="43.56676" lon="2.95953">
        <ele>128.4</ele>
        <time>2017-04-16T16:19:06.000Z</time>
      </trkpt>
      <trkpt lat="43.56672" lon="2.9595">
        <ele>128.4</ele>
        <time>2017-04-16T16:19:08.000Z</time>
      </trkpt>
      <trkpt lat="43.56666" lon="2.95919">
        <ele>128.4</ele>
        <time>2017-04-16T16:19:14.000Z</time>
      </trkpt>
      <trkpt lat="43.56663" lon="2.95887">
        <ele>128.4</ele>
        <time>2017-04-16T16:19:20.000Z</time>
      </trkpt>
      <trkpt lat="43.56663" lon="2.95871">
        <ele>128.4</ele>
        <time>2017-04-16T16:19:23.000Z</time>
      </trkpt>
      <trkpt lat="43.56661" lon="2.95858">
        <ele>128.4</ele>
        <time>2017-04-16T16:19:25.000Z</time>
      </trkpt>
      <trkpt lat="43.5666" lon="2.95846">
        <ele>128.4</ele>
        <time>2017-04-16T16:19:27.000Z</time>
      </trkpt>
      <trkpt lat="43.56663" lon="2.95796">
        <ele>128.4</ele>
        <time>2017-04-16T16:19:35.000Z</time>
      </trkpt>
      <trkpt lat="43.56667" lon="2.95771">
        <ele>128.4</ele>
        <time>2017-04-16T16:19:39.000Z</time>
      </trkpt>
      <trkpt lat="43.5667" lon="2.95734">
        <ele>128.4</ele>
        <time>2017-04-16T16:19:45.000Z</time>
      </trkpt>
      <trkpt lat="43.56669" lon="2.95729">
        <ele>128.4</ele>
        <time>2017-04-16T16:19:46.000Z</time>
      </trkpt>
      <trkpt lat="43.56669" lon="2.95717">
        <ele>128.4</ele>
        <time>2017-04-16T16:19:48.000Z</time>
      </trkpt>
      <trkpt lat="43.56669" lon="2.95686">
        <ele>128.4</ele>
        <time>2017-04-16T16:19:53.000Z</time>
      </trkpt>
      <trkpt lat="43.56671" lon="2.95664">
        <ele>128.4</ele>
        <time>2017-04-16T16:19:56.000Z</time>
      </trkpt>
      <trkpt lat="43.56672" lon="2.95608">
        <ele>128.4</ele>
        <time>2017-04-16T16:20:04.000Z</time>
      </trkpt>
      <trkpt lat="43.56672" lon="2.95602">
        <ele>128.4</ele>
        <time>2017-04-16T16:20:05.000Z</time>
      </trkpt>
      <trkpt lat="43.56674" lon="2.95588">
        <ele>128.4</ele>
        <time>2017-04-16T16:20:07.000Z</time>
      </trkpt>
      <trkpt lat="43.56679" lon="2.95554">
        <ele>128.4</ele>
        <time>2017-04-16T16:20:12.000Z</time>
      </trkpt>
      <trkpt lat="43.56678" lon="2.95535">
        <ele>128.4</ele>
        <time>2017-04-16T16:20:15.000Z</time>
      </trkpt>
      <trkpt lat="43.56675" lon="2.95485">
        <ele>128.2</ele>
        <time>2017-04-16T16:20:22.000Z</time>
      </trkpt>
      <trkpt lat="43.56673" lon="2.95471">
        <ele>127.8</ele>
        <time>2017-04-16T16:20:24.000Z</time>
      </trkpt>
      <trkpt lat="43.56672" lon="2.95454">
        <ele>127.4</ele>
        <time>2017-04-16T16:20:26.000Z</time>
      </trkpt>
      <trkpt lat="43.56672" lon="2.95447">
        <ele>127.4</ele>
        <time>2017-04-16T16:20:27.000Z</time>
      </trkpt>
      <trkpt lat="43.56671" lon="2.9544">
        <ele>127.2</ele>
        <time>2017-04-16T16:20:28.000Z</time>
      </trkpt>
      <trkpt lat="43.56669" lon="2.95425">
        <ele>127</ele>
        <time>2017-04-16T16:20:30.000Z</time>
      </trkpt>
      <trkpt lat="43.56668" lon="2.95418">
        <ele>127</ele>
        <time>2017-04-16T16:20:31.000Z</time>
      </trkpt>
      <trkpt lat="43.56666" lon="2.95357">
        <ele>126.6</ele>
        <time>2017-04-16T16:20:37.000Z</time>
      </trkpt>
      <trkpt lat="43.56661" lon="2.95321">
        <ele>126.4</ele>
        <time>2017-04-16T16:20:42.000Z</time>
      </trkpt>
      <trkpt lat="43.5666" lon="2.95284">
        <ele>126</ele>
        <time>2017-04-16T16:20:47.000Z</time>
      </trkpt>
      <trkpt lat="43.5666" lon="2.95275">
        <ele>125.8</ele>
        <time>2017-04-16T16:20:48.000Z</time>
      </trkpt>
      <trkpt lat="43.56658" lon="2.9525">
        <ele>125.4</ele>
        <time>2017-04-16T16:20:51.000Z</time>
      </trkpt>
      <trkpt lat="43.56655" lon="2.95233">
        <ele>125.2</ele>
        <time>2017-04-16T16:20:53.000Z</time>
      </trkpt>
      <trkpt lat="43.56654" lon="2.95217">
        <ele>125</ele>
        <time>2017-04-16T16:20:55.000Z</time>
      </trkpt>
      <trkpt lat="43.56654" lon="2.95209">
        <ele>124.8</ele>
        <time>2017-04-16T16:20:56.000Z</time>
      </trkpt>
      <trkpt lat="43.56653" lon="2.95157">
        <ele>124.6</ele>
        <time>2017-04-16T16:21:02.000Z</time>
      </trkpt>
      <trkpt lat="43.56652" lon="2.95138">
        <ele>124.4</ele>
        <time>2017-04-16T16:21:04.000Z</time>
      </trkpt>
      <trkpt lat="43.5665" lon="2.95112">
        <ele>124.4</ele>
        <time>2017-04-16T16:21:07.000Z</time>
      </trkpt>
      <trkpt lat="43.5666" lon="2.95066">
        <ele>124.2</ele>
        <time>2017-04-16T16:21:13.000Z</time>
      </trkpt>
      <trkpt lat="43.56665" lon="2.95042">
        <ele>124.2</ele>
        <time>2017-04-16T16:21:16.000Z</time>
      </trkpt>
      <trkpt lat="43.56681" lon="2.94984">
        <ele>124.2</ele>
        <time>2017-04-16T16:21:23.000Z</time>
      </trkpt>
      <trkpt lat="43.56682" lon="2.94976">
        <ele>124</ele>
        <time>2017-04-16T16:21:24.000Z</time>
      </trkpt>
      <trkpt lat="43.56685" lon="2.94961">
        <ele>123.6</ele>
        <time>2017-04-16T16:21:26.000Z</time>
      </trkpt>
      <trkpt lat="43.56688" lon="2.94944">
        <ele>123.4</ele>
        <time>2017-04-16T16:21:28.000Z</time>
      </trkpt>
      <trkpt lat="43.5669" lon="2.94936">
        <ele>123.2</ele>
        <time>2017-04-16T16:21:29.000Z</time>
      </trkpt>
      <trkpt lat="43.56692" lon="2.94926">
        <ele>123</ele>
        <time>2017-04-16T16:21:30.000Z</time>
      </trkpt>
      <trkpt lat="43.56694" lon="2.94919">
        <ele>123</ele>
        <time>2017-04-16T16:21:31.000Z</time>
      </trkpt>
      <trkpt lat="43.56704" lon="2.94886">
        <ele>122.6</ele>
        <time>2017-04-16T16:21:36.000Z</time>
      </trkpt>
      <trkpt lat="43.56706" lon="2.94855">
        <ele>122.4</ele>
        <time>2017-04-16T16:21:40.000Z</time>
      </trkpt>
      <trkpt lat="43.56705" lon="2.94846">
        <ele>122.4</ele>
        <time>2017-04-16T16:21:41.000Z</time>
      </trkpt>
      <trkpt lat="43.567" lon="2.94803">
        <ele>122.2</ele>
        <time>2017-04-16T16:21:46.000Z</time>
      </trkpt>
      <trkpt lat="43.56699" lon="2.94796">
        <ele>122.2</ele>
        <time>2017-04-16T16:21:47.000Z</time>
      </trkpt>
      <trkpt lat="43.56698" lon="2.94772">
        <ele>122.2</ele>
        <time>2017-04-16T16:21:50.000Z</time>
      </trkpt>
      <trkpt lat="43.56693" lon="2.94731">
        <ele>122.2</ele>
        <time>2017-04-16T16:21:55.000Z</time>
      </trkpt>
      <trkpt lat="43.56682" lon="2.94697">
        <ele>122.2</ele>
        <time>2017-04-16T16:22:00.000Z</time>
      </trkpt>
      <trkpt lat="43.56675" lon="2.94657">
        <ele>122</ele>
        <time>2017-04-16T16:22:06.000Z</time>
      </trkpt>
      <trkpt lat="43.56673" lon="2.94651">
        <ele>122</ele>
        <time>2017-04-16T16:22:07.000Z</time>
      </trkpt>
      <trkpt lat="43.56664" lon="2.94633">
        <ele>122</ele>
        <time>2017-04-16T16:22:10.000Z</time>
      </trkpt>
      <trkpt lat="43.56658" lon="2.94623">
        <ele>122</ele>
        <time>2017-04-16T16:22:12.000Z</time>
      </trkpt>
      <trkpt lat="43.56642" lon="2.94585">
        <ele>122</ele>
        <time>2017-04-16T16:22:18.000Z</time>
      </trkpt>
      <trkpt lat="43.56634" lon="2.94565">
        <ele>122</ele>
        <time>2017-04-16T16:22:22.000Z</time>
      </trkpt>
      <trkpt lat="43.5662" lon="2.94536">
        <ele>121.8</ele>
        <time>2017-04-16T16:22:26.000Z</time>
      </trkpt>
      <trkpt lat="43.56614" lon="2.94523">
        <ele>121.6</ele>
        <time>2017-04-16T16:22:28.000Z</time>
      </trkpt>
      <trkpt lat="43.56607" lon="2.94509">
        <ele>121.2</ele>
        <time>2017-04-16T16:22:30.000Z</time>
      </trkpt>
      <trkpt lat="43.566" lon="2.94496">
        <ele>121</ele>
        <time>2017-04-16T16:22:32.000Z</time>
      </trkpt>
      <trkpt lat="43.56598" lon="2.9449">
        <ele>120.8</ele>
        <time>2017-04-16T16:22:33.000Z</time>
      </trkpt>
      <trkpt lat="43.56591" lon="2.94464">
        <ele>120.6</ele>
        <time>2017-04-16T16:22:37.000Z</time>
      </trkpt>
      <trkpt lat="43.56586" lon="2.94443">
        <ele>120.4</ele>
        <time>2017-04-16T16:22:40.000Z</time>
      </trkpt>
      <trkpt lat="43.56585" lon="2.94421">
        <ele>120.2</ele>
        <time>2017-04-16T16:22:43.000Z</time>
      </trkpt>
      <trkpt lat="43.56583" lon="2.94406">
        <ele>120.2</ele>
        <time>2017-04-16T16:22:45.000Z</time>
      </trkpt>
      <trkpt lat="43.56585" lon="2.94367">
        <ele>120.2</ele>
        <time>2017-04-16T16:22:51.000Z</time>
      </trkpt>
      <trkpt lat="43.56585" lon="2.9435">
        <ele>120</ele>
        <time>2017-04-16T16:22:55.000Z</time>
      </trkpt>
      <trkpt lat="43.56584" lon="2.94344">
        <ele>120</ele>
        <time>2017-04-16T16:22:56.000Z</time>
      </trkpt>
      <trkpt lat="43.56583" lon="2.94337">
        <ele>119.8</ele>
        <time>2017-04-16T16:22:57.000Z</time>
      </trkpt>
      <trkpt lat="43.5658" lon="2.94316">
        <ele>119.4</ele>
        <time>2017-04-16T16:22:59.000Z</time>
      </trkpt>
      <trkpt lat="43.56577" lon="2.94294">
        <ele>119.2</ele>
        <time>2017-04-16T16:23:01.000Z</time>
      </trkpt>
      <trkpt lat="43.56576" lon="2.94283">
        <ele>119</ele>
        <time>2017-04-16T16:23:02.000Z</time>
      </trkpt>
      <trkpt lat="43.56576" lon="2.94273">
        <ele>119</ele>
        <time>2017-04-16T16:23:03.000Z</time>
      </trkpt>
      <trkpt lat="43.56574" lon="2.94255">
        <ele>118.8</ele>
        <time>2017-04-16T16:23:05.000Z</time>
      </trkpt>
      <trkpt lat="43.56572" lon="2.94247">
        <ele>118.6</ele>
        <time>2017-04-16T16:23:06.000Z</time>
      </trkpt>
      <trkpt lat="43.56567" lon="2.94199">
        <ele>118.4</ele>
        <time>2017-04-16T16:23:11.000Z</time>
      </trkpt>
      <trkpt lat="43.56568" lon="2.94189">
        <ele>118.2</ele>
        <time>2017-04-16T16:23:12.000Z</time>
      </trkpt>
      <trkpt lat="43.5657" lon="2.9417">
        <ele>118</ele>
        <time>2017-04-16T16:23:14.000Z</time>
      </trkpt>
      <trkpt lat="43.56565" lon="2.94152">
        <ele>117.6</ele>
        <time>2017-04-16T16:23:16.000Z</time>
      </trkpt>
      <trkpt lat="43.56562" lon="2.94142">
        <ele>117.4</ele>
        <time>2017-04-16T16:23:17.000Z</time>
      </trkpt>
      <trkpt lat="43.56557" lon="2.94113">
        <ele>117</ele>
        <time>2017-04-16T16:23:20.000Z</time>
      </trkpt>
      <trkpt lat="43.56554" lon="2.94097">
        <ele>116.8</ele>
        <time>2017-04-16T16:23:22.000Z</time>
      </trkpt>
      <trkpt lat="43.56552" lon="2.9409">
        <ele>116.6</ele>
        <time>2017-04-16T16:23:23.000Z</time>
      </trkpt>
      <trkpt lat="43.5654" lon="2.94058">
        <ele>116.4</ele>
        <time>2017-04-16T16:23:28.000Z</time>
      </trkpt>
      <trkpt lat="43.56528" lon="2.94015">
        <ele>116.2</ele>
        <time>2017-04-16T16:23:33.000Z</time>
      </trkpt>
      <trkpt lat="43.56525" lon="2.93998">
        <ele>116</ele>
        <time>2017-04-16T16:23:35.000Z</time>
      </trkpt>
      <trkpt lat="43.56518" lon="2.93964">
        <ele>116</ele>
        <time>2017-04-16T16:23:39.000Z</time>
      </trkpt>
      <trkpt lat="43.56511" lon="2.93941">
        <ele>116</ele>
        <time>2017-04-16T16:23:42.000Z</time>
      </trkpt>
      <trkpt lat="43.56507" lon="2.9392">
        <ele>116</ele>
        <time>2017-04-16T16:23:45.000Z</time>
      </trkpt>
      <trkpt lat="43.56507" lon="2.93873">
        <ele>115.8</ele>
        <time>2017-04-16T16:23:52.000Z</time>
      </trkpt>
      <trkpt lat="43.56506" lon="2.93865">
        <ele>115.8</ele>
        <time>2017-04-16T16:23:53.000Z</time>
      </trkpt>
      <trkpt lat="43.56502" lon="2.93836">
        <ele>115.8</ele>
        <time>2017-04-16T16:23:57.000Z</time>
      </trkpt>
      <trkpt lat="43.56502" lon="2.93815">
        <ele>115.8</ele>
        <time>2017-04-16T16:24:00.000Z</time>
      </trkpt>
      <trkpt lat="43.56499" lon="2.93802">
        <ele>115.8</ele>
        <time>2017-04-16T16:24:02.000Z</time>
      </trkpt>
      <trkpt lat="43.56489" lon="2.93758">
        <ele>115.8</ele>
        <time>2017-04-16T16:24:09.000Z</time>
      </trkpt>
      <trkpt lat="43.56485" lon="2.93746">
        <ele>115.8</ele>
        <time>2017-04-16T16:24:11.000Z</time>
      </trkpt>
      <trkpt lat="43.56473" lon="2.93708">
        <ele>115.8</ele>
        <time>2017-04-16T16:24:17.000Z</time>
      </trkpt>
      <trkpt lat="43.56471" lon="2.93701">
        <ele>115.8</ele>
        <time>2017-04-16T16:24:18.000Z</time>
      </trkpt>
      <trkpt lat="43.56459" lon="2.93685">
        <ele>115.8</ele>
        <time>2017-04-16T16:24:21.000Z</time>
      </trkpt>
      <trkpt lat="43.56443" lon="2.93648">
        <ele>115.8</ele>
        <time>2017-04-16T16:24:28.000Z</time>
      </trkpt>
      <trkpt lat="43.56439" lon="2.93642">
        <ele>115.8</ele>
        <time>2017-04-16T16:24:30.000Z</time>
      </trkpt>
      <trkpt lat="43.56428" lon="2.93631">
        <ele>115.8</ele>
        <time>2017-04-16T16:24:36.000Z</time>
      </trkpt>
      <trkpt lat="43.56424" lon="2.93625">
        <ele>115.8</ele>
        <time>2017-04-16T16:24:38.000Z</time>
      </trkpt>
      <trkpt lat="43.56413" lon="2.93603">
        <ele>115.8</ele>
        <time>2017-04-16T16:24:44.000Z</time>
      </trkpt>
      <trkpt lat="43.56401" lon="2.93588">
        <ele>115.8</ele>
        <time>2017-04-16T16:24:49.000Z</time>
      </trkpt>
      <trkpt lat="43.56393" lon="2.93577">
        <ele>115.8</ele>
        <time>2017-04-16T16:24:52.000Z</time>
      </trkpt>
      <trkpt lat="43.56369" lon="2.93551">
        <ele>115.8</ele>
        <time>2017-04-16T16:24:58.000Z</time>
      </trkpt>
      <trkpt lat="43.56343" lon="2.93529">
        <ele>115.8</ele>
        <time>2017-04-16T16:25:04.000Z</time>
      </trkpt>
      <trkpt lat="43.56312" lon="2.935">
        <ele>115.8</ele>
        <time>2017-04-16T16:25:12.000Z</time>
      </trkpt>
      <trkpt lat="43.56291" lon="2.93484">
        <ele>115.8</ele>
        <time>2017-04-16T16:25:17.000Z</time>
      </trkpt>
      <trkpt lat="43.5626" lon="2.93456">
        <ele>115.8</ele>
        <time>2017-04-16T16:25:25.000Z</time>
      </trkpt>
      <trkpt lat="43.56256" lon="2.93452">
        <ele>115.8</ele>
        <time>2017-04-16T16:25:26.000Z</time>
      </trkpt>
      <trkpt lat="43.56241" lon="2.93438">
        <ele>115.8</ele>
        <time>2017-04-16T16:25:30.000Z</time>
      </trkpt>
      <trkpt lat="43.56235" lon="2.93431">
        <ele>115.8</ele>
        <time>2017-04-16T16:25:32.000Z</time>
      </trkpt>
      <trkpt lat="43.56223" lon="2.93419">
        <ele>115.8</ele>
        <time>2017-04-16T16:25:36.000Z</time>
      </trkpt>
      <trkpt lat="43.56203" lon="2.93392">
        <ele>115.8</ele>
        <time>2017-04-16T16:25:43.000Z</time>
      </trkpt>
      <trkpt lat="43.56191" lon="2.93377">
        <ele>115.8</ele>
        <time>2017-04-16T16:25:47.000Z</time>
      </trkpt>
      <trkpt lat="43.5617" lon="2.93352">
        <ele>115.8</ele>
        <time>2017-04-16T16:25:54.000Z</time>
      </trkpt>
      <trkpt lat="43.56167" lon="2.93348">
        <ele>115.8</ele>
        <time>2017-04-16T16:25:55.000Z</time>
      </trkpt>
      <trkpt lat="43.56143" lon="2.93311">
        <ele>115.8</ele>
        <time>2017-04-16T16:26:03.000Z</time>
      </trkpt>
      <trkpt lat="43.56131" lon="2.9329">
        <ele>115.8</ele>
        <time>2017-04-16T16:26:09.000Z</time>
      </trkpt>
      <trkpt lat="43.56115" lon="2.93267">
        <ele>115.8</ele>
        <time>2017-04-16T16:26:14.000Z</time>
      </trkpt>
      <trkpt lat="43.56101" lon="2.93237">
        <ele>115.8</ele>
        <time>2017-04-16T16:26:19.000Z</time>
      </trkpt>
      <trkpt lat="43.56098" lon="2.93231">
        <ele>115.8</ele>
        <time>2017-04-16T16:26:20.000Z</time>
      </trkpt>
      <trkpt lat="43.56083" lon="2.93216">
        <ele>115.8</ele>
        <time>2017-04-16T16:26:24.000Z</time>
      </trkpt>
      <trkpt lat="43.5608" lon="2.93212">
        <ele>115.8</ele>
        <time>2017-04-16T16:26:25.000Z</time>
      </trkpt>
      <trkpt lat="43.56069" lon="2.93192">
        <ele>115.8</ele>
        <time>2017-04-16T16:26:29.000Z</time>
      </trkpt>
      <trkpt lat="43.56064" lon="2.93175">
        <ele>115.8</ele>
        <time>2017-04-16T16:26:33.000Z</time>
      </trkpt>
      <trkpt lat="43.56057" lon="2.93163">
        <ele>116</ele>
        <time>2017-04-16T16:26:36.000Z</time>
      </trkpt>
      <trkpt lat="43.56052" lon="2.93155">
        <ele>116.4</ele>
        <time>2017-04-16T16:26:38.000Z</time>
      </trkpt>
      <trkpt lat="43.56047" lon="2.93146">
        <ele>116.8</ele>
        <time>2017-04-16T16:26:40.000Z</time>
      </trkpt>
      <trkpt lat="43.56041" lon="2.93137">
        <ele>117</ele>
        <time>2017-04-16T16:26:42.000Z</time>
      </trkpt>
      <trkpt lat="43.56039" lon="2.93126">
        <ele>117.2</ele>
        <time>2017-04-16T16:26:44.000Z</time>
      </trkpt>
      <trkpt lat="43.56036" lon="2.93116">
        <ele>117</ele>
        <time>2017-04-16T16:26:46.000Z</time>
      </trkpt>
      <trkpt lat="43.56033" lon="2.93106">
        <ele>116.8</ele>
        <time>2017-04-16T16:26:48.000Z</time>
      </trkpt>
      <trkpt lat="43.56031" lon="2.931">
        <ele>116.6</ele>
        <time>2017-04-16T16:26:49.000Z</time>
      </trkpt>
      <trkpt lat="43.56025" lon="2.9308">
        <ele>116.4</ele>
        <time>2017-04-16T16:26:52.000Z</time>
      </trkpt>
      <trkpt lat="43.56021" lon="2.93074">
        <ele>116.4</ele>
        <time>2017-04-16T16:26:53.000Z</time>
      </trkpt>
      <trkpt lat="43.56009" lon="2.93047">
        <ele>116</ele>
        <time>2017-04-16T16:26:57.000Z</time>
      </trkpt>
      <trkpt lat="43.56002" lon="2.93028">
        <ele>116.2</ele>
        <time>2017-04-16T16:27:00.000Z</time>
      </trkpt>
      <trkpt lat="43.55999" lon="2.93021">
        <ele>116.4</ele>
        <time>2017-04-16T16:27:01.000Z</time>
      </trkpt>
      <trkpt lat="43.55996" lon="2.93014">
        <ele>116.4</ele>
        <time>2017-04-16T16:27:02.000Z</time>
      </trkpt>
      <trkpt lat="43.55992" lon="2.93008">
        <ele>116.6</ele>
        <time>2017-04-16T16:27:03.000Z</time>
      </trkpt>
      <trkpt lat="43.55985" lon="2.92989">
        <ele>117</ele>
        <time>2017-04-16T16:27:06.000Z</time>
      </trkpt>
      <trkpt lat="43.55979" lon="2.92977">
        <ele>117.2</ele>
        <time>2017-04-16T16:27:08.000Z</time>
      </trkpt>
      <trkpt lat="43.55972" lon="2.92964">
        <ele>117.2</ele>
        <time>2017-04-16T16:27:11.000Z</time>
      </trkpt>
      <trkpt lat="43.55967" lon="2.9294">
        <ele>117.4</ele>
        <time>2017-04-16T16:27:14.000Z</time>
      </trkpt>
      <trkpt lat="43.5596" lon="2.92919">
        <ele>117.6</ele>
        <time>2017-04-16T16:27:17.000Z</time>
      </trkpt>
      <trkpt lat="43.55952" lon="2.92887">
        <ele>117.6</ele>
        <time>2017-04-16T16:27:22.000Z</time>
      </trkpt>
      <trkpt lat="43.55951" lon="2.92881">
        <ele>117.6</ele>
        <time>2017-04-16T16:27:23.000Z</time>
      </trkpt>
      <trkpt lat="43.55949" lon="2.92874">
        <ele>117.6</ele>
        <time>2017-04-16T16:27:24.000Z</time>
      </trkpt>
      <trkpt lat="43.55943" lon="2.92853">
        <ele>117.8</ele>
        <time>2017-04-16T16:27:27.000Z</time>
      </trkpt>
      <trkpt lat="43.55933" lon="2.92835">
        <ele>117.8</ele>
        <time>2017-04-16T16:27:30.000Z</time>
      </trkpt>
      <trkpt lat="43.55925" lon="2.92805">
        <ele>117.8</ele>
        <time>2017-04-16T16:27:35.000Z</time>
      </trkpt>
      <trkpt lat="43.55918" lon="2.92786">
        <ele>117.8</ele>
        <time>2017-04-16T16:27:39.000Z</time>
      </trkpt>
      <trkpt lat="43.55916" lon="2.92775">
        <ele>117.8</ele>
        <time>2017-04-16T16:27:41.000Z</time>
      </trkpt>
      <trkpt lat="43.55912" lon="2.92764">
        <ele>118</ele>
        <time>2017-04-16T16:27:43.000Z</time>
      </trkpt>
      <trkpt lat="43.55911" lon="2.92757">
        <ele>118.2</ele>
        <time>2017-04-16T16:27:44.000Z</time>
      </trkpt>
      <trkpt lat="43.55907" lon="2.92739">
        <ele>118.6</ele>
        <time>2017-04-16T16:27:47.000Z</time>
      </trkpt>
      <trkpt lat="43.55905" lon="2.92727">
        <ele>118.8</ele>
        <time>2017-04-16T16:27:49.000Z</time>
      </trkpt>
      <trkpt lat="43.55904" lon="2.9272">
        <ele>119</ele>
        <time>2017-04-16T16:27:50.000Z</time>
      </trkpt>
      <trkpt lat="43.55901" lon="2.92703">
        <ele>119.2</ele>
        <time>2017-04-16T16:27:53.000Z</time>
      </trkpt>
      <trkpt lat="43.55888" lon="2.92667">
        <ele>119.6</ele>
        <time>2017-04-16T16:27:59.000Z</time>
      </trkpt>
      <trkpt lat="43.55877" lon="2.92629">
        <ele>119.6</ele>
        <time>2017-04-16T16:28:06.000Z</time>
      </trkpt>
      <trkpt lat="43.55874" lon="2.92604">
        <ele>119.8</ele>
        <time>2017-04-16T16:28:11.000Z</time>
      </trkpt>
      <trkpt lat="43.55873" lon="2.926">
        <ele>119.8</ele>
        <time>2017-04-16T16:28:12.000Z</time>
      </trkpt>
      <trkpt lat="43.55868" lon="2.9259">
        <ele>119.8</ele>
        <time>2017-04-16T16:28:15.000Z</time>
      </trkpt>
      <trkpt lat="43.55868" lon="2.92572">
        <ele>119.8</ele>
        <time>2017-04-16T16:28:19.000Z</time>
      </trkpt>
      <trkpt lat="43.55861" lon="2.9253">
        <ele>119.8</ele>
        <time>2017-04-16T16:28:25.000Z</time>
      </trkpt>
      <trkpt lat="43.5586" lon="2.92524">
        <ele>119.8</ele>
        <time>2017-04-16T16:28:26.000Z</time>
      </trkpt>
      <trkpt lat="43.55857" lon="2.92519">
        <ele>119.8</ele>
        <time>2017-04-16T16:28:27.000Z</time>
      </trkpt>
      <trkpt lat="43.5585" lon="2.92495">
        <ele>119.8</ele>
        <time>2017-04-16T16:28:32.000Z</time>
      </trkpt>
      <trkpt lat="43.55847" lon="2.9248">
        <ele>120</ele>
        <time>2017-04-16T16:28:36.000Z</time>
      </trkpt>
      <trkpt lat="43.55846" lon="2.92474">
        <ele>120.4</ele>
        <time>2017-04-16T16:28:38.000Z</time>
      </trkpt>
      <trkpt lat="43.55848" lon="2.92466">
        <ele>120.8</ele>
        <time>2017-04-16T16:28:40.000Z</time>
      </trkpt>
      <trkpt lat="43.55849" lon="2.92456">
        <ele>121</ele>
        <time>2017-04-16T16:28:42.000Z</time>
      </trkpt>
      <trkpt lat="43.5585" lon="2.92445">
        <ele>121.2</ele>
        <time>2017-04-16T16:28:44.000Z</time>
      </trkpt>
      <trkpt lat="43.55841" lon="2.92424">
        <ele>121.6</ele>
        <time>2017-04-16T16:28:48.000Z</time>
      </trkpt>
      <trkpt lat="43.55834" lon="2.92395">
        <ele>121.8</ele>
        <time>2017-04-16T16:28:52.000Z</time>
      </trkpt>
      <trkpt lat="43.55831" lon="2.92382">
        <ele>121.8</ele>
        <time>2017-04-16T16:28:54.000Z</time>
      </trkpt>
      <trkpt lat="43.55825" lon="2.92356">
        <ele>122</ele>
        <time>2017-04-16T16:28:58.000Z</time>
      </trkpt>
      <trkpt lat="43.55824" lon="2.92349">
        <ele>122.4</ele>
        <time>2017-04-16T16:28:59.000Z</time>
      </trkpt>
      <trkpt lat="43.55821" lon="2.92326">
        <ele>122.8</ele>
        <time>2017-04-16T16:29:02.000Z</time>
      </trkpt>
      <trkpt lat="43.55819" lon="2.92313">
        <ele>123</ele>
        <time>2017-04-16T16:29:04.000Z</time>
      </trkpt>
      <trkpt lat="43.55816" lon="2.923">
        <ele>123.2</ele>
        <time>2017-04-16T16:29:06.000Z</time>
      </trkpt>
      <trkpt lat="43.5581" lon="2.9227">
        <ele>123.6</ele>
        <time>2017-04-16T16:29:10.000Z</time>
      </trkpt>
      <trkpt lat="43.55807" lon="2.92258">
        <ele>123.6</ele>
        <time>2017-04-16T16:29:12.000Z</time>
      </trkpt>
      <trkpt lat="43.55801" lon="2.92233">
        <ele>123.8</ele>
        <time>2017-04-16T16:29:16.000Z</time>
      </trkpt>
      <trkpt lat="43.55794" lon="2.9221">
        <ele>124</ele>
        <time>2017-04-16T16:29:19.000Z</time>
      </trkpt>
      <trkpt lat="43.55792" lon="2.92188">
        <ele>124</ele>
        <time>2017-04-16T16:29:22.000Z</time>
      </trkpt>
      <trkpt lat="43.55781" lon="2.92149">
        <ele>124</ele>
        <time>2017-04-16T16:29:28.000Z</time>
      </trkpt>
      <trkpt lat="43.55769" lon="2.92109">
        <ele>124</ele>
        <time>2017-04-16T16:29:34.000Z</time>
      </trkpt>
      <trkpt lat="43.55766" lon="2.92102">
        <ele>124.2</ele>
        <time>2017-04-16T16:29:35.000Z</time>
      </trkpt>
      <trkpt lat="43.55752" lon="2.92069">
        <ele>124.2</ele>
        <time>2017-04-16T16:29:40.000Z</time>
      </trkpt>
      <trkpt lat="43.5574" lon="2.9203">
        <ele>124.2</ele>
        <time>2017-04-16T16:29:46.000Z</time>
      </trkpt>
      <trkpt lat="43.55738" lon="2.92024">
        <ele>124.2</ele>
        <time>2017-04-16T16:29:47.000Z</time>
      </trkpt>
      <trkpt lat="43.55733" lon="2.92006">
        <ele>124.2</ele>
        <time>2017-04-16T16:29:50.000Z</time>
      </trkpt>
      <trkpt lat="43.5573" lon="2.91981">
        <ele>124.2</ele>
        <time>2017-04-16T16:29:54.000Z</time>
      </trkpt>
      <trkpt lat="43.55717" lon="2.9194">
        <ele>124.2</ele>
        <time>2017-04-16T16:30:01.000Z</time>
      </trkpt>
      <trkpt lat="43.55715" lon="2.91935">
        <ele>124.2</ele>
        <time>2017-04-16T16:30:02.000Z</time>
      </trkpt>
      <trkpt lat="43.55703" lon="2.919">
        <ele>124.2</ele>
        <time>2017-04-16T16:30:08.000Z</time>
      </trkpt>
      <trkpt lat="43.55701" lon="2.91895">
        <ele>124.2</ele>
        <time>2017-04-16T16:30:09.000Z</time>
      </trkpt>
      <trkpt lat="43.55691" lon="2.91872">
        <ele>124.4</ele>
        <time>2017-04-16T16:30:13.000Z</time>
      </trkpt>
      <trkpt lat="43.55688" lon="2.91866">
        <ele>124.6</ele>
        <time>2017-04-16T16:30:14.000Z</time>
      </trkpt>
      <trkpt lat="43.55683" lon="2.91848">
        <ele>125</ele>
        <time>2017-04-16T16:30:17.000Z</time>
      </trkpt>
      <trkpt lat="43.55679" lon="2.91836">
        <ele>125.2</ele>
        <time>2017-04-16T16:30:19.000Z</time>
      </trkpt>
      <trkpt lat="43.55677" lon="2.91824">
        <ele>125.4</ele>
        <time>2017-04-16T16:30:21.000Z</time>
      </trkpt>
      <trkpt lat="43.55674" lon="2.91811">
        <ele>125.6</ele>
        <time>2017-04-16T16:30:23.000Z</time>
      </trkpt>
      <trkpt lat="43.5567" lon="2.91799">
        <ele>125.6</ele>
        <time>2017-04-16T16:30:25.000Z</time>
      </trkpt>
      <trkpt lat="43.55661" lon="2.91767">
        <ele>125.8</ele>
        <time>2017-04-16T16:30:30.000Z</time>
      </trkpt>
      <trkpt lat="43.55659" lon="2.91762">
        <ele>126</ele>
        <time>2017-04-16T16:30:31.000Z</time>
      </trkpt>
      <trkpt lat="43.55655" lon="2.91751">
        <ele>126</ele>
        <time>2017-04-16T16:30:33.000Z</time>
      </trkpt>
      <trkpt lat="43.55649" lon="2.91716">
        <ele>126</ele>
        <time>2017-04-16T16:30:39.000Z</time>
      </trkpt>
      <trkpt lat="43.55647" lon="2.91712">
        <ele>126</ele>
        <time>2017-04-16T16:30:40.000Z</time>
      </trkpt>
      <trkpt lat="43.5564" lon="2.91685">
        <ele>126.2</ele>
        <time>2017-04-16T16:30:45.000Z</time>
      </trkpt>
      <trkpt lat="43.55634" lon="2.91654">
        <ele>126.2</ele>
        <time>2017-04-16T16:30:50.000Z</time>
      </trkpt>
      <trkpt lat="43.55633" lon="2.91647">
        <ele>126.2</ele>
        <time>2017-04-16T16:30:51.000Z</time>
      </trkpt>
      <trkpt lat="43.55628" lon="2.91621">
        <ele>126.2</ele>
        <time>2017-04-16T16:30:56.000Z</time>
      </trkpt>
      <trkpt lat="43.55622" lon="2.91611">
        <ele>126.2</ele>
        <time>2017-04-16T16:30:59.000Z</time>
      </trkpt>
      <trkpt lat="43.55619" lon="2.9161">
        <ele>126.2</ele>
        <time>2017-04-16T16:31:00.000Z</time>
      </trkpt>
      <trkpt lat="43.55609" lon="2.91614">
        <ele>126.2</ele>
        <time>2017-04-16T16:31:06.000Z</time>
      </trkpt>
      <trkpt lat="43.55608" lon="2.91613">
        <ele>126.2</ele>
        <time>2017-04-16T16:31:07.000Z</time>
      </trkpt>
      <trkpt lat="43.55603" lon="2.91589">
        <ele>126.2</ele>
        <time>2017-04-16T16:31:12.000Z</time>
      </trkpt>
      <trkpt lat="43.55599" lon="2.9158">
        <ele>126.2</ele>
        <time>2017-04-16T16:31:15.000Z</time>
      </trkpt>
      <trkpt lat="43.55598" lon="2.91577">
        <ele>126.2</ele>
        <time>2017-04-16T16:31:16.000Z</time>
      </trkpt>
      <trkpt lat="43.55594" lon="2.91565">
        <ele>126.2</ele>
        <time>2017-04-16T16:31:21.000Z</time>
      </trkpt>
      <trkpt lat="43.55589" lon="2.91559">
        <ele>126.2</ele>
        <time>2017-04-16T16:31:24.000Z</time>
      </trkpt>
      <trkpt lat="43.55584" lon="2.91544">
        <ele>126.2</ele>
        <time>2017-04-16T16:31:29.000Z</time>
      </trkpt>
      <trkpt lat="43.55582" lon="2.9154">
        <ele>126.4</ele>
        <time>2017-04-16T16:31:30.000Z</time>
      </trkpt>
      <trkpt lat="43.55579" lon="2.91532">
        <ele>126.8</ele>
        <time>2017-04-16T16:31:32.000Z</time>
      </trkpt>
      <trkpt lat="43.55578" lon="2.91528">
        <ele>127</ele>
        <time>2017-04-16T16:31:33.000Z</time>
      </trkpt>
      <trkpt lat="43.55577" lon="2.91524">
        <ele>127.2</ele>
        <time>2017-04-16T16:31:34.000Z</time>
      </trkpt>
      <trkpt lat="43.55576" lon="2.91516">
        <ele>127.4</ele>
        <time>2017-04-16T16:31:36.000Z</time>
      </trkpt>
      <trkpt lat="43.55576" lon="2.91512">
        <ele>127.6</ele>
        <time>2017-04-16T16:31:37.000Z</time>
      </trkpt>
      <trkpt lat="43.55577" lon="2.91505">
        <ele>128.2</ele>
        <time>2017-04-16T16:31:39.000Z</time>
      </trkpt>
      <trkpt lat="43.55577" lon="2.91499">
        <ele>128.6</ele>
        <time>2017-04-16T16:31:41.000Z</time>
      </trkpt>
      <trkpt lat="43.55576" lon="2.91495">
        <ele>129</ele>
        <time>2017-04-16T16:31:43.000Z</time>
      </trkpt>
      <trkpt lat="43.55574" lon="2.9149">
        <ele>129.2</ele>
        <time>2017-04-16T16:31:45.000Z</time>
      </trkpt>
      <trkpt lat="43.55573" lon="2.91482">
        <ele>129.8</ele>
        <time>2017-04-16T16:31:47.000Z</time>
      </trkpt>
      <trkpt lat="43.55571" lon="2.91474">
        <ele>130.2</ele>
        <time>2017-04-16T16:31:49.000Z</time>
      </trkpt>
      <trkpt lat="43.5557" lon="2.9147">
        <ele>130.6</ele>
        <time>2017-04-16T16:31:50.000Z</time>
      </trkpt>
      <trkpt lat="43.55569" lon="2.9146">
        <ele>131</ele>
        <time>2017-04-16T16:31:53.000Z</time>
      </trkpt>
      <trkpt lat="43.55568" lon="2.91453">
        <ele>131.4</ele>
        <time>2017-04-16T16:31:55.000Z</time>
      </trkpt>
      <trkpt lat="43.55568" lon="2.91443">
        <ele>131.8</ele>
        <time>2017-04-16T16:31:58.000Z</time>
      </trkpt>
      <trkpt lat="43.55567" lon="2.91441">
        <ele>132.2</ele>
        <time>2017-04-16T16:31:59.000Z</time>
      </trkpt>
      <trkpt lat="43.55567" lon="2.91438">
        <ele>132.4</ele>
        <time>2017-04-16T16:32:00.000Z</time>
      </trkpt>
      <trkpt lat="43.55566" lon="2.91435">
        <ele>132.6</ele>
        <time>2017-04-16T16:32:01.000Z</time>
      </trkpt>
      <trkpt lat="43.5556" lon="2.91427">
        <ele>133.2</ele>
        <time>2017-04-16T16:32:04.000Z</time>
      </trkpt>
      <trkpt lat="43.55559" lon="2.91425">
        <ele>133.4</ele>
        <time>2017-04-16T16:32:05.000Z</time>
      </trkpt>
      <trkpt lat="43.55561" lon="2.9141">
        <ele>133.8</ele>
        <time>2017-04-16T16:32:09.000Z</time>
      </trkpt>
      <trkpt lat="43.55562" lon="2.91402">
        <ele>134.2</ele>
        <time>2017-04-16T16:32:11.000Z</time>
      </trkpt>
      <trkpt lat="43.55565" lon="2.91398">
        <ele>134.6</ele>
        <time>2017-04-16T16:32:13.000Z</time>
      </trkpt>
      <trkpt lat="43.55569" lon="2.91396">
        <ele>135</ele>
        <time>2017-04-16T16:32:15.000Z</time>
      </trkpt>
      <trkpt lat="43.55571" lon="2.91396">
        <ele>135.4</ele>
        <time>2017-04-16T16:32:17.000Z</time>
      </trkpt>
      <trkpt lat="43.55576" lon="2.91395">
        <ele>135.6</ele>
        <time>2017-04-16T16:32:19.000Z</time>
      </trkpt>
      <trkpt lat="43.55598" lon="2.91388">
        <ele>136.2</ele>
        <time>2017-04-16T16:32:25.000Z</time>
      </trkpt>
      <trkpt lat="43.55602" lon="2.91387">
        <ele>136.6</ele>
        <time>2017-04-16T16:32:27.000Z</time>
      </trkpt>
      <trkpt lat="43.55607" lon="2.91389">
        <ele>137</ele>
        <time>2017-04-16T16:32:29.000Z</time>
      </trkpt>
      <trkpt lat="43.55611" lon="2.91391">
        <ele>137.6</ele>
        <time>2017-04-16T16:32:31.000Z</time>
      </trkpt>
      <trkpt lat="43.55613" lon="2.91392">
        <ele>137.8</ele>
        <time>2017-04-16T16:32:33.000Z</time>
      </trkpt>
      <trkpt lat="43.55615" lon="2.91393">
        <ele>138.2</ele>
        <time>2017-04-16T16:32:35.000Z</time>
      </trkpt>
      <trkpt lat="43.5562" lon="2.91398">
        <ele>138.6</ele>
        <time>2017-04-16T16:32:40.000Z</time>
      </trkpt>
      <trkpt lat="43.5562" lon="2.91398">
        <ele>138.8</ele>
        <time>2017-04-16T16:32:41.000Z</time>
      </trkpt>
      <trkpt lat="43.55623" lon="2.91403">
        <ele>139.2</ele>
        <time>2017-04-16T16:32:44.000Z</time>
      </trkpt>
      <trkpt lat="43.55626" lon="2.91406">
        <ele>139.6</ele>
        <time>2017-04-16T16:32:46.000Z</time>
      </trkpt>
      <trkpt lat="43.55628" lon="2.91405">
        <ele>139.8</ele>
        <time>2017-04-16T16:32:47.000Z</time>
      </trkpt>
      <trkpt lat="43.55639" lon="2.91401">
        <ele>140.2</ele>
        <time>2017-04-16T16:32:50.000Z</time>
      </trkpt>
      <trkpt lat="43.55643" lon="2.91397">
        <ele>140.4</ele>
        <time>2017-04-16T16:32:52.000Z</time>
      </trkpt>
      <trkpt lat="43.55644" lon="2.91396">
        <ele>140.6</ele>
        <time>2017-04-16T16:32:53.000Z</time>
      </trkpt>
      <trkpt lat="43.55652" lon="2.91389">
        <ele>141</ele>
        <time>2017-04-16T16:32:58.000Z</time>
      </trkpt>
      <trkpt lat="43.55655" lon="2.91386">
        <ele>141.2</ele>
        <time>2017-04-16T16:32:59.000Z</time>
      </trkpt>
      <trkpt lat="43.55658" lon="2.9138">
        <ele>141.6</ele>
        <time>2017-04-16T16:33:01.000Z</time>
      </trkpt>
      <trkpt lat="43.55658" lon="2.91379">
        <ele>142</ele>
        <time>2017-04-16T16:33:03.000Z</time>
      </trkpt>
      <trkpt lat="43.55658" lon="2.91384">
        <ele>142.4</ele>
        <time>2017-04-16T16:33:05.000Z</time>
      </trkpt>
      <trkpt lat="43.55659" lon="2.91385">
        <ele>142.6</ele>
        <time>2017-04-16T16:33:07.000Z</time>
      </trkpt>
      <trkpt lat="43.5566" lon="2.91378">
        <ele>142.8</ele>
        <time>2017-04-16T16:33:09.000Z</time>
      </trkpt>
      <trkpt lat="43.55663" lon="2.91373">
        <ele>142.8</ele>
        <time>2017-04-16T16:33:10.000Z</time>
      </trkpt>
      <trkpt lat="43.55681" lon="2.91354">
        <ele>143.2</ele>
        <time>2017-04-16T16:33:14.000Z</time>
      </trkpt>
      <trkpt lat="43.55684" lon="2.91347">
        <ele>143.2</ele>
        <time>2017-04-16T16:33:15.000Z</time>
      </trkpt>
      <trkpt lat="43.55683" lon="2.91319">
        <ele>143.2</ele>
        <time>2017-04-16T16:33:19.000Z</time>
      </trkpt>
      <trkpt lat="43.55677" lon="2.91306">
        <ele>142.8</ele>
        <time>2017-04-16T16:33:21.000Z</time>
      </trkpt>
      <trkpt lat="43.55668" lon="2.91298">
        <ele>142.6</ele>
        <time>2017-04-16T16:33:23.000Z</time>
      </trkpt>
      <trkpt lat="43.55657" lon="2.91296">
        <ele>142.4</ele>
        <time>2017-04-16T16:33:25.000Z</time>
      </trkpt>
      <trkpt lat="43.55645" lon="2.91301">
        <ele>142.2</ele>
        <time>2017-04-16T16:33:27.000Z</time>
      </trkpt>
      <trkpt lat="43.55641" lon="2.91307">
        <ele>142</ele>
        <time>2017-04-16T16:33:28.000Z</time>
      </trkpt>
      <trkpt lat="43.55636" lon="2.91319">
        <ele>142</ele>
        <time>2017-04-16T16:33:30.000Z</time>
      </trkpt>
      <trkpt lat="43.55633" lon="2.91322">
        <ele>141.8</ele>
        <time>2017-04-16T16:33:34.000Z</time>
      </trkpt>
      <trkpt lat="43.55633" lon="2.9132">
        <ele>141.8</ele>
        <time>2017-04-16T16:33:35.000Z</time>
      </trkpt>
      <trkpt lat="43.55631" lon="2.91314">
        <ele>141.6</ele>
        <time>2017-04-16T16:33:41.000Z</time>
      </trkpt>
      <trkpt lat="43.55631" lon="2.91314">
        <ele>141.6</ele>
        <time>2017-04-16T16:33:42.000Z</time>
      </trkpt>
      <trkpt lat="43.55649" lon="2.91306">
        <ele>141.8</ele>
        <time>2017-04-16T16:33:45.000Z</time>
      </trkpt>
      <trkpt lat="43.55659" lon="2.91302">
        <ele>142</ele>
        <time>2017-04-16T16:33:47.000Z</time>
      </trkpt>
      <trkpt lat="43.55661" lon="2.91303">
        <ele>142.2</ele>
        <time>2017-04-16T16:33:48.000Z</time>
      </trkpt>
      <trkpt lat="43.55661" lon="2.91311">
        <ele>142.6</ele>
        <time>2017-04-16T16:33:51.000Z</time>
      </trkpt>
      <trkpt lat="43.55661" lon="2.91315">
        <ele>142.6</ele>
        <time>2017-04-16T16:33:52.000Z</time>
      </trkpt>
      <trkpt lat="43.55679" lon="2.91319">
        <ele>143</ele>
        <time>2017-04-16T16:33:57.000Z</time>
      </trkpt>
      <trkpt lat="43.55678" lon="2.91318">
        <ele>143</ele>
        <time>2017-04-16T16:33:58.000Z</time>
      </trkpt>
      <trkpt lat="43.55675" lon="2.91316">
        <ele>143.4</ele>
        <time>2017-04-16T16:34:01.000Z</time>
      </trkpt>
      <trkpt lat="43.55675" lon="2.91317">
        <ele>143.6</ele>
        <time>2017-04-16T16:34:02.000Z</time>
      </trkpt>
      <trkpt lat="43.55678" lon="2.91322">
        <ele>144.2</ele>
        <time>2017-04-16T16:34:05.000Z</time>
      </trkpt>
      <trkpt lat="43.55678" lon="2.91324">
        <ele>144.4</ele>
        <time>2017-04-16T16:34:07.000Z</time>
      </trkpt>
      <trkpt lat="43.55677" lon="2.91324">
        <ele>145</ele>
        <time>2017-04-16T16:34:09.000Z</time>
      </trkpt>
      <trkpt lat="43.55676" lon="2.91323">
        <ele>145.2</ele>
        <time>2017-04-16T16:34:10.000Z</time>
      </trkpt>
      <trkpt lat="43.55675" lon="2.91322">
        <ele>145.4</ele>
        <time>2017-04-16T16:34:11.000Z</time>
      </trkpt>
      <trkpt lat="43.55671" lon="2.91319">
        <ele>146</ele>
        <time>2017-04-16T16:34:13.000Z</time>
      </trkpt>
      <trkpt lat="43.55664" lon="2.9132">
        <ele>146.2</ele>
        <time>2017-04-16T16:34:15.000Z</time>
      </trkpt>
      <trkpt lat="43.55662" lon="2.91323">
        <ele>146.6</ele>
        <time>2017-04-16T16:34:17.000Z</time>
      </trkpt>
      <trkpt lat="43.55664" lon="2.91324">
        <ele>147.2</ele>
        <time>2017-04-16T16:34:20.000Z</time>
      </trkpt>
      <trkpt lat="43.55666" lon="2.91324">
        <ele>147.8</ele>
        <time>2017-04-16T16:34:22.000Z</time>
      </trkpt>
      <trkpt lat="43.55667" lon="2.91326">
        <ele>148.2</ele>
        <time>2017-04-16T16:34:24.000Z</time>
      </trkpt>
      <trkpt lat="43.55667" lon="2.91327">
        <ele>148.6</ele>
        <time>2017-04-16T16:34:26.000Z</time>
      </trkpt>
      <trkpt lat="43.55669" lon="2.91328">
        <ele>148.8</ele>
        <time>2017-04-16T16:34:28.000Z</time>
      </trkpt>
      <trkpt lat="43.55672" lon="2.91326">
        <ele>149.6</ele>
        <time>2017-04-16T16:34:32.000Z</time>
      </trkpt>
      <trkpt lat="43.55673" lon="2.91326">
        <ele>150</ele>
        <time>2017-04-16T16:34:34.000Z</time>
      </trkpt>
      <trkpt lat="43.55674" lon="2.91325">
        <ele>150.4</ele>
        <time>2017-04-16T16:34:36.000Z</time>
      </trkpt>
      <trkpt lat="43.55674" lon="2.91324">
        <ele>150.8</ele>
        <time>2017-04-16T16:34:38.000Z</time>
      </trkpt>
      <trkpt lat="43.55675" lon="2.91322">
        <ele>151</ele>
        <time>2017-04-16T16:34:40.000Z</time>
      </trkpt>
      <trkpt lat="43.55676" lon="2.9132">
        <ele>151.4</ele>
        <time>2017-04-16T16:34:42.000Z</time>
      </trkpt>
      <trkpt lat="43.55685" lon="2.91313">
        <ele>151.8</ele>
        <time>2017-04-16T16:34:49.000Z</time>
      </trkpt>
      <trkpt lat="43.55686" lon="2.91312">
        <ele>152</ele>
        <time>2017-04-16T16:34:50.000Z</time>
      </trkpt>
      <trkpt lat="43.55689" lon="2.91308">
        <ele>152.4</ele>
        <time>2017-04-16T16:34:52.000Z</time>
      </trkpt>
      <trkpt lat="43.55692" lon="2.91304">
        <ele>152.8</ele>
        <time>2017-04-16T16:34:54.000Z</time>
      </trkpt>
      <trkpt lat="43.55695" lon="2.91303">
        <ele>153.2</ele>
        <time>2017-04-16T16:34:56.000Z</time>
      </trkpt>
      <trkpt lat="43.55698" lon="2.913">
        <ele>153.4</ele>
        <time>2017-04-16T16:34:58.000Z</time>
      </trkpt>
      <trkpt lat="43.55702" lon="2.91301">
        <ele>153.8</ele>
        <time>2017-04-16T16:35:01.000Z</time>
      </trkpt>
      <trkpt lat="43.55704" lon="2.91299">
        <ele>154.2</ele>
        <time>2017-04-16T16:35:03.000Z</time>
      </trkpt>
      <trkpt lat="43.55706" lon="2.91297">
        <ele>154.6</ele>
        <time>2017-04-16T16:35:05.000Z</time>
      </trkpt>
      <trkpt lat="43.5571" lon="2.91295">
        <ele>155</ele>
        <time>2017-04-16T16:35:07.000Z</time>
      </trkpt>
      <trkpt lat="43.55716" lon="2.91293">
        <ele>155.2</ele>
        <time>2017-04-16T16:35:09.000Z</time>
      </trkpt>
      <trkpt lat="43.55718" lon="2.91295">
        <ele>155.6</ele>
        <time>2017-04-16T16:35:10.000Z</time>
      </trkpt>
      <trkpt lat="43.55721" lon="2.91299">
        <ele>156.2</ele>
        <time>2017-04-16T16:35:12.000Z</time>
      </trkpt>
      <trkpt lat="43.55722" lon="2.91302">
        <ele>156.6</ele>
        <time>2017-04-16T16:35:14.000Z</time>
      </trkpt>
      <trkpt lat="43.55723" lon="2.91305">
        <ele>156.8</ele>
        <time>2017-04-16T16:35:15.000Z</time>
      </trkpt>
      <trkpt lat="43.55722" lon="2.9131">
        <ele>157</ele>
        <time>2017-04-16T16:35:16.000Z</time>
      </trkpt>
      <trkpt lat="43.55717" lon="2.91319">
        <ele>157.2</ele>
        <time>2017-04-16T16:35:18.000Z</time>
      </trkpt>
      <trkpt lat="43.55716" lon="2.91321">
        <ele>157.4</ele>
        <time>2017-04-16T16:35:19.000Z</time>
      </trkpt>
      <trkpt lat="43.55716" lon="2.91321">
        <ele>157.6</ele>
        <time>2017-04-16T16:35:21.000Z</time>
      </trkpt>
      <trkpt lat="43.55716" lon="2.91321">
        <ele>157.8</ele>
        <time>2017-04-16T16:35:23.000Z</time>
      </trkpt>
      <trkpt lat="43.55716" lon="2.91319">
        <ele>158</ele>
        <time>2017-04-16T16:35:28.000Z</time>
      </trkpt>
      <trkpt lat="43.55718" lon="2.91315">
        <ele>158.2</ele>
        <time>2017-04-16T16:35:33.000Z</time>
      </trkpt>
      <trkpt lat="43.55717" lon="2.91313">
        <ele>158.6</ele>
        <time>2017-04-16T16:35:36.000Z</time>
      </trkpt>
      <trkpt lat="43.55717" lon="2.91312">
        <ele>159</ele>
        <time>2017-04-16T16:35:38.000Z</time>
      </trkpt>
      <trkpt lat="43.55718" lon="2.91311">
        <ele>159.2</ele>
        <time>2017-04-16T16:35:40.000Z</time>
      </trkpt>
      <trkpt lat="43.55718" lon="2.91311">
        <ele>159.6</ele>
        <time>2017-04-16T16:35:42.000Z</time>
      </trkpt>
      <trkpt lat="43.55718" lon="2.91312">
        <ele>159.6</ele>
        <time>2017-04-16T16:35:43.000Z</time>
      </trkpt>
      <trkpt lat="43.55718" lon="2.91313">
        <ele>159.8</ele>
        <time>2017-04-16T16:35:45.000Z</time>
      </trkpt>
      <trkpt lat="43.55718" lon="2.91314">
        <ele>159.8</ele>
        <time>2017-04-16T16:35:46.000Z</time>
      </trkpt>
      <trkpt lat="43.55718" lon="2.91314">
        <ele>160.2</ele>
        <time>2017-04-16T16:35:47.000Z</time>
      </trkpt>
      <trkpt lat="43.55718" lon="2.91313">
        <ele>160.6</ele>
        <time>2017-04-16T16:35:49.000Z</time>
      </trkpt>
      <trkpt lat="43.55718" lon="2.91311">
        <ele>161</ele>
        <time>2017-04-16T16:35:51.000Z</time>
      </trkpt>
      <trkpt lat="43.55718" lon="2.91308">
        <ele>161.2</ele>
        <time>2017-04-16T16:35:53.000Z</time>
      </trkpt>
      <trkpt lat="43.55719" lon="2.91307">
        <ele>161.6</ele>
        <time>2017-04-16T16:35:55.000Z</time>
      </trkpt>
      <trkpt lat="43.55726" lon="2.913">
        <ele>162.2</ele>
        <time>2017-04-16T16:36:04.000Z</time>
      </trkpt>
      <trkpt lat="43.55726" lon="2.91298">
        <ele>162.6</ele>
        <time>2017-04-16T16:36:09.000Z</time>
      </trkpt>
      <trkpt lat="43.55731" lon="2.91299">
        <ele>167</ele>
        <time>2017-04-16T16:36:52.000Z</time>
      </trkpt>
      <trkpt lat="43.55732" lon="2.91298">
        <ele>167.2</ele>
        <time>2017-04-16T16:36:53.000Z</time>
      </trkpt>
      <trkpt lat="43.55733" lon="2.91298">
        <ele>167.2</ele>
        <time>2017-04-16T16:36:54.000Z</time>
      </trkpt>
      <trkpt lat="43.55734" lon="2.91297">
        <ele>167.4</ele>
        <time>2017-04-16T16:36:55.000Z</time>
      </trkpt>
      <trkpt lat="43.55736" lon="2.91294">
        <ele>167.6</ele>
        <time>2017-04-16T16:36:57.000Z</time>
      </trkpt>
      <trkpt lat="43.55738" lon="2.91292">
        <ele>167.8</ele>
        <time>2017-04-16T16:36:59.000Z</time>
      </trkpt>
      <trkpt lat="43.55739" lon="2.91291">
        <ele>168</ele>
        <time>2017-04-16T16:37:01.000Z</time>
      </trkpt>
      <trkpt lat="43.5574" lon="2.9128">
        <ele>168.6</ele>
        <time>2017-04-16T16:37:10.000Z</time>
      </trkpt>
      <trkpt lat="43.55737" lon="2.91277">
        <ele>168.8</ele>
        <time>2017-04-16T16:37:15.000Z</time>
      </trkpt>
      <trkpt lat="43.55737" lon="2.91276">
        <ele>169</ele>
        <time>2017-04-16T16:37:16.000Z</time>
      </trkpt>
      <trkpt lat="43.5574" lon="2.91272">
        <ele>169.6</ele>
        <time>2017-04-16T16:37:19.000Z</time>
      </trkpt>
      <trkpt lat="43.55741" lon="2.9127">
        <ele>169.8</ele>
        <time>2017-04-16T16:37:20.000Z</time>
      </trkpt>
      <trkpt lat="43.55746" lon="2.91267">
        <ele>170</ele>
        <time>2017-04-16T16:37:22.000Z</time>
      </trkpt>
      <trkpt lat="43.55749" lon="2.91265">
        <ele>170.2</ele>
        <time>2017-04-16T16:37:24.000Z</time>
      </trkpt>
      <trkpt lat="43.5575" lon="2.91263">
        <ele>170.6</ele>
        <time>2017-04-16T16:37:26.000Z</time>
      </trkpt>
      <trkpt lat="43.5575" lon="2.91263">
        <ele>171</ele>
        <time>2017-04-16T16:37:28.000Z</time>
      </trkpt>
      <trkpt lat="43.55749" lon="2.91263">
        <ele>171.2</ele>
        <time>2017-04-16T16:37:29.000Z</time>
      </trkpt>
      <trkpt lat="43.55748" lon="2.91259">
        <ele>173.2</ele>
        <time>2017-04-16T16:37:36.000Z</time>
      </trkpt>
      <trkpt lat="43.55748" lon="2.91258">
        <ele>173.4</ele>
        <time>2017-04-16T16:37:37.000Z</time>
      </trkpt>
      <trkpt lat="43.55748" lon="2.91257">
        <ele>173.6</ele>
        <time>2017-04-16T16:37:38.000Z</time>
      </trkpt>
      <trkpt lat="43.55748" lon="2.91256">
        <ele>173.8</ele>
        <time>2017-04-16T16:37:39.000Z</time>
      </trkpt>
      <trkpt lat="43.55749" lon="2.91256">
        <ele>174</ele>
        <time>2017-04-16T16:37:40.000Z</time>
      </trkpt>
      <trkpt lat="43.5575" lon="2.91256">
        <ele>174</ele>
        <time>2017-04-16T16:37:41.000Z</time>
      </trkpt>
      <trkpt lat="43.55753" lon="2.91255">
        <ele>174.2</ele>
        <time>2017-04-16T16:37:43.000Z</time>
      </trkpt>
      <trkpt lat="43.55756" lon="2.91255">
        <ele>174.4</ele>
        <time>2017-04-16T16:37:45.000Z</time>
      </trkpt>
      <trkpt lat="43.55759" lon="2.91256">
        <ele>174.8</ele>
        <time>2017-04-16T16:37:48.000Z</time>
      </trkpt>
      <trkpt lat="43.55761" lon="2.91256">
        <ele>175.4</ele>
        <time>2017-04-16T16:37:50.000Z</time>
      </trkpt>
      <trkpt lat="43.55763" lon="2.91255">
        <ele>175.8</ele>
        <time>2017-04-16T16:37:52.000Z</time>
      </trkpt>
      <trkpt lat="43.55764" lon="2.91254">
        <ele>176</ele>
        <time>2017-04-16T16:37:54.000Z</time>
      </trkpt>
      <trkpt lat="43.55765" lon="2.91253">
        <ele>176.2</ele>
        <time>2017-04-16T16:37:55.000Z</time>
      </trkpt>
      <trkpt lat="43.55769" lon="2.91238">
        <ele>177</ele>
        <time>2017-04-16T16:38:05.000Z</time>
      </trkpt>
      <trkpt lat="43.55768" lon="2.91237">
        <ele>177.2</ele>
        <time>2017-04-16T16:38:08.000Z</time>
      </trkpt>
      <trkpt lat="43.55769" lon="2.91237">
        <ele>177.8</ele>
        <time>2017-04-16T16:38:10.000Z</time>
      </trkpt>
      <trkpt lat="43.5577" lon="2.91238">
        <ele>178.2</ele>
        <time>2017-04-16T16:38:13.000Z</time>
      </trkpt>
      <trkpt lat="43.55772" lon="2.91238">
        <ele>178.4</ele>
        <time>2017-04-16T16:38:15.000Z</time>
      </trkpt>
      <trkpt lat="43.55773" lon="2.91239">
        <ele>178.6</ele>
        <time>2017-04-16T16:38:17.000Z</time>
      </trkpt>
      <trkpt lat="43.55773" lon="2.91241">
        <ele>179</ele>
        <time>2017-04-16T16:38:19.000Z</time>
      </trkpt>
      <trkpt lat="43.55772" lon="2.91244">
        <ele>179.6</ele>
        <time>2017-04-16T16:38:21.000Z</time>
      </trkpt>
      <trkpt lat="43.55772" lon="2.91246">
        <ele>180</ele>
        <time>2017-04-16T16:38:23.000Z</time>
      </trkpt>
      <trkpt lat="43.55772" lon="2.91249">
        <ele>180.2</ele>
        <time>2017-04-16T16:38:25.000Z</time>
      </trkpt>
      <trkpt lat="43.55772" lon="2.91251">
        <ele>180.6</ele>
        <time>2017-04-16T16:38:27.000Z</time>
      </trkpt>
      <trkpt lat="43.55776" lon="2.91254">
        <ele>181</ele>
        <time>2017-04-16T16:38:31.000Z</time>
      </trkpt>
      <trkpt lat="43.55788" lon="2.91244">
        <ele>181.6</ele>
        <time>2017-04-16T16:38:41.000Z</time>
      </trkpt>
      <trkpt lat="43.55787" lon="2.91244">
        <ele>181.8</ele>
        <time>2017-04-16T16:38:42.000Z</time>
      </trkpt>
      <trkpt lat="43.55785" lon="2.91241">
        <ele>183</ele>
        <time>2017-04-16T16:38:49.000Z</time>
      </trkpt>
      <trkpt lat="43.55786" lon="2.91242">
        <ele>183</ele>
        <time>2017-04-16T16:38:50.000Z</time>
      </trkpt>
      <trkpt lat="43.55787" lon="2.91242">
        <ele>183.4</ele>
        <time>2017-04-16T16:38:51.000Z</time>
      </trkpt>
      <trkpt lat="43.55788" lon="2.91244">
        <ele>183.8</ele>
        <time>2017-04-16T16:38:53.000Z</time>
      </trkpt>
      <trkpt lat="43.5579" lon="2.91245">
        <ele>184.2</ele>
        <time>2017-04-16T16:38:55.000Z</time>
      </trkpt>
      <trkpt lat="43.5579" lon="2.91247">
        <ele>184.6</ele>
        <time>2017-04-16T16:38:57.000Z</time>
      </trkpt>
      <trkpt lat="43.55789" lon="2.91248">
        <ele>185</ele>
        <time>2017-04-16T16:38:59.000Z</time>
      </trkpt>
      <trkpt lat="43.55786" lon="2.91254">
        <ele>185.4</ele>
        <time>2017-04-16T16:39:05.000Z</time>
      </trkpt>
      <trkpt lat="43.55785" lon="2.91258">
        <ele>185.6</ele>
        <time>2017-04-16T16:39:09.000Z</time>
      </trkpt>
      <trkpt lat="43.55785" lon="2.9126">
        <ele>185.8</ele>
        <time>2017-04-16T16:39:11.000Z</time>
      </trkpt>
      <trkpt lat="43.55783" lon="2.91261">
        <ele>185.8</ele>
        <time>2017-04-16T16:39:14.000Z</time>
      </trkpt>
      <trkpt lat="43.55779" lon="2.91263">
        <ele>186</ele>
        <time>2017-04-16T16:39:20.000Z</time>
      </trkpt>
      <trkpt lat="43.55777" lon="2.91268">
        <ele>186</ele>
        <time>2017-04-16T16:39:28.000Z</time>
      </trkpt>
      <trkpt lat="43.5578" lon="2.91268">
        <ele>186</ele>
        <time>2017-04-16T16:40:41.000Z</time>
      </trkpt>
      <trkpt lat="43.55783" lon="2.91269">
        <ele>186</ele>
        <time>2017-04-16T16:40:42.000Z</time>
      </trkpt>
      <trkpt lat="43.55789" lon="2.91273">
        <ele>185.8</ele>
        <time>2017-04-16T16:40:44.000Z</time>
      </trkpt>
      <trkpt lat="43.55791" lon="2.91279">
        <ele>185.6</ele>
        <time>2017-04-16T16:40:46.000Z</time>
      </trkpt>
      <trkpt lat="43.55791" lon="2.91281">
        <ele>185.4</ele>
        <time>2017-04-16T16:40:47.000Z</time>
      </trkpt>
      <trkpt lat="43.55784" lon="2.91284">
        <ele>184.8</ele>
        <time>2017-04-16T16:40:49.000Z</time>
      </trkpt>
      <trkpt lat="43.55768" lon="2.91291">
        <ele>184.2</ele>
        <time>2017-04-16T16:40:51.000Z</time>
      </trkpt>
      <trkpt lat="43.55767" lon="2.91299">
        <ele>183.6</ele>
        <time>2017-04-16T16:40:53.000Z</time>
      </trkpt>
      <trkpt lat="43.55766" lon="2.91309">
        <ele>182.8</ele>
        <time>2017-04-16T16:40:55.000Z</time>
      </trkpt>
      <trkpt lat="43.55765" lon="2.91307">
        <ele>182.2</ele>
        <time>2017-04-16T16:40:56.000Z</time>
      </trkpt>
      <trkpt lat="43.55756" lon="2.91316">
        <ele>181</ele>
        <time>2017-04-16T16:40:58.000Z</time>
      </trkpt>
      <trkpt lat="43.55752" lon="2.91322">
        <ele>180.4</ele>
        <time>2017-04-16T16:40:59.000Z</time>
      </trkpt>
      <trkpt lat="43.55747" lon="2.91332">
        <ele>179</ele>
        <time>2017-04-16T16:41:01.000Z</time>
      </trkpt>
      <trkpt lat="43.55748" lon="2.91348">
        <ele>177.6</ele>
        <time>2017-04-16T16:41:03.000Z</time>
      </trkpt>
      <trkpt lat="43.55752" lon="2.91357">
        <ele>177</ele>
        <time>2017-04-16T16:41:04.000Z</time>
      </trkpt>
      <trkpt lat="43.55762" lon="2.91385">
        <ele>174.8</ele>
        <time>2017-04-16T16:41:07.000Z</time>
      </trkpt>
      <trkpt lat="43.55766" lon="2.91392">
        <ele>174.2</ele>
        <time>2017-04-16T16:41:08.000Z</time>
      </trkpt>
      <trkpt lat="43.55769" lon="2.91397">
        <ele>173.2</ele>
        <time>2017-04-16T16:41:09.000Z</time>
      </trkpt>
      <trkpt lat="43.55772" lon="2.91402">
        <ele>172.4</ele>
        <time>2017-04-16T16:41:10.000Z</time>
      </trkpt>
      <trkpt lat="43.55772" lon="2.91407">
        <ele>171.4</ele>
        <time>2017-04-16T16:41:11.000Z</time>
      </trkpt>
      <trkpt lat="43.55768" lon="2.9142">
        <ele>169.4</ele>
        <time>2017-04-16T16:41:13.000Z</time>
      </trkpt>
      <trkpt lat="43.55765" lon="2.91428">
        <ele>168.6</ele>
        <time>2017-04-16T16:41:14.000Z</time>
      </trkpt>
      <trkpt lat="43.55764" lon="2.91435">
        <ele>167.8</ele>
        <time>2017-04-16T16:41:15.000Z</time>
      </trkpt>
      <trkpt lat="43.55764" lon="2.9144">
        <ele>166.8</ele>
        <time>2017-04-16T16:41:16.000Z</time>
      </trkpt>
      <trkpt lat="43.55763" lon="2.91449">
        <ele>165</ele>
        <time>2017-04-16T16:41:18.000Z</time>
      </trkpt>
      <trkpt lat="43.55761" lon="2.91452">
        <ele>163.8</ele>
        <time>2017-04-16T16:41:19.000Z</time>
      </trkpt>
      <trkpt lat="43.55758" lon="2.91455">
        <ele>163</ele>
        <time>2017-04-16T16:41:20.000Z</time>
      </trkpt>
      <trkpt lat="43.5575" lon="2.91457">
        <ele>160.4</ele>
        <time>2017-04-16T16:41:23.000Z</time>
      </trkpt>
      <trkpt lat="43.55737" lon="2.91458">
        <ele>158.8</ele>
        <time>2017-04-16T16:41:25.000Z</time>
      </trkpt>
      <trkpt lat="43.55726" lon="2.9147">
        <ele>157.6</ele>
        <time>2017-04-16T16:41:27.000Z</time>
      </trkpt>
      <trkpt lat="43.55722" lon="2.91477">
        <ele>156.6</ele>
        <time>2017-04-16T16:41:28.000Z</time>
      </trkpt>
      <trkpt lat="43.55711" lon="2.9149">
        <ele>155</ele>
        <time>2017-04-16T16:41:30.000Z</time>
      </trkpt>
      <trkpt lat="43.55707" lon="2.91495">
        <ele>154</ele>
        <time>2017-04-16T16:41:31.000Z</time>
      </trkpt>
      <trkpt lat="43.557" lon="2.91518">
        <ele>151</ele>
        <time>2017-04-16T16:41:34.000Z</time>
      </trkpt>
      <trkpt lat="43.55705" lon="2.91524">
        <ele>148.8</ele>
        <time>2017-04-16T16:41:36.000Z</time>
      </trkpt>
      <trkpt lat="43.557" lon="2.91519">
        <ele>147.8</ele>
        <time>2017-04-16T16:41:37.000Z</time>
      </trkpt>
      <trkpt lat="43.55688" lon="2.91503">
        <ele>145.2</ele>
        <time>2017-04-16T16:41:40.000Z</time>
      </trkpt>
      <trkpt lat="43.55687" lon="2.91502">
        <ele>144.4</ele>
        <time>2017-04-16T16:41:41.000Z</time>
      </trkpt>
      <trkpt lat="43.55687" lon="2.91503">
        <ele>143.6</ele>
        <time>2017-04-16T16:41:42.000Z</time>
      </trkpt>
      <trkpt lat="43.55691" lon="2.91511">
        <ele>142.4</ele>
        <time>2017-04-16T16:41:44.000Z</time>
      </trkpt>
      <trkpt lat="43.55694" lon="2.91523">
        <ele>134.8</ele>
        <time>2017-04-16T16:42:16.000Z</time>
      </trkpt>
      <trkpt lat="43.55693" lon="2.91522">
        <ele>134.6</ele>
        <time>2017-04-16T16:42:17.000Z</time>
      </trkpt>
      <trkpt lat="43.55693" lon="2.91521">
        <ele>134.6</ele>
        <time>2017-04-16T16:42:18.000Z</time>
      </trkpt>
      <trkpt lat="43.55691" lon="2.9152">
        <ele>134.6</ele>
        <time>2017-04-16T16:42:19.000Z</time>
      </trkpt>
      <trkpt lat="43.55686" lon="2.91519">
        <ele>134.6</ele>
        <time>2017-04-16T16:42:21.000Z</time>
      </trkpt>
      <trkpt lat="43.55683" lon="2.91519">
        <ele>134.6</ele>
        <time>2017-04-16T16:42:22.000Z</time>
      </trkpt>
      <trkpt lat="43.55673" lon="2.91524">
        <ele>134.6</ele>
        <time>2017-04-16T16:42:25.000Z</time>
      </trkpt>
      <trkpt lat="43.55669" lon="2.91527">
        <ele>134.6</ele>
        <time>2017-04-16T16:42:26.000Z</time>
      </trkpt>
      <trkpt lat="43.55658" lon="2.91537">
        <ele>134.2</ele>
        <time>2017-04-16T16:42:30.000Z</time>
      </trkpt>
      <trkpt lat="43.55654" lon="2.91542">
        <ele>133.8</ele>
        <time>2017-04-16T16:42:32.000Z</time>
      </trkpt>
      <trkpt lat="43.55652" lon="2.91544">
        <ele>133.6</ele>
        <time>2017-04-16T16:42:33.000Z</time>
      </trkpt>
      <trkpt lat="43.55652" lon="2.91546">
        <ele>133.6</ele>
        <time>2017-04-16T16:42:34.000Z</time>
      </trkpt>
      <trkpt lat="43.55652" lon="2.91554">
        <ele>133.2</ele>
        <time>2017-04-16T16:42:36.000Z</time>
      </trkpt>
      <trkpt lat="43.55653" lon="2.91564">
        <ele>133</ele>
        <time>2017-04-16T16:42:38.000Z</time>
      </trkpt>
      <trkpt lat="43.55653" lon="2.9157">
        <ele>133</ele>
        <time>2017-04-16T16:42:39.000Z</time>
      </trkpt>
      <trkpt lat="43.55659" lon="2.916">
        <ele>132.4</ele>
        <time>2017-04-16T16:42:44.000Z</time>
      </trkpt>
      <trkpt lat="43.5566" lon="2.91606">
        <ele>132.2</ele>
        <time>2017-04-16T16:42:45.000Z</time>
      </trkpt>
      <trkpt lat="43.55657" lon="2.91619">
        <ele>131.6</ele>
        <time>2017-04-16T16:42:48.000Z</time>
      </trkpt>
      <trkpt lat="43.55655" lon="2.91621">
        <ele>131.2</ele>
        <time>2017-04-16T16:42:49.000Z</time>
      </trkpt>
      <trkpt lat="43.55651" lon="2.91622">
        <ele>130.8</ele>
        <time>2017-04-16T16:42:50.000Z</time>
      </trkpt>
      <trkpt lat="43.55647" lon="2.91623">
        <ele>130.2</ele>
        <time>2017-04-16T16:42:52.000Z</time>
      </trkpt>
      <trkpt lat="43.55644" lon="2.91622">
        <ele>130</ele>
        <time>2017-04-16T16:42:53.000Z</time>
      </trkpt>
      <trkpt lat="43.55642" lon="2.91618">
        <ele>129.6</ele>
        <time>2017-04-16T16:42:55.000Z</time>
      </trkpt>
      <trkpt lat="43.55641" lon="2.91615">
        <ele>129.4</ele>
        <time>2017-04-16T16:42:56.000Z</time>
      </trkpt>
      <trkpt lat="43.55639" lon="2.91604">
        <ele>128.8</ele>
        <time>2017-04-16T16:43:00.000Z</time>
      </trkpt>
    </trkseg>
  </trk>
</gpx>